<?xml version="1.0" encoding="UTF-8"?>
<gpx version="1.1" creator="https://www.youtrack.es" xsi:schemaLocation="http://www.topografix.com/GPX/1/1 http://www.topografix.com/GPX/1/1/gpx.xsd http://www.garmin.com/xmlschemas/GpxExtensions/v3 http://www.garmin.com/xmlschemas/GpxExtensionsv3.xsd http://www.garmin.com/xmlschemas/TrackPointExtension/v1 http://www.garmin.com/xmlschemas/TrackPointExtensionv1.xsd" xmlns:gpxtpx="http://www.garmin.com/xmlschemas/TrackPointExtension/v1" xmlns:gpxx="http://www.garmin.com/xmlschemas/GpxExtensions/v3" xmlns:xsi="http://www.w3.org/2001/XMLSchema-instance">
  <metadata>
    <link href="https://www.youtrack.es">
      <text>YouTrack.es</text>
    </link>
    <time>2026-05-08T14:38:18Z</time>
  </metadata>
  <trk>
    <src>https://www.youtrack.es</src>
    <link href="https://www.youtrack.es/ruta/7223-etapa-2">
      <text>YouTrack.es</text>
    </link>
    <trkseg>
      <trkpt lat="42.9452155810249" lon="-5.1329438947189">
        <ele>1067.90755844116</ele>
        <time>2018-08-28T06:56:59Z</time>
      </trkpt>
      <trkpt lat="42.9452389246253" lon="-5.13301430270554">
        <ele>1067.90755844116</ele>
        <time>2018-08-28T06:57:08Z</time>
      </trkpt>
      <trkpt lat="42.9452654952583" lon="-5.13309828937532">
        <ele>1067.90755844116</ele>
        <time>2018-08-28T06:57:10Z</time>
      </trkpt>
      <trkpt lat="42.9453027528179" lon="-5.13318235986413">
        <ele>1067.90755844116</ele>
        <time>2018-08-28T06:57:12Z</time>
      </trkpt>
      <trkpt lat="42.9453249648613" lon="-5.13326467015327">
        <ele>1067.90755844116</ele>
        <time>2018-08-28T06:57:14Z</time>
      </trkpt>
      <trkpt lat="42.9453179240627" lon="-5.13335745782138">
        <ele>1067.90755844116</ele>
        <time>2018-08-28T06:57:16Z</time>
      </trkpt>
      <trkpt lat="42.9452993162376" lon="-5.13346290216328">
        <ele>1067.90755844116</ele>
        <time>2018-08-28T06:57:18Z</time>
      </trkpt>
      <trkpt lat="42.9452622682256" lon="-5.1335794944364">
        <ele>1067.90755844116</ele>
        <time>2018-08-28T06:57:20Z</time>
      </trkpt>
      <trkpt lat="42.9452515393896" lon="-5.13366859406711">
        <ele>1067.90755844116</ele>
        <time>2018-08-28T06:57:22Z</time>
      </trkpt>
      <trkpt lat="42.9452494439138" lon="-5.13375232927979">
        <ele>1067.90755844116</ele>
        <time>2018-08-28T06:57:24Z</time>
      </trkpt>
      <trkpt lat="42.9452638607872" lon="-5.13384344056727">
        <ele>1067.90755844116</ele>
        <time>2018-08-28T06:57:26Z</time>
      </trkpt>
      <trkpt lat="42.9452927364436" lon="-5.13392717577995">
        <ele>1067.3522605896</ele>
        <time>2018-08-28T06:57:28Z</time>
      </trkpt>
      <trkpt lat="42.9453482246426" lon="-5.13400001451851">
        <ele>1067.0397605896</ele>
        <time>2018-08-28T06:57:30Z</time>
      </trkpt>
      <trkpt lat="42.9454447841672" lon="-5.13406095095457">
        <ele>1066.35775375366</ele>
        <time>2018-08-28T06:57:32Z</time>
      </trkpt>
      <trkpt lat="42.9455268010897" lon="-5.13412515633286">
        <ele>1066.84591293335</ele>
        <time>2018-08-28T06:57:34Z</time>
      </trkpt>
      <trkpt lat="42.9455707222623" lon="-5.13416664675356">
        <ele>1066.79000473022</ele>
        <time>2018-08-28T06:57:35Z</time>
      </trkpt>
      <trkpt lat="42.9456216004146" lon="-5.13420989737393">
        <ele>1066.43575668335</ele>
        <time>2018-08-28T06:57:36Z</time>
      </trkpt>
      <trkpt lat="42.9456798965511" lon="-5.1342441793579">
        <ele>1066.18941879272</ele>
        <time>2018-08-28T06:57:36Z</time>
      </trkpt>
      <trkpt lat="42.9457301460606" lon="-5.13429748826207">
        <ele>1065.78182601929</ele>
        <time>2018-08-28T06:57:37Z</time>
      </trkpt>
      <trkpt lat="42.9457721393955" lon="-5.13434568420531">
        <ele>1066.2106590271</ele>
        <time>2018-08-28T06:57:38Z</time>
      </trkpt>
      <trkpt lat="42.9458165215728" lon="-5.13441600837292">
        <ele>1066.31856918335</ele>
        <time>2018-08-28T06:57:39Z</time>
      </trkpt>
      <trkpt lat="42.9458593111885" lon="-5.13448147103669">
        <ele>1065.99984359741</ele>
        <time>2018-08-28T06:57:40Z</time>
      </trkpt>
      <trkpt lat="42.9459165176777" lon="-5.13455464505137">
        <ele>1065.29732894897</ele>
        <time>2018-08-28T06:57:41Z</time>
      </trkpt>
      <trkpt lat="42.9459669767348" lon="-5.13461398892583">
        <ele>1066.32650375366</ele>
        <time>2018-08-28T06:57:42Z</time>
      </trkpt>
      <trkpt lat="42.9460021807281" lon="-5.13468154706539">
        <ele>1066.14889144897</ele>
        <time>2018-08-28T06:57:43Z</time>
      </trkpt>
      <trkpt lat="42.9460393125591" lon="-5.13475195505203">
        <ele>1065.90218734741</ele>
        <time>2018-08-28T06:57:44Z</time>
      </trkpt>
      <trkpt lat="42.9460766958473" lon="-5.13481087983133">
        <ele>1066.12655258179</ele>
        <time>2018-08-28T06:57:45Z</time>
      </trkpt>
      <trkpt lat="42.9461144144115" lon="-5.13487726450445">
        <ele>1065.35775375366</ele>
        <time>2018-08-28T06:57:46Z</time>
      </trkpt>
      <trkpt lat="42.9461414041398" lon="-5.13494960032882">
        <ele>1064.8024559021</ele>
        <time>2018-08-28T06:57:47Z</time>
      </trkpt>
      <trkpt lat="42.9461722495434" lon="-5.13502696529509">
        <ele>1065.21871566772</ele>
        <time>2018-08-28T06:57:48Z</time>
      </trkpt>
      <trkpt lat="42.9461986944479" lon="-5.13510089368106">
        <ele>1064.97909164429</ele>
        <time>2018-08-28T06:57:49Z</time>
      </trkpt>
      <trkpt lat="42.9462237563384" lon="-5.13517188840093">
        <ele>1065.44198226929</ele>
        <time>2018-08-28T06:57:50Z</time>
      </trkpt>
      <trkpt lat="42.9462470580292" lon="-5.13525880873681">
        <ele>1065.27779769897</ele>
        <time>2018-08-28T06:57:51Z</time>
      </trkpt>
      <trkpt lat="42.9462525900853" lon="-5.13534287922563">
        <ele>1065.77889633179</ele>
        <time>2018-08-28T06:57:52Z</time>
      </trkpt>
      <trkpt lat="42.9462637799261" lon="-5.13542401604833">
        <ele>1065.66439437866</ele>
        <time>2018-08-28T06:57:53Z</time>
      </trkpt>
      <trkpt lat="42.9462700663534" lon="-5.13550532050909">
        <ele>1065.8542137146</ele>
        <time>2018-08-28T06:57:54Z</time>
      </trkpt>
      <trkpt lat="42.9462650372115" lon="-5.13557321392478">
        <ele>1064.81002426147</ele>
        <time>2018-08-28T06:57:55Z</time>
      </trkpt>
      <trkpt lat="42.9463000316573" lon="-5.1356427837211">
        <ele>1064.87362289429</ele>
        <time>2018-08-28T06:57:56Z</time>
      </trkpt>
      <trkpt lat="42.9463188071204" lon="-5.13571302406968">
        <ele>1064.54183578491</ele>
        <time>2018-08-28T06:57:57Z</time>
      </trkpt>
      <trkpt lat="42.9463412287114" lon="-5.1357743796009">
        <ele>1064.33395004272</ele>
        <time>2018-08-28T06:57:58Z</time>
      </trkpt>
      <trkpt lat="42.9463698110012" lon="-5.13583263382794">
        <ele>1064.06441879272</ele>
        <time>2018-08-28T06:57:59Z</time>
      </trkpt>
      <trkpt lat="42.9464132711691" lon="-5.13587739319088">
        <ele>1064.43294906616</ele>
        <time>2018-08-28T06:58:00Z</time>
      </trkpt>
      <trkpt lat="42.9464651132402" lon="-5.13591536321224">
        <ele>1063.8278465271</ele>
        <time>2018-08-28T06:58:01Z</time>
      </trkpt>
      <trkpt lat="42.9465263849524" lon="-5.13591980562092">
        <ele>1063.73629379272</ele>
        <time>2018-08-28T06:58:02Z</time>
      </trkpt>
      <trkpt lat="42.9465785203902" lon="-5.13590899296583">
        <ele>1063.97445297241</ele>
        <time>2018-08-28T06:58:03Z</time>
      </trkpt>
      <trkpt lat="42.946630991104" lon="-5.13589574955882">
        <ele>1064.40877914429</ele>
        <time>2018-08-28T06:58:04Z</time>
      </trkpt>
      <trkpt lat="42.9466843000082" lon="-5.13588569127502">
        <ele>1064.62130355835</ele>
        <time>2018-08-28T06:58:05Z</time>
      </trkpt>
      <trkpt lat="42.9467303585661" lon="-5.13577538542928">
        <ele>1064.68673324585</ele>
        <time>2018-08-28T06:58:06Z</time>
      </trkpt>
      <trkpt lat="42.946776249486" lon="-5.13572308235349">
        <ele>1064.96285629272</ele>
        <time>2018-08-28T06:58:07Z</time>
      </trkpt>
      <trkpt lat="42.946808100718" lon="-5.13567371294381">
        <ele>1064.86434555054</ele>
        <time>2018-08-28T06:58:08Z</time>
      </trkpt>
      <trkpt lat="42.9468622478125" lon="-5.13561411761226">
        <ele>1064.93026351929</ele>
        <time>2018-08-28T06:58:09Z</time>
      </trkpt>
      <trkpt lat="42.946879346895" lon="-5.13554572128238">
        <ele>1064.65938949585</ele>
        <time>2018-08-28T06:58:10Z</time>
      </trkpt>
      <trkpt lat="42.9469237709818" lon="-5.13548403047503">
        <ele>1064.69710922241</ele>
        <time>2018-08-28T06:58:11Z</time>
      </trkpt>
      <trkpt lat="42.9469597712559" lon="-5.13540666550876">
        <ele>1064.6549949646</ele>
        <time>2018-08-28T06:58:12Z</time>
      </trkpt>
      <trkpt lat="42.9470048239855" lon="-5.13534086756886">
        <ele>1065.32455062866</ele>
        <time>2018-08-28T06:58:13Z</time>
      </trkpt>
      <trkpt lat="42.9470434645591" lon="-5.13530373573782">
        <ele>1065.21773910522</ele>
        <time>2018-08-28T06:58:14Z</time>
      </trkpt>
      <trkpt lat="42.9471135372696" lon="-5.13526970521094">
        <ele>1065.86019515991</ele>
        <time>2018-08-28T06:58:15Z</time>
      </trkpt>
      <trkpt lat="42.9471757309911" lon="-5.13524824753882">
        <ele>1065.75643539429</ele>
        <time>2018-08-28T06:58:16Z</time>
      </trkpt>
      <trkpt lat="42.9472389724506" lon="-5.13524246402563">
        <ele>1066.36568832397</ele>
        <time>2018-08-28T06:58:17Z</time>
      </trkpt>
      <trkpt lat="42.9473071592329" lon="-5.13524548151077">
        <ele>1065.95260238647</ele>
        <time>2018-08-28T06:58:18Z</time>
      </trkpt>
      <trkpt lat="42.947364449541" lon="-5.13522896916152">
        <ele>1065.54525375366</ele>
        <time>2018-08-28T06:58:19Z</time>
      </trkpt>
      <trkpt lat="42.9474075325233" lon="-5.13520952314617">
        <ele>1065.92770004272</ele>
        <time>2018-08-28T06:58:20Z</time>
      </trkpt>
      <trkpt lat="42.947462014894" lon="-5.13518286869408">
        <ele>1066.19173812866</ele>
        <time>2018-08-28T06:58:21Z</time>
      </trkpt>
      <trkpt lat="42.9475085763661" lon="-5.13518379070343">
        <ele>1064.75912094116</ele>
        <time>2018-08-28T06:58:22Z</time>
      </trkpt>
      <trkpt lat="42.9475718178255" lon="-5.13517959975184">
        <ele>1064.08736801147</ele>
        <time>2018-08-28T06:58:23Z</time>
      </trkpt>
      <trkpt lat="42.9476284375814" lon="-5.13517490588607">
        <ele>1067.97567367554</ele>
        <time>2018-08-28T06:58:24Z</time>
      </trkpt>
      <trkpt lat="42.9476938164262" lon="-5.1351818628657">
        <ele>1068.97713851929</ele>
        <time>2018-08-28T06:58:25Z</time>
      </trkpt>
      <trkpt lat="42.9477416351838" lon="-5.13516845182063">
        <ele>1069.03707504272</ele>
        <time>2018-08-28T06:58:26Z</time>
      </trkpt>
      <trkpt lat="42.947799009311" lon="-5.13516979292513">
        <ele>1069.52730941772</ele>
        <time>2018-08-28T06:58:27Z</time>
      </trkpt>
      <trkpt lat="42.9478455707831" lon="-5.13522142544867">
        <ele>1069.85653305054</ele>
        <time>2018-08-28T06:58:28Z</time>
      </trkpt>
      <trkpt lat="42.9479178227884" lon="-5.13526375405969">
        <ele>1066.90047836304</ele>
        <time>2018-08-28T06:58:29Z</time>
      </trkpt>
      <trkpt lat="42.9479716346068" lon="-5.13529451564433">
        <ele>1064.04684066772</ele>
        <time>2018-08-28T06:58:30Z</time>
      </trkpt>
      <trkpt lat="42.9480115324659" lon="-5.13535461389007">
        <ele>1063.76131820679</ele>
        <time>2018-08-28T06:58:31Z</time>
      </trkpt>
      <trkpt lat="42.9480689485026" lon="-5.13539283536853">
        <ele>1064.12618637085</ele>
        <time>2018-08-28T06:58:32Z</time>
      </trkpt>
      <trkpt lat="42.948134872171" lon="-5.13544706628205">
        <ele>1066.82601547241</ele>
        <time>2018-08-28T06:58:33Z</time>
      </trkpt>
      <trkpt lat="42.9481906956462" lon="-5.13548285700859">
        <ele>1067.00997543335</ele>
        <time>2018-08-28T06:58:34Z</time>
      </trkpt>
      <trkpt lat="42.9482360836518" lon="-5.13550842181326">
        <ele>1066.41537094116</ele>
        <time>2018-08-28T06:58:35Z</time>
      </trkpt>
      <trkpt lat="42.9482857883376" lon="-5.13556910679223">
        <ele>1067.05648422241</ele>
        <time>2018-08-28T06:58:36Z</time>
      </trkpt>
      <trkpt lat="42.9483367083994" lon="-5.13561856002094">
        <ele>1066.82088851929</ele>
        <time>2018-08-28T06:58:37Z</time>
      </trkpt>
      <trkpt lat="42.9483947111694" lon="-5.13565527275683">
        <ele>1066.31270980835</ele>
        <time>2018-08-28T06:58:38Z</time>
      </trkpt>
      <trkpt lat="42.9484463856024" lon="-5.13568762690307">
        <ele>1066.56087875366</ele>
        <time>2018-08-28T06:58:39Z</time>
      </trkpt>
      <trkpt lat="42.9485038854582" lon="-5.13573456556083">
        <ele>1065.73421859741</ele>
        <time>2018-08-28T06:58:40Z</time>
      </trkpt>
      <trkpt lat="42.9485533805964" lon="-5.13578251004697">
        <ele>1066.87801742554</ele>
        <time>2018-08-28T06:58:41Z</time>
      </trkpt>
      <trkpt lat="42.9486030433727" lon="-5.13582634740056">
        <ele>1067.58236312866</ele>
        <time>2018-08-28T06:58:42Z</time>
      </trkpt>
      <trkpt lat="42.9486396722896" lon="-5.13587487861992">
        <ele>1067.29476547241</ele>
        <time>2018-08-28T06:58:43Z</time>
      </trkpt>
      <trkpt lat="42.9486702662361" lon="-5.1359208114493">
        <ele>1066.44552230835</ele>
        <time>2018-08-28T06:58:44Z</time>
      </trkpt>
      <trkpt lat="42.9487087391717" lon="-5.13597185723962">
        <ele>1067.38729476929</ele>
        <time>2018-08-28T06:58:45Z</time>
      </trkpt>
      <trkpt lat="42.9487481760261" lon="-5.13602541760088">
        <ele>1067.98165512085</ele>
        <time>2018-08-28T06:58:46Z</time>
      </trkpt>
      <trkpt lat="42.9487887025279" lon="-5.13607403263928">
        <ele>1068.32503890991</ele>
        <time>2018-08-28T06:58:47Z</time>
      </trkpt>
      <trkpt lat="42.9488204280314" lon="-5.13614636846365">
        <ele>1068.3434715271</ele>
        <time>2018-08-28T06:58:48Z</time>
      </trkpt>
      <trkpt lat="42.9488575598625" lon="-5.13620948419453">
        <ele>1068.0827293396</ele>
        <time>2018-08-28T06:58:49Z</time>
      </trkpt>
      <trkpt lat="42.9488920094845" lon="-5.1362664811361">
        <ele>1067.84334945679</ele>
        <time>2018-08-28T06:58:50Z</time>
      </trkpt>
      <trkpt lat="42.9489226872501" lon="-5.13633982278885">
        <ele>1067.73678207397</ele>
        <time>2018-08-28T06:58:51Z</time>
      </trkpt>
      <trkpt lat="42.9489719309313" lon="-5.13639564626397">
        <ele>1067.40719223022</ele>
        <time>2018-08-28T06:58:52Z</time>
      </trkpt>
      <trkpt lat="42.9490019800541" lon="-5.13646789826931">
        <ele>1067.76864242554</ele>
        <time>2018-08-28T06:58:53Z</time>
      </trkpt>
      <trkpt lat="42.9490493797166" lon="-5.13652229682089">
        <ele>1068.73678207397</ele>
        <time>2018-08-28T06:58:54Z</time>
      </trkpt>
      <trkpt lat="42.9490794288394" lon="-5.13658172451438">
        <ele>1070.0426902771</ele>
        <time>2018-08-28T06:58:55Z</time>
      </trkpt>
      <trkpt lat="42.9491019342495" lon="-5.1366515457678">
        <ele>1070.04537582397</ele>
        <time>2018-08-28T06:58:56Z</time>
      </trkpt>
      <trkpt lat="42.9491517646638" lon="-5.13668834232272">
        <ele>1069.85189437866</ele>
        <time>2018-08-28T06:58:57Z</time>
      </trkpt>
      <trkpt lat="42.9491900699613" lon="-5.13674844056846">
        <ele>1069.88924789429</ele>
        <time>2018-08-28T06:58:58Z</time>
      </trkpt>
      <trkpt lat="42.9492385173616" lon="-5.13678967953207">
        <ele>1070.24276351929</ele>
        <time>2018-08-28T06:58:59Z</time>
      </trkpt>
      <trkpt lat="42.9492974421409" lon="-5.13683091849567">
        <ele>1070.66244125366</ele>
        <time>2018-08-28T06:59:00Z</time>
      </trkpt>
      <trkpt lat="42.9493182292608" lon="-5.13691364787997">
        <ele>1069.79342269897</ele>
        <time>2018-08-28T06:59:01Z</time>
      </trkpt>
      <trkpt lat="42.9493381362808" lon="-5.13698355295242">
        <ele>1068.7301902771</ele>
        <time>2018-08-28T06:59:02Z</time>
      </trkpt>
      <trkpt lat="42.9493687302274" lon="-5.13704205863656">
        <ele>1068.68099594116</ele>
        <time>2018-08-28T06:59:03Z</time>
      </trkpt>
      <trkpt lat="42.9494081251723" lon="-5.13711825013639">
        <ele>1067.28438949585</ele>
        <time>2018-08-28T06:59:04Z</time>
      </trkpt>
      <trkpt lat="42.9494182253656" lon="-5.13720768504323">
        <ele>1067.0671043396</ele>
        <time>2018-08-28T06:59:05Z</time>
      </trkpt>
      <trkpt lat="42.9494490707693" lon="-5.13728463091435">
        <ele>1069.33419418335</ele>
        <time>2018-08-28T06:59:06Z</time>
      </trkpt>
      <trkpt lat="42.949450914788" lon="-5.13736853376509">
        <ele>1069.62105941772</ele>
        <time>2018-08-28T06:59:07Z</time>
      </trkpt>
      <trkpt lat="42.9494618112621" lon="-5.1374546997297">
        <ele>1070.01082992554</ele>
        <time>2018-08-28T06:59:08Z</time>
      </trkpt>
      <trkpt lat="42.9494621046287" lon="-5.13753667474271">
        <ele>1070.19674301147</ele>
        <time>2018-08-28T06:59:09Z</time>
      </trkpt>
      <trkpt lat="42.9494791618017" lon="-5.13761144131901">
        <ele>1071.15584945679</ele>
        <time>2018-08-28T06:59:10Z</time>
      </trkpt>
      <trkpt lat="42.9494989850027" lon="-5.13767891563954">
        <ele>1070.21383285522</ele>
        <time>2018-08-28T06:59:11Z</time>
      </trkpt>
      <trkpt lat="42.949508917558" lon="-5.13774513267459">
        <ele>1069.53207015991</ele>
        <time>2018-08-28T06:59:12Z</time>
      </trkpt>
      <trkpt lat="42.9495215323222" lon="-5.13782719150664">
        <ele>1069.44186019897</ele>
        <time>2018-08-28T06:59:13Z</time>
      </trkpt>
      <trkpt lat="42.9495266452832" lon="-5.13790539466323">
        <ele>1070.91793441772</ele>
        <time>2018-08-28T06:59:14Z</time>
      </trkpt>
      <trkpt lat="42.9495483125029" lon="-5.13797295280279">
        <ele>1070.79098129272</ele>
        <time>2018-08-28T06:59:15Z</time>
      </trkpt>
      <trkpt lat="42.9495646153045" lon="-5.13804143295171">
        <ele>1071.72359848022</ele>
        <time>2018-08-28T06:59:16Z</time>
      </trkpt>
      <trkpt lat="42.9495762661499" lon="-5.13811167330028">
        <ele>1071.69051742554</ele>
        <time>2018-08-28T06:59:17Z</time>
      </trkpt>
      <trkpt lat="42.9495861987052" lon="-5.13818157837273">
        <ele>1071.84164047241</ele>
        <time>2018-08-28T06:59:18Z</time>
      </trkpt>
      <trkpt lat="42.9495929880468" lon="-5.13825676404418">
        <ele>1071.69271469116</ele>
        <time>2018-08-28T06:59:19Z</time>
      </trkpt>
      <trkpt lat="42.9496193072227" lon="-5.13831485063316">
        <ele>1071.6139793396</ele>
        <time>2018-08-28T06:59:20Z</time>
      </trkpt>
      <trkpt lat="42.949641100171" lon="-5.13837285340311">
        <ele>1071.36349105835</ele>
        <time>2018-08-28T06:59:21Z</time>
      </trkpt>
      <trkpt lat="42.9496751306978" lon="-5.13842800632598">
        <ele>1071.17806625366</ele>
        <time>2018-08-28T06:59:22Z</time>
      </trkpt>
      <trkpt lat="42.9497252963883" lon="-5.13846949674668">
        <ele>1071.36471176147</ele>
        <time>2018-08-28T06:59:23Z</time>
      </trkpt>
      <trkpt lat="42.9497884540287" lon="-5.13847553171696">
        <ele>1071.45833969116</ele>
        <time>2018-08-28T06:59:24Z</time>
      </trkpt>
      <trkpt lat="42.9498483427269" lon="-5.13845885172965">
        <ele>1071.40768051147</ele>
        <time>2018-08-28T06:59:25Z</time>
      </trkpt>
      <trkpt lat="42.9499028250975" lon="-5.13846530579509">
        <ele>1070.98250961304</ele>
        <time>2018-08-28T06:59:26Z</time>
      </trkpt>
      <trkpt lat="42.9499711795179" lon="-5.1384700834799">
        <ele>1071.4225730896</ele>
        <time>2018-08-28T06:59:27Z</time>
      </trkpt>
      <trkpt lat="42.9500318644968" lon="-5.13847913593532">
        <ele>1071.31332015991</ele>
        <time>2018-08-28T06:59:28Z</time>
      </trkpt>
      <trkpt lat="42.9501391528574" lon="-5.1385271642405">
        <ele>1071.8630027771</ele>
        <time>2018-08-28T06:59:30Z</time>
      </trkpt>
      <trkpt lat="42.9501852952344" lon="-5.13855750672998">
        <ele>1071.89974594116</ele>
        <time>2018-08-28T06:59:31Z</time>
      </trkpt>
      <trkpt lat="42.9502399452431" lon="-5.13859312981846">
        <ele>1071.54769515991</ele>
        <time>2018-08-28T06:59:32Z</time>
      </trkpt>
      <trkpt lat="42.9502723832083" lon="-5.13863830827655">
        <ele>1071.4645652771</ele>
        <time>2018-08-28T06:59:33Z</time>
      </trkpt>
      <trkpt lat="42.9503160948334" lon="-5.13869496994199">
        <ele>1071.54574203491</ele>
        <time>2018-08-28T06:59:34Z</time>
      </trkpt>
      <trkpt lat="42.9503559926925" lon="-5.13873738237204">
        <ele>1070.91036605835</ele>
        <time>2018-08-28T06:59:35Z</time>
      </trkpt>
      <trkpt lat="42.9503892688481" lon="-5.13878172263982">
        <ele>1070.71920394897</ele>
        <time>2018-08-28T06:59:36Z</time>
      </trkpt>
      <trkpt lat="42.9504235089225" lon="-5.1388289965737">
        <ele>1070.26888656616</ele>
        <time>2018-08-28T06:59:37Z</time>
      </trkpt>
      <trkpt lat="42.9504727106941" lon="-5.13887425885083">
        <ele>1069.70101547241</ele>
        <time>2018-08-28T06:59:38Z</time>
      </trkpt>
      <trkpt lat="42.950509339611" lon="-5.13891558163347">
        <ele>1068.43355941772</ele>
        <time>2018-08-28T06:59:39Z</time>
      </trkpt>
      <trkpt lat="42.9505491536511" lon="-5.1389584969777">
        <ele>1067.02035140991</ele>
        <time>2018-08-28T06:59:40Z</time>
      </trkpt>
      <trkpt lat="42.950596595223" lon="-5.13899956830324">
        <ele>1067.60641098022</ele>
        <time>2018-08-28T06:59:41Z</time>
      </trkpt>
      <trkpt lat="42.9506429890571" lon="-5.13903519139172">
        <ele>1067.64486312866</ele>
        <time>2018-08-28T06:59:42Z</time>
      </trkpt>
      <trkpt lat="42.9506827192781" lon="-5.13907819055499">
        <ele>1066.96725082397</ele>
        <time>2018-08-28T06:59:43Z</time>
      </trkpt>
      <trkpt lat="42.9507251317081" lon="-5.13912093826117">
        <ele>1066.53817367554</ele>
        <time>2018-08-28T06:59:44Z</time>
      </trkpt>
      <trkpt lat="42.9507673345906" lon="-5.13916460797669">
        <ele>1066.46407699585</ele>
        <time>2018-08-28T06:59:45Z</time>
      </trkpt>
      <trkpt lat="42.9508085316447" lon="-5.13919838704647">
        <ele>1066.18478012085</ele>
        <time>2018-08-28T06:59:46Z</time>
      </trkpt>
      <trkpt lat="42.9508530814601" lon="-5.13924147002878">
        <ele>1065.58785629272</ele>
        <time>2018-08-28T06:59:47Z</time>
      </trkpt>
      <trkpt lat="42.9508936917809" lon="-5.13929058798136">
        <ele>1064.27669906616</ele>
        <time>2018-08-28T06:59:48Z</time>
      </trkpt>
      <trkpt lat="42.950944150838" lon="-5.13932746835532">
        <ele>1064.37301254272</ele>
        <time>2018-08-28T06:59:49Z</time>
      </trkpt>
      <trkpt lat="42.9509903351245" lon="-5.13936870731892">
        <ele>1064.56527328491</ele>
        <time>2018-08-28T06:59:50Z</time>
      </trkpt>
      <trkpt lat="42.9510433087525" lon="-5.13940039091291">
        <ele>1065.01119613647</ele>
        <time>2018-08-28T06:59:51Z</time>
      </trkpt>
      <trkpt lat="42.9511018563462" lon="-5.13943081722142">
        <ele>1066.33102035522</ele>
        <time>2018-08-28T06:59:52Z</time>
      </trkpt>
      <trkpt lat="42.9511592304734" lon="-5.13946124352993">
        <ele>1067.32381820679</ele>
        <time>2018-08-28T06:59:53Z</time>
      </trkpt>
      <trkpt lat="42.9512084741545" lon="-5.13950340450289">
        <ele>1065.75643539429</ele>
        <time>2018-08-28T06:59:54Z</time>
      </trkpt>
      <trkpt lat="42.9512714641569" lon="-5.13953307644011">
        <ele>1066.2585105896</ele>
        <time>2018-08-28T06:59:55Z</time>
      </trkpt>
      <trkpt lat="42.9513320653168" lon="-5.13955595903577">
        <ele>1067.19198226929</ele>
        <time>2018-08-28T06:59:56Z</time>
      </trkpt>
      <trkpt lat="42.9513977375281" lon="-5.13956115581574">
        <ele>1067.18355941772</ele>
        <time>2018-08-28T06:59:57Z</time>
      </trkpt>
      <trkpt lat="42.9514569137645" lon="-5.13957129791858">
        <ele>1067.41646957397</ele>
        <time>2018-08-28T06:59:58Z</time>
      </trkpt>
      <trkpt lat="42.9515214963285" lon="-5.13957322575631">
        <ele>1068.20553207397</ele>
        <time>2018-08-28T06:59:59Z</time>
      </trkpt>
      <trkpt lat="42.9515706561906" lon="-5.13956911862375">
        <ele>1068.85140609741</ele>
        <time>2018-08-28T07:00:00Z</time>
      </trkpt>
      <trkpt lat="42.9516271921275" lon="-5.13956760988118">
        <ele>1069.49618148804</ele>
        <time>2018-08-28T07:00:01Z</time>
      </trkpt>
      <trkpt lat="42.9516874580113" lon="-5.13954615220906">
        <ele>1069.93770980835</ele>
        <time>2018-08-28T07:00:02Z</time>
      </trkpt>
      <trkpt lat="42.9517411021916" lon="-5.13952226378502">
        <ele>1070.47567367554</ele>
        <time>2018-08-28T07:00:03Z</time>
      </trkpt>
      <trkpt lat="42.951801577623" lon="-5.13949301094295">
        <ele>1071.80233383179</ele>
        <time>2018-08-28T07:00:04Z</time>
      </trkpt>
      <trkpt lat="42.9518597899405" lon="-5.13947130181374">
        <ele>1071.90877914429</ele>
        <time>2018-08-28T07:00:05Z</time>
      </trkpt>
      <trkpt lat="42.9519100813595" lon="-5.13942000456633">
        <ele>1072.35457992554</ele>
        <time>2018-08-28T07:00:06Z</time>
      </trkpt>
      <trkpt lat="42.9519632645351" lon="-5.13936158270122">
        <ele>1072.03499984741</ele>
        <time>2018-08-28T07:00:07Z</time>
      </trkpt>
      <trkpt lat="42.951984135474" lon="-5.13930483721675">
        <ele>1071.65633773804</ele>
        <time>2018-08-28T07:00:08Z</time>
      </trkpt>
      <trkpt lat="42.9520117119355" lon="-5.13924775645615">
        <ele>1071.75301742554</ele>
        <time>2018-08-28T07:00:09Z</time>
      </trkpt>
      <trkpt lat="42.9520605365214" lon="-5.13920660131158">
        <ele>1073.53182601929</ele>
        <time>2018-08-28T07:00:10Z</time>
      </trkpt>
      <trkpt lat="42.9521327047078" lon="-5.13912554830791">
        <ele>1074.97384262085</ele>
        <time>2018-08-28T07:00:12Z</time>
      </trkpt>
      <trkpt lat="42.9521789728133" lon="-5.13907936402144">
        <ele>1075.32638168335</ele>
        <time>2018-08-28T07:00:13Z</time>
      </trkpt>
      <trkpt lat="42.9522305634273" lon="-5.13902412727954">
        <ele>1075.50240707397</ele>
        <time>2018-08-28T07:00:14Z</time>
      </trkpt>
      <trkpt lat="42.9522764124376" lon="-5.13899479061844">
        <ele>1075.84408187866</ele>
        <time>2018-08-28T07:00:15Z</time>
      </trkpt>
      <trkpt lat="42.9523787973849" lon="-5.13897928409757">
        <ele>1075.1305809021</ele>
        <time>2018-08-28T07:00:17Z</time>
      </trkpt>
      <trkpt lat="42.9524355847789" lon="-5.13895288110258">
        <ele>1075.53207015991</ele>
        <time>2018-08-28T07:00:18Z</time>
      </trkpt>
      <trkpt lat="42.9524895642353" lon="-5.13893460855367">
        <ele>1076.4645652771</ele>
        <time>2018-08-28T07:00:19Z</time>
      </trkpt>
      <trkpt lat="42.9525473993672" lon="-5.13890996575834">
        <ele>1077.04793930054</ele>
        <time>2018-08-28T07:00:20Z</time>
      </trkpt>
      <trkpt lat="42.9526072461558" lon="-5.13889596798004">
        <ele>1076.71895980835</ele>
        <time>2018-08-28T07:00:21Z</time>
      </trkpt>
      <trkpt lat="42.9526662547541" lon="-5.13889010064782">
        <ele>1077.51815414429</ele>
        <time>2018-08-28T07:00:22Z</time>
      </trkpt>
      <trkpt lat="42.9527302924944" lon="-5.13886126690091">
        <ele>1077.59872055054</ele>
        <time>2018-08-28T07:00:23Z</time>
      </trkpt>
      <trkpt lat="42.9527934082252" lon="-5.13884047978105">
        <ele>1078.1100730896</ele>
        <time>2018-08-28T07:00:24Z</time>
      </trkpt>
      <trkpt lat="42.9528473038626" lon="-5.13881089166285">
        <ele>1078.00350570679</ele>
        <time>2018-08-28T07:00:25Z</time>
      </trkpt>
      <trkpt lat="42.952914442907" lon="-5.13879412785651">
        <ele>1078.56307601929</ele>
        <time>2018-08-28T07:00:26Z</time>
      </trkpt>
      <trkpt lat="42.9529842222509" lon="-5.13878130354466">
        <ele>1077.43258285522</ele>
        <time>2018-08-28T07:00:27Z</time>
      </trkpt>
      <trkpt lat="42.9530487629054" lon="-5.138768982147">
        <ele>1073.6452293396</ele>
        <time>2018-08-28T07:00:28Z</time>
      </trkpt>
      <trkpt lat="42.9531156504927" lon="-5.1387462671894">
        <ele>1075.27364730835</ele>
        <time>2018-08-28T07:00:29Z</time>
      </trkpt>
      <trkpt lat="42.9531728988913" lon="-5.13872690499307">
        <ele>1075.11178207397</ele>
        <time>2018-08-28T07:00:30Z</time>
      </trkpt>
      <trkpt lat="42.9532263754336" lon="-5.13871022500576">
        <ele>1075.98458480835</ele>
        <time>2018-08-28T07:00:31Z</time>
      </trkpt>
      <trkpt lat="42.9532907484499" lon="-5.13868432492496">
        <ele>1075.05807113647</ele>
        <time>2018-08-28T07:00:32Z</time>
      </trkpt>
      <trkpt lat="42.9533321131421" lon="-5.13865238987388">
        <ele>1075.96627426147</ele>
        <time>2018-08-28T07:00:33Z</time>
      </trkpt>
      <trkpt lat="42.9533834942085" lon="-5.13860695995869">
        <ele>1073.21529769897</ele>
        <time>2018-08-28T07:00:34Z</time>
      </trkpt>
      <trkpt lat="42.9534453945634" lon="-5.13856605627121">
        <ele>1072.6540184021</ele>
        <time>2018-08-28T07:00:35Z</time>
      </trkpt>
      <trkpt lat="42.9534956021634" lon="-5.13852196746053">
        <ele>1073.69234848022</ele>
        <time>2018-08-28T07:00:36Z</time>
      </trkpt>
      <trkpt lat="42.953551216091" lon="-5.13847930357339">
        <ele>1073.50521469116</ele>
        <time>2018-08-28T07:00:37Z</time>
      </trkpt>
      <trkpt lat="42.9536056146426" lon="-5.1384357176769">
        <ele>1072.60628890991</ele>
        <time>2018-08-28T07:00:38Z</time>
      </trkpt>
      <trkpt lat="42.9536541039524" lon="-5.13838752173366">
        <ele>1072.80514144897</ele>
        <time>2018-08-28T07:00:39Z</time>
      </trkpt>
      <trkpt lat="42.9536987794963" lon="-5.13834267855169">
        <ele>1073.88717269897</ele>
        <time>2018-08-28T07:00:40Z</time>
      </trkpt>
      <trkpt lat="42.953738970722" lon="-5.13830680400612">
        <ele>1074.08260726929</ele>
        <time>2018-08-28T07:00:41Z</time>
      </trkpt>
      <trkpt lat="42.953799655701" lon="-5.13826422393801">
        <ele>1073.5729637146</ele>
        <time>2018-08-28T07:00:42Z</time>
      </trkpt>
      <trkpt lat="42.9538570717377" lon="-5.13821166940512">
        <ele>1074.39742660522</ele>
        <time>2018-08-28T07:00:43Z</time>
      </trkpt>
      <trkpt lat="42.95392006174" lon="-5.13818099163951">
        <ele>1075.12020492554</ele>
        <time>2018-08-28T07:00:44Z</time>
      </trkpt>
      <trkpt lat="42.9539796570716" lon="-5.13813966885688">
        <ele>1074.71883773804</ele>
        <time>2018-08-28T07:00:45Z</time>
      </trkpt>
      <trkpt lat="42.9540309962285" lon="-5.13811955228926">
        <ele>1076.93368148804</ele>
        <time>2018-08-28T07:00:46Z</time>
      </trkpt>
      <trkpt lat="42.9541081097377" lon="-5.13806993142249">
        <ele>1079.26778793335</ele>
        <time>2018-08-28T07:00:48Z</time>
      </trkpt>
      <trkpt lat="42.9541701358212" lon="-5.13805903494837">
        <ele>1078.87252426147</ele>
        <time>2018-08-28T07:00:49Z</time>
      </trkpt>
      <trkpt lat="42.9542348441137" lon="-5.13806289062382">
        <ele>1082.13875961304</ele>
        <time>2018-08-28T07:00:50Z</time>
      </trkpt>
      <trkpt lat="42.9543020669771" lon="-5.13808594085755">
        <ele>1083.81698226929</ele>
        <time>2018-08-28T07:00:51Z</time>
      </trkpt>
      <trkpt lat="42.9543632129607" lon="-5.1381156966138">
        <ele>1084.5417137146</ele>
        <time>2018-08-28T07:00:52Z</time>
      </trkpt>
      <trkpt lat="42.9544255743203" lon="-5.13815525919678">
        <ele>1083.04549789429</ele>
        <time>2018-08-28T07:00:53Z</time>
      </trkpt>
      <trkpt lat="42.9544930067313" lon="-5.13819985092165">
        <ele>1080.87203598022</ele>
        <time>2018-08-28T07:00:54Z</time>
      </trkpt>
      <trkpt lat="42.9545785859627" lon="-5.13825274073066">
        <ele>1082.47787094116</ele>
        <time>2018-08-28T07:00:56Z</time>
      </trkpt>
      <trkpt lat="42.9546333616999" lon="-5.13827956282081">
        <ele>1082.70174789429</ele>
        <time>2018-08-28T07:00:57Z</time>
      </trkpt>
      <trkpt lat="42.9546821024669" lon="-5.13830286451163">
        <ele>1083.08578109741</ele>
        <time>2018-08-28T07:00:58Z</time>
      </trkpt>
      <trkpt lat="42.9547296697674" lon="-5.13832432218375">
        <ele>1084.92757797241</ele>
        <time>2018-08-28T07:00:59Z</time>
      </trkpt>
      <trkpt lat="42.95482379854" lon="-5.13838643208625">
        <ele>1084.63302230835</ele>
        <time>2018-08-28T07:01:01Z</time>
      </trkpt>
      <trkpt lat="42.9548787419153" lon="-5.13842264190795">
        <ele>1085.18697738647</ele>
        <time>2018-08-28T07:01:02Z</time>
      </trkpt>
      <trkpt lat="42.954948102164" lon="-5.13844988309326">
        <ele>1084.2087059021</ele>
        <time>2018-08-28T07:01:03Z</time>
      </trkpt>
      <trkpt lat="42.9550053924722" lon="-5.13851953670861">
        <ele>1079.23495101929</ele>
        <time>2018-08-28T07:01:04Z</time>
      </trkpt>
      <trkpt lat="42.9550556838912" lon="-5.13854954392196">
        <ele>1082.11922836304</ele>
        <time>2018-08-28T07:01:05Z</time>
      </trkpt>
      <trkpt lat="42.955097258131" lon="-5.1385871786672">
        <ele>1081.72555160522</ele>
        <time>2018-08-28T07:01:06Z</time>
      </trkpt>
      <trkpt lat="42.955144867341" lon="-5.13862313703181">
        <ele>1082.20321273804</ele>
        <time>2018-08-28T07:01:07Z</time>
      </trkpt>
      <trkpt lat="42.9552007327256" lon="-5.13865540735902">
        <ele>1083.39706039429</ele>
        <time>2018-08-28T07:01:08Z</time>
      </trkpt>
      <trkpt lat="42.9552539997203" lon="-5.13867736794533">
        <ele>1082.61520004272</ele>
        <time>2018-08-28T07:01:09Z</time>
      </trkpt>
      <trkpt lat="42.9553112481189" lon="-5.13869161718072">
        <ele>1083.48873519897</ele>
        <time>2018-08-28T07:01:10Z</time>
      </trkpt>
      <trkpt lat="42.9553704662649" lon="-5.1387013401884">
        <ele>1083.94320297241</ele>
        <time>2018-08-28T07:01:11Z</time>
      </trkpt>
      <trkpt lat="42.9554198356745" lon="-5.13871751726152">
        <ele>1082.10348129272</ele>
        <time>2018-08-28T07:01:12Z</time>
      </trkpt>
      <trkpt lat="42.9554693308128" lon="-5.13870427385451">
        <ele>1082.47542953491</ele>
        <time>2018-08-28T07:01:13Z</time>
      </trkpt>
      <trkpt lat="42.9555378109617" lon="-5.1387119013864">
        <ele>1081.17037582397</ele>
        <time>2018-08-28T07:01:14Z</time>
      </trkpt>
      <trkpt lat="42.9555966938315" lon="-5.13871148229124">
        <ele>1081.48885726929</ele>
        <time>2018-08-28T07:01:15Z</time>
      </trkpt>
      <trkpt lat="42.9556551156966" lon="-5.13871056028189">
        <ele>1082.29391098022</ele>
        <time>2018-08-28T07:01:16Z</time>
      </trkpt>
      <trkpt lat="42.9557114420859" lon="-5.13871550560476">
        <ele>1084.20064926147</ele>
        <time>2018-08-28T07:01:17Z</time>
      </trkpt>
      <trkpt lat="42.9557668883754" lon="-5.13871064410092">
        <ele>1084.44820785522</ele>
        <time>2018-08-28T07:01:18Z</time>
      </trkpt>
      <trkpt lat="42.9558195686368" lon="-5.13870972209157">
        <ele>1086.87191390991</ele>
        <time>2018-08-28T07:01:19Z</time>
      </trkpt>
      <trkpt lat="42.9558715364364" lon="-5.13870997354867">
        <ele>1087.01156234741</ele>
        <time>2018-08-28T07:01:20Z</time>
      </trkpt>
      <trkpt lat="42.9559206124795" lon="-5.13871290721478">
        <ele>1087.11629867554</ele>
        <time>2018-08-28T07:01:21Z</time>
      </trkpt>
      <trkpt lat="42.9559776513306" lon="-5.13871642761411">
        <ele>1088.04085922241</ele>
        <time>2018-08-28T07:01:22Z</time>
      </trkpt>
      <trkpt lat="42.956022368784" lon="-5.13870310038807">
        <ele>1088.90194320679</ele>
        <time>2018-08-28T07:01:23Z</time>
      </trkpt>
      <trkpt lat="42.9560666252328" lon="-5.13868776150526">
        <ele>1088.34164047241</ele>
        <time>2018-08-28T07:01:24Z</time>
      </trkpt>
      <trkpt lat="42.9561608797339" lon="-5.13869077899041">
        <ele>1088.45260238647</ele>
        <time>2018-08-28T07:01:26Z</time>
      </trkpt>
      <trkpt lat="42.9562180443136" lon="-5.13868952170493">
        <ele>1088.36751937866</ele>
        <time>2018-08-28T07:01:27Z</time>
      </trkpt>
      <trkpt lat="42.9562806990398" lon="-5.13869337738039">
        <ele>1089.51961898804</ele>
        <time>2018-08-28T07:01:28Z</time>
      </trkpt>
      <trkpt lat="42.9563354328675" lon="-5.1386878453243">
        <ele>1088.66939926147</ele>
        <time>2018-08-28T07:01:29Z</time>
      </trkpt>
      <trkpt lat="42.9564297292782" lon="-5.13870863244416">
        <ele>1087.3327293396</ele>
        <time>2018-08-28T07:01:31Z</time>
      </trkpt>
      <trkpt lat="42.9564829962728" lon="-5.13872120529892">
        <ele>1086.57064437866</ele>
        <time>2018-08-28T07:01:32Z</time>
      </trkpt>
      <trkpt lat="42.9565396998478" lon="-5.13874023221912">
        <ele>1085.1559715271</ele>
        <time>2018-08-28T07:01:33Z</time>
      </trkpt>
      <trkpt lat="42.9565964453322" lon="-5.13876328245284">
        <ele>1085.11727523804</ele>
        <time>2018-08-28T07:01:34Z</time>
      </trkpt>
      <trkpt lat="42.9566989140985" lon="-5.13873050921144">
        <ele>1083.95443344116</ele>
        <time>2018-08-28T07:01:37Z</time>
      </trkpt>
      <trkpt lat="42.9567593057109" lon="-5.13869421557071">
        <ele>1084.22591781616</ele>
        <time>2018-08-28T07:01:38Z</time>
      </trkpt>
      <trkpt lat="42.9568089684872" lon="-5.13867686503114">
        <ele>1084.01461410522</ele>
        <time>2018-08-28T07:01:39Z</time>
      </trkpt>
      <trkpt lat="42.9568582959873" lon="-5.1386735960889">
        <ele>1084.18990707397</ele>
        <time>2018-08-28T07:01:40Z</time>
      </trkpt>
      <trkpt lat="42.9569569509876" lon="-5.13866940513732">
        <ele>1087.75228500366</ele>
        <time>2018-08-28T07:01:42Z</time>
      </trkpt>
      <trkpt lat="42.9570125230057" lon="-5.13866948895635">
        <ele>1087.4821434021</ele>
        <time>2018-08-28T07:01:43Z</time>
      </trkpt>
      <trkpt lat="42.9570588330207" lon="-5.13866580091895">
        <ele>1087.1383934021</ele>
        <time>2018-08-28T07:01:44Z</time>
      </trkpt>
      <trkpt lat="42.9571118904678" lon="-5.13867753558339">
        <ele>1086.44381332397</ele>
        <time>2018-08-28T07:01:45Z</time>
      </trkpt>
      <trkpt lat="42.9571657022861" lon="-5.13869429938974">
        <ele>1088.07943344116</ele>
        <time>2018-08-28T07:01:46Z</time>
      </trkpt>
      <trkpt lat="42.9572261777175" lon="-5.13870041817905">
        <ele>1087.48678207397</ele>
        <time>2018-08-28T07:01:47Z</time>
      </trkpt>
      <trkpt lat="42.9572766367746" lon="-5.13870729133965">
        <ele>1088.31722640991</ele>
        <time>2018-08-28T07:01:48Z</time>
      </trkpt>
      <trkpt lat="42.9573229467896" lon="-5.13870486058773">
        <ele>1089.4655418396</ele>
        <time>2018-08-28T07:01:49Z</time>
      </trkpt>
      <trkpt lat="42.9573832126734" lon="-5.13870703988256">
        <ele>1090.55416488647</ele>
        <time>2018-08-28T07:01:50Z</time>
      </trkpt>
      <trkpt lat="42.9574420117242" lon="-5.13870997354867">
        <ele>1089.99471664429</ele>
        <time>2018-08-28T07:01:51Z</time>
      </trkpt>
      <trkpt lat="42.9575029900698" lon="-5.13871525414767">
        <ele>1090.0944480896</ele>
        <time>2018-08-28T07:01:52Z</time>
      </trkpt>
      <trkpt lat="42.9575484618945" lon="-5.13871282339575">
        <ele>1090.03084945679</ele>
        <time>2018-08-28T07:01:53Z</time>
      </trkpt>
      <trkpt lat="42.9575938499001" lon="-5.13871097937705">
        <ele>1089.18050765991</ele>
        <time>2018-08-28T07:01:54Z</time>
      </trkpt>
      <trkpt lat="42.9576415010197" lon="-5.13872187585117">
        <ele>1092.66805648804</ele>
        <time>2018-08-28T07:01:55Z</time>
      </trkpt>
      <trkpt lat="42.9576854221923" lon="-5.13874760829391">
        <ele>1094.47384262085</ele>
        <time>2018-08-28T07:01:56Z</time>
      </trkpt>
      <trkpt lat="42.9577306006504" lon="-5.13878624886753">
        <ele>1093.56100082397</ele>
        <time>2018-08-28T07:01:57Z</time>
      </trkpt>
      <trkpt lat="42.9578100191829" lon="-5.13885296881677">
        <ele>1092.49251937866</ele>
        <time>2018-08-28T07:01:59Z</time>
      </trkpt>
      <trkpt lat="42.957848450209" lon="-5.13891876675667">
        <ele>1093.02291488647</ele>
        <time>2018-08-28T07:02:00Z</time>
      </trkpt>
      <trkpt lat="42.9578870907826" lon="-5.13898733072461">
        <ele>1087.49593734741</ele>
        <time>2018-08-28T07:02:01Z</time>
      </trkpt>
      <trkpt lat="42.9579246836183" lon="-5.13903812505783">
        <ele>1088.3688621521</ele>
        <time>2018-08-28T07:02:02Z</time>
      </trkpt>
      <trkpt lat="42.9579692753432" lon="-5.13909822330357">
        <ele>1085.33919906616</ele>
        <time>2018-08-28T07:02:03Z</time>
      </trkpt>
      <trkpt lat="42.9580068681789" lon="-5.13915924355866">
        <ele>1085.13412094116</ele>
        <time>2018-08-28T07:02:04Z</time>
      </trkpt>
      <trkpt lat="42.9580416111676" lon="-5.13922009617569">
        <ele>1085.06649398804</ele>
        <time>2018-08-28T07:02:05Z</time>
      </trkpt>
      <trkpt lat="42.9580862028924" lon="-5.13923442923011">
        <ele>1085.07748031616</ele>
        <time>2018-08-28T07:02:06Z</time>
      </trkpt>
      <trkpt lat="42.9581598798213" lon="-5.13919319026651">
        <ele>1084.17684555054</ele>
        <time>2018-08-28T07:02:07Z</time>
      </trkpt>
      <trkpt lat="42.9582175892246" lon="-5.13916268013896">
        <ele>1086.09884262085</ele>
        <time>2018-08-28T07:02:08Z</time>
      </trkpt>
      <trkpt lat="42.9583085747836" lon="-5.13915161602678">
        <ele>1088.56881332397</ele>
        <time>2018-08-28T07:02:10Z</time>
      </trkpt>
      <trkpt lat="42.9584063915936" lon="-5.13917910866918">
        <ele>1090.28561019897</ele>
        <time>2018-08-28T07:02:12Z</time>
      </trkpt>
      <trkpt lat="42.9584552161796" lon="-5.13921598904313">
        <ele>1090.5290184021</ele>
        <time>2018-08-28T07:02:13Z</time>
      </trkpt>
      <trkpt lat="42.9585076449839" lon="-5.13925337233128">
        <ele>1090.05941390991</ele>
        <time>2018-08-28T07:02:14Z</time>
      </trkpt>
      <trkpt lat="42.9585739877475" lon="-5.13934733346583">
        <ele>1089.41341781616</ele>
        <time>2018-08-28T07:02:16Z</time>
      </trkpt>
      <trkpt lat="42.958609694655" lon="-5.13938890770556">
        <ele>1088.58504867554</ele>
        <time>2018-08-28T07:02:17Z</time>
      </trkpt>
      <trkpt lat="42.9586474132193" lon="-5.13944800012292">
        <ele>1087.17660140991</ele>
        <time>2018-08-28T07:02:18Z</time>
      </trkpt>
      <trkpt lat="42.9586873948974" lon="-5.13950508088352">
        <ele>1087.65084457397</ele>
        <time>2018-08-28T07:02:19Z</time>
      </trkpt>
      <trkpt lat="42.9587290110467" lon="-5.13955830596866">
        <ele>1088.06270980835</ele>
        <time>2018-08-28T07:02:20Z</time>
      </trkpt>
      <trkpt lat="42.9587675258917" lon="-5.13960164040806">
        <ele>1088.81637191772</ele>
        <time>2018-08-28T07:02:21Z</time>
      </trkpt>
      <trkpt lat="42.9588015145091" lon="-5.13966140337767">
        <ele>1089.11678695679</ele>
        <time>2018-08-28T07:02:22Z</time>
      </trkpt>
      <trkpt lat="42.9588374309642" lon="-5.13971496373894">
        <ele>1089.9889793396</ele>
        <time>2018-08-28T07:02:23Z</time>
      </trkpt>
      <trkpt lat="42.9588575475318" lon="-5.13979576528551">
        <ele>1090.3297996521</ele>
        <time>2018-08-28T07:02:24Z</time>
      </trkpt>
      <trkpt lat="42.9588932963488" lon="-5.13986650854828">
        <ele>1090.70150375366</ele>
        <time>2018-08-28T07:02:25Z</time>
      </trkpt>
      <trkpt lat="42.9589130357308" lon="-5.13993859291555">
        <ele>1091.56173324585</ele>
        <time>2018-08-28T07:02:26Z</time>
      </trkpt>
      <trkpt lat="42.9589352477742" lon="-5.14000833034994">
        <ele>1091.84920883179</ele>
        <time>2018-08-28T07:02:27Z</time>
      </trkpt>
      <trkpt lat="42.9589573759986" lon="-5.14007848687949">
        <ele>1092.84115219116</ele>
        <time>2018-08-28T07:02:28Z</time>
      </trkpt>
      <trkpt lat="42.9589818511558" lon="-5.14014923014225">
        <ele>1093.43587875366</ele>
        <time>2018-08-28T07:02:29Z</time>
      </trkpt>
      <trkpt lat="42.9590013390807" lon="-5.14022198506178">
        <ele>1094.0612449646</ele>
        <time>2018-08-28T07:02:30Z</time>
      </trkpt>
      <trkpt lat="42.9590246407715" lon="-5.14029356651487">
        <ele>1094.49825668335</ele>
        <time>2018-08-28T07:02:31Z</time>
      </trkpt>
      <trkpt lat="42.9590576235605" lon="-5.14035902917864">
        <ele>1094.80746078491</ele>
        <time>2018-08-28T07:02:32Z</time>
      </trkpt>
      <trkpt lat="42.9590785783184" lon="-5.14042365365209">
        <ele>1095.53121566772</ele>
        <time>2018-08-28T07:02:33Z</time>
      </trkpt>
      <trkpt lat="42.9591136565832" lon="-5.14048383571686">
        <ele>1094.8522605896</ele>
        <time>2018-08-28T07:02:34Z</time>
      </trkpt>
      <trkpt lat="42.9591465136436" lon="-5.14054116793456">
        <ele>1095.87887191772</ele>
        <time>2018-08-28T07:02:35Z</time>
      </trkpt>
      <trkpt lat="42.9591781553281" lon="-5.14060243964674">
        <ele>1096.57369613647</ele>
        <time>2018-08-28T07:02:36Z</time>
      </trkpt>
      <trkpt lat="42.9592110123885" lon="-5.14066253789248">
        <ele>1096.66842269897</ele>
        <time>2018-08-28T07:02:37Z</time>
      </trkpt>
      <trkpt lat="42.9592383793024" lon="-5.14073269442203">
        <ele>1097.78036117554</ele>
        <time>2018-08-28T07:02:38Z</time>
      </trkpt>
      <trkpt lat="42.959275636862" lon="-5.14078851789715">
        <ele>1096.98165512085</ele>
        <time>2018-08-28T07:02:39Z</time>
      </trkpt>
      <trkpt lat="42.9593092063842" lon="-5.14084685594322">
        <ele>1097.80685043335</ele>
        <time>2018-08-28T07:02:40Z</time>
      </trkpt>
      <trkpt lat="42.9593450390203" lon="-5.14089421369614">
        <ele>1097.5749168396</ele>
        <time>2018-08-28T07:02:41Z</time>
      </trkpt>
      <trkpt lat="42.9594093701271" lon="-5.14097820036592">
        <ele>1096.66012191772</ele>
        <time>2018-08-28T07:02:43Z</time>
      </trkpt>
      <trkpt lat="42.9594552191374" lon="-5.14101575129213">
        <ele>1097.2790184021</ele>
        <time>2018-08-28T07:02:44Z</time>
      </trkpt>
      <trkpt lat="42.9594945302633" lon="-5.14106000774088">
        <ele>1098.25985336304</ele>
        <time>2018-08-28T07:02:45Z</time>
      </trkpt>
      <trkpt lat="42.9595469590677" lon="-5.14107056893887">
        <ele>1098.36654281616</ele>
        <time>2018-08-28T07:02:46Z</time>
      </trkpt>
      <trkpt lat="42.9595964961154" lon="-5.14108230360331">
        <ele>1098.42623519897</ele>
        <time>2018-08-28T07:02:47Z</time>
      </trkpt>
      <trkpt lat="42.9596591927511" lon="-5.14108372852685">
        <ele>1097.9547996521</ele>
        <time>2018-08-28T07:02:48Z</time>
      </trkpt>
      <trkpt lat="42.95971036427" lon="-5.14107492752852">
        <ele>1098.03805160522</ele>
        <time>2018-08-28T07:02:49Z</time>
      </trkpt>
      <trkpt lat="42.9597638408122" lon="-5.1410619355786">
        <ele>1097.57662582397</ele>
        <time>2018-08-28T07:02:50Z</time>
      </trkpt>
      <trkpt lat="42.9598267469955" lon="-5.14104885980966">
        <ele>1096.8581199646</ele>
        <time>2018-08-28T07:02:51Z</time>
      </trkpt>
      <trkpt lat="42.9598886473504" lon="-5.14103201218428">
        <ele>1095.55318832397</ele>
        <time>2018-08-28T07:02:52Z</time>
      </trkpt>
      <trkpt lat="42.9599435488162" lon="-5.14102128334822">
        <ele>1095.8893699646</ele>
        <time>2018-08-28T07:02:53Z</time>
      </trkpt>
      <trkpt lat="42.9599915352119" lon="-5.14101902023437">
        <ele>1095.04195785522</ele>
        <time>2018-08-28T07:02:54Z</time>
      </trkpt>
      <trkpt lat="42.9600419104499" lon="-5.14101264998796">
        <ele>1094.30746078491</ele>
        <time>2018-08-28T07:02:55Z</time>
      </trkpt>
      <trkpt lat="42.9600942554352" lon="-5.14103016816558">
        <ele>1094.12887191772</ele>
        <time>2018-08-28T07:02:56Z</time>
      </trkpt>
      <trkpt lat="42.9601488216249" lon="-5.14105841517927">
        <ele>1093.89791488647</ele>
        <time>2018-08-28T07:02:57Z</time>
      </trkpt>
      <trkpt lat="42.9601989454059" lon="-5.14109604992451">
        <ele>1094.40523910522</ele>
        <time>2018-08-28T07:02:58Z</time>
      </trkpt>
      <trkpt lat="42.9602511227531" lon="-5.14114474878194">
        <ele>1093.05086898804</ele>
        <time>2018-08-28T07:02:59Z</time>
      </trkpt>
      <trkpt lat="42.9602921102596" lon="-5.14118925668778">
        <ele>1094.90523910522</ele>
        <time>2018-08-28T07:03:00Z</time>
      </trkpt>
      <trkpt lat="42.9603234585775" lon="-5.14123669825973">
        <ele>1093.84273910522</ele>
        <time>2018-08-28T07:03:01Z</time>
      </trkpt>
      <trkpt lat="42.9603592912135" lon="-5.14127927832784">
        <ele>1093.59615707397</ele>
        <time>2018-08-28T07:03:02Z</time>
      </trkpt>
      <trkpt lat="42.9603854008419" lon="-5.14133627526941">
        <ele>1094.11483383179</ele>
        <time>2018-08-28T07:03:03Z</time>
      </trkpt>
      <trkpt lat="42.9604132287604" lon="-5.14138899744036">
        <ele>1093.97201156616</ele>
        <time>2018-08-28T07:03:04Z</time>
      </trkpt>
      <trkpt lat="42.9604484327538" lon="-5.14143576846006">
        <ele>1093.8454246521</ele>
        <time>2018-08-28T07:03:05Z</time>
      </trkpt>
      <trkpt lat="42.9604804516239" lon="-5.14148270711782">
        <ele>1093.96895980835</ele>
        <time>2018-08-28T07:03:06Z</time>
      </trkpt>
      <trkpt lat="42.9605104588372" lon="-5.14152847230913">
        <ele>1094.07894515991</ele>
        <time>2018-08-28T07:03:07Z</time>
      </trkpt>
      <trkpt lat="42.9605415976075" lon="-5.14157390222432">
        <ele>1094.49715805054</ele>
        <time>2018-08-28T07:03:08Z</time>
      </trkpt>
      <trkpt lat="42.9605776397911" lon="-5.14161061496021">
        <ele>1096.36080551147</ele>
        <time>2018-08-28T07:03:09Z</time>
      </trkpt>
      <trkpt lat="42.9606288532195" lon="-5.14164690860095">
        <ele>1097.66988754272</ele>
        <time>2018-08-28T07:03:10Z</time>
      </trkpt>
      <trkpt lat="42.9606636381177" lon="-5.14170298353316">
        <ele>1095.70833969116</ele>
        <time>2018-08-28T07:03:11Z</time>
      </trkpt>
      <trkpt lat="42.9607406258983" lon="-5.14177749865236">
        <ele>1096.59811019897</ele>
        <time>2018-08-28T07:03:13Z</time>
      </trkpt>
      <trkpt lat="42.9607710102973" lon="-5.14182871208074">
        <ele>1096.84945297241</ele>
        <time>2018-08-28T07:03:14Z</time>
      </trkpt>
      <trkpt lat="42.9608131712703" lon="-5.14186928049209">
        <ele>1097.71371078491</ele>
        <time>2018-08-28T07:03:15Z</time>
      </trkpt>
      <trkpt lat="42.96085214712" lon="-5.14190691523733">
        <ele>1097.62838363647</ele>
        <time>2018-08-28T07:03:16Z</time>
      </trkpt>
      <trkpt lat="42.9608899075938" lon="-5.1419567875612">
        <ele>1097.03512191772</ele>
        <time>2018-08-28T07:03:17Z</time>
      </trkpt>
      <trkpt lat="42.9609317752001" lon="-5.14198662713649">
        <ele>1098.01278305054</ele>
        <time>2018-08-28T07:03:18Z</time>
      </trkpt>
      <trkpt lat="42.9609761573774" lon="-5.14202660881462">
        <ele>1098.01607894897</ele>
        <time>2018-08-28T07:03:19Z</time>
      </trkpt>
      <trkpt lat="42.9610169353364" lon="-5.1420535147238">
        <ele>1098.2321434021</ele>
        <time>2018-08-28T07:03:20Z</time>
      </trkpt>
      <trkpt lat="42.9610621976135" lon="-5.14208955690744">
        <ele>1098.43478012085</ele>
        <time>2018-08-28T07:03:21Z</time>
      </trkpt>
      <trkpt lat="42.9611094296379" lon="-5.14212551527204">
        <ele>1097.90340805054</ele>
        <time>2018-08-28T07:03:22Z</time>
      </trkpt>
      <trkpt lat="42.9611582542238" lon="-5.14215191826703">
        <ele>1098.56356430054</ele>
        <time>2018-08-28T07:03:23Z</time>
      </trkpt>
      <trkpt lat="42.961215544532" lon="-5.14216432348373">
        <ele>1099.26351547241</ele>
        <time>2018-08-28T07:03:24Z</time>
      </trkpt>
      <trkpt lat="42.9612738406686" lon="-5.14217195101561">
        <ele>1101.24789047241</ele>
        <time>2018-08-28T07:03:25Z</time>
      </trkpt>
      <trkpt lat="42.961322539526" lon="-5.14218259603264">
        <ele>1101.83150863647</ele>
        <time>2018-08-28T07:03:26Z</time>
      </trkpt>
      <trkpt lat="42.9613706516502" lon="-5.14217220247271">
        <ele>1103.57552719116</ele>
        <time>2018-08-28T07:03:27Z</time>
      </trkpt>
      <trkpt lat="42.9614182608602" lon="-5.14215879142763">
        <ele>1103.33236312866</ele>
        <time>2018-08-28T07:03:28Z</time>
      </trkpt>
      <trkpt lat="42.9614703962979" lon="-5.1421431172687">
        <ele>1104.69527816772</ele>
        <time>2018-08-28T07:03:29Z</time>
      </trkpt>
      <trkpt lat="42.9615224060071" lon="-5.14213020913782">
        <ele>1105.32638168335</ele>
        <time>2018-08-28T07:03:30Z</time>
      </trkpt>
      <trkpt lat="42.9615789000345" lon="-5.14211428352179">
        <ele>1106.18502426147</ele>
        <time>2018-08-28T07:03:31Z</time>
      </trkpt>
      <trkpt lat="42.9616298200963" lon="-5.1420812588233">
        <ele>1106.64596176147</ele>
        <time>2018-08-28T07:03:32Z</time>
      </trkpt>
      <trkpt lat="42.9616824584482" lon="-5.14207866043331">
        <ele>1107.17538070679</ele>
        <time>2018-08-28T07:03:33Z</time>
      </trkpt>
      <trkpt lat="42.9617319535864" lon="-5.14207631350043">
        <ele>1107.2780418396</ele>
        <time>2018-08-28T07:03:34Z</time>
      </trkpt>
      <trkpt lat="42.9618202569363" lon="-5.14210171066703">
        <ele>1106.49178695679</ele>
        <time>2018-08-28T07:03:36Z</time>
      </trkpt>
      <trkpt lat="42.9618722666455" lon="-5.1420968491632">
        <ele>1107.31624984741</ele>
        <time>2018-08-28T07:03:37Z</time>
      </trkpt>
      <trkpt lat="42.9619436804605" lon="-5.1421605516273">
        <ele>1105.97445297241</ele>
        <time>2018-08-28T07:03:39Z</time>
      </trkpt>
      <trkpt lat="42.9620061675487" lon="-5.14215979725601">
        <ele>1106.07674789429</ele>
        <time>2018-08-28T07:03:40Z</time>
      </trkpt>
      <trkpt lat="42.9620529804779" lon="-5.14217999764266">
        <ele>1107.12350082397</ele>
        <time>2018-08-28T07:03:41Z</time>
      </trkpt>
      <trkpt lat="42.9621015955163" lon="-5.14220078476252">
        <ele>1106.22091293335</ele>
        <time>2018-08-28T07:03:42Z</time>
      </trkpt>
      <trkpt lat="42.9621679382799" lon="-5.14219818637254">
        <ele>1108.70687484741</ele>
        <time>2018-08-28T07:03:43Z</time>
      </trkpt>
      <trkpt lat="42.9622238036645" lon="-5.14221000485601">
        <ele>1108.93648910522</ele>
        <time>2018-08-28T07:03:44Z</time>
      </trkpt>
      <trkpt lat="42.9622748494548" lon="-5.14220396988573">
        <ele>1110.69857406616</ele>
        <time>2018-08-28T07:03:45Z</time>
      </trkpt>
      <trkpt lat="42.9623770248545" lon="-5.14221587218823">
        <ele>1114.88277816772</ele>
        <time>2018-08-28T07:03:47Z</time>
      </trkpt>
      <trkpt lat="42.9624271486355" lon="-5.14222282916786">
        <ele>1114.7585105896</ele>
        <time>2018-08-28T07:03:48Z</time>
      </trkpt>
      <trkpt lat="42.9624755122168" lon="-5.14226842672112">
        <ele>1112.46810531616</ele>
        <time>2018-08-28T07:03:49Z</time>
      </trkpt>
      <trkpt lat="42.962510380934" lon="-5.1423090789515">
        <ele>1113.91231918335</ele>
        <time>2018-08-28T07:03:50Z</time>
      </trkpt>
      <trkpt lat="42.9625439504562" lon="-5.14235191047671">
        <ele>1112.9372215271</ele>
        <time>2018-08-28T07:03:51Z</time>
      </trkpt>
      <trkpt lat="42.9625916434852" lon="-5.14247629791977">
        <ele>1111.45418930054</ele>
        <time>2018-08-28T07:03:53Z</time>
      </trkpt>
      <trkpt lat="42.9626126401526" lon="-5.14253547415616">
        <ele>1113.51021957397</ele>
        <time>2018-08-28T07:03:54Z</time>
      </trkpt>
      <trkpt lat="42.9626880353717" lon="-5.14255701564731">
        <ele>1112.23299789429</ele>
        <time>2018-08-28T07:03:55Z</time>
      </trkpt>
      <trkpt lat="42.9627407575426" lon="-5.1425868552226">
        <ele>1113.52633285522</ele>
        <time>2018-08-28T07:03:56Z</time>
      </trkpt>
      <trkpt lat="42.9627910489617" lon="-5.14261183329405">
        <ele>1113.24654769897</ele>
        <time>2018-08-28T07:03:57Z</time>
      </trkpt>
      <trkpt lat="42.962863217148" lon="-5.14262004755916">
        <ele>1111.24532699585</ele>
        <time>2018-08-28T07:03:59Z</time>
      </trkpt>
      <trkpt lat="42.9629535740642" lon="-5.14264217578354">
        <ele>1112.54696273804</ele>
        <time>2018-08-28T07:04:01Z</time>
      </trkpt>
      <trkpt lat="42.963027083355" lon="-5.14266354963662">
        <ele>1111.31759262085</ele>
        <time>2018-08-28T07:04:03Z</time>
      </trkpt>
      <trkpt lat="42.9630736448271" lon="-5.14266581275048">
        <ele>1111.6237449646</ele>
        <time>2018-08-28T07:04:04Z</time>
      </trkpt>
      <trkpt lat="42.9631199548421" lon="-5.14267494902494">
        <ele>1111.98434066772</ele>
        <time>2018-08-28T07:04:05Z</time>
      </trkpt>
      <trkpt lat="42.9631922068474" lon="-5.14268467203262">
        <ele>1112.40658187866</ele>
        <time>2018-08-28T07:04:07Z</time>
      </trkpt>
      <trkpt lat="42.9632422468094" lon="-5.14268182218554">
        <ele>1113.44662094116</ele>
        <time>2018-08-28T07:04:08Z</time>
      </trkpt>
      <trkpt lat="42.9632945079757" lon="-5.14267888851943">
        <ele>1113.94955062866</ele>
        <time>2018-08-28T07:04:09Z</time>
      </trkpt>
      <trkpt lat="42.9633709509326" lon="-5.14265835285666">
        <ele>1111.89950180054</ele>
        <time>2018-08-28T07:04:10Z</time>
      </trkpt>
      <trkpt lat="42.9634299595309" lon="-5.14264812693479">
        <ele>1111.22420883179</ele>
        <time>2018-08-28T07:04:11Z</time>
      </trkpt>
      <trkpt lat="42.963479203212" lon="-5.14265089296283">
        <ele>1112.80428695679</ele>
        <time>2018-08-28T07:04:12Z</time>
      </trkpt>
      <trkpt lat="42.9635235015703" lon="-5.142664555465">
        <ele>1110.28658676147</ele>
        <time>2018-08-28T07:04:13Z</time>
      </trkpt>
      <trkpt lat="42.963575553189" lon="-5.14265550300958">
        <ele>1111.53963851929</ele>
        <time>2018-08-28T07:04:14Z</time>
      </trkpt>
      <trkpt lat="42.9636227013943" lon="-5.14264142141225">
        <ele>1113.04000473022</ele>
        <time>2018-08-28T07:04:15Z</time>
      </trkpt>
      <trkpt lat="42.9636716936184" lon="-5.14262088574948">
        <ele>1113.53145980835</ele>
        <time>2018-08-28T07:04:16Z</time>
      </trkpt>
      <trkpt lat="42.9637202248377" lon="-5.14260286465766">
        <ele>1113.82332992554</ele>
        <time>2018-08-28T07:04:17Z</time>
      </trkpt>
      <trkpt lat="42.9637991404561" lon="-5.14253203757586">
        <ele>1114.7311668396</ele>
        <time>2018-08-28T07:04:19Z</time>
      </trkpt>
      <trkpt lat="42.9638818698404" lon="-5.14244352467837">
        <ele>1114.59603500366</ele>
        <time>2018-08-28T07:04:21Z</time>
      </trkpt>
      <trkpt lat="42.9639327899022" lon="-5.14242189936819">
        <ele>1115.29708480835</ele>
        <time>2018-08-28T07:04:22Z</time>
      </trkpt>
      <trkpt lat="42.9639776330841" lon="-5.14240932651343">
        <ele>1112.32406234741</ele>
        <time>2018-08-28T07:04:23Z</time>
      </trkpt>
      <trkpt lat="42.9640452750427" lon="-5.14239977114381">
        <ele>1112.04720687866</ele>
        <time>2018-08-28T07:04:24Z</time>
      </trkpt>
      <trkpt lat="42.9641062533883" lon="-5.14239172451677">
        <ele>1112.48824691772</ele>
        <time>2018-08-28T07:04:25Z</time>
      </trkpt>
      <trkpt lat="42.9641641304297" lon="-5.14237412252011">
        <ele>1113.27767562866</ele>
        <time>2018-08-28T07:04:26Z</time>
      </trkpt>
      <trkpt lat="42.9642071715025" lon="-5.14234746806802">
        <ele>1113.54806137085</ele>
        <time>2018-08-28T07:04:27Z</time>
      </trkpt>
      <trkpt lat="42.9642516374988" lon="-5.14232777059557">
        <ele>1113.53927230835</ele>
        <time>2018-08-28T07:04:28Z</time>
      </trkpt>
      <trkpt lat="42.964331349398" lon="-5.14236129820826">
        <ele>1111.90267562866</ele>
        <time>2018-08-28T07:04:29Z</time>
      </trkpt>
      <trkpt lat="42.9643867118684" lon="-5.14237931930008">
        <ele>1110.71883773804</ele>
        <time>2018-08-28T07:04:30Z</time>
      </trkpt>
      <trkpt lat="42.9644475225759" lon="-5.14242055826368">
        <ele>1108.42513656616</ele>
        <time>2018-08-28T07:04:31Z</time>
      </trkpt>
      <trkpt lat="42.9644951736955" lon="-5.1424525771338">
        <ele>1109.80392074585</ele>
        <time>2018-08-28T07:04:32Z</time>
      </trkpt>
      <trkpt lat="42.9645443754671" lon="-5.14248015359523">
        <ele>1112.01852035522</ele>
        <time>2018-08-28T07:04:33Z</time>
      </trkpt>
      <trkpt lat="42.9646439943863" lon="-5.14251317829373">
        <ele>1115.50814437866</ele>
        <time>2018-08-28T07:04:35Z</time>
      </trkpt>
      <trkpt lat="42.9647509474707" lon="-5.14251820743563">
        <ele>1115.08028793335</ele>
        <time>2018-08-28T07:04:37Z</time>
      </trkpt>
      <trkpt lat="42.964796628843" lon="-5.14252516441526">
        <ele>1117.49691390991</ele>
        <time>2018-08-28T07:04:38Z</time>
      </trkpt>
      <trkpt lat="42.9648515722183" lon="-5.14252600260558">
        <ele>1117.39156723022</ele>
        <time>2018-08-28T07:04:39Z</time>
      </trkpt>
      <trkpt lat="42.9649122571973" lon="-5.14252508059623">
        <ele>1117.21712875366</ele>
        <time>2018-08-28T07:04:40Z</time>
      </trkpt>
      <trkpt lat="42.964976169209" lon="-5.14251007698955">
        <ele>1116.7399559021</ele>
        <time>2018-08-28T07:04:41Z</time>
      </trkpt>
      <trkpt lat="42.9650197551055" lon="-5.14247797430041">
        <ele>1116.17391586304</ele>
        <time>2018-08-28T07:04:42Z</time>
      </trkpt>
      <trkpt lat="42.9650798114417" lon="-5.14244260266902">
        <ele>1117.97018051147</ele>
        <time>2018-08-28T07:04:43Z</time>
      </trkpt>
      <trkpt lat="42.9651139257876" lon="-5.14240127988639">
        <ele>1115.67916488647</ele>
        <time>2018-08-28T07:04:44Z</time>
      </trkpt>
      <trkpt lat="42.965175868052" lon="-5.14230513945701">
        <ele>1117.33395004272</ele>
        <time>2018-08-28T07:04:46Z</time>
      </trkpt>
      <trkpt lat="42.9652170651061" lon="-5.14226381667437">
        <ele>1115.54781723022</ele>
        <time>2018-08-28T07:04:47Z</time>
      </trkpt>
      <trkpt lat="42.9652500059856" lon="-5.14220849611344">
        <ele>1115.28158187866</ele>
        <time>2018-08-28T07:04:48Z</time>
      </trkpt>
      <trkpt lat="42.9652745649619" lon="-5.1421520859051">
        <ele>1117.70797348022</ele>
        <time>2018-08-28T07:04:49Z</time>
      </trkpt>
      <trkpt lat="42.9653155524684" lon="-5.14208846726002">
        <ele>1118.67110824585</ele>
        <time>2018-08-28T07:04:50Z</time>
      </trkpt>
      <trkpt lat="42.965346397872" lon="-5.14203918166938">
        <ele>1118.52206039429</ele>
        <time>2018-08-28T07:04:51Z</time>
      </trkpt>
      <trkpt lat="42.9653775785518" lon="-5.14199324884">
        <ele>1117.3600730896</ele>
        <time>2018-08-28T07:04:52Z</time>
      </trkpt>
      <trkpt lat="42.9654165963111" lon="-5.14189585112514">
        <ele>1111.36715316772</ele>
        <time>2018-08-28T07:04:54Z</time>
      </trkpt>
      <trkpt lat="42.9654206196246" lon="-5.14177272096755">
        <ele>1112.23873519897</ele>
        <time>2018-08-28T07:04:56Z</time>
      </trkpt>
      <trkpt lat="42.9654862080169" lon="-5.14167641290011">
        <ele>1111.70528793335</ele>
        <time>2018-08-28T07:04:58Z</time>
      </trkpt>
      <trkpt lat="42.965548443648" lon="-5.14165780507507">
        <ele>1110.6725730896</ele>
        <time>2018-08-28T07:04:59Z</time>
      </trkpt>
      <trkpt lat="42.9655958433104" lon="-5.14164481312515">
        <ele>1110.79439926147</ele>
        <time>2018-08-28T07:05:00Z</time>
      </trkpt>
      <trkpt lat="42.9656445840774" lon="-5.14163626358392">
        <ele>1111.30208969116</ele>
        <time>2018-08-28T07:05:01Z</time>
      </trkpt>
      <trkpt lat="42.9657022096617" lon="-5.14163517393651">
        <ele>1110.7936668396</ele>
        <time>2018-08-28T07:05:02Z</time>
      </trkpt>
      <trkpt lat="42.9657568177608" lon="-5.14163165353717">
        <ele>1114.59078598022</ele>
        <time>2018-08-28T07:05:03Z</time>
      </trkpt>
      <trkpt lat="42.9658077378226" lon="-5.14164028689744">
        <ele>1114.19955062866</ele>
        <time>2018-08-28T07:05:04Z</time>
      </trkpt>
      <trkpt lat="42.9658595379842" lon="-5.14164246619227">
        <ele>1114.79793930054</ele>
        <time>2018-08-28T07:05:05Z</time>
      </trkpt>
      <trkpt lat="42.9659115057839" lon="-5.14163944870712">
        <ele>1114.60677719116</ele>
        <time>2018-08-28T07:05:06Z</time>
      </trkpt>
      <trkpt lat="42.9659615876553" lon="-5.14163341373684">
        <ele>1113.99984359741</ele>
        <time>2018-08-28T07:05:07Z</time>
      </trkpt>
      <trkpt lat="42.9660115437982" lon="-5.14162134379627">
        <ele>1114.11166000366</ele>
        <time>2018-08-28T07:05:08Z</time>
      </trkpt>
      <trkpt lat="42.9660666129021" lon="-5.1416063401896">
        <ele>1114.1774559021</ele>
        <time>2018-08-28T07:05:09Z</time>
      </trkpt>
      <trkpt lat="42.966123232658" lon="-5.141583625232">
        <ele>1113.32113265991</ele>
        <time>2018-08-28T07:05:10Z</time>
      </trkpt>
      <trkpt lat="42.966176122467" lon="-5.14158035628976">
        <ele>1113.21712875366</ele>
        <time>2018-08-28T07:05:11Z</time>
      </trkpt>
      <trkpt lat="42.966239489655" lon="-5.14155311510446">
        <ele>1110.49032211304</ele>
        <time>2018-08-28T07:05:12Z</time>
      </trkpt>
      <trkpt lat="42.9662922537354" lon="-5.14154280536356">
        <ele>1111.13021469116</ele>
        <time>2018-08-28T07:05:13Z</time>
      </trkpt>
      <trkpt lat="42.9663204169301" lon="-5.14149159193518">
        <ele>1110.86581039429</ele>
        <time>2018-08-28T07:05:14Z</time>
      </trkpt>
      <trkpt lat="42.9663705407111" lon="-5.14144876040997">
        <ele>1108.30721664429</ele>
        <time>2018-08-28T07:05:15Z</time>
      </trkpt>
      <trkpt lat="42.9664453911064" lon="-5.14138983563068">
        <ele>1107.07467269897</ele>
        <time>2018-08-28T07:05:17Z</time>
      </trkpt>
      <trkpt lat="42.9664838221324" lon="-5.14135144651415">
        <ele>1108.1325340271</ele>
        <time>2018-08-28T07:05:18Z</time>
      </trkpt>
      <trkpt lat="42.9665492847962" lon="-5.14128413983168">
        <ele>1108.3991355896</ele>
        <time>2018-08-28T07:05:20Z</time>
      </trkpt>
      <trkpt lat="42.9666202376065" lon="-5.14122965746107">
        <ele>1110.65328598022</ele>
        <time>2018-08-28T07:05:22Z</time>
      </trkpt>
      <trkpt lat="42.9667004943294" lon="-5.1411692239392">
        <ele>1110.4440574646</ele>
        <time>2018-08-28T07:05:24Z</time>
      </trkpt>
      <trkpt lat="42.9667610535798" lon="-5.14113284647944">
        <ele>1110.04085922241</ele>
        <time>2018-08-28T07:05:26Z</time>
      </trkpt>
      <trkpt lat="42.9668378318129" lon="-5.14110099524738">
        <ele>1112.07210922241</ele>
        <time>2018-08-28T07:05:28Z</time>
      </trkpt>
      <trkpt lat="42.9669065215094" lon="-5.14107576571884">
        <ele>1112.36849594116</ele>
        <time>2018-08-28T07:05:30Z</time>
      </trkpt>
      <trkpt lat="42.9669946572212" lon="-5.1410325989175">
        <ele>1112.98189926147</ele>
        <time>2018-08-28T07:05:32Z</time>
      </trkpt>
      <trkpt lat="42.9670812003715" lon="-5.14100208878996">
        <ele>1113.92708969116</ele>
        <time>2018-08-28T07:05:34Z</time>
      </trkpt>
      <trkpt lat="42.9671538295624" lon="-5.14098985121133">
        <ele>1113.43990707397</ele>
        <time>2018-08-28T07:05:36Z</time>
      </trkpt>
      <trkpt lat="42.9672226449875" lon="-5.14097979292752">
        <ele>1110.94942855835</ele>
        <time>2018-08-28T07:05:38Z</time>
      </trkpt>
      <trkpt lat="42.9673092300472" lon="-5.14098239131751">
        <ele>1111.57442855835</ele>
        <time>2018-08-28T07:05:40Z</time>
      </trkpt>
      <trkpt lat="42.9673826136095" lon="-5.14098406769814">
        <ele>1111.17818832397</ele>
        <time>2018-08-28T07:05:42Z</time>
      </trkpt>
      <trkpt lat="42.9674275406105" lon="-5.14098809101166">
        <ele>1113.5260887146</ele>
        <time>2018-08-28T07:05:43Z</time>
      </trkpt>
      <trkpt lat="42.9674849985568" lon="-5.1410066988367">
        <ele>1113.62740707397</ele>
        <time>2018-08-28T07:05:44Z</time>
      </trkpt>
      <trkpt lat="42.9675581725714" lon="-5.14101784676792">
        <ele>1114.31991195679</ele>
        <time>2018-08-28T07:05:46Z</time>
      </trkpt>
      <trkpt lat="42.9676404409511" lon="-5.1410468481529">
        <ele>1117.11959457397</ele>
        <time>2018-08-28T07:05:48Z</time>
      </trkpt>
      <trkpt lat="42.96771151949" lon="-5.14107601717593">
        <ele>1119.45846176147</ele>
        <time>2018-08-28T07:05:50Z</time>
      </trkpt>
      <trkpt lat="42.9677572846813" lon="-5.14108867384972">
        <ele>1119.71322250366</ele>
        <time>2018-08-28T07:05:51Z</time>
      </trkpt>
      <trkpt lat="42.967804055701" lon="-5.14110074379029">
        <ele>1119.75680160522</ele>
        <time>2018-08-28T07:05:52Z</time>
      </trkpt>
      <trkpt lat="42.9678602982713" lon="-5.14111918397727">
        <ele>1121.42892074585</ele>
        <time>2018-08-28T07:05:53Z</time>
      </trkpt>
      <trkpt lat="42.9679079913003" lon="-5.14114407822969">
        <ele>1121.81441879272</ele>
        <time>2018-08-28T07:05:54Z</time>
      </trkpt>
      <trkpt lat="42.9679632699517" lon="-5.14117685147109">
        <ele>1122.0329246521</ele>
        <time>2018-08-28T07:05:55Z</time>
      </trkpt>
      <trkpt lat="42.9680105857951" lon="-5.141200404619">
        <ele>1125.19515609741</ele>
        <time>2018-08-28T07:05:56Z</time>
      </trkpt>
      <trkpt lat="42.9680516990302" lon="-5.14122923836591">
        <ele>1125.08224105835</ele>
        <time>2018-08-28T07:05:57Z</time>
      </trkpt>
      <trkpt lat="42.9681021580873" lon="-5.14124943875255">
        <ele>1124.00179672241</ele>
        <time>2018-08-28T07:05:58Z</time>
      </trkpt>
      <trkpt lat="42.9681502702115" lon="-5.14126737602534">
        <ele>1123.84554672241</ele>
        <time>2018-08-28T07:05:59Z</time>
      </trkpt>
      <trkpt lat="42.9682460334552" lon="-5.14127885923268">
        <ele>1124.50814437866</ele>
        <time>2018-08-28T07:06:01Z</time>
      </trkpt>
      <trkpt lat="42.9683334147958" lon="-5.14127047732951">
        <ele>1127.3512840271</ele>
        <time>2018-08-28T07:06:03Z</time>
      </trkpt>
      <trkpt lat="42.9683863465143" lon="-5.14127860777559">
        <ele>1128.00802230835</ele>
        <time>2018-08-28T07:06:04Z</time>
      </trkpt>
      <trkpt lat="42.9684395296899" lon="-5.14127542265238">
        <ele>1126.72506332397</ele>
        <time>2018-08-28T07:06:05Z</time>
      </trkpt>
      <trkpt lat="42.9684958560792" lon="-5.14128036797525">
        <ele>1128.31698226929</ele>
        <time>2018-08-28T07:06:06Z</time>
      </trkpt>
      <trkpt lat="42.9685501708118" lon="-5.14126729220631">
        <ele>1127.66061019897</ele>
        <time>2018-08-28T07:06:07Z</time>
      </trkpt>
      <trkpt lat="42.9686136637283" lon="-5.14125689864637">
        <ele>1128.45394515991</ele>
        <time>2018-08-28T07:06:08Z</time>
      </trkpt>
      <trkpt lat="42.9687009612499" lon="-5.14126620255889">
        <ele>1128.17416000366</ele>
        <time>2018-08-28T07:06:10Z</time>
      </trkpt>
      <trkpt lat="42.9687676811991" lon="-5.14125614427509">
        <ele>1125.56014633179</ele>
        <time>2018-08-28T07:06:12Z</time>
      </trkpt>
      <trkpt lat="42.9688223312078" lon="-5.14125413261833">
        <ele>1123.23470687866</ele>
        <time>2018-08-28T07:06:13Z</time>
      </trkpt>
      <trkpt lat="42.9689173400802" lon="-5.14126360416891">
        <ele>1122.09579086304</ele>
        <time>2018-08-28T07:06:15Z</time>
      </trkpt>
      <trkpt lat="42.9689711099891" lon="-5.14127483591916">
        <ele>1121.45626449585</ele>
        <time>2018-08-28T07:06:16Z</time>
      </trkpt>
      <trkpt lat="42.9690260533644" lon="-5.141284978022">
        <ele>1121.7917137146</ele>
        <time>2018-08-28T07:06:17Z</time>
      </trkpt>
      <trkpt lat="42.9690892110048" lon="-5.14129838906707">
        <ele>1122.36800765991</ele>
        <time>2018-08-28T07:06:18Z</time>
      </trkpt>
      <trkpt lat="42.9691524524642" lon="-5.14131540433051">
        <ele>1121.22665023804</ele>
        <time>2018-08-28T07:06:19Z</time>
      </trkpt>
      <trkpt lat="42.9692190047754" lon="-5.14133191667976">
        <ele>1120.14352035522</ele>
        <time>2018-08-28T07:06:20Z</time>
      </trkpt>
      <trkpt lat="42.9692739481507" lon="-5.14135957696023">
        <ele>1119.65633773804</ele>
        <time>2018-08-28T07:06:21Z</time>
      </trkpt>
      <trkpt lat="42.9693283886118" lon="-5.14135890640797">
        <ele>1120.23104476929</ele>
        <time>2018-08-28T07:06:22Z</time>
      </trkpt>
      <trkpt lat="42.9694030294595" lon="-5.14140634797992">
        <ele>1119.10946273804</ele>
        <time>2018-08-28T07:06:23Z</time>
      </trkpt>
      <trkpt lat="42.9694602359486" lon="-5.14143560082199">
        <ele>1121.25106430054</ele>
        <time>2018-08-28T07:06:24Z</time>
      </trkpt>
      <trkpt lat="42.9695224296702" lon="-5.14145856723668">
        <ele>1121.74728012085</ele>
        <time>2018-08-28T07:06:25Z</time>
      </trkpt>
      <trkpt lat="42.9695770796789" lon="-5.14147767797591">
        <ele>1122.21578598022</ele>
        <time>2018-08-28T07:06:26Z</time>
      </trkpt>
      <trkpt lat="42.9696271196408" lon="-5.14149921946706">
        <ele>1123.27181625366</ele>
        <time>2018-08-28T07:06:27Z</time>
      </trkpt>
      <trkpt lat="42.9696725076465" lon="-5.1415162347305">
        <ele>1123.22481918335</ele>
        <time>2018-08-28T07:06:28Z</time>
      </trkpt>
      <trkpt lat="42.9697181051997" lon="-5.14154121280195">
        <ele>1124.8405418396</ele>
        <time>2018-08-28T07:06:29Z</time>
      </trkpt>
      <trkpt lat="42.9698032234264" lon="-5.1415526960093">
        <ele>1124.75716781616</ele>
        <time>2018-08-28T07:06:31Z</time>
      </trkpt>
      <trkpt lat="42.9698763136221" lon="-5.14157616533818">
        <ele>1124.92782211304</ele>
        <time>2018-08-28T07:06:33Z</time>
      </trkpt>
      <trkpt lat="42.9699418181954" lon="-5.14155990444603">
        <ele>1123.44832992554</ele>
        <time>2018-08-28T07:06:35Z</time>
      </trkpt>
      <trkpt lat="42.969987122382" lon="-5.1415476668674">
        <ele>1121.85873031616</ele>
        <time>2018-08-28T07:06:37Z</time>
      </trkpt>
      <trkpt lat="42.9700469691707" lon="-5.14153450727942">
        <ele>1121.80794906616</ele>
        <time>2018-08-28T07:06:39Z</time>
      </trkpt>
      <trkpt lat="42.9701127671105" lon="-5.14152822085204">
        <ele>1121.84627914429</ele>
        <time>2018-08-28T07:06:41Z</time>
      </trkpt>
      <trkpt lat="42.9701747512845" lon="-5.14151145704569">
        <ele>1124.74630355835</ele>
        <time>2018-08-28T07:06:43Z</time>
      </trkpt>
      <trkpt lat="42.9702387890247" lon="-5.141499051829">
        <ele>1125.37997055054</ele>
        <time>2018-08-28T07:06:45Z</time>
      </trkpt>
      <trkpt lat="42.9703032039506" lon="-5.14148228802266">
        <ele>1125.79500961304</ele>
        <time>2018-08-28T07:06:47Z</time>
      </trkpt>
      <trkpt lat="42.9703673674194" lon="-5.1414628420073">
        <ele>1129.71273422241</ele>
        <time>2018-08-28T07:06:49Z</time>
      </trkpt>
      <trkpt lat="42.9704411281673" lon="-5.14145236462833">
        <ele>1131.22079086304</ele>
        <time>2018-08-28T07:06:51Z</time>
      </trkpt>
      <trkpt lat="42.9705050820885" lon="-5.1414456591058">
        <ele>1129.84200668335</ele>
        <time>2018-08-28T07:06:53Z</time>
      </trkpt>
      <trkpt lat="42.9705682397289" lon="-5.14144004323067">
        <ele>1126.73421859741</ele>
        <time>2018-08-28T07:06:55Z</time>
      </trkpt>
      <trkpt lat="42.9706264520464" lon="-5.14143342152717">
        <ele>1128.53060531616</ele>
        <time>2018-08-28T07:06:57Z</time>
      </trkpt>
      <trkpt lat="42.9706909088818" lon="-5.14141414314987">
        <ele>1128.1969871521</ele>
        <time>2018-08-28T07:06:59Z</time>
      </trkpt>
      <trkpt lat="42.9707498336611" lon="-5.14139243402066">
        <ele>1128.8815574646</ele>
        <time>2018-08-28T07:07:01Z</time>
      </trkpt>
      <trkpt lat="42.9708074592454" lon="-5.14136150479796">
        <ele>1128.49422836304</ele>
        <time>2018-08-28T07:07:03Z</time>
      </trkpt>
      <trkpt lat="42.9708692757813" lon="-5.14132395387175">
        <ele>1129.07125473022</ele>
        <time>2018-08-28T07:07:05Z</time>
      </trkpt>
      <trkpt lat="42.9709231295092" lon="-5.14129394665839">
        <ele>1130.67147445679</ele>
        <time>2018-08-28T07:07:07Z</time>
      </trkpt>
      <trkpt lat="42.9709743848471" lon="-5.14127089642467">
        <ele>1133.8229637146</ele>
        <time>2018-08-28T07:07:09Z</time>
      </trkpt>
      <trkpt lat="42.9710274003846" lon="-5.14124943875255">
        <ele>1132.95211410522</ele>
        <time>2018-08-28T07:07:11Z</time>
      </trkpt>
      <trkpt lat="42.9710845230547" lon="-5.1412313338417">
        <ele>1132.37398910522</ele>
        <time>2018-08-28T07:07:13Z</time>
      </trkpt>
      <trkpt lat="42.9711415199963" lon="-5.14121850952985">
        <ele>1134.71126937866</ele>
        <time>2018-08-28T07:07:15Z</time>
      </trkpt>
      <trkpt lat="42.9712062282888" lon="-5.14121968299629">
        <ele>1136.00350570679</ele>
        <time>2018-08-28T07:07:17Z</time>
      </trkpt>
      <trkpt lat="42.9712719424097" lon="-5.14122932218494">
        <ele>1137.02291488647</ele>
        <time>2018-08-28T07:07:19Z</time>
      </trkpt>
      <trkpt lat="42.9713407159252" lon="-5.14124767855289">
        <ele>1137.01229476929</ele>
        <time>2018-08-28T07:07:21Z</time>
      </trkpt>
      <trkpt lat="42.9714019876374" lon="-5.14127232134821">
        <ele>1137.6501121521</ele>
        <time>2018-08-28T07:07:23Z</time>
      </trkpt>
      <trkpt lat="42.9714633012591" lon="-5.14130149037125">
        <ele>1137.59920883179</ele>
        <time>2018-08-28T07:07:25Z</time>
      </trkpt>
      <trkpt lat="42.9715222260384" lon="-5.14134356752517">
        <ele>1138.2135887146</ele>
        <time>2018-08-28T07:07:27Z</time>
      </trkpt>
      <trkpt lat="42.971575493033" lon="-5.14139369130613">
        <ele>1139.12606430054</ele>
        <time>2018-08-28T07:07:29Z</time>
      </trkpt>
      <trkpt lat="42.9716217611385" lon="-5.14145026915254">
        <ele>1139.94649887085</ele>
        <time>2018-08-28T07:07:31Z</time>
      </trkpt>
      <trkpt lat="42.9716658499492" lon="-5.14151891693952">
        <ele>1140.59103012085</ele>
        <time>2018-08-28T07:07:33Z</time>
      </trkpt>
      <trkpt lat="42.9717201646818" lon="-5.14160625637056">
        <ele>1141.74520492554</ele>
        <time>2018-08-28T07:07:35Z</time>
      </trkpt>
      <trkpt lat="42.9717830289555" lon="-5.14168672264101">
        <ele>1140.91707992554</ele>
        <time>2018-08-28T07:07:37Z</time>
      </trkpt>
      <trkpt lat="42.9718589270888" lon="-5.14175076038124">
        <ele>1142.34969711304</ele>
        <time>2018-08-28T07:07:39Z</time>
      </trkpt>
      <trkpt lat="42.9719011718807" lon="-5.14177255332949">
        <ele>1143.1715965271</ele>
        <time>2018-08-28T07:07:40Z</time>
      </trkpt>
      <trkpt lat="42.9719913192494" lon="-5.14178873040261">
        <ele>1142.36861801147</ele>
        <time>2018-08-28T07:07:42Z</time>
      </trkpt>
      <trkpt lat="42.9720368329836" lon="-5.14178403653683">
        <ele>1141.85103988647</ele>
        <time>2018-08-28T07:07:43Z</time>
      </trkpt>
      <trkpt lat="42.9721155390544" lon="-5.1417617406744">
        <ele>1141.86324691772</ele>
        <time>2018-08-28T07:07:45Z</time>
      </trkpt>
      <trkpt lat="42.9721758468477" lon="-5.14172444120528">
        <ele>1143.83541488647</ele>
        <time>2018-08-28T07:07:47Z</time>
      </trkpt>
      <trkpt lat="42.9722364060981" lon="-5.14168018475654">
        <ele>1144.19735336304</ele>
        <time>2018-08-28T07:07:49Z</time>
      </trkpt>
      <trkpt lat="42.9723026650427" lon="-5.1416303962517">
        <ele>1144.1921043396</ele>
        <time>2018-08-28T07:07:51Z</time>
      </trkpt>
      <trkpt lat="42.9723547166614" lon="-5.14157817699494">
        <ele>1145.66146469116</ele>
        <time>2018-08-28T07:07:53Z</time>
      </trkpt>
      <trkpt lat="42.9723952850727" lon="-5.14149117284002">
        <ele>1144.6833152771</ele>
        <time>2018-08-28T07:07:55Z</time>
      </trkpt>
      <trkpt lat="42.9724280164046" lon="-5.14138765633585">
        <ele>1144.25716781616</ele>
        <time>2018-08-28T07:07:57Z</time>
      </trkpt>
      <trkpt lat="42.9724650644166" lon="-5.14128020033719">
        <ele>1142.68612289429</ele>
        <time>2018-08-28T07:07:59Z</time>
      </trkpt>
      <trkpt lat="42.972483295056" lon="-5.1411967165816">
        <ele>1143.53939437866</ele>
        <time>2018-08-28T07:08:00Z</time>
      </trkpt>
      <trkpt lat="42.9725164035735" lon="-5.1411486044574">
        <ele>1143.91109848022</ele>
        <time>2018-08-28T07:08:01Z</time>
      </trkpt>
      <trkpt lat="42.9725548765091" lon="-5.14110082760932">
        <ele>1144.49935531616</ele>
        <time>2018-08-28T07:08:02Z</time>
      </trkpt>
      <trkpt lat="42.972596953663" lon="-5.14106713235857">
        <ele>1145.33541488647</ele>
        <time>2018-08-28T07:08:03Z</time>
      </trkpt>
      <trkpt lat="42.9726412101118" lon="-5.14104617760064">
        <ele>1145.18294906616</ele>
        <time>2018-08-28T07:08:04Z</time>
      </trkpt>
      <trkpt lat="42.9727255739672" lon="-5.14102455229046">
        <ele>1146.7487449646</ele>
        <time>2018-08-28T07:08:06Z</time>
      </trkpt>
      <trkpt lat="42.9727809783471" lon="-5.14101097360732">
        <ele>1145.63509750366</ele>
        <time>2018-08-28T07:08:07Z</time>
      </trkpt>
      <trkpt lat="42.9728331137849" lon="-5.14100678265574">
        <ele>1145.98421859741</ele>
        <time>2018-08-28T07:08:08Z</time>
      </trkpt>
      <trkpt lat="42.9728821060089" lon="-5.1410000771332">
        <ele>1145.36312484741</ele>
        <time>2018-08-28T07:08:09Z</time>
      </trkpt>
      <trkpt lat="42.972935331094" lon="-5.14099672437193">
        <ele>1144.59945297241</ele>
        <time>2018-08-28T07:08:10Z</time>
      </trkpt>
      <trkpt lat="42.972988053265" lon="-5.1409966405529">
        <ele>1144.7506980896</ele>
        <time>2018-08-28T07:08:11Z</time>
      </trkpt>
      <trkpt lat="42.9730442539258" lon="-5.14100125059964">
        <ele>1145.63094711304</ele>
        <time>2018-08-28T07:08:12Z</time>
      </trkpt>
      <trkpt lat="42.973092449869" lon="-5.14099814929547">
        <ele>1146.76986312866</ele>
        <time>2018-08-28T07:08:13Z</time>
      </trkpt>
      <trkpt lat="42.9731477704299" lon="-5.14098205604138">
        <ele>1146.53133773804</ele>
        <time>2018-08-28T07:08:14Z</time>
      </trkpt>
      <trkpt lat="42.9731945414496" lon="-5.14096839353921">
        <ele>1146.16524887085</ele>
        <time>2018-08-28T07:08:15Z</time>
      </trkpt>
      <trkpt lat="42.9732545139668" lon="-5.1409617718357">
        <ele>1147.48812484741</ele>
        <time>2018-08-28T07:08:16Z</time>
      </trkpt>
      <trkpt lat="42.9733102955324" lon="-5.14095649123671">
        <ele>1147.42501449585</ele>
        <time>2018-08-28T07:08:17Z</time>
      </trkpt>
      <trkpt lat="42.9733690526737" lon="-5.14094676822903">
        <ele>1147.29525375366</ele>
        <time>2018-08-28T07:08:18Z</time>
      </trkpt>
      <trkpt lat="42.9734094534469" lon="-5.14091407880666">
        <ele>1147.8053855896</ele>
        <time>2018-08-28T07:08:19Z</time>
      </trkpt>
      <trkpt lat="42.973455763462" lon="-5.14088675380232">
        <ele>1148.1188621521</ele>
        <time>2018-08-28T07:08:20Z</time>
      </trkpt>
      <trkpt lat="42.9735054262383" lon="-5.14085699804606">
        <ele>1147.59579086304</ele>
        <time>2018-08-28T07:08:21Z</time>
      </trkpt>
      <trkpt lat="42.9735532869054" lon="-5.14081944711985">
        <ele>1147.37386703491</ele>
        <time>2018-08-28T07:08:22Z</time>
      </trkpt>
      <trkpt lat="42.9735943582309" lon="-5.14078474604072">
        <ele>1148.72750473022</ele>
        <time>2018-08-28T07:08:23Z</time>
      </trkpt>
      <trkpt lat="42.9736676579741" lon="-5.14073688537361">
        <ele>1146.94979476929</ele>
        <time>2018-08-28T07:08:25Z</time>
      </trkpt>
      <trkpt lat="42.9737470345972" lon="-5.14067444019498">
        <ele>1148.13021469116</ele>
        <time>2018-08-28T07:08:27Z</time>
      </trkpt>
      <trkpt lat="42.9738215497164" lon="-5.14061040245475">
        <ele>1149.9860496521</ele>
        <time>2018-08-28T07:08:29Z</time>
      </trkpt>
      <trkpt lat="42.9739018064392" lon="-5.14056161977829">
        <ele>1150.7311668396</ele>
        <time>2018-08-28T07:08:31Z</time>
      </trkpt>
      <trkpt lat="42.9739433387695" lon="-5.14053747989716">
        <ele>1152.3844871521</ele>
        <time>2018-08-28T07:08:32Z</time>
      </trkpt>
      <trkpt lat="42.974024056497" lon="-5.14049431309583">
        <ele>1152.33358383179</ele>
        <time>2018-08-28T07:08:34Z</time>
      </trkpt>
      <trkpt lat="42.9740699893264" lon="-5.14047084376695">
        <ele>1151.41805648804</ele>
        <time>2018-08-28T07:08:35Z</time>
      </trkpt>
      <trkpt lat="42.9741471866546" lon="-5.14043320902171">
        <ele>1151.42367172241</ele>
        <time>2018-08-28T07:08:37Z</time>
      </trkpt>
      <trkpt lat="42.9741921974746" lon="-5.14041476883473">
        <ele>1151.55746078491</ele>
        <time>2018-08-28T07:08:38Z</time>
      </trkpt>
      <trkpt lat="42.9742402257798" lon="-5.140407560398">
        <ele>1151.48128890991</ele>
        <time>2018-08-28T07:08:39Z</time>
      </trkpt>
      <trkpt lat="42.9742865777043" lon="-5.1403922215152">
        <ele>1151.35262680054</ele>
        <time>2018-08-28T07:08:40Z</time>
      </trkpt>
      <trkpt lat="42.9743359890235" lon="-5.14041141607346">
        <ele>1151.79476547241</ele>
        <time>2018-08-28T07:08:41Z</time>
      </trkpt>
      <trkpt lat="42.9743802035628" lon="-5.14044485986711">
        <ele>1152.03255844116</ele>
        <time>2018-08-28T07:08:42Z</time>
      </trkpt>
      <trkpt lat="42.9744439479364" lon="-5.14052758925142">
        <ele>1152.42904281616</ele>
        <time>2018-08-28T07:08:44Z</time>
      </trkpt>
      <trkpt lat="42.9744738294212" lon="-5.14058156870784">
        <ele>1152.33541488647</ele>
        <time>2018-08-28T07:08:45Z</time>
      </trkpt>
      <trkpt lat="42.9745226120977" lon="-5.14066354372086">
        <ele>1150.24166488647</ele>
        <time>2018-08-28T07:08:47Z</time>
      </trkpt>
      <trkpt lat="42.9745845124526" lon="-5.14074459672453">
        <ele>1151.95882797241</ele>
        <time>2018-08-28T07:08:49Z</time>
      </trkpt>
      <trkpt lat="42.9746547528012" lon="-5.14078809880199">
        <ele>1152.52950668335</ele>
        <time>2018-08-28T07:08:51Z</time>
      </trkpt>
      <trkpt lat="42.9747272143541" lon="-5.14081081375958">
        <ele>1152.82149887085</ele>
        <time>2018-08-28T07:08:53Z</time>
      </trkpt>
      <trkpt lat="42.9747815709961" lon="-5.1408274937469">
        <ele>1152.39144515991</ele>
        <time>2018-08-28T07:08:55Z</time>
      </trkpt>
      <trkpt lat="42.9748280486492" lon="-5.14083956368746">
        <ele>1152.99325180054</ele>
        <time>2018-08-28T07:08:57Z</time>
      </trkpt>
      <trkpt lat="42.9748932598559" lon="-5.14083847404005">
        <ele>1153.17416000366</ele>
        <time>2018-08-28T07:09:00Z</time>
      </trkpt>
      <trkpt lat="42.9749534838302" lon="-5.14082682319464">
        <ele>1154.12691879272</ele>
        <time>2018-08-28T07:09:03Z</time>
      </trkpt>
      <trkpt lat="42.9750161385564" lon="-5.14080067165675">
        <ele>1155.22848129272</ele>
        <time>2018-08-28T07:09:06Z</time>
      </trkpt>
      <trkpt lat="42.9750740155978" lon="-5.14076789841535">
        <ele>1156.55501937866</ele>
        <time>2018-08-28T07:09:09Z</time>
      </trkpt>
      <trkpt lat="42.9751299648015" lon="-5.14073462225975">
        <ele>1156.84359359741</ele>
        <time>2018-08-28T07:09:12Z</time>
      </trkpt>
      <trkpt lat="42.9751882190285" lon="-5.14069170691552">
        <ele>1158.47286605835</ele>
        <time>2018-08-28T07:09:15Z</time>
      </trkpt>
      <trkpt lat="42.9752305476395" lon="-5.14066278934957">
        <ele>1159.67989730835</ele>
        <time>2018-08-28T07:09:17Z</time>
      </trkpt>
      <trkpt lat="42.97527811494" lon="-5.140632195403">
        <ele>1161.39474105835</ele>
        <time>2018-08-28T07:09:19Z</time>
      </trkpt>
      <trkpt lat="42.9753237544028" lon="-5.1406047027606">
        <ele>1161.76742172241</ele>
        <time>2018-08-28T07:09:21Z</time>
      </trkpt>
      <trkpt lat="42.9753670888422" lon="-5.14057151042404">
        <ele>1162.45052719116</ele>
        <time>2018-08-28T07:09:23Z</time>
      </trkpt>
      <trkpt lat="42.9754139436809" lon="-5.14053907245876">
        <ele>1164.46871566772</ele>
        <time>2018-08-28T07:09:25Z</time>
      </trkpt>
      <trkpt lat="42.9754609661577" lon="-5.14051107690217">
        <ele>1163.54977035522</ele>
        <time>2018-08-28T07:09:27Z</time>
      </trkpt>
      <trkpt lat="42.9755061865253" lon="-5.14048165642204">
        <ele>1163.98714828491</ele>
        <time>2018-08-28T07:09:29Z</time>
      </trkpt>
      <trkpt lat="42.9755500657884" lon="-5.14044980518999">
        <ele>1163.95370101929</ele>
        <time>2018-08-28T07:09:31Z</time>
      </trkpt>
      <trkpt lat="42.9755972139938" lon="-5.14041334391119">
        <ele>1164.24068832397</ele>
        <time>2018-08-28T07:09:33Z</time>
      </trkpt>
      <trkpt lat="42.9756475054128" lon="-5.14038157649817">
        <ele>1164.44527816772</ele>
        <time>2018-08-28T07:09:35Z</time>
      </trkpt>
      <trkpt lat="42.9756984673841" lon="-5.1403523236561">
        <ele>1164.0983543396</ele>
        <time>2018-08-28T07:09:37Z</time>
      </trkpt>
      <trkpt lat="42.9757482977984" lon="-5.14032390900435">
        <ele>1165.38033676147</ele>
        <time>2018-08-28T07:09:39Z</time>
      </trkpt>
      <trkpt lat="42.9758036183594" lon="-5.14029071666779">
        <ele>1166.53353500366</ele>
        <time>2018-08-28T07:09:41Z</time>
      </trkpt>
      <trkpt lat="42.9758604895724" lon="-5.14026104473056">
        <ele>1166.73287582397</ele>
        <time>2018-08-28T07:09:43Z</time>
      </trkpt>
      <trkpt lat="42.975918953347" lon="-5.14023321681203">
        <ele>1166.45467758179</ele>
        <time>2018-08-28T07:09:45Z</time>
      </trkpt>
      <trkpt lat="42.9759760760171" lon="-5.14019935392322">
        <ele>1165.3229637146</ele>
        <time>2018-08-28T07:09:47Z</time>
      </trkpt>
      <trkpt lat="42.976031396578" lon="-5.14016347937765">
        <ele>1164.67672348022</ele>
        <time>2018-08-28T07:09:49Z</time>
      </trkpt>
      <trkpt lat="42.9760942189423" lon="-5.14013087377431">
        <ele>1166.47445297241</ele>
        <time>2018-08-28T07:09:51Z</time>
      </trkpt>
      <trkpt lat="42.9761582566825" lon="-5.14010665007414">
        <ele>1168.09017562866</ele>
        <time>2018-08-28T07:09:53Z</time>
      </trkpt>
      <trkpt lat="42.9762186482949" lon="-5.14008594677331">
        <ele>1168.29293441772</ele>
        <time>2018-08-28T07:09:55Z</time>
      </trkpt>
      <trkpt lat="42.9762717476515" lon="-5.14005845413091">
        <ele>1167.67208480835</ele>
        <time>2018-08-28T07:09:57Z</time>
      </trkpt>
      <trkpt lat="42.9763282835884" lon="-5.14002903365077">
        <ele>1167.76766586304</ele>
        <time>2018-08-28T07:09:59Z</time>
      </trkpt>
      <trkpt lat="42.9763919860525" lon="-5.13999927789451">
        <ele>1166.58407211304</ele>
        <time>2018-08-28T07:10:01Z</time>
      </trkpt>
      <trkpt lat="42.9764602566538" lon="-5.1399725396234">
        <ele>1166.55416488647</ele>
        <time>2018-08-28T07:10:03Z</time>
      </trkpt>
      <trkpt lat="42.9765312932832" lon="-5.13994831592323">
        <ele>1166.23666000366</ele>
        <time>2018-08-28T07:10:05Z</time>
      </trkpt>
      <trkpt lat="42.9765998572511" lon="-5.139934485783">
        <ele>1167.39559555054</ele>
        <time>2018-08-28T07:10:07Z</time>
      </trkpt>
      <trkpt lat="42.9766628472535" lon="-5.13993691653492">
        <ele>1167.03597640991</ele>
        <time>2018-08-28T07:10:09Z</time>
      </trkpt>
      <trkpt lat="42.9767309502167" lon="-5.13994362205746">
        <ele>1167.13509750366</ele>
        <time>2018-08-28T07:10:11Z</time>
      </trkpt>
      <trkpt lat="42.9767944431333" lon="-5.1399535127032">
        <ele>1167.4450340271</ele>
        <time>2018-08-28T07:10:13Z</time>
      </trkpt>
      <trkpt lat="42.9768630490107" lon="-5.13996826485278">
        <ele>1168.99935531616</ele>
        <time>2018-08-28T07:10:15Z</time>
      </trkpt>
      <trkpt lat="42.9769380670441" lon="-5.13998486102106">
        <ele>1167.6755027771</ele>
        <time>2018-08-28T07:10:17Z</time>
      </trkpt>
      <trkpt lat="42.9770098161353" lon="-5.13999399729552">
        <ele>1167.62826156616</ele>
        <time>2018-08-28T07:10:19Z</time>
      </trkpt>
      <trkpt lat="42.977083073969" lon="-5.14000933617832">
        <ele>1168.31295394897</ele>
        <time>2018-08-28T07:10:21Z</time>
      </trkpt>
      <trkpt lat="42.9771580500928" lon="-5.14002903365077">
        <ele>1170.4411277771</ele>
        <time>2018-08-28T07:10:23Z</time>
      </trkpt>
      <trkpt lat="42.9772334453119" lon="-5.14004772529485">
        <ele>1170.28451156616</ele>
        <time>2018-08-28T07:10:25Z</time>
      </trkpt>
      <trkpt lat="42.9772818927122" lon="-5.14005074277999">
        <ele>1167.75411605835</ele>
        <time>2018-08-28T07:10:26Z</time>
      </trkpt>
      <trkpt lat="42.9773312621219" lon="-5.14005937614026">
        <ele>1168.71529769897</ele>
        <time>2018-08-28T07:10:27Z</time>
      </trkpt>
      <trkpt lat="42.9773756442992" lon="-5.14007974416496">
        <ele>1169.69881820679</ele>
        <time>2018-08-28T07:10:28Z</time>
      </trkpt>
      <trkpt lat="42.9774194397433" lon="-5.14009893872323">
        <ele>1170.58773422241</ele>
        <time>2018-08-28T07:10:29Z</time>
      </trkpt>
      <trkpt lat="42.9774980200855" lon="-5.14012240805211">
        <ele>1172.82662582397</ele>
        <time>2018-08-28T07:10:31Z</time>
      </trkpt>
      <trkpt lat="42.9775451682908" lon="-5.14013682492556">
        <ele>1172.66634750366</ele>
        <time>2018-08-28T07:10:32Z</time>
      </trkpt>
      <trkpt lat="42.9776372434972" lon="-5.14015953988316">
        <ele>1173.29354476929</ele>
        <time>2018-08-28T07:10:34Z</time>
      </trkpt>
      <trkpt lat="42.9776849784357" lon="-5.14016976580502">
        <ele>1173.5055809021</ele>
        <time>2018-08-28T07:10:35Z</time>
      </trkpt>
      <trkpt lat="42.9777661152584" lon="-5.14019809663774">
        <ele>1172.33968734741</ele>
        <time>2018-08-28T07:10:37Z</time>
      </trkpt>
      <trkpt lat="42.9778117547212" lon="-5.14021217823507">
        <ele>1172.29183578491</ele>
        <time>2018-08-28T07:10:38Z</time>
      </trkpt>
      <trkpt lat="42.9778625490544" lon="-5.1402246672708">
        <ele>1172.4567527771</ele>
        <time>2018-08-28T07:10:39Z</time>
      </trkpt>
      <trkpt lat="42.9779135948447" lon="-5.14024595730485">
        <ele>1173.96187973022</ele>
        <time>2018-08-28T07:10:40Z</time>
      </trkpt>
      <trkpt lat="42.9779627547068" lon="-5.14026339166345">
        <ele>1175.81478500366</ele>
        <time>2018-08-28T07:10:41Z</time>
      </trkpt>
      <trkpt lat="42.9780496750427" lon="-5.14029599726679">
        <ele>1180.16952133179</ele>
        <time>2018-08-28T07:10:43Z</time>
      </trkpt>
      <trkpt lat="42.9780961526958" lon="-5.14031368308248">
        <ele>1180.25497055054</ele>
        <time>2018-08-28T07:10:44Z</time>
      </trkpt>
      <trkpt lat="42.9781813966511" lon="-5.14034243301036">
        <ele>1180.02047348022</ele>
        <time>2018-08-28T07:10:46Z</time>
      </trkpt>
      <trkpt lat="42.9782450572056" lon="-5.14037998393657">
        <ele>1178.85238265991</ele>
        <time>2018-08-28T07:10:48Z</time>
      </trkpt>
      <trkpt lat="42.9782928759632" lon="-5.14039046131553">
        <ele>1178.68478012085</ele>
        <time>2018-08-28T07:10:49Z</time>
      </trkpt>
      <trkpt lat="42.978337216231" lon="-5.14040688984575">
        <ele>1180.47323226929</ele>
        <time>2018-08-28T07:10:50Z</time>
      </trkpt>
      <trkpt lat="42.9784175148634" lon="-5.14047184959533">
        <ele>1179.99203109741</ele>
        <time>2018-08-28T07:10:52Z</time>
      </trkpt>
      <trkpt lat="42.9784997413335" lon="-5.14053597115459">
        <ele>1181.11703109741</ele>
        <time>2018-08-28T07:10:54Z</time>
      </trkpt>
      <trkpt lat="42.978534065227" lon="-5.14057712629916">
        <ele>1182.62166976929</ele>
        <time>2018-08-28T07:10:55Z</time>
      </trkpt>
      <trkpt lat="42.978621320839" lon="-5.14064468443872">
        <ele>1181.31393051147</ele>
        <time>2018-08-28T07:10:57Z</time>
      </trkpt>
      <trkpt lat="42.9786835983796" lon="-5.14069547877194">
        <ele>1182.84762191772</ele>
        <time>2018-08-28T07:10:59Z</time>
      </trkpt>
      <trkpt lat="42.9787467979295" lon="-5.14075675048413">
        <ele>1183.55135726929</ele>
        <time>2018-08-28T07:11:01Z</time>
      </trkpt>
      <trkpt lat="42.9787881626216" lon="-5.1408274937469">
        <ele>1182.4772605896</ele>
        <time>2018-08-28T07:11:03Z</time>
      </trkpt>
      <trkpt lat="42.9788261745525" lon="-5.14088675380232">
        <ele>1186.64706039429</ele>
        <time>2018-08-28T07:11:05Z</time>
      </trkpt>
      <trkpt lat="42.9788911343021" lon="-5.14094199054422">
        <ele>1187.42184066772</ele>
        <time>2018-08-28T07:11:07Z</time>
      </trkpt>
      <trkpt lat="42.978955716866" lon="-5.14098641463103">
        <ele>1188.47896957397</ele>
        <time>2018-08-28T07:11:09Z</time>
      </trkpt>
      <trkpt lat="42.979021682444" lon="-5.14103477821233">
        <ele>1186.7135887146</ele>
        <time>2018-08-28T07:11:11Z</time>
      </trkpt>
      <trkpt lat="42.9790834570704" lon="-5.14109043404939">
        <ele>1186.79488754272</ele>
        <time>2018-08-28T07:11:13Z</time>
      </trkpt>
      <trkpt lat="42.9791448964206" lon="-5.14114977792384">
        <ele>1185.25509262085</ele>
        <time>2018-08-28T07:11:15Z</time>
      </trkpt>
      <trkpt lat="42.979201306629" lon="-5.14120141044738">
        <ele>1185.84823226929</ele>
        <time>2018-08-28T07:11:17Z</time>
      </trkpt>
      <trkpt lat="42.979258094023" lon="-5.14124407433452">
        <ele>1188.33138656616</ele>
        <time>2018-08-28T07:11:19Z</time>
      </trkpt>
      <trkpt lat="42.9793129116697" lon="-5.14129076153519">
        <ele>1189.84395980835</ele>
        <time>2018-08-28T07:11:21Z</time>
      </trkpt>
      <trkpt lat="42.9793610657034" lon="-5.14134105295422">
        <ele>1193.15804672241</ele>
        <time>2018-08-28T07:11:23Z</time>
      </trkpt>
      <trkpt lat="42.9794079205422" lon="-5.14140039682867">
        <ele>1191.69137191772</ele>
        <time>2018-08-28T07:11:25Z</time>
      </trkpt>
      <trkpt lat="42.9794587148754" lon="-5.14145663939895">
        <ele>1191.94149398804</ele>
        <time>2018-08-28T07:11:27Z</time>
      </trkpt>
      <trkpt lat="42.9795104312179" lon="-5.14151061885538">
        <ele>1189.55379867554</ele>
        <time>2018-08-28T07:11:29Z</time>
      </trkpt>
      <trkpt lat="42.9795591300754" lon="-5.14157767408075">
        <ele>1190.58065414429</ele>
        <time>2018-08-28T07:11:31Z</time>
      </trkpt>
      <trkpt lat="42.9796121875224" lon="-5.14164657332482">
        <ele>1189.07638168335</ele>
        <time>2018-08-28T07:11:33Z</time>
      </trkpt>
      <trkpt lat="42.9796539294002" lon="-5.14169644564869">
        <ele>1186.6198387146</ele>
        <time>2018-08-28T07:11:35Z</time>
      </trkpt>
      <trkpt lat="42.9796875827415" lon="-5.14174841344835">
        <ele>1187.63607406616</ele>
        <time>2018-08-28T07:11:37Z</time>
      </trkpt>
      <trkpt lat="42.97971281227" lon="-5.14181437902631">
        <ele>1186.72713851929</ele>
        <time>2018-08-28T07:11:39Z</time>
      </trkpt>
      <trkpt lat="42.9797296179859" lon="-5.14189434238257">
        <ele>1187.43050765991</ele>
        <time>2018-08-28T07:11:41Z</time>
      </trkpt>
      <trkpt lat="42.9797362815989" lon="-5.14197338372948">
        <ele>1188.95125961304</ele>
        <time>2018-08-28T07:11:43Z</time>
      </trkpt>
      <trkpt lat="42.9797377903415" lon="-5.14206189662697">
        <ele>1187.38106918335</ele>
        <time>2018-08-28T07:11:45Z</time>
      </trkpt>
      <trkpt lat="42.9797341861231" lon="-5.14215242118122">
        <ele>1188.14168930054</ele>
        <time>2018-08-28T07:11:47Z</time>
      </trkpt>
      <trkpt lat="42.9797350243134" lon="-5.1422535907525">
        <ele>1189.64742660522</ele>
        <time>2018-08-28T07:11:49Z</time>
      </trkpt>
      <trkpt lat="42.9797374969749" lon="-5.1423592865515">
        <ele>1190.34103012085</ele>
        <time>2018-08-28T07:11:51Z</time>
      </trkpt>
      <trkpt lat="42.979741729836" lon="-5.14246716164531">
        <ele>1190.41561508179</ele>
        <time>2018-08-28T07:11:53Z</time>
      </trkpt>
      <trkpt lat="42.9797455855114" lon="-5.14257738367202">
        <ele>1190.57308578491</ele>
        <time>2018-08-28T07:11:55Z</time>
      </trkpt>
      <trkpt lat="42.9797532968623" lon="-5.14268249273779">
        <ele>1189.99666976929</ele>
        <time>2018-08-28T07:11:57Z</time>
      </trkpt>
      <trkpt lat="42.9797578649996" lon="-5.14280168340089">
        <ele>1188.40841293335</ele>
        <time>2018-08-28T07:11:59Z</time>
      </trkpt>
      <trkpt lat="42.9797558952523" lon="-5.14291886240723">
        <ele>1188.16781234741</ele>
        <time>2018-08-28T07:12:01Z</time>
      </trkpt>
      <trkpt lat="42.9797556857047" lon="-5.1430274080533">
        <ele>1187.74544906616</ele>
        <time>2018-08-28T07:12:03Z</time>
      </trkpt>
      <trkpt lat="42.979762936051" lon="-5.1431397255558">
        <ele>1186.16756820679</ele>
        <time>2018-08-28T07:12:05Z</time>
      </trkpt>
      <trkpt lat="42.9797819629712" lon="-5.14323921874645">
        <ele>1187.01900863647</ele>
        <time>2018-08-28T07:12:07Z</time>
      </trkpt>
      <trkpt lat="42.9798067314951" lon="-5.14334575273576">
        <ele>1186.65548324585</ele>
        <time>2018-08-28T07:12:09Z</time>
      </trkpt>
      <trkpt lat="42.9798386665461" lon="-5.14343108051004">
        <ele>1186.65511703491</ele>
        <time>2018-08-28T07:12:11Z</time>
      </trkpt>
      <trkpt lat="42.9798825458092" lon="-5.14351121150436">
        <ele>1184.94295883179</ele>
        <time>2018-08-28T07:12:13Z</time>
      </trkpt>
      <trkpt lat="42.9799261736152" lon="-5.14358757064225">
        <ele>1184.41012191772</ele>
        <time>2018-08-28T07:12:15Z</time>
      </trkpt>
      <trkpt lat="42.9799512774152" lon="-5.14365856536212">
        <ele>1184.58639144897</ele>
        <time>2018-08-28T07:12:17Z</time>
      </trkpt>
      <trkpt lat="42.9799782671435" lon="-5.14373274520519">
        <ele>1185.4059715271</ele>
        <time>2018-08-28T07:12:19Z</time>
      </trkpt>
      <trkpt lat="42.9800076038046" lon="-5.14380709268632">
        <ele>1185.48470687866</ele>
        <time>2018-08-28T07:12:21Z</time>
      </trkpt>
      <trkpt lat="42.980028516653" lon="-5.1438926719177">
        <ele>1186.07125473022</ele>
        <time>2018-08-28T07:12:23Z</time>
      </trkpt>
      <trkpt lat="42.9800468311114" lon="-5.14398185536744">
        <ele>1187.58089828491</ele>
        <time>2018-08-28T07:12:25Z</time>
      </trkpt>
      <trkpt lat="42.9800715996353" lon="-5.14407573268297">
        <ele>1187.71297836304</ele>
        <time>2018-08-28T07:12:27Z</time>
      </trkpt>
      <trkpt lat="42.9800953623308" lon="-5.14415251091602">
        <ele>1186.08236312866</ele>
        <time>2018-08-28T07:12:29Z</time>
      </trkpt>
      <trkpt lat="42.9801221844209" lon="-5.14421604574206">
        <ele>1185.44320297241</ele>
        <time>2018-08-28T07:12:31Z</time>
      </trkpt>
      <trkpt lat="42.9801544128386" lon="-5.14428745955708">
        <ele>1183.1598777771</ele>
        <time>2018-08-28T07:12:34Z</time>
      </trkpt>
      <trkpt lat="42.9801875632657" lon="-5.14435585588696">
        <ele>1182.86043930054</ele>
        <time>2018-08-28T07:12:37Z</time>
      </trkpt>
      <trkpt lat="42.9802208394212" lon="-5.14441117644789">
        <ele>1182.58004379272</ele>
        <time>2018-08-28T07:12:39Z</time>
      </trkpt>
      <trkpt lat="42.9802503437204" lon="-5.14447714202585">
        <ele>1182.74911117554</ele>
        <time>2018-08-28T07:12:41Z</time>
      </trkpt>
      <trkpt lat="42.9802718013925" lon="-5.14454252087059">
        <ele>1187.90572738647</ele>
        <time>2018-08-28T07:12:43Z</time>
      </trkpt>
      <trkpt lat="42.9803001322252" lon="-5.14460312203052">
        <ele>1188.3180809021</ele>
        <time>2018-08-28T07:12:45Z</time>
      </trkpt>
      <trkpt lat="42.9803262837631" lon="-5.14466146007659">
        <ele>1188.04183578491</ele>
        <time>2018-08-28T07:12:47Z</time>
      </trkpt>
      <trkpt lat="42.9803552013291" lon="-5.14471845701816">
        <ele>1188.8571434021</ele>
        <time>2018-08-28T07:12:49Z</time>
      </trkpt>
      <trkpt lat="42.9803849151758" lon="-5.14478417113902">
        <ele>1192.14193344116</ele>
        <time>2018-08-28T07:12:51Z</time>
      </trkpt>
      <trkpt lat="42.9804149223892" lon="-5.14485206455471">
        <ele>1194.75582504272</ele>
        <time>2018-08-28T07:12:53Z</time>
      </trkpt>
      <trkpt lat="42.9804465221641" lon="-5.14492465183618">
        <ele>1196.70943832397</ele>
        <time>2018-08-28T07:12:55Z</time>
      </trkpt>
      <trkpt lat="42.9804791277675" lon="-5.14499430545154">
        <ele>1196.5202293396</ele>
        <time>2018-08-28T07:12:57Z</time>
      </trkpt>
      <trkpt lat="42.980509470257" lon="-5.14507871121647">
        <ele>1200.20736312866</ele>
        <time>2018-08-28T07:12:59Z</time>
      </trkpt>
      <trkpt lat="42.9805356637044" lon="-5.14516110532465">
        <ele>1200.32418441772</ele>
        <time>2018-08-28T07:13:01Z</time>
      </trkpt>
      <trkpt lat="42.9805738013638" lon="-5.14523855410995">
        <ele>1200.82894515991</ele>
        <time>2018-08-28T07:13:03Z</time>
      </trkpt>
      <trkpt lat="42.9806237155972" lon="-5.14530778863015">
        <ele>1201.99129867554</ele>
        <time>2018-08-28T07:13:05Z</time>
      </trkpt>
      <trkpt lat="42.9806751385731" lon="-5.14536193572464">
        <ele>1204.25204086304</ele>
        <time>2018-08-28T07:13:07Z</time>
      </trkpt>
      <trkpt lat="42.9807292856676" lon="-5.1454086229253">
        <ele>1203.99923324585</ele>
        <time>2018-08-28T07:13:09Z</time>
      </trkpt>
      <trkpt lat="42.9807804571865" lon="-5.14544592239442">
        <ele>1200.65731430054</ele>
        <time>2018-08-28T07:13:11Z</time>
      </trkpt>
      <trkpt lat="42.9808223247928" lon="-5.1454868260819">
        <ele>1201.49996566772</ele>
        <time>2018-08-28T07:13:13Z</time>
      </trkpt>
      <trkpt lat="42.9808701016409" lon="-5.14553342946353">
        <ele>1202.38094711304</ele>
        <time>2018-08-28T07:13:15Z</time>
      </trkpt>
      <trkpt lat="42.9809159506513" lon="-5.1455745846081">
        <ele>1203.61227035522</ele>
        <time>2018-08-28T07:13:17Z</time>
      </trkpt>
      <trkpt lat="42.980964104685" lon="-5.14561590739074">
        <ele>1203.12679672241</ele>
        <time>2018-08-28T07:13:19Z</time>
      </trkpt>
      <trkpt lat="42.9810027452586" lon="-5.14565421268823">
        <ele>1203.07723617554</ele>
        <time>2018-08-28T07:13:21Z</time>
      </trkpt>
      <trkpt lat="42.9810441099508" lon="-5.14570475556436">
        <ele>1203.32149887085</ele>
        <time>2018-08-28T07:13:23Z</time>
      </trkpt>
      <trkpt lat="42.981089791323" lon="-5.14575865120175">
        <ele>1204.42977523804</ele>
        <time>2018-08-28T07:13:25Z</time>
      </trkpt>
      <trkpt lat="42.981139998923" lon="-5.14579729177537">
        <ele>1201.67928695679</ele>
        <time>2018-08-28T07:13:27Z</time>
      </trkpt>
      <trkpt lat="42.9811880272282" lon="-5.1458404585767">
        <ele>1201.7233543396</ele>
        <time>2018-08-28T07:13:29Z</time>
      </trkpt>
      <trkpt lat="42.9812376061855" lon="-5.14589804225149">
        <ele>1202.93050765991</ele>
        <time>2018-08-28T07:13:31Z</time>
      </trkpt>
      <trkpt lat="42.9812934296606" lon="-5.14595579356434">
        <ele>1202.9938621521</ele>
        <time>2018-08-28T07:13:33Z</time>
      </trkpt>
      <trkpt lat="42.9813381890235" lon="-5.14600734226885">
        <ele>1205.9674949646</ele>
        <time>2018-08-28T07:13:35Z</time>
      </trkpt>
      <trkpt lat="42.9813820682866" lon="-5.14605570585015">
        <ele>1207.55172348022</ele>
        <time>2018-08-28T07:13:37Z</time>
      </trkpt>
      <trkpt lat="42.9814372212095" lon="-5.14610272832694">
        <ele>1210.44027328491</ele>
        <time>2018-08-28T07:13:39Z</time>
      </trkpt>
      <trkpt lat="42.9814884346379" lon="-5.14613877051058">
        <ele>1210.38668441772</ele>
        <time>2018-08-28T07:13:41Z</time>
      </trkpt>
      <trkpt lat="42.9815340321911" lon="-5.14616576023879">
        <ele>1211.85982894897</ele>
        <time>2018-08-28T07:13:43Z</time>
      </trkpt>
      <trkpt lat="42.9815727565838" lon="-5.1461998745847">
        <ele>1211.21871566772</ele>
        <time>2018-08-28T07:13:45Z</time>
      </trkpt>
      <trkpt lat="42.9816135345427" lon="-5.14622954652193">
        <ele>1211.74544906616</ele>
        <time>2018-08-28T07:13:47Z</time>
      </trkpt>
      <trkpt lat="42.981661981943" lon="-5.14625536278369">
        <ele>1218.15548324585</ele>
        <time>2018-08-28T07:13:49Z</time>
      </trkpt>
      <trkpt lat="42.9817126086382" lon="-5.14627874829354">
        <ele>1217.45907211304</ele>
        <time>2018-08-28T07:13:51Z</time>
      </trkpt>
      <trkpt lat="42.9817539733303" lon="-5.14630766585949">
        <ele>1215.1520652771</ele>
        <time>2018-08-28T07:13:53Z</time>
      </trkpt>
      <trkpt lat="42.9817976430459" lon="-5.14633398503544">
        <ele>1215.23666000366</ele>
        <time>2018-08-28T07:13:55Z</time>
      </trkpt>
      <trkpt lat="42.9818473477317" lon="-5.14635561034563">
        <ele>1214.31563949585</ele>
        <time>2018-08-28T07:13:57Z</time>
      </trkpt>
      <trkpt lat="42.9818981839744" lon="-5.14638335444512">
        <ele>1214.05880355835</ele>
        <time>2018-08-28T07:13:59Z</time>
      </trkpt>
      <trkpt lat="42.981944703537" lon="-5.14641621150556">
        <ele>1213.47274398804</ele>
        <time>2018-08-28T07:14:01Z</time>
      </trkpt>
      <trkpt lat="42.981989546719" lon="-5.14645066112759">
        <ele>1215.72835922241</ele>
        <time>2018-08-28T07:14:03Z</time>
      </trkpt>
      <trkpt lat="42.9820348089961" lon="-5.14648276381674">
        <ele>1218.55807113647</ele>
        <time>2018-08-28T07:14:05Z</time>
      </trkpt>
      <trkpt lat="42.9820819152919" lon="-5.14650958590689">
        <ele>1217.7301902771</ele>
        <time>2018-08-28T07:14:07Z</time>
      </trkpt>
      <trkpt lat="42.9821275966642" lon="-5.14652073383811">
        <ele>1220.79159164429</ele>
        <time>2018-08-28T07:14:09Z</time>
      </trkpt>
      <trkpt lat="42.9821964539988" lon="-5.14650019817534">
        <ele>1222.97066879272</ele>
        <time>2018-08-28T07:14:12Z</time>
      </trkpt>
      <trkpt lat="42.9822493438078" lon="-5.14647136442843">
        <ele>1224.80892562866</ele>
        <time>2018-08-28T07:14:14Z</time>
      </trkpt>
      <trkpt lat="42.9823008086933" lon="-5.14644320123377">
        <ele>1224.53768539429</ele>
        <time>2018-08-28T07:14:16Z</time>
      </trkpt>
      <trkpt lat="42.9823483340843" lon="-5.14640766196432">
        <ele>1224.51217269897</ele>
        <time>2018-08-28T07:14:18Z</time>
      </trkpt>
      <trkpt lat="42.9823908722428" lon="-5.14636944048586">
        <ele>1224.91610336304</ele>
        <time>2018-08-28T07:14:20Z</time>
      </trkpt>
      <trkpt lat="42.9824343743203" lon="-5.14634186402442">
        <ele>1224.48373031616</ele>
        <time>2018-08-28T07:14:22Z</time>
      </trkpt>
      <trkpt lat="42.9824794270499" lon="-5.14631990343812">
        <ele>1222.17098617554</ele>
        <time>2018-08-28T07:14:24Z</time>
      </trkpt>
      <trkpt lat="42.9825193668185" lon="-5.14628696255865">
        <ele>1224.66207504272</ele>
        <time>2018-08-28T07:14:26Z</time>
      </trkpt>
      <trkpt lat="42.9825608991487" lon="-5.14626097865882">
        <ele>1223.74801254272</ele>
        <time>2018-08-28T07:14:28Z</time>
      </trkpt>
      <trkpt lat="42.9826045688642" lon="-5.14624170028153">
        <ele>1224.25973129272</ele>
        <time>2018-08-28T07:14:30Z</time>
      </trkpt>
      <trkpt lat="42.9826592188729" lon="-5.14622057788553">
        <ele>1223.23592758179</ele>
        <time>2018-08-28T07:14:32Z</time>
      </trkpt>
      <trkpt lat="42.9827060737116" lon="-5.14620205387952">
        <ele>1226.0866355896</ele>
        <time>2018-08-28T07:14:34Z</time>
      </trkpt>
      <trkpt lat="42.9827547306595" lon="-5.14619233087184">
        <ele>1226.2135887146</ele>
        <time>2018-08-28T07:14:36Z</time>
      </trkpt>
      <trkpt lat="42.9828136135293" lon="-5.14617179520907">
        <ele>1225.98446273804</ele>
        <time>2018-08-28T07:14:39Z</time>
      </trkpt>
      <trkpt lat="42.9828677187143" lon="-5.14615092427018">
        <ele>1224.4079246521</ele>
        <time>2018-08-28T07:14:42Z</time>
      </trkpt>
      <trkpt lat="42.9829266015841" lon="-5.14619928785148">
        <ele>1227.23495101929</ele>
        <time>2018-08-28T07:14:45Z</time>
      </trkpt>
      <trkpt lat="42.9829484783513" lon="-5.14627841301742">
        <ele>1230.33736801147</ele>
        <time>2018-08-28T07:14:47Z</time>
      </trkpt>
      <trkpt lat="42.9829571536211" lon="-5.14635401778402">
        <ele>1233.51583480835</ele>
        <time>2018-08-28T07:14:49Z</time>
      </trkpt>
      <trkpt lat="42.9829657450719" lon="-5.14643523842576">
        <ele>1233.68221664429</ele>
        <time>2018-08-28T07:14:51Z</time>
      </trkpt>
      <trkpt lat="42.9829683853714" lon="-5.14652023092392">
        <ele>1232.64486312866</ele>
        <time>2018-08-28T07:14:53Z</time>
      </trkpt>
      <trkpt lat="42.9829830537019" lon="-5.14659583569052">
        <ele>1233.10836410522</ele>
        <time>2018-08-28T07:14:55Z</time>
      </trkpt>
      <trkpt lat="42.9830235802037" lon="-5.14665828086915">
        <ele>1234.7487449646</ele>
        <time>2018-08-28T07:14:57Z</time>
      </trkpt>
      <trkpt lat="42.9830742488084" lon="-5.14670957811656">
        <ele>1238.15951156616</ele>
        <time>2018-08-28T07:14:59Z</time>
      </trkpt>
      <trkpt lat="42.9831230733944" lon="-5.14675308019402">
        <ele>1238.73678207397</ele>
        <time>2018-08-28T07:15:01Z</time>
      </trkpt>
      <trkpt lat="42.9831722332565" lon="-5.14679306187215">
        <ele>1239.10409164429</ele>
        <time>2018-08-28T07:15:03Z</time>
      </trkpt>
      <trkpt lat="42.9832213931186" lon="-5.14683237299802">
        <ele>1240.95418930054</ele>
        <time>2018-08-28T07:15:05Z</time>
      </trkpt>
      <trkpt lat="42.9832611652491" lon="-5.14686925337198">
        <ele>1241.93990707397</ele>
        <time>2018-08-28T07:15:07Z</time>
      </trkpt>
      <trkpt lat="42.9833120434014" lon="-5.1468907110441">
        <ele>1243.24337387085</ele>
        <time>2018-08-28T07:15:11Z</time>
      </trkpt>
      <trkpt lat="42.9832664877577" lon="-5.14684963971856">
        <ele>1233.66109848022</ele>
        <time>2018-08-28T07:16:22Z</time>
      </trkpt>
      <trkpt lat="42.9832254164321" lon="-5.14681820758166">
        <ele>1233.07052230835</ele>
        <time>2018-08-28T07:16:24Z</time>
      </trkpt>
      <trkpt lat="42.983176172751" lon="-5.14677747153225">
        <ele>1231.87301254272</ele>
        <time>2018-08-28T07:16:26Z</time>
      </trkpt>
      <trkpt lat="42.9831089498876" lon="-5.14671586454394">
        <ele>1232.13460922241</ele>
        <time>2018-08-28T07:16:28Z</time>
      </trkpt>
      <trkpt lat="42.9830411402909" lon="-5.14663531445446">
        <ele>1232.02889633179</ele>
        <time>2018-08-28T07:16:30Z</time>
      </trkpt>
      <trkpt lat="42.9830099596111" lon="-5.14658829197767">
        <ele>1232.16646957397</ele>
        <time>2018-08-28T07:16:31Z</time>
      </trkpt>
      <trkpt lat="42.9829789046598" lon="-5.14653406106415">
        <ele>1231.32796859741</ele>
        <time>2018-08-28T07:16:32Z</time>
      </trkpt>
      <trkpt lat="42.9829521663887" lon="-5.14647136442843">
        <ele>1230.92281723022</ele>
        <time>2018-08-28T07:16:33Z</time>
      </trkpt>
      <trkpt lat="42.9829510767413" lon="-5.14637187123778">
        <ele>1231.32821273804</ele>
        <time>2018-08-28T07:16:34Z</time>
      </trkpt>
      <trkpt lat="42.982944957952" lon="-5.14627807774129">
        <ele>1231.01778793335</ele>
        <time>2018-08-28T07:16:35Z</time>
      </trkpt>
      <trkpt lat="42.9829320917306" lon="-5.14618713409188">
        <ele>1230.8102684021</ele>
        <time>2018-08-28T07:16:36Z</time>
      </trkpt>
      <trkpt lat="42.9829189321427" lon="-5.14608864672961">
        <ele>1230.62264633179</ele>
        <time>2018-08-28T07:16:37Z</time>
      </trkpt>
      <trkpt lat="42.9829043476311" lon="-5.14599418268087">
        <ele>1231.17086410522</ele>
        <time>2018-08-28T07:16:38Z</time>
      </trkpt>
      <trkpt lat="42.9828838957874" lon="-5.14590139501276">
        <ele>1230.97372055054</ele>
        <time>2018-08-28T07:16:39Z</time>
      </trkpt>
      <trkpt lat="42.9828583309827" lon="-5.14582989737871">
        <ele>1231.0729637146</ele>
        <time>2018-08-28T07:16:40Z</time>
      </trkpt>
      <trkpt lat="42.9828159185527" lon="-5.14576837420943">
        <ele>1231.33309555054</ele>
        <time>2018-08-28T07:16:41Z</time>
      </trkpt>
      <trkpt lat="42.9827817622973" lon="-5.1457281410742">
        <ele>1231.02340316772</ele>
        <time>2018-08-28T07:16:42Z</time>
      </trkpt>
      <trkpt lat="42.9827209096802" lon="-5.14569511637571">
        <ele>1231.04916000366</ele>
        <time>2018-08-28T07:16:43Z</time>
      </trkpt>
      <trkpt lat="42.9826635774625" lon="-5.14568564482512">
        <ele>1231.16634750366</ele>
        <time>2018-08-28T07:16:44Z</time>
      </trkpt>
      <trkpt lat="42.9825550318165" lon="-5.14566008002045">
        <ele>1231.24056625366</ele>
        <time>2018-08-28T07:16:46Z</time>
      </trkpt>
      <trkpt lat="42.9824922932712" lon="-5.14564390294733">
        <ele>1231.21200180054</ele>
        <time>2018-08-28T07:16:47Z</time>
      </trkpt>
      <trkpt lat="42.9824340390442" lon="-5.14562127180877">
        <ele>1231.03731918335</ele>
        <time>2018-08-28T07:16:48Z</time>
      </trkpt>
      <trkpt lat="42.9824122880054" lon="-5.1455555576879">
        <ele>1231.30721664429</ele>
        <time>2018-08-28T07:16:49Z</time>
      </trkpt>
      <trkpt lat="42.9823894892288" lon="-5.14549747109892">
        <ele>1230.98360824585</ele>
        <time>2018-08-28T07:16:50Z</time>
      </trkpt>
      <trkpt lat="42.9823497590078" lon="-5.14544013888123">
        <ele>1231.19100570679</ele>
        <time>2018-08-28T07:16:51Z</time>
      </trkpt>
      <trkpt lat="42.9823141359193" lon="-5.14538783580544">
        <ele>1231.34481430054</ele>
        <time>2018-08-28T07:16:52Z</time>
      </trkpt>
      <trkpt lat="42.9822756210742" lon="-5.14535472728791">
        <ele>1230.75399398804</ele>
        <time>2018-08-28T07:16:53Z</time>
      </trkpt>
      <trkpt lat="42.9822459910465" lon="-5.14530678280177">
        <ele>1231.01681137085</ele>
        <time>2018-08-28T07:16:54Z</time>
      </trkpt>
      <trkpt lat="42.9822039138926" lon="-5.145257161935">
        <ele>1231.48470687866</ele>
        <time>2018-08-28T07:16:55Z</time>
      </trkpt>
      <trkpt lat="42.9821628006575" lon="-5.14519689605119">
        <ele>1231.05013656616</ele>
        <time>2018-08-28T07:16:56Z</time>
      </trkpt>
      <trkpt lat="42.9821147723524" lon="-5.14515263960245">
        <ele>1230.77718734741</ele>
        <time>2018-08-28T07:16:57Z</time>
      </trkpt>
      <trkpt lat="42.9820656963093" lon="-5.1451168488759">
        <ele>1230.70565414429</ele>
        <time>2018-08-28T07:16:58Z</time>
      </trkpt>
      <trkpt lat="42.9820286902068" lon="-5.14505641535404">
        <ele>1230.87911605835</ele>
        <time>2018-08-28T07:16:59Z</time>
      </trkpt>
      <trkpt lat="42.9819948692275" lon="-5.14500444755437">
        <ele>1230.8131980896</ele>
        <time>2018-08-28T07:17:00Z</time>
      </trkpt>
      <trkpt lat="42.9819371179146" lon="-5.14488860965254">
        <ele>1231.09859848022</ele>
        <time>2018-08-28T07:17:02Z</time>
      </trkpt>
      <trkpt lat="42.9818885028763" lon="-5.14477084391298">
        <ele>1232.14010238647</ele>
        <time>2018-08-28T07:17:04Z</time>
      </trkpt>
      <trkpt lat="42.9818710266081" lon="-5.14466917142751">
        <ele>1233.09872055054</ele>
        <time>2018-08-28T07:17:06Z</time>
      </trkpt>
      <trkpt lat="42.9818630218906" lon="-5.1445901300806">
        <ele>1233.14217758179</ele>
        <time>2018-08-28T07:17:07Z</time>
      </trkpt>
      <trkpt lat="42.9818521254165" lon="-5.14452952892067">
        <ele>1233.07381820679</ele>
        <time>2018-08-28T07:17:08Z</time>
      </trkpt>
      <trkpt lat="42.9818567773727" lon="-5.1444019563544">
        <ele>1231.20199203491</ele>
        <time>2018-08-28T07:17:10Z</time>
      </trkpt>
      <trkpt lat="42.9818647401808" lon="-5.14433364384355">
        <ele>1230.79415512085</ele>
        <time>2018-08-28T07:17:11Z</time>
      </trkpt>
      <trkpt lat="42.9818797018779" lon="-5.14426097274306">
        <ele>1230.94637680054</ele>
        <time>2018-08-28T07:17:12Z</time>
      </trkpt>
      <trkpt lat="42.9818955855844" lon="-5.1441791653681">
        <ele>1231.72201156616</ele>
        <time>2018-08-28T07:17:13Z</time>
      </trkpt>
      <trkpt lat="42.9819069849727" lon="-5.14410565607729">
        <ele>1231.72494125366</ele>
        <time>2018-08-28T07:17:14Z</time>
      </trkpt>
      <trkpt lat="42.9819158278806" lon="-5.14404430054607">
        <ele>1231.65243148804</ele>
        <time>2018-08-28T07:17:15Z</time>
      </trkpt>
      <trkpt lat="42.9819380818335" lon="-5.14396928251269">
        <ele>1231.46786117554</ele>
        <time>2018-08-28T07:17:16Z</time>
      </trkpt>
      <trkpt lat="42.9819607548816" lon="-5.14391094446661">
        <ele>1230.75509262085</ele>
        <time>2018-08-28T07:17:17Z</time>
      </trkpt>
      <trkpt lat="42.9820186738325" lon="-5.14381354675176">
        <ele>1230.17538070679</ele>
        <time>2018-08-28T07:17:19Z</time>
      </trkpt>
      <trkpt lat="42.9820633912859" lon="-5.14370759949567">
        <ele>1231.18575668335</ele>
        <time>2018-08-28T07:17:21Z</time>
      </trkpt>
      <trkpt lat="42.9820519499881" lon="-5.14361112379017">
        <ele>1231.00973129272</ele>
        <time>2018-08-28T07:17:23Z</time>
      </trkpt>
      <trkpt lat="42.9820680432422" lon="-5.14351163059952">
        <ele>1231.09273910522</ele>
        <time>2018-08-28T07:17:25Z</time>
      </trkpt>
      <trkpt lat="42.9820533749116" lon="-5.14341129921856">
        <ele>1230.8669090271</ele>
        <time>2018-08-28T07:17:27Z</time>
      </trkpt>
      <trkpt lat="42.9820407182379" lon="-5.1432948745835">
        <ele>1229.83333969116</ele>
        <time>2018-08-28T07:17:29Z</time>
      </trkpt>
      <trkpt lat="42.9820294864876" lon="-5.14322069474044">
        <ele>1229.6667137146</ele>
        <time>2018-08-28T07:17:30Z</time>
      </trkpt>
      <trkpt lat="42.9820219008652" lon="-5.14315950684728">
        <ele>1230.04891586304</ele>
        <time>2018-08-28T07:17:31Z</time>
      </trkpt>
      <trkpt lat="42.982013267505" lon="-5.1430808007765">
        <ele>1229.59530258179</ele>
        <time>2018-08-28T07:17:32Z</time>
      </trkpt>
      <trkpt lat="42.9819992278172" lon="-5.14301047660889">
        <ele>1229.32748031616</ele>
        <time>2018-08-28T07:17:33Z</time>
      </trkpt>
      <trkpt lat="42.981990762095" lon="-5.14294727705898">
        <ele>1229.53499984741</ele>
        <time>2018-08-28T07:17:34Z</time>
      </trkpt>
      <trkpt lat="42.9819926899327" lon="-5.14287904836716">
        <ele>1230.88851547241</ele>
        <time>2018-08-28T07:17:35Z</time>
      </trkpt>
      <trkpt lat="42.9819835117487" lon="-5.14275616966667">
        <ele>1230.9655418396</ele>
        <time>2018-08-28T07:17:37Z</time>
      </trkpt>
      <trkpt lat="42.9819866549624" lon="-5.14268483967068">
        <ele>1231.36959457397</ele>
        <time>2018-08-28T07:17:38Z</time>
      </trkpt>
      <trkpt lat="42.981998892541" lon="-5.14261057600858">
        <ele>1231.54513168335</ele>
        <time>2018-08-28T07:17:39Z</time>
      </trkpt>
      <trkpt lat="42.9820044245971" lon="-5.14254000038387">
        <ele>1231.58980941772</ele>
        <time>2018-08-28T07:17:40Z</time>
      </trkpt>
      <trkpt lat="42.9820061428873" lon="-5.14247629791977">
        <ele>1231.37350082397</ele>
        <time>2018-08-28T07:17:41Z</time>
      </trkpt>
      <trkpt lat="42.9820171650899" lon="-5.14241326600792">
        <ele>1231.4704246521</ele>
        <time>2018-08-28T07:17:42Z</time>
      </trkpt>
      <trkpt lat="42.9820286902068" lon="-5.14234813862028">
        <ele>1232.38387680054</ele>
        <time>2018-08-28T07:17:43Z</time>
      </trkpt>
      <trkpt lat="42.9820480943126" lon="-5.14229097404065">
        <ele>1232.9538230896</ele>
        <time>2018-08-28T07:17:44Z</time>
      </trkpt>
      <trkpt lat="42.9820597032485" lon="-5.14218242839458">
        <ele>1233.37533187866</ele>
        <time>2018-08-28T07:17:46Z</time>
      </trkpt>
      <trkpt lat="42.9820672469614" lon="-5.14207530767204">
        <ele>1233.9430809021</ele>
        <time>2018-08-28T07:17:48Z</time>
      </trkpt>
      <trkpt lat="42.9820834240345" lon="-5.14201529324534">
        <ele>1233.89266586304</ele>
        <time>2018-08-28T07:17:49Z</time>
      </trkpt>
      <trkpt lat="42.9821023671357" lon="-5.14190272428574">
        <ele>1234.45589828491</ele>
        <time>2018-08-28T07:17:51Z</time>
      </trkpt>
      <trkpt lat="42.9821109585864" lon="-5.14177992940428">
        <ele>1234.59408187866</ele>
        <time>2018-08-28T07:17:53Z</time>
      </trkpt>
      <trkpt lat="42.9821102880342" lon="-5.14167456888141">
        <ele>1234.56344223022</ele>
        <time>2018-08-28T07:17:55Z</time>
      </trkpt>
      <trkpt lat="42.9821016965834" lon="-5.14156208374085">
        <ele>1234.75436019897</ele>
        <time>2018-08-28T07:17:57Z</time>
      </trkpt>
      <trkpt lat="42.9820891656382" lon="-5.14145479538025">
        <ele>1234.30062484741</ele>
        <time>2018-08-28T07:17:59Z</time>
      </trkpt>
      <trkpt lat="42.9820750421313" lon="-5.14134800993385">
        <ele>1235.28207015991</ele>
        <time>2018-08-28T07:18:01Z</time>
      </trkpt>
      <trkpt lat="42.9820646066619" lon="-5.14123954810681">
        <ele>1236.05208969116</ele>
        <time>2018-08-28T07:18:03Z</time>
      </trkpt>
      <trkpt lat="42.9820626369146" lon="-5.14111851342501">
        <ele>1236.86019515991</ele>
        <time>2018-08-28T07:18:05Z</time>
      </trkpt>
      <trkpt lat="42.9820528719975" lon="-5.14104860835256">
        <ele>1237.12093734741</ele>
        <time>2018-08-28T07:18:06Z</time>
      </trkpt>
      <trkpt lat="42.9820473818509" lon="-5.14097937383236">
        <ele>1237.27975082397</ele>
        <time>2018-08-28T07:18:07Z</time>
      </trkpt>
      <trkpt lat="42.9820458731083" lon="-5.1409049425322">
        <ele>1236.8766746521</ele>
        <time>2018-08-28T07:18:08Z</time>
      </trkpt>
      <trkpt lat="42.9820460407464" lon="-5.1408306788701">
        <ele>1236.42708969116</ele>
        <time>2018-08-28T07:18:09Z</time>
      </trkpt>
      <trkpt lat="42.9820375331146" lon="-5.14074761420967">
        <ele>1236.24789047241</ele>
        <time>2018-08-28T07:18:10Z</time>
      </trkpt>
      <trkpt lat="42.9820331326155" lon="-5.14065256342771">
        <ele>1236.7477684021</ele>
        <time>2018-08-28T07:18:11Z</time>
      </trkpt>
      <trkpt lat="42.9820315819634" lon="-5.14055776410284">
        <ele>1238.16390609741</ele>
        <time>2018-08-28T07:18:12Z</time>
      </trkpt>
      <trkpt lat="42.9820340127153" lon="-5.14047025703372">
        <ele>1238.08614730835</ele>
        <time>2018-08-28T07:18:13Z</time>
      </trkpt>
      <trkpt lat="42.9820408858759" lon="-5.14038342051687">
        <ele>1237.52328109741</ele>
        <time>2018-08-28T07:18:14Z</time>
      </trkpt>
      <trkpt lat="42.9820442805467" lon="-5.14030270278933">
        <ele>1237.45980453491</ele>
        <time>2018-08-28T07:18:15Z</time>
      </trkpt>
      <trkpt lat="42.9820527043594" lon="-5.14022525400402">
        <ele>1237.82870101929</ele>
        <time>2018-08-28T07:18:16Z</time>
      </trkpt>
      <trkpt lat="42.9820616310863" lon="-5.1401416864294">
        <ele>1236.72811508179</ele>
        <time>2018-08-28T07:18:17Z</time>
      </trkpt>
      <trkpt lat="42.9820719827367" lon="-5.14005996287348">
        <ele>1237.08773422241</ele>
        <time>2018-08-28T07:18:18Z</time>
      </trkpt>
      <trkpt lat="42.9820780596165" lon="-5.13998134062173">
        <ele>1237.30306625366</ele>
        <time>2018-08-28T07:18:19Z</time>
      </trkpt>
      <trkpt lat="42.982078101526" lon="-5.13991076499702">
        <ele>1236.41463851929</ele>
        <time>2018-08-28T07:18:20Z</time>
      </trkpt>
      <trkpt lat="42.9820791073544" lon="-5.13983809389653">
        <ele>1235.85445785522</ele>
        <time>2018-08-28T07:18:21Z</time>
      </trkpt>
      <trkpt lat="42.9820796102686" lon="-5.13977103867115">
        <ele>1237.11410140991</ele>
        <time>2018-08-28T07:18:22Z</time>
      </trkpt>
      <trkpt lat="42.9820748744933" lon="-5.13969643973293">
        <ele>1236.60653305054</ele>
        <time>2018-08-28T07:18:23Z</time>
      </trkpt>
      <trkpt lat="42.9820784787116" lon="-5.13962301426114">
        <ele>1235.71017074585</ele>
        <time>2018-08-28T07:18:24Z</time>
      </trkpt>
      <trkpt lat="42.9820858547864" lon="-5.13954581693293">
        <ele>1235.34066390991</ele>
        <time>2018-08-28T07:18:25Z</time>
      </trkpt>
      <trkpt lat="42.9820838431297" lon="-5.13946769759538">
        <ele>1234.89339828491</ele>
        <time>2018-08-28T07:18:26Z</time>
      </trkpt>
      <trkpt lat="42.9820850585056" lon="-5.13939636759939">
        <ele>1234.10396957397</ele>
        <time>2018-08-28T07:18:27Z</time>
      </trkpt>
      <trkpt lat="42.9820905067427" lon="-5.13932688162209">
        <ele>1233.47408676147</ele>
        <time>2018-08-28T07:18:28Z</time>
      </trkpt>
      <trkpt lat="42.9821015289454" lon="-5.13926552609088">
        <ele>1233.65548324585</ele>
        <time>2018-08-28T07:18:29Z</time>
      </trkpt>
      <trkpt lat="42.9821217712415" lon="-5.13920123689355">
        <ele>1233.96371078491</ele>
        <time>2018-08-28T07:18:30Z</time>
      </trkpt>
      <trkpt lat="42.9821389122335" lon="-5.13913761824848">
        <ele>1234.94491195679</ele>
        <time>2018-08-28T07:18:31Z</time>
      </trkpt>
      <trkpt lat="42.982158777344" lon="-5.13907676563145">
        <ele>1233.42208480835</ele>
        <time>2018-08-28T07:18:32Z</time>
      </trkpt>
      <trkpt lat="42.9821814923016" lon="-5.13895464130225">
        <ele>1232.59774398804</ele>
        <time>2018-08-28T07:18:34Z</time>
      </trkpt>
      <trkpt lat="42.9821899161143" lon="-5.13889202848555">
        <ele>1232.94881820679</ele>
        <time>2018-08-28T07:18:35Z</time>
      </trkpt>
      <trkpt lat="42.9822098231343" lon="-5.13878490776302">
        <ele>1232.43111801147</ele>
        <time>2018-08-28T07:18:37Z</time>
      </trkpt>
      <trkpt lat="42.9822285147784" lon="-5.13867275789859">
        <ele>1231.55379867554</ele>
        <time>2018-08-28T07:18:39Z</time>
      </trkpt>
      <trkpt lat="42.9822438117517" lon="-5.13860243373098">
        <ele>1231.65316390991</ele>
        <time>2018-08-28T07:18:40Z</time>
      </trkpt>
      <trkpt lat="42.982265772338" lon="-5.13853152283015">
        <ele>1230.98141098022</ele>
        <time>2018-08-28T07:18:41Z</time>
      </trkpt>
      <trkpt lat="42.9822912533237" lon="-5.13846186921479">
        <ele>1230.48141098022</ele>
        <time>2018-08-28T07:18:42Z</time>
      </trkpt>
      <trkpt lat="42.9823233141033" lon="-5.13839799911262">
        <ele>1229.89242172241</ele>
        <time>2018-08-28T07:18:43Z</time>
      </trkpt>
      <trkpt lat="42.9823591467393" lon="-5.1383268367547">
        <ele>1229.01644515991</ele>
        <time>2018-08-28T07:18:44Z</time>
      </trkpt>
      <trkpt lat="42.9824070074065" lon="-5.13826841488959">
        <ele>1228.90670394897</ele>
        <time>2018-08-28T07:18:45Z</time>
      </trkpt>
      <trkpt lat="42.9824564187256" lon="-5.13820638880612">
        <ele>1228.89632797241</ele>
        <time>2018-08-28T07:18:46Z</time>
      </trkpt>
      <trkpt lat="42.9825044889403" lon="-5.13814017177107">
        <ele>1228.49129867554</ele>
        <time>2018-08-28T07:18:47Z</time>
      </trkpt>
      <trkpt lat="42.9825502960412" lon="-5.13808325864853">
        <ele>1228.83602523804</ele>
        <time>2018-08-28T07:18:48Z</time>
      </trkpt>
      <trkpt lat="42.9825940495757" lon="-5.13802215457441">
        <ele>1228.87923812866</ele>
        <time>2018-08-28T07:18:49Z</time>
      </trkpt>
      <trkpt lat="42.9826428322522" lon="-5.137965576728">
        <ele>1228.7233543396</ele>
        <time>2018-08-28T07:18:50Z</time>
      </trkpt>
      <trkpt lat="42.9826934589473" lon="-5.13791411184253">
        <ele>1229.85372543335</ele>
        <time>2018-08-28T07:18:51Z</time>
      </trkpt>
      <trkpt lat="42.9827446304662" lon="-5.13787806965889">
        <ele>1230.83907699585</ele>
        <time>2018-08-28T07:18:52Z</time>
      </trkpt>
      <trkpt lat="42.9828095483063" lon="-5.13780137524487">
        <ele>1230.41402816772</ele>
        <time>2018-08-28T07:18:54Z</time>
      </trkpt>
      <trkpt lat="42.9828527570171" lon="-5.13775628060581">
        <ele>1231.45541000366</ele>
        <time>2018-08-28T07:18:55Z</time>
      </trkpt>
      <trkpt lat="42.9828892602054" lon="-5.13769676909329">
        <ele>1232.09273910522</ele>
        <time>2018-08-28T07:18:56Z</time>
      </trkpt>
      <trkpt lat="42.9829245061083" lon="-5.13762937859179">
        <ele>1232.44295883179</ele>
        <time>2018-08-28T07:18:57Z</time>
      </trkpt>
      <trkpt lat="42.9829522921173" lon="-5.13755897060515">
        <ele>1233.77767562866</ele>
        <time>2018-08-28T07:18:58Z</time>
      </trkpt>
      <trkpt lat="42.9829786112932" lon="-5.13749727979781">
        <ele>1234.84969711304</ele>
        <time>2018-08-28T07:18:59Z</time>
      </trkpt>
      <trkpt lat="42.9830043018265" lon="-5.13743366115274">
        <ele>1235.25826644897</ele>
        <time>2018-08-28T07:19:00Z</time>
      </trkpt>
      <trkpt lat="42.9830486001847" lon="-5.13731455430867">
        <ele>1235.08773422241</ele>
        <time>2018-08-28T07:19:02Z</time>
      </trkpt>
      <trkpt lat="42.9830990173323" lon="-5.1372303161818">
        <ele>1233.18294906616</ele>
        <time>2018-08-28T07:19:04Z</time>
      </trkpt>
      <trkpt lat="42.9831364006204" lon="-5.13713107444824">
        <ele>1231.84005355835</ele>
        <time>2018-08-28T07:19:06Z</time>
      </trkpt>
      <trkpt lat="42.9831744963704" lon="-5.13702361844958">
        <ele>1233.00399398804</ele>
        <time>2018-08-28T07:19:08Z</time>
      </trkpt>
      <trkpt lat="42.9832041263981" lon="-5.13691507280351">
        <ele>1233.10348129272</ele>
        <time>2018-08-28T07:19:10Z</time>
      </trkpt>
      <trkpt lat="42.9831927689193" lon="-5.1367931999314">
        <ele>1232.39754867554</ele>
        <time>2018-08-28T07:19:12Z</time>
      </trkpt>
      <trkpt lat="42.9831843451066" lon="-5.13671818189801">
        <ele>1232.0446434021</ele>
        <time>2018-08-28T07:19:13Z</time>
      </trkpt>
      <trkpt lat="42.9831742030037" lon="-5.13664366677882">
        <ele>1231.58065414429</ele>
        <time>2018-08-28T07:19:14Z</time>
      </trkpt>
      <trkpt lat="42.9831746220989" lon="-5.13656294905128">
        <ele>1230.90621566772</ele>
        <time>2018-08-28T07:19:15Z</time>
      </trkpt>
      <trkpt lat="42.9831757117463" lon="-5.13648063876213">
        <ele>1231.19832992554</ele>
        <time>2018-08-28T07:19:16Z</time>
      </trkpt>
      <trkpt lat="42.9831729876278" lon="-5.13640201651038">
        <ele>1229.5241355896</ele>
        <time>2018-08-28T07:19:17Z</time>
      </trkpt>
      <trkpt lat="42.9831789806885" lon="-5.13631476089837">
        <ele>1230.01681137085</ele>
        <time>2018-08-28T07:19:18Z</time>
      </trkpt>
      <trkpt lat="42.9831783939553" lon="-5.13623136096181">
        <ele>1229.82479476929</ele>
        <time>2018-08-28T07:19:19Z</time>
      </trkpt>
      <trkpt lat="42.9831770947603" lon="-5.13614594936849">
        <ele>1230.24422836304</ele>
        <time>2018-08-28T07:19:20Z</time>
      </trkpt>
      <trkpt lat="42.9831824591784" lon="-5.13605995104195">
        <ele>1231.03853988647</ele>
        <time>2018-08-28T07:19:21Z</time>
      </trkpt>
      <trkpt lat="42.9831890389724" lon="-5.1359744556296">
        <ele>1230.16683578491</ele>
        <time>2018-08-28T07:19:22Z</time>
      </trkpt>
      <trkpt lat="42.983192098367" lon="-5.13588720001759">
        <ele>1230.77669906616</ele>
        <time>2018-08-28T07:19:23Z</time>
      </trkpt>
      <trkpt lat="42.983194780576" lon="-5.13580463827135">
        <ele>1230.80404281616</ele>
        <time>2018-08-28T07:19:24Z</time>
      </trkpt>
      <trkpt lat="42.9831966665042" lon="-5.13571444899322">
        <ele>1230.1901512146</ele>
        <time>2018-08-28T07:19:25Z</time>
      </trkpt>
      <trkpt lat="42.9831990553466" lon="-5.135634569456">
        <ele>1229.43868637085</ele>
        <time>2018-08-28T07:19:26Z</time>
      </trkpt>
      <trkpt lat="42.9832075210688" lon="-5.13555209152879">
        <ele>1229.37752914429</ele>
        <time>2018-08-28T07:19:27Z</time>
      </trkpt>
      <trkpt lat="42.9832150647817" lon="-5.13546852395417">
        <ele>1229.3932762146</ele>
        <time>2018-08-28T07:19:28Z</time>
      </trkpt>
      <trkpt lat="42.9832275119079" lon="-5.13538294472279">
        <ele>1229.57662582397</ele>
        <time>2018-08-28T07:19:29Z</time>
      </trkpt>
      <trkpt lat="42.9832371510966" lon="-5.13529594056787">
        <ele>1229.81991195679</ele>
        <time>2018-08-28T07:19:30Z</time>
      </trkpt>
      <trkpt lat="42.9832424316956" lon="-5.13520583510877">
        <ele>1230.67501449585</ele>
        <time>2018-08-28T07:19:31Z</time>
      </trkpt>
      <trkpt lat="42.9832364386348" lon="-5.13511899859191">
        <ele>1229.8454246521</ele>
        <time>2018-08-28T07:19:32Z</time>
      </trkpt>
      <trkpt lat="42.9832267156271" lon="-5.13502084650577">
        <ele>1229.84273910522</ele>
        <time>2018-08-28T07:19:33Z</time>
      </trkpt>
      <trkpt lat="42.9832068924261" lon="-5.13492939994217">
        <ele>1229.16134262085</ele>
        <time>2018-08-28T07:19:34Z</time>
      </trkpt>
      <trkpt lat="42.9831798607884" lon="-5.13485077769042">
        <ele>1229.44808578491</ele>
        <time>2018-08-28T07:19:35Z</time>
      </trkpt>
      <trkpt lat="42.9831480514658" lon="-5.13478263281764">
        <ele>1229.16427230835</ele>
        <time>2018-08-28T07:19:36Z</time>
      </trkpt>
      <trkpt lat="42.9831195529951" lon="-5.13471264392616">
        <ele>1229.0514793396</ele>
        <time>2018-08-28T07:19:37Z</time>
      </trkpt>
      <trkpt lat="42.9830997297941" lon="-5.13463502750279">
        <ele>1231.17501449585</ele>
        <time>2018-08-28T07:19:38Z</time>
      </trkpt>
      <trkpt lat="42.983082337345" lon="-5.13455590233685">
        <ele>1231.30111312866</ele>
        <time>2018-08-28T07:19:39Z</time>
      </trkpt>
      <trkpt lat="42.9830693453951" lon="-5.13448297977926">
        <ele>1230.25924301147</ele>
        <time>2018-08-28T07:19:40Z</time>
      </trkpt>
      <trkpt lat="42.9830435291333" lon="-5.13440527953686">
        <ele>1228.54818344116</ele>
        <time>2018-08-28T07:19:41Z</time>
      </trkpt>
      <trkpt lat="42.9830243764846" lon="-5.13432246633352">
        <ele>1227.82796859741</ele>
        <time>2018-08-28T07:19:42Z</time>
      </trkpt>
      <trkpt lat="42.9830032959981" lon="-5.13423110358895">
        <ele>1227.36544418335</ele>
        <time>2018-08-28T07:19:43Z</time>
      </trkpt>
      <trkpt lat="42.9829718219517" lon="-5.13415348716558">
        <ele>1226.57076644897</ele>
        <time>2018-08-28T07:19:44Z</time>
      </trkpt>
      <trkpt lat="42.9829437006665" lon="-5.13406799175323">
        <ele>1225.32332992554</ele>
        <time>2018-08-28T07:19:45Z</time>
      </trkpt>
      <trkpt lat="42.9829172138525" lon="-5.13398400508345">
        <ele>1223.95492172241</ele>
        <time>2018-08-28T07:19:46Z</time>
      </trkpt>
      <trkpt lat="42.9828931158809" lon="-5.13389515690984">
        <ele>1223.70650863647</ele>
        <time>2018-08-28T07:19:47Z</time>
      </trkpt>
      <trkpt lat="42.9828689759998" lon="-5.13380882330717">
        <ele>1223.00570297241</ele>
        <time>2018-08-28T07:19:48Z</time>
      </trkpt>
      <trkpt lat="42.9828454228518" lon="-5.13371360488714">
        <ele>1222.49666976929</ele>
        <time>2018-08-28T07:19:49Z</time>
      </trkpt>
      <trkpt lat="42.9828325566305" lon="-5.13362182304741">
        <ele>1221.80721664429</ele>
        <time>2018-08-28T07:19:50Z</time>
      </trkpt>
      <trkpt lat="42.9828163376478" lon="-5.13353641145409">
        <ele>1221.10897445679</ele>
        <time>2018-08-28T07:19:51Z</time>
      </trkpt>
      <trkpt lat="42.9827949637947" lon="-5.13346063904942">
        <ele>1220.72445297241</ele>
        <time>2018-08-28T07:19:52Z</time>
      </trkpt>
      <trkpt lat="42.9827777808932" lon="-5.1333805080551">
        <ele>1220.40047836304</ele>
        <time>2018-08-28T07:19:53Z</time>
      </trkpt>
      <trkpt lat="42.9827632382912" lon="-5.13330431655527">
        <ele>1219.19124984741</ele>
        <time>2018-08-28T07:19:54Z</time>
      </trkpt>
      <trkpt lat="42.9827560298545" lon="-5.13322795741738">
        <ele>1218.68856430054</ele>
        <time>2018-08-28T07:19:55Z</time>
      </trkpt>
      <trkpt lat="42.9827436246378" lon="-5.13315277174593">
        <ele>1218.7165184021</ele>
        <time>2018-08-28T07:19:56Z</time>
      </trkpt>
      <trkpt lat="42.9827303812308" lon="-5.13308437541605">
        <ele>1218.58016586304</ele>
        <time>2018-08-28T07:19:57Z</time>
      </trkpt>
      <trkpt lat="42.9827240528939" lon="-5.1330060046214">
        <ele>1218.39010238647</ele>
        <time>2018-08-28T07:19:58Z</time>
      </trkpt>
      <trkpt lat="42.9827240109844" lon="-5.13292729855062">
        <ele>1218.28646469116</ele>
        <time>2018-08-28T07:19:59Z</time>
      </trkpt>
      <trkpt lat="42.9827213706849" lon="-5.13285487890722">
        <ele>1218.86556625366</ele>
        <time>2018-08-28T07:20:00Z</time>
      </trkpt>
      <trkpt lat="42.9827161739049" lon="-5.13278866187216">
        <ele>1219.30282211304</ele>
        <time>2018-08-28T07:20:01Z</time>
      </trkpt>
      <trkpt lat="42.9827115638582" lon="-5.13272303157033">
        <ele>1219.27865219116</ele>
        <time>2018-08-28T07:20:02Z</time>
      </trkpt>
      <trkpt lat="42.9827078758208" lon="-5.13266067021073">
        <ele>1220.2516746521</ele>
        <time>2018-08-28T07:20:03Z</time>
      </trkpt>
      <trkpt lat="42.9826957220612" lon="-5.13256846927584">
        <ele>1221.45833969116</ele>
        <time>2018-08-28T07:20:05Z</time>
      </trkpt>
      <trkpt lat="42.9826732585607" lon="-5.1324776932645">
        <ele>1222.18856430054</ele>
        <time>2018-08-28T07:20:07Z</time>
      </trkpt>
      <trkpt lat="42.9826837778492" lon="-5.13239555061341">
        <ele>1221.79806137085</ele>
        <time>2018-08-28T07:20:09Z</time>
      </trkpt>
      <trkpt lat="42.9826947162328" lon="-5.13231097721041">
        <ele>1221.92660140991</ele>
        <time>2018-08-28T07:20:11Z</time>
      </trkpt>
      <trkpt lat="42.9827191913901" lon="-5.13223327696801">
        <ele>1223.22616195679</ele>
        <time>2018-08-28T07:20:13Z</time>
      </trkpt>
      <trkpt lat="42.9827451333804" lon="-5.13215440325917">
        <ele>1225.53243637085</ele>
        <time>2018-08-28T07:20:15Z</time>
      </trkpt>
      <trkpt lat="42.982778409536" lon="-5.1320751942742">
        <ele>1225.37691879272</ele>
        <time>2018-08-28T07:20:17Z</time>
      </trkpt>
      <trkpt lat="42.9828123143343" lon="-5.13199070469023">
        <ele>1226.07332992554</ele>
        <time>2018-08-28T07:20:19Z</time>
      </trkpt>
      <trkpt lat="42.9828452552138" lon="-5.13191183098138">
        <ele>1226.57711410522</ele>
        <time>2018-08-28T07:20:21Z</time>
      </trkpt>
      <trkpt lat="42.9828833928732" lon="-5.13183589093865">
        <ele>1228.45431137085</ele>
        <time>2018-08-28T07:20:23Z</time>
      </trkpt>
      <trkpt lat="42.9829341452969" lon="-5.13176330365719">
        <ele>1227.12948226929</ele>
        <time>2018-08-28T07:20:25Z</time>
      </trkpt>
      <trkpt lat="42.9829817125974" lon="-5.13169415295602">
        <ele>1226.77193832397</ele>
        <time>2018-08-28T07:20:27Z</time>
      </trkpt>
      <trkpt lat="42.9830353567777" lon="-5.13161192648591">
        <ele>1225.10897445679</ele>
        <time>2018-08-28T07:20:29Z</time>
      </trkpt>
      <trkpt lat="42.9830554733453" lon="-5.13155543245853">
        <ele>1223.82809066772</ele>
        <time>2018-08-28T07:20:30Z</time>
      </trkpt>
      <trkpt lat="42.9830671661002" lon="-5.13149248436571">
        <ele>1223.70174789429</ele>
        <time>2018-08-28T07:20:31Z</time>
      </trkpt>
      <trkpt lat="42.9830700997664" lon="-5.13141444884718">
        <ele>1224.30379867554</ele>
        <time>2018-08-28T07:20:32Z</time>
      </trkpt>
      <trkpt lat="42.9830763023747" lon="-5.13133976608993">
        <ele>1224.55086898804</ele>
        <time>2018-08-28T07:20:33Z</time>
      </trkpt>
      <trkpt lat="42.9830809124214" lon="-5.1312754768926">
        <ele>1224.78182601929</ele>
        <time>2018-08-28T07:20:34Z</time>
      </trkpt>
      <trkpt lat="42.9830978019563" lon="-5.13120423071564">
        <ele>1225.20077133179</ele>
        <time>2018-08-28T07:20:35Z</time>
      </trkpt>
      <trkpt lat="42.9831096204398" lon="-5.13112954795838">
        <ele>1226.43795394897</ele>
        <time>2018-08-28T07:20:36Z</time>
      </trkpt>
      <trkpt lat="42.9831227381183" lon="-5.13105494902016">
        <ele>1226.24691390991</ele>
        <time>2018-08-28T07:20:37Z</time>
      </trkpt>
      <trkpt lat="42.9831502726702" lon="-5.13099786825956">
        <ele>1226.02132797241</ele>
        <time>2018-08-28T07:20:38Z</time>
      </trkpt>
      <trkpt lat="42.9831653181864" lon="-5.13093969785155">
        <ele>1226.49264144897</ele>
        <time>2018-08-28T07:20:39Z</time>
      </trkpt>
      <trkpt lat="42.983170892152" lon="-5.13087599538744">
        <ele>1228.16024398804</ele>
        <time>2018-08-28T07:20:40Z</time>
      </trkpt>
      <trkpt lat="42.9831803637026" lon="-5.1308111194569">
        <ele>1227.47384262085</ele>
        <time>2018-08-28T07:20:41Z</time>
      </trkpt>
      <trkpt lat="42.9831785615934" lon="-5.13074750081183">
        <ele>1227.3278465271</ele>
        <time>2018-08-28T07:20:42Z</time>
      </trkpt>
      <trkpt lat="42.9831523262365" lon="-5.13063241728128">
        <ele>1229.5417137146</ele>
        <time>2018-08-28T07:20:44Z</time>
      </trkpt>
      <trkpt lat="42.9831492249323" lon="-5.13055907562853">
        <ele>1229.88033676147</ele>
        <time>2018-08-28T07:20:45Z</time>
      </trkpt>
      <trkpt lat="42.9831534577934" lon="-5.13049143366993">
        <ele>1229.76986312866</ele>
        <time>2018-08-28T07:20:46Z</time>
      </trkpt>
      <trkpt lat="42.9831552599026" lon="-5.13041725382687">
        <ele>1229.52914047241</ele>
        <time>2018-08-28T07:20:47Z</time>
      </trkpt>
      <trkpt lat="42.9831572296498" lon="-5.13034801930667">
        <ele>1228.90047836304</ele>
        <time>2018-08-28T07:20:48Z</time>
      </trkpt>
      <trkpt lat="42.9831594508542" lon="-5.13023452833773">
        <ele>1228.82088851929</ele>
        <time>2018-08-28T07:20:50Z</time>
      </trkpt>
      <trkpt lat="42.9831560142739" lon="-5.130142746498">
        <ele>1228.13582992554</ele>
        <time>2018-08-28T07:20:52Z</time>
      </trkpt>
      <trkpt lat="42.9831611691443" lon="-5.1300444267738">
        <ele>1228.23763656616</ele>
        <time>2018-08-28T07:20:54Z</time>
      </trkpt>
      <trkpt lat="42.9831452016188" lon="-5.12994945981086">
        <ele>1230.07625961304</ele>
        <time>2018-08-28T07:20:56Z</time>
      </trkpt>
      <trkpt lat="42.9831315810261" lon="-5.12986949645461">
        <ele>1230.94955062866</ele>
        <time>2018-08-28T07:20:58Z</time>
      </trkpt>
      <trkpt lat="42.9831109615443" lon="-5.12978006154777">
        <ele>1230.08382797241</ele>
        <time>2018-08-28T07:21:00Z</time>
      </trkpt>
      <trkpt lat="42.9830820439784" lon="-5.12967889197648">
        <ele>1228.64571762085</ele>
        <time>2018-08-28T07:21:02Z</time>
      </trkpt>
      <trkpt lat="42.9830397991864" lon="-5.12957579456747">
        <ele>1227.44478988647</ele>
        <time>2018-08-28T07:21:04Z</time>
      </trkpt>
      <trkpt lat="42.9829794913931" lon="-5.12947428972007">
        <ele>1226.06686019897</ele>
        <time>2018-08-28T07:21:06Z</time>
      </trkpt>
      <trkpt lat="42.9829583270876" lon="-5.12941737659753">
        <ele>1225.82601547241</ele>
        <time>2018-08-28T07:21:07Z</time>
      </trkpt>
      <trkpt lat="42.9829394258959" lon="-5.12935157865764">
        <ele>1225.64791488647</ele>
        <time>2018-08-28T07:21:08Z</time>
      </trkpt>
      <trkpt lat="42.982923919375" lon="-5.12928653508902">
        <ele>1224.52352523804</ele>
        <time>2018-08-28T07:21:09Z</time>
      </trkpt>
      <trkpt lat="42.9829097120492" lon="-5.12921319343627">
        <ele>1224.31185531616</ele>
        <time>2018-08-28T07:21:10Z</time>
      </trkpt>
      <trkpt lat="42.9829009110508" lon="-5.12914286926866">
        <ele>1223.84591293335</ele>
        <time>2018-08-28T07:21:11Z</time>
      </trkpt>
      <trkpt lat="42.9828956304518" lon="-5.1290665939498">
        <ele>1223.22054672241</ele>
        <time>2018-08-28T07:21:12Z</time>
      </trkpt>
      <trkpt lat="42.9828902660338" lon="-5.12899300083996">
        <ele>1223.57162094116</ele>
        <time>2018-08-28T07:21:13Z</time>
      </trkpt>
      <trkpt lat="42.9828821355877" lon="-5.12891756371141">
        <ele>1223.1891746521</ele>
        <time>2018-08-28T07:21:14Z</time>
      </trkpt>
      <trkpt lat="42.9828743404178" lon="-5.12884715572477">
        <ele>1223.36422348022</ele>
        <time>2018-08-28T07:21:15Z</time>
      </trkpt>
      <trkpt lat="42.9828632763056" lon="-5.12878387235583">
        <ele>1223.67672348022</ele>
        <time>2018-08-28T07:21:16Z</time>
      </trkpt>
      <trkpt lat="42.9828510806365" lon="-5.12872260064364">
        <ele>1223.67342758179</ele>
        <time>2018-08-28T07:21:17Z</time>
      </trkpt>
      <trkpt lat="42.9828422796381" lon="-5.12866049074114">
        <ele>1223.94417953491</ele>
        <time>2018-08-28T07:21:18Z</time>
      </trkpt>
      <trkpt lat="42.9828320956258" lon="-5.12859343551577">
        <ele>1223.80013656616</ele>
        <time>2018-08-28T07:21:19Z</time>
      </trkpt>
      <trkpt lat="42.9828241328178" lon="-5.12852487154783">
        <ele>1223.79195785522</ele>
        <time>2018-08-28T07:21:20Z</time>
      </trkpt>
      <trkpt lat="42.9828147031767" lon="-5.12846016325534">
        <ele>1223.84005355835</ele>
        <time>2018-08-28T07:21:21Z</time>
      </trkpt>
      <trkpt lat="42.9828102188585" lon="-5.12839151546837">
        <ele>1224.0231590271</ele>
        <time>2018-08-28T07:21:22Z</time>
      </trkpt>
      <trkpt lat="42.9828090453921" lon="-5.12832731009007">
        <ele>1224.42806625366</ele>
        <time>2018-08-28T07:21:23Z</time>
      </trkpt>
      <trkpt lat="42.9827994062034" lon="-5.12825790793181">
        <ele>1223.83517074585</ele>
        <time>2018-08-28T07:21:24Z</time>
      </trkpt>
      <trkpt lat="42.9827856179727" lon="-5.12818825431646">
        <ele>1223.54207992554</ele>
        <time>2018-08-28T07:21:25Z</time>
      </trkpt>
      <trkpt lat="42.9827714525563" lon="-5.12811977416755">
        <ele>1223.65523910522</ele>
        <time>2018-08-28T07:21:26Z</time>
      </trkpt>
      <trkpt lat="42.9827524675457" lon="-5.12804567814351">
        <ele>1223.65389633179</ele>
        <time>2018-08-28T07:21:27Z</time>
      </trkpt>
      <trkpt lat="42.9827250168128" lon="-5.12797820382298">
        <ele>1223.5915184021</ele>
        <time>2018-08-28T07:21:28Z</time>
      </trkpt>
      <trkpt lat="42.9826960154278" lon="-5.12791198678792">
        <ele>1223.4391746521</ele>
        <time>2018-08-28T07:21:29Z</time>
      </trkpt>
      <trkpt lat="42.9826729232846" lon="-5.12785700150312">
        <ele>1223.69381332397</ele>
        <time>2018-08-28T07:21:30Z</time>
      </trkpt>
      <trkpt lat="42.9826412396906" lon="-5.12780503370345">
        <ele>1223.6637840271</ele>
        <time>2018-08-28T07:21:31Z</time>
      </trkpt>
      <trkpt lat="42.9826112743867" lon="-5.12775206007541">
        <ele>1224.67049789429</ele>
        <time>2018-08-28T07:21:32Z</time>
      </trkpt>
      <trkpt lat="42.9825564986495" lon="-5.12764787301899">
        <ele>1224.03182601929</ele>
        <time>2018-08-28T07:21:34Z</time>
      </trkpt>
      <trkpt lat="42.9825269524408" lon="-5.12759506702901">
        <ele>1223.79879379272</ele>
        <time>2018-08-28T07:21:35Z</time>
      </trkpt>
      <trkpt lat="42.9824718414275" lon="-5.12751711532951">
        <ele>1222.50960922241</ele>
        <time>2018-08-28T07:21:37Z</time>
      </trkpt>
      <trkpt lat="42.9824481206415" lon="-5.12745777145506">
        <ele>1223.47262191772</ele>
        <time>2018-08-28T07:21:38Z</time>
      </trkpt>
      <trkpt lat="42.9823976196749" lon="-5.12735609896959">
        <ele>1224.43685531616</ele>
        <time>2018-08-28T07:21:40Z</time>
      </trkpt>
      <trkpt lat="42.9823511001123" lon="-5.12723263353587">
        <ele>1224.47054672241</ele>
        <time>2018-08-28T07:21:42Z</time>
      </trkpt>
      <trkpt lat="42.9823257029457" lon="-5.12712660246075">
        <ele>1223.78072738647</ele>
        <time>2018-08-28T07:21:44Z</time>
      </trkpt>
      <trkpt lat="42.982318662147" lon="-5.12700942345441">
        <ele>1224.65169906616</ele>
        <time>2018-08-28T07:21:46Z</time>
      </trkpt>
      <trkpt lat="42.982310783158" lon="-5.12691956945241">
        <ele>1225.24081039429</ele>
        <time>2018-08-28T07:21:48Z</time>
      </trkpt>
      <trkpt lat="42.9823060473827" lon="-5.12685184367479">
        <ele>1221.53023910522</ele>
        <time>2018-08-28T07:21:50Z</time>
      </trkpt>
      <trkpt lat="42.9823022755263" lon="-5.12679015286744">
        <ele>1221.03316879272</ele>
        <time>2018-08-28T07:21:51Z</time>
      </trkpt>
      <trkpt lat="42.9823075980348" lon="-5.12668529525877">
        <ele>1219.69979476929</ele>
        <time>2018-08-28T07:21:53Z</time>
      </trkpt>
      <trkpt lat="42.9823168181283" lon="-5.12657197192789">
        <ele>1219.7516746521</ele>
        <time>2018-08-28T07:21:55Z</time>
      </trkpt>
      <trkpt lat="42.9823239846555" lon="-5.12646644376696">
        <ele>1220.22677230835</ele>
        <time>2018-08-28T07:21:57Z</time>
      </trkpt>
      <trkpt lat="42.9823270859597" lon="-5.12636066414893">
        <ele>1222.38082504272</ele>
        <time>2018-08-28T07:21:59Z</time>
      </trkpt>
      <trkpt lat="42.9823293909831" lon="-5.12623946182907">
        <ele>1223.93001937866</ele>
        <time>2018-08-28T07:22:01Z</time>
      </trkpt>
      <trkpt lat="42.9823311092732" lon="-5.12612706050754">
        <ele>1224.79903793335</ele>
        <time>2018-08-28T07:22:03Z</time>
      </trkpt>
      <trkpt lat="42.9823282594262" lon="-5.12601633556665">
        <ele>1225.82186508179</ele>
        <time>2018-08-28T07:22:05Z</time>
      </trkpt>
      <trkpt lat="42.9823218053607" lon="-5.12591374107183">
        <ele>1226.62301254272</ele>
        <time>2018-08-28T07:22:07Z</time>
      </trkpt>
      <trkpt lat="42.9823183687804" lon="-5.12580519542575">
        <ele>1227.1530418396</ele>
        <time>2018-08-28T07:22:09Z</time>
      </trkpt>
      <trkpt lat="42.982313381548" lon="-5.12569312938035">
        <ele>1227.81490707397</ele>
        <time>2018-08-28T07:22:11Z</time>
      </trkpt>
      <trkpt lat="42.9823013116075" lon="-5.12558374554396">
        <ele>1228.3493309021</ele>
        <time>2018-08-28T07:22:13Z</time>
      </trkpt>
      <trkpt lat="42.9822959052799" lon="-5.12548534200073">
        <ele>1228.38802719116</ele>
        <time>2018-08-28T07:22:15Z</time>
      </trkpt>
      <trkpt lat="42.9822964920131" lon="-5.12538492680073">
        <ele>1229.65035629272</ele>
        <time>2018-08-28T07:22:17Z</time>
      </trkpt>
      <trkpt lat="42.9822965758322" lon="-5.12527135201276">
        <ele>1229.69869613647</ele>
        <time>2018-08-28T07:22:19Z</time>
      </trkpt>
      <trkpt lat="42.9823003476886" lon="-5.12515283190191">
        <ele>1231.2067527771</ele>
        <time>2018-08-28T07:22:21Z</time>
      </trkpt>
      <trkpt lat="42.9823164409427" lon="-5.12504881248355">
        <ele>1230.7145652771</ele>
        <time>2018-08-28T07:22:23Z</time>
      </trkpt>
      <trkpt lat="42.982354243326" lon="-5.12495594099641">
        <ele>1230.45919418335</ele>
        <time>2018-08-28T07:22:25Z</time>
      </trkpt>
      <trkpt lat="42.9824074265016" lon="-5.12486885302246">
        <ele>1230.43319320679</ele>
        <time>2018-08-28T07:22:27Z</time>
      </trkpt>
      <trkpt lat="42.9824520182265" lon="-5.12477732263983">
        <ele>1230.57735824585</ele>
        <time>2018-08-28T07:22:29Z</time>
      </trkpt>
      <trkpt lat="42.9824772896645" lon="-5.12468436733365">
        <ele>1230.32406234741</ele>
        <time>2018-08-28T07:22:31Z</time>
      </trkpt>
      <trkpt lat="42.9824987054271" lon="-5.12457598932565">
        <ele>1231.94906234741</ele>
        <time>2018-08-28T07:22:33Z</time>
      </trkpt>
      <trkpt lat="42.9825161816953" lon="-5.1244746521163">
        <ele>1232.15609359741</ele>
        <time>2018-08-28T07:22:35Z</time>
      </trkpt>
      <trkpt lat="42.9825274972645" lon="-5.12437993661046">
        <ele>1231.59457015991</ele>
        <time>2018-08-28T07:22:37Z</time>
      </trkpt>
      <trkpt lat="42.9825345380632" lon="-5.12429167517007">
        <ele>1231.44466781616</ele>
        <time>2018-08-28T07:22:39Z</time>
      </trkpt>
      <trkpt lat="42.9825386032862" lon="-5.12421472929895">
        <ele>1232.80685043335</ele>
        <time>2018-08-28T07:22:41Z</time>
      </trkpt>
      <trkpt lat="42.9825451830802" lon="-5.12414817698777">
        <ele>1235.67855453491</ele>
        <time>2018-08-28T07:22:43Z</time>
      </trkpt>
      <trkpt lat="42.982557755935" lon="-5.12407232076407">
        <ele>1235.18587875366</ele>
        <time>2018-08-28T07:22:45Z</time>
      </trkpt>
      <trkpt lat="42.9825704126088" lon="-5.12398665771366">
        <ele>1233.95699691772</ele>
        <time>2018-08-28T07:22:47Z</time>
      </trkpt>
      <trkpt lat="42.9825728433607" lon="-5.12390015647293">
        <ele>1232.91219711304</ele>
        <time>2018-08-28T07:22:49Z</time>
      </trkpt>
      <trkpt lat="42.9825878469674" lon="-5.12379848398745">
        <ele>1234.92794418335</ele>
        <time>2018-08-28T07:22:51Z</time>
      </trkpt>
      <trkpt lat="42.9826061614258" lon="-5.12369957753003">
        <ele>1233.72750473022</ele>
        <time>2018-08-28T07:22:53Z</time>
      </trkpt>
      <trkpt lat="42.9826195724709" lon="-5.12360025197745">
        <ele>1233.08443832397</ele>
        <time>2018-08-28T07:22:55Z</time>
      </trkpt>
      <trkpt lat="42.9826436704425" lon="-5.12349698693037">
        <ele>1237.06051254272</ele>
        <time>2018-08-28T07:22:57Z</time>
      </trkpt>
      <trkpt lat="42.9826695705233" lon="-5.12338886037946">
        <ele>1237.43648910522</ele>
        <time>2018-08-28T07:22:59Z</time>
      </trkpt>
      <trkpt lat="42.9826928722141" lon="-5.12327562086761">
        <ele>1237.62142562866</ele>
        <time>2018-08-28T07:23:01Z</time>
      </trkpt>
      <trkpt lat="42.9827301297737" lon="-5.12317143381119">
        <ele>1236.31478500366</ele>
        <time>2018-08-28T07:23:03Z</time>
      </trkpt>
      <trkpt lat="42.9827671358762" lon="-5.12307185680151">
        <ele>1235.9528465271</ele>
        <time>2018-08-28T07:23:05Z</time>
      </trkpt>
      <trkpt lat="42.9828014178602" lon="-5.12298317626596">
        <ele>1236.34334945679</ele>
        <time>2018-08-28T07:23:07Z</time>
      </trkpt>
      <trkpt lat="42.9828291200502" lon="-5.12287965976179">
        <ele>1233.83346176147</ele>
        <time>2018-08-28T07:23:09Z</time>
      </trkpt>
      <trkpt lat="42.9828432016475" lon="-5.12277203612507">
        <ele>1233.67049789429</ele>
        <time>2018-08-28T07:23:11Z</time>
      </trkpt>
      <trkpt lat="42.982844542752" lon="-5.12266114354611">
        <ele>1234.01229476929</ele>
        <time>2018-08-28T07:23:13Z</time>
      </trkpt>
      <trkpt lat="42.9828458000375" lon="-5.12255729176581">
        <ele>1236.19625473022</ele>
        <time>2018-08-28T07:23:15Z</time>
      </trkpt>
      <trkpt lat="42.982848440337" lon="-5.122462660079">
        <ele>1237.12264633179</ele>
        <time>2018-08-28T07:23:17Z</time>
      </trkpt>
      <trkpt lat="42.9828583728922" lon="-5.12236635201156">
        <ele>1237.45663070679</ele>
        <time>2018-08-28T07:23:19Z</time>
      </trkpt>
      <trkpt lat="42.9828776512695" lon="-5.12226903811574">
        <ele>1237.65841293335</ele>
        <time>2018-08-28T07:23:21Z</time>
      </trkpt>
      <trkpt lat="42.9828958819089" lon="-5.12217499316216">
        <ele>1236.10299301147</ele>
        <time>2018-08-28T07:23:23Z</time>
      </trkpt>
      <trkpt lat="42.9829202313376" lon="-5.12209075503528">
        <ele>1237.93355941772</ele>
        <time>2018-08-28T07:23:25Z</time>
      </trkpt>
      <trkpt lat="42.9829506995557" lon="-5.12200878002227">
        <ele>1240.10445785522</ele>
        <time>2018-08-28T07:23:27Z</time>
      </trkpt>
      <trkpt lat="42.98298322134" lon="-5.12192135677219">
        <ele>1240.23690414429</ele>
        <time>2018-08-28T07:23:29Z</time>
      </trkpt>
      <trkpt lat="42.9830190120665" lon="-5.1218325924176">
        <ele>1239.35836410522</ele>
        <time>2018-08-28T07:23:31Z</time>
      </trkpt>
      <trkpt lat="42.9830524139507" lon="-5.12174734846234">
        <ele>1238.82955551147</ele>
        <time>2018-08-28T07:23:33Z</time>
      </trkpt>
      <trkpt lat="42.9830826726211" lon="-5.12165715918422">
        <ele>1240.66537094116</ele>
        <time>2018-08-28T07:23:35Z</time>
      </trkpt>
      <trkpt lat="42.9831143143056" lon="-5.12158239260793">
        <ele>1241.42977523804</ele>
        <time>2018-08-28T07:23:37Z</time>
      </trkpt>
      <trkpt lat="42.9831447825236" lon="-5.12152003124833">
        <ele>1241.19552230835</ele>
        <time>2018-08-28T07:23:39Z</time>
      </trkpt>
      <trkpt lat="42.9831778491316" lon="-5.12143621221662">
        <ele>1239.75594711304</ele>
        <time>2018-08-28T07:23:42Z</time>
      </trkpt>
      <trkpt lat="42.9831958283139" lon="-5.12136664242029">
        <ele>1239.49593734741</ele>
        <time>2018-08-28T07:23:44Z</time>
      </trkpt>
      <trkpt lat="42.9832104128254" lon="-5.12129791081429">
        <ele>1238.68612289429</ele>
        <time>2018-08-28T07:23:46Z</time>
      </trkpt>
      <trkpt lat="42.9832273023603" lon="-5.12121912092447">
        <ele>1239.96578598022</ele>
        <time>2018-08-28T07:23:48Z</time>
      </trkpt>
      <trkpt lat="42.9832451977236" lon="-5.12114770710945">
        <ele>1240.81551742554</ele>
        <time>2018-08-28T07:23:50Z</time>
      </trkpt>
      <trkpt lat="42.9832625482632" lon="-5.12107688002765">
        <ele>1247.41903305054</ele>
        <time>2018-08-28T07:23:53Z</time>
      </trkpt>
      <trkpt lat="42.9832749953894" lon="-5.12100622058392">
        <ele>1248.72799301147</ele>
        <time>2018-08-28T07:23:56Z</time>
      </trkpt>
      <trkpt lat="42.983289747539" lon="-5.12092499994218">
        <ele>1248.50252914429</ele>
        <time>2018-08-28T07:23:59Z</time>
      </trkpt>
      <trkpt lat="42.983303158584" lon="-5.12086641043901">
        <ele>1249.56148910522</ele>
        <time>2018-08-28T07:24:01Z</time>
      </trkpt>
      <trkpt lat="42.9833192937476" lon="-5.12080262415588">
        <ele>1248.90621566772</ele>
        <time>2018-08-28T07:24:03Z</time>
      </trkpt>
      <trkpt lat="42.9833340458972" lon="-5.1207358203876">
        <ele>1247.20724105835</ele>
        <time>2018-08-28T07:24:05Z</time>
      </trkpt>
      <trkpt lat="42.9833560903026" lon="-5.12066851370513">
        <ele>1247.75741195679</ele>
        <time>2018-08-28T07:24:07Z</time>
      </trkpt>
      <trkpt lat="42.9833820322929" lon="-5.12060321867943">
        <ele>1249.04256820679</ele>
        <time>2018-08-28T07:24:09Z</time>
      </trkpt>
      <trkpt lat="42.9834091896592" lon="-5.12054353952885">
        <ele>1249.58712387085</ele>
        <time>2018-08-28T07:24:11Z</time>
      </trkpt>
      <trkpt lat="42.9834265821082" lon="-5.1204701978761">
        <ele>1249.66805648804</ele>
        <time>2018-08-28T07:24:13Z</time>
      </trkpt>
      <trkpt lat="42.9834491294278" lon="-5.12040012516558">
        <ele>1248.45809555054</ele>
        <time>2018-08-28T07:24:15Z</time>
      </trkpt>
      <trkpt lat="42.9834925476862" lon="-5.12033558451116">
        <ele>1249.85433578491</ele>
        <time>2018-08-28T07:24:17Z</time>
      </trkpt>
      <trkpt lat="42.9835383966965" lon="-5.12027297169447">
        <ele>1250.77193832397</ele>
        <time>2018-08-28T07:24:19Z</time>
      </trkpt>
      <trkpt lat="42.9835905740438" lon="-5.12021354400098">
        <ele>1251.14083480835</ele>
        <time>2018-08-28T07:24:21Z</time>
      </trkpt>
      <trkpt lat="42.9836476548044" lon="-5.12016694061935">
        <ele>1250.90963363647</ele>
        <time>2018-08-28T07:24:23Z</time>
      </trkpt>
      <trkpt lat="42.9837116506351" lon="-5.12012536637962">
        <ele>1250.67025375366</ele>
        <time>2018-08-28T07:24:25Z</time>
      </trkpt>
      <trkpt lat="42.9837798793269" lon="-5.1200832892257">
        <ele>1251.20309066772</ele>
        <time>2018-08-28T07:24:27Z</time>
      </trkpt>
      <trkpt lat="42.9838385107396" lon="-5.12003350072086">
        <ele>1249.50436019897</ele>
        <time>2018-08-28T07:24:29Z</time>
      </trkpt>
      <trkpt lat="42.9838849464832" lon="-5.11996778659999">
        <ele>1249.65291976929</ele>
        <time>2018-08-28T07:24:31Z</time>
      </trkpt>
      <trkpt lat="42.9839198990194" lon="-5.11988413520634">
        <ele>1250.95602035522</ele>
        <time>2018-08-28T07:24:33Z</time>
      </trkpt>
      <trkpt lat="42.9839485232187" lon="-5.1197915151763">
        <ele>1251.47054672241</ele>
        <time>2018-08-28T07:24:35Z</time>
      </trkpt>
      <trkpt lat="42.9839647002918" lon="-5.11969973333657">
        <ele>1251.83041000366</ele>
        <time>2018-08-28T07:24:37Z</time>
      </trkpt>
      <trkpt lat="42.9839790333463" lon="-5.11959839612722">
        <ele>1252.34725570679</ele>
        <time>2018-08-28T07:24:39Z</time>
      </trkpt>
      <trkpt lat="42.9839891335396" lon="-5.11949798092723">
        <ele>1253.04427719116</ele>
        <time>2018-08-28T07:24:41Z</time>
      </trkpt>
      <trkpt lat="42.9839897202728" lon="-5.11938574724376">
        <ele>1252.66927719116</ele>
        <time>2018-08-28T07:24:43Z</time>
      </trkpt>
      <trkpt lat="42.983994204591" lon="-5.11926856823742">
        <ele>1252.01107406616</ele>
        <time>2018-08-28T07:24:45Z</time>
      </trkpt>
      <trkpt lat="42.9840084119169" lon="-5.11915298179269">
        <ele>1251.86471176147</ele>
        <time>2018-08-28T07:24:47Z</time>
      </trkpt>
      <trkpt lat="42.984029953408" lon="-5.11904527433693">
        <ele>1252.99532699585</ele>
        <time>2018-08-28T07:24:49Z</time>
      </trkpt>
      <trkpt lat="42.9840478906808" lon="-5.11894938536465">
        <ele>1252.6247215271</ele>
        <time>2018-08-28T07:24:51Z</time>
      </trkpt>
      <trkpt lat="42.9840674624247" lon="-5.11885995045781">
        <ele>1252.16268539429</ele>
        <time>2018-08-28T07:24:53Z</time>
      </trkpt>
      <trkpt lat="42.9840900935633" lon="-5.11878551915765">
        <ele>1253.31686019897</ele>
        <time>2018-08-28T07:24:55Z</time>
      </trkpt>
      <trkpt lat="42.9841125151543" lon="-5.11871611699939">
        <ele>1253.1657371521</ele>
        <time>2018-08-28T07:24:57Z</time>
      </trkpt>
      <trkpt lat="42.9841288598655" lon="-5.11864512227952">
        <ele>1254.30184555054</ele>
        <time>2018-08-28T07:24:59Z</time>
      </trkpt>
      <trkpt lat="42.984139630611" lon="-5.11857287027418">
        <ele>1254.25814437866</ele>
        <time>2018-08-28T07:25:01Z</time>
      </trkpt>
      <trkpt lat="42.9841515748231" lon="-5.11850179173529">
        <ele>1255.92489242554</ele>
        <time>2018-08-28T07:25:03Z</time>
      </trkpt>
      <trkpt lat="42.9841740802331" lon="-5.11842342094064">
        <ele>1256.6130027771</ele>
        <time>2018-08-28T07:25:05Z</time>
      </trkpt>
      <trkpt lat="42.9842008604137" lon="-5.11834664270758">
        <ele>1257.9577293396</ele>
        <time>2018-08-28T07:25:07Z</time>
      </trkpt>
      <trkpt lat="42.9842313705413" lon="-5.1182700321126">
        <ele>1259.33431625366</ele>
        <time>2018-08-28T07:25:09Z</time>
      </trkpt>
      <trkpt lat="42.9842646047873" lon="-5.11819870211661">
        <ele>1259.30367660522</ele>
        <time>2018-08-28T07:25:11Z</time>
      </trkpt>
      <trkpt lat="42.9842944862721" lon="-5.11812619865417">
        <ele>1260.5749168396</ele>
        <time>2018-08-28T07:25:13Z</time>
      </trkpt>
      <trkpt lat="42.9843283491609" lon="-5.11803760193765">
        <ele>1260.51900863647</ele>
        <time>2018-08-28T07:25:15Z</time>
      </trkpt>
      <trkpt lat="42.9843648942588" lon="-5.11794674210727">
        <ele>1259.36031723022</ele>
        <time>2018-08-28T07:25:17Z</time>
      </trkpt>
      <trkpt lat="42.9844049597559" lon="-5.11785211042046">
        <ele>1259.1208152771</ele>
        <time>2018-08-28T07:25:19Z</time>
      </trkpt>
      <trkpt lat="42.9844503477616" lon="-5.11776242405653">
        <ele>1258.3131980896</ele>
        <time>2018-08-28T07:25:21Z</time>
      </trkpt>
      <trkpt lat="42.9844937241105" lon="-5.11767583899677">
        <ele>1258.29110336304</ele>
        <time>2018-08-28T07:25:23Z</time>
      </trkpt>
      <trkpt lat="42.9845326999603" lon="-5.11757969856739">
        <ele>1258.95406723022</ele>
        <time>2018-08-28T07:25:25Z</time>
      </trkpt>
      <trkpt lat="42.9845669819442" lon="-5.11750216596305">
        <ele>1258.25765609741</ele>
        <time>2018-08-28T07:25:27Z</time>
      </trkpt>
      <trkpt lat="42.9846104840217" lon="-5.11741390452265">
        <ele>1258.31429672241</ele>
        <time>2018-08-28T07:25:29Z</time>
      </trkpt>
      <trkpt lat="42.9846554948417" lon="-5.1173146627891">
        <ele>1257.98885726929</ele>
        <time>2018-08-28T07:25:31Z</time>
      </trkpt>
      <trkpt lat="42.9846929200394" lon="-5.11721123010397">
        <ele>1259.87801742554</ele>
        <time>2018-08-28T07:25:33Z</time>
      </trkpt>
      <trkpt lat="42.984724980819" lon="-5.11710385792434">
        <ele>1259.97872543335</ele>
        <time>2018-08-28T07:25:35Z</time>
      </trkpt>
      <trkpt lat="42.984756580594" lon="-5.11699715629697">
        <ele>1260.92281723022</ele>
        <time>2018-08-28T07:25:37Z</time>
      </trkpt>
      <trkpt lat="42.9847851209743" lon="-5.11688441969931">
        <ele>1260.35311508179</ele>
        <time>2018-08-28T07:25:39Z</time>
      </trkpt>
      <trkpt lat="42.9848236777289" lon="-5.11678073555708">
        <ele>1259.19478988647</ele>
        <time>2018-08-28T07:25:41Z</time>
      </trkpt>
      <trkpt lat="42.9848599294601" lon="-5.11669524014473">
        <ele>1261.36214828491</ele>
        <time>2018-08-28T07:25:43Z</time>
      </trkpt>
      <trkpt lat="42.9849000787763" lon="-5.11661469005525">
        <ele>1260.74300765991</ele>
        <time>2018-08-28T07:25:45Z</time>
      </trkpt>
      <trkpt lat="42.9849362466885" lon="-5.11652986519515">
        <ele>1262.43636703491</ele>
        <time>2018-08-28T07:25:47Z</time>
      </trkpt>
      <trkpt lat="42.9849789524851" lon="-5.11644713581085">
        <ele>1260.89742660522</ele>
        <time>2018-08-28T07:25:49Z</time>
      </trkpt>
      <trkpt lat="42.9850191437108" lon="-5.11636608280718">
        <ele>1260.81405258179</ele>
        <time>2018-08-28T07:25:51Z</time>
      </trkpt>
      <trkpt lat="42.9850623524217" lon="-5.11628620326996">
        <ele>1260.47884750366</ele>
        <time>2018-08-28T07:25:53Z</time>
      </trkpt>
      <trkpt lat="42.9851081595225" lon="-5.11621537618816">
        <ele>1261.80978012085</ele>
        <time>2018-08-28T07:25:55Z</time>
      </trkpt>
      <trkpt lat="42.9851483088387" lon="-5.11614220217347">
        <ele>1262.95895004272</ele>
        <time>2018-08-28T07:25:57Z</time>
      </trkpt>
      <trkpt lat="42.9851960856868" lon="-5.11606835760653">
        <ele>1262.99496078491</ele>
        <time>2018-08-28T07:25:59Z</time>
      </trkpt>
      <trkpt lat="42.9852494365005" lon="-5.11600448750436">
        <ele>1263.83773422241</ele>
        <time>2018-08-28T07:26:01Z</time>
      </trkpt>
      <trkpt lat="42.985299769829" lon="-5.11593977921187">
        <ele>1265.20443344116</ele>
        <time>2018-08-28T07:26:03Z</time>
      </trkpt>
      <trkpt lat="42.9853493906958" lon="-5.11587339453876">
        <ele>1265.08150863647</ele>
        <time>2018-08-28T07:26:05Z</time>
      </trkpt>
      <trkpt lat="42.9854019033192" lon="-5.11581187136948">
        <ele>1265.02682113647</ele>
        <time>2018-08-28T07:26:07Z</time>
      </trkpt>
      <trkpt lat="42.9854588583512" lon="-5.11576007120788">
        <ele>1265.46017074585</ele>
        <time>2018-08-28T07:26:09Z</time>
      </trkpt>
      <trkpt lat="42.9855154781071" lon="-5.1157138869214">
        <ele>1265.46114730835</ele>
        <time>2018-08-28T07:26:11Z</time>
      </trkpt>
      <trkpt lat="42.985552190843" lon="-5.11567482725262">
        <ele>1266.94771957397</ele>
        <time>2018-08-28T07:26:13Z</time>
      </trkpt>
      <trkpt lat="42.9855913343308" lon="-5.11563953944027">
        <ele>1266.8200340271</ele>
        <time>2018-08-28T07:26:15Z</time>
      </trkpt>
      <trkpt lat="42.985631316009" lon="-5.11559603736281">
        <ele>1267.96017074585</ele>
        <time>2018-08-28T07:26:17Z</time>
      </trkpt>
      <trkpt lat="42.9856692441208" lon="-5.11554432102024">
        <ele>1265.62643051147</ele>
        <time>2018-08-28T07:26:19Z</time>
      </trkpt>
      <trkpt lat="42.9857083456991" lon="-5.11547818780422">
        <ele>1265.84005355835</ele>
        <time>2018-08-28T07:26:21Z</time>
      </trkpt>
      <trkpt lat="42.9857602715893" lon="-5.11541423388302">
        <ele>1266.48434066772</ele>
        <time>2018-08-28T07:26:23Z</time>
      </trkpt>
      <trkpt lat="42.9858107306463" lon="-5.11535941623628">
        <ele>1265.7233543396</ele>
        <time>2018-08-28T07:26:25Z</time>
      </trkpt>
      <trkpt lat="42.9858544422714" lon="-5.11530082673311">
        <ele>1266.15365219116</ele>
        <time>2018-08-28T07:26:27Z</time>
      </trkpt>
      <trkpt lat="42.9859111458463" lon="-5.11524860747635">
        <ele>1267.45199203491</ele>
        <time>2018-08-28T07:26:29Z</time>
      </trkpt>
      <trkpt lat="42.9859740939392" lon="-5.11520426720857">
        <ele>1268.55477523804</ele>
        <time>2018-08-28T07:26:31Z</time>
      </trkpt>
      <trkpt lat="42.9860366648463" lon="-5.11516009457886">
        <ele>1272.29769515991</ele>
        <time>2018-08-28T07:26:33Z</time>
      </trkpt>
      <trkpt lat="42.9861003673104" lon="-5.11511935852944">
        <ele>1275.56698226929</ele>
        <time>2018-08-28T07:26:35Z</time>
      </trkpt>
      <trkpt lat="42.9861569870664" lon="-5.11506588198721">
        <ele>1273.37337875366</ele>
        <time>2018-08-28T07:26:37Z</time>
      </trkpt>
      <trkpt lat="42.9862060211999" lon="-5.11500352062761">
        <ele>1272.67586898804</ele>
        <time>2018-08-28T07:26:39Z</time>
      </trkpt>
      <trkpt lat="42.9862533789528" lon="-5.11494182982027">
        <ele>1275.60396957397</ele>
        <time>2018-08-28T07:26:41Z</time>
      </trkpt>
      <trkpt lat="42.9863023711769" lon="-5.11488751508772">
        <ele>1275.6032371521</ele>
        <time>2018-08-28T07:26:43Z</time>
      </trkpt>
      <trkpt lat="42.9863459151639" lon="-5.11482951231777">
        <ele>1276.73421859741</ele>
        <time>2018-08-28T07:26:45Z</time>
      </trkpt>
      <trkpt lat="42.9863817477999" lon="-5.11477561668038">
        <ele>1277.03915023804</ele>
        <time>2018-08-28T07:26:47Z</time>
      </trkpt>
      <trkpt lat="42.9864180414406" lon="-5.1147122494924">
        <ele>1276.52865219116</ele>
        <time>2018-08-28T07:26:49Z</time>
      </trkpt>
      <trkpt lat="42.9864500184012" lon="-5.11464393698155">
        <ele>1275.99105453491</ele>
        <time>2018-08-28T07:26:51Z</time>
      </trkpt>
      <trkpt lat="42.9864835460139" lon="-5.11457755230844">
        <ele>1277.24532699585</ele>
        <time>2018-08-28T07:26:53Z</time>
      </trkpt>
      <trkpt lat="42.9865249107061" lon="-5.11450563557922">
        <ele>1279.11166000366</ele>
        <time>2018-08-28T07:26:55Z</time>
      </trkpt>
      <trkpt lat="42.9865597794233" lon="-5.11443221010744">
        <ele>1277.44259262085</ele>
        <time>2018-08-28T07:26:57Z</time>
      </trkpt>
      <trkpt lat="42.9865873558847" lon="-5.11435970664501">
        <ele>1275.6930809021</ele>
        <time>2018-08-28T07:26:59Z</time>
      </trkpt>
      <trkpt lat="42.9866191652072" lon="-5.11428745463967">
        <ele>1274.94491195679</ele>
        <time>2018-08-28T07:27:01Z</time>
      </trkpt>
      <trkpt lat="42.9866500106109" lon="-5.11421897449076">
        <ele>1275.30453109741</ele>
        <time>2018-08-28T07:27:03Z</time>
      </trkpt>
      <trkpt lat="42.9866897408319" lon="-5.11414680630445">
        <ele>1275.18099594116</ele>
        <time>2018-08-28T07:27:05Z</time>
      </trkpt>
      <trkpt lat="42.9867398646129" lon="-5.1140787452507">
        <ele>1276.69906234741</ele>
        <time>2018-08-28T07:27:07Z</time>
      </trkpt>
      <trkpt lat="42.9867988732112" lon="-5.11402049102365">
        <ele>1275.96590805054</ele>
        <time>2018-08-28T07:27:09Z</time>
      </trkpt>
      <trkpt lat="42.9868561635194" lon="-5.11397112161397">
        <ele>1277.25008773804</ele>
        <time>2018-08-28T07:27:11Z</time>
      </trkpt>
      <trkpt lat="42.9869028926296" lon="-5.11390817352116">
        <ele>1279.15328598022</ele>
        <time>2018-08-28T07:27:13Z</time>
      </trkpt>
      <trkpt lat="42.9869469395308" lon="-5.11385243386506">
        <ele>1278.47896957397</ele>
        <time>2018-08-28T07:27:15Z</time>
      </trkpt>
      <trkpt lat="42.9870013799919" lon="-5.11379820295154">
        <ele>1278.24789047241</ele>
        <time>2018-08-28T07:27:17Z</time>
      </trkpt>
      <trkpt lat="42.9870693572266" lon="-5.1137399487245">
        <ele>1278.69857406616</ele>
        <time>2018-08-28T07:27:19Z</time>
      </trkpt>
      <trkpt lat="42.9871234624116" lon="-5.11368295178294">
        <ele>1280.87984848022</ele>
        <time>2018-08-28T07:27:21Z</time>
      </trkpt>
      <trkpt lat="42.9871668387605" lon="-5.11361924931883">
        <ele>1279.1491355896</ele>
        <time>2018-08-28T07:27:23Z</time>
      </trkpt>
      <trkpt lat="42.9872020427538" lon="-5.11354062706708">
        <ele>1280.35152816772</ele>
        <time>2018-08-28T07:27:25Z</time>
      </trkpt>
      <trkpt lat="42.9872339358954" lon="-5.11346342973887">
        <ele>1280.11971664429</ele>
        <time>2018-08-28T07:27:27Z</time>
      </trkpt>
      <trkpt lat="42.9872728279261" lon="-5.11339008808612">
        <ele>1280.63033676147</ele>
        <time>2018-08-28T07:27:29Z</time>
      </trkpt>
      <trkpt lat="42.9873190541221" lon="-5.11331590824305">
        <ele>1281.98922348022</ele>
        <time>2018-08-28T07:27:31Z</time>
      </trkpt>
      <trkpt lat="42.9873695131792" lon="-5.11324776337027">
        <ele>1281.72249984741</ele>
        <time>2018-08-28T07:27:33Z</time>
      </trkpt>
      <trkpt lat="42.987428479868" lon="-5.11318330653488">
        <ele>1283.75326156616</ele>
        <time>2018-08-28T07:27:35Z</time>
      </trkpt>
      <trkpt lat="42.9874734487785" lon="-5.11311273091018">
        <ele>1286.0954246521</ele>
        <time>2018-08-28T07:27:37Z</time>
      </trkpt>
      <trkpt lat="42.9875094071431" lon="-5.11302497238397">
        <ele>1284.28438949585</ele>
        <time>2018-08-28T07:27:39Z</time>
      </trkpt>
      <trkpt lat="42.9875395819945" lon="-5.11294065043806">
        <ele>1282.16781234741</ele>
        <time>2018-08-28T07:27:41Z</time>
      </trkpt>
      <trkpt lat="42.9875677451892" lon="-5.11285691522538">
        <ele>1282.9303855896</ele>
        <time>2018-08-28T07:27:43Z</time>
      </trkpt>
      <trkpt lat="42.9875935195414" lon="-5.11277460493624">
        <ele>1281.66207504272</ele>
        <time>2018-08-28T07:27:45Z</time>
      </trkpt>
      <trkpt lat="42.9876211379124" lon="-5.11269749142706">
        <ele>1281.18246078491</ele>
        <time>2018-08-28T07:27:47Z</time>
      </trkpt>
      <trkpt lat="42.9876443976937" lon="-5.11261769570886">
        <ele>1283.3229637146</ele>
        <time>2018-08-28T07:27:49Z</time>
      </trkpt>
      <trkpt lat="42.9876427632226" lon="-5.11252432130753">
        <ele>1280.36959457397</ele>
        <time>2018-08-28T07:27:51Z</time>
      </trkpt>
      <trkpt lat="42.9876235267548" lon="-5.11243220419168">
        <ele>1278.37997055054</ele>
        <time>2018-08-28T07:27:53Z</time>
      </trkpt>
      <trkpt lat="42.9875980457691" lon="-5.11234050617098">
        <ele>1279.73666000366</ele>
        <time>2018-08-28T07:27:55Z</time>
      </trkpt>
      <trkpt lat="42.9875724390549" lon="-5.11224419810354">
        <ele>1278.54061508179</ele>
        <time>2018-08-28T07:27:57Z</time>
      </trkpt>
      <trkpt lat="42.9875628836853" lon="-5.11214520782708">
        <ele>1275.99605941772</ele>
        <time>2018-08-28T07:27:59Z</time>
      </trkpt>
      <trkpt lat="42.9875820363341" lon="-5.11205082759737">
        <ele>1278.76082992554</ele>
        <time>2018-08-28T07:28:01Z</time>
      </trkpt>
      <trkpt lat="42.9876054218439" lon="-5.1119647454518">
        <ele>1279.79879379272</ele>
        <time>2018-08-28T07:28:03Z</time>
      </trkpt>
      <trkpt lat="42.9876407515658" lon="-5.11188033968686">
        <ele>1280.27230453491</ele>
        <time>2018-08-28T07:28:05Z</time>
      </trkpt>
      <trkpt lat="42.9876810266105" lon="-5.1118077524054">
        <ele>1284.35824203491</ele>
        <time>2018-08-28T07:28:07Z</time>
      </trkpt>
      <trkpt lat="42.9877104051811" lon="-5.1117348298478">
        <ele>1281.59481430054</ele>
        <time>2018-08-28T07:28:09Z</time>
      </trkpt>
      <trkpt lat="42.9877358023478" lon="-5.11164581403612">
        <ele>1280.91195297241</ele>
        <time>2018-08-28T07:28:11Z</time>
      </trkpt>
      <trkpt lat="42.9877545778109" lon="-5.11154942214965">
        <ele>1281.48006820679</ele>
        <time>2018-08-28T07:28:13Z</time>
      </trkpt>
      <trkpt lat="42.9877711739791" lon="-5.11146401055633">
        <ele>1282.43868637085</ele>
        <time>2018-08-28T07:28:15Z</time>
      </trkpt>
      <trkpt lat="42.9877978284312" lon="-5.1113724801737">
        <ele>1284.7585105896</ele>
        <time>2018-08-28T07:28:17Z</time>
      </trkpt>
      <trkpt lat="42.9878369300095" lon="-5.11129410937904">
        <ele>1285.37423324585</ele>
        <time>2018-08-28T07:28:19Z</time>
      </trkpt>
      <trkpt lat="42.9878834495721" lon="-5.11122043245017">
        <ele>1282.53658676147</ele>
        <time>2018-08-28T07:28:21Z</time>
      </trkpt>
      <trkpt lat="42.9879299691347" lon="-5.11115077883481">
        <ele>1281.26058578491</ele>
        <time>2018-08-28T07:28:23Z</time>
      </trkpt>
      <trkpt lat="42.9879736807598" lon="-5.11108615436136">
        <ele>1280.92525863647</ele>
        <time>2018-08-28T07:28:25Z</time>
      </trkpt>
      <trkpt lat="42.9880242236359" lon="-5.11102815159141">
        <ele>1281.7057762146</ele>
        <time>2018-08-28T07:28:27Z</time>
      </trkpt>
      <trkpt lat="42.9880628642095" lon="-5.11096964590727">
        <ele>1280.38290023804</ele>
        <time>2018-08-28T07:28:29Z</time>
      </trkpt>
      <trkpt lat="42.9880881775571" lon="-5.11088985018908">
        <ele>1281.89596176147</ele>
        <time>2018-08-28T07:28:31Z</time>
      </trkpt>
      <trkpt lat="42.9881160473851" lon="-5.11081608944117">
        <ele>1282.84273910522</ele>
        <time>2018-08-28T07:28:33Z</time>
      </trkpt>
      <trkpt lat="42.9881491559027" lon="-5.11076051742314">
        <ele>1283.0436668396</ele>
        <time>2018-08-28T07:28:35Z</time>
      </trkpt>
      <trkpt lat="42.9881881317524" lon="-5.11069622822582">
        <ele>1281.93465805054</ele>
        <time>2018-08-28T07:28:37Z</time>
      </trkpt>
      <trkpt lat="42.9882231261982" lon="-5.11062154546856">
        <ele>1281.7272605896</ele>
        <time>2018-08-28T07:28:39Z</time>
      </trkpt>
      <trkpt lat="42.9882551450683" lon="-5.11055164039611">
        <ele>1284.29793930054</ele>
        <time>2018-08-28T07:28:41Z</time>
      </trkpt>
      <trkpt lat="42.9883066937728" lon="-5.11049170978843">
        <ele>1284.22091293335</ele>
        <time>2018-08-28T07:28:43Z</time>
      </trkpt>
      <trkpt lat="42.9883595835818" lon="-5.11044242419778">
        <ele>1286.14840316772</ele>
        <time>2018-08-28T07:28:45Z</time>
      </trkpt>
      <trkpt lat="42.9884173348946" lon="-5.11039447971164">
        <ele>1287.07284164429</ele>
        <time>2018-08-28T07:28:47Z</time>
      </trkpt>
      <trkpt lat="42.9884662852092" lon="-5.1103430986452">
        <ele>1286.67245101929</ele>
        <time>2018-08-28T07:28:49Z</time>
      </trkpt>
      <trkpt lat="42.9885131819574" lon="-5.11029146612166">
        <ele>1286.7790184021</ele>
        <time>2018-08-28T07:28:51Z</time>
      </trkpt>
      <trkpt lat="42.9885546723781" lon="-5.11024301872133">
        <ele>1287.32235336304</ele>
        <time>2018-08-28T07:28:53Z</time>
      </trkpt>
      <trkpt lat="42.988598048727" lon="-5.110194571321">
        <ele>1287.10531234741</ele>
        <time>2018-08-28T07:28:55Z</time>
      </trkpt>
      <trkpt lat="42.9886408383427" lon="-5.11014377698778">
        <ele>1288.26253890991</ele>
        <time>2018-08-28T07:28:57Z</time>
      </trkpt>
      <trkpt lat="42.9886846756963" lon="-5.11009507813035">
        <ele>1287.21395492554</ele>
        <time>2018-08-28T07:28:59Z</time>
      </trkpt>
      <trkpt lat="42.9887291416926" lon="-5.11004864238678">
        <ele>1291.1061668396</ele>
        <time>2018-08-28T07:29:01Z</time>
      </trkpt>
      <trkpt lat="42.9887752002505" lon="-5.11000882834672">
        <ele>1289.6901512146</ele>
        <time>2018-08-28T07:29:03Z</time>
      </trkpt>
      <trkpt lat="42.9888238152889" lon="-5.1099701877731">
        <ele>1291.18856430054</ele>
        <time>2018-08-28T07:29:05Z</time>
      </trkpt>
      <trkpt lat="42.9888680298282" lon="-5.10993640870332">
        <ele>1291.32735824585</ele>
        <time>2018-08-28T07:29:07Z</time>
      </trkpt>
      <trkpt lat="42.9889227217464" lon="-5.10988452472269">
        <ele>1290.86703109741</ele>
        <time>2018-08-28T07:29:10Z</time>
      </trkpt>
      <trkpt lat="42.9889741866318" lon="-5.10982987471401">
        <ele>1290.71981430054</ele>
        <time>2018-08-28T07:29:13Z</time>
      </trkpt>
      <trkpt lat="42.9890205385564" lon="-5.10978058912336">
        <ele>1291.36947250366</ele>
        <time>2018-08-28T07:29:16Z</time>
      </trkpt>
      <trkpt lat="42.9890665971143" lon="-5.10973490775107">
        <ele>1293.9870262146</ele>
        <time>2018-08-28T07:29:19Z</time>
      </trkpt>
      <trkpt lat="42.9891134100435" lon="-5.10969174094974">
        <ele>1295.47750473022</ele>
        <time>2018-08-28T07:29:22Z</time>
      </trkpt>
      <trkpt lat="42.9891545651881" lon="-5.10965477675675">
        <ele>1296.18673324585</ele>
        <time>2018-08-28T07:29:25Z</time>
      </trkpt>
      <trkpt lat="42.9892043117834" lon="-5.10960557498514">
        <ele>1296.78158187866</ele>
        <time>2018-08-28T07:29:29Z</time>
      </trkpt>
      <trkpt lat="42.9892399348719" lon="-5.10955804959415">
        <ele>1299.19259262085</ele>
        <time>2018-08-28T07:29:32Z</time>
      </trkpt>
      <trkpt lat="42.9892679304285" lon="-5.10950541124224">
        <ele>1300.06795883179</ele>
        <time>2018-08-28T07:29:35Z</time>
      </trkpt>
      <trkpt lat="42.9892882146342" lon="-5.10943718255042">
        <ele>1301.78805160522</ele>
        <time>2018-08-28T07:29:38Z</time>
      </trkpt>
      <trkpt lat="42.9893013323126" lon="-5.10937708430468">
        <ele>1302.97005844116</ele>
        <time>2018-08-28T07:29:41Z</time>
      </trkpt>
      <trkpt lat="42.9893132765246" lon="-5.10929955170034">
        <ele>1305.12289047241</ele>
        <time>2018-08-28T07:29:45Z</time>
      </trkpt>
      <trkpt lat="42.989332638721" lon="-5.10923190974175">
        <ele>1305.67965316772</ele>
        <time>2018-08-28T07:29:48Z</time>
      </trkpt>
      <trkpt lat="42.9893383384151" lon="-5.109158568089">
        <ele>1304.77181625366</ele>
        <time>2018-08-28T07:29:52Z</time>
      </trkpt>
      <trkpt lat="42.9893508693604" lon="-5.10909478180586">
        <ele>1305.63729476929</ele>
        <time>2018-08-28T07:29:55Z</time>
      </trkpt>
      <trkpt lat="42.9893563595069" lon="-5.10900769383191">
        <ele>1307.90743637085</ele>
        <time>2018-08-28T07:29:59Z</time>
      </trkpt>
      <trkpt lat="42.9893680941714" lon="-5.10893007740854">
        <ele>1308.71175765991</ele>
        <time>2018-08-28T07:30:02Z</time>
      </trkpt>
      <trkpt lat="42.9893787391884" lon="-5.1088527962613">
        <ele>1309.3327293396</ele>
        <time>2018-08-28T07:30:05Z</time>
      </trkpt>
      <trkpt lat="42.9893854866205" lon="-5.10877191089569">
        <ele>1311.79354476929</ele>
        <time>2018-08-28T07:30:08Z</time>
      </trkpt>
      <trkpt lat="42.9893851932539" lon="-5.10869957507132">
        <ele>1313.2350730896</ele>
        <time>2018-08-28T07:30:11Z</time>
      </trkpt>
      <trkpt lat="42.9893927788762" lon="-5.10863017291306">
        <ele>1315.43246078491</ele>
        <time>2018-08-28T07:30:14Z</time>
      </trkpt>
      <trkpt lat="42.9894068604736" lon="-5.10856647044896">
        <ele>1315.68746566772</ele>
        <time>2018-08-28T07:30:17Z</time>
      </trkpt>
      <trkpt lat="42.9894154100148" lon="-5.10848877020656">
        <ele>1316.91073226929</ele>
        <time>2018-08-28T07:30:20Z</time>
      </trkpt>
      <trkpt lat="42.9894240014655" lon="-5.10842070915281">
        <ele>1318.72799301147</ele>
        <time>2018-08-28T07:30:23Z</time>
      </trkpt>
      <trkpt lat="42.9894346464826" lon="-5.10834502056717">
        <ele>1320.34200668335</ele>
        <time>2018-08-28T07:30:26Z</time>
      </trkpt>
      <trkpt lat="42.9894550564168" lon="-5.10826463811575">
        <ele>1319.67037582397</ele>
        <time>2018-08-28T07:30:29Z</time>
      </trkpt>
      <trkpt lat="42.9894678807286" lon="-5.10819758289038">
        <ele>1319.8825340271</ele>
        <time>2018-08-28T07:30:32Z</time>
      </trkpt>
      <trkpt lat="42.9894748796178" lon="-5.10812608525633">
        <ele>1321.14107894897</ele>
        <time>2018-08-28T07:30:35Z</time>
      </trkpt>
      <trkpt lat="42.9894820880545" lon="-5.10805659927903">
        <ele>1320.10958480835</ele>
        <time>2018-08-28T07:30:38Z</time>
      </trkpt>
      <trkpt lat="42.9894836387066" lon="-5.10797319934248">
        <ele>1322.98666000366</ele>
        <time>2018-08-28T07:30:42Z</time>
      </trkpt>
      <trkpt lat="42.9894770170031" lon="-5.1079013664323">
        <ele>1323.11544418335</ele>
        <time>2018-08-28T07:30:45Z</time>
      </trkpt>
      <trkpt lat="42.9894843092589" lon="-5.10782249272345">
        <ele>1323.40353012085</ele>
        <time>2018-08-28T07:30:48Z</time>
      </trkpt>
      <trkpt lat="42.9894929426191" lon="-5.10774470866202">
        <ele>1324.40353012085</ele>
        <time>2018-08-28T07:30:51Z</time>
      </trkpt>
      <trkpt lat="42.9894962115614" lon="-5.1076801680076">
        <ele>1324.64266586304</ele>
        <time>2018-08-28T07:30:54Z</time>
      </trkpt>
      <trkpt lat="42.9894968821136" lon="-5.10761713609575">
        <ele>1324.1413230896</ele>
        <time>2018-08-28T07:30:57Z</time>
      </trkpt>
      <trkpt lat="42.9894988937704" lon="-5.10754865594684">
        <ele>1325.57369613647</ele>
        <time>2018-08-28T07:31:00Z</time>
      </trkpt>
      <trkpt lat="42.9895139392866" lon="-5.10748076253115">
        <ele>1324.8913230896</ele>
        <time>2018-08-28T07:31:03Z</time>
      </trkpt>
      <trkpt lat="42.9895419348432" lon="-5.10741412640094">
        <ele>1326.61312484741</ele>
        <time>2018-08-28T07:31:06Z</time>
      </trkpt>
      <trkpt lat="42.9895786475791" lon="-5.10735914111613">
        <ele>1327.50106430054</ele>
        <time>2018-08-28T07:31:09Z</time>
      </trkpt>
      <trkpt lat="42.9896204732759" lon="-5.10730423965036">
        <ele>1327.2428855896</ele>
        <time>2018-08-28T07:31:12Z</time>
      </trkpt>
      <trkpt lat="42.9896599939493" lon="-5.1072485838133">
        <ele>1328.2399559021</ele>
        <time>2018-08-28T07:31:15Z</time>
      </trkpt>
      <trkpt lat="42.9897029092936" lon="-5.10720038787006">
        <ele>1329.88338851929</ele>
        <time>2018-08-28T07:31:18Z</time>
      </trkpt>
      <trkpt lat="42.9897472076518" lon="-5.10715621524035">
        <ele>1330.8922996521</ele>
        <time>2018-08-28T07:31:21Z</time>
      </trkpt>
      <trkpt lat="42.989792469929" lon="-5.10711112060128">
        <ele>1330.1510887146</ele>
        <time>2018-08-28T07:31:24Z</time>
      </trkpt>
      <trkpt lat="42.9898358462779" lon="-5.10705999099194">
        <ele>1330.39974594116</ele>
        <time>2018-08-28T07:31:27Z</time>
      </trkpt>
      <trkpt lat="42.9898765823273" lon="-5.10700768791615">
        <ele>1330.6794090271</ele>
        <time>2018-08-28T07:31:30Z</time>
      </trkpt>
      <trkpt lat="42.9899241077183" lon="-5.10695588775455">
        <ele>1331.24764633179</ele>
        <time>2018-08-28T07:31:33Z</time>
      </trkpt>
      <trkpt lat="42.989969663362" lon="-5.10691464879094">
        <ele>1331.62520980835</ele>
        <time>2018-08-28T07:31:36Z</time>
      </trkpt>
      <trkpt lat="42.9900044063507" lon="-5.10686184280096">
        <ele>1332.2282371521</ele>
        <time>2018-08-28T07:31:39Z</time>
      </trkpt>
      <trkpt lat="42.9900373053206" lon="-5.10680920444905">
        <ele>1331.62325668335</ele>
        <time>2018-08-28T07:31:43Z</time>
      </trkpt>
      <trkpt lat="42.9900730960471" lon="-5.10674994439362">
        <ele>1331.48275375366</ele>
        <time>2018-08-28T07:32:48Z</time>
      </trkpt>
      <trkpt lat="42.9901001695944" lon="-5.10669269599496">
        <ele>1331.41585922241</ele>
        <time>2018-08-28T07:32:50Z</time>
      </trkpt>
      <trkpt lat="42.9901383910729" lon="-5.10661927052318">
        <ele>1331.43282699585</ele>
        <time>2018-08-28T07:32:52Z</time>
      </trkpt>
      <trkpt lat="42.9902041051937" lon="-5.10653243400632">
        <ele>1330.37118148804</ele>
        <time>2018-08-28T07:32:54Z</time>
      </trkpt>
      <trkpt lat="42.9902452184288" lon="-5.10648675263404">
        <ele>1329.09945297241</ele>
        <time>2018-08-28T07:32:55Z</time>
      </trkpt>
      <trkpt lat="42.9903139081253" lon="-5.10645724833487">
        <ele>1327.89352035522</ele>
        <time>2018-08-28T07:32:56Z</time>
      </trkpt>
      <trkpt lat="42.9903854476688" lon="-5.10646177456258">
        <ele>1325.8171043396</ele>
        <time>2018-08-28T07:32:57Z</time>
      </trkpt>
      <trkpt lat="42.9904749663947" lon="-5.10648239404439">
        <ele>1323.6823387146</ele>
        <time>2018-08-28T07:32:58Z</time>
      </trkpt>
      <trkpt lat="42.9905701429052" lon="-5.10649823584138">
        <ele>1321.73763656616</ele>
        <time>2018-08-28T07:32:59Z</time>
      </trkpt>
      <trkpt lat="42.9906729469476" lon="-5.10651449673353">
        <ele>1321.1510887146</ele>
        <time>2018-08-28T07:33:00Z</time>
      </trkpt>
      <trkpt lat="42.9907578975363" lon="-5.10649714619397">
        <ele>1320.2194480896</ele>
        <time>2018-08-28T07:33:01Z</time>
      </trkpt>
      <trkpt lat="42.9908379447116" lon="-5.10645247065006">
        <ele>1320.59579086304</ele>
        <time>2018-08-28T07:33:02Z</time>
      </trkpt>
      <trkpt lat="42.990897204767" lon="-5.10638742708145">
        <ele>1319.0944480896</ele>
        <time>2018-08-28T07:33:03Z</time>
      </trkpt>
      <trkpt lat="42.9909417964918" lon="-5.10630620643972">
        <ele>1318.23922348022</ele>
        <time>2018-08-28T07:33:04Z</time>
      </trkpt>
      <trkpt lat="42.9909808980701" lon="-5.10623043403505">
        <ele>1317.75924301147</ele>
        <time>2018-08-28T07:33:05Z</time>
      </trkpt>
      <trkpt lat="42.9910252383379" lon="-5.1061554998207">
        <ele>1317.06234359741</ele>
        <time>2018-08-28T07:33:06Z</time>
      </trkpt>
      <trkpt lat="42.9910653876541" lon="-5.10607369244574">
        <ele>1316.32076644897</ele>
        <time>2018-08-28T07:33:07Z</time>
      </trkpt>
      <trkpt lat="42.991131185594" lon="-5.10599607602237">
        <ele>1315.66952133179</ele>
        <time>2018-08-28T07:33:08Z</time>
      </trkpt>
      <trkpt lat="42.9911991209192" lon="-5.10592407547413">
        <ele>1314.99984359741</ele>
        <time>2018-08-28T07:33:09Z</time>
      </trkpt>
      <trkpt lat="42.9912676010681" lon="-5.10585743934392">
        <ele>1314.27840805054</ele>
        <time>2018-08-28T07:33:10Z</time>
      </trkpt>
      <trkpt lat="42.9913520068331" lon="-5.10580203496395">
        <ele>1313.2536277771</ele>
        <time>2018-08-28T07:33:11Z</time>
      </trkpt>
      <trkpt lat="42.9914401425449" lon="-5.10573958978532">
        <ele>1312.49007797241</ele>
        <time>2018-08-28T07:33:12Z</time>
      </trkpt>
      <trkpt lat="42.9915190162538" lon="-5.10565753095327">
        <ele>1311.6432762146</ele>
        <time>2018-08-28T07:33:13Z</time>
      </trkpt>
      <trkpt lat="42.9915905138878" lon="-5.10556742549418">
        <ele>1311.22701644897</ele>
        <time>2018-08-28T07:33:14Z</time>
      </trkpt>
      <trkpt lat="42.9916347703366" lon="-5.10545083322106">
        <ele>1310.72652816772</ele>
        <time>2018-08-28T07:33:15Z</time>
      </trkpt>
      <trkpt lat="42.9916743329195" lon="-5.1053557824391">
        <ele>1309.69881820679</ele>
        <time>2018-08-28T07:33:16Z</time>
      </trkpt>
      <trkpt lat="42.9917187150968" lon="-5.10527556762575">
        <ele>1308.83578109741</ele>
        <time>2018-08-28T07:33:17Z</time>
      </trkpt>
      <trkpt lat="42.9917690903349" lon="-5.10520826094328">
        <ele>1307.50777816772</ele>
        <time>2018-08-28T07:33:18Z</time>
      </trkpt>
      <trkpt lat="42.9918174539162" lon="-5.10514782742141">
        <ele>1307.02267074585</ele>
        <time>2018-08-28T07:33:19Z</time>
      </trkpt>
      <trkpt lat="42.9918871075315" lon="-5.10507331230222">
        <ele>1306.50106430054</ele>
        <time>2018-08-28T07:33:20Z</time>
      </trkpt>
      <trkpt lat="42.9919420509068" lon="-5.10498303920506">
        <ele>1306.06783676147</ele>
        <time>2018-08-28T07:33:21Z</time>
      </trkpt>
      <trkpt lat="42.9919920908688" lon="-5.1048996392685">
        <ele>1305.77572250366</ele>
        <time>2018-08-28T07:33:22Z</time>
      </trkpt>
      <trkpt lat="42.9920536978571" lon="-5.10487910360573">
        <ele>1304.79940414429</ele>
        <time>2018-08-28T07:33:23Z</time>
      </trkpt>
      <trkpt lat="42.9921130417315" lon="-5.10485286824881">
        <ele>1304.0602684021</ele>
        <time>2018-08-28T07:33:24Z</time>
      </trkpt>
      <trkpt lat="42.9921774566574" lon="-5.10483358987151">
        <ele>1304.17477035522</ele>
        <time>2018-08-28T07:33:25Z</time>
      </trkpt>
      <trkpt lat="42.9922395246504" lon="-5.10480467230557">
        <ele>1304.11324691772</ele>
        <time>2018-08-28T07:33:26Z</time>
      </trkpt>
      <trkpt lat="42.9923101002751" lon="-5.10476460680841">
        <ele>1302.05758285522</ele>
        <time>2018-08-28T07:33:27Z</time>
      </trkpt>
      <trkpt lat="42.9923751019342" lon="-5.10470903479038">
        <ele>1301.51412582397</ele>
        <time>2018-08-28T07:33:28Z</time>
      </trkpt>
      <trkpt lat="42.9924398102267" lon="-5.1046197675216">
        <ele>1301.37606430054</ele>
        <time>2018-08-28T07:33:29Z</time>
      </trkpt>
      <trkpt lat="42.9925032612337" lon="-5.10453871451794">
        <ele>1300.16659164429</ele>
        <time>2018-08-28T07:33:30Z</time>
      </trkpt>
      <trkpt lat="42.9925673827929" lon="-5.10445238091527">
        <ele>1299.05001449585</ele>
        <time>2018-08-28T07:33:31Z</time>
      </trkpt>
      <trkpt lat="42.9926260561151" lon="-5.10430846363781">
        <ele>1298.94454574585</ele>
        <time>2018-08-28T07:33:32Z</time>
      </trkpt>
      <trkpt lat="42.992677143815" lon="-5.10421148501812">
        <ele>1293.49911117554</ele>
        <time>2018-08-28T07:33:33Z</time>
      </trkpt>
      <trkpt lat="42.9927405110029" lon="-5.10407201014934">
        <ele>1293.07186508179</ele>
        <time>2018-08-28T07:33:34Z</time>
      </trkpt>
      <trkpt lat="42.9927953286497" lon="-5.1039585191804">
        <ele>1294.36068344116</ele>
        <time>2018-08-28T07:33:35Z</time>
      </trkpt>
      <trkpt lat="42.992858151014" lon="-5.10385475121914">
        <ele>1293.90157699585</ele>
        <time>2018-08-28T07:33:36Z</time>
      </trkpt>
      <trkpt lat="42.9929011501772" lon="-5.10373924859343">
        <ele>1293.8024559021</ele>
        <time>2018-08-28T07:33:37Z</time>
      </trkpt>
      <trkpt lat="42.9929554649098" lon="-5.10365501046656">
        <ele>1293.75350570679</ele>
        <time>2018-08-28T07:33:38Z</time>
      </trkpt>
      <trkpt lat="42.9930130485846" lon="-5.10357722640513">
        <ele>1293.64437484741</ele>
        <time>2018-08-28T07:33:39Z</time>
      </trkpt>
      <trkpt lat="42.9930518567962" lon="-5.10350698605655">
        <ele>1292.1501121521</ele>
        <time>2018-08-28T07:33:40Z</time>
      </trkpt>
      <trkpt lat="42.9930926766647" lon="-5.10343490168928">
        <ele>1288.72884750366</ele>
        <time>2018-08-28T07:33:41Z</time>
      </trkpt>
      <trkpt lat="42.9931321554286" lon="-5.10337019339679">
        <ele>1289.17403793335</ele>
        <time>2018-08-28T07:33:42Z</time>
      </trkpt>
      <trkpt lat="42.9931632522894" lon="-5.10329852812467">
        <ele>1288.55721664429</ele>
        <time>2018-08-28T07:33:43Z</time>
      </trkpt>
      <trkpt lat="42.9931967799021" lon="-5.10323247872768">
        <ele>1288.41805648804</ele>
        <time>2018-08-28T07:33:44Z</time>
      </trkpt>
      <trkpt lat="42.993223099078" lon="-5.10317489505289">
        <ele>1287.22005844116</ele>
        <time>2018-08-28T07:33:45Z</time>
      </trkpt>
      <trkpt lat="42.9932358814804" lon="-5.10311236605523">
        <ele>1286.41122055054</ele>
        <time>2018-08-28T07:33:46Z</time>
      </trkpt>
      <trkpt lat="42.9932505079014" lon="-5.10305260308562">
        <ele>1286.19430160522</ele>
        <time>2018-08-28T07:33:47Z</time>
      </trkpt>
      <trkpt lat="42.9932566686002" lon="-5.10298797861217">
        <ele>1286.25326156616</ele>
        <time>2018-08-28T07:33:48Z</time>
      </trkpt>
      <trkpt lat="42.9932694090931" lon="-5.10292612016676">
        <ele>1286.11129379272</ele>
        <time>2018-08-28T07:33:49Z</time>
      </trkpt>
      <trkpt lat="42.993277204263" lon="-5.10281933472036">
        <ele>1283.50521469116</ele>
        <time>2018-08-28T07:33:51Z</time>
      </trkpt>
      <trkpt lat="42.9933030624343" lon="-5.10276535526393">
        <ele>1282.94637680054</ele>
        <time>2018-08-28T07:33:52Z</time>
      </trkpt>
      <trkpt lat="42.9933377635134" lon="-5.10272604413806">
        <ele>1283.48287582397</ele>
        <time>2018-08-28T07:33:53Z</time>
      </trkpt>
      <trkpt lat="42.9933735961495" lon="-5.10268840939282">
        <ele>1283.23287582397</ele>
        <time>2018-08-28T07:33:54Z</time>
      </trkpt>
      <trkpt lat="42.9934199899835" lon="-5.10268078186093">
        <ele>1283.01852035522</ele>
        <time>2018-08-28T07:33:55Z</time>
      </trkpt>
      <trkpt lat="42.9935046472056" lon="-5.10267172940551">
        <ele>1283.2839012146</ele>
        <time>2018-08-28T07:33:57Z</time>
      </trkpt>
      <trkpt lat="42.9935540166153" lon="-5.10266795754908">
        <ele>1283.59066390991</ele>
        <time>2018-08-28T07:33:58Z</time>
      </trkpt>
      <trkpt lat="42.9936131928516" lon="-5.1026653591591">
        <ele>1283.91292953491</ele>
        <time>2018-08-28T07:33:59Z</time>
      </trkpt>
      <trkpt lat="42.9936643643705" lon="-5.10264842771469">
        <ele>1284.06539535522</ele>
        <time>2018-08-28T07:34:00Z</time>
      </trkpt>
      <trkpt lat="42.9937024182109" lon="-5.10261062533139">
        <ele>1284.07870101929</ele>
        <time>2018-08-28T07:34:01Z</time>
      </trkpt>
      <trkpt lat="42.9937469261167" lon="-5.10251758620618">
        <ele>1282.75814437866</ele>
        <time>2018-08-28T07:34:03Z</time>
      </trkpt>
      <trkpt lat="42.9937646957515" lon="-5.10240971111236">
        <ele>1283.19906234741</ele>
        <time>2018-08-28T07:34:05Z</time>
      </trkpt>
      <trkpt lat="42.9937724909214" lon="-5.10234659538148">
        <ele>1283.70663070679</ele>
        <time>2018-08-28T07:34:06Z</time>
      </trkpt>
      <trkpt lat="42.9937695991648" lon="-5.10223637335478">
        <ele>1284.46187973022</ele>
        <time>2018-08-28T07:34:08Z</time>
      </trkpt>
      <trkpt lat="42.9937709402693" lon="-5.10216889903425">
        <ele>1284.39205551147</ele>
        <time>2018-08-28T07:34:09Z</time>
      </trkpt>
      <trkpt lat="42.9937763465969" lon="-5.10206471197782">
        <ele>1283.72762680054</ele>
        <time>2018-08-28T07:34:11Z</time>
      </trkpt>
      <trkpt lat="42.9937826749338" lon="-5.10200352408467">
        <ele>1283.59225082397</ele>
        <time>2018-08-28T07:34:12Z</time>
      </trkpt>
      <trkpt lat="42.9938065633578" lon="-5.1019068807411">
        <ele>1283.08089828491</ele>
        <time>2018-08-28T07:34:14Z</time>
      </trkpt>
      <trkpt lat="42.9938228661595" lon="-5.1018191222149">
        <ele>1282.2233543396</ele>
        <time>2018-08-28T07:34:16Z</time>
      </trkpt>
      <trkpt lat="42.9938503168924" lon="-5.10172658600388">
        <ele>1281.59457015991</ele>
        <time>2018-08-28T07:34:18Z</time>
      </trkpt>
      <trkpt lat="42.9939066432817" lon="-5.10165710002659">
        <ele>1282.03341293335</ele>
        <time>2018-08-28T07:34:20Z</time>
      </trkpt>
      <trkpt lat="42.9939624248473" lon="-5.10166095570205">
        <ele>1281.82735824585</ele>
        <time>2018-08-28T07:34:21Z</time>
      </trkpt>
      <trkpt lat="42.9940415500132" lon="-5.10160152800856">
        <ele>1282.05550765991</ele>
        <time>2018-08-28T07:34:23Z</time>
      </trkpt>
      <trkpt lat="42.99407386225" lon="-5.10155626573144">
        <ele>1282.2311668396</ele>
        <time>2018-08-28T07:34:24Z</time>
      </trkpt>
      <trkpt lat="42.9941051686583" lon="-5.10150178336082">
        <ele>1283.60653305054</ele>
        <time>2018-08-28T07:34:25Z</time>
      </trkpt>
      <trkpt lat="42.9941415042085" lon="-5.10145677254079">
        <ele>1284.2292137146</ele>
        <time>2018-08-28T07:34:26Z</time>
      </trkpt>
      <trkpt lat="42.9941781750349" lon="-5.10135065764664">
        <ele>1284.53658676147</ele>
        <time>2018-08-28T07:34:28Z</time>
      </trkpt>
      <trkpt lat="42.9942358425287" lon="-5.10126030073045">
        <ele>1284.57406234741</ele>
        <time>2018-08-28T07:34:30Z</time>
      </trkpt>
      <trkpt lat="42.9942857567621" lon="-5.10117958300291">
        <ele>1284.68539047241</ele>
        <time>2018-08-28T07:34:32Z</time>
      </trkpt>
      <trkpt lat="42.9943418736039" lon="-5.10111093521593">
        <ele>1284.78658676147</ele>
        <time>2018-08-28T07:34:34Z</time>
      </trkpt>
      <trkpt lat="42.9944044864206" lon="-5.10104052722929">
        <ele>1286.05196762085</ele>
        <time>2018-08-28T07:34:36Z</time>
      </trkpt>
      <trkpt lat="42.9944431689037" lon="-5.10099970736085">
        <ele>1285.83797836304</ele>
        <time>2018-08-28T07:34:37Z</time>
      </trkpt>
      <trkpt lat="42.9944787081731" lon="-5.10095871985434">
        <ele>1285.45064926147</ele>
        <time>2018-08-28T07:34:38Z</time>
      </trkpt>
      <trkpt lat="42.9945331067247" lon="-5.10089233518122">
        <ele>1285.86043930054</ele>
        <time>2018-08-28T07:34:40Z</time>
      </trkpt>
      <trkpt lat="42.9946070351107" lon="-5.10086425580559">
        <ele>1286.40389633179</ele>
        <time>2018-08-28T07:34:42Z</time>
      </trkpt>
      <trkpt lat="42.9946525069354" lon="-5.10086685419558">
        <ele>1286.28475570679</ele>
        <time>2018-08-28T07:34:43Z</time>
      </trkpt>
      <trkpt lat="42.994729410897" lon="-5.1008774992126">
        <ele>1284.37325668335</ele>
        <time>2018-08-28T07:34:45Z</time>
      </trkpt>
      <trkpt lat="42.9947847314579" lon="-5.10088219307838">
        <ele>1283.50374984741</ele>
        <time>2018-08-28T07:34:46Z</time>
      </trkpt>
      <trkpt lat="42.9948464222653" lon="-5.10086383671043">
        <ele>1282.99813461304</ele>
        <time>2018-08-28T07:34:47Z</time>
      </trkpt>
      <trkpt lat="42.9948989348886" lon="-5.10080675594984">
        <ele>1282.42171859741</ele>
        <time>2018-08-28T07:34:48Z</time>
      </trkpt>
      <trkpt lat="42.9949443648038" lon="-5.10073567741094">
        <ele>1282.06466293335</ele>
        <time>2018-08-28T07:34:49Z</time>
      </trkpt>
      <trkpt lat="42.9949854361294" lon="-5.10065462440727">
        <ele>1283.60873031616</ele>
        <time>2018-08-28T07:34:50Z</time>
      </trkpt>
      <trkpt lat="42.9950091988249" lon="-5.10055177845536">
        <ele>1282.9938621521</ele>
        <time>2018-08-28T07:34:51Z</time>
      </trkpt>
      <trkpt lat="42.9950298183067" lon="-5.10044331662832">
        <ele>1283.65707015991</ele>
        <time>2018-08-28T07:34:52Z</time>
      </trkpt>
      <trkpt lat="42.9950375296576" lon="-5.10033510625837">
        <ele>1283.38302230835</ele>
        <time>2018-08-28T07:34:53Z</time>
      </trkpt>
      <trkpt lat="42.9950388707621" lon="-5.10022111237524">
        <ele>1280.68746566772</ele>
        <time>2018-08-28T07:34:54Z</time>
      </trkpt>
      <trkpt lat="42.9950229870556" lon="-5.10011533275722">
        <ele>1280.38705062866</ele>
        <time>2018-08-28T07:34:55Z</time>
      </trkpt>
      <trkpt lat="42.9950136831431" lon="-5.10000318289278">
        <ele>1279.97408676147</ele>
        <time>2018-08-28T07:34:56Z</time>
      </trkpt>
      <trkpt lat="42.995021562132" lon="-5.09989706799863">
        <ele>1278.17684555054</ele>
        <time>2018-08-28T07:34:57Z</time>
      </trkpt>
      <trkpt lat="42.9950292315734" lon="-5.09980235249279">
        <ele>1277.95345687866</ele>
        <time>2018-08-28T07:34:58Z</time>
      </trkpt>
      <trkpt lat="42.9950683331517" lon="-5.09974250570415">
        <ele>1277.49898910522</ele>
        <time>2018-08-28T07:34:59Z</time>
      </trkpt>
      <trkpt lat="42.9951252043648" lon="-5.09972339496491">
        <ele>1277.43087387085</ele>
        <time>2018-08-28T07:35:00Z</time>
      </trkpt>
      <trkpt lat="42.9951741546793" lon="-5.09974284098027">
        <ele>1276.86312484741</ele>
        <time>2018-08-28T07:35:01Z</time>
      </trkpt>
      <trkpt lat="42.9952179082138" lon="-5.09981567971883">
        <ele>1275.71175765991</ele>
        <time>2018-08-28T07:35:02Z</time>
      </trkpt>
      <trkpt lat="42.9952531541167" lon="-5.09989229031382">
        <ele>1274.68697738647</ele>
        <time>2018-08-28T07:35:03Z</time>
      </trkpt>
      <trkpt lat="42.9952784674643" lon="-5.09997359477458">
        <ele>1273.69710922241</ele>
        <time>2018-08-28T07:35:04Z</time>
      </trkpt>
      <trkpt lat="42.9953112407057" lon="-5.10005942546306">
        <ele>1274.6930809021</ele>
        <time>2018-08-28T07:35:05Z</time>
      </trkpt>
      <trkpt lat="42.9953564610733" lon="-5.10012396611748">
        <ele>1274.95248031616</ele>
        <time>2018-08-28T07:35:06Z</time>
      </trkpt>
      <trkpt lat="42.9954128293721" lon="-5.10014634579895">
        <ele>1274.41439437866</ele>
        <time>2018-08-28T07:35:07Z</time>
      </trkpt>
      <trkpt lat="42.9954643780766" lon="-5.1001284923452">
        <ele>1273.71737289429</ele>
        <time>2018-08-28T07:35:08Z</time>
      </trkpt>
      <trkpt lat="42.9955098079918" lon="-5.10008289479194">
        <ele>1272.90462875366</ele>
        <time>2018-08-28T07:35:09Z</time>
      </trkpt>
      <trkpt lat="42.9955548607213" lon="-5.10001055896757">
        <ele>1274.11898422241</ele>
        <time>2018-08-28T07:35:10Z</time>
      </trkpt>
      <trkpt lat="42.9955943394853" lon="-5.09993260726808">
        <ele>1273.88521957397</ele>
        <time>2018-08-28T07:35:11Z</time>
      </trkpt>
      <trkpt lat="42.9956054035975" lon="-5.09981391951917">
        <ele>1273.68551254272</ele>
        <time>2018-08-28T07:35:12Z</time>
      </trkpt>
      <trkpt lat="42.9956401465861" lon="-5.09971233085273">
        <ele>1272.41976547241</ele>
        <time>2018-08-28T07:35:13Z</time>
      </trkpt>
      <trkpt lat="42.99567962535" lon="-5.09960705414889">
        <ele>1269.78658676147</ele>
        <time>2018-08-28T07:35:14Z</time>
      </trkpt>
      <trkpt lat="42.9957176791904" lon="-5.09947948158262">
        <ele>1268.13851547241</ele>
        <time>2018-08-28T07:35:15Z</time>
      </trkpt>
      <trkpt lat="42.9957668809621" lon="-5.099350987007">
        <ele>1267.17831039429</ele>
        <time>2018-08-28T07:35:16Z</time>
      </trkpt>
      <trkpt lat="42.9958277754886" lon="-5.09921788238464">
        <ele>1266.15365219116</ele>
        <time>2018-08-28T07:35:17Z</time>
      </trkpt>
      <trkpt lat="42.9958877480058" lon="-5.09908829816161">
        <ele>1267.14706039429</ele>
        <time>2018-08-28T07:35:18Z</time>
      </trkpt>
      <trkpt lat="42.9959685914619" lon="-5.0989883858758">
        <ele>1265.55697250366</ele>
        <time>2018-08-28T07:35:19Z</time>
      </trkpt>
      <trkpt lat="42.9960549250645" lon="-5.09890674613891">
        <ele>1263.82223129272</ele>
        <time>2018-08-28T07:35:20Z</time>
      </trkpt>
      <trkpt lat="42.9961422225861" lon="-5.09882762097297">
        <ele>1262.85897445679</ele>
        <time>2018-08-28T07:35:21Z</time>
      </trkpt>
      <trkpt lat="42.9962252034275" lon="-5.09874489158867">
        <ele>1263.25106430054</ele>
        <time>2018-08-28T07:35:22Z</time>
      </trkpt>
      <trkpt lat="42.996311201754" lon="-5.09867171757398">
        <ele>1263.15609359741</ele>
        <time>2018-08-28T07:35:23Z</time>
      </trkpt>
      <trkpt lat="42.9963900754629" lon="-5.0985930115032">
        <ele>1262.74569320679</ele>
        <time>2018-08-28T07:35:24Z</time>
      </trkpt>
      <trkpt lat="42.9964739364041" lon="-5.09851036593793">
        <ele>1261.22408676147</ele>
        <time>2018-08-28T07:35:25Z</time>
      </trkpt>
      <trkpt lat="42.9965678556291" lon="-5.09842411615429">
        <ele>1260.29684066772</ele>
        <time>2018-08-28T07:35:26Z</time>
      </trkpt>
      <trkpt lat="42.9966347013069" lon="-5.09833627380906">
        <ele>1260.79000473022</ele>
        <time>2018-08-28T07:35:27Z</time>
      </trkpt>
      <trkpt lat="42.9966976493997" lon="-5.09823594242809">
        <ele>1259.23788070679</ele>
        <time>2018-08-28T07:35:28Z</time>
      </trkpt>
      <trkpt lat="42.9967505811183" lon="-5.09813041426716">
        <ele>1258.89388656616</ele>
        <time>2018-08-28T07:35:29Z</time>
      </trkpt>
      <trkpt lat="42.9967914848057" lon="-5.09802991524813">
        <ele>1257.96334457397</ele>
        <time>2018-08-28T07:35:30Z</time>
      </trkpt>
      <trkpt lat="42.9968385491921" lon="-5.09792765602944">
        <ele>1256.39669418335</ele>
        <time>2018-08-28T07:35:31Z</time>
      </trkpt>
      <trkpt lat="42.9968732083617" lon="-5.09783595800875">
        <ele>1254.67000961304</ele>
        <time>2018-08-28T07:35:32Z</time>
      </trkpt>
      <trkpt lat="42.9969140701396" lon="-5.09774635546384">
        <ele>1253.53133773804</ele>
        <time>2018-08-28T07:35:33Z</time>
      </trkpt>
      <trkpt lat="42.9969556862889" lon="-5.09766773321209">
        <ele>1252.5339012146</ele>
        <time>2018-08-28T07:35:34Z</time>
      </trkpt>
      <trkpt lat="42.9969910579203" lon="-5.09758215398071">
        <ele>1253.06563949585</ele>
        <time>2018-08-28T07:35:35Z</time>
      </trkpt>
      <trkpt lat="42.9970139824254" lon="-5.09749590419708">
        <ele>1252.59884262085</ele>
        <time>2018-08-28T07:35:36Z</time>
      </trkpt>
      <trkpt lat="42.9970333027122" lon="-5.09739708155868">
        <ele>1252.08749008179</ele>
        <time>2018-08-28T07:35:37Z</time>
      </trkpt>
      <trkpt lat="42.9970555147557" lon="-5.09728996083615">
        <ele>1249.99789047241</ele>
        <time>2018-08-28T07:35:38Z</time>
      </trkpt>
      <trkpt lat="42.9970811214698" lon="-5.09717303328691">
        <ele>1250.23690414429</ele>
        <time>2018-08-28T07:35:39Z</time>
      </trkpt>
      <trkpt lat="42.9971061414508" lon="-5.09705577046154">
        <ele>1249.17196273804</ele>
        <time>2018-08-28T07:35:40Z</time>
      </trkpt>
      <trkpt lat="42.9971207259623" lon="-5.09693431668458">
        <ele>1246.88070297241</ele>
        <time>2018-08-28T07:35:41Z</time>
      </trkpt>
      <trkpt lat="42.9971405910728" lon="-5.09683398530362">
        <ele>1244.22713851929</ele>
        <time>2018-08-28T07:35:42Z</time>
      </trkpt>
      <trkpt lat="42.9971949896244" lon="-5.09672694840012">
        <ele>1243.71529769897</ele>
        <time>2018-08-28T07:35:43Z</time>
      </trkpt>
      <trkpt lat="42.9972495558141" lon="-5.09663198143718">
        <ele>1244.20785140991</ele>
        <time>2018-08-28T07:35:44Z</time>
      </trkpt>
      <trkpt lat="42.9973020265279" lon="-5.09654070251165">
        <ele>1244.18282699585</ele>
        <time>2018-08-28T07:35:45Z</time>
      </trkpt>
      <trkpt lat="42.9973882344021" lon="-5.09643634781716">
        <ele>1243.42184066772</ele>
        <time>2018-08-28T07:35:46Z</time>
      </trkpt>
      <trkpt lat="42.9974314012034" lon="-5.09632788599012">
        <ele>1242.87301254272</ele>
        <time>2018-08-28T07:35:47Z</time>
      </trkpt>
      <trkpt lat="42.9974733526288" lon="-5.09621934034405">
        <ele>1242.4596824646</ele>
        <time>2018-08-28T07:35:48Z</time>
      </trkpt>
      <trkpt lat="42.9975114483787" lon="-5.0961145665544">
        <ele>1243.52267074585</ele>
        <time>2018-08-28T07:35:49Z</time>
      </trkpt>
      <trkpt lat="42.9975479934765" lon="-5.09600853547928">
        <ele>1242.9411277771</ele>
        <time>2018-08-28T07:35:50Z</time>
      </trkpt>
      <trkpt lat="42.9975802218942" lon="-5.09591876529632">
        <ele>1242.34774398804</ele>
        <time>2018-08-28T07:35:51Z</time>
      </trkpt>
      <trkpt lat="42.9976105224742" lon="-5.09582388215242">
        <ele>1240.37850570679</ele>
        <time>2018-08-28T07:35:52Z</time>
      </trkpt>
      <trkpt lat="42.9976478638528" lon="-5.09572556242821">
        <ele>1238.60091781616</ele>
        <time>2018-08-28T07:35:53Z</time>
      </trkpt>
      <trkpt lat="42.9977020947663" lon="-5.09562070481954">
        <ele>1237.03499984741</ele>
        <time>2018-08-28T07:35:54Z</time>
      </trkpt>
      <trkpt lat="42.9977802141039" lon="-5.09554124437747">
        <ele>1235.1979637146</ele>
        <time>2018-08-28T07:35:55Z</time>
      </trkpt>
      <trkpt lat="42.9978338582842" lon="-5.09543932043491">
        <ele>1233.58590316772</ele>
        <time>2018-08-28T07:35:56Z</time>
      </trkpt>
      <trkpt lat="42.9978867480932" lon="-5.09533890523491">
        <ele>1232.35689926147</ele>
        <time>2018-08-28T07:35:57Z</time>
      </trkpt>
      <trkpt lat="42.9979246342955" lon="-5.09522667155144">
        <ele>1231.82967758179</ele>
        <time>2018-08-28T07:35:58Z</time>
      </trkpt>
      <trkpt lat="42.9979431583015" lon="-5.09511083364961">
        <ele>1231.60726547241</ele>
        <time>2018-08-28T07:35:59Z</time>
      </trkpt>
      <trkpt lat="42.997965621802" lon="-5.09500698186932">
        <ele>1231.63924789429</ele>
        <time>2018-08-28T07:36:00Z</time>
      </trkpt>
      <trkpt lat="42.9979973473055" lon="-5.09490044788001">
        <ele>1230.74959945679</ele>
        <time>2018-08-28T07:36:01Z</time>
      </trkpt>
      <trkpt lat="42.9980244208528" lon="-5.09480916895447">
        <ele>1232.10982894897</ele>
        <time>2018-08-28T07:36:02Z</time>
      </trkpt>
      <trkpt lat="42.9980473034484" lon="-5.09471193887768">
        <ele>1232.0973777771</ele>
        <time>2018-08-28T07:36:03Z</time>
      </trkpt>
      <trkpt lat="42.9980709823249" lon="-5.09463440627334">
        <ele>1232.17489242554</ele>
        <time>2018-08-28T07:36:04Z</time>
      </trkpt>
      <trkpt lat="42.998091056983" lon="-5.09454304352877">
        <ele>1233.1520652771</ele>
        <time>2018-08-28T07:36:05Z</time>
      </trkpt>
      <trkpt lat="42.9981117183743" lon="-5.09444648400424">
        <ele>1232.72323226929</ele>
        <time>2018-08-28T07:36:06Z</time>
      </trkpt>
      <trkpt lat="42.9981286917282" lon="-5.09433718398688">
        <ele>1231.48885726929</ele>
        <time>2018-08-28T07:36:07Z</time>
      </trkpt>
      <trkpt lat="42.9981489759339" lon="-5.09423584677753">
        <ele>1230.1520652771</ele>
        <time>2018-08-28T07:36:08Z</time>
      </trkpt>
      <trkpt lat="42.9981692601396" lon="-5.0941305700737">
        <ele>1229.76961898804</ele>
        <time>2018-08-28T07:36:09Z</time>
      </trkpt>
      <trkpt lat="42.9981906339927" lon="-5.09401800111411">
        <ele>1228.11764144897</ele>
        <time>2018-08-28T07:36:10Z</time>
      </trkpt>
      <trkpt lat="42.9982204316584" lon="-5.0939061865258">
        <ele>1226.76583480835</ele>
        <time>2018-08-28T07:36:11Z</time>
      </trkpt>
      <trkpt lat="42.998261670622" lon="-5.09378942661462">
        <ele>1225.37813949585</ele>
        <time>2018-08-28T07:36:12Z</time>
      </trkpt>
      <trkpt lat="42.9983173264591" lon="-5.09367333725569">
        <ele>1224.13985824585</ele>
        <time>2018-08-28T07:36:13Z</time>
      </trkpt>
      <trkpt lat="42.9983816156564" lon="-5.09355699643967">
        <ele>1223.06832504272</ele>
        <time>2018-08-28T07:36:14Z</time>
      </trkpt>
      <trkpt lat="42.9984575556992" lon="-5.09345297702131">
        <ele>1222.32577133179</ele>
        <time>2018-08-28T07:36:15Z</time>
      </trkpt>
      <trkpt lat="42.998535046394" lon="-5.09335624985871">
        <ele>1220.86739730835</ele>
        <time>2018-08-28T07:36:16Z</time>
      </trkpt>
      <trkpt lat="42.9986203741683" lon="-5.09326924570379">
        <ele>1221.40670394897</ele>
        <time>2018-08-28T07:36:17Z</time>
      </trkpt>
      <trkpt lat="42.9987078812374" lon="-5.09319271892783">
        <ele>1221.04671859741</ele>
        <time>2018-08-28T07:36:18Z</time>
      </trkpt>
      <trkpt lat="42.9987870483128" lon="-5.09310822934387">
        <ele>1220.2770652771</ele>
        <time>2018-08-28T07:36:19Z</time>
      </trkpt>
      <trkpt lat="42.998858713585" lon="-5.09302902035889">
        <ele>1220.05282211304</ele>
        <time>2018-08-28T07:36:20Z</time>
      </trkpt>
      <trkpt lat="42.9989318456901" lon="-5.0929510686594">
        <ele>1219.52840805054</ele>
        <time>2018-08-28T07:36:21Z</time>
      </trkpt>
      <trkpt lat="42.9990045587001" lon="-5.09285903536258">
        <ele>1218.80379867554</ele>
        <time>2018-08-28T07:36:22Z</time>
      </trkpt>
      <trkpt lat="42.9990588315232" lon="-5.09276054800031">
        <ele>1218.31759262085</ele>
        <time>2018-08-28T07:36:23Z</time>
      </trkpt>
      <trkpt lat="42.9991043871669" lon="-5.09265686385808">
        <ele>1218.04793930054</ele>
        <time>2018-08-28T07:36:24Z</time>
      </trkpt>
      <trkpt lat="42.9991092067612" lon="-5.0925678480464">
        <ele>1217.77389144897</ele>
        <time>2018-08-28T07:36:25Z</time>
      </trkpt>
      <trkpt lat="42.9991306644334" lon="-5.09246684611318">
        <ele>1216.8327293396</ele>
        <time>2018-08-28T07:36:26Z</time>
      </trkpt>
      <trkpt lat="42.9991558520524" lon="-5.09235813282904">
        <ele>1216.45797348022</ele>
        <time>2018-08-28T07:36:27Z</time>
      </trkpt>
      <trkpt lat="42.9991745436965" lon="-5.09224212728915">
        <ele>1219.01937484741</ele>
        <time>2018-08-28T07:36:28Z</time>
      </trkpt>
      <trkpt lat="42.9991973843826" lon="-5.0921204220551">
        <ele>1218.60897445679</ele>
        <time>2018-08-28T07:36:29Z</time>
      </trkpt>
      <trkpt lat="42.9992260085819" lon="-5.09199452586946">
        <ele>1217.48092269897</ele>
        <time>2018-08-28T07:36:30Z</time>
      </trkpt>
      <trkpt lat="42.999248597811" lon="-5.09187391028282">
        <ele>1217.3825340271</ele>
        <time>2018-08-28T07:36:31Z</time>
      </trkpt>
      <trkpt lat="42.9993071034951" lon="-5.09175455198166">
        <ele>1215.97445297241</ele>
        <time>2018-08-28T07:36:32Z</time>
      </trkpt>
      <trkpt lat="42.9993444029642" lon="-5.09165824391422">
        <ele>1215.16463851929</ele>
        <time>2018-08-28T07:36:33Z</time>
      </trkpt>
      <trkpt lat="42.9993962031258" lon="-5.09155740961907">
        <ele>1213.49203109741</ele>
        <time>2018-08-28T07:36:34Z</time>
      </trkpt>
      <trkpt lat="42.9994519846914" lon="-5.09144810960171">
        <ele>1212.96322250366</ele>
        <time>2018-08-28T07:36:35Z</time>
      </trkpt>
      <trkpt lat="42.9995245300634" lon="-5.09137225337801">
        <ele>1212.92794418335</ele>
        <time>2018-08-28T07:36:36Z</time>
      </trkpt>
      <trkpt lat="42.9995203391118" lon="-5.09125079960105">
        <ele>1211.33028793335</ele>
        <time>2018-08-28T07:36:37Z</time>
      </trkpt>
      <trkpt lat="42.9995271703629" lon="-5.09111987427351">
        <ele>1210.77486801147</ele>
        <time>2018-08-28T07:36:38Z</time>
      </trkpt>
      <trkpt lat="42.9995228536827" lon="-5.09095315821943">
        <ele>1210.98849105835</ele>
        <time>2018-08-28T07:36:39Z</time>
      </trkpt>
      <trkpt lat="42.9995339597045" lon="-5.09080136195299">
        <ele>1209.91793441772</ele>
        <time>2018-08-28T07:36:40Z</time>
      </trkpt>
      <trkpt lat="42.999560488428" lon="-5.09067429230091">
        <ele>1206.97957992554</ele>
        <time>2018-08-28T07:36:41Z</time>
      </trkpt>
      <trkpt lat="42.9995811917288" lon="-5.09053381160376">
        <ele>1205.76156234741</ele>
        <time>2018-08-28T07:36:42Z</time>
      </trkpt>
      <trkpt lat="42.9996003862871" lon="-5.09040900506553">
        <ele>1203.26937484741</ele>
        <time>2018-08-28T07:36:43Z</time>
      </trkpt>
      <trkpt lat="42.9995847121282" lon="-5.09025678970394">
        <ele>1200.85384750366</ele>
        <time>2018-08-28T07:36:44Z</time>
      </trkpt>
      <trkpt lat="42.9995703371642" lon="-5.09011656046388">
        <ele>1199.67269515991</ele>
        <time>2018-08-28T07:36:45Z</time>
      </trkpt>
      <trkpt lat="42.9995705467118" lon="-5.08999460377273">
        <ele>1200.65511703491</ele>
        <time>2018-08-28T07:36:46Z</time>
      </trkpt>
      <trkpt lat="42.9995772103248" lon="-5.08989075199244">
        <ele>1200.72274398804</ele>
        <time>2018-08-28T07:36:47Z</time>
      </trkpt>
      <trkpt lat="42.9995891964464" lon="-5.08979503065822">
        <ele>1200.69845199585</ele>
        <time>2018-08-28T07:36:48Z</time>
      </trkpt>
      <trkpt lat="42.9996039066864" lon="-5.08970878087458">
        <ele>1200.29598617554</ele>
        <time>2018-08-28T07:36:49Z</time>
      </trkpt>
      <trkpt lat="42.9996089358283" lon="-5.08964046836373">
        <ele>1200.52535629272</ele>
        <time>2018-08-28T07:36:50Z</time>
      </trkpt>
      <trkpt lat="42.999616060446" lon="-5.08953971788761">
        <ele>1196.47030258179</ele>
        <time>2018-08-28T07:36:52Z</time>
      </trkpt>
      <trkpt lat="42.999613378237" lon="-5.08944827132401">
        <ele>1196.85201644897</ele>
        <time>2018-08-28T07:36:54Z</time>
      </trkpt>
      <trkpt lat="42.9996210895879" lon="-5.08935129270431">
        <ele>1195.59920883179</ele>
        <time>2018-08-28T07:36:56Z</time>
      </trkpt>
      <trkpt lat="42.9996432178123" lon="-5.08923361078379">
        <ele>1194.92806625366</ele>
        <time>2018-08-28T07:36:58Z</time>
      </trkpt>
      <trkpt lat="42.9996541142864" lon="-5.08916169405457">
        <ele>1193.32650375366</ele>
        <time>2018-08-28T07:36:59Z</time>
      </trkpt>
      <trkpt lat="42.9996550362958" lon="-5.08902632631835">
        <ele>1191.75155258179</ele>
        <time>2018-08-28T07:37:01Z</time>
      </trkpt>
      <trkpt lat="42.9996454809261" lon="-5.08894024417278">
        <ele>1190.14437484741</ele>
        <time>2018-08-28T07:37:02Z</time>
      </trkpt>
      <trkpt lat="42.9996402841462" lon="-5.0888493843424">
        <ele>1189.36361312866</ele>
        <time>2018-08-28T07:37:03Z</time>
      </trkpt>
      <trkpt lat="42.9996391106797" lon="-5.08875961415944">
        <ele>1189.56466293335</ele>
        <time>2018-08-28T07:37:04Z</time>
      </trkpt>
      <trkpt lat="42.9996285494817" lon="-5.08865232579884">
        <ele>1187.89901351929</ele>
        <time>2018-08-28T07:37:05Z</time>
      </trkpt>
      <trkpt lat="42.9996244842587" lon="-5.08854855783758">
        <ele>1186.99117660522</ele>
        <time>2018-08-28T07:37:06Z</time>
      </trkpt>
      <trkpt lat="42.9996295553101" lon="-5.08844051510569">
        <ele>1187.00924301147</ele>
        <time>2018-08-28T07:37:07Z</time>
      </trkpt>
      <trkpt lat="42.9996285494817" lon="-5.08833087981221">
        <ele>1187.13668441772</ele>
        <time>2018-08-28T07:37:08Z</time>
      </trkpt>
      <trkpt lat="42.9996140487893" lon="-5.08822007105228">
        <ele>1187.01583480835</ele>
        <time>2018-08-28T07:37:09Z</time>
      </trkpt>
      <trkpt lat="42.999609480652" lon="-5.08811512962458">
        <ele>1185.96236801147</ele>
        <time>2018-08-28T07:37:10Z</time>
      </trkpt>
      <trkpt lat="42.9996065050764" lon="-5.08800767362592">
        <ele>1186.21505355835</ele>
        <time>2018-08-28T07:37:11Z</time>
      </trkpt>
      <trkpt lat="42.9995934293075" lon="-5.08790893480656">
        <ele>1186.13302230835</ele>
        <time>2018-08-28T07:37:12Z</time>
      </trkpt>
      <trkpt lat="42.9995809821812" lon="-5.08780818433043">
        <ele>1185.06649398804</ele>
        <time>2018-08-28T07:37:13Z</time>
      </trkpt>
      <trkpt lat="42.9995643021939" lon="-5.08771455847201">
        <ele>1185.55416488647</ele>
        <time>2018-08-28T07:37:14Z</time>
      </trkpt>
      <trkpt lat="42.9995518969772" lon="-5.08761841804263">
        <ele>1185.19466781616</ele>
        <time>2018-08-28T07:37:15Z</time>
      </trkpt>
      <trkpt lat="42.9995332472427" lon="-5.08752521127936">
        <ele>1185.77962875366</ele>
        <time>2018-08-28T07:37:16Z</time>
      </trkpt>
      <trkpt lat="42.9995174473552" lon="-5.08742697537419">
        <ele>1185.43099594116</ele>
        <time>2018-08-28T07:37:17Z</time>
      </trkpt>
      <trkpt lat="42.999506467062" lon="-5.08733460680124">
        <ele>1185.21297836304</ele>
        <time>2018-08-28T07:37:18Z</time>
      </trkpt>
      <trkpt lat="42.9995072633428" lon="-5.08722212166068">
        <ele>1184.14254379272</ele>
        <time>2018-08-28T07:37:19Z</time>
      </trkpt>
      <trkpt lat="42.9995243205158" lon="-5.08710217662629">
        <ele>1182.68343734741</ele>
        <time>2018-08-28T07:37:20Z</time>
      </trkpt>
      <trkpt lat="42.9995575128524" lon="-5.0869756098884">
        <ele>1181.06161117554</ele>
        <time>2018-08-28T07:37:21Z</time>
      </trkpt>
      <trkpt lat="42.9995951475976" lon="-5.08684359491345">
        <ele>1180.41402816772</ele>
        <time>2018-08-28T07:37:22Z</time>
      </trkpt>
      <trkpt lat="42.9996442655502" lon="-5.08672105148908">
        <ele>1180.18416976929</ele>
        <time>2018-08-28T07:37:23Z</time>
      </trkpt>
      <trkpt lat="42.9997015558584" lon="-5.08659959771213">
        <ele>1179.15511703491</ele>
        <time>2018-08-28T07:37:24Z</time>
      </trkpt>
      <trkpt lat="42.9997562896861" lon="-5.08648015559193">
        <ele>1178.87630844116</ele>
        <time>2018-08-28T07:37:25Z</time>
      </trkpt>
      <trkpt lat="42.9997991212113" lon="-5.08635853417691">
        <ele>1177.98556137085</ele>
        <time>2018-08-28T07:37:26Z</time>
      </trkpt>
      <trkpt lat="42.9998324392764" lon="-5.08624345064637">
        <ele>1178.51351547241</ele>
        <time>2018-08-28T07:37:27Z</time>
      </trkpt>
      <trkpt lat="42.9998600157378" lon="-5.08613331243869">
        <ele>1179.02584457397</ele>
        <time>2018-08-28T07:37:28Z</time>
      </trkpt>
      <trkpt lat="42.9998845328046" lon="-5.086046895017">
        <ele>1178.89242172241</ele>
        <time>2018-08-28T07:37:29Z</time>
      </trkpt>
      <trkpt lat="42.9999151686607" lon="-5.08596500382301">
        <ele>1180.59432601929</ele>
        <time>2018-08-28T07:37:30Z</time>
      </trkpt>
      <trkpt lat="42.9999586707382" lon="-5.08589032106575">
        <ele>1180.56087875366</ele>
        <time>2018-08-28T07:37:31Z</time>
      </trkpt>
      <trkpt lat="43.0000015441729" lon="-5.08582234383103">
        <ele>1181.24959945679</ele>
        <time>2018-08-28T07:37:32Z</time>
      </trkpt>
      <trkpt lat="43.0000453396169" lon="-5.08577934466776">
        <ele>1181.37826156616</ele>
        <time>2018-08-28T07:37:33Z</time>
      </trkpt>
      <trkpt lat="43.0001095869048" lon="-5.08573274128613">
        <ele>1181.28133773804</ele>
        <time>2018-08-28T07:37:35Z</time>
      </trkpt>
      <trkpt lat="43.000173540826" lon="-5.08566769771751">
        <ele>1180.03084945679</ele>
        <time>2018-08-28T07:37:37Z</time>
      </trkpt>
      <trkpt lat="43.0002016202016" lon="-5.08561547846076">
        <ele>1180.14852523804</ele>
        <time>2018-08-28T07:37:38Z</time>
      </trkpt>
      <trkpt lat="43.0002380814804" lon="-5.08555571549114">
        <ele>1179.4108543396</ele>
        <time>2018-08-28T07:37:39Z</time>
      </trkpt>
      <trkpt lat="43.000268759246" lon="-5.08548329584774">
        <ele>1178.6979637146</ele>
        <time>2018-08-28T07:37:40Z</time>
      </trkpt>
      <trkpt lat="43.0003137281565" lon="-5.0854076072621">
        <ele>1178.6003074646</ele>
        <time>2018-08-28T07:37:41Z</time>
      </trkpt>
      <trkpt lat="43.0003566015912" lon="-5.08533158340034">
        <ele>1177.29098129272</ele>
        <time>2018-08-28T07:37:42Z</time>
      </trkpt>
      <trkpt lat="43.0004137242613" lon="-5.08525891229984">
        <ele>1177.1999168396</ele>
        <time>2018-08-28T07:37:43Z</time>
      </trkpt>
      <trkpt lat="43.0004666559799" lon="-5.08517886512455">
        <ele>1177.40060043335</ele>
        <time>2018-08-28T07:37:44Z</time>
      </trkpt>
      <trkpt lat="43.0005399557231" lon="-5.08509915322539">
        <ele>1177.99520492554</ele>
        <time>2018-08-28T07:37:45Z</time>
      </trkpt>
      <trkpt lat="43.0005948152794" lon="-5.08501684293624">
        <ele>1177.35860824585</ele>
        <time>2018-08-28T07:37:46Z</time>
      </trkpt>
      <trkpt lat="43.0006555002583" lon="-5.08493696339902">
        <ele>1177.33297348022</ele>
        <time>2018-08-28T07:37:47Z</time>
      </trkpt>
      <trkpt lat="43.0007127067475" lon="-5.08485616185245">
        <ele>1177.0719871521</ele>
        <time>2018-08-28T07:37:48Z</time>
      </trkpt>
      <trkpt lat="43.0007667700229" lon="-5.08476580493626">
        <ele>1177.97603988647</ele>
        <time>2018-08-28T07:37:49Z</time>
      </trkpt>
      <trkpt lat="43.0008136248616" lon="-5.08467678912457">
        <ele>1177.4381980896</ele>
        <time>2018-08-28T07:37:50Z</time>
      </trkpt>
      <trkpt lat="43.0008606054289" lon="-5.08458374999937">
        <ele>1177.21773910522</ele>
        <time>2018-08-28T07:37:51Z</time>
      </trkpt>
      <trkpt lat="43.0008465657411" lon="-5.08446296677467">
        <ele>1178.74020004272</ele>
        <time>2018-08-28T07:37:52Z</time>
      </trkpt>
      <trkpt lat="43.0008035246683" lon="-5.08435400203344">
        <ele>1178.01229476929</ele>
        <time>2018-08-28T07:37:53Z</time>
      </trkpt>
      <trkpt lat="43.0007627467094" lon="-5.08426071145114">
        <ele>1176.76119613647</ele>
        <time>2018-08-28T07:37:54Z</time>
      </trkpt>
      <trkpt lat="43.000732655677" lon="-5.08416121826049">
        <ele>1175.32503890991</ele>
        <time>2018-08-28T07:37:55Z</time>
      </trkpt>
      <trkpt lat="43.0007330747722" lon="-5.08406943642076">
        <ele>1174.60628890991</ele>
        <time>2018-08-28T07:37:56Z</time>
      </trkpt>
      <trkpt lat="43.0007238546787" lon="-5.08399005979773">
        <ele>1173.9323387146</ele>
        <time>2018-08-28T07:37:57Z</time>
      </trkpt>
      <trkpt lat="43.00072460905" lon="-5.08391671814498">
        <ele>1174.63802719116</ele>
        <time>2018-08-28T07:37:58Z</time>
      </trkpt>
      <trkpt lat="43.0007319851248" lon="-5.08385133930024">
        <ele>1175.48031234741</ele>
        <time>2018-08-28T07:37:59Z</time>
      </trkpt>
      <trkpt lat="43.0007302668346" lon="-5.08372636512395">
        <ele>1171.53182601929</ele>
        <time>2018-08-28T07:38:01Z</time>
      </trkpt>
      <trkpt lat="43.0007170234276" lon="-5.08365235291895">
        <ele>1170.41097640991</ele>
        <time>2018-08-28T07:38:02Z</time>
      </trkpt>
      <trkpt lat="43.0007114075525" lon="-5.08358906955">
        <ele>1170.05428695679</ele>
        <time>2018-08-28T07:38:03Z</time>
      </trkpt>
      <trkpt lat="43.0006962782172" lon="-5.08350801654633">
        <ele>1167.49178695679</ele>
        <time>2018-08-28T07:38:04Z</time>
      </trkpt>
      <trkpt lat="43.0006946856556" lon="-5.08343157358941">
        <ele>1168.03231430054</ele>
        <time>2018-08-28T07:38:05Z</time>
      </trkpt>
      <trkpt lat="43.0007004272593" lon="-5.08336334489759">
        <ele>1166.6178855896</ele>
        <time>2018-08-28T07:38:06Z</time>
      </trkpt>
      <trkpt lat="43.0007049953965" lon="-5.08329369128224">
        <ele>1166.7809715271</ele>
        <time>2018-08-28T07:38:07Z</time>
      </trkpt>
      <trkpt lat="43.0006985413311" lon="-5.08321758360144">
        <ele>1168.45125961304</ele>
        <time>2018-08-28T07:38:08Z</time>
      </trkpt>
      <trkpt lat="43.0007000081642" lon="-5.08308573626455">
        <ele>1171.07870101929</ele>
        <time>2018-08-28T07:38:10Z</time>
      </trkpt>
      <trkpt lat="43.0007069232343" lon="-5.08300032467123">
        <ele>1169.87557601929</ele>
        <time>2018-08-28T07:38:11Z</time>
      </trkpt>
      <trkpt lat="43.0007161014182" lon="-5.08292798884686">
        <ele>1171.35836410522</ele>
        <time>2018-08-28T07:38:12Z</time>
      </trkpt>
      <trkpt lat="43.0007344577862" lon="-5.08285297081348">
        <ele>1171.39950180054</ele>
        <time>2018-08-28T07:38:13Z</time>
      </trkpt>
      <trkpt lat="43.0007473659171" lon="-5.08278055117008">
        <ele>1171.50057601929</ele>
        <time>2018-08-28T07:38:14Z</time>
      </trkpt>
      <trkpt lat="43.0007523112399" lon="-5.08271726780113">
        <ele>1171.43880844116</ele>
        <time>2018-08-28T07:38:15Z</time>
      </trkpt>
      <trkpt lat="43.0007489584787" lon="-5.082632359122">
        <ele>1170.60860824585</ele>
        <time>2018-08-28T07:38:16Z</time>
      </trkpt>
      <trkpt lat="43.0007509701354" lon="-5.08255767636474">
        <ele>1171.03426742554</ele>
        <time>2018-08-28T07:38:17Z</time>
      </trkpt>
      <trkpt lat="43.0007594358576" lon="-5.08247461170431">
        <ele>1170.72799301147</ele>
        <time>2018-08-28T07:38:18Z</time>
      </trkpt>
      <trkpt lat="43.0007787142349" lon="-5.08237302303788">
        <ele>1169.52877426147</ele>
        <time>2018-08-28T07:38:19Z</time>
      </trkpt>
      <trkpt lat="43.0008060811488" lon="-5.08227797225591">
        <ele>1168.95028305054</ele>
        <time>2018-08-28T07:38:20Z</time>
      </trkpt>
      <trkpt lat="43.0008248147024" lon="-5.08220203221318">
        <ele>1169.00582504272</ele>
        <time>2018-08-28T07:38:21Z</time>
      </trkpt>
      <trkpt lat="43.0008591805054" lon="-5.08214302361485">
        <ele>1167.31820297241</ele>
        <time>2018-08-28T07:38:22Z</time>
      </trkpt>
      <trkpt lat="43.0008952645985" lon="-5.08205945604023">
        <ele>1166.92184066772</ele>
        <time>2018-08-28T07:38:23Z</time>
      </trkpt>
      <trkpt lat="43.0008914089231" lon="-5.08195334114608">
        <ele>1165.16537094116</ele>
        <time>2018-08-28T07:38:24Z</time>
      </trkpt>
      <trkpt lat="43.0008883495284" lon="-5.08185728453573">
        <ele>1163.77962875366</ele>
        <time>2018-08-28T07:38:25Z</time>
      </trkpt>
      <trkpt lat="43.0008870922429" lon="-5.08175938390669">
        <ele>1163.72945785522</ele>
        <time>2018-08-28T07:38:26Z</time>
      </trkpt>
      <trkpt lat="43.0008702446176" lon="-5.08165997453507">
        <ele>1162.48153305054</ele>
        <time>2018-08-28T07:38:27Z</time>
      </trkpt>
      <trkpt lat="43.0008695740653" lon="-5.08156207390603">
        <ele>1161.81161117554</ele>
        <time>2018-08-28T07:38:28Z</time>
      </trkpt>
      <trkpt lat="43.0008643353758" lon="-5.0814599823254">
        <ele>1160.9059715271</ele>
        <time>2018-08-28T07:38:29Z</time>
      </trkpt>
      <trkpt lat="43.000869951251" lon="-5.08135076612707">
        <ele>1160.59408187866</ele>
        <time>2018-08-28T07:38:30Z</time>
      </trkpt>
      <trkpt lat="43.0008790456159" lon="-5.08124875836548">
        <ele>1160.57015609741</ele>
        <time>2018-08-28T07:38:31Z</time>
      </trkpt>
      <trkpt lat="43.0008997908263" lon="-5.08114666678485">
        <ele>1160.72689437866</ele>
        <time>2018-08-28T07:38:32Z</time>
      </trkpt>
      <trkpt lat="43.0009224219648" lon="-5.08104491048034">
        <ele>1161.3161277771</ele>
        <time>2018-08-28T07:38:33Z</time>
      </trkpt>
      <trkpt lat="43.0009515909879" lon="-5.08094684221324">
        <ele>1161.20650863647</ele>
        <time>2018-08-28T07:38:34Z</time>
      </trkpt>
      <trkpt lat="43.0009746412216" lon="-5.08085288107868">
        <ele>1160.71932601929</ele>
        <time>2018-08-28T07:38:35Z</time>
      </trkpt>
      <trkpt lat="43.0010010442166" lon="-5.08075917140123">
        <ele>1160.2214012146</ele>
        <time>2018-08-28T07:38:36Z</time>
      </trkpt>
      <trkpt lat="43.0010245135454" lon="-5.08067065850373">
        <ele>1160.61800765991</ele>
        <time>2018-08-28T07:38:37Z</time>
      </trkpt>
      <trkpt lat="43.0010442948369" lon="-5.08057770319756">
        <ele>1160.95394515991</ele>
        <time>2018-08-28T07:38:38Z</time>
      </trkpt>
      <trkpt lat="43.0010677641658" lon="-5.08047812618788">
        <ele>1161.16353988647</ele>
        <time>2018-08-28T07:38:39Z</time>
      </trkpt>
      <trkpt lat="43.0010868329955" lon="-5.08038776927169">
        <ele>1161.56148910522</ele>
        <time>2018-08-28T07:38:40Z</time>
      </trkpt>
      <trkpt lat="43.0011049798159" lon="-5.08028852753814">
        <ele>1161.42025375366</ele>
        <time>2018-08-28T07:38:41Z</time>
      </trkpt>
      <trkpt lat="43.0011294549732" lon="-5.08019297384199">
        <ele>1161.79928207397</ele>
        <time>2018-08-28T07:38:42Z</time>
      </trkpt>
      <trkpt lat="43.0011604680149" lon="-5.08010043763097">
        <ele>1161.84457015991</ele>
        <time>2018-08-28T07:38:43Z</time>
      </trkpt>
      <trkpt lat="43.0011817161394" lon="-5.08001259528574">
        <ele>1161.67123031616</ele>
        <time>2018-08-28T07:38:44Z</time>
      </trkpt>
      <trkpt lat="43.0012129806383" lon="-5.07991226390477">
        <ele>1161.59749984741</ele>
        <time>2018-08-28T07:38:45Z</time>
      </trkpt>
      <trkpt lat="43.0012490228219" lon="-5.07982475683566">
        <ele>1161.55367660522</ele>
        <time>2018-08-28T07:38:46Z</time>
      </trkpt>
      <trkpt lat="43.0012807902349" lon="-5.0797482300597">
        <ele>1159.40230941772</ele>
        <time>2018-08-28T07:38:47Z</time>
      </trkpt>
      <trkpt lat="43.0013164552329" lon="-5.07966273464736">
        <ele>1158.35079574585</ele>
        <time>2018-08-28T07:38:48Z</time>
      </trkpt>
      <trkpt lat="43.0013385415478" lon="-5.07956827059861">
        <ele>1158.20833969116</ele>
        <time>2018-08-28T07:38:49Z</time>
      </trkpt>
      <trkpt lat="43.0013595382152" lon="-5.07946483791348">
        <ele>1157.93709945679</ele>
        <time>2018-08-28T07:38:50Z</time>
      </trkpt>
      <trkpt lat="43.0013767630262" lon="-5.07937003858861">
        <ele>1158.67184066772</ele>
        <time>2018-08-28T07:38:51Z</time>
      </trkpt>
      <trkpt lat="43.0013934849231" lon="-5.07926685736056">
        <ele>1158.99325180054</ele>
        <time>2018-08-28T07:38:52Z</time>
      </trkpt>
      <trkpt lat="43.0013958737655" lon="-5.07915923372384">
        <ele>1159.22933578491</ele>
        <time>2018-08-28T07:38:53Z</time>
      </trkpt>
      <trkpt lat="43.0013962928606" lon="-5.07905781269547">
        <ele>1160.88363265991</ele>
        <time>2018-08-28T07:38:54Z</time>
      </trkpt>
      <trkpt lat="43.0014000228075" lon="-5.07895387709614">
        <ele>1160.82735824585</ele>
        <time>2018-08-28T07:38:55Z</time>
      </trkpt>
      <trkpt lat="43.0014073569728" lon="-5.07884734310683">
        <ele>1160.41585922241</ele>
        <time>2018-08-28T07:38:56Z</time>
      </trkpt>
      <trkpt lat="43.0014226539461" lon="-5.07873209193822">
        <ele>1159.08834457397</ele>
        <time>2018-08-28T07:38:57Z</time>
      </trkpt>
      <trkpt lat="43.0014477577461" lon="-5.0786139071035">
        <ele>1157.76986312866</ele>
        <time>2018-08-28T07:38:58Z</time>
      </trkpt>
      <trkpt lat="43.0014677485852" lon="-5.07850276306745">
        <ele>1156.6676902771</ele>
        <time>2018-08-28T07:38:59Z</time>
      </trkpt>
      <trkpt lat="43.001500479917" lon="-5.07838323712822">
        <ele>1156.33883285522</ele>
        <time>2018-08-28T07:39:00Z</time>
      </trkpt>
      <trkpt lat="43.001534761901" lon="-5.07826630957898">
        <ele>1156.02291488647</ele>
        <time>2018-08-28T07:39:01Z</time>
      </trkpt>
      <trkpt lat="43.0015778448833" lon="-5.07815390825745">
        <ele>1155.72555160522</ele>
        <time>2018-08-28T07:39:02Z</time>
      </trkpt>
      <trkpt lat="43.0016195029421" lon="-5.07803505287047">
        <ele>1155.54696273804</ele>
        <time>2018-08-28T07:39:03Z</time>
      </trkpt>
      <trkpt lat="43.0016609933628" lon="-5.07791686803575">
        <ele>1154.95174789429</ele>
        <time>2018-08-28T07:39:04Z</time>
      </trkpt>
      <trkpt lat="43.0017190380422" lon="-5.07781402208384">
        <ele>1153.95980453491</ele>
        <time>2018-08-28T07:39:05Z</time>
      </trkpt>
      <trkpt lat="43.0017831596015" lon="-5.07771142758902">
        <ele>1153.38778305054</ele>
        <time>2018-08-28T07:39:06Z</time>
      </trkpt>
      <trkpt lat="43.0018582614539" lon="-5.07760615088518">
        <ele>1152.8014793396</ele>
        <time>2018-08-28T07:39:07Z</time>
      </trkpt>
      <trkpt lat="43.0019381409911" lon="-5.07749726996299">
        <ele>1152.26778793335</ele>
        <time>2018-08-28T07:39:08Z</time>
      </trkpt>
      <trkpt lat="43.0020269472552" lon="-5.07738654502209">
        <ele>1151.5143699646</ele>
        <time>2018-08-28T07:39:09Z</time>
      </trkpt>
      <trkpt lat="43.0021196930138" lon="-5.07725503296133">
        <ele>1150.55392074585</ele>
        <time>2018-08-28T07:39:10Z</time>
      </trkpt>
      <trkpt lat="43.0022144923387" lon="-5.07712645456668">
        <ele>1150.14852523804</ele>
        <time>2018-08-28T07:39:11Z</time>
      </trkpt>
      <trkpt lat="43.0022942880569" lon="-5.07700064220007">
        <ele>1149.92000961304</ele>
        <time>2018-08-28T07:39:12Z</time>
      </trkpt>
      <trkpt lat="43.0023848545207" lon="-5.07688849233564">
        <ele>1150.06978988647</ele>
        <time>2018-08-28T07:39:13Z</time>
      </trkpt>
      <trkpt lat="43.0024894606723" lon="-5.07680945098873">
        <ele>1149.57906723022</ele>
        <time>2018-08-28T07:39:14Z</time>
      </trkpt>
      <trkpt lat="43.002593270543" lon="-5.07674633525785">
        <ele>1148.67635726929</ele>
        <time>2018-08-28T07:39:15Z</time>
      </trkpt>
      <trkpt lat="43.0027017323701" lon="-5.07669772021945">
        <ele>1148.63705062866</ele>
        <time>2018-08-28T07:39:16Z</time>
      </trkpt>
      <trkpt lat="43.0028130440442" lon="-5.07664466277238">
        <ele>1149.42013168335</ele>
        <time>2018-08-28T07:39:17Z</time>
      </trkpt>
      <trkpt lat="43.002915722358" lon="-5.07657961920377">
        <ele>1149.8854637146</ele>
        <time>2018-08-28T07:39:18Z</time>
      </trkpt>
      <trkpt lat="43.0030062888218" lon="-5.07649848238106">
        <ele>1149.68587875366</ele>
        <time>2018-08-28T07:39:19Z</time>
      </trkpt>
      <trkpt lat="43.0030946340812" lon="-5.07642262615736">
        <ele>1149.99984359741</ele>
        <time>2018-08-28T07:39:20Z</time>
      </trkpt>
      <trkpt lat="43.0031909421487" lon="-5.0763550680178">
        <ele>1149.45443344116</ele>
        <time>2018-08-28T07:39:21Z</time>
      </trkpt>
      <trkpt lat="43.0032840231834" lon="-5.07628256455537">
        <ele>1149.31356430054</ele>
        <time>2018-08-28T07:39:22Z</time>
      </trkpt>
      <trkpt lat="43.0033710692478" lon="-5.07620511577006">
        <ele>1149.1051902771</ele>
        <time>2018-08-28T07:39:23Z</time>
      </trkpt>
      <trkpt lat="43.0034524994371" lon="-5.07611098699744">
        <ele>1148.66219711304</ele>
        <time>2018-08-28T07:39:24Z</time>
      </trkpt>
      <trkpt lat="43.0035211053146" lon="-5.0760059617507">
        <ele>1147.87618637085</ele>
        <time>2018-08-28T07:39:25Z</time>
      </trkpt>
      <trkpt lat="43.0035931477724" lon="-5.07589649409528">
        <ele>1147.81539535522</ele>
        <time>2018-08-28T07:39:26Z</time>
      </trkpt>
      <trkpt lat="43.0036452413006" lon="-5.07577881217476">
        <ele>1146.88241195679</ele>
        <time>2018-08-28T07:39:27Z</time>
      </trkpt>
      <trkpt lat="43.003695323172" lon="-5.07565492764588">
        <ele>1146.81722640991</ele>
        <time>2018-08-28T07:39:28Z</time>
      </trkpt>
      <trkpt lat="43.003738950978" lon="-5.07552794181283">
        <ele>1146.82247543335</ele>
        <time>2018-08-28T07:39:29Z</time>
      </trkpt>
      <trkpt lat="43.0037800223036" lon="-5.07540238090332">
        <ele>1146.52743148804</ele>
        <time>2018-08-28T07:39:30Z</time>
      </trkpt>
      <trkpt lat="43.0038319901032" lon="-5.07529031485792">
        <ele>1146.39950180054</ele>
        <time>2018-08-28T07:39:31Z</time>
      </trkpt>
      <trkpt lat="43.0038876459403" lon="-5.07518352941151">
        <ele>1146.44027328491</ele>
        <time>2018-08-28T07:39:32Z</time>
      </trkpt>
      <trkpt lat="43.0039204610912" lon="-5.0750616565394">
        <ele>1146.8415184021</ele>
        <time>2018-08-28T07:39:33Z</time>
      </trkpt>
      <trkpt lat="43.0039347941456" lon="-5.07493953221019">
        <ele>1146.18563461304</ele>
        <time>2018-08-28T07:39:34Z</time>
      </trkpt>
      <trkpt lat="43.0039508035807" lon="-5.07481573150034">
        <ele>1145.75130844116</ele>
        <time>2018-08-28T07:39:35Z</time>
      </trkpt>
      <trkpt lat="43.0039769970281" lon="-5.07469419390436">
        <ele>1144.79183578491</ele>
        <time>2018-08-28T07:39:36Z</time>
      </trkpt>
      <trkpt lat="43.0040158890588" lon="-5.07456854917582">
        <ele>1144.51754379272</ele>
        <time>2018-08-28T07:39:37Z</time>
      </trkpt>
      <trkpt lat="43.0040575890271" lon="-5.07443963550504">
        <ele>1143.49129867554</ele>
        <time>2018-08-28T07:39:38Z</time>
      </trkpt>
      <trkpt lat="43.0040992889954" lon="-5.07430971600588">
        <ele>1143.15951156616</ele>
        <time>2018-08-28T07:39:39Z</time>
      </trkpt>
      <trkpt lat="43.004139144945" lon="-5.07417703047867">
        <ele>1142.57894515991</ele>
        <time>2018-08-28T07:39:40Z</time>
      </trkpt>
      <trkpt lat="43.0041824793844" lon="-5.07404191419955">
        <ele>1141.88387680054</ele>
        <time>2018-08-28T07:39:41Z</time>
      </trkpt>
      <trkpt lat="43.0042235088004" lon="-5.07391300052877">
        <ele>1141.63497543335</ele>
        <time>2018-08-28T07:39:42Z</time>
      </trkpt>
      <trkpt lat="43.0042631971119" lon="-5.07378291339155">
        <ele>1141.8630027771</ele>
        <time>2018-08-28T07:39:43Z</time>
      </trkpt>
      <trkpt lat="43.004291150759" lon="-5.07365307771142">
        <ele>1141.9020652771</ele>
        <time>2018-08-28T07:39:44Z</time>
      </trkpt>
      <trkpt lat="43.0043134466214" lon="-5.07352525368805">
        <ele>1142.01498031616</ele>
        <time>2018-08-28T07:39:45Z</time>
      </trkpt>
      <trkpt lat="43.0043321382655" lon="-5.07340413518722">
        <ele>1142.7428855896</ele>
        <time>2018-08-28T07:39:46Z</time>
      </trkpt>
      <trkpt lat="43.0043448368488" lon="-5.07328955457087">
        <ele>1143.30123519897</ele>
        <time>2018-08-28T07:39:47Z</time>
      </trkpt>
      <trkpt lat="43.0043593794508" lon="-5.07318519987638">
        <ele>1144.50008773804</ele>
        <time>2018-08-28T07:39:48Z</time>
      </trkpt>
      <trkpt lat="43.0043733353196" lon="-5.07309023291345">
        <ele>1143.9596824646</ele>
        <time>2018-08-28T07:39:49Z</time>
      </trkpt>
      <trkpt lat="43.0043911887733" lon="-5.07297447883065">
        <ele>1144.30135726929</ele>
        <time>2018-08-28T07:39:50Z</time>
      </trkpt>
      <trkpt lat="43.0044009536905" lon="-5.07286777720328">
        <ele>1142.64364242554</ele>
        <time>2018-08-28T07:39:51Z</time>
      </trkpt>
      <trkpt lat="43.0044147838308" lon="-5.07274950854953">
        <ele>1142.30233383179</ele>
        <time>2018-08-28T07:39:52Z</time>
      </trkpt>
      <trkpt lat="43.0044099642364" lon="-5.072621265431">
        <ele>1142.82125473022</ele>
        <time>2018-08-28T07:39:53Z</time>
      </trkpt>
      <trkpt lat="43.0044084135843" lon="-5.07249419577892">
        <ele>1141.75692367554</ele>
        <time>2018-08-28T07:39:54Z</time>
      </trkpt>
      <trkpt lat="43.0044270633189" lon="-5.07237232290681">
        <ele>1141.02877426147</ele>
        <time>2018-08-28T07:39:55Z</time>
      </trkpt>
      <trkpt lat="43.0044538434995" lon="-5.07224860601599">
        <ele>1140.03145980835</ele>
        <time>2018-08-28T07:39:56Z</time>
      </trkpt>
      <trkpt lat="43.0045241676671" lon="-5.07215078920598">
        <ele>1138.37923812866</ele>
        <time>2018-08-28T07:39:57Z</time>
      </trkpt>
      <trkpt lat="43.0045827571703" lon="-5.07204609923537">
        <ele>1137.95541000366</ele>
        <time>2018-08-28T07:39:58Z</time>
      </trkpt>
      <trkpt lat="43.0046453280775" lon="-5.07193881087477">
        <ele>1137.26681137085</ele>
        <time>2018-08-28T07:39:59Z</time>
      </trkpt>
      <trkpt lat="43.0047182506351" lon="-5.07183361798997">
        <ele>1136.53060531616</ele>
        <time>2018-08-28T07:40:00Z</time>
      </trkpt>
      <trkpt lat="43.0047948612301" lon="-5.07173018530484">
        <ele>1135.79928207397</ele>
        <time>2018-08-28T07:40:01Z</time>
      </trkpt>
      <trkpt lat="43.0048676999686" lon="-5.07162197493489">
        <ele>1135.1208152771</ele>
        <time>2018-08-28T07:40:02Z</time>
      </trkpt>
      <trkpt lat="43.0049408739833" lon="-5.07151477039333">
        <ele>1134.24081039429</ele>
        <time>2018-08-28T07:40:03Z</time>
      </trkpt>
      <trkpt lat="43.0050153052835" lon="-5.07141343318398">
        <ele>1133.2546043396</ele>
        <time>2018-08-28T07:40:04Z</time>
      </trkpt>
      <trkpt lat="43.0050954362778" lon="-5.07132332772489">
        <ele>1132.54256820679</ele>
        <time>2018-08-28T07:40:05Z</time>
      </trkpt>
      <trkpt lat="43.0051785847573" lon="-5.07123632356997">
        <ele>1132.15816879272</ele>
        <time>2018-08-28T07:40:06Z</time>
      </trkpt>
      <trkpt lat="43.0052582547469" lon="-5.0711552705663">
        <ele>1131.50216293335</ele>
        <time>2018-08-28T07:40:07Z</time>
      </trkpt>
      <trkpt lat="43.0053432891546" lon="-5.07108687423642">
        <ele>1131.3581199646</ele>
        <time>2018-08-28T07:40:08Z</time>
      </trkpt>
      <trkpt lat="43.0054233363299" lon="-5.07102166302974">
        <ele>1131.17416000366</ele>
        <time>2018-08-28T07:40:09Z</time>
      </trkpt>
      <trkpt lat="43.0054970551683" lon="-5.07095645182307">
        <ele>1130.9362449646</ele>
        <time>2018-08-28T07:40:10Z</time>
      </trkpt>
      <trkpt lat="43.0055761384247" lon="-5.070892833178">
        <ele>1130.88338851929</ele>
        <time>2018-08-28T07:40:11Z</time>
      </trkpt>
      <trkpt lat="43.0056629749416" lon="-5.07082695141907">
        <ele>1130.8913230896</ele>
        <time>2018-08-28T07:40:12Z</time>
      </trkpt>
      <trkpt lat="43.0057359394087" lon="-5.0707802642184">
        <ele>1131.04134750366</ele>
        <time>2018-08-28T07:40:13Z</time>
      </trkpt>
      <trkpt lat="43.0058063054858" lon="-5.0707319006371">
        <ele>1131.03536605835</ele>
        <time>2018-08-28T07:40:14Z</time>
      </trkpt>
      <trkpt lat="43.0058772582961" lon="-5.07068688981707">
        <ele>1131.11568832397</ele>
        <time>2018-08-28T07:40:15Z</time>
      </trkpt>
      <trkpt lat="43.005944187793" lon="-5.07064514793928">
        <ele>1131.32076644897</ele>
        <time>2018-08-28T07:40:16Z</time>
      </trkpt>
      <trkpt lat="43.0060193315549" lon="-5.07060575299437">
        <ele>1131.16915512085</ele>
        <time>2018-08-28T07:40:17Z</time>
      </trkpt>
      <trkpt lat="43.0060944334073" lon="-5.07056677714462">
        <ele>1131.29793930054</ele>
        <time>2018-08-28T07:40:18Z</time>
      </trkpt>
      <trkpt lat="43.006162410642" lon="-5.07054121233995">
        <ele>1131.5378074646</ele>
        <time>2018-08-28T07:40:19Z</time>
      </trkpt>
      <trkpt lat="43.0062406557081" lon="-5.07052277215297">
        <ele>1131.47848129272</ele>
        <time>2018-08-28T07:40:20Z</time>
      </trkpt>
      <trkpt lat="43.0063186074076" lon="-5.07050785236533">
        <ele>1131.33248519897</ele>
        <time>2018-08-28T07:40:21Z</time>
      </trkpt>
      <trkpt lat="43.0063973553879" lon="-5.07050332613762">
        <ele>1131.46505355835</ele>
        <time>2018-08-28T07:40:22Z</time>
      </trkpt>
      <trkpt lat="43.0064691882981" lon="-5.07049544714863">
        <ele>1131.34579086304</ele>
        <time>2018-08-28T07:40:23Z</time>
      </trkpt>
      <trkpt lat="43.0065408535702" lon="-5.07050014101441">
        <ele>1131.02962875366</ele>
        <time>2018-08-28T07:40:24Z</time>
      </trkpt>
      <trkpt lat="43.0066201463742" lon="-5.07049854845281">
        <ele>1131.08431625366</ele>
        <time>2018-08-28T07:40:25Z</time>
      </trkpt>
      <trkpt lat="43.0066960445074" lon="-5.0704818684655">
        <ele>1131.33712387085</ele>
        <time>2018-08-28T07:40:26Z</time>
      </trkpt>
      <trkpt lat="43.006771565455" lon="-5.07049360312994">
        <ele>1131.1803855896</ele>
        <time>2018-08-28T07:40:27Z</time>
      </trkpt>
      <trkpt lat="43.0068433983652" lon="-5.07050684653695">
        <ele>1131.12813949585</ele>
        <time>2018-08-28T07:40:28Z</time>
      </trkpt>
      <trkpt lat="43.0069112079619" lon="-5.07051724009688">
        <ele>1130.8649559021</ele>
        <time>2018-08-28T07:40:29Z</time>
      </trkpt>
      <trkpt lat="43.0069824541388" lon="-5.07052729838069">
        <ele>1130.43343734741</ele>
        <time>2018-08-28T07:40:30Z</time>
      </trkpt>
      <trkpt lat="43.0070472043408" lon="-5.07050978020306">
        <ele>1130.29610824585</ele>
        <time>2018-08-28T07:40:31Z</time>
      </trkpt>
      <trkpt lat="43.0071192887081" lon="-5.07050919346984">
        <ele>1129.63082504272</ele>
        <time>2018-08-28T07:40:32Z</time>
      </trkpt>
      <trkpt lat="43.0071853800146" lon="-5.07046158425982">
        <ele>1128.06893539429</ele>
        <time>2018-08-28T07:40:33Z</time>
      </trkpt>
      <trkpt lat="43.0072557880012" lon="-5.07040827535565">
        <ele>1127.30880355835</ele>
        <time>2018-08-28T07:40:34Z</time>
      </trkpt>
      <trkpt lat="43.0073128687618" lon="-5.07031029090757">
        <ele>1127.85445785522</ele>
        <time>2018-08-28T07:40:35Z</time>
      </trkpt>
      <trkpt lat="43.0073742662026" lon="-5.07024424151058">
        <ele>1126.94491195679</ele>
        <time>2018-08-28T07:40:36Z</time>
      </trkpt>
      <trkpt lat="43.0074345320864" lon="-5.07019478828187">
        <ele>1125.24996566772</ele>
        <time>2018-08-28T07:40:37Z</time>
      </trkpt>
      <trkpt lat="43.0074975639982" lon="-5.07015120238538">
        <ele>1124.97884750366</ele>
        <time>2018-08-28T07:40:38Z</time>
      </trkpt>
      <trkpt lat="43.0075614341004" lon="-5.0701227039146">
        <ele>1125.29696273804</ele>
        <time>2018-08-28T07:40:39Z</time>
      </trkpt>
      <trkpt lat="43.0076054810016" lon="-5.07010376081343">
        <ele>1125.0036277771</ele>
        <time>2018-08-28T07:40:40Z</time>
      </trkpt>
      <trkpt lat="43.0076614302052" lon="-5.07009110413964">
        <ele>1124.87154769897</ele>
        <time>2018-08-28T07:40:41Z</time>
      </trkpt>
      <trkpt lat="43.0077266833214" lon="-5.07007475942845">
        <ele>1124.91683578491</ele>
        <time>2018-08-28T07:40:42Z</time>
      </trkpt>
      <trkpt lat="43.0077900085999" lon="-5.07006964646752">
        <ele>1125.10860824585</ele>
        <time>2018-08-28T07:40:43Z</time>
      </trkpt>
      <trkpt lat="43.0078509869454" lon="-5.0700553134131">
        <ele>1125.15670394897</ele>
        <time>2018-08-28T07:40:44Z</time>
      </trkpt>
      <trkpt lat="43.0079159047855" lon="-5.0700291618752">
        <ele>1125.90743637085</ele>
        <time>2018-08-28T07:40:45Z</time>
      </trkpt>
      <trkpt lat="43.0079756258456" lon="-5.07001130842145">
        <ele>1125.66610336304</ele>
        <time>2018-08-28T07:40:46Z</time>
      </trkpt>
      <trkpt lat="43.0080432678042" lon="-5.06999362260575">
        <ele>1126.1188621521</ele>
        <time>2018-08-28T07:40:47Z</time>
      </trkpt>
      <trkpt lat="43.0081009772075" lon="-5.06997266784782">
        <ele>1125.86996078491</ele>
        <time>2018-08-28T07:40:48Z</time>
      </trkpt>
      <trkpt lat="43.008152525912" lon="-5.06993142888422">
        <ele>1125.97762680054</ele>
        <time>2018-08-28T07:40:49Z</time>
      </trkpt>
      <trkpt lat="43.0082046194403" lon="-5.06989379413898">
        <ele>1126.09420394897</ele>
        <time>2018-08-28T07:40:50Z</time>
      </trkpt>
      <trkpt lat="43.0082584731681" lon="-5.06986143999274">
        <ele>1126.97774887085</ele>
        <time>2018-08-28T07:40:51Z</time>
      </trkpt>
      <trkpt lat="43.0083093094109" lon="-5.06982271560009">
        <ele>1127.51070785522</ele>
        <time>2018-08-28T07:40:52Z</time>
      </trkpt>
      <trkpt lat="43.008357170078" lon="-5.06978709251161">
        <ele>1128.31588363647</ele>
        <time>2018-08-28T07:40:53Z</time>
      </trkpt>
      <trkpt lat="43.0084340321301" lon="-5.0697252340662">
        <ele>1127.85641098022</ele>
        <time>2018-08-28T07:40:55Z</time>
      </trkpt>
      <trkpt lat="43.0085143307624" lon="-5.06967980415101">
        <ele>1127.59188461304</ele>
        <time>2018-08-28T07:40:57Z</time>
      </trkpt>
      <trkpt lat="43.0085651250957" lon="-5.06965993904049">
        <ele>1127.45162582397</ele>
        <time>2018-08-28T07:40:58Z</time>
      </trkpt>
      <trkpt lat="43.0086180149047" lon="-5.06964082830126">
        <ele>1127.05501937866</ele>
        <time>2018-08-28T07:40:59Z</time>
      </trkpt>
      <trkpt lat="43.0086794123454" lon="-5.0696197897243">
        <ele>1126.4645652771</ele>
        <time>2018-08-28T07:41:00Z</time>
      </trkpt>
      <trkpt lat="43.0087427795334" lon="-5.06958559155936">
        <ele>1125.89803695679</ele>
        <time>2018-08-28T07:41:01Z</time>
      </trkpt>
      <trkpt lat="43.0088082002876" lon="-5.06954435259576">
        <ele>1125.49947738647</ele>
        <time>2018-08-28T07:41:02Z</time>
      </trkpt>
      <trkpt lat="43.0088693881808" lon="-5.06948886439676">
        <ele>1125.03341293335</ele>
        <time>2018-08-28T07:41:03Z</time>
      </trkpt>
      <trkpt lat="43.0089344317494" lon="-5.06944226101513">
        <ele>1123.82992172241</ele>
        <time>2018-08-28T07:41:04Z</time>
      </trkpt>
      <trkpt lat="43.0089996010466" lon="-5.06938685663517">
        <ele>1122.96432113647</ele>
        <time>2018-08-28T07:41:05Z</time>
      </trkpt>
      <trkpt lat="43.0090692127524" lon="-5.06933002733166">
        <ele>1122.1823387146</ele>
        <time>2018-08-28T07:41:06Z</time>
      </trkpt>
      <trkpt lat="43.0091499304799" lon="-5.06928292103584">
        <ele>1121.97066879272</ele>
        <time>2018-08-28T07:41:07Z</time>
      </trkpt>
      <trkpt lat="43.009233456145" lon="-5.069227851932">
        <ele>1120.1051902771</ele>
        <time>2018-08-28T07:41:08Z</time>
      </trkpt>
      <trkpt lat="43.0093214242188" lon="-5.06917127408559">
        <ele>1119.34164047241</ele>
        <time>2018-08-28T07:41:09Z</time>
      </trkpt>
      <trkpt lat="43.009405033703" lon="-5.06910472177441">
        <ele>1118.87789535522</ele>
        <time>2018-08-28T07:41:10Z</time>
      </trkpt>
      <trkpt lat="43.0094821472121" lon="-5.06902794354136">
        <ele>1119.05892562866</ele>
        <time>2018-08-28T07:41:11Z</time>
      </trkpt>
      <trkpt lat="43.009555740322" lon="-5.06895317696507">
        <ele>1119.4186668396</ele>
        <time>2018-08-28T07:41:12Z</time>
      </trkpt>
      <trkpt lat="43.0096174311293" lon="-5.06886114366825">
        <ele>1119.71322250366</ele>
        <time>2018-08-28T07:41:13Z</time>
      </trkpt>
      <trkpt lat="43.0096816365076" lon="-5.06877925247426">
        <ele>1119.40255355835</ele>
        <time>2018-08-28T07:41:14Z</time>
      </trkpt>
      <trkpt lat="43.0097428663103" lon="-5.06870213896508">
        <ele>1119.29549789429</ele>
        <time>2018-08-28T07:41:15Z</time>
      </trkpt>
      <trkpt lat="43.0098024197323" lon="-5.06862494163687">
        <ele>1118.95858383179</ele>
        <time>2018-08-28T07:41:16Z</time>
      </trkpt>
      <trkpt lat="43.009849023114" lon="-5.06855176762218">
        <ele>1119.39266586304</ele>
        <time>2018-08-28T07:41:17Z</time>
      </trkpt>
      <trkpt lat="43.0098973447857" lon="-5.06846853532369">
        <ele>1119.41024398804</ele>
        <time>2018-08-28T07:41:18Z</time>
      </trkpt>
      <trkpt lat="43.0099327583266" lon="-5.06838748232002">
        <ele>1118.82613754272</ele>
        <time>2018-08-28T07:41:19Z</time>
      </trkpt>
      <trkpt lat="43.0099776853276" lon="-5.06830383092637">
        <ele>1118.48910140991</ele>
        <time>2018-08-28T07:41:20Z</time>
      </trkpt>
      <trkpt lat="43.0100273481039" lon="-5.06822361611302">
        <ele>1118.44186019897</ele>
        <time>2018-08-28T07:41:21Z</time>
      </trkpt>
      <trkpt lat="43.0100704729958" lon="-5.0681434851187">
        <ele>1118.78512191772</ele>
        <time>2018-08-28T07:41:22Z</time>
      </trkpt>
      <trkpt lat="43.0101149389921" lon="-5.06805262528832">
        <ele>1118.01876449585</ele>
        <time>2018-08-28T07:41:23Z</time>
      </trkpt>
      <trkpt lat="43.0101543758465" lon="-5.06796277128632">
        <ele>1117.96249008179</ele>
        <time>2018-08-28T07:41:24Z</time>
      </trkpt>
      <trkpt lat="43.0101959919958" lon="-5.06786772050435">
        <ele>1118.2780418396</ele>
        <time>2018-08-28T07:41:25Z</time>
      </trkpt>
      <trkpt lat="43.0102410447253" lon="-5.06778566167231">
        <ele>1118.05697250366</ele>
        <time>2018-08-28T07:41:26Z</time>
      </trkpt>
      <trkpt lat="43.0102850078074" lon="-5.0676820613491">
        <ele>1117.75411605835</ele>
        <time>2018-08-28T07:41:27Z</time>
      </trkpt>
      <trkpt lat="43.0103275040565" lon="-5.0675940513658">
        <ele>1117.35860824585</ele>
        <time>2018-08-28T07:41:28Z</time>
      </trkpt>
      <trkpt lat="43.0103637138782" lon="-5.06752087735112">
        <ele>1117.14681625366</ele>
        <time>2018-08-28T07:41:29Z</time>
      </trkpt>
      <trkpt lat="43.0104175256966" lon="-5.06747963838751">
        <ele>1117.47408676147</ele>
        <time>2018-08-28T07:41:30Z</time>
      </trkpt>
      <trkpt lat="43.0104744388191" lon="-5.06742037833209">
        <ele>1117.4362449646</ele>
        <time>2018-08-28T07:41:31Z</time>
      </trkpt>
      <trkpt lat="43.0105324415891" lon="-5.06736832671339">
        <ele>1118.97848129272</ele>
        <time>2018-08-28T07:41:32Z</time>
      </trkpt>
      <trkpt lat="43.0105797155229" lon="-5.06732272916014">
        <ele>1118.9176902771</ele>
        <time>2018-08-28T07:41:33Z</time>
      </trkpt>
      <trkpt lat="43.0106271990044" lon="-5.06727101281757">
        <ele>1119.83431625366</ele>
        <time>2018-08-28T07:41:34Z</time>
      </trkpt>
      <trkpt lat="43.0106699886201" lon="-5.06721837446565">
        <ele>1120.51498031616</ele>
        <time>2018-08-28T07:41:35Z</time>
      </trkpt>
      <trkpt lat="43.010711898136" lon="-5.0671643111902">
        <ele>1119.7546043396</ele>
        <time>2018-08-28T07:41:36Z</time>
      </trkpt>
      <trkpt lat="43.0107550230278" lon="-5.06711024791474">
        <ele>1119.35653305054</ele>
        <time>2018-08-28T07:41:37Z</time>
      </trkpt>
      <trkpt lat="43.0107971420912" lon="-5.06705190986867">
        <ele>1118.90755844116</ele>
        <time>2018-08-28T07:41:38Z</time>
      </trkpt>
      <trkpt lat="43.0108419852732" lon="-5.06699759513612">
        <ele>1118.03023910522</ele>
        <time>2018-08-28T07:41:39Z</time>
      </trkpt>
      <trkpt lat="43.0108937435253" lon="-5.0669399276423">
        <ele>1118.54525375366</ele>
        <time>2018-08-28T07:41:40Z</time>
      </trkpt>
      <trkpt lat="43.0109401792688" lon="-5.06687345915015">
        <ele>1118.66634750366</ele>
        <time>2018-08-28T07:41:41Z</time>
      </trkpt>
      <trkpt lat="43.010969683568" lon="-5.06680120714481">
        <ele>1117.56917953491</ele>
        <time>2018-08-28T07:41:42Z</time>
      </trkpt>
      <trkpt lat="43.0109942006348" lon="-5.06672451273079">
        <ele>1116.66244125366</ele>
        <time>2018-08-28T07:41:43Z</time>
      </trkpt>
      <trkpt lat="43.0110134371026" lon="-5.06664488465066">
        <ele>1116.5270652771</ele>
        <time>2018-08-28T07:41:44Z</time>
      </trkpt>
      <trkpt lat="43.0110327992989" lon="-5.06656349637086">
        <ele>1116.29708480835</ele>
        <time>2018-08-28T07:41:45Z</time>
      </trkpt>
      <trkpt lat="43.0110563943563" lon="-5.066492501651">
        <ele>1116.34383773804</ele>
        <time>2018-08-28T07:41:46Z</time>
      </trkpt>
      <trkpt lat="43.0110921012638" lon="-5.06641748361761">
        <ele>1115.83919906616</ele>
        <time>2018-08-28T07:41:47Z</time>
      </trkpt>
      <trkpt lat="43.0111359386174" lon="-5.06635277532513">
        <ele>1115.42110824585</ele>
        <time>2018-08-28T07:41:48Z</time>
      </trkpt>
      <trkpt lat="43.0111879064171" lon="-5.06629066542263">
        <ele>1115.21041488647</ele>
        <time>2018-08-28T07:41:49Z</time>
      </trkpt>
      <trkpt lat="43.0112291453807" lon="-5.06622268818791">
        <ele>1115.04415512085</ele>
        <time>2018-08-28T07:41:50Z</time>
      </trkpt>
      <trkpt lat="43.0112756649433" lon="-5.06615823135252">
        <ele>1114.57149887085</ele>
        <time>2018-08-28T07:41:51Z</time>
      </trkpt>
      <trkpt lat="43.0113165686308" lon="-5.066093439241">
        <ele>1114.47970199585</ele>
        <time>2018-08-28T07:41:52Z</time>
      </trkpt>
      <trkpt lat="43.0113503477005" lon="-5.06602453999693">
        <ele>1114.0954246521</ele>
        <time>2018-08-28T07:41:53Z</time>
      </trkpt>
      <trkpt lat="43.0113785528047" lon="-5.06595153362031">
        <ele>1114.88863754272</ele>
        <time>2018-08-28T07:41:54Z</time>
      </trkpt>
      <trkpt lat="43.0114036985142" lon="-5.06587718613918">
        <ele>1115.39486312866</ele>
        <time>2018-08-28T07:41:55Z</time>
      </trkpt>
      <trkpt lat="43.0114183668448" lon="-5.06581465714152">
        <ele>1115.38582992554</ele>
        <time>2018-08-28T07:41:56Z</time>
      </trkpt>
      <trkpt lat="43.0114356754748" lon="-5.06575757638092">
        <ele>1115.59749984741</ele>
        <time>2018-08-28T07:41:57Z</time>
      </trkpt>
      <trkpt lat="43.0114420457212" lon="-5.06569555029745">
        <ele>1115.22677230835</ele>
        <time>2018-08-28T07:41:58Z</time>
      </trkpt>
      <trkpt lat="43.0114582647039" lon="-5.06558155641431">
        <ele>1116.36812973022</ele>
        <time>2018-08-28T07:42:00Z</time>
      </trkpt>
      <trkpt lat="43.0114664370595" lon="-5.06551894359762">
        <ele>1115.99825668335</ele>
        <time>2018-08-28T07:42:01Z</time>
      </trkpt>
      <trkpt lat="43.0114893196551" lon="-5.06544861943001">
        <ele>1117.24056625366</ele>
        <time>2018-08-28T07:42:02Z</time>
      </trkpt>
      <trkpt lat="43.011504909995" lon="-5.06534778513486">
        <ele>1117.49276351929</ele>
        <time>2018-08-28T07:42:04Z</time>
      </trkpt>
      <trkpt lat="43.0115146330027" lon="-5.06525985897059">
        <ele>1117.50790023804</ele>
        <time>2018-08-28T07:42:06Z</time>
      </trkpt>
      <trkpt lat="43.0115272896765" lon="-5.06516723894055">
        <ele>1117.42721176147</ele>
        <time>2018-08-28T07:42:08Z</time>
      </trkpt>
      <trkpt lat="43.011545855592" lon="-5.06507151760633">
        <ele>1118.4645652771</ele>
        <time>2018-08-28T07:42:10Z</time>
      </trkpt>
      <trkpt lat="43.0115595600037" lon="-5.06498518400366">
        <ele>1119.35165023804</ele>
        <time>2018-08-28T07:42:12Z</time>
      </trkpt>
      <trkpt lat="43.0115796346618" lon="-5.06489683874423">
        <ele>1120.30355453491</ele>
        <time>2018-08-28T07:42:14Z</time>
      </trkpt>
      <trkpt lat="43.0116077978564" lon="-5.06481545046444">
        <ele>1121.80477523804</ele>
        <time>2018-08-28T07:42:16Z</time>
      </trkpt>
      <trkpt lat="43.0116624897746" lon="-5.06476121955092">
        <ele>1122.58248519897</ele>
        <time>2018-08-28T07:42:18Z</time>
      </trkpt>
      <trkpt lat="43.0117320176615" lon="-5.06476432085509">
        <ele>1122.71932601929</ele>
        <time>2018-08-28T07:42:20Z</time>
      </trkpt>
      <trkpt lat="43.0117926188214" lon="-5.06482215598697">
        <ele>1123.23263168335</ele>
        <time>2018-08-28T07:42:22Z</time>
      </trkpt>
      <trkpt lat="43.0118383421032" lon="-5.06489633583004">
        <ele>1123.65670394897</ele>
        <time>2018-08-28T07:42:24Z</time>
      </trkpt>
      <trkpt lat="43.0118856160371" lon="-5.06497210823471">
        <ele>1123.03036117554</ele>
        <time>2018-08-28T07:42:26Z</time>
      </trkpt>
      <trkpt lat="43.0119319679616" lon="-5.0650450307923">
        <ele>1122.77132797241</ele>
        <time>2018-08-28T07:42:28Z</time>
      </trkpt>
      <trkpt lat="43.0119869532464" lon="-5.06510470994289">
        <ele>1123.84786605835</ele>
        <time>2018-08-28T07:42:30Z</time>
      </trkpt>
      <trkpt lat="43.0120436987309" lon="-5.06515885703737">
        <ele>1125.15902328491</ele>
        <time>2018-08-28T07:42:32Z</time>
      </trkpt>
      <trkpt lat="43.0121079460187" lon="-5.06520663388545">
        <ele>1124.54281234741</ele>
        <time>2018-08-28T07:42:34Z</time>
      </trkpt>
      <trkpt lat="43.0121765938057" lon="-5.06524418481166">
        <ele>1123.39156723022</ele>
        <time>2018-08-28T07:42:36Z</time>
      </trkpt>
      <trkpt lat="43.0122451996831" lon="-5.06530486979062">
        <ele>1121.28145980835</ele>
        <time>2018-08-28T07:42:38Z</time>
      </trkpt>
      <trkpt lat="43.0123001849679" lon="-5.06538810208912">
        <ele>1121.75997543335</ele>
        <time>2018-08-28T07:42:40Z</time>
      </trkpt>
      <trkpt lat="43.0123389093606" lon="-5.06548650563235">
        <ele>1123.82076644897</ele>
        <time>2018-08-28T07:42:42Z</time>
      </trkpt>
      <trkpt lat="43.0123666953696" lon="-5.06559773348744">
        <ele>1125.35897445679</ele>
        <time>2018-08-28T07:42:44Z</time>
      </trkpt>
      <trkpt lat="43.0124073056905" lon="-5.06570066325838">
        <ele>1125.45663070679</ele>
        <time>2018-08-28T07:42:46Z</time>
      </trkpt>
      <trkpt lat="43.0124386959178" lon="-5.06574500352616">
        <ele>1126.54842758179</ele>
        <time>2018-08-28T07:42:47Z</time>
      </trkpt>
      <trkpt lat="43.012473564635" lon="-5.06578573957557">
        <ele>1126.43734359741</ele>
        <time>2018-08-28T07:42:48Z</time>
      </trkpt>
      <trkpt lat="43.0125088943569" lon="-5.06582454778726">
        <ele>1126.0319480896</ele>
        <time>2018-08-28T07:42:49Z</time>
      </trkpt>
      <trkpt lat="43.0125816073669" lon="-5.06589001045103">
        <ele>1126.72579574585</ele>
        <time>2018-08-28T07:42:51Z</time>
      </trkpt>
      <trkpt lat="43.0126500456063" lon="-5.06594541483099">
        <ele>1129.0153465271</ele>
        <time>2018-08-28T07:42:53Z</time>
      </trkpt>
      <trkpt lat="43.0127232615305" lon="-5.06599319167907">
        <ele>1128.53634262085</ele>
        <time>2018-08-28T07:42:55Z</time>
      </trkpt>
      <trkpt lat="43.0127938371552" lon="-5.06602621637757">
        <ele>1133.7018699646</ele>
        <time>2018-08-28T07:42:57Z</time>
      </trkpt>
      <trkpt lat="43.0128705734788" lon="-5.06606896408374">
        <ele>1131.08407211304</ele>
        <time>2018-08-28T07:42:59Z</time>
      </trkpt>
      <trkpt lat="43.0129417777462" lon="-5.06610819139058">
        <ele>1134.18490219116</ele>
        <time>2018-08-28T07:43:01Z</time>
      </trkpt>
      <trkpt lat="43.0130149936704" lon="-5.0661626737612">
        <ele>1133.23031234741</ele>
        <time>2018-08-28T07:43:03Z</time>
      </trkpt>
      <trkpt lat="43.0130789056821" lon="-5.06622713059659">
        <ele>1132.04256820679</ele>
        <time>2018-08-28T07:43:05Z</time>
      </trkpt>
      <trkpt lat="43.0131322984053" lon="-5.0662953592884">
        <ele>1132.07540512085</ele>
        <time>2018-08-28T07:43:07Z</time>
      </trkpt>
      <trkpt lat="43.0131732859118" lon="-5.06637247279758">
        <ele>1132.53109359741</ele>
        <time>2018-08-28T07:43:09Z</time>
      </trkpt>
      <trkpt lat="43.0132162850751" lon="-5.06645495072479">
        <ele>1132.89217758179</ele>
        <time>2018-08-28T07:43:11Z</time>
      </trkpt>
      <trkpt lat="43.0132594099669" lon="-5.0665440503555">
        <ele>1135.14657211304</ele>
        <time>2018-08-28T07:43:13Z</time>
      </trkpt>
      <trkpt lat="43.0132954521505" lon="-5.06664035842295">
        <ele>1136.71615219116</ele>
        <time>2018-08-28T07:43:15Z</time>
      </trkpt>
      <trkpt lat="43.0133201368554" lon="-5.06673742086167">
        <ele>1137.80941390991</ele>
        <time>2018-08-28T07:43:17Z</time>
      </trkpt>
      <trkpt lat="43.0133342184527" lon="-5.06683330983395">
        <ele>1140.87997055054</ele>
        <time>2018-08-28T07:43:19Z</time>
      </trkpt>
      <trkpt lat="43.0133345956383" lon="-5.06693456322427">
        <ele>1141.87520980835</ele>
        <time>2018-08-28T07:43:21Z</time>
      </trkpt>
      <trkpt lat="43.0133301532297" lon="-5.06703816354747">
        <ele>1143.4596824646</ele>
        <time>2018-08-28T07:43:23Z</time>
      </trkpt>
      <trkpt lat="43.0133268004684" lon="-5.06713572890038">
        <ele>1145.11800765991</ele>
        <time>2018-08-28T07:43:25Z</time>
      </trkpt>
      <trkpt lat="43.0133241601689" lon="-5.0672385748523">
        <ele>1145.83907699585</ele>
        <time>2018-08-28T07:43:27Z</time>
      </trkpt>
      <trkpt lat="43.0133280577539" lon="-5.06733890623326">
        <ele>1144.20711898804</ele>
        <time>2018-08-28T07:43:29Z</time>
      </trkpt>
      <trkpt lat="43.013361375819" lon="-5.06743161008234">
        <ele>1145.09627914429</ele>
        <time>2018-08-28T07:43:31Z</time>
      </trkpt>
      <trkpt lat="43.0134303588821" lon="-5.06749430671806">
        <ele>1147.21004867554</ele>
        <time>2018-08-28T07:43:33Z</time>
      </trkpt>
      <trkpt lat="43.0135158123849" lon="-5.06750495173509">
        <ele>1146.38900375366</ele>
        <time>2018-08-28T07:43:35Z</time>
      </trkpt>
      <trkpt lat="43.013595440465" lon="-5.0674735195982">
        <ele>1144.59139633179</ele>
        <time>2018-08-28T07:43:37Z</time>
      </trkpt>
      <trkpt lat="43.0136686563892" lon="-5.06740839221055">
        <ele>1144.88119125366</ele>
        <time>2018-08-28T07:43:39Z</time>
      </trkpt>
      <trkpt lat="43.013703567016" lon="-5.0673696678179">
        <ele>1144.72701644897</ele>
        <time>2018-08-28T07:43:40Z</time>
      </trkpt>
      <trkpt lat="43.013768317218" lon="-5.06728836335714">
        <ele>1143.93478012085</ele>
        <time>2018-08-28T07:43:42Z</time>
      </trkpt>
      <trkpt lat="43.0138304271205" lon="-5.06720261648769">
        <ele>1143.45638656616</ele>
        <time>2018-08-28T07:43:44Z</time>
      </trkpt>
      <trkpt lat="43.0138888489856" lon="-5.06711712107534">
        <ele>1142.27254867554</ele>
        <time>2018-08-28T07:43:46Z</time>
      </trkpt>
      <trkpt lat="43.0139429541705" lon="-5.06703263149137">
        <ele>1143.11166000366</ele>
        <time>2018-08-28T07:43:48Z</time>
      </trkpt>
      <trkpt lat="43.0139919883041" lon="-5.06694738753612">
        <ele>1143.30624008179</ele>
        <time>2018-08-28T07:43:50Z</time>
      </trkpt>
      <trkpt lat="43.0140343588246" lon="-5.06686390378053">
        <ele>1141.92782211304</ele>
        <time>2018-08-28T07:43:52Z</time>
      </trkpt>
      <trkpt lat="43.0140704429178" lon="-5.06678259931977">
        <ele>1142.03365707397</ele>
        <time>2018-08-28T07:43:54Z</time>
      </trkpt>
      <trkpt lat="43.0141126038907" lon="-5.06671261042828">
        <ele>1141.11996078491</ele>
        <time>2018-08-28T07:43:56Z</time>
      </trkpt>
      <trkpt lat="43.0141683435468" lon="-5.06666131318087">
        <ele>1142.06917953491</ele>
        <time>2018-08-28T07:43:58Z</time>
      </trkpt>
      <trkpt lat="43.0142278131498" lon="-5.06663675420458">
        <ele>1142.65023422241</ele>
        <time>2018-08-28T07:44:00Z</time>
      </trkpt>
      <trkpt lat="43.0142860673769" lon="-5.06663683802361">
        <ele>1143.82015609741</ele>
        <time>2018-08-28T07:44:02Z</time>
      </trkpt>
      <trkpt lat="43.0143453693418" lon="-5.06667396985466">
        <ele>1144.77767562866</ele>
        <time>2018-08-28T07:44:04Z</time>
      </trkpt>
      <trkpt lat="43.0144021148263" lon="-5.06672493182595">
        <ele>1144.61129379272</ele>
        <time>2018-08-28T07:44:06Z</time>
      </trkpt>
      <trkpt lat="43.0144615425198" lon="-5.06678150967235">
        <ele>1144.05672836304</ele>
        <time>2018-08-28T07:44:08Z</time>
      </trkpt>
      <trkpt lat="43.0145090260012" lon="-5.06684152409906">
        <ele>1145.54159164429</ele>
        <time>2018-08-28T07:44:10Z</time>
      </trkpt>
      <trkpt lat="43.0145471217511" lon="-5.0669156201231">
        <ele>1145.03158187866</ele>
        <time>2018-08-28T07:44:12Z</time>
      </trkpt>
      <trkpt lat="43.0145913362904" lon="-5.06698954850907">
        <ele>1145.06051254272</ele>
        <time>2018-08-28T07:44:14Z</time>
      </trkpt>
      <trkpt lat="43.0146417953475" lon="-5.06705274805898">
        <ele>1145.97555160522</ele>
        <time>2018-08-28T07:44:16Z</time>
      </trkpt>
      <trkpt lat="43.0147005943982" lon="-5.06710153073544">
        <ele>1146.1794090271</ele>
        <time>2018-08-28T07:44:18Z</time>
      </trkpt>
      <trkpt lat="43.0147704575611" lon="-5.06712432951207">
        <ele>1146.21810531616</ele>
        <time>2018-08-28T07:44:20Z</time>
      </trkpt>
      <trkpt lat="43.0148399016289" lon="-5.06712818518753">
        <ele>1144.50020980835</ele>
        <time>2018-08-28T07:44:22Z</time>
      </trkpt>
      <trkpt lat="43.0149161350383" lon="-5.06711980328436">
        <ele>1144.73495101929</ele>
        <time>2018-08-28T07:44:24Z</time>
      </trkpt>
      <trkpt lat="43.0149887223197" lon="-5.06710773334379">
        <ele>1144.60103988647</ele>
        <time>2018-08-28T07:44:26Z</time>
      </trkpt>
      <trkpt lat="43.0150545202596" lon="-5.06709960289771">
        <ele>1144.91146469116</ele>
        <time>2018-08-28T07:44:28Z</time>
      </trkpt>
      <trkpt lat="43.0151191866426" lon="-5.06710245274479">
        <ele>1145.45455551147</ele>
        <time>2018-08-28T07:44:30Z</time>
      </trkpt>
      <trkpt lat="43.0151810869975" lon="-5.06711049937184">
        <ele>1146.2311668396</ele>
        <time>2018-08-28T07:44:32Z</time>
      </trkpt>
      <trkpt lat="43.0152431969" lon="-5.06712374277885">
        <ele>1146.46017074585</ele>
        <time>2018-08-28T07:44:34Z</time>
      </trkpt>
      <trkpt lat="43.0153025407745" lon="-5.0671384111094">
        <ele>1147.41366195679</ele>
        <time>2018-08-28T07:44:36Z</time>
      </trkpt>
      <trkpt lat="43.0153535027458" lon="-5.06716003641958">
        <ele>1147.33749008179</ele>
        <time>2018-08-28T07:44:38Z</time>
      </trkpt>
      <trkpt lat="43.0154045066266" lon="-5.06719172001357">
        <ele>1147.4704246521</ele>
        <time>2018-08-28T07:44:40Z</time>
      </trkpt>
      <trkpt lat="43.0154567677928" lon="-5.06722122431273">
        <ele>1147.6413230896</ele>
        <time>2018-08-28T07:44:42Z</time>
      </trkpt>
      <trkpt lat="43.0155085260449" lon="-5.06725315936382">
        <ele>1148.00802230835</ele>
        <time>2018-08-28T07:44:44Z</time>
      </trkpt>
      <trkpt lat="43.0155619187681" lon="-5.06728073582525">
        <ele>1149.20516586304</ele>
        <time>2018-08-28T07:44:46Z</time>
      </trkpt>
      <trkpt lat="43.0156179937003" lon="-5.06730160676415">
        <ele>1148.54793930054</ele>
        <time>2018-08-28T07:44:48Z</time>
      </trkpt>
      <trkpt lat="43.0156749068229" lon="-5.06731904112274">
        <ele>1149.59688949585</ele>
        <time>2018-08-28T07:44:50Z</time>
      </trkpt>
      <trkpt lat="43.0157317780359" lon="-5.06732666865463">
        <ele>1150.39388656616</ele>
        <time>2018-08-28T07:44:52Z</time>
      </trkpt>
      <trkpt lat="43.0157837458355" lon="-5.06734460592742">
        <ele>1150.13814926147</ele>
        <time>2018-08-28T07:44:54Z</time>
      </trkpt>
      <trkpt lat="43.0158276670082" lon="-5.06736128591473">
        <ele>1151.84359359741</ele>
        <time>2018-08-28T07:44:56Z</time>
      </trkpt>
      <trkpt lat="43.0158818979217" lon="-5.06739020348067">
        <ele>1151.36068344116</ele>
        <time>2018-08-28T07:44:59Z</time>
      </trkpt>
      <trkpt lat="43.0159273697464" lon="-5.06742130034144">
        <ele>1151.99557113647</ele>
        <time>2018-08-28T07:45:02Z</time>
      </trkpt>
      <trkpt lat="43.0159788346319" lon="-5.06744342856581">
        <ele>1151.54354476929</ele>
        <time>2018-08-28T07:45:05Z</time>
      </trkpt>
      <trkpt lat="43.0160441296576" lon="-5.06745147519285">
        <ele>1153.69930648804</ele>
        <time>2018-08-28T07:45:08Z</time>
      </trkpt>
      <trkpt lat="43.0160961393668" lon="-5.06746446714277">
        <ele>1154.82479476929</ele>
        <time>2018-08-28T07:45:10Z</time>
      </trkpt>
      <trkpt lat="43.0161435809387" lon="-5.06748148240621">
        <ele>1155.80501937866</ele>
        <time>2018-08-28T07:45:12Z</time>
      </trkpt>
      <trkpt lat="43.0161928246198" lon="-5.06750721484895">
        <ele>1156.44320297241</ele>
        <time>2018-08-28T07:45:14Z</time>
      </trkpt>
      <trkpt lat="43.0162358656926" lon="-5.06753613241489">
        <ele>1158.96432113647</ele>
        <time>2018-08-28T07:45:16Z</time>
      </trkpt>
      <trkpt lat="43.0162784038512" lon="-5.06756354123826">
        <ele>1158.4753074646</ele>
        <time>2018-08-28T07:45:18Z</time>
      </trkpt>
      <trkpt lat="43.0163231632142" lon="-5.06758114323492">
        <ele>1156.78597640991</ele>
        <time>2018-08-28T07:45:20Z</time>
      </trkpt>
      <trkpt lat="43.01637026951" lon="-5.067613078286">
        <ele>1158.0212059021</ele>
        <time>2018-08-28T07:45:22Z</time>
      </trkpt>
      <trkpt lat="43.0164176691724" lon="-5.06764752790804">
        <ele>1158.20614242554</ele>
        <time>2018-08-28T07:45:24Z</time>
      </trkpt>
      <trkpt lat="43.0164664099394" lon="-5.06768591702456">
        <ele>1157.9743309021</ele>
        <time>2018-08-28T07:45:26Z</time>
      </trkpt>
      <trkpt lat="43.016516994725" lon="-5.06772078574176">
        <ele>1158.32137680054</ele>
        <time>2018-08-28T07:45:28Z</time>
      </trkpt>
      <trkpt lat="43.0165747460378" lon="-5.0677428301471">
        <ele>1158.49325180054</ele>
        <time>2018-08-28T07:45:30Z</time>
      </trkpt>
      <trkpt lat="43.0166338803647" lon="-5.06776194088633">
        <ele>1159.86678695679</ele>
        <time>2018-08-28T07:45:32Z</time>
      </trkpt>
      <trkpt lat="43.0166942300676" lon="-5.06777686067398">
        <ele>1160.52633285522</ele>
        <time>2018-08-28T07:45:34Z</time>
      </trkpt>
      <trkpt lat="43.0167568009747" lon="-5.06778842770035">
        <ele>1160.68587875366</ele>
        <time>2018-08-28T07:45:36Z</time>
      </trkpt>
      <trkpt lat="43.0168291787086" lon="-5.06779169664259">
        <ele>1159.97555160522</ele>
        <time>2018-08-28T07:45:38Z</time>
      </trkpt>
      <trkpt lat="43.0169078428699" lon="-5.06778951734776">
        <ele>1159.98141098022</ele>
        <time>2018-08-28T07:45:40Z</time>
      </trkpt>
      <trkpt lat="43.0170008819951" lon="-5.06777937524493">
        <ele>1159.49605941772</ele>
        <time>2018-08-28T07:45:42Z</time>
      </trkpt>
      <trkpt lat="43.0170488264812" lon="-5.06778549403424">
        <ele>1158.82699203491</ele>
        <time>2018-08-28T07:45:43Z</time>
      </trkpt>
      <trkpt lat="43.0171011714665" lon="-5.06779320538516">
        <ele>1158.35860824585</ele>
        <time>2018-08-28T07:45:44Z</time>
      </trkpt>
      <trkpt lat="43.0171544384612" lon="-5.06779940799351">
        <ele>1157.81624984741</ele>
        <time>2018-08-28T07:45:45Z</time>
      </trkpt>
      <trkpt lat="43.0172072444512" lon="-5.06781055592472">
        <ele>1157.56332015991</ele>
        <time>2018-08-28T07:45:46Z</time>
      </trkpt>
      <trkpt lat="43.0172520457236" lon="-5.06782975048299">
        <ele>1156.64059066772</ele>
        <time>2018-08-28T07:45:47Z</time>
      </trkpt>
      <trkpt lat="43.0173470965056" lon="-5.06786235608632">
        <ele>1156.4714012146</ele>
        <time>2018-08-28T07:45:49Z</time>
      </trkpt>
      <trkpt lat="43.0174001958622" lon="-5.0678828917491">
        <ele>1156.42000961304</ele>
        <time>2018-08-28T07:45:50Z</time>
      </trkpt>
      <trkpt lat="43.0174703523917" lon="-5.06791231222923">
        <ele>1156.18075180054</ele>
        <time>2018-08-28T07:45:51Z</time>
      </trkpt>
      <trkpt lat="43.0175238708435" lon="-5.06793544628198">
        <ele>1156.13021469116</ele>
        <time>2018-08-28T07:45:52Z</time>
      </trkpt>
      <trkpt lat="43.0175770959286" lon="-5.06795380264993">
        <ele>1155.7516746521</ele>
        <time>2018-08-28T07:45:53Z</time>
      </trkpt>
      <trkpt lat="43.0176315363897" lon="-5.06797123700852">
        <ele>1155.17464828491</ele>
        <time>2018-08-28T07:45:54Z</time>
      </trkpt>
      <trkpt lat="43.0176955741299" lon="-5.06800719537313">
        <ele>1154.85738754272</ele>
        <time>2018-08-28T07:45:56Z</time>
      </trkpt>
      <trkpt lat="43.017748631577" lon="-5.06801281124825">
        <ele>1155.24557113647</ele>
        <time>2018-08-28T07:45:57Z</time>
      </trkpt>
      <trkpt lat="43.0178426346211" lon="-5.06804055534775">
        <ele>1156.04403305054</ele>
        <time>2018-08-28T07:45:59Z</time>
      </trkpt>
      <trkpt lat="43.017895356792" lon="-5.06806042045827">
        <ele>1155.1462059021</ele>
        <time>2018-08-28T07:46:00Z</time>
      </trkpt>
      <trkpt lat="43.0179536529286" lon="-5.06806846708531">
        <ele>1154.82430648804</ele>
        <time>2018-08-28T07:46:01Z</time>
      </trkpt>
      <trkpt lat="43.0180166429309" lon="-5.06807475351269">
        <ele>1154.76583480835</ele>
        <time>2018-08-28T07:46:02Z</time>
      </trkpt>
      <trkpt lat="43.0180756934388" lon="-5.06808690727229">
        <ele>1154.49239730835</ele>
        <time>2018-08-28T07:46:03Z</time>
      </trkpt>
      <trkpt lat="43.0181393539934" lon="-5.06810274906928">
        <ele>1154.53866195679</ele>
        <time>2018-08-28T07:46:04Z</time>
      </trkpt>
      <trkpt lat="43.0182024697242" lon="-5.06811792031402">
        <ele>1154.14315414429</ele>
        <time>2018-08-28T07:46:05Z</time>
      </trkpt>
      <trkpt lat="43.0182675971119" lon="-5.06813434884424">
        <ele>1154.51644515991</ele>
        <time>2018-08-28T07:46:06Z</time>
      </trkpt>
      <trkpt lat="43.0183293717383" lon="-5.06814859807963">
        <ele>1154.28866195679</ele>
        <time>2018-08-28T07:46:07Z</time>
      </trkpt>
      <trkpt lat="43.0183964269636" lon="-5.06816904992337">
        <ele>1152.26070785522</ele>
        <time>2018-08-28T07:46:08Z</time>
      </trkpt>
      <trkpt lat="43.0184641108317" lon="-5.06818329915876">
        <ele>1152.25313949585</ele>
        <time>2018-08-28T07:46:09Z</time>
      </trkpt>
      <trkpt lat="43.0185382068558" lon="-5.06819662638481">
        <ele>1151.60689926147</ele>
        <time>2018-08-28T07:46:10Z</time>
      </trkpt>
      <trkpt lat="43.0186128477035" lon="-5.06820634939248">
        <ele>1150.01095199585</ele>
        <time>2018-08-28T07:46:11Z</time>
      </trkpt>
      <trkpt lat="43.0186900450317" lon="-5.06821255200083">
        <ele>1149.90926742554</ele>
        <time>2018-08-28T07:46:12Z</time>
      </trkpt>
      <trkpt lat="43.0187692121072" lon="-5.06819914095576">
        <ele>1149.05587387085</ele>
        <time>2018-08-28T07:46:13Z</time>
      </trkpt>
      <trkpt lat="43.0188511871202" lon="-5.06818564609165">
        <ele>1150.15426254272</ele>
        <time>2018-08-28T07:46:14Z</time>
      </trkpt>
      <trkpt lat="43.0189291388197" lon="-5.06818195805426">
        <ele>1149.10287094116</ele>
        <time>2018-08-28T07:46:15Z</time>
      </trkpt>
      <trkpt lat="43.0190086411713" lon="-5.06817994639749">
        <ele>1147.91305160522</ele>
        <time>2018-08-28T07:46:16Z</time>
      </trkpt>
      <trkpt lat="43.019101806025" lon="-5.06818765774841">
        <ele>1145.56551742554</ele>
        <time>2018-08-28T07:46:17Z</time>
      </trkpt>
      <trkpt lat="43.0191945517836" lon="-5.06819067523355">
        <ele>1145.71041488647</ele>
        <time>2018-08-28T07:46:18Z</time>
      </trkpt>
      <trkpt lat="43.0192790832771" lon="-5.06818447262521">
        <ele>1145.19076156616</ele>
        <time>2018-08-28T07:46:19Z</time>
      </trkpt>
      <trkpt lat="43.0193781992821" lon="-5.06819402799482">
        <ele>1145.20956039429</ele>
        <time>2018-08-28T07:46:20Z</time>
      </trkpt>
      <trkpt lat="43.0194775667442" lon="-5.06821288727696">
        <ele>1145.14266586304</ele>
        <time>2018-08-28T07:46:21Z</time>
      </trkpt>
      <trkpt lat="43.0195687618507" lon="-5.06826192141051">
        <ele>1143.67525863647</ele>
        <time>2018-08-28T07:46:22Z</time>
      </trkpt>
      <trkpt lat="43.019656688015" lon="-5.06833367050166">
        <ele>1141.62826156616</ele>
        <time>2018-08-28T07:46:23Z</time>
      </trkpt>
      <trkpt lat="43.0197369028283" lon="-5.06841195747728">
        <ele>1142.27474594116</ele>
        <time>2018-08-28T07:46:24Z</time>
      </trkpt>
      <trkpt lat="43.0198177462844" lon="-5.06849057972903">
        <ele>1141.51864242554</ele>
        <time>2018-08-28T07:46:25Z</time>
      </trkpt>
      <trkpt lat="43.0199056724487" lon="-5.0685581378686">
        <ele>1141.25082015991</ele>
        <time>2018-08-28T07:46:26Z</time>
      </trkpt>
      <trkpt lat="43.0199799780203" lon="-5.0686012208509">
        <ele>1139.8942527771</ele>
        <time>2018-08-28T07:46:27Z</time>
      </trkpt>
      <trkpt lat="43.0200548703252" lon="-5.06863541901584">
        <ele>1138.9118309021</ele>
        <time>2018-08-28T07:46:28Z</time>
      </trkpt>
      <trkpt lat="43.0201141303806" lon="-5.06868403405423">
        <ele>1138.29842758179</ele>
        <time>2018-08-28T07:46:29Z</time>
      </trkpt>
      <trkpt lat="43.0201552855252" lon="-5.06876173429663">
        <ele>1139.07430648804</ele>
        <time>2018-08-28T07:46:30Z</time>
      </trkpt>
      <trkpt lat="43.0201658467232" lon="-5.06884798408027">
        <ele>1138.54293441772</ele>
        <time>2018-08-28T07:46:31Z</time>
      </trkpt>
      <trkpt lat="43.0201665172754" lon="-5.06894546561415">
        <ele>1137.15145492554</ele>
        <time>2018-08-28T07:46:32Z</time>
      </trkpt>
      <trkpt lat="43.0201492505549" lon="-5.06905560382183">
        <ele>1136.74825668335</ele>
        <time>2018-08-28T07:46:33Z</time>
      </trkpt>
      <trkpt lat="43.0201293854444" lon="-5.06916515529628">
        <ele>1135.48666000366</ele>
        <time>2018-08-28T07:46:34Z</time>
      </trkpt>
      <trkpt lat="43.0201070895819" lon="-5.06926573813434">
        <ele>1135.99203109741</ele>
        <time>2018-08-28T07:46:35Z</time>
      </trkpt>
      <trkpt lat="43.0200850032671" lon="-5.06936724298174">
        <ele>1134.03170394897</ele>
        <time>2018-08-28T07:46:36Z</time>
      </trkpt>
      <trkpt lat="43.0200651800661" lon="-5.06947671063716">
        <ele>1132.47164535522</ele>
        <time>2018-08-28T07:46:37Z</time>
      </trkpt>
      <trkpt lat="43.0200593546434" lon="-5.06958098151262">
        <ele>1131.75326156616</ele>
        <time>2018-08-28T07:46:38Z</time>
      </trkpt>
      <trkpt lat="43.0200677365465" lon="-5.06966890767689">
        <ele>1131.52987289429</ele>
        <time>2018-08-28T07:46:39Z</time>
      </trkpt>
      <trkpt lat="43.0200930918036" lon="-5.06975239143248">
        <ele>1130.9245262146</ele>
        <time>2018-08-28T07:46:40Z</time>
      </trkpt>
      <trkpt lat="43.0201453110604" lon="-5.0698031857657">
        <ele>1129.17489242554</ele>
        <time>2018-08-28T07:46:41Z</time>
      </trkpt>
      <trkpt lat="43.0202092649816" lon="-5.06983637810226">
        <ele>1128.10287094116</ele>
        <time>2018-08-28T07:46:42Z</time>
      </trkpt>
      <trkpt lat="43.0202821456297" lon="-5.06983922794933">
        <ele>1127.25484848022</ele>
        <time>2018-08-28T07:46:43Z</time>
      </trkpt>
      <trkpt lat="43.0203654198377" lon="-5.06981433369691">
        <ele>1125.1520652771</ele>
        <time>2018-08-28T07:46:44Z</time>
      </trkpt>
      <trkpt lat="43.0204541003732" lon="-5.06978130899842">
        <ele>1123.92855453491</ele>
        <time>2018-08-28T07:46:45Z</time>
      </trkpt>
      <trkpt lat="43.0205339380009" lon="-5.06976605393465">
        <ele>1123.68209457397</ele>
        <time>2018-08-28T07:46:46Z</time>
      </trkpt>
      <trkpt lat="43.0206211936129" lon="-5.06975633092697">
        <ele>1124.07442855835</ele>
        <time>2018-08-28T07:46:47Z</time>
      </trkpt>
      <trkpt lat="43.020705850835" lon="-5.06975490600343">
        <ele>1123.44674301147</ele>
        <time>2018-08-28T07:46:48Z</time>
      </trkpt>
      <trkpt lat="43.0207786895735" lon="-5.06975423545117">
        <ele>1122.52047348022</ele>
        <time>2018-08-28T07:46:49Z</time>
      </trkpt>
      <trkpt lat="43.0208741594507" lon="-5.06975783966954">
        <ele>1121.1833152771</ele>
        <time>2018-08-28T07:46:50Z</time>
      </trkpt>
      <trkpt lat="43.0209505185886" lon="-5.06977443583782">
        <ele>1122.42562484741</ele>
        <time>2018-08-28T07:46:51Z</time>
      </trkpt>
      <trkpt lat="43.021030984859" lon="-5.06979547441478">
        <ele>1122.41256332397</ele>
        <time>2018-08-28T07:46:52Z</time>
      </trkpt>
      <trkpt lat="43.0211057514353" lon="-5.06982858293231">
        <ele>1122.14779281616</ele>
        <time>2018-08-28T07:46:53Z</time>
      </trkpt>
      <trkpt lat="43.0211831583111" lon="-5.06986655295367">
        <ele>1122.55819320679</ele>
        <time>2018-08-28T07:46:54Z</time>
      </trkpt>
      <trkpt lat="43.0212684860854" lon="-5.06990762427921">
        <ele>1122.85665512085</ele>
        <time>2018-08-28T07:46:55Z</time>
      </trkpt>
      <trkpt lat="43.0213275785027" lon="-5.06996252574499">
        <ele>1125.17965316772</ele>
        <time>2018-08-28T07:46:56Z</time>
      </trkpt>
      <trkpt lat="43.0213866709201" lon="-5.07001533173497">
        <ele>1125.04769515991</ele>
        <time>2018-08-28T07:46:57Z</time>
      </trkpt>
      <trkpt lat="43.0214326875685" lon="-5.07006461732562">
        <ele>1124.09566879272</ele>
        <time>2018-08-28T07:46:58Z</time>
      </trkpt>
      <trkpt lat="43.0214730883418" lon="-5.07010795176501">
        <ele>1123.1061668396</ele>
        <time>2018-08-28T07:46:59Z</time>
      </trkpt>
      <trkpt lat="43.0215468490897" lon="-5.07018967532094">
        <ele>1122.37618637085</ele>
        <time>2018-08-28T07:47:01Z</time>
      </trkpt>
      <trkpt lat="43.021580670069" lon="-5.07023460232194">
        <ele>1122.4294090271</ele>
        <time>2018-08-28T07:47:02Z</time>
      </trkpt>
      <trkpt lat="43.0216430733381" lon="-5.07029704750056">
        <ele>1122.30196762085</ele>
        <time>2018-08-28T07:47:03Z</time>
      </trkpt>
      <trkpt lat="43.0216892995341" lon="-5.07035085931892">
        <ele>1120.9889793396</ele>
        <time>2018-08-28T07:47:04Z</time>
      </trkpt>
      <trkpt lat="43.021730077493" lon="-5.07039427757735">
        <ele>1120.50008773804</ele>
        <time>2018-08-28T07:47:05Z</time>
      </trkpt>
      <trkpt lat="43.0217706039949" lon="-5.07044331171091">
        <ele>1120.3854637146</ele>
        <time>2018-08-28T07:47:06Z</time>
      </trkpt>
      <trkpt lat="43.021809286478" lon="-5.07048907690222">
        <ele>1120.29098129272</ele>
        <time>2018-08-28T07:47:07Z</time>
      </trkpt>
      <trkpt lat="43.0218587816162" lon="-5.07053551264579">
        <ele>1120.35433578491</ele>
        <time>2018-08-28T07:47:08Z</time>
      </trkpt>
      <trkpt lat="43.0219019903271" lon="-5.07058404386516">
        <ele>1120.75997543335</ele>
        <time>2018-08-28T07:47:09Z</time>
      </trkpt>
      <trkpt lat="43.0219425587384" lon="-5.07062385790522">
        <ele>1121.30270004272</ele>
        <time>2018-08-28T07:47:10Z</time>
      </trkpt>
      <trkpt lat="43.0219940236239" lon="-5.07068060338969">
        <ele>1121.83126449585</ele>
        <time>2018-08-28T07:47:11Z</time>
      </trkpt>
      <trkpt lat="43.0220427224813" lon="-5.07072737440939">
        <ele>1122.44088363647</ele>
        <time>2018-08-28T07:47:12Z</time>
      </trkpt>
      <trkpt lat="43.0220964504807" lon="-5.07077297196264">
        <ele>1123.1813621521</ele>
        <time>2018-08-28T07:47:13Z</time>
      </trkpt>
      <trkpt lat="43.0221419223054" lon="-5.07081270218368">
        <ele>1124.49557113647</ele>
        <time>2018-08-28T07:47:14Z</time>
      </trkpt>
      <trkpt lat="43.022192507091" lon="-5.07085670717533">
        <ele>1124.27596664429</ele>
        <time>2018-08-28T07:47:15Z</time>
      </trkpt>
      <trkpt lat="43.0222334107785" lon="-5.07088872604544">
        <ele>1124.37093734741</ele>
        <time>2018-08-28T07:47:16Z</time>
      </trkpt>
      <trkpt lat="43.0222958559571" lon="-5.07091429085012">
        <ele>1123.10348129272</ele>
        <time>2018-08-28T07:47:17Z</time>
      </trkpt>
      <trkpt lat="43.0223583011357" lon="-5.07092292421038">
        <ele>1123.07674789429</ele>
        <time>2018-08-28T07:47:18Z</time>
      </trkpt>
      <trkpt lat="43.0224237637995" lon="-5.07093641907449">
        <ele>1122.30807113647</ele>
        <time>2018-08-28T07:47:19Z</time>
      </trkpt>
      <trkpt lat="43.0224850774212" lon="-5.0709375087219">
        <ele>1123.01388168335</ele>
        <time>2018-08-28T07:47:20Z</time>
      </trkpt>
      <trkpt lat="43.02254404411" lon="-5.07092929445679">
        <ele>1122.92806625366</ele>
        <time>2018-08-28T07:47:21Z</time>
      </trkpt>
      <trkpt lat="43.022600915323" lon="-5.07093943655963">
        <ele>1123.03451156616</ele>
        <time>2018-08-28T07:47:22Z</time>
      </trkpt>
      <trkpt lat="43.0226532183988" lon="-5.07095796056564">
        <ele>1122.96932601929</ele>
        <time>2018-08-28T07:47:23Z</time>
      </trkpt>
      <trkpt lat="43.0227073654933" lon="-5.07098017260904">
        <ele>1123.38265609741</ele>
        <time>2018-08-28T07:47:24Z</time>
      </trkpt>
      <trkpt lat="43.022763398516" lon="-5.07099634968217">
        <ele>1123.35824203491</ele>
        <time>2018-08-28T07:47:25Z</time>
      </trkpt>
      <trkpt lat="43.0228227843" lon="-5.07102350704844">
        <ele>1122.73580551147</ele>
        <time>2018-08-28T07:47:26Z</time>
      </trkpt>
      <trkpt lat="43.022867711301" lon="-5.07104370743509">
        <ele>1122.94295883179</ele>
        <time>2018-08-28T07:47:27Z</time>
      </trkpt>
      <trkpt lat="43.0229124287544" lon="-5.07106985897298">
        <ele>1122.86056137085</ele>
        <time>2018-08-28T07:47:28Z</time>
      </trkpt>
      <trkpt lat="43.0229591578646" lon="-5.07110120729084">
        <ele>1123.52889633179</ele>
        <time>2018-08-28T07:47:29Z</time>
      </trkpt>
      <trkpt lat="43.0230061384319" lon="-5.07112484425779">
        <ele>1124.46297836304</ele>
        <time>2018-08-28T07:47:30Z</time>
      </trkpt>
      <trkpt lat="43.0230483413143" lon="-5.07116298191722">
        <ele>1124.4596824646</ele>
        <time>2018-08-28T07:47:31Z</time>
      </trkpt>
      <trkpt lat="43.0231130915163" lon="-5.07122559473391">
        <ele>1124.82723617554</ele>
        <time>2018-08-28T07:47:33Z</time>
      </trkpt>
      <trkpt lat="43.0231407937063" lon="-5.07127529941971">
        <ele>1125.6764793396</ele>
        <time>2018-08-28T07:47:36Z</time>
      </trkpt>
      <trkpt lat="43.0231723934813" lon="-5.07132777013357">
        <ele>1122.83541488647</ele>
        <time>2018-08-28T07:49:07Z</time>
      </trkpt>
      <trkpt lat="43.0232367245881" lon="-5.07137747481938">
        <ele>1121.74154281616</ele>
        <time>2018-08-28T07:49:09Z</time>
      </trkpt>
      <trkpt lat="43.0233070068462" lon="-5.07142089307781">
        <ele>1121.98788070679</ele>
        <time>2018-08-28T07:49:11Z</time>
      </trkpt>
      <trkpt lat="43.0233562505273" lon="-5.0714488886344">
        <ele>1122.30099105835</ele>
        <time>2018-08-28T07:49:13Z</time>
      </trkpt>
      <trkpt lat="43.0234076315938" lon="-5.07146414369817">
        <ele>1121.11605453491</ele>
        <time>2018-08-28T07:49:59Z</time>
      </trkpt>
      <trkpt lat="43.0234759021951" lon="-5.07147327997263">
        <ele>1121.68929672241</ele>
        <time>2018-08-28T07:50:01Z</time>
      </trkpt>
      <trkpt lat="43.0235652951924" lon="-5.07149289362605">
        <ele>1121.73141098022</ele>
        <time>2018-08-28T07:50:03Z</time>
      </trkpt>
      <trkpt lat="43.0236457614629" lon="-5.07154117338832">
        <ele>1122.15609359741</ele>
        <time>2018-08-28T07:50:05Z</time>
      </trkpt>
      <trkpt lat="43.0236820970131" lon="-5.07160420530017">
        <ele>1122.57027816772</ele>
        <time>2018-08-28T07:50:06Z</time>
      </trkpt>
      <trkpt lat="43.0237388424976" lon="-5.07168299518998">
        <ele>1122.18746566772</ele>
        <time>2018-08-28T07:50:08Z</time>
      </trkpt>
      <trkpt lat="43.0237678019731" lon="-5.07174292579766">
        <ele>1122.21712875366</ele>
        <time>2018-08-28T07:50:09Z</time>
      </trkpt>
      <trkpt lat="43.0238200631393" lon="-5.07182322443004">
        <ele>1122.16012191772</ele>
        <time>2018-08-28T07:50:11Z</time>
      </trkpt>
      <trkpt lat="43.0238483939721" lon="-5.07188298739965">
        <ele>1123.79293441772</ele>
        <time>2018-08-28T07:50:46Z</time>
      </trkpt>
      <trkpt lat="43.0238768086238" lon="-5.07194115780766">
        <ele>1123.56161117554</ele>
        <time>2018-08-28T07:50:48Z</time>
      </trkpt>
      <trkpt lat="43.023911677341" lon="-5.07202262990649">
        <ele>1123.08407211304</ele>
        <time>2018-08-28T07:50:50Z</time>
      </trkpt>
      <trkpt lat="43.0239457497774" lon="-5.07211189717527">
        <ele>1124.55721664429</ele>
        <time>2018-08-28T07:50:52Z</time>
      </trkpt>
      <trkpt lat="43.0239766370906" lon="-5.07219026796992">
        <ele>1125.70138168335</ele>
        <time>2018-08-28T07:50:54Z</time>
      </trkpt>
      <trkpt lat="43.0240055546565" lon="-5.07226436399396">
        <ele>1127.01546859741</ele>
        <time>2018-08-28T07:50:56Z</time>
      </trkpt>
      <trkpt lat="43.0240294849901" lon="-5.07232781500097">
        <ele>1126.44869613647</ele>
        <time>2018-08-28T07:50:58Z</time>
      </trkpt>
      <trkpt lat="43.024060917127" lon="-5.07239461876924">
        <ele>1127.56405258179</ele>
        <time>2018-08-28T07:51:00Z</time>
      </trkpt>
      <trkpt lat="43.0240988871483" lon="-5.07247558795388">
        <ele>1127.18905258179</ele>
        <time>2018-08-28T07:51:02Z</time>
      </trkpt>
      <trkpt lat="43.0241353484271" lon="-5.07255513221498">
        <ele>1125.8083152771</ele>
        <time>2018-08-28T07:51:04Z</time>
      </trkpt>
      <trkpt lat="43.0241753301053" lon="-5.07265328430112">
        <ele>1126.46175765991</ele>
        <time>2018-08-28T07:51:06Z</time>
      </trkpt>
      <trkpt lat="43.0241999309911" lon="-5.07275495678659">
        <ele>1127.26900863647</ele>
        <time>2018-08-28T07:51:08Z</time>
      </trkpt>
      <trkpt lat="43.0242233584104" lon="-5.07286568172748">
        <ele>1126.63509750366</ele>
        <time>2018-08-28T07:51:10Z</time>
      </trkpt>
      <trkpt lat="43.0242487974866" lon="-5.07296886295553">
        <ele>1126.39852523804</ele>
        <time>2018-08-28T07:51:12Z</time>
      </trkpt>
      <trkpt lat="43.024275158572" lon="-5.07305980660494">
        <ele>1125.42489242554</ele>
        <time>2018-08-28T07:51:14Z</time>
      </trkpt>
      <trkpt lat="43.0243058363376" lon="-5.07313641719993">
        <ele>1125.67623519897</ele>
        <time>2018-08-28T07:51:16Z</time>
      </trkpt>
      <trkpt lat="43.0243322812421" lon="-5.07321244106169">
        <ele>1126.30648422241</ele>
        <time>2018-08-28T07:51:18Z</time>
      </trkpt>
      <trkpt lat="43.0243627075507" lon="-5.07329206914182">
        <ele>1126.47970199585</ele>
        <time>2018-08-28T07:51:20Z</time>
      </trkpt>
      <trkpt lat="43.0243941396876" lon="-5.07336985320325">
        <ele>1126.55184555054</ele>
        <time>2018-08-28T07:51:22Z</time>
      </trkpt>
      <trkpt lat="43.024421799968" lon="-5.07345015183564">
        <ele>1125.93099594116</ele>
        <time>2018-08-28T07:51:24Z</time>
      </trkpt>
      <trkpt lat="43.0244464846729" lon="-5.07352860644932">
        <ele>1125.82906723022</ele>
        <time>2018-08-28T07:51:26Z</time>
      </trkpt>
      <trkpt lat="43.0244647991313" lon="-5.07360186428304">
        <ele>1128.73556137085</ele>
        <time>2018-08-28T07:51:28Z</time>
      </trkpt>
      <trkpt lat="43.0244932556926" lon="-5.07367554121192">
        <ele>1128.9430809021</ele>
        <time>2018-08-28T07:51:30Z</time>
      </trkpt>
      <trkpt lat="43.0245347461133" lon="-5.07374997251208">
        <ele>1129.73958969116</ele>
        <time>2018-08-28T07:51:32Z</time>
      </trkpt>
      <trkpt lat="43.0245784996478" lon="-5.07382960059221">
        <ele>1129.90707015991</ele>
        <time>2018-08-28T07:51:34Z</time>
      </trkpt>
      <trkpt lat="43.0246123206271" lon="-5.07390889339622">
        <ele>1129.13143539429</ele>
        <time>2018-08-28T07:51:36Z</time>
      </trkpt>
      <trkpt lat="43.0246544396905" lon="-5.07399455644663">
        <ele>1129.23495101929</ele>
        <time>2018-08-28T07:51:38Z</time>
      </trkpt>
      <trkpt lat="43.0247091316087" lon="-5.07408298552509">
        <ele>1130.13521957397</ele>
        <time>2018-08-28T07:51:40Z</time>
      </trkpt>
      <trkpt lat="43.0247535976051" lon="-5.07416822948034">
        <ele>1130.27791976929</ele>
        <time>2018-08-28T07:51:42Z</time>
      </trkpt>
      <trkpt lat="43.0247722892491" lon="-5.07427719422157">
        <ele>1130.68844223022</ele>
        <time>2018-08-28T07:51:44Z</time>
      </trkpt>
      <trkpt lat="43.0247483589156" lon="-5.07440476678784">
        <ele>1129.86483383179</ele>
        <time>2018-08-28T07:51:46Z</time>
      </trkpt>
      <trkpt lat="43.0247272365196" lon="-5.0744657032239">
        <ele>1129.86178207397</ele>
        <time>2018-08-28T07:51:47Z</time>
      </trkpt>
      <trkpt lat="43.0246909847884" lon="-5.0745661184239">
        <ele>1129.36996078491</ele>
        <time>2018-08-28T07:51:49Z</time>
      </trkpt>
      <trkpt lat="43.0246667610882" lon="-5.07462219335611">
        <ele>1129.43270492554</ele>
        <time>2018-08-28T07:51:50Z</time>
      </trkpt>
      <trkpt lat="43.0246454710541" lon="-5.07467650808867">
        <ele>1128.44662094116</ele>
        <time>2018-08-28T07:51:51Z</time>
      </trkpt>
      <trkpt lat="43.0246129911794" lon="-5.07476384751971">
        <ele>1128.17196273804</ele>
        <time>2018-08-28T07:51:53Z</time>
      </trkpt>
      <trkpt lat="43.0245966464682" lon="-5.07482788525994">
        <ele>1127.74129867554</ele>
        <time>2018-08-28T07:51:54Z</time>
      </trkpt>
      <trkpt lat="43.024564376141" lon="-5.07494162768598">
        <ele>1128.20431137085</ele>
        <time>2018-08-28T07:51:56Z</time>
      </trkpt>
      <trkpt lat="43.0245351232989" lon="-5.07503843866761">
        <ele>1129.85262680054</ele>
        <time>2018-08-28T07:51:58Z</time>
      </trkpt>
      <trkpt lat="43.0245059961854" lon="-5.07514799014206">
        <ele>1130.26681137085</ele>
        <time>2018-08-28T07:52:00Z</time>
      </trkpt>
      <trkpt lat="43.0244793417333" lon="-5.07523558103021">
        <ele>1129.54110336304</ele>
        <time>2018-08-28T07:52:02Z</time>
      </trkpt>
      <trkpt lat="43.0244624941079" lon="-5.07534203120049">
        <ele>1131.04964828491</ele>
        <time>2018-08-28T07:52:04Z</time>
      </trkpt>
      <trkpt lat="43.0244530225573" lon="-5.07544060238178">
        <ele>1130.1442527771</ele>
        <time>2018-08-28T07:52:06Z</time>
      </trkpt>
      <trkpt lat="43.0244622845603" lon="-5.07555568591233">
        <ele>1129.91598129272</ele>
        <time>2018-08-28T07:52:08Z</time>
      </trkpt>
      <trkpt lat="43.0244704150064" lon="-5.07566850632902">
        <ele>1129.49154281616</ele>
        <time>2018-08-28T07:52:10Z</time>
      </trkpt>
      <trkpt lat="43.0245111091463" lon="-5.07572567090865">
        <ele>1130.78036117554</ele>
        <time>2018-08-28T07:52:11Z</time>
      </trkpt>
      <trkpt lat="43.0245325249089" lon="-5.07578333840247">
        <ele>1131.64803695679</ele>
        <time>2018-08-28T07:52:12Z</time>
      </trkpt>
      <trkpt lat="43.0245791702001" lon="-5.07582516409929">
        <ele>1132.93441390991</ele>
        <time>2018-08-28T07:52:13Z</time>
      </trkpt>
      <trkpt lat="43.0246458482398" lon="-5.07590068504687">
        <ele>1132.09701156616</ele>
        <time>2018-08-28T07:52:15Z</time>
      </trkpt>
      <trkpt lat="43.0246838182612" lon="-5.0759441033053">
        <ele>1131.4001121521</ele>
        <time>2018-08-28T07:52:16Z</time>
      </trkpt>
      <trkpt lat="43.0247142864792" lon="-5.07599238306757">
        <ele>1131.18758773804</ele>
        <time>2018-08-28T07:52:17Z</time>
      </trkpt>
      <trkpt lat="43.0247850716515" lon="-5.07601627149161">
        <ele>1129.41036605835</ele>
        <time>2018-08-28T07:52:19Z</time>
      </trkpt>
      <trkpt lat="43.024863190989" lon="-5.07602985017474">
        <ele>1128.4919090271</ele>
        <time>2018-08-28T07:52:21Z</time>
      </trkpt>
      <trkpt lat="43.0249443697212" lon="-5.07604217157241">
        <ele>1128.87838363647</ele>
        <time>2018-08-28T07:52:23Z</time>
      </trkpt>
      <trkpt lat="43.0250014504818" lon="-5.07605994120713">
        <ele>1129.79647445679</ele>
        <time>2018-08-28T07:52:24Z</time>
      </trkpt>
      <trkpt lat="43.0250498978822" lon="-5.07605658844586">
        <ele>1129.93209457397</ele>
        <time>2018-08-28T07:52:25Z</time>
      </trkpt>
      <trkpt lat="43.0251000635727" lon="-5.07605164312299">
        <ele>1130.67892074585</ele>
        <time>2018-08-28T07:52:26Z</time>
      </trkpt>
      <trkpt lat="43.0251529952912" lon="-5.07605583407457">
        <ele>1130.88766098022</ele>
        <time>2018-08-28T07:52:27Z</time>
      </trkpt>
      <trkpt lat="43.0252006045012" lon="-5.07605818100746">
        <ele>1131.64449691772</ele>
        <time>2018-08-28T07:52:28Z</time>
      </trkpt>
      <trkpt lat="43.0252906261413" lon="-5.07606195286389">
        <ele>1130.59908676147</ele>
        <time>2018-08-28T07:52:30Z</time>
      </trkpt>
      <trkpt lat="43.0253486289112" lon="-5.07606622763451">
        <ele>1129.67037582397</ele>
        <time>2018-08-28T07:52:31Z</time>
      </trkpt>
      <trkpt lat="43.0253987526922" lon="-5.07606245577808">
        <ele>1129.67867660522</ele>
        <time>2018-08-28T07:52:32Z</time>
      </trkpt>
      <trkpt lat="43.0254545342578" lon="-5.07605600171264">
        <ele>1129.62508773804</ele>
        <time>2018-08-28T07:52:33Z</time>
      </trkpt>
      <trkpt lat="43.0255460227309" lon="-5.07602968253668">
        <ele>1130.51107406616</ele>
        <time>2018-08-28T07:52:35Z</time>
      </trkpt>
      <trkpt lat="43.0256005889205" lon="-5.07601560093935">
        <ele>1130.54940414429</ele>
        <time>2018-08-28T07:52:36Z</time>
      </trkpt>
      <trkpt lat="43.0256585916905" lon="-5.07599766366656">
        <ele>1130.90511703491</ele>
        <time>2018-08-28T07:52:37Z</time>
      </trkpt>
      <trkpt lat="43.0257086735619" lon="-5.07597989403184">
        <ele>1130.14266586304</ele>
        <time>2018-08-28T07:52:38Z</time>
      </trkpt>
      <trkpt lat="43.025777488987" lon="-5.07596304640647">
        <ele>1130.18709945679</ele>
        <time>2018-08-28T07:52:39Z</time>
      </trkpt>
      <trkpt lat="43.0258372519566" lon="-5.0759472884285">
        <ele>1129.18185043335</ele>
        <time>2018-08-28T07:52:40Z</time>
      </trkpt>
      <trkpt lat="43.0259034270821" lon="-5.07592935115572">
        <ele>1128.52352523804</ele>
        <time>2018-08-28T07:52:41Z</time>
      </trkpt>
      <trkpt lat="43.0259592924668" lon="-5.07591778412934">
        <ele>1127.77572250366</ele>
        <time>2018-08-28T07:52:42Z</time>
      </trkpt>
      <trkpt lat="43.0260141939325" lon="-5.07589641027625">
        <ele>1128.4889793396</ele>
        <time>2018-08-28T07:52:43Z</time>
      </trkpt>
      <trkpt lat="43.0260740407212" lon="-5.07588274777408">
        <ele>1128.07210922241</ele>
        <time>2018-08-28T07:52:44Z</time>
      </trkpt>
      <trkpt lat="43.0261391261993" lon="-5.07587428205188">
        <ele>1127.90084457397</ele>
        <time>2018-08-28T07:52:45Z</time>
      </trkpt>
      <trkpt lat="43.0261917645512" lon="-5.07585441694136">
        <ele>1128.91988754272</ele>
        <time>2018-08-28T07:52:46Z</time>
      </trkpt>
      <trkpt lat="43.026262507814" lon="-5.07583882660146">
        <ele>1128.47225570679</ele>
        <time>2018-08-28T07:52:47Z</time>
      </trkpt>
      <trkpt lat="43.0263332091673" lon="-5.07583539002116">
        <ele>1128.48495101929</ele>
        <time>2018-08-28T07:52:48Z</time>
      </trkpt>
      <trkpt lat="43.0264054611726" lon="-5.07583103143151">
        <ele>1128.39803695679</ele>
        <time>2018-08-28T07:52:49Z</time>
      </trkpt>
      <trkpt lat="43.0264580995245" lon="-5.07584494539078">
        <ele>1129.66415023804</ele>
        <time>2018-08-28T07:52:50Z</time>
      </trkpt>
      <trkpt lat="43.0265367636858" lon="-5.07586774416741">
        <ele>1129.93539047241</ele>
        <time>2018-08-28T07:52:51Z</time>
      </trkpt>
      <trkpt lat="43.0266076326771" lon="-5.07591082714971">
        <ele>1130.41756820679</ele>
        <time>2018-08-28T07:52:52Z</time>
      </trkpt>
      <trkpt lat="43.0266542779682" lon="-5.07596924901481">
        <ele>1130.71798324585</ele>
        <time>2018-08-28T07:52:53Z</time>
      </trkpt>
      <trkpt lat="43.026718273799" lon="-5.07604233921047">
        <ele>1130.30587387085</ele>
        <time>2018-08-28T07:52:54Z</time>
      </trkpt>
      <trkpt lat="43.0267926631896" lon="-5.07611433975871">
        <ele>1130.00899887085</ele>
        <time>2018-08-28T07:52:55Z</time>
      </trkpt>
      <trkpt lat="43.0268723750888" lon="-5.076194386934">
        <ele>1129.22884750366</ele>
        <time>2018-08-28T07:52:56Z</time>
      </trkpt>
      <trkpt lat="43.0269570742203" lon="-5.07625850849326">
        <ele>1127.86922836304</ele>
        <time>2018-08-28T07:52:57Z</time>
      </trkpt>
      <trkpt lat="43.027043491642" lon="-5.07635188289459">
        <ele>1127.70785140991</ele>
        <time>2018-08-28T07:52:58Z</time>
      </trkpt>
      <trkpt lat="43.0271172104804" lon="-5.07643285207923">
        <ele>1128.3493309021</ele>
        <time>2018-08-28T07:52:59Z</time>
      </trkpt>
      <trkpt lat="43.0271957908226" lon="-5.07651088759776">
        <ele>1128.25423812866</ele>
        <time>2018-08-28T07:53:00Z</time>
      </trkpt>
      <trkpt lat="43.0272718985034" lon="-5.07659261115368">
        <ele>1127.42696762085</ele>
        <time>2018-08-28T07:53:01Z</time>
      </trkpt>
      <trkpt lat="43.0273590283869" lon="-5.07668347098406">
        <ele>1124.28121566772</ele>
        <time>2018-08-28T07:53:02Z</time>
      </trkpt>
      <trkpt lat="43.0274407938523" lon="-5.07675178349491">
        <ele>1123.29122543335</ele>
        <time>2018-08-28T07:53:03Z</time>
      </trkpt>
      <trkpt lat="43.0275460286467" lon="-5.07675245404716">
        <ele>1123.01961898804</ele>
        <time>2018-08-28T07:53:04Z</time>
      </trkpt>
      <trkpt lat="43.0276424624426" lon="-5.07672965527054">
        <ele>1122.69234848022</ele>
        <time>2018-08-28T07:53:05Z</time>
      </trkpt>
      <trkpt lat="43.0277168518333" lon="-5.07663326338406">
        <ele>1122.96932601929</ele>
        <time>2018-08-28T07:53:06Z</time>
      </trkpt>
      <trkpt lat="43.027801886241" lon="-5.07654516958173">
        <ele>1123.70492172241</ele>
        <time>2018-08-28T07:53:07Z</time>
      </trkpt>
      <trkpt lat="43.0278822686924" lon="-5.07646705024417">
        <ele>1122.98189926147</ele>
        <time>2018-08-28T07:53:08Z</time>
      </trkpt>
      <trkpt lat="43.0279650818957" lon="-5.07637769915636">
        <ele>1121.92013168335</ele>
        <time>2018-08-28T07:53:09Z</time>
      </trkpt>
      <trkpt lat="43.0280454643471" lon="-5.07628625259276">
        <ele>1122.21883773804</ele>
        <time>2018-08-28T07:53:10Z</time>
      </trkpt>
      <trkpt lat="43.0281235836847" lon="-5.07619899698075">
        <ele>1121.40096664429</ele>
        <time>2018-08-28T07:53:11Z</time>
      </trkpt>
      <trkpt lat="43.0281897169007" lon="-5.07612565532799">
        <ele>1121.44857406616</ele>
        <time>2018-08-28T07:53:12Z</time>
      </trkpt>
      <trkpt lat="43.0282583227782" lon="-5.07604032755371">
        <ele>1121.1842918396</ele>
        <time>2018-08-28T07:53:13Z</time>
      </trkpt>
      <trkpt lat="43.028323869261" lon="-5.07595885545488">
        <ele>1121.52950668335</ele>
        <time>2018-08-28T07:53:14Z</time>
      </trkpt>
      <trkpt lat="43.0283888709201" lon="-5.07587285712834">
        <ele>1122.0719871521</ele>
        <time>2018-08-28T07:53:15Z</time>
      </trkpt>
      <trkpt lat="43.0284495978086" lon="-5.07579130121048">
        <ele>1122.14657211304</ele>
        <time>2018-08-28T07:53:16Z</time>
      </trkpt>
      <trkpt lat="43.0284870230062" lon="-5.07571142167326">
        <ele>1120.50741195679</ele>
        <time>2018-08-28T07:53:17Z</time>
      </trkpt>
      <trkpt lat="43.028536560054" lon="-5.07561762817677">
        <ele>1120.99825668335</ele>
        <time>2018-08-28T07:53:18Z</time>
      </trkpt>
      <trkpt lat="43.0285798525838" lon="-5.07551453076776">
        <ele>1120.90218734741</ele>
        <time>2018-08-28T07:53:19Z</time>
      </trkpt>
      <trkpt lat="43.0286180740623" lon="-5.075412103911">
        <ele>1122.24886703491</ele>
        <time>2018-08-28T07:53:20Z</time>
      </trkpt>
      <trkpt lat="43.0286545772506" lon="-5.07531621493872">
        <ele>1121.67586898804</ele>
        <time>2018-08-28T07:53:21Z</time>
      </trkpt>
      <trkpt lat="43.0286890687822" lon="-5.07522057742353">
        <ele>1121.08602523804</ele>
        <time>2018-08-28T07:53:22Z</time>
      </trkpt>
      <trkpt lat="43.0287227640329" lon="-5.07512686774607">
        <ele>1119.95907211304</ele>
        <time>2018-08-28T07:53:23Z</time>
      </trkpt>
      <trkpt lat="43.0287510110466" lon="-5.07503709756311">
        <ele>1119.6921043396</ele>
        <time>2018-08-28T07:53:24Z</time>
      </trkpt>
      <trkpt lat="43.0287689483194" lon="-5.07495713420685">
        <ele>1120.01974105835</ele>
        <time>2018-08-28T07:53:25Z</time>
      </trkpt>
      <trkpt lat="43.0287914118199" lon="-5.07487365045126">
        <ele>1120.5094871521</ele>
        <time>2018-08-28T07:53:26Z</time>
      </trkpt>
      <trkpt lat="43.0288172280817" lon="-5.07480047643657">
        <ele>1119.88582992554</ele>
        <time>2018-08-28T07:53:27Z</time>
      </trkpt>
      <trkpt lat="43.0288579641311" lon="-5.07474163547631">
        <ele>1119.89217758179</ele>
        <time>2018-08-28T07:53:28Z</time>
      </trkpt>
      <trkpt lat="43.0288957246049" lon="-5.07468933240052">
        <ele>1119.20492172241</ele>
        <time>2018-08-28T07:53:29Z</time>
      </trkpt>
      <trkpt lat="43.0289338203548" lon="-5.0746438186663">
        <ele>1119.70760726929</ele>
        <time>2018-08-28T07:53:30Z</time>
      </trkpt>
      <trkpt lat="43.0290064076362" lon="-5.07457919419284">
        <ele>1119.17989730835</ele>
        <time>2018-08-28T07:53:32Z</time>
      </trkpt>
      <trkpt lat="43.0290501611708" lon="-5.07455077954109">
        <ele>1118.90035629272</ele>
        <time>2018-08-28T07:53:33Z</time>
      </trkpt>
      <trkpt lat="43.0290940823434" lon="-5.07452647202189">
        <ele>1120.96297836304</ele>
        <time>2018-08-28T07:53:34Z</time>
      </trkpt>
      <trkpt lat="43.0291370395972" lon="-5.07450057194109">
        <ele>1121.78316879272</ele>
        <time>2018-08-28T07:53:35Z</time>
      </trkpt>
      <trkpt lat="43.0291804159461" lon="-5.07448405959185">
        <ele>1122.19149398804</ele>
        <time>2018-08-28T07:53:36Z</time>
      </trkpt>
      <trkpt lat="43.0292241275711" lon="-5.07446788251873">
        <ele>1122.2985496521</ele>
        <time>2018-08-28T07:53:37Z</time>
      </trkpt>
      <trkpt lat="43.0293090781598" lon="-5.07440644316848">
        <ele>1120.99459457397</ele>
        <time>2018-08-28T07:53:39Z</time>
      </trkpt>
      <trkpt lat="43.0293470481811" lon="-5.07436889224227">
        <ele>1120.93343734741</ele>
        <time>2018-08-28T07:53:40Z</time>
      </trkpt>
      <trkpt lat="43.0294322921364" lon="-5.074325893079">
        <ele>1121.41683578491</ele>
        <time>2018-08-28T07:53:42Z</time>
      </trkpt>
      <trkpt lat="43.0294780154182" lon="-5.07429881953176">
        <ele>1122.36043930054</ele>
        <time>2018-08-28T07:53:43Z</time>
      </trkpt>
      <trkpt lat="43.0295572244032" lon="-5.07424869575079">
        <ele>1121.91756820679</ele>
        <time>2018-08-28T07:53:45Z</time>
      </trkpt>
      <trkpt lat="43.0296011874853" lon="-5.07421902381356">
        <ele>1123.05404281616</ele>
        <time>2018-08-28T07:53:46Z</time>
      </trkpt>
      <trkpt lat="43.0296529457374" lon="-5.0741929560947">
        <ele>1123.68258285522</ele>
        <time>2018-08-28T07:53:47Z</time>
      </trkpt>
      <trkpt lat="43.0297057098178" lon="-5.07416596636649">
        <ele>1124.37191390991</ele>
        <time>2018-08-28T07:53:48Z</time>
      </trkpt>
      <trkpt lat="43.0297657661541" lon="-5.07412036881323">
        <ele>1122.6637840271</ele>
        <time>2018-08-28T07:53:50Z</time>
      </trkpt>
      <trkpt lat="43.0298036942659" lon="-5.07408650592442">
        <ele>1123.11483383179</ele>
        <time>2018-08-28T07:53:51Z</time>
      </trkpt>
      <trkpt lat="43.0298572965367" lon="-5.07401442155714">
        <ele>1123.34383773804</ele>
        <time>2018-08-28T07:53:53Z</time>
      </trkpt>
      <trkpt lat="43.0299033131851" lon="-5.07394183427568">
        <ele>1124.62118148804</ele>
        <time>2018-08-28T07:53:55Z</time>
      </trkpt>
      <trkpt lat="43.0299705779581" lon="-5.07387486286934">
        <ele>1123.47677230835</ele>
        <time>2018-08-28T07:53:57Z</time>
      </trkpt>
      <trkpt lat="43.0300418660445" lon="-5.07384812459822">
        <ele>1124.25094223022</ele>
        <time>2018-08-28T07:53:59Z</time>
      </trkpt>
      <trkpt lat="43.0300969351484" lon="-5.07385030389305">
        <ele>1125.19527816772</ele>
        <time>2018-08-28T07:54:00Z</time>
      </trkpt>
      <trkpt lat="43.0301504536001" lon="-5.07385893725331">
        <ele>1125.34945297241</ele>
        <time>2018-08-28T07:54:01Z</time>
      </trkpt>
      <trkpt lat="43.0302066961704" lon="-5.07388894446667">
        <ele>1124.60262680054</ele>
        <time>2018-08-28T07:54:02Z</time>
      </trkpt>
      <trkpt lat="43.0302621843694" lon="-5.0739165209281">
        <ele>1124.03463363647</ele>
        <time>2018-08-28T07:54:03Z</time>
      </trkpt>
      <trkpt lat="43.0303245038195" lon="-5.07395004854079">
        <ele>1124.37350082397</ele>
        <time>2018-08-28T07:54:04Z</time>
      </trkpt>
      <trkpt lat="43.0303836381464" lon="-5.07398441434379">
        <ele>1123.87215805054</ele>
        <time>2018-08-28T07:54:05Z</time>
      </trkpt>
      <trkpt lat="43.030442269559" lon="-5.07401777431841">
        <ele>1124.31490707397</ele>
        <time>2018-08-28T07:54:06Z</time>
      </trkpt>
      <trkpt lat="43.0305026192619" lon="-5.07405574433978">
        <ele>1125.42074203491</ele>
        <time>2018-08-28T07:54:07Z</time>
      </trkpt>
      <trkpt lat="43.0305660702689" lon="-5.07409011014278">
        <ele>1125.50533676147</ele>
        <time>2018-08-28T07:54:08Z</time>
      </trkpt>
      <trkpt lat="43.0306236958532" lon="-5.07412883453544">
        <ele>1125.28841781616</ele>
        <time>2018-08-28T07:54:09Z</time>
      </trkpt>
      <trkpt lat="43.0306854704796" lon="-5.07416529581423">
        <ele>1124.85580062866</ele>
        <time>2018-08-28T07:54:10Z</time>
      </trkpt>
      <trkpt lat="43.0307535315333" lon="-5.074196392675">
        <ele>1124.95516586304</ele>
        <time>2018-08-28T07:54:11Z</time>
      </trkpt>
      <trkpt lat="43.0308308126806" lon="-5.07423059083994">
        <ele>1125.27108383179</ele>
        <time>2018-08-28T07:54:12Z</time>
      </trkpt>
      <trkpt lat="43.0308963591634" lon="-5.0742672197568">
        <ele>1124.73250961304</ele>
        <time>2018-08-28T07:54:13Z</time>
      </trkpt>
      <trkpt lat="43.0309544038428" lon="-5.07430787198718">
        <ele>1125.27401351929</ele>
        <time>2018-08-28T07:54:14Z</time>
      </trkpt>
      <trkpt lat="43.0310264043911" lon="-5.07432949729736">
        <ele>1125.37118148804</ele>
        <time>2018-08-28T07:54:15Z</time>
      </trkpt>
      <trkpt lat="43.0310901487647" lon="-5.07437651977416">
        <ele>1126.01449203491</ele>
        <time>2018-08-28T07:54:16Z</time>
      </trkpt>
      <trkpt lat="43.0311535578622" lon="-5.07443058304961">
        <ele>1127.16415023804</ele>
        <time>2018-08-28T07:54:17Z</time>
      </trkpt>
      <trkpt lat="43.0312247621296" lon="-5.0744794495451">
        <ele>1126.46859359741</ele>
        <time>2018-08-28T07:54:18Z</time>
      </trkpt>
      <trkpt lat="43.031281172338" lon="-5.07453041151639">
        <ele>1126.17660140991</ele>
        <time>2018-08-28T07:54:19Z</time>
      </trkpt>
      <trkpt lat="43.031339426565" lon="-5.07458682172473">
        <ele>1126.5436668396</ele>
        <time>2018-08-28T07:54:20Z</time>
      </trkpt>
      <trkpt lat="43.0313944956688" lon="-5.0746731553274">
        <ele>1126.94808578491</ele>
        <time>2018-08-28T07:54:21Z</time>
      </trkpt>
      <trkpt lat="43.0314457510067" lon="-5.07473777980085">
        <ele>1126.19649887085</ele>
        <time>2018-08-28T07:54:22Z</time>
      </trkpt>
      <trkpt lat="43.0315119261323" lon="-5.07481338456746">
        <ele>1124.34774398804</ele>
        <time>2018-08-28T07:54:23Z</time>
      </trkpt>
      <trkpt lat="43.0315566016762" lon="-5.07487675175543">
        <ele>1123.99520492554</ele>
        <time>2018-08-28T07:54:24Z</time>
      </trkpt>
      <trkpt lat="43.0315888300939" lon="-5.07492151111837">
        <ele>1124.9059715271</ele>
        <time>2018-08-28T07:54:25Z</time>
      </trkpt>
      <trkpt lat="43.0316392472415" lon="-5.0749924220192">
        <ele>1125.14046859741</ele>
        <time>2018-08-28T07:54:26Z</time>
      </trkpt>
      <trkpt lat="43.0317086493997" lon="-5.07508269511636">
        <ele>1125.49703598022</ele>
        <time>2018-08-28T07:54:27Z</time>
      </trkpt>
      <trkpt lat="43.0317604914708" lon="-5.07515050471302">
        <ele>1126.02767562866</ele>
        <time>2018-08-28T07:54:28Z</time>
      </trkpt>
      <trkpt lat="43.031793893355" lon="-5.07522149943288">
        <ele>1126.25179672241</ele>
        <time>2018-08-28T07:54:29Z</time>
      </trkpt>
      <trkpt lat="43.0318358028708" lon="-5.07528780028697">
        <ele>1127.9665184021</ele>
        <time>2018-08-28T07:54:30Z</time>
      </trkpt>
      <trkpt lat="43.0318670254601" lon="-5.07536223158713">
        <ele>1128.41134262085</ele>
        <time>2018-08-28T07:54:31Z</time>
      </trkpt>
      <trkpt lat="43.0319106951757" lon="-5.07543439977344">
        <ele>1128.44149398804</ele>
        <time>2018-08-28T07:54:32Z</time>
      </trkpt>
      <trkpt lat="43.0319451867072" lon="-5.07550950162585">
        <ele>1130.65145492554</ele>
        <time>2018-08-28T07:54:33Z</time>
      </trkpt>
      <trkpt lat="43.0319844559236" lon="-5.07556993514772">
        <ele>1130.61349105835</ele>
        <time>2018-08-28T07:54:34Z</time>
      </trkpt>
      <trkpt lat="43.0320317298575" lon="-5.07563472725924">
        <ele>1131.27926254272</ele>
        <time>2018-08-28T07:54:35Z</time>
      </trkpt>
      <trkpt lat="43.0320619885279" lon="-5.0756988488185">
        <ele>1130.76180648804</ele>
        <time>2018-08-28T07:54:36Z</time>
      </trkpt>
      <trkpt lat="43.0320866732328" lon="-5.07575894706424">
        <ele>1130.27865219116</ele>
        <time>2018-08-28T07:54:37Z</time>
      </trkpt>
      <trkpt lat="43.0321236374257" lon="-5.07581309415873">
        <ele>1130.57516098022</ele>
        <time>2018-08-28T07:54:38Z</time>
      </trkpt>
      <trkpt lat="43.0321612302615" lon="-5.0758679956245">
        <ele>1129.93600082397</ele>
        <time>2018-08-28T07:54:39Z</time>
      </trkpt>
      <trkpt lat="43.0321936682267" lon="-5.07591904141482">
        <ele>1129.45235824585</ele>
        <time>2018-08-28T07:54:40Z</time>
      </trkpt>
      <trkpt lat="43.0322284531249" lon="-5.07596530952032">
        <ele>1130.26034164429</ele>
        <time>2018-08-28T07:54:41Z</time>
      </trkpt>
      <trkpt lat="43.0322963884501" lon="-5.07605172694202">
        <ele>1129.15450668335</ele>
        <time>2018-08-28T07:54:43Z</time>
      </trkpt>
      <trkpt lat="43.0323670478938" lon="-5.07612984627958">
        <ele>1128.37984848022</ele>
        <time>2018-08-28T07:54:45Z</time>
      </trkpt>
      <trkpt lat="43.0324145732848" lon="-5.07617980242248">
        <ele>1129.46517562866</ele>
        <time>2018-08-28T07:54:47Z</time>
      </trkpt>
      <trkpt lat="43.0324558122484" lon="-5.07625171915169">
        <ele>1127.48397445679</ele>
        <time>2018-08-28T07:54:48Z</time>
      </trkpt>
      <trkpt lat="43.0324907228751" lon="-5.07629044354435">
        <ele>1126.70345687866</ele>
        <time>2018-08-28T07:54:49Z</time>
      </trkpt>
      <trkpt lat="43.0325289443536" lon="-5.07632866502281">
        <ele>1127.1579246521</ele>
        <time>2018-08-28T07:54:50Z</time>
      </trkpt>
      <trkpt lat="43.032575044821" lon="-5.07635473274167">
        <ele>1128.36581039429</ele>
        <time>2018-08-28T07:54:51Z</time>
      </trkpt>
      <trkpt lat="43.0326208519219" lon="-5.07638297975536">
        <ele>1129.2819480896</ele>
        <time>2018-08-28T07:54:52Z</time>
      </trkpt>
      <trkpt lat="43.0327020725636" lon="-5.07644098252531">
        <ele>1130.14876937866</ele>
        <time>2018-08-28T07:54:54Z</time>
      </trkpt>
      <trkpt lat="43.0327443592651" lon="-5.07646537386354">
        <ele>1131.26302719116</ele>
        <time>2018-08-28T07:54:55Z</time>
      </trkpt>
      <trkpt lat="43.0328013981162" lon="-5.07654642686721">
        <ele>1132.10860824585</ele>
        <time>2018-08-28T07:54:57Z</time>
      </trkpt>
      <trkpt lat="43.0328679085179" lon="-5.07662580349024">
        <ele>1132.0192527771</ele>
        <time>2018-08-28T07:54:59Z</time>
      </trkpt>
      <trkpt lat="43.0329336645482" lon="-5.07672579959508">
        <ele>1132.11812973022</ele>
        <time>2018-08-28T07:55:01Z</time>
      </trkpt>
      <trkpt lat="43.0329692457272" lon="-5.0767800305086">
        <ele>1132.33578109741</ele>
        <time>2018-08-28T07:55:02Z</time>
      </trkpt>
      <trkpt lat="43.0330081377579" lon="-5.07683275267955">
        <ele>1131.74959945679</ele>
        <time>2018-08-28T07:55:03Z</time>
      </trkpt>
      <trkpt lat="43.0330380611522" lon="-5.07687969133731">
        <ele>1131.16048812866</ele>
        <time>2018-08-28T07:55:04Z</time>
      </trkpt>
      <trkpt lat="43.033061195205" lon="-5.07694188505884">
        <ele>1131.57796859741</ele>
        <time>2018-08-28T07:55:05Z</time>
      </trkpt>
      <trkpt lat="43.033096944022" lon="-5.0769837945747">
        <ele>1131.8493309021</ele>
        <time>2018-08-28T07:55:06Z</time>
      </trkpt>
      <trkpt lat="43.0331408232851" lon="-5.0770525261807">
        <ele>1130.51082992554</ele>
        <time>2018-08-28T07:55:07Z</time>
      </trkpt>
      <trkpt lat="43.0331996223359" lon="-5.07715646178003">
        <ele>1132.19625473022</ele>
        <time>2018-08-28T07:55:09Z</time>
      </trkpt>
      <trkpt lat="43.0332362093432" lon="-5.07722184062477">
        <ele>1132.22762680054</ele>
        <time>2018-08-28T07:55:10Z</time>
      </trkpt>
      <trkpt lat="43.0332707846938" lon="-5.0772821903276">
        <ele>1133.2223777771</ele>
        <time>2018-08-28T07:55:11Z</time>
      </trkpt>
      <trkpt lat="43.0333072459726" lon="-5.07734287530657">
        <ele>1133.6217918396</ele>
        <time>2018-08-28T07:55:12Z</time>
      </trkpt>
      <trkpt lat="43.0333526339783" lon="-5.07739853114363">
        <ele>1133.62191390991</ele>
        <time>2018-08-28T07:55:13Z</time>
      </trkpt>
      <trkpt lat="43.0333874607859" lon="-5.0774481520104">
        <ele>1135.24984359741</ele>
        <time>2018-08-28T07:55:14Z</time>
      </trkpt>
      <trkpt lat="43.0334332259773" lon="-5.07749366574462">
        <ele>1135.54916000366</ele>
        <time>2018-08-28T07:55:15Z</time>
      </trkpt>
      <trkpt lat="43.0334791168971" lon="-5.07755250670489">
        <ele>1135.25252914429</ele>
        <time>2018-08-28T07:55:16Z</time>
      </trkpt>
      <trkpt lat="43.0335219903318" lon="-5.07760749198969">
        <ele>1134.76278305054</ele>
        <time>2018-08-28T07:55:17Z</time>
      </trkpt>
      <trkpt lat="43.0335682584374" lon="-5.07766013034161">
        <ele>1135.30453109741</ele>
        <time>2018-08-28T07:55:18Z</time>
      </trkpt>
      <trkpt lat="43.0336205196036" lon="-5.07771343924578">
        <ele>1134.9342918396</ele>
        <time>2018-08-28T07:55:19Z</time>
      </trkpt>
      <trkpt lat="43.0336707272036" lon="-5.07777060382541">
        <ele>1135.27877426147</ele>
        <time>2018-08-28T07:55:20Z</time>
      </trkpt>
      <trkpt lat="43.0337134749098" lon="-5.07781645283576">
        <ele>1135.13302230835</ele>
        <time>2018-08-28T07:55:21Z</time>
      </trkpt>
      <trkpt lat="43.0337453261419" lon="-5.07788032293793">
        <ele>1135.88497543335</ele>
        <time>2018-08-28T07:55:22Z</time>
      </trkpt>
      <trkpt lat="43.0338004790647" lon="-5.07790513337131">
        <ele>1136.19076156616</ele>
        <time>2018-08-28T07:55:23Z</time>
      </trkpt>
      <trkpt lat="43.0338430591328" lon="-5.07795534097131">
        <ele>1135.7653465271</ele>
        <time>2018-08-28T07:55:24Z</time>
      </trkpt>
      <trkpt lat="43.0338943982898" lon="-5.07799850777264">
        <ele>1135.66048812866</ele>
        <time>2018-08-28T07:55:25Z</time>
      </trkpt>
      <trkpt lat="43.033954454626" lon="-5.07801971398767">
        <ele>1131.70455551147</ele>
        <time>2018-08-28T07:55:26Z</time>
      </trkpt>
      <trkpt lat="43.0340000521792" lon="-5.07807017304476">
        <ele>1131.66366195679</ele>
        <time>2018-08-28T07:55:27Z</time>
      </trkpt>
      <trkpt lat="43.0340496311365" lon="-5.07812239230152">
        <ele>1131.30978012085</ele>
        <time>2018-08-28T07:55:28Z</time>
      </trkpt>
      <trkpt lat="43.0341127468674" lon="-5.0781495496678">
        <ele>1129.5710105896</ele>
        <time>2018-08-28T07:55:29Z</time>
      </trkpt>
      <trkpt lat="43.0341721326513" lon="-5.07818936370786">
        <ele>1129.46676254272</ele>
        <time>2018-08-28T07:55:30Z</time>
      </trkpt>
      <trkpt lat="43.0342222564323" lon="-5.07822490297731">
        <ele>1130.52193832397</ele>
        <time>2018-08-28T07:55:31Z</time>
      </trkpt>
      <trkpt lat="43.0342586338921" lon="-5.07827309892054">
        <ele>1131.91146469116</ele>
        <time>2018-08-28T07:55:32Z</time>
      </trkpt>
      <trkpt lat="43.034312571439" lon="-5.07831894793089">
        <ele>1131.69478988647</ele>
        <time>2018-08-28T07:55:33Z</time>
      </trkpt>
      <trkpt lat="43.0343588395445" lon="-5.07837602869149">
        <ele>1131.97933578491</ele>
        <time>2018-08-28T07:55:34Z</time>
      </trkpt>
      <trkpt lat="43.0344029283552" lon="-5.07841550745543">
        <ele>1134.40291976929</ele>
        <time>2018-08-28T07:55:35Z</time>
      </trkpt>
      <trkpt lat="43.0344514595745" lon="-5.07846395485576">
        <ele>1133.27718734741</ele>
        <time>2018-08-28T07:55:36Z</time>
      </trkpt>
      <trkpt lat="43.0345023377268" lon="-5.07850385271486">
        <ele>1132.52669906616</ele>
        <time>2018-08-28T07:55:37Z</time>
      </trkpt>
      <trkpt lat="43.0345561495452" lon="-5.0785446725833">
        <ele>1132.16231918335</ele>
        <time>2018-08-28T07:55:38Z</time>
      </trkpt>
      <trkpt lat="43.0346137332199" lon="-5.07860418409582">
        <ele>1129.97384262085</ele>
        <time>2018-08-28T07:55:39Z</time>
      </trkpt>
      <trkpt lat="43.0346520385174" lon="-5.07866168395158">
        <ele>1130.10140609741</ele>
        <time>2018-08-28T07:55:40Z</time>
      </trkpt>
      <trkpt lat="43.034706269431" lon="-5.07870828733321">
        <ele>1129.46383285522</ele>
        <time>2018-08-28T07:55:41Z</time>
      </trkpt>
      <trkpt lat="43.0347439041762" lon="-5.07876721211251">
        <ele>1129.2995262146</ele>
        <time>2018-08-28T07:55:42Z</time>
      </trkpt>
      <trkpt lat="43.0347889569057" lon="-5.07881096564706">
        <ele>1129.79720687866</ele>
        <time>2018-08-28T07:55:43Z</time>
      </trkpt>
      <trkpt lat="43.0348417209862" lon="-5.0788678787696">
        <ele>1130.08431625366</ele>
        <time>2018-08-28T07:55:44Z</time>
      </trkpt>
      <trkpt lat="43.034889958839" lon="-5.07891691290315">
        <ele>1129.74752426147</ele>
        <time>2018-08-28T07:55:45Z</time>
      </trkpt>
      <trkpt lat="43.0349441897525" lon="-5.07896326482769">
        <ele>1129.94686508179</ele>
        <time>2018-08-28T07:55:46Z</time>
      </trkpt>
      <trkpt lat="43.0350014381511" lon="-5.07902034558829">
        <ele>1129.68856430054</ele>
        <time>2018-08-28T07:55:47Z</time>
      </trkpt>
      <trkpt lat="43.0350544536887" lon="-5.0790682062554">
        <ele>1131.16695785522</ele>
        <time>2018-08-28T07:55:48Z</time>
      </trkpt>
      <trkpt lat="43.0350951897381" lon="-5.07911464199897">
        <ele>1130.75570297241</ele>
        <time>2018-08-28T07:55:49Z</time>
      </trkpt>
      <trkpt lat="43.0351509713037" lon="-5.07916409522768">
        <ele>1130.87679672241</ele>
        <time>2018-08-28T07:55:50Z</time>
      </trkpt>
      <trkpt lat="43.0352025200082" lon="-5.07921757176991">
        <ele>1130.16256332397</ele>
        <time>2018-08-28T07:55:51Z</time>
      </trkpt>
      <trkpt lat="43.0352570023788" lon="-5.0792703777599">
        <ele>1130.70748519897</ele>
        <time>2018-08-28T07:55:52Z</time>
      </trkpt>
      <trkpt lat="43.035311694297" lon="-5.07931890897926">
        <ele>1131.41463851929</ele>
        <time>2018-08-28T07:55:53Z</time>
      </trkpt>
      <trkpt lat="43.0353540229081" lon="-5.07936794311281">
        <ele>1133.32357406616</ele>
        <time>2018-08-28T07:55:54Z</time>
      </trkpt>
      <trkpt lat="43.0353973154379" lon="-5.07941320538994">
        <ele>1133.24850082397</ele>
        <time>2018-08-28T07:55:55Z</time>
      </trkpt>
      <trkpt lat="43.0354439607291" lon="-5.07946567610379">
        <ele>1132.71615219116</ele>
        <time>2018-08-28T07:55:56Z</time>
      </trkpt>
      <trkpt lat="43.035491402301" lon="-5.07951990701731">
        <ele>1132.47665023804</ele>
        <time>2018-08-28T07:55:57Z</time>
      </trkpt>
      <trkpt lat="43.0355444597481" lon="-5.07956483401831">
        <ele>1132.44832992554</ele>
        <time>2018-08-28T07:55:58Z</time>
      </trkpt>
      <trkpt lat="43.0356040550797" lon="-5.07961596362766">
        <ele>1133.57870101929</ele>
        <time>2018-08-28T07:55:59Z</time>
      </trkpt>
      <trkpt lat="43.0356655782489" lon="-5.07967212237891">
        <ele>1133.16537094116</ele>
        <time>2018-08-28T07:56:00Z</time>
      </trkpt>
      <trkpt lat="43.0357202282576" lon="-5.07972333580729">
        <ele>1133.62850570679</ele>
        <time>2018-08-28T07:56:01Z</time>
      </trkpt>
      <trkpt lat="43.0357713997765" lon="-5.0797624792951">
        <ele>1133.96810531616</ele>
        <time>2018-08-28T07:56:02Z</time>
      </trkpt>
      <trkpt lat="43.0358190928055" lon="-5.07979416288909">
        <ele>1134.12850570679</ele>
        <time>2018-08-28T07:56:03Z</time>
      </trkpt>
      <trkpt lat="43.0358701805054" lon="-5.07982140407439">
        <ele>1134.80941390991</ele>
        <time>2018-08-28T07:56:04Z</time>
      </trkpt>
      <trkpt lat="43.0359303206606" lon="-5.0798639841425">
        <ele>1134.09005355835</ele>
        <time>2018-08-28T07:56:05Z</time>
      </trkpt>
      <trkpt lat="43.035976169671" lon="-5.07989726029809">
        <ele>1135.28548812866</ele>
        <time>2018-08-28T07:56:06Z</time>
      </trkpt>
      <trkpt lat="43.0360270478232" lon="-5.07992609404501">
        <ele>1134.58016586304</ele>
        <time>2018-08-28T07:56:07Z</time>
      </trkpt>
      <trkpt lat="43.0360729806526" lon="-5.07995953783866">
        <ele>1134.41170883179</ele>
        <time>2018-08-28T07:56:08Z</time>
      </trkpt>
      <trkpt lat="43.0361206317721" lon="-5.07998552173849">
        <ele>1133.6715965271</ele>
        <time>2018-08-28T07:56:09Z</time>
      </trkpt>
      <trkpt lat="43.0361671932442" lon="-5.08003371768173">
        <ele>1132.23946762085</ele>
        <time>2018-08-28T07:56:10Z</time>
      </trkpt>
      <trkpt lat="43.0362143833591" lon="-5.08007026277956">
        <ele>1132.71249008179</ele>
        <time>2018-08-28T07:56:11Z</time>
      </trkpt>
      <trkpt lat="43.0362632079451" lon="-5.08011854254182">
        <ele>1132.09652328491</ele>
        <time>2018-08-28T07:56:12Z</time>
      </trkpt>
      <trkpt lat="43.0363150500162" lon="-5.08015500382062">
        <ele>1132.71285629272</ele>
        <time>2018-08-28T07:56:13Z</time>
      </trkpt>
      <trkpt lat="43.0363663472636" lon="-5.08019171655651">
        <ele>1133.54671859741</ele>
        <time>2018-08-28T07:56:14Z</time>
      </trkpt>
      <trkpt lat="43.0364062870322" lon="-5.08023890667137">
        <ele>1133.95650863647</ele>
        <time>2018-08-28T07:56:15Z</time>
      </trkpt>
      <trkpt lat="43.0364424549444" lon="-5.08028903045233">
        <ele>1134.65633773804</ele>
        <time>2018-08-28T07:56:16Z</time>
      </trkpt>
      <trkpt lat="43.036478413309" lon="-5.08033362217721">
        <ele>1135.34725570679</ele>
        <time>2018-08-28T07:56:17Z</time>
      </trkpt>
      <trkpt lat="43.0365214124723" lon="-5.08038609289106">
        <ele>1136.80001449585</ele>
        <time>2018-08-28T07:56:18Z</time>
      </trkpt>
      <trkpt lat="43.036572332534" lon="-5.08044267073747">
        <ele>1136.67782211304</ele>
        <time>2018-08-28T07:56:19Z</time>
      </trkpt>
      <trkpt lat="43.036622372496" lon="-5.08048650809106">
        <ele>1136.47188949585</ele>
        <time>2018-08-28T07:56:20Z</time>
      </trkpt>
      <trkpt lat="43.0366626056312" lon="-5.0805394817191">
        <ele>1136.42281723022</ele>
        <time>2018-08-28T07:56:21Z</time>
      </trkpt>
      <trkpt lat="43.0367048085137" lon="-5.08058466017719">
        <ele>1136.99117660522</ele>
        <time>2018-08-28T07:56:22Z</time>
      </trkpt>
      <trkpt lat="43.0367395095928" lon="-5.08062900044497">
        <ele>1136.53280258179</ele>
        <time>2018-08-28T07:56:23Z</time>
      </trkpt>
      <trkpt lat="43.0367800780041" lon="-5.08069077507135">
        <ele>1137.50814437866</ele>
        <time>2018-08-28T07:56:24Z</time>
      </trkpt>
      <trkpt lat="43.0368126836075" lon="-5.08074006066199">
        <ele>1136.6120262146</ele>
        <time>2018-08-28T07:56:25Z</time>
      </trkpt>
      <trkpt lat="43.0368571076943" lon="-5.08079102263328">
        <ele>1136.0065574646</ele>
        <time>2018-08-28T07:56:26Z</time>
      </trkpt>
      <trkpt lat="43.0369041720806" lon="-5.08084584028002">
        <ele>1136.79647445679</ele>
        <time>2018-08-28T07:56:27Z</time>
      </trkpt>
      <trkpt lat="43.0369415972783" lon="-5.08089235984262">
        <ele>1137.14144515991</ele>
        <time>2018-08-28T07:56:28Z</time>
      </trkpt>
      <trkpt lat="43.0369865242793" lon="-5.08093594573911">
        <ele>1137.2370262146</ele>
        <time>2018-08-28T07:56:29Z</time>
      </trkpt>
      <trkpt lat="43.0370306549995" lon="-5.08099403232809">
        <ele>1137.37484359741</ele>
        <time>2018-08-28T07:56:30Z</time>
      </trkpt>
      <trkpt lat="43.037074324715" lon="-5.08103937842425">
        <ele>1136.42098617554</ele>
        <time>2018-08-28T07:56:31Z</time>
      </trkpt>
      <trkpt lat="43.0371109117223" lon="-5.08107977919754">
        <ele>1136.22591781616</ele>
        <time>2018-08-28T07:56:32Z</time>
      </trkpt>
      <trkpt lat="43.0371543299808" lon="-5.08112755604562">
        <ele>1136.32809066772</ele>
        <time>2018-08-28T07:56:33Z</time>
      </trkpt>
      <trkpt lat="43.0372013524576" lon="-5.08117767982658">
        <ele>1137.2448387146</ele>
        <time>2018-08-28T07:56:34Z</time>
      </trkpt>
      <trkpt lat="43.0372431362449" lon="-5.08122839034077">
        <ele>1136.57845687866</ele>
        <time>2018-08-28T07:56:35Z</time>
      </trkpt>
      <trkpt lat="43.0372814415424" lon="-5.08128262125429">
        <ele>1137.43062973022</ele>
        <time>2018-08-28T07:56:36Z</time>
      </trkpt>
      <trkpt lat="43.0373244407056" lon="-5.0813442282426">
        <ele>1137.1159324646</ele>
        <time>2018-08-28T07:56:37Z</time>
      </trkpt>
      <trkpt lat="43.03736647595" lon="-5.08139384910938">
        <ele>1137.20003890991</ele>
        <time>2018-08-28T07:56:38Z</time>
      </trkpt>
      <trkpt lat="43.037408720742" lon="-5.08144380525228">
        <ele>1137.78853988647</ele>
        <time>2018-08-28T07:56:39Z</time>
      </trkpt>
      <trkpt lat="43.0374504207103" lon="-5.0815049093264">
        <ele>1137.09005355835</ele>
        <time>2018-08-28T07:56:40Z</time>
      </trkpt>
      <trkpt lat="43.037491911131" lon="-5.08155151270803">
        <ele>1136.32223129272</ele>
        <time>2018-08-28T07:56:41Z</time>
      </trkpt>
      <trkpt lat="43.0375307612522" lon="-5.08159828372773">
        <ele>1136.58456039429</ele>
        <time>2018-08-28T07:56:42Z</time>
      </trkpt>
      <trkpt lat="43.0375811783998" lon="-5.08164840750869">
        <ele>1137.16097640991</ele>
        <time>2018-08-28T07:56:43Z</time>
      </trkpt>
      <trkpt lat="43.0376269855006" lon="-5.08169274777647">
        <ele>1137.47018051147</ele>
        <time>2018-08-28T07:56:44Z</time>
      </trkpt>
      <trkpt lat="43.0376642430602" lon="-5.08173935115811">
        <ele>1139.50448226929</ele>
        <time>2018-08-28T07:56:45Z</time>
      </trkpt>
      <trkpt lat="43.0377029255433" lon="-5.08179341443356">
        <ele>1140.06466293335</ele>
        <time>2018-08-28T07:56:46Z</time>
      </trkpt>
      <trkpt lat="43.0377398478268" lon="-5.08184622042354">
        <ele>1140.18746566772</ele>
        <time>2018-08-28T07:56:47Z</time>
      </trkpt>
      <trkpt lat="43.0377710285066" lon="-5.08190589957413">
        <ele>1140.29049301147</ele>
        <time>2018-08-28T07:56:48Z</time>
      </trkpt>
      <trkpt lat="43.0378067773236" lon="-5.08196633309599">
        <ele>1140.46126937866</ele>
        <time>2018-08-28T07:56:49Z</time>
      </trkpt>
      <trkpt lat="43.0378398439316" lon="-5.08203020319816">
        <ele>1140.80404281616</ele>
        <time>2018-08-28T07:56:50Z</time>
      </trkpt>
      <trkpt lat="43.0378701445116" lon="-5.08210714906927">
        <ele>1140.67599105835</ele>
        <time>2018-08-28T07:56:51Z</time>
      </trkpt>
      <trkpt lat="43.0379006546392" lon="-5.08217194118079">
        <ele>1140.33932113647</ele>
        <time>2018-08-28T07:56:52Z</time>
      </trkpt>
      <trkpt lat="43.03792135794" lon="-5.08224394172903">
        <ele>1139.54977035522</ele>
        <time>2018-08-28T07:56:53Z</time>
      </trkpt>
      <trkpt lat="43.0379451206355" lon="-5.08231015876409">
        <ele>1139.99715805054</ele>
        <time>2018-08-28T07:56:54Z</time>
      </trkpt>
      <trkpt lat="43.0379646085604" lon="-5.08237604052302">
        <ele>1140.27743148804</ele>
        <time>2018-08-28T07:56:55Z</time>
      </trkpt>
      <trkpt lat="43.0379831325664" lon="-5.08245382458445">
        <ele>1141.43355941772</ele>
        <time>2018-08-28T07:56:56Z</time>
      </trkpt>
      <trkpt lat="43.0380035425006" lon="-5.08252842352268">
        <ele>1142.00509262085</ele>
        <time>2018-08-28T07:56:57Z</time>
      </trkpt>
      <trkpt lat="43.0380130140512" lon="-5.08259338327225">
        <ele>1143.69137191772</ele>
        <time>2018-08-28T07:56:58Z</time>
      </trkpt>
      <trkpt lat="43.0380301550432" lon="-5.08267099969562">
        <ele>1143.41012191772</ele>
        <time>2018-08-28T07:56:59Z</time>
      </trkpt>
      <trkpt lat="43.0380550073861" lon="-5.08274417371031">
        <ele>1143.68050765991</ele>
        <time>2018-08-28T07:57:00Z</time>
      </trkpt>
      <trkpt lat="43.0380700109927" lon="-5.08281609043952">
        <ele>1142.70907211304</ele>
        <time>2018-08-28T07:57:01Z</time>
      </trkpt>
      <trkpt lat="43.0380813684715" lon="-5.0828950479674">
        <ele>1142.49227523804</ele>
        <time>2018-08-28T07:57:02Z</time>
      </trkpt>
      <trkpt lat="43.0381012754916" lon="-5.08297610097107">
        <ele>1143.21688461304</ele>
        <time>2018-08-28T07:57:03Z</time>
      </trkpt>
      <trkpt lat="43.0381190451263" lon="-5.08305564523217">
        <ele>1144.4870262146</ele>
        <time>2018-08-28T07:57:04Z</time>
      </trkpt>
      <trkpt lat="43.0381398322462" lon="-5.08313510567423">
        <ele>1144.93783187866</ele>
        <time>2018-08-28T07:57:05Z</time>
      </trkpt>
      <trkpt lat="43.0381572246952" lon="-5.08321632631596">
        <ele>1145.60726547241</ele>
        <time>2018-08-28T07:57:06Z</time>
      </trkpt>
      <trkpt lat="43.0381774250819" lon="-5.08330031298574">
        <ele>1145.59762191772</ele>
        <time>2018-08-28T07:57:07Z</time>
      </trkpt>
      <trkpt lat="43.038193602155" lon="-5.08337910287556">
        <ele>1147.74825668335</ele>
        <time>2018-08-28T07:57:08Z</time>
      </trkpt>
      <trkpt lat="43.0382122937991" lon="-5.0834614131647">
        <ele>1147.29342269897</ele>
        <time>2018-08-28T07:57:09Z</time>
      </trkpt>
      <trkpt lat="43.0382312788098" lon="-5.083544142549">
        <ele>1147.33114242554</ele>
        <time>2018-08-28T07:57:10Z</time>
      </trkpt>
      <trkpt lat="43.0382499285443" lon="-5.08361773565885">
        <ele>1147.97274398804</ele>
        <time>2018-08-28T07:57:11Z</time>
      </trkpt>
      <trkpt lat="43.0382638005941" lon="-5.08369971067187">
        <ele>1147.75838851929</ele>
        <time>2018-08-28T07:57:12Z</time>
      </trkpt>
      <trkpt lat="43.0382786784722" lon="-5.0837825238752">
        <ele>1149.6637840271</ele>
        <time>2018-08-28T07:57:13Z</time>
      </trkpt>
      <trkpt lat="43.038301896344" lon="-5.08386583999273">
        <ele>1149.6335105896</ele>
        <time>2018-08-28T07:57:14Z</time>
      </trkpt>
      <trkpt lat="43.0383265810488" lon="-5.0839466415393">
        <ele>1150.48617172241</ele>
        <time>2018-08-28T07:57:15Z</time>
      </trkpt>
      <trkpt lat="43.0383554986148" lon="-5.0840312149423">
        <ele>1150.37936019897</ele>
        <time>2018-08-28T07:57:16Z</time>
      </trkpt>
      <trkpt lat="43.0383808119623" lon="-5.08412157185849">
        <ele>1150.08236312866</ele>
        <time>2018-08-28T07:57:17Z</time>
      </trkpt>
      <trkpt lat="43.0384031497343" lon="-5.08420354687151">
        <ele>1150.18661117554</ele>
        <time>2018-08-28T07:57:18Z</time>
      </trkpt>
      <trkpt lat="43.0384255294158" lon="-5.08430186659571">
        <ele>1149.11703109741</ele>
        <time>2018-08-28T07:57:19Z</time>
      </trkpt>
      <trkpt lat="43.0384516809536" lon="-5.08438593708452">
        <ele>1148.84090805054</ele>
        <time>2018-08-28T07:57:20Z</time>
      </trkpt>
      <trkpt lat="43.0384749826445" lon="-5.0844752043533">
        <ele>1148.54293441772</ele>
        <time>2018-08-28T07:57:21Z</time>
      </trkpt>
      <trkpt lat="43.0384994997112" lon="-5.08455516770956">
        <ele>1148.37337875366</ele>
        <time>2018-08-28T07:57:22Z</time>
      </trkpt>
      <trkpt lat="43.0385209992929" lon="-5.08464057930287">
        <ele>1147.56869125366</ele>
        <time>2018-08-28T07:57:23Z</time>
      </trkpt>
      <trkpt lat="43.0385432532458" lon="-5.08473227732357">
        <ele>1147.39437484741</ele>
        <time>2018-08-28T07:57:24Z</time>
      </trkpt>
      <trkpt lat="43.0385647109179" lon="-5.08482213132557">
        <ele>1147.14254379272</ele>
        <time>2018-08-28T07:57:25Z</time>
      </trkpt>
      <trkpt lat="43.0385902757226" lon="-5.08491156623241">
        <ele>1147.16207504272</ele>
        <time>2018-08-28T07:57:26Z</time>
      </trkpt>
      <trkpt lat="43.0386116914852" lon="-5.08499831893024">
        <ele>1147.70296859741</ele>
        <time>2018-08-28T07:57:27Z</time>
      </trkpt>
      <trkpt lat="43.0386346578999" lon="-5.08507920429584">
        <ele>1148.1139793396</ele>
        <time>2018-08-28T07:57:28Z</time>
      </trkpt>
      <trkpt lat="43.0386612285329" lon="-5.08516143076595">
        <ele>1147.58541488647</ele>
        <time>2018-08-28T07:57:29Z</time>
      </trkpt>
      <trkpt lat="43.0386837758525" lon="-5.08524700999734">
        <ele>1147.90645980835</ele>
        <time>2018-08-28T07:57:30Z</time>
      </trkpt>
      <trkpt lat="43.0387121066852" lon="-5.08533745073256">
        <ele>1148.16939926147</ele>
        <time>2018-08-28T07:57:31Z</time>
      </trkpt>
      <trkpt lat="43.0387310916959" lon="-5.08542596363005">
        <ele>1148.31332015991</ele>
        <time>2018-08-28T07:57:32Z</time>
      </trkpt>
      <trkpt lat="43.0387504538922" lon="-5.08551162668046">
        <ele>1147.93172836304</ele>
        <time>2018-08-28T07:57:33Z</time>
      </trkpt>
      <trkpt lat="43.0387718277453" lon="-5.08559653535959">
        <ele>1147.63692855835</ele>
        <time>2018-08-28T07:57:34Z</time>
      </trkpt>
      <trkpt lat="43.0387922376795" lon="-5.08568094112453">
        <ele>1148.20516586304</ele>
        <time>2018-08-28T07:57:35Z</time>
      </trkpt>
      <trkpt lat="43.038813234347" lon="-5.08576836437461">
        <ele>1148.40145492554</ele>
        <time>2018-08-28T07:57:36Z</time>
      </trkpt>
      <trkpt lat="43.0388351111142" lon="-5.0858531892347">
        <ele>1148.1403465271</ele>
        <time>2018-08-28T07:57:37Z</time>
      </trkpt>
      <trkpt lat="43.0388509948207" lon="-5.08593625389513">
        <ele>1149.59908676147</ele>
        <time>2018-08-28T07:57:38Z</time>
      </trkpt>
      <trkpt lat="43.0388768110825" lon="-5.08602342568812">
        <ele>1149.03402328491</ele>
        <time>2018-08-28T07:57:39Z</time>
      </trkpt>
      <trkpt lat="43.038897975388" lon="-5.08610934019562">
        <ele>1149.00020980835</ele>
        <time>2018-08-28T07:57:40Z</time>
      </trkpt>
      <trkpt lat="43.0389242107449" lon="-5.0861951708841">
        <ele>1148.5964012146</ele>
        <time>2018-08-28T07:57:41Z</time>
      </trkpt>
      <trkpt lat="43.0389408488227" lon="-5.08628385141966">
        <ele>1148.19002914429</ele>
        <time>2018-08-28T07:57:42Z</time>
      </trkpt>
      <trkpt lat="43.0389635637803" lon="-5.08637772873518">
        <ele>1147.80135726929</ele>
        <time>2018-08-28T07:57:43Z</time>
      </trkpt>
      <trkpt lat="43.0389818363292" lon="-5.08647864684936">
        <ele>1147.46187973022</ele>
        <time>2018-08-28T07:57:44Z</time>
      </trkpt>
      <trkpt lat="43.0390112568094" lon="-5.08656573482331">
        <ele>1147.65816879272</ele>
        <time>2018-08-28T07:57:45Z</time>
      </trkpt>
      <trkpt lat="43.0390347261383" lon="-5.08665986359593">
        <ele>1146.55978012085</ele>
        <time>2018-08-28T07:57:46Z</time>
      </trkpt>
      <trkpt lat="43.0390594527526" lon="-5.08675365709242">
        <ele>1145.9089012146</ele>
        <time>2018-08-28T07:57:47Z</time>
      </trkpt>
      <trkpt lat="43.0390809104247" lon="-5.08684242144701">
        <ele>1146.23470687866</ele>
        <time>2018-08-28T07:57:48Z</time>
      </trkpt>
      <trkpt lat="43.0390999373449" lon="-5.08693587966737">
        <ele>1146.3083152771</ele>
        <time>2018-08-28T07:57:49Z</time>
      </trkpt>
      <trkpt lat="43.0391269689827" lon="-5.08703755215284">
        <ele>1145.16952133179</ele>
        <time>2018-08-28T07:57:50Z</time>
      </trkpt>
      <trkpt lat="43.0391448224364" lon="-5.08712992072579">
        <ele>1144.84420394897</ele>
        <time>2018-08-28T07:57:51Z</time>
      </trkpt>
      <trkpt lat="43.0391679564892" lon="-5.08722572587904">
        <ele>1144.02743148804</ele>
        <time>2018-08-28T07:57:52Z</time>
      </trkpt>
      <trkpt lat="43.0391890369756" lon="-5.08731482550976">
        <ele>1143.6637840271</ele>
        <time>2018-08-28T07:57:53Z</time>
      </trkpt>
      <trkpt lat="43.0392179964511" lon="-5.08740451187369">
        <ele>1143.06795883179</ele>
        <time>2018-08-28T07:57:54Z</time>
      </trkpt>
      <trkpt lat="43.0392345088004" lon="-5.08748824708637">
        <ele>1142.67086410522</ele>
        <time>2018-08-28T07:57:55Z</time>
      </trkpt>
      <trkpt lat="43.0392569303913" lon="-5.08757634088871">
        <ele>1142.32857894897</ele>
        <time>2018-08-28T07:57:56Z</time>
      </trkpt>
      <trkpt lat="43.0392839620291" lon="-5.08766703308102">
        <ele>1142.8112449646</ele>
        <time>2018-08-28T07:57:57Z</time>
      </trkpt>
      <trkpt lat="43.0393042881443" lon="-5.08775420487401">
        <ele>1142.0553855896</ele>
        <time>2018-08-28T07:57:58Z</time>
      </trkpt>
      <trkpt lat="43.039323524612" lon="-5.08783483878252">
        <ele>1142.46541976929</ele>
        <time>2018-08-28T07:57:59Z</time>
      </trkpt>
      <trkpt lat="43.0393488798691" lon="-5.08792117238519">
        <ele>1142.51754379272</ele>
        <time>2018-08-28T07:58:00Z</time>
      </trkpt>
      <trkpt lat="43.0393698765366" lon="-5.0880134571391">
        <ele>1141.82931137085</ele>
        <time>2018-08-28T07:58:01Z</time>
      </trkpt>
      <trkpt lat="43.0393972434504" lon="-5.08809937164661">
        <ele>1141.83028793335</ele>
        <time>2018-08-28T07:58:02Z</time>
      </trkpt>
      <trkpt lat="43.0394182401179" lon="-5.08818050846931">
        <ele>1142.5671043396</ele>
        <time>2018-08-28T07:58:03Z</time>
      </trkpt>
      <trkpt lat="43.0394373089476" lon="-5.08825250901756">
        <ele>1142.48141098022</ele>
        <time>2018-08-28T07:58:04Z</time>
      </trkpt>
      <trkpt lat="43.0394589342578" lon="-5.08833733387765">
        <ele>1141.86959457397</ele>
        <time>2018-08-28T07:58:05Z</time>
      </trkpt>
      <trkpt lat="43.0394828645913" lon="-5.08841956034777">
        <ele>1141.31576156616</ele>
        <time>2018-08-28T07:58:06Z</time>
      </trkpt>
      <trkpt lat="43.0394972395553" lon="-5.08849675767598">
        <ele>1143.33492660522</ele>
        <time>2018-08-28T07:58:07Z</time>
      </trkpt>
      <trkpt lat="43.0395158054708" lon="-5.08858334273574">
        <ele>1143.5524559021</ele>
        <time>2018-08-28T07:58:08Z</time>
      </trkpt>
      <trkpt lat="43.03954011299" lon="-5.08866012096879">
        <ele>1143.28890609741</ele>
        <time>2018-08-28T07:58:09Z</time>
      </trkpt>
      <trkpt lat="43.0395578407152" lon="-5.08873463608798">
        <ele>1142.86422348022</ele>
        <time>2018-08-28T07:58:10Z</time>
      </trkpt>
      <trkpt lat="43.0395798851205" lon="-5.08880797774074">
        <ele>1143.44686508179</ele>
        <time>2018-08-28T07:58:11Z</time>
      </trkpt>
      <trkpt lat="43.0395992054073" lon="-5.08887830190834">
        <ele>1144.1530418396</ele>
        <time>2018-08-28T07:58:12Z</time>
      </trkpt>
      <trkpt lat="43.0396178970514" lon="-5.08895155974206">
        <ele>1144.43478012085</ele>
        <time>2018-08-28T07:58:13Z</time>
      </trkpt>
      <trkpt lat="43.0396374268858" lon="-5.08903043345091">
        <ele>1144.84872055054</ele>
        <time>2018-08-28T07:58:14Z</time>
      </trkpt>
      <trkpt lat="43.0396542326017" lon="-5.08910536766526">
        <ele>1145.57406234741</ele>
        <time>2018-08-28T07:58:15Z</time>
      </trkpt>
      <trkpt lat="43.0396720860554" lon="-5.08917745203254">
        <ele>1145.3708152771</ele>
        <time>2018-08-28T07:58:16Z</time>
      </trkpt>
      <trkpt lat="43.0396896461426" lon="-5.08924752474305">
        <ele>1145.25082015991</ele>
        <time>2018-08-28T07:58:17Z</time>
      </trkpt>
      <trkpt lat="43.0397050269349" lon="-5.08932069875774">
        <ele>1144.5602684021</ele>
        <time>2018-08-28T07:58:18Z</time>
      </trkpt>
      <trkpt lat="43.0397214973746" lon="-5.08939588442919">
        <ele>1144.53817367554</ele>
        <time>2018-08-28T07:58:19Z</time>
      </trkpt>
      <trkpt lat="43.0397419492184" lon="-5.08946361020681">
        <ele>1145.43746566772</ele>
        <time>2018-08-28T07:58:20Z</time>
      </trkpt>
      <trkpt lat="43.0397647899045" lon="-5.08953267708895">
        <ele>1145.83504867554</ele>
        <time>2018-08-28T07:58:21Z</time>
      </trkpt>
      <trkpt lat="43.0397861218481" lon="-5.08960861713168">
        <ele>1145.74947738647</ele>
        <time>2018-08-28T07:58:22Z</time>
      </trkpt>
      <trkpt lat="43.0398046458541" lon="-5.08968036622283">
        <ele>1145.16353988647</ele>
        <time>2018-08-28T07:58:23Z</time>
      </trkpt>
      <trkpt lat="43.0398272350831" lon="-5.08975328878042">
        <ele>1145.4108543396</ele>
        <time>2018-08-28T07:58:24Z</time>
      </trkpt>
      <trkpt lat="43.0398411909519" lon="-5.08982629515705">
        <ele>1144.58529281616</ele>
        <time>2018-08-28T07:58:25Z</time>
      </trkpt>
      <trkpt lat="43.0398577871202" lon="-5.08989879861948">
        <ele>1144.63387680054</ele>
        <time>2018-08-28T07:58:26Z</time>
      </trkpt>
      <trkpt lat="43.0398754729359" lon="-5.08996292017874">
        <ele>1144.58114242554</ele>
        <time>2018-08-28T07:58:27Z</time>
      </trkpt>
      <trkpt lat="43.0398903089045" lon="-5.09003584273634">
        <ele>1144.37887191772</ele>
        <time>2018-08-28T07:58:28Z</time>
      </trkpt>
      <trkpt lat="43.0399074498965" lon="-5.09010951966521">
        <ele>1144.10116195679</ele>
        <time>2018-08-28T07:58:29Z</time>
      </trkpt>
      <trkpt lat="43.0399256805359" lon="-5.09017892182347">
        <ele>1143.9176902771</ele>
        <time>2018-08-28T07:58:30Z</time>
      </trkpt>
      <trkpt lat="43.0399440369038" lon="-5.09025285020945">
        <ele>1143.85409164429</ele>
        <time>2018-08-28T07:58:31Z</time>
      </trkpt>
      <trkpt lat="43.0399605911626" lon="-5.09032627568123">
        <ele>1143.68050765991</ele>
        <time>2018-08-28T07:58:32Z</time>
      </trkpt>
      <trkpt lat="43.0399792828067" lon="-5.09039970115301">
        <ele>1143.58492660522</ele>
        <time>2018-08-28T07:58:33Z</time>
      </trkpt>
      <trkpt lat="43.0399941187753" lon="-5.09047094732997">
        <ele>1143.59298324585</ele>
        <time>2018-08-28T07:58:34Z</time>
      </trkpt>
      <trkpt lat="43.0400114274053" lon="-5.09054462425885">
        <ele>1143.2790184021</ele>
        <time>2018-08-28T07:58:35Z</time>
      </trkpt>
      <trkpt lat="43.0400298675923" lon="-5.09061478078839">
        <ele>1143.94515609741</ele>
        <time>2018-08-28T07:58:36Z</time>
      </trkpt>
      <trkpt lat="43.040050319436" lon="-5.09069113992629">
        <ele>1143.6247215271</ele>
        <time>2018-08-28T07:58:37Z</time>
      </trkpt>
      <trkpt lat="43.0400675442471" lon="-5.0907649006742">
        <ele>1143.63021469116</ele>
        <time>2018-08-28T07:58:38Z</time>
      </trkpt>
      <trkpt lat="43.0400890019192" lon="-5.09083975106952">
        <ele>1143.57027816772</ele>
        <time>2018-08-28T07:58:39Z</time>
      </trkpt>
      <trkpt lat="43.0401070649205" lon="-5.09091191925583">
        <ele>1143.1696434021</ele>
        <time>2018-08-28T07:58:40Z</time>
      </trkpt>
      <trkpt lat="43.040126930031" lon="-5.0909876916605">
        <ele>1143.55941390991</ele>
        <time>2018-08-28T07:58:41Z</time>
      </trkpt>
      <trkpt lat="43.0401460407703" lon="-5.09106237441775">
        <ele>1143.06734848022</ele>
        <time>2018-08-28T07:58:42Z</time>
      </trkpt>
      <trkpt lat="43.0401650257809" lon="-5.09113839827952">
        <ele>1143.50960922241</ele>
        <time>2018-08-28T07:58:43Z</time>
      </trkpt>
      <trkpt lat="43.0401832983299" lon="-5.09121148847518">
        <ele>1143.99410629272</ele>
        <time>2018-08-28T07:58:44Z</time>
      </trkpt>
      <trkpt lat="43.0401986372127" lon="-5.09128960781273">
        <ele>1143.12032699585</ele>
        <time>2018-08-28T07:58:45Z</time>
      </trkpt>
      <trkpt lat="43.0402172031282" lon="-5.0913637876558">
        <ele>1142.85738754272</ele>
        <time>2018-08-28T07:58:46Z</time>
      </trkpt>
      <trkpt lat="43.0402345955773" lon="-5.09143436328051">
        <ele>1142.74239730835</ele>
        <time>2018-08-28T07:58:47Z</time>
      </trkpt>
      <trkpt lat="43.0402503535552" lon="-5.09150527418134">
        <ele>1143.4225730896</ele>
        <time>2018-08-28T07:58:48Z</time>
      </trkpt>
      <trkpt lat="43.0402697995706" lon="-5.09158062749085">
        <ele>1143.33187484741</ele>
        <time>2018-08-28T07:58:49Z</time>
      </trkpt>
      <trkpt lat="43.0402822466968" lon="-5.09165044874427">
        <ele>1143.65865707397</ele>
        <time>2018-08-28T07:58:50Z</time>
      </trkpt>
      <trkpt lat="43.0402914667903" lon="-5.09172789752958">
        <ele>1143.6276512146</ele>
        <time>2018-08-28T07:58:51Z</time>
      </trkpt>
      <trkpt lat="43.0403003935172" lon="-5.09180400521037">
        <ele>1143.35250473022</ele>
        <time>2018-08-28T07:58:52Z</time>
      </trkpt>
      <trkpt lat="43.040305171202" lon="-5.0918870698708">
        <ele>1143.33590316772</ele>
        <time>2018-08-28T07:58:53Z</time>
      </trkpt>
      <trkpt lat="43.040309152606" lon="-5.09196761996028">
        <ele>1143.96346664429</ele>
        <time>2018-08-28T07:58:54Z</time>
      </trkpt>
      <trkpt lat="43.0403082305966" lon="-5.0920527800965">
        <ele>1145.56405258179</ele>
        <time>2018-08-28T07:58:55Z</time>
      </trkpt>
      <trkpt lat="43.0403099907963" lon="-5.09212519973991">
        <ele>1146.43355941772</ele>
        <time>2018-08-28T07:58:56Z</time>
      </trkpt>
      <trkpt lat="43.0403120443626" lon="-5.09220390581069">
        <ele>1146.2878074646</ele>
        <time>2018-08-28T07:58:57Z</time>
      </trkpt>
      <trkpt lat="43.0403179536043" lon="-5.09228730574724">
        <ele>1145.90670394897</ele>
        <time>2018-08-28T07:58:58Z</time>
      </trkpt>
      <trkpt lat="43.040322312194" lon="-5.09237506427345">
        <ele>1145.22799301147</ele>
        <time>2018-08-28T07:58:59Z</time>
      </trkpt>
      <trkpt lat="43.0403212225465" lon="-5.09246408008513">
        <ele>1144.66537094116</ele>
        <time>2018-08-28T07:59:00Z</time>
      </trkpt>
      <trkpt lat="43.040315816219" lon="-5.09254915640232">
        <ele>1143.96957015991</ele>
        <time>2018-08-28T07:59:01Z</time>
      </trkpt>
      <trkpt lat="43.0403044168307" lon="-5.0926318019676">
        <ele>1143.78145980835</ele>
        <time>2018-08-28T07:59:02Z</time>
      </trkpt>
      <trkpt lat="43.0402857670961" lon="-5.09270941839096">
        <ele>1144.66439437866</ele>
        <time>2018-08-28T07:59:03Z</time>
      </trkpt>
      <trkpt lat="43.0402676202758" lon="-5.0927938241559">
        <ele>1144.2536277771</ele>
        <time>2018-08-28T07:59:04Z</time>
      </trkpt>
      <trkpt lat="43.0402451148657" lon="-5.09287697263536">
        <ele>1145.80135726929</ele>
        <time>2018-08-28T07:59:05Z</time>
      </trkpt>
      <trkpt lat="43.0402306560828" lon="-5.09297403507409">
        <ele>1147.42818832397</ele>
        <time>2018-08-28T07:59:06Z</time>
      </trkpt>
      <trkpt lat="43.0402226932748" lon="-5.09305676445839">
        <ele>1147.92953109741</ele>
        <time>2018-08-28T07:59:07Z</time>
      </trkpt>
      <trkpt lat="43.0402057618304" lon="-5.09314745665071">
        <ele>1150.10384750366</ele>
        <time>2018-08-28T07:59:08Z</time>
      </trkpt>
      <trkpt lat="43.0401953263609" lon="-5.09321836755154">
        <ele>1148.86922836304</ele>
        <time>2018-08-28T07:59:09Z</time>
      </trkpt>
      <trkpt lat="43.0401860643579" lon="-5.09329187684235">
        <ele>1148.39107894897</ele>
        <time>2018-08-28T07:59:10Z</time>
      </trkpt>
      <trkpt lat="43.0401790235592" lon="-5.09337284602699">
        <ele>1147.7585105896</ele>
        <time>2018-08-28T07:59:11Z</time>
      </trkpt>
      <trkpt lat="43.0401747068791" lon="-5.09345054626939">
        <ele>1146.81539535522</ele>
        <time>2018-08-28T07:59:12Z</time>
      </trkpt>
      <trkpt lat="43.0401755031599" lon="-5.09353956208107">
        <ele>1147.25960922241</ele>
        <time>2018-08-28T07:59:13Z</time>
      </trkpt>
      <trkpt lat="43.0401725694938" lon="-5.09362304583666">
        <ele>1146.97188949585</ele>
        <time>2018-08-28T07:59:14Z</time>
      </trkpt>
      <trkpt lat="43.0401729047699" lon="-5.09369337000427">
        <ele>1145.53915023804</ele>
        <time>2018-08-28T07:59:15Z</time>
      </trkpt>
      <trkpt lat="43.0401644809572" lon="-5.09377735667405">
        <ele>1146.3454246521</ele>
        <time>2018-08-28T07:59:16Z</time>
      </trkpt>
      <trkpt lat="43.0401628045766" lon="-5.09384508245168">
        <ele>1146.71407699585</ele>
        <time>2018-08-28T07:59:17Z</time>
      </trkpt>
      <trkpt lat="43.0401636427669" lon="-5.09391674772379">
        <ele>1147.10165023804</ele>
        <time>2018-08-28T07:59:18Z</time>
      </trkpt>
      <trkpt lat="43.0401456216751" lon="-5.09398514405367">
        <ele>1147.76998519897</ele>
        <time>2018-08-28T07:59:19Z</time>
      </trkpt>
      <trkpt lat="43.0401429813756" lon="-5.09410860948739">
        <ele>1147.91402816772</ele>
        <time>2018-08-28T07:59:21Z</time>
      </trkpt>
      <trkpt lat="43.0401369044958" lon="-5.09417013265667">
        <ele>1147.6139793396</ele>
        <time>2018-08-28T07:59:22Z</time>
      </trkpt>
      <trkpt lat="43.0401217332511" lon="-5.09428203106401">
        <ele>1147.77938461304</ele>
        <time>2018-08-28T07:59:24Z</time>
      </trkpt>
      <trkpt lat="43.0401035864307" lon="-5.09437942877886">
        <ele>1148.19320297241</ele>
        <time>2018-08-28T07:59:26Z</time>
      </trkpt>
      <trkpt lat="43.0400991021125" lon="-5.094443215062">
        <ele>1147.70370101929</ele>
        <time>2018-08-28T07:59:28Z</time>
      </trkpt>
      <trkpt lat="43.0400666222377" lon="-5.09438596666334">
        <ele>1149.2458152771</ele>
        <time>2018-08-28T07:59:31Z</time>
      </trkpt>
      <trkpt lat="43.0400745012267" lon="-5.09429544210908">
        <ele>1148.25436019897</ele>
        <time>2018-08-28T07:59:33Z</time>
      </trkpt>
      <trkpt lat="43.0400852719723" lon="-5.09418262169239">
        <ele>1149.18844223022</ele>
        <time>2018-08-28T07:59:35Z</time>
      </trkpt>
      <trkpt lat="43.0401042988925" lon="-5.0940650235909">
        <ele>1148.91915512085</ele>
        <time>2018-08-28T07:59:36Z</time>
      </trkpt>
      <trkpt lat="43.0401137285335" lon="-5.09399805218456">
        <ele>1148.92721176147</ele>
        <time>2018-08-28T07:59:37Z</time>
      </trkpt>
      <trkpt lat="43.0401565181492" lon="-5.0939128082293">
        <ele>1150.21725082397</ele>
        <time>2018-08-28T07:59:38Z</time>
      </trkpt>
      <trkpt lat="43.0401701806514" lon="-5.09383996949074">
        <ele>1151.38399887085</ele>
        <time>2018-08-28T07:59:39Z</time>
      </trkpt>
      <trkpt lat="43.040161212015" lon="-5.09376017377255">
        <ele>1151.32552719116</ele>
        <time>2018-08-28T07:59:40Z</time>
      </trkpt>
      <trkpt lat="43.040166492614" lon="-5.09368423372981">
        <ele>1151.36312484741</ele>
        <time>2018-08-28T07:59:41Z</time>
      </trkpt>
      <trkpt lat="43.0402042111783" lon="-5.09362514131246">
        <ele>1152.74996566772</ele>
        <time>2018-08-28T07:59:42Z</time>
      </trkpt>
      <trkpt lat="43.0402248306601" lon="-5.09355657734451">
        <ele>1152.35958480835</ele>
        <time>2018-08-28T07:59:43Z</time>
      </trkpt>
      <trkpt lat="43.0402152333809" lon="-5.09349572472749">
        <ele>1152.17831039429</ele>
        <time>2018-08-28T07:59:44Z</time>
      </trkpt>
      <trkpt lat="43.0402146466477" lon="-5.09341852739928">
        <ele>1152.72909164429</ele>
        <time>2018-08-28T07:59:45Z</time>
      </trkpt>
      <trkpt lat="43.0402266746788" lon="-5.09329129010913">
        <ele>1151.5192527771</ele>
        <time>2018-08-28T07:59:46Z</time>
      </trkpt>
      <trkpt lat="43.0402290216117" lon="-5.09319204837558">
        <ele>1152.25057601929</ele>
        <time>2018-08-28T07:59:47Z</time>
      </trkpt>
      <trkpt lat="43.040227261412" lon="-5.0931101571816">
        <ele>1151.96383285522</ele>
        <time>2018-08-28T07:59:48Z</time>
      </trkpt>
      <trkpt lat="43.0402356433152" lon="-5.09302139282701">
        <ele>1151.93966293335</ele>
        <time>2018-08-28T07:59:49Z</time>
      </trkpt>
      <trkpt lat="43.0402415525569" lon="-5.09288652800498">
        <ele>1150.92220687866</ele>
        <time>2018-08-28T07:59:50Z</time>
      </trkpt>
      <trkpt lat="43.0402599089248" lon="-5.0928057264584">
        <ele>1150.97665023804</ele>
        <time>2018-08-28T07:59:51Z</time>
      </trkpt>
      <trkpt lat="43.0402540415926" lon="-5.09271050803838">
        <ele>1151.72567367554</ele>
        <time>2018-08-28T07:59:52Z</time>
      </trkpt>
      <trkpt lat="43.0402462883322" lon="-5.09258628823337">
        <ele>1152.2116355896</ele>
        <time>2018-08-28T07:59:54Z</time>
      </trkpt>
      <trkpt lat="43.0402515270217" lon="-5.09249132127044">
        <ele>1151.95638656616</ele>
        <time>2018-08-28T07:59:55Z</time>
      </trkpt>
      <trkpt lat="43.0402620463102" lon="-5.09240289219198">
        <ele>1150.7096824646</ele>
        <time>2018-08-28T07:59:56Z</time>
      </trkpt>
      <trkpt lat="43.0402659858046" lon="-5.09230926633355">
        <ele>1151.12020492554</ele>
        <time>2018-08-28T07:59:57Z</time>
      </trkpt>
      <trkpt lat="43.0402646027906" lon="-5.09222888388214">
        <ele>1152.1852684021</ele>
        <time>2018-08-28T07:59:58Z</time>
      </trkpt>
      <trkpt lat="43.0402652314334" lon="-5.09213651530919">
        <ele>1152.30208969116</ele>
        <time>2018-08-28T07:59:59Z</time>
      </trkpt>
      <trkpt lat="43.04026032802" lon="-5.09204498492655">
        <ele>1151.34127426147</ele>
        <time>2018-08-28T08:00:00Z</time>
      </trkpt>
      <trkpt lat="43.0402553407876" lon="-5.091951023792">
        <ele>1150.28658676147</ele>
        <time>2018-08-28T08:00:01Z</time>
      </trkpt>
      <trkpt lat="43.0402531614928" lon="-5.09186234325645">
        <ele>1150.29085922241</ele>
        <time>2018-08-28T08:00:02Z</time>
      </trkpt>
      <trkpt lat="43.040255047421" lon="-5.09178129025278">
        <ele>1150.06869125366</ele>
        <time>2018-08-28T08:00:03Z</time>
      </trkpt>
      <trkpt lat="43.0402864795579" lon="-5.09173644707081">
        <ele>1149.7145652771</ele>
        <time>2018-08-28T08:00:04Z</time>
      </trkpt>
      <trkpt lat="43.0403348850487" lon="-5.09171591140804">
        <ele>1150.8337059021</ele>
        <time>2018-08-28T08:00:05Z</time>
      </trkpt>
      <trkpt lat="43.0404101964487" lon="-5.09172446094928">
        <ele>1150.42440414429</ele>
        <time>2018-08-28T08:00:06Z</time>
      </trkpt>
      <trkpt lat="43.0404629186197" lon="-5.09174399078367">
        <ele>1148.47555160522</ele>
        <time>2018-08-28T08:00:07Z</time>
      </trkpt>
      <trkpt lat="43.0405128747626" lon="-5.09173619561372">
        <ele>1149.06197738647</ele>
        <time>2018-08-28T08:00:08Z</time>
      </trkpt>
      <trkpt lat="43.0405765772267" lon="-5.09175019339201">
        <ele>1148.66061019897</ele>
        <time>2018-08-28T08:00:09Z</time>
      </trkpt>
      <trkpt lat="43.0406391481338" lon="-5.09176427498934">
        <ele>1148.0973777771</ele>
        <time>2018-08-28T08:00:10Z</time>
      </trkpt>
      <trkpt lat="43.0407058680831" lon="-5.09177533910153">
        <ele>1148.10763168335</ele>
        <time>2018-08-28T08:00:11Z</time>
      </trkpt>
      <trkpt lat="43.0407601828156" lon="-5.09178237990019">
        <ele>1148.14547348022</ele>
        <time>2018-08-28T08:00:12Z</time>
      </trkpt>
      <trkpt lat="43.0408263579412" lon="-5.09178388864276">
        <ele>1146.68026351929</ele>
        <time>2018-08-28T08:00:13Z</time>
      </trkpt>
      <trkpt lat="43.0408893479435" lon="-5.09178975597498">
        <ele>1144.8962059021</ele>
        <time>2018-08-28T08:00:14Z</time>
      </trkpt>
      <trkpt lat="43.04094072901" lon="-5.09178455919502">
        <ele>1144.05978012085</ele>
        <time>2018-08-28T08:00:15Z</time>
      </trkpt>
      <trkpt lat="43.0410004500701" lon="-5.09180098772523">
        <ele>1144.21175765991</ele>
        <time>2018-08-28T08:00:16Z</time>
      </trkpt>
      <trkpt lat="43.041055938269" lon="-5.09181238711354">
        <ele>1143.0514793396</ele>
        <time>2018-08-28T08:00:17Z</time>
      </trkpt>
      <trkpt lat="43.0411138153104" lon="-5.09182051755962">
        <ele>1144.57833480835</ele>
        <time>2018-08-28T08:00:18Z</time>
      </trkpt>
      <trkpt lat="43.0411717342614" lon="-5.09181448258934">
        <ele>1144.56002426147</ele>
        <time>2018-08-28T08:00:19Z</time>
      </trkpt>
      <trkpt lat="43.0412768852366" lon="-5.09179964662072">
        <ele>1144.44332504272</ele>
        <time>2018-08-28T08:00:21Z</time>
      </trkpt>
      <trkpt lat="43.0413327925308" lon="-5.09178975597498">
        <ele>1144.98788070679</ele>
        <time>2018-08-28T08:00:22Z</time>
      </trkpt>
      <trkpt lat="43.0413873587204" lon="-5.09178908542273">
        <ele>1146.08102035522</ele>
        <time>2018-08-28T08:00:23Z</time>
      </trkpt>
      <trkpt lat="43.0414420925482" lon="-5.0917921867269">
        <ele>1146.45516586304</ele>
        <time>2018-08-28T08:00:24Z</time>
      </trkpt>
      <trkpt lat="43.0414941022573" lon="-5.09179009125111">
        <ele>1146.53963851929</ele>
        <time>2018-08-28T08:00:25Z</time>
      </trkpt>
      <trkpt lat="43.0415410409151" lon="-5.09178925306079">
        <ele>1147.3776512146</ele>
        <time>2018-08-28T08:00:26Z</time>
      </trkpt>
      <trkpt lat="43.0415971996663" lon="-5.09179042652724">
        <ele>1148.12069320679</ele>
        <time>2018-08-28T08:00:27Z</time>
      </trkpt>
      <trkpt lat="43.0416486226423" lon="-5.0917937792885">
        <ele>1148.68551254272</ele>
        <time>2018-08-28T08:00:28Z</time>
      </trkpt>
      <trkpt lat="43.0416959384857" lon="-5.09178665467081">
        <ele>1151.05575180054</ele>
        <time>2018-08-28T08:00:29Z</time>
      </trkpt>
      <trkpt lat="43.0417880556016" lon="-5.09178036824343">
        <ele>1150.43270492554</ele>
        <time>2018-08-28T08:00:31Z</time>
      </trkpt>
      <trkpt lat="43.0418781191511" lon="-5.0917781889486">
        <ele>1149.6735496521</ele>
        <time>2018-08-28T08:00:33Z</time>
      </trkpt>
      <trkpt lat="43.0419297516747" lon="-5.09177374653992">
        <ele>1149.84225082397</ele>
        <time>2018-08-28T08:00:34Z</time>
      </trkpt>
      <trkpt lat="43.0420112237735" lon="-5.09177802131054">
        <ele>1150.85140609741</ele>
        <time>2018-08-28T08:00:36Z</time>
      </trkpt>
      <trkpt lat="43.0421027960657" lon="-5.09177567437765">
        <ele>1150.69491195679</ele>
        <time>2018-08-28T08:00:38Z</time>
      </trkpt>
      <trkpt lat="43.0421915185107" lon="-5.09175639600036">
        <ele>1151.6598777771</ele>
        <time>2018-08-28T08:00:40Z</time>
      </trkpt>
      <trkpt lat="43.0422843480884" lon="-5.0917488522875">
        <ele>1151.70882797241</ele>
        <time>2018-08-28T08:00:42Z</time>
      </trkpt>
      <trkpt lat="43.0423378246306" lon="-5.09174365550754">
        <ele>1151.19088363647</ele>
        <time>2018-08-28T08:00:43Z</time>
      </trkpt>
      <trkpt lat="43.0423874035878" lon="-5.09174969047782">
        <ele>1150.86654281616</ele>
        <time>2018-08-28T08:00:44Z</time>
      </trkpt>
      <trkpt lat="43.0424462445481" lon="-5.09175153449652">
        <ele>1150.54415512085</ele>
        <time>2018-08-28T08:00:45Z</time>
      </trkpt>
      <trkpt lat="43.0424926802917" lon="-5.09174952283976">
        <ele>1149.79989242554</ele>
        <time>2018-08-28T08:00:46Z</time>
      </trkpt>
      <trkpt lat="43.0425454862817" lon="-5.09176016785679">
        <ele>1148.87252426147</ele>
        <time>2018-08-28T08:00:47Z</time>
      </trkpt>
      <trkpt lat="43.042595316696" lon="-5.09177936241505">
        <ele>1149.03133773804</ele>
        <time>2018-08-28T08:00:48Z</time>
      </trkpt>
      <trkpt lat="43.0426478293194" lon="-5.09178573266146">
        <ele>1149.1510887146</ele>
        <time>2018-08-28T08:00:49Z</time>
      </trkpt>
      <trkpt lat="43.042694348882" lon="-5.09180216119168">
        <ele>1149.66524887085</ele>
        <time>2018-08-28T08:00:50Z</time>
      </trkpt>
      <trkpt lat="43.0427754857047" lon="-5.09185370989618">
        <ele>1150.67513656616</ele>
        <time>2018-08-28T08:00:52Z</time>
      </trkpt>
      <trkpt lat="43.0428217119007" lon="-5.09187424555895">
        <ele>1150.95125961304</ele>
        <time>2018-08-28T08:00:53Z</time>
      </trkpt>
      <trkpt lat="43.0428625317691" lon="-5.09190039709685">
        <ele>1151.38998031616</ele>
        <time>2018-08-28T08:00:54Z</time>
      </trkpt>
      <trkpt lat="43.0429094285174" lon="-5.09193484671888">
        <ele>1151.01986312866</ele>
        <time>2018-08-28T08:00:55Z</time>
      </trkpt>
      <trkpt lat="43.0429901881544" lon="-5.09198212065277">
        <ele>1152.2399559021</ele>
        <time>2018-08-28T08:00:57Z</time>
      </trkpt>
      <trkpt lat="43.0430347379698" lon="-5.09201061912355">
        <ele>1152.07357406616</ele>
        <time>2018-08-28T08:00:58Z</time>
      </trkpt>
      <trkpt lat="43.0431177607207" lon="-5.09205386974392">
        <ele>1152.58163070679</ele>
        <time>2018-08-28T08:01:00Z</time>
      </trkpt>
      <trkpt lat="43.0431965506105" lon="-5.09209703654525">
        <ele>1154.08687973022</ele>
        <time>2018-08-28T08:01:02Z</time>
      </trkpt>
      <trkpt lat="43.0432873685314" lon="-5.09210273623941">
        <ele>1155.62984848022</ele>
        <time>2018-08-28T08:01:04Z</time>
      </trkpt>
      <trkpt lat="43.0433369893982" lon="-5.09212436154959">
        <ele>1155.24764633179</ele>
        <time>2018-08-28T08:01:05Z</time>
      </trkpt>
      <trkpt lat="43.0434191320492" lon="-5.09211966768381">
        <ele>1153.09420394897</ele>
        <time>2018-08-28T08:01:07Z</time>
      </trkpt>
      <trkpt lat="43.0435035378142" lon="-5.09214280173657">
        <ele>1152.84005355835</ele>
        <time>2018-08-28T08:01:09Z</time>
      </trkpt>
      <trkpt lat="43.0435503926529" lon="-5.09215587750551">
        <ele>1152.43294906616</ele>
        <time>2018-08-28T08:01:10Z</time>
      </trkpt>
      <trkpt lat="43.0436001392482" lon="-5.09217498824475">
        <ele>1153.03561019897</ele>
        <time>2018-08-28T08:01:11Z</time>
      </trkpt>
      <trkpt lat="43.0436780909477" lon="-5.09219376370785">
        <ele>1153.39645004272</ele>
        <time>2018-08-28T08:01:13Z</time>
      </trkpt>
      <trkpt lat="43.0437220959394" lon="-5.09220692329583">
        <ele>1153.30672836304</ele>
        <time>2018-08-28T08:01:14Z</time>
      </trkpt>
      <trkpt lat="43.0437714653491" lon="-5.09222201072154">
        <ele>1152.54793930054</ele>
        <time>2018-08-28T08:01:15Z</time>
      </trkpt>
      <trkpt lat="43.0438195774733" lon="-5.09223558940468">
        <ele>1152.65999984741</ele>
        <time>2018-08-28T08:01:16Z</time>
      </trkpt>
      <trkpt lat="43.0439000437437" lon="-5.09227498434958">
        <ele>1154.03597640991</ele>
        <time>2018-08-28T08:01:18Z</time>
      </trkpt>
      <trkpt lat="43.0439834855898" lon="-5.09232200682637">
        <ele>1153.71212387085</ele>
        <time>2018-08-28T08:01:20Z</time>
      </trkpt>
      <trkpt lat="43.0440271133958" lon="-5.09235109203038">
        <ele>1153.29989242554</ele>
        <time>2018-08-28T08:01:21Z</time>
      </trkpt>
      <trkpt lat="43.0441093817754" lon="-5.09241152555225">
        <ele>1154.34688949585</ele>
        <time>2018-08-28T08:01:23Z</time>
      </trkpt>
      <trkpt lat="43.0441490281774" lon="-5.09244253859398">
        <ele>1155.21029281616</ele>
        <time>2018-08-28T08:01:24Z</time>
      </trkpt>
      <trkpt lat="43.0442270636959" lon="-5.09249450639365">
        <ele>1155.0143699646</ele>
        <time>2018-08-28T08:01:26Z</time>
      </trkpt>
      <trkpt lat="43.044307739514" lon="-5.09253809229014">
        <ele>1156.43709945679</ele>
        <time>2018-08-28T08:01:28Z</time>
      </trkpt>
      <trkpt lat="43.0443519959627" lon="-5.09256340563772">
        <ele>1156.2702293396</ele>
        <time>2018-08-28T08:01:29Z</time>
      </trkpt>
      <trkpt lat="43.0443988088919" lon="-5.09258293547211">
        <ele>1155.9118309021</ele>
        <time>2018-08-28T08:01:30Z</time>
      </trkpt>
      <trkpt lat="43.0444502318679" lon="-5.09263163432953">
        <ele>1156.40829086304</ele>
        <time>2018-08-28T08:01:31Z</time>
      </trkpt>
      <trkpt lat="43.044494027312" lon="-5.09264814667878">
        <ele>1155.81075668335</ele>
        <time>2018-08-28T08:01:32Z</time>
      </trkpt>
      <trkpt lat="43.0445427261694" lon="-5.09267035872218">
        <ele>1155.17440414429</ele>
        <time>2018-08-28T08:01:33Z</time>
      </trkpt>
      <trkpt lat="43.0445941072358" lon="-5.09268980473754">
        <ele>1154.7516746521</ele>
        <time>2018-08-28T08:01:34Z</time>
      </trkpt>
      <trkpt lat="43.0446690414502" lon="-5.09272785857794">
        <ele>1154.8835105896</ele>
        <time>2018-08-28T08:01:36Z</time>
      </trkpt>
      <trkpt lat="43.0447469512402" lon="-5.09277915582535">
        <ele>1157.45040512085</ele>
        <time>2018-08-28T08:01:38Z</time>
      </trkpt>
      <trkpt lat="43.0448249029397" lon="-5.09278527461467">
        <ele>1156.63766098022</ele>
        <time>2018-08-28T08:01:40Z</time>
      </trkpt>
      <trkpt lat="43.0448910361557" lon="-5.09280807339129">
        <ele>1158.04110336304</ele>
        <time>2018-08-28T08:01:42Z</time>
      </trkpt>
      <trkpt lat="43.0449762382014" lon="-5.09282257408378">
        <ele>1157.56820297241</ele>
        <time>2018-08-28T08:01:44Z</time>
      </trkpt>
      <trkpt lat="43.045062487985" lon="-5.09282961488244">
        <ele>1156.35775375366</ele>
        <time>2018-08-28T08:01:46Z</time>
      </trkpt>
      <trkpt lat="43.0451543955533" lon="-5.0928524974781">
        <ele>1156.65279769897</ele>
        <time>2018-08-28T08:01:48Z</time>
      </trkpt>
      <trkpt lat="43.0452355742855" lon="-5.0928905513185">
        <ele>1157.3131980896</ele>
        <time>2018-08-28T08:01:50Z</time>
      </trkpt>
      <trkpt lat="43.0453156633703" lon="-5.09291812777994">
        <ele>1158.19430160522</ele>
        <time>2018-08-28T08:01:52Z</time>
      </trkpt>
      <trkpt lat="43.045359752181" lon="-5.09294210002301">
        <ele>1157.0641746521</ele>
        <time>2018-08-28T08:01:53Z</time>
      </trkpt>
      <trkpt lat="43.045436195138" lon="-5.09297998622534">
        <ele>1157.66939926147</ele>
        <time>2018-08-28T08:01:55Z</time>
      </trkpt>
      <trkpt lat="43.045512889552" lon="-5.09301066399095">
        <ele>1157.63119125366</ele>
        <time>2018-08-28T08:01:57Z</time>
      </trkpt>
      <trkpt lat="43.0455891229613" lon="-5.0930441077846">
        <ele>1156.96834945679</ele>
        <time>2018-08-28T08:01:59Z</time>
      </trkpt>
      <trkpt lat="43.0456392048328" lon="-5.09305852465806">
        <ele>1156.98580551147</ele>
        <time>2018-08-28T08:02:00Z</time>
      </trkpt>
      <trkpt lat="43.0456862273096" lon="-5.09308434091983">
        <ele>1158.30807113647</ele>
        <time>2018-08-28T08:02:01Z</time>
      </trkpt>
      <trkpt lat="43.0457343813433" lon="-5.09311133064804">
        <ele>1158.80941390991</ele>
        <time>2018-08-28T08:02:02Z</time>
      </trkpt>
      <trkpt lat="43.0457871454237" lon="-5.09314058349011">
        <ele>1159.6462059021</ele>
        <time>2018-08-28T08:02:03Z</time>
      </trkpt>
      <trkpt lat="43.0458648456661" lon="-5.09317536838827">
        <ele>1159.05855941772</ele>
        <time>2018-08-28T08:02:05Z</time>
      </trkpt>
      <trkpt lat="43.0459084315626" lon="-5.09320269339261">
        <ele>1159.71969223022</ele>
        <time>2018-08-28T08:02:06Z</time>
      </trkpt>
      <trkpt lat="43.0459640873997" lon="-5.09323722683368">
        <ele>1159.51656723022</ele>
        <time>2018-08-28T08:02:07Z</time>
      </trkpt>
      <trkpt lat="43.0460101040481" lon="-5.0932534039068">
        <ele>1159.03744125366</ele>
        <time>2018-08-28T08:02:08Z</time>
      </trkpt>
      <trkpt lat="43.0460635805903" lon="-5.09327947162566">
        <ele>1159.30965805054</ele>
        <time>2018-08-28T08:02:09Z</time>
      </trkpt>
      <trkpt lat="43.0461163027613" lon="-5.09330595843968">
        <ele>1159.03438949585</ele>
        <time>2018-08-28T08:02:10Z</time>
      </trkpt>
      <trkpt lat="43.0461652111663" lon="-5.09333403781531">
        <ele>1159.05721664429</ele>
        <time>2018-08-28T08:02:11Z</time>
      </trkpt>
      <trkpt lat="43.0462148739426" lon="-5.09335641749678">
        <ele>1160.45895004272</ele>
        <time>2018-08-28T08:02:12Z</time>
      </trkpt>
      <trkpt lat="43.0462663388281" lon="-5.09338357486305">
        <ele>1159.99166488647</ele>
        <time>2018-08-28T08:02:13Z</time>
      </trkpt>
      <trkpt lat="43.0463142833142" lon="-5.09341022931514">
        <ele>1159.95638656616</ele>
        <time>2018-08-28T08:02:14Z</time>
      </trkpt>
      <trkpt lat="43.0463598808675" lon="-5.09343110025403">
        <ele>1160.44955062866</ele>
        <time>2018-08-28T08:02:15Z</time>
      </trkpt>
      <trkpt lat="43.0463991081743" lon="-5.09346974082766">
        <ele>1159.03817367554</ele>
        <time>2018-08-28T08:02:16Z</time>
      </trkpt>
      <trkpt lat="43.046445879194" lon="-5.09349899366972">
        <ele>1159.78866195679</ele>
        <time>2018-08-28T08:02:17Z</time>
      </trkpt>
      <trkpt lat="43.0464969668938" lon="-5.09353025816855">
        <ele>1159.29183578491</ele>
        <time>2018-08-28T08:02:18Z</time>
      </trkpt>
      <trkpt lat="43.0465695960848" lon="-5.09355758317289">
        <ele>1162.7214012146</ele>
        <time>2018-08-28T08:02:20Z</time>
      </trkpt>
      <trkpt lat="43.0466556363209" lon="-5.09358842857656">
        <ele>1164.75240707397</ele>
        <time>2018-08-28T08:02:22Z</time>
      </trkpt>
      <trkpt lat="43.0467055086447" lon="-5.09360854514418">
        <ele>1165.32516098022</ele>
        <time>2018-08-28T08:02:23Z</time>
      </trkpt>
      <trkpt lat="43.0467730667843" lon="-5.09363939054785">
        <ele>1165.42916488647</ele>
        <time>2018-08-28T08:02:25Z</time>
      </trkpt>
      <trkpt lat="43.0468389066337" lon="-5.09368984960494">
        <ele>1164.14339828491</ele>
        <time>2018-08-28T08:02:27Z</time>
      </trkpt>
      <trkpt lat="43.046889952424" lon="-5.09372656234083">
        <ele>1163.72738265991</ele>
        <time>2018-08-28T08:02:28Z</time>
      </trkpt>
      <trkpt lat="43.0469367653532" lon="-5.0937489420223">
        <ele>1163.38692855835</ele>
        <time>2018-08-28T08:02:29Z</time>
      </trkpt>
      <trkpt lat="43.0470029404788" lon="-5.09377065115151">
        <ele>1163.44588851929</ele>
        <time>2018-08-28T08:02:30Z</time>
      </trkpt>
      <trkpt lat="43.0470508430554" lon="-5.09382287040827">
        <ele>1163.90121078491</ele>
        <time>2018-08-28T08:02:31Z</time>
      </trkpt>
      <trkpt lat="43.0471391044958" lon="-5.09386276826737">
        <ele>1164.08541488647</ele>
        <time>2018-08-28T08:02:33Z</time>
      </trkpt>
      <trkpt lat="43.0471820617496" lon="-5.09389855899391">
        <ele>1163.2467918396</ele>
        <time>2018-08-28T08:02:34Z</time>
      </trkpt>
      <trkpt lat="43.0472378433152" lon="-5.09391138330576">
        <ele>1163.68941879272</ele>
        <time>2018-08-28T08:02:35Z</time>
      </trkpt>
      <trkpt lat="43.0473023001505" lon="-5.09394834749875">
        <ele>1165.05648422241</ele>
        <time>2018-08-28T08:02:37Z</time>
      </trkpt>
      <trkpt lat="43.0473654997005" lon="-5.09400316514549">
        <ele>1164.63766098022</ele>
        <time>2018-08-28T08:02:39Z</time>
      </trkpt>
      <trkpt lat="43.0474208202614" lon="-5.09405236691711">
        <ele>1164.21212387085</ele>
        <time>2018-08-28T08:02:41Z</time>
      </trkpt>
      <trkpt lat="43.0474858219205" lon="-5.09413467720625">
        <ele>1163.49898910522</ele>
        <time>2018-08-28T08:02:43Z</time>
      </trkpt>
      <trkpt lat="43.0475590378447" lon="-5.0941995531368">
        <ele>1164.15853500366</ele>
        <time>2018-08-28T08:02:45Z</time>
      </trkpt>
      <trkpt lat="43.0476046773075" lon="-5.09425437078354">
        <ele>1161.59090805054</ele>
        <time>2018-08-28T08:02:46Z</time>
      </trkpt>
      <trkpt lat="43.0476359837158" lon="-5.09430927224932">
        <ele>1160.68551254272</ele>
        <time>2018-08-28T08:02:47Z</time>
      </trkpt>
      <trkpt lat="43.0476793600647" lon="-5.09435294196484">
        <ele>1159.85567855835</ele>
        <time>2018-08-28T08:02:48Z</time>
      </trkpt>
      <trkpt lat="43.0477507319702" lon="-5.09442100301859">
        <ele>1164.35372543335</ele>
        <time>2018-08-28T08:02:50Z</time>
      </trkpt>
      <trkpt lat="43.0477929767622" lon="-5.09445243515549">
        <ele>1166.45455551147</ele>
        <time>2018-08-28T08:02:51Z</time>
      </trkpt>
      <trkpt lat="43.0478380294918" lon="-5.09449610487101">
        <ele>1166.02242660522</ele>
        <time>2018-08-28T08:02:52Z</time>
      </trkpt>
      <trkpt lat="43.0479160650103" lon="-5.09456274100122">
        <ele>1168.20663070679</ele>
        <time>2018-08-28T08:02:54Z</time>
      </trkpt>
      <trkpt lat="43.0479599442734" lon="-5.09458386339722">
        <ele>1167.99605941772</ele>
        <time>2018-08-28T08:02:55Z</time>
      </trkpt>
      <trkpt lat="43.0480047036363" lon="-5.09461093694446">
        <ele>1168.14889144897</ele>
        <time>2018-08-28T08:02:56Z</time>
      </trkpt>
      <trkpt lat="43.0480445595859" lon="-5.09464278817651">
        <ele>1169.00008773804</ele>
        <time>2018-08-28T08:02:57Z</time>
      </trkpt>
      <trkpt lat="43.0481282109796" lon="-5.09469140321491">
        <ele>1169.46346664429</ele>
        <time>2018-08-28T08:02:59Z</time>
      </trkpt>
      <trkpt lat="43.0481687374814" lon="-5.09472903796015">
        <ele>1169.10885238647</ele>
        <time>2018-08-28T08:03:00Z</time>
      </trkpt>
      <trkpt lat="43.0482155504106" lon="-5.09476005100188">
        <ele>1168.73287582397</ele>
        <time>2018-08-28T08:03:01Z</time>
      </trkpt>
      <trkpt lat="43.0482630758016" lon="-5.09478469379721">
        <ele>1169.1393699646</ele>
        <time>2018-08-28T08:03:02Z</time>
      </trkpt>
      <trkpt lat="43.048301213461" lon="-5.09481914341924">
        <ele>1169.89059066772</ele>
        <time>2018-08-28T08:03:03Z</time>
      </trkpt>
      <trkpt lat="43.0483437097101" lon="-5.09485082701323">
        <ele>1169.89596176147</ele>
        <time>2018-08-28T08:03:04Z</time>
      </trkpt>
      <trkpt lat="43.0483843619405" lon="-5.09487899020789">
        <ele>1170.08993148804</ele>
        <time>2018-08-28T08:03:05Z</time>
      </trkpt>
      <trkpt lat="43.0484611401735" lon="-5.09493825026331">
        <ele>1172.11043930054</ele>
        <time>2018-08-28T08:03:07Z</time>
      </trkpt>
      <trkpt lat="43.0485061929031" lon="-5.09497387335179">
        <ele>1172.03988265991</ele>
        <time>2018-08-28T08:03:08Z</time>
      </trkpt>
      <trkpt lat="43.0485519580944" lon="-5.09500354528902">
        <ele>1171.95650863647</ele>
        <time>2018-08-28T08:03:09Z</time>
      </trkpt>
      <trkpt lat="43.0485960469051" lon="-5.09501695633409">
        <ele>1172.49691390991</ele>
        <time>2018-08-28T08:03:10Z</time>
      </trkpt>
      <trkpt lat="43.0486369925021" lon="-5.0950508192229">
        <ele>1173.18270492554</ele>
        <time>2018-08-28T08:03:11Z</time>
      </trkpt>
      <trkpt lat="43.0487117590784" lon="-5.09510731325028">
        <ele>1172.96224594116</ele>
        <time>2018-08-28T08:03:13Z</time>
      </trkpt>
      <trkpt lat="43.0487500224663" lon="-5.09514813311872">
        <ele>1172.96517562866</ele>
        <time>2018-08-28T08:03:14Z</time>
      </trkpt>
      <trkpt lat="43.0488193827151" lon="-5.09520873427866">
        <ele>1174.46993637085</ele>
        <time>2018-08-28T08:03:16Z</time>
      </trkpt>
      <trkpt lat="43.0488558439939" lon="-5.09524678811905">
        <ele>1174.87130355835</ele>
        <time>2018-08-28T08:03:17Z</time>
      </trkpt>
      <trkpt lat="43.0488909222586" lon="-5.09529163130102">
        <ele>1173.49410629272</ele>
        <time>2018-08-28T08:03:18Z</time>
      </trkpt>
      <trkpt lat="43.0489475420146" lon="-5.095344437291">
        <ele>1170.36544418335</ele>
        <time>2018-08-28T08:03:20Z</time>
      </trkpt>
      <trkpt lat="43.0489801057084" lon="-5.09538877755878">
        <ele>1170.96700668335</ele>
        <time>2018-08-28T08:03:21Z</time>
      </trkpt>
      <trkpt lat="43.0490428861632" lon="-5.09545348585127">
        <ele>1171.8669090271</ele>
        <time>2018-08-28T08:03:23Z</time>
      </trkpt>
      <trkpt lat="43.0490846699505" lon="-5.09551852941988">
        <ele>1173.82284164429</ele>
        <time>2018-08-28T08:03:25Z</time>
      </trkpt>
      <trkpt lat="43.0491503421618" lon="-5.09560134262321">
        <ele>1173.54623031616</ele>
        <time>2018-08-28T08:03:27Z</time>
      </trkpt>
      <trkpt lat="43.0492106918646" lon="-5.09568423964558">
        <ele>1172.71151351929</ele>
        <time>2018-08-28T08:03:29Z</time>
      </trkpt>
      <trkpt lat="43.0492750229715" lon="-5.09576546028731">
        <ele>1171.90865707397</ele>
        <time>2018-08-28T08:03:31Z</time>
      </trkpt>
      <trkpt lat="43.0493388511641" lon="-5.09584500454841">
        <ele>1172.6911277771</ele>
        <time>2018-08-28T08:03:33Z</time>
      </trkpt>
      <trkpt lat="43.0493970215721" lon="-5.09592178278146">
        <ele>1173.76314926147</ele>
        <time>2018-08-28T08:03:35Z</time>
      </trkpt>
      <trkpt lat="43.0494567845418" lon="-5.09600006975708">
        <ele>1174.87643051147</ele>
        <time>2018-08-28T08:03:37Z</time>
      </trkpt>
      <trkpt lat="43.0494911084352" lon="-5.09604147635875">
        <ele>1174.55135726929</ele>
        <time>2018-08-28T08:03:38Z</time>
      </trkpt>
      <trkpt lat="43.049552589695" lon="-5.09611942805824">
        <ele>1173.18807601929</ele>
        <time>2018-08-28T08:03:40Z</time>
      </trkpt>
      <trkpt lat="43.0496166693448" lon="-5.09619310498712">
        <ele>1174.18856430054</ele>
        <time>2018-08-28T08:03:42Z</time>
      </trkpt>
      <trkpt lat="43.0496825511037" lon="-5.09626954794405">
        <ele>1173.37118148804</ele>
        <time>2018-08-28T08:03:44Z</time>
      </trkpt>
      <trkpt lat="43.0497439485444" lon="-5.09633660316942">
        <ele>1174.07650375366</ele>
        <time>2018-08-28T08:03:46Z</time>
      </trkpt>
      <trkpt lat="43.0497839721321" lon="-5.0963685382205">
        <ele>1174.5465965271</ele>
        <time>2018-08-28T08:03:47Z</time>
      </trkpt>
      <trkpt lat="43.0498243729053" lon="-5.09639871307192">
        <ele>1174.65340805054</ele>
        <time>2018-08-28T08:03:48Z</time>
      </trkpt>
      <trkpt lat="43.0499047553568" lon="-5.09643215686557">
        <ele>1174.78463363647</ele>
        <time>2018-08-28T08:03:50Z</time>
      </trkpt>
      <trkpt lat="43.0499876942886" lon="-5.09648554958878">
        <ele>1175.00399398804</ele>
        <time>2018-08-28T08:03:52Z</time>
      </trkpt>
      <trkpt lat="43.0500359740509" lon="-5.09651497006891">
        <ele>1174.04891586304</ele>
        <time>2018-08-28T08:03:53Z</time>
      </trkpt>
      <trkpt lat="43.05008106869" lon="-5.09653173387525">
        <ele>1172.98812484741</ele>
        <time>2018-08-28T08:03:54Z</time>
      </trkpt>
      <trkpt lat="43.0501205474539" lon="-5.09656869806824">
        <ele>1172.77877426147</ele>
        <time>2018-08-28T08:03:55Z</time>
      </trkpt>
      <trkpt lat="43.0502058333187" lon="-5.09662058204887">
        <ele>1171.74215316772</ele>
        <time>2018-08-28T08:03:57Z</time>
      </trkpt>
      <trkpt lat="43.0502486229344" lon="-5.09665478021381">
        <ele>1172.04879379272</ele>
        <time>2018-08-28T08:03:58Z</time>
      </trkpt>
      <trkpt lat="43.0502898199885" lon="-5.09668319486556">
        <ele>1172.10311508179</ele>
        <time>2018-08-28T08:03:59Z</time>
      </trkpt>
      <trkpt lat="43.0503306398569" lon="-5.09671311825988">
        <ele>1171.70174789429</ele>
        <time>2018-08-28T08:04:00Z</time>
      </trkpt>
      <trkpt lat="43.0504050292476" lon="-5.09677036665855">
        <ele>1172.15743637085</ele>
        <time>2018-08-28T08:04:02Z</time>
      </trkpt>
      <trkpt lat="43.0504792090906" lon="-5.09681554511664">
        <ele>1171.38851547241</ele>
        <time>2018-08-28T08:04:04Z</time>
      </trkpt>
      <trkpt lat="43.0505174305691" lon="-5.09684982710061">
        <ele>1172.43978500366</ele>
        <time>2018-08-28T08:04:05Z</time>
      </trkpt>
      <trkpt lat="43.0505980644776" lon="-5.09689844213901">
        <ele>1171.92525863647</ele>
        <time>2018-08-28T08:04:07Z</time>
      </trkpt>
      <trkpt lat="43.0506435782118" lon="-5.09691889398275">
        <ele>1172.0397605896</ele>
        <time>2018-08-28T08:04:08Z</time>
      </trkpt>
      <trkpt lat="43.0507248407631" lon="-5.09694973938642">
        <ele>1172.2204246521</ele>
        <time>2018-08-28T08:04:10Z</time>
      </trkpt>
      <trkpt lat="43.0507760541915" lon="-5.09696465917406">
        <ele>1171.61764144897</ele>
        <time>2018-08-28T08:04:11Z</time>
      </trkpt>
      <trkpt lat="43.0508207716449" lon="-5.09697538801012">
        <ele>1171.16048812866</ele>
        <time>2018-08-28T08:04:12Z</time>
      </trkpt>
      <trkpt lat="43.0508680874883" lon="-5.09698226117072">
        <ele>1170.80697250366</ele>
        <time>2018-08-28T08:04:13Z</time>
      </trkpt>
      <trkpt lat="43.0509542953624" lon="-5.09698108770428">
        <ele>1170.51510238647</ele>
        <time>2018-08-28T08:04:15Z</time>
      </trkpt>
      <trkpt lat="43.0510254577203" lon="-5.0969800818759">
        <ele>1171.61935043335</ele>
        <time>2018-08-28T08:04:17Z</time>
      </trkpt>
      <trkpt lat="43.0511024874105" lon="-5.09694747627256">
        <ele>1170.55990219116</ele>
        <time>2018-08-28T08:04:19Z</time>
      </trkpt>
      <trkpt lat="43.0511536589293" lon="-5.09694160894034">
        <ele>1169.69222640991</ele>
        <time>2018-08-28T08:04:20Z</time>
      </trkpt>
      <trkpt lat="43.0512346700235" lon="-5.09693968110261">
        <ele>1170.14413070679</ele>
        <time>2018-08-28T08:04:22Z</time>
      </trkpt>
      <trkpt lat="43.0513230991019" lon="-5.09694831446288">
        <ele>1171.01400375366</ele>
        <time>2018-08-28T08:04:24Z</time>
      </trkpt>
      <trkpt lat="43.0513686547457" lon="-5.09695133194802">
        <ele>1170.62826156616</ele>
        <time>2018-08-28T08:04:25Z</time>
      </trkpt>
      <trkpt lat="43.0514484504639" lon="-5.09696340188859">
        <ele>1172.92660140991</ele>
        <time>2018-08-28T08:04:27Z</time>
      </trkpt>
      <trkpt lat="43.0514968978642" lon="-5.09697153233466">
        <ele>1172.84334945679</ele>
        <time>2018-08-28T08:04:28Z</time>
      </trkpt>
      <trkpt lat="43.0515471892832" lon="-5.09696960449693">
        <ele>1172.86727523804</ele>
        <time>2018-08-28T08:04:29Z</time>
      </trkpt>
      <trkpt lat="43.051613951142" lon="-5.09696365334568">
        <ele>1173.64095687866</ele>
        <time>2018-08-28T08:04:31Z</time>
      </trkpt>
      <trkpt lat="43.0516922800271" lon="-5.09694797918675">
        <ele>1173.89217758179</ele>
        <time>2018-08-28T08:04:33Z</time>
      </trkpt>
      <trkpt lat="43.0517576169624" lon="-5.09694060311196">
        <ele>1174.95663070679</ele>
        <time>2018-08-28T08:04:35Z</time>
      </trkpt>
      <trkpt lat="43.051842567551" lon="-5.09691042826054">
        <ele>1174.78023910522</ele>
        <time>2018-08-28T08:04:37Z</time>
      </trkpt>
      <trkpt lat="43.0519258836685" lon="-5.09688486345587">
        <ele>1175.31148910522</ele>
        <time>2018-08-28T08:04:39Z</time>
      </trkpt>
      <trkpt lat="43.0520058470248" lon="-5.09684211574969">
        <ele>1177.66622543335</ele>
        <time>2018-08-28T08:04:41Z</time>
      </trkpt>
      <trkpt lat="43.052071100141" lon="-5.09678025730429">
        <ele>1178.73727035522</ele>
        <time>2018-08-28T08:04:43Z</time>
      </trkpt>
      <trkpt lat="43.0521004368021" lon="-5.09673004970429">
        <ele>1180.43087387085</ele>
        <time>2018-08-28T08:04:45Z</time>
      </trkpt>
      <trkpt lat="43.0521419272228" lon="-5.09668503888426">
        <ele>1180.83053207397</ele>
        <time>2018-08-28T08:04:47Z</time>
      </trkpt>
      <trkpt lat="43.0522029055683" lon="-5.09661672637341">
        <ele>1181.71993637085</ele>
        <time>2018-08-28T08:04:49Z</time>
      </trkpt>
      <trkpt lat="43.0522649735613" lon="-5.0965516828048">
        <ele>1183.87118148804</ele>
        <time>2018-08-28T08:04:51Z</time>
      </trkpt>
      <trkpt lat="43.0523207132174" lon="-5.09648747742651">
        <ele>1184.48373031616</ele>
        <time>2018-08-28T08:04:53Z</time>
      </trkpt>
      <trkpt lat="43.0523709208174" lon="-5.09642310441015">
        <ele>1185.85433578491</ele>
        <time>2018-08-28T08:04:55Z</time>
      </trkpt>
      <trkpt lat="43.0524293426825" lon="-5.09636602364955">
        <ele>1187.82186508179</ele>
        <time>2018-08-28T08:04:57Z</time>
      </trkpt>
      <trkpt lat="43.0524910334899" lon="-5.09631346911667">
        <ele>1189.4372215271</ele>
        <time>2018-08-28T08:04:59Z</time>
      </trkpt>
      <trkpt lat="43.0525542749493" lon="-5.09626435116408">
        <ele>1189.64937973022</ele>
        <time>2018-08-28T08:05:01Z</time>
      </trkpt>
      <trkpt lat="43.0526163010328" lon="-5.09622931480882">
        <ele>1191.27755355835</ele>
        <time>2018-08-28T08:05:03Z</time>
      </trkpt>
      <trkpt lat="43.052683104801" lon="-5.09619310498712">
        <ele>1192.20992660522</ele>
        <time>2018-08-28T08:05:05Z</time>
      </trkpt>
      <trkpt lat="43.0527495313837" lon="-5.09615832008896">
        <ele>1192.53915023804</ele>
        <time>2018-08-28T08:05:07Z</time>
      </trkpt>
      <trkpt lat="43.05281130601" lon="-5.09612521157143">
        <ele>1191.7555809021</ele>
        <time>2018-08-28T08:05:09Z</time>
      </trkpt>
      <trkpt lat="43.0528795766114" lon="-5.09609017521618">
        <ele>1192.39730453491</ele>
        <time>2018-08-28T08:05:11Z</time>
      </trkpt>
      <trkpt lat="43.0529372021957" lon="-5.09605882689831">
        <ele>1192.62044906616</ele>
        <time>2018-08-28T08:05:13Z</time>
      </trkpt>
      <trkpt lat="43.0530063948064" lon="-5.0960302446085">
        <ele>1194.09408187866</ele>
        <time>2018-08-28T08:05:15Z</time>
      </trkpt>
      <trkpt lat="43.0530828796728" lon="-5.09600266814706">
        <ele>1195.35677719116</ele>
        <time>2018-08-28T08:05:17Z</time>
      </trkpt>
      <trkpt lat="43.0531592388107" lon="-5.09597232565758">
        <ele>1194.44234848022</ele>
        <time>2018-08-28T08:05:19Z</time>
      </trkpt>
      <trkpt lat="43.0532393278955" lon="-5.09594072588263">
        <ele>1193.02267074585</ele>
        <time>2018-08-28T08:05:21Z</time>
      </trkpt>
      <trkpt lat="43.0533232726558" lon="-5.09590912610767">
        <ele>1192.36666488647</ele>
        <time>2018-08-28T08:05:23Z</time>
      </trkpt>
      <trkpt lat="43.0533738155319" lon="-5.09589957073805">
        <ele>1191.60958480835</ele>
        <time>2018-08-28T08:05:24Z</time>
      </trkpt>
      <trkpt lat="43.0534767033933" lon="-5.09588113055108">
        <ele>1192.38375473022</ele>
        <time>2018-08-28T08:05:26Z</time>
      </trkpt>
      <trkpt lat="43.053524689789" lon="-5.09588230401752">
        <ele>1192.82076644897</ele>
        <time>2018-08-28T08:05:27Z</time>
      </trkpt>
      <trkpt lat="43.0535791302501" lon="-5.09590024129031">
        <ele>1192.23568344116</ele>
        <time>2018-08-28T08:05:28Z</time>
      </trkpt>
      <trkpt lat="43.0536443833663" lon="-5.09592019021986">
        <ele>1193.24862289429</ele>
        <time>2018-08-28T08:05:30Z</time>
      </trkpt>
      <trkpt lat="43.0536967283516" lon="-5.09595304728029">
        <ele>1192.6188621521</ele>
        <time>2018-08-28T08:05:31Z</time>
      </trkpt>
      <trkpt lat="43.0537372548534" lon="-5.09600258432803">
        <ele>1192.61678695679</ele>
        <time>2018-08-28T08:05:32Z</time>
      </trkpt>
      <trkpt lat="43.0537737161322" lon="-5.09605505504189">
        <ele>1192.28170394897</ele>
        <time>2018-08-28T08:05:33Z</time>
      </trkpt>
      <trkpt lat="43.0537967244564" lon="-5.09615521878479">
        <ele>1191.98385238647</ele>
        <time>2018-08-28T08:05:35Z</time>
      </trkpt>
      <trkpt lat="43.0538129853486" lon="-5.09621556848762">
        <ele>1193.28731918335</ele>
        <time>2018-08-28T08:05:36Z</time>
      </trkpt>
      <trkpt lat="43.0538186012237" lon="-5.09627717547593">
        <ele>1193.80184555054</ele>
        <time>2018-08-28T08:05:37Z</time>
      </trkpt>
      <trkpt lat="43.0538297910644" lon="-5.09638429619847">
        <ele>1193.90218734741</ele>
        <time>2018-08-28T08:05:39Z</time>
      </trkpt>
      <trkpt lat="43.0538294976978" lon="-5.09649376385389">
        <ele>1194.1217918396</ele>
        <time>2018-08-28T08:05:41Z</time>
      </trkpt>
      <trkpt lat="43.0538240913703" lon="-5.09660541080413">
        <ele>1193.39657211304</ele>
        <time>2018-08-28T08:05:43Z</time>
      </trkpt>
      <trkpt lat="43.0538082914828" lon="-5.09670264088092">
        <ele>1193.91720199585</ele>
        <time>2018-08-28T08:05:45Z</time>
      </trkpt>
      <trkpt lat="43.0537911085813" lon="-5.0967937521684">
        <ele>1193.48568344116</ele>
        <time>2018-08-28T08:05:47Z</time>
      </trkpt>
      <trkpt lat="43.0537597183539" lon="-5.09687639773367">
        <ele>1196.11251449585</ele>
        <time>2018-08-28T08:05:49Z</time>
      </trkpt>
      <trkpt lat="43.0537448823853" lon="-5.09694010019777">
        <ele>1196.82162094116</ele>
        <time>2018-08-28T08:05:51Z</time>
      </trkpt>
      <trkpt lat="43.053798317018" lon="-5.09699609131096">
        <ele>1197.69881820679</ele>
        <time>2018-08-28T08:05:54Z</time>
      </trkpt>
      <trkpt lat="43.053855104412" lon="-5.09697622620044">
        <ele>1197.67879867554</ele>
        <time>2018-08-28T08:05:56Z</time>
      </trkpt>
      <trkpt lat="43.0538956309138" lon="-5.09693238884685">
        <ele>1197.09872055054</ele>
        <time>2018-08-28T08:05:58Z</time>
      </trkpt>
      <trkpt lat="43.0539380433439" lon="-5.09687941521881">
        <ele>1197.85274887085</ele>
        <time>2018-08-28T08:06:00Z</time>
      </trkpt>
      <trkpt lat="43.0539794499456" lon="-5.0968368351507">
        <ele>1200.68832015991</ele>
        <time>2018-08-28T08:06:02Z</time>
      </trkpt>
      <trkpt lat="43.0540231196611" lon="-5.09680364281414">
        <ele>1201.11019515991</ele>
        <time>2018-08-28T08:06:04Z</time>
      </trkpt>
      <trkpt lat="43.0540694715856" lon="-5.09677489288626">
        <ele>1200.84762191772</ele>
        <time>2018-08-28T08:06:06Z</time>
      </trkpt>
      <trkpt lat="43.0541247083275" lon="-5.09674547240613">
        <ele>1200.3600730896</ele>
        <time>2018-08-28T08:06:08Z</time>
      </trkpt>
      <trkpt lat="43.0541811604454" lon="-5.09671303444085">
        <ele>1200.39510726929</ele>
        <time>2018-08-28T08:06:10Z</time>
      </trkpt>
      <trkpt lat="43.0542380735679" lon="-5.09668185376105">
        <ele>1200.37362289429</ele>
        <time>2018-08-28T08:06:12Z</time>
      </trkpt>
      <trkpt lat="43.0542943580477" lon="-5.09665436111865">
        <ele>1201.84664535522</ele>
        <time>2018-08-28T08:06:14Z</time>
      </trkpt>
      <trkpt lat="43.0543491337849" lon="-5.09664145298777">
        <ele>1202.84603500366</ele>
        <time>2018-08-28T08:06:16Z</time>
      </trkpt>
      <trkpt lat="43.0544000538467" lon="-5.09663960896907">
        <ele>1202.72567367554</ele>
        <time>2018-08-28T08:06:18Z</time>
      </trkpt>
      <trkpt lat="43.0544473277806" lon="-5.09663717821715">
        <ele>1203.39266586304</ele>
        <time>2018-08-28T08:06:21Z</time>
      </trkpt>
      <trkpt lat="43.0544204218714" lon="-5.09657951072333">
        <ele>1205.39645004272</ele>
        <time>2018-08-28T08:06:42Z</time>
      </trkpt>
      <trkpt lat="43.0544521473749" lon="-5.09651790373502">
        <ele>1205.37948226929</ele>
        <time>2018-08-28T08:06:44Z</time>
      </trkpt>
      <trkpt lat="43.0544959009095" lon="-5.09645948186991">
        <ele>1205.52828598022</ele>
        <time>2018-08-28T08:06:46Z</time>
      </trkpt>
      <trkpt lat="43.0545383133395" lon="-5.09639075026391">
        <ele>1205.58846664429</ele>
        <time>2018-08-28T08:06:48Z</time>
      </trkpt>
      <trkpt lat="43.0545738106994" lon="-5.09632511996207">
        <ele>1206.68075180054</ele>
        <time>2018-08-28T08:06:50Z</time>
      </trkpt>
      <trkpt lat="43.0546050332888" lon="-5.09626091458378">
        <ele>1207.19515609741</ele>
        <time>2018-08-28T08:06:52Z</time>
      </trkpt>
      <trkpt lat="43.0546371778874" lon="-5.09619344026325">
        <ele>1207.69222640991</ele>
        <time>2018-08-28T08:06:54Z</time>
      </trkpt>
      <trkpt lat="43.054669154848" lon="-5.09612496011434">
        <ele>1208.08712387085</ele>
        <time>2018-08-28T08:06:56Z</time>
      </trkpt>
      <trkpt lat="43.0546965217619" lon="-5.09605555795608">
        <ele>1208.12801742554</ele>
        <time>2018-08-28T08:06:58Z</time>
      </trkpt>
      <trkpt lat="43.0547264451562" lon="-5.09598925710199">
        <ele>1208.04378890991</ele>
        <time>2018-08-28T08:07:00Z</time>
      </trkpt>
      <trkpt lat="43.0547691928624" lon="-5.09592622519014">
        <ele>1208.80550765991</ele>
        <time>2018-08-28T08:07:02Z</time>
      </trkpt>
      <trkpt lat="43.0548092583595" lon="-5.0958539731848">
        <ele>1209.6891746521</ele>
        <time>2018-08-28T08:07:04Z</time>
      </trkpt>
      <trkpt lat="43.0548397684871" lon="-5.09577920660851">
        <ele>1209.58834457397</ele>
        <time>2018-08-28T08:07:06Z</time>
      </trkpt>
      <trkpt lat="43.0548734637378" lon="-5.09572665207563">
        <ele>1210.48922348022</ele>
        <time>2018-08-28T08:07:08Z</time>
      </trkpt>
      <trkpt lat="43.054901752661" lon="-5.095669487496">
        <ele>1209.59701156616</ele>
        <time>2018-08-28T08:07:10Z</time>
      </trkpt>
      <trkpt lat="43.0549341068073" lon="-5.09560804814575">
        <ele>1209.79537582397</ele>
        <time>2018-08-28T08:07:12Z</time>
      </trkpt>
      <trkpt lat="43.0549648683919" lon="-5.09554090910134">
        <ele>1209.98592758179</ele>
        <time>2018-08-28T08:07:14Z</time>
      </trkpt>
      <trkpt lat="43.0549981445475" lon="-5.09546161629734">
        <ele>1209.8346824646</ele>
        <time>2018-08-28T08:07:16Z</time>
      </trkpt>
      <trkpt lat="43.0550343543692" lon="-5.09537008591471">
        <ele>1211.80428695679</ele>
        <time>2018-08-28T08:07:18Z</time>
      </trkpt>
      <trkpt lat="43.0550653255014" lon="-5.09525793605027">
        <ele>1213.12057113647</ele>
        <time>2018-08-28T08:07:20Z</time>
      </trkpt>
      <trkpt lat="43.0550998589425" lon="-5.09514654055712">
        <ele>1214.29598617554</ele>
        <time>2018-08-28T08:07:22Z</time>
      </trkpt>
      <trkpt lat="43.0551398406206" lon="-5.09504729882357">
        <ele>1212.41024398804</ele>
        <time>2018-08-28T08:07:24Z</time>
      </trkpt>
      <trkpt lat="43.0551814567699" lon="-5.09493967518685">
        <ele>1213.14645004272</ele>
        <time>2018-08-28T08:07:26Z</time>
      </trkpt>
      <trkpt lat="43.0552269705041" lon="-5.09482651949403">
        <ele>1213.50472640991</ele>
        <time>2018-08-28T08:07:28Z</time>
      </trkpt>
      <trkpt lat="43.0552488891809" lon="-5.09477237239954">
        <ele>1213.92220687866</ele>
        <time>2018-08-28T08:07:29Z</time>
      </trkpt>
      <trkpt lat="43.0552920140727" lon="-5.09468737990139">
        <ele>1212.58260726929</ele>
        <time>2018-08-28T08:07:31Z</time>
      </trkpt>
      <trkpt lat="43.0553046707465" lon="-5.09462275542793">
        <ele>1212.49459457397</ele>
        <time>2018-08-28T08:07:32Z</time>
      </trkpt>
      <trkpt lat="43.0553162377729" lon="-5.09451513179121">
        <ele>1211.41988754272</ele>
        <time>2018-08-28T08:07:34Z</time>
      </trkpt>
      <trkpt lat="43.055327134247" lon="-5.09440264665065">
        <ele>1210.60665512085</ele>
        <time>2018-08-28T08:07:36Z</time>
      </trkpt>
      <trkpt lat="43.0553465802623" lon="-5.09432352148471">
        <ele>1210.4421043396</ele>
        <time>2018-08-28T08:07:38Z</time>
      </trkpt>
      <trkpt lat="43.0553526152326" lon="-5.09422855452177">
        <ele>1209.92318344116</ele>
        <time>2018-08-28T08:07:40Z</time>
      </trkpt>
      <trkpt lat="43.0553749949141" lon="-5.09415345266936">
        <ele>1208.00130844116</ele>
        <time>2018-08-28T08:07:42Z</time>
      </trkpt>
      <trkpt lat="43.0554004339902" lon="-5.09406896308539">
        <ele>1207.86703109741</ele>
        <time>2018-08-28T08:07:44Z</time>
      </trkpt>
      <trkpt lat="43.0554313213034" lon="-5.09397743270276">
        <ele>1207.54586410522</ele>
        <time>2018-08-28T08:07:46Z</time>
      </trkpt>
      <trkpt lat="43.0554696685104" lon="-5.09387349710343">
        <ele>1208.20150375366</ele>
        <time>2018-08-28T08:07:48Z</time>
      </trkpt>
      <trkpt lat="43.0555124581261" lon="-5.09376704693315">
        <ele>1209.17306137085</ele>
        <time>2018-08-28T08:07:50Z</time>
      </trkpt>
      <trkpt lat="43.055560947436" lon="-5.09367065504668">
        <ele>1208.78377914429</ele>
        <time>2018-08-28T08:07:52Z</time>
      </trkpt>
      <trkpt lat="43.0556162679969" lon="-5.09358247742531">
        <ele>1209.44442367554</ele>
        <time>2018-08-28T08:07:54Z</time>
      </trkpt>
      <trkpt lat="43.0556739354907" lon="-5.09349974804101">
        <ele>1210.0680809021</ele>
        <time>2018-08-28T08:07:56Z</time>
      </trkpt>
      <trkpt lat="43.05573545866" lon="-5.09343529120562">
        <ele>1211.82455062866</ele>
        <time>2018-08-28T08:07:58Z</time>
      </trkpt>
      <trkpt lat="43.0557971913768" lon="-5.0933950580704">
        <ele>1212.42147445679</ele>
        <time>2018-08-28T08:08:00Z</time>
      </trkpt>
      <trkpt lat="43.0558591755508" lon="-5.09336052462933">
        <ele>1213.39168930054</ele>
        <time>2018-08-28T08:08:02Z</time>
      </trkpt>
      <trkpt lat="43.0559132807358" lon="-5.09333378635821">
        <ele>1213.07772445679</ele>
        <time>2018-08-28T08:08:04Z</time>
      </trkpt>
      <trkpt lat="43.0559638236119" lon="-5.09330076165972">
        <ele>1213.45064926147</ele>
        <time>2018-08-28T08:08:06Z</time>
      </trkpt>
      <trkpt lat="43.0560211139201" lon="-5.09327888489244">
        <ele>1212.76668930054</ele>
        <time>2018-08-28T08:08:08Z</time>
      </trkpt>
      <trkpt lat="43.056075135286" lon="-5.09327888489244">
        <ele>1212.35018539429</ele>
        <time>2018-08-28T08:08:10Z</time>
      </trkpt>
      <trkpt lat="43.0561356107174" lon="-5.09327972308276">
        <ele>1212.69393539429</ele>
        <time>2018-08-28T08:08:12Z</time>
      </trkpt>
      <trkpt lat="43.0561955832346" lon="-5.09326681495187">
        <ele>1214.88094711304</ele>
        <time>2018-08-28T08:08:14Z</time>
      </trkpt>
      <trkpt lat="43.056257357861" lon="-5.09324795566974">
        <ele>1214.59017562866</ele>
        <time>2018-08-28T08:08:16Z</time>
      </trkpt>
      <trkpt lat="43.0563236168055" lon="-5.09323236532984">
        <ele>1214.11617660522</ele>
        <time>2018-08-28T08:08:18Z</time>
      </trkpt>
      <trkpt lat="43.0563902948453" lon="-5.09322431870279">
        <ele>1214.34261703491</ele>
        <time>2018-08-28T08:08:20Z</time>
      </trkpt>
      <trkpt lat="43.0564559251471" lon="-5.09321551770446">
        <ele>1215.4577293396</ele>
        <time>2018-08-28T08:08:22Z</time>
      </trkpt>
      <trkpt lat="43.0565146822883" lon="-5.09320068173585">
        <ele>1217.36922836304</ele>
        <time>2018-08-28T08:08:24Z</time>
      </trkpt>
      <trkpt lat="43.0565704219444" lon="-5.09318316355822">
        <ele>1217.2731590271</ele>
        <time>2018-08-28T08:08:26Z</time>
      </trkpt>
      <trkpt lat="43.0566295143618" lon="-5.09317117743668">
        <ele>1217.24630355835</ele>
        <time>2018-08-28T08:08:28Z</time>
      </trkpt>
      <trkpt lat="43.0566838710038" lon="-5.09315692820129">
        <ele>1218.67611312866</ele>
        <time>2018-08-28T08:08:30Z</time>
      </trkpt>
      <trkpt lat="43.0567445559828" lon="-5.09314301424203">
        <ele>1217.66353988647</ele>
        <time>2018-08-28T08:08:32Z</time>
      </trkpt>
      <trkpt lat="43.0568077136232" lon="-5.09312004782734">
        <ele>1217.19857406616</ele>
        <time>2018-08-28T08:08:34Z</time>
      </trkpt>
      <trkpt lat="43.0568694882496" lon="-5.09308182634888">
        <ele>1216.60006332397</ele>
        <time>2018-08-28T08:08:36Z</time>
      </trkpt>
      <trkpt lat="43.0569243897154" lon="-5.09303287603435">
        <ele>1216.96676254272</ele>
        <time>2018-08-28T08:08:38Z</time>
      </trkpt>
      <trkpt lat="43.0569751002295" lon="-5.09297604673085">
        <ele>1217.70345687866</ele>
        <time>2018-08-28T08:08:40Z</time>
      </trkpt>
      <trkpt lat="43.0570152914553" lon="-5.09291368537125">
        <ele>1219.4460105896</ele>
        <time>2018-08-28T08:08:42Z</time>
      </trkpt>
      <trkpt lat="43.0570561113237" lon="-5.09285048582134">
        <ele>1219.56502914429</ele>
        <time>2018-08-28T08:08:44Z</time>
      </trkpt>
      <trkpt lat="43.0571143655507" lon="-5.09279801510749">
        <ele>1219.38265609741</ele>
        <time>2018-08-28T08:08:46Z</time>
      </trkpt>
      <trkpt lat="43.0571850249945" lon="-5.09275685996291">
        <ele>1219.13338851929</ele>
        <time>2018-08-28T08:08:48Z</time>
      </trkpt>
      <trkpt lat="43.0572562292619" lon="-5.09272073396025">
        <ele>1218.77254867554</ele>
        <time>2018-08-28T08:08:50Z</time>
      </trkpt>
      <trkpt lat="43.0573323788522" lon="-5.0926886312711">
        <ele>1217.75130844116</ele>
        <time>2018-08-28T08:08:52Z</time>
      </trkpt>
      <trkpt lat="43.057416449341" lon="-5.09267270565507">
        <ele>1217.34420394897</ele>
        <time>2018-08-28T08:08:54Z</time>
      </trkpt>
      <trkpt lat="43.0575005198299" lon="-5.09266985580799">
        <ele>1217.37459945679</ele>
        <time>2018-08-28T08:08:56Z</time>
      </trkpt>
      <trkpt lat="43.0575845484091" lon="-5.09268142283437">
        <ele>1217.92220687866</ele>
        <time>2018-08-28T08:08:58Z</time>
      </trkpt>
      <trkpt lat="43.0576586025237" lon="-5.09270279668746">
        <ele>1217.82125473022</ele>
        <time>2018-08-28T08:09:00Z</time>
      </trkpt>
      <trkpt lat="43.0577289686008" lon="-5.09272190742669">
        <ele>1217.48617172241</ele>
        <time>2018-08-28T08:09:02Z</time>
      </trkpt>
      <trkpt lat="43.0577990832208" lon="-5.09273305535791">
        <ele>1217.8844871521</ele>
        <time>2018-08-28T08:09:04Z</time>
      </trkpt>
      <trkpt lat="43.0578678567363" lon="-5.09273406118629">
        <ele>1217.93905258179</ele>
        <time>2018-08-28T08:09:06Z</time>
      </trkpt>
      <trkpt lat="43.057935750152" lon="-5.09271042421934">
        <ele>1217.41219711304</ele>
        <time>2018-08-28T08:09:08Z</time>
      </trkpt>
      <trkpt lat="43.0580038950248" lon="-5.0926783215302">
        <ele>1216.98226547241</ele>
        <time>2018-08-28T08:09:10Z</time>
      </trkpt>
      <trkpt lat="43.058067932765" lon="-5.09264278226075">
        <ele>1217.86422348022</ele>
        <time>2018-08-28T08:09:12Z</time>
      </trkpt>
      <trkpt lat="43.0581320543243" lon="-5.09259643033621">
        <ele>1218.15719223022</ele>
        <time>2018-08-28T08:09:14Z</time>
      </trkpt>
      <trkpt lat="43.0581960920645" lon="-5.09255108424005">
        <ele>1217.57430648804</ele>
        <time>2018-08-28T08:09:16Z</time>
      </trkpt>
      <trkpt lat="43.0582615128188" lon="-5.09250825271485">
        <ele>1217.89840316772</ele>
        <time>2018-08-28T08:09:18Z</time>
      </trkpt>
      <trkpt lat="43.0583252152829" lon="-5.09246139787612">
        <ele>1217.67818832397</ele>
        <time>2018-08-28T08:09:20Z</time>
      </trkpt>
      <trkpt lat="43.0583891272946" lon="-5.09240649641034">
        <ele>1218.0641746521</ele>
        <time>2018-08-28T08:09:22Z</time>
      </trkpt>
      <trkpt lat="43.0584533745824" lon="-5.09234773926911">
        <ele>1219.58346176147</ele>
        <time>2018-08-28T08:09:24Z</time>
      </trkpt>
      <trkpt lat="43.0585169932275" lon="-5.09228604846177">
        <ele>1221.43001937866</ele>
        <time>2018-08-28T08:09:26Z</time>
      </trkpt>
      <trkpt lat="43.0585789774014" lon="-5.09222695604441">
        <ele>1221.1462059021</ele>
        <time>2018-08-28T08:09:28Z</time>
      </trkpt>
      <trkpt lat="43.0586429732321" lon="-5.09217456914959">
        <ele>1222.29586410522</ele>
        <time>2018-08-28T08:09:30Z</time>
      </trkpt>
      <trkpt lat="43.0587099446385" lon="-5.09213282727179">
        <ele>1222.46053695679</ele>
        <time>2018-08-28T08:09:32Z</time>
      </trkpt>
      <trkpt lat="43.0587753653927" lon="-5.09210072458265">
        <ele>1222.18392562866</ele>
        <time>2018-08-28T08:09:34Z</time>
      </trkpt>
      <trkpt lat="43.0588396545901" lon="-5.09206736460802">
        <ele>1223.4948387146</ele>
        <time>2018-08-28T08:09:36Z</time>
      </trkpt>
      <trkpt lat="43.0589026026829" lon="-5.09203266352889">
        <ele>1222.94662094116</ele>
        <time>2018-08-28T08:09:38Z</time>
      </trkpt>
      <trkpt lat="43.0589682329847" lon="-5.09199293330786">
        <ele>1223.91329574585</ele>
        <time>2018-08-28T08:09:40Z</time>
      </trkpt>
      <trkpt lat="43.0590274511306" lon="-5.09193794802305">
        <ele>1223.84505844116</ele>
        <time>2018-08-28T08:09:42Z</time>
      </trkpt>
      <trkpt lat="43.0590870045527" lon="-5.09187608957765">
        <ele>1223.53951644897</ele>
        <time>2018-08-28T08:09:44Z</time>
      </trkpt>
      <trkpt lat="43.0591474380745" lon="-5.09181909263608">
        <ele>1222.61214828491</ele>
        <time>2018-08-28T08:09:46Z</time>
      </trkpt>
      <trkpt lat="43.0592139065667" lon="-5.09177064523575">
        <ele>1222.7233543396</ele>
        <time>2018-08-28T08:09:48Z</time>
      </trkpt>
      <trkpt lat="43.0592816323443" lon="-5.09173041210053">
        <ele>1223.27950668335</ele>
        <time>2018-08-28T08:09:50Z</time>
      </trkpt>
      <trkpt lat="43.0593539681687" lon="-5.09169453755495">
        <ele>1223.41451644897</ele>
        <time>2018-08-28T08:09:52Z</time>
      </trkpt>
      <trkpt lat="43.0594292795687" lon="-5.09165899828551">
        <ele>1223.16537094116</ele>
        <time>2018-08-28T08:09:54Z</time>
      </trkpt>
      <trkpt lat="43.0594995199172" lon="-5.09162387811122">
        <ele>1224.69234848022</ele>
        <time>2018-08-28T08:09:56Z</time>
      </trkpt>
      <trkpt lat="43.0595689220755" lon="-5.09158272296664">
        <ele>1224.83797836304</ele>
        <time>2018-08-28T08:09:58Z</time>
      </trkpt>
      <trkpt lat="43.059637695591" lon="-5.09153100662408">
        <ele>1225.33150863647</ele>
        <time>2018-08-28T08:10:00Z</time>
      </trkpt>
      <trkpt lat="43.0597047508164" lon="-5.09147375822541">
        <ele>1225.88216781616</ele>
        <time>2018-08-28T08:10:02Z</time>
      </trkpt>
      <trkpt lat="43.0597757874458" lon="-5.09141684510288">
        <ele>1226.43478012085</ele>
        <time>2018-08-28T08:10:04Z</time>
      </trkpt>
      <trkpt lat="43.0598452315135" lon="-5.09136336856064">
        <ele>1226.56063461304</ele>
        <time>2018-08-28T08:10:06Z</time>
      </trkpt>
      <trkpt lat="43.0599142564862" lon="-5.09131022729454">
        <ele>1226.53719711304</ele>
        <time>2018-08-28T08:10:08Z</time>
      </trkpt>
      <trkpt lat="43.0599757377459" lon="-5.09125281125781">
        <ele>1225.02083969116</ele>
        <time>2018-08-28T08:10:10Z</time>
      </trkpt>
      <trkpt lat="43.0600315612211" lon="-5.09118307382342">
        <ele>1226.04903793335</ele>
        <time>2018-08-28T08:10:12Z</time>
      </trkpt>
      <trkpt lat="43.0600930843903" lon="-5.091118533169">
        <ele>1225.68600082397</ele>
        <time>2018-08-28T08:10:14Z</time>
      </trkpt>
      <trkpt lat="43.0601603910728" lon="-5.09106505662677">
        <ele>1226.38998031616</ele>
        <time>2018-08-28T08:10:16Z</time>
      </trkpt>
      <trkpt lat="43.060232307802" lon="-5.09102230892059">
        <ele>1226.51766586304</ele>
        <time>2018-08-28T08:10:18Z</time>
      </trkpt>
      <trkpt lat="43.0603029253362" lon="-5.09099842049656">
        <ele>1226.37545394897</ele>
        <time>2018-08-28T08:10:20Z</time>
      </trkpt>
      <trkpt lat="43.0603678012668" lon="-5.09098106995699">
        <ele>1227.11520004272</ele>
        <time>2018-08-28T08:10:22Z</time>
      </trkpt>
      <trkpt lat="43.0604287377028" lon="-5.09096623398838">
        <ele>1229.19588851929</ele>
        <time>2018-08-28T08:10:24Z</time>
      </trkpt>
      <trkpt lat="43.0604889197676" lon="-5.09095173329589">
        <ele>1229.22518539429</ele>
        <time>2018-08-28T08:10:26Z</time>
      </trkpt>
      <trkpt lat="43.0605462519853" lon="-5.09093698114631">
        <ele>1228.16158676147</ele>
        <time>2018-08-28T08:10:28Z</time>
      </trkpt>
      <trkpt lat="43.0605965014948" lon="-5.09092281572995">
        <ele>1228.00863265991</ele>
        <time>2018-08-28T08:10:30Z</time>
      </trkpt>
      <trkpt lat="43.0606453260808" lon="-5.09091828950224">
        <ele>1228.81991195679</ele>
        <time>2018-08-28T08:10:32Z</time>
      </trkpt>
      <trkpt lat="43.0606915103673" lon="-5.09090898558972">
        <ele>1228.85067367554</ele>
        <time>2018-08-28T08:10:34Z</time>
      </trkpt>
      <trkpt lat="43.0607443163572" lon="-5.09089683183012">
        <ele>1227.4157371521</ele>
        <time>2018-08-28T08:10:36Z</time>
      </trkpt>
      <trkpt lat="43.0607950687809" lon="-5.09088652208922">
        <ele>1228.6501121521</ele>
        <time>2018-08-28T08:10:38Z</time>
      </trkpt>
      <trkpt lat="43.0608441029145" lon="-5.09086648934064">
        <ele>1228.44076156616</ele>
        <time>2018-08-28T08:10:40Z</time>
      </trkpt>
      <trkpt lat="43.0608922150387" lon="-5.09084117599306">
        <ele>1230.07332992554</ele>
        <time>2018-08-28T08:10:42Z</time>
      </trkpt>
      <trkpt lat="43.0609441409289" lon="-5.09081443772194">
        <ele>1230.18880844116</ele>
        <time>2018-08-28T08:10:44Z</time>
      </trkpt>
      <trkpt lat="43.0609977431996" lon="-5.09078543633697">
        <ele>1230.1872215271</ele>
        <time>2018-08-28T08:10:46Z</time>
      </trkpt>
      <trkpt lat="43.0610545305936" lon="-5.09075081907687">
        <ele>1230.88668441772</ele>
        <time>2018-08-28T08:10:48Z</time>
      </trkpt>
      <trkpt lat="43.0611137487395" lon="-5.09070832282779">
        <ele>1231.22982406616</ele>
        <time>2018-08-28T08:10:50Z</time>
      </trkpt>
      <trkpt lat="43.0611652555345" lon="-5.09065744467554">
        <ele>1231.08944320679</ele>
        <time>2018-08-28T08:10:52Z</time>
      </trkpt>
      <trkpt lat="43.0612143734871" lon="-5.09059935808656">
        <ele>1230.63070297241</ele>
        <time>2018-08-28T08:10:54Z</time>
      </trkpt>
      <trkpt lat="43.0612605158641" lon="-5.09053364396569">
        <ele>1231.48971176147</ele>
        <time>2018-08-28T08:10:56Z</time>
      </trkpt>
      <trkpt lat="43.0613007489993" lon="-5.09045736864683">
        <ele>1231.31686019897</ele>
        <time>2018-08-28T08:10:58Z</time>
      </trkpt>
      <trkpt lat="43.0613394733919" lon="-5.09038159624216">
        <ele>1231.50704574585</ele>
        <time>2018-08-28T08:11:00Z</time>
      </trkpt>
      <trkpt lat="43.0613776948704" lon="-5.09030641057071">
        <ele>1231.36715316772</ele>
        <time>2018-08-28T08:11:02Z</time>
      </trkpt>
      <trkpt lat="43.0614167545392" lon="-5.09023767896471">
        <ele>1231.99117660522</ele>
        <time>2018-08-28T08:11:04Z</time>
      </trkpt>
      <trkpt lat="43.0614574067696" lon="-5.09017531760511">
        <ele>1231.85360336304</ele>
        <time>2018-08-28T08:11:06Z</time>
      </trkpt>
      <trkpt lat="43.0615057284413" lon="-5.09011982940611">
        <ele>1231.55721664429</ele>
        <time>2018-08-28T08:11:08Z</time>
      </trkpt>
      <trkpt lat="43.0615589535265" lon="-5.09009300731597">
        <ele>1231.51717758179</ele>
        <time>2018-08-28T08:11:10Z</time>
      </trkpt>
      <trkpt lat="43.0616182554914" lon="-5.09006677195904">
        <ele>1231.75143051147</ele>
        <time>2018-08-28T08:11:12Z</time>
      </trkpt>
      <trkpt lat="43.061672570224" lon="-5.09002435952899">
        <ele>1231.80685043335</ele>
        <time>2018-08-28T08:11:14Z</time>
      </trkpt>
      <trkpt lat="43.0617218139051" lon="-5.0899683684158">
        <ele>1233.00802230835</ele>
        <time>2018-08-28T08:11:16Z</time>
      </trkpt>
      <trkpt lat="43.0617691297485" lon="-5.08990919217941">
        <ele>1234.01595687866</ele>
        <time>2018-08-28T08:11:18Z</time>
      </trkpt>
      <trkpt lat="43.0618190020724" lon="-5.0898496806669">
        <ele>1233.81283187866</ele>
        <time>2018-08-28T08:11:20Z</time>
      </trkpt>
      <trkpt lat="43.0618672399251" lon="-5.08979570121047">
        <ele>1233.86922836304</ele>
        <time>2018-08-28T08:11:22Z</time>
      </trkpt>
      <trkpt lat="43.0619127955689" lon="-5.08974255994436">
        <ele>1235.56649398804</ele>
        <time>2018-08-28T08:11:24Z</time>
      </trkpt>
      <trkpt lat="43.0619609496026" lon="-5.08968405426023">
        <ele>1237.49154281616</ele>
        <time>2018-08-28T08:11:26Z</time>
      </trkpt>
      <trkpt lat="43.0620059185131" lon="-5.08962906897542">
        <ele>1239.14925765991</ele>
        <time>2018-08-28T08:11:28Z</time>
      </trkpt>
      <trkpt lat="43.0620397394924" lon="-5.08957768790898">
        <ele>1239.22567367554</ele>
        <time>2018-08-28T08:11:30Z</time>
      </trkpt>
      <trkpt lat="43.0620687408774" lon="-5.08953049779412">
        <ele>1238.70980453491</ele>
        <time>2018-08-28T08:11:32Z</time>
      </trkpt>
      <trkpt lat="43.0621114047645" lon="-5.08949252777276">
        <ele>1238.16854476929</ele>
        <time>2018-08-28T08:11:34Z</time>
      </trkpt>
      <trkpt lat="43.0621603131695" lon="-5.08946394548294">
        <ele>1239.78353500366</ele>
        <time>2018-08-28T08:11:36Z</time>
      </trkpt>
      <trkpt lat="43.0622120714216" lon="-5.0894384644973">
        <ele>1240.1774559021</ele>
        <time>2018-08-28T08:11:38Z</time>
      </trkpt>
      <trkpt lat="43.0622652965068" lon="-5.08942170069096">
        <ele>1239.84432601929</ele>
        <time>2018-08-28T08:11:40Z</time>
      </trkpt>
      <trkpt lat="43.0623172643064" lon="-5.08940921165523">
        <ele>1240.23177719116</ele>
        <time>2018-08-28T08:11:42Z</time>
      </trkpt>
      <trkpt lat="43.0623681005492" lon="-5.08940451778945">
        <ele>1241.35934066772</ele>
        <time>2018-08-28T08:11:44Z</time>
      </trkpt>
      <trkpt lat="43.0624282826139" lon="-5.08941340260682">
        <ele>1241.77206039429</ele>
        <time>2018-08-28T08:11:46Z</time>
      </trkpt>
      <trkpt lat="43.0624928651779" lon="-5.08941172622618">
        <ele>1242.14339828491</ele>
        <time>2018-08-28T08:11:48Z</time>
      </trkpt>
      <trkpt lat="43.0625600880413" lon="-5.0893916934776">
        <ele>1244.51266098022</ele>
        <time>2018-08-28T08:11:50Z</time>
      </trkpt>
      <trkpt lat="43.0626189709111" lon="-5.08936495520648">
        <ele>1245.61056137085</ele>
        <time>2018-08-28T08:11:52Z</time>
      </trkpt>
      <trkpt lat="43.0626682565017" lon="-5.08935112506625">
        <ele>1246.4401512146</ele>
        <time>2018-08-28T08:11:54Z</time>
      </trkpt>
      <trkpt lat="43.0627222778677" lon="-5.08935967460749">
        <ele>1245.54598617554</ele>
        <time>2018-08-28T08:11:57Z</time>
      </trkpt>
      <trkpt lat="43.0627910513832" lon="-5.08937836625156">
        <ele>1243.91585922241</ele>
        <time>2018-08-28T08:12:00Z</time>
      </trkpt>
      <trkpt lat="43.0628511496289" lon="-5.08935095742819">
        <ele>1245.17831039429</ele>
        <time>2018-08-28T08:12:02Z</time>
      </trkpt>
      <trkpt lat="43.0629096553131" lon="-5.08932991885123">
        <ele>1245.5172996521</ele>
        <time>2018-08-28T08:12:04Z</time>
      </trkpt>
      <trkpt lat="43.062965059693" lon="-5.08931349032101">
        <ele>1245.66927719116</ele>
        <time>2018-08-28T08:12:06Z</time>
      </trkpt>
      <trkpt lat="43.0630244873865" lon="-5.08930074982819">
        <ele>1246.03853988647</ele>
        <time>2018-08-28T08:12:08Z</time>
      </trkpt>
      <trkpt lat="43.063081232871" lon="-5.08928457275507">
        <ele>1246.85848617554</ele>
        <time>2018-08-28T08:12:10Z</time>
      </trkpt>
      <trkpt lat="43.0631352961464" lon="-5.08925355971333">
        <ele>1246.9811668396</ele>
        <time>2018-08-28T08:12:12Z</time>
      </trkpt>
      <trkpt lat="43.0631826958089" lon="-5.08920754306492">
        <ele>1246.65719223022</ele>
        <time>2018-08-28T08:12:14Z</time>
      </trkpt>
      <trkpt lat="43.0632270360767" lon="-5.08916102350232">
        <ele>1246.64083480835</ele>
        <time>2018-08-28T08:12:16Z</time>
      </trkpt>
      <trkpt lat="43.0632653832837" lon="-5.08911131881651">
        <ele>1248.34920883179</ele>
        <time>2018-08-28T08:12:18Z</time>
      </trkpt>
      <trkpt lat="43.0632994138105" lon="-5.08906161413071">
        <ele>1248.18368148804</ele>
        <time>2018-08-28T08:12:20Z</time>
      </trkpt>
      <trkpt lat="43.0633388925745" lon="-5.08900721557912">
        <ele>1248.17782211304</ele>
        <time>2018-08-28T08:12:22Z</time>
      </trkpt>
      <trkpt lat="43.0633864179655" lon="-5.08895885199782">
        <ele>1249.9479637146</ele>
        <time>2018-08-28T08:12:24Z</time>
      </trkpt>
      <trkpt lat="43.0634244718059" lon="-5.08890378289399">
        <ele>1250.57418441772</ele>
        <time>2018-08-28T08:12:26Z</time>
      </trkpt>
      <trkpt lat="43.0634559039428" lon="-5.08884795941886">
        <ele>1250.84090805054</ele>
        <time>2018-08-28T08:12:28Z</time>
      </trkpt>
      <trkpt lat="43.0634939577832" lon="-5.08877478540418">
        <ele>1250.57772445679</ele>
        <time>2018-08-28T08:12:31Z</time>
      </trkpt>
      <trkpt lat="43.0635259766533" lon="-5.0886995159137">
        <ele>1250.14291000366</ele>
        <time>2018-08-28T08:12:34Z</time>
      </trkpt>
      <trkpt lat="43.063564868684" lon="-5.08863053285059">
        <ele>1251.28499984741</ele>
        <time>2018-08-28T08:12:37Z</time>
      </trkpt>
      <trkpt lat="43.063613860908" lon="-5.08857261389968">
        <ele>1251.05233383179</ele>
        <time>2018-08-28T08:12:40Z</time>
      </trkpt>
      <trkpt lat="43.0636604223801" lon="-5.0885211490142">
        <ele>1251.11056137085</ele>
        <time>2018-08-28T08:12:43Z</time>
      </trkpt>
      <trkpt lat="43.0637171259551" lon="-5.08847245015678">
        <ele>1253.08932113647</ele>
        <time>2018-08-28T08:12:46Z</time>
      </trkpt>
      <trkpt lat="43.0637556827097" lon="-5.08844076656279">
        <ele>1252.97640609741</ele>
        <time>2018-08-28T08:12:48Z</time>
      </trkpt>
      <trkpt lat="43.0637980951397" lon="-5.08840782568333">
        <ele>1252.32845687866</ele>
        <time>2018-08-28T08:12:50Z</time>
      </trkpt>
      <trkpt lat="43.0638434831454" lon="-5.08836876601455">
        <ele>1252.63485336304</ele>
        <time>2018-08-28T08:12:52Z</time>
      </trkpt>
      <trkpt lat="43.0638817884429" lon="-5.08832911961254">
        <ele>1253.52462387085</ele>
        <time>2018-08-28T08:12:54Z</time>
      </trkpt>
      <trkpt lat="43.0639146035938" lon="-5.08828528225896">
        <ele>1253.64388656616</ele>
        <time>2018-08-28T08:12:56Z</time>
      </trkpt>
      <trkpt lat="43.0639452813594" lon="-5.08822870441255">
        <ele>1255.36019515991</ele>
        <time>2018-08-28T08:12:58Z</time>
      </trkpt>
      <trkpt lat="43.0639766296773" lon="-5.0881741382229">
        <ele>1256.39388656616</ele>
        <time>2018-08-28T08:13:00Z</time>
      </trkpt>
      <trkpt lat="43.0640132166846" lon="-5.08812753484127">
        <ele>1256.04977035522</ele>
        <time>2018-08-28T08:13:02Z</time>
      </trkpt>
      <trkpt lat="43.0640502646966" lon="-5.08807699196514">
        <ele>1256.20260238647</ele>
        <time>2018-08-28T08:13:04Z</time>
      </trkpt>
      <trkpt lat="43.064089533913" lon="-5.0880256108987">
        <ele>1256.82357406616</ele>
        <time>2018-08-28T08:13:06Z</time>
      </trkpt>
      <trkpt lat="43.0641321978001" lon="-5.08796961978552">
        <ele>1257.29207992554</ele>
        <time>2018-08-28T08:13:08Z</time>
      </trkpt>
      <trkpt lat="43.0641765380679" lon="-5.08791941218552">
        <ele>1255.61629867554</ele>
        <time>2018-08-28T08:13:10Z</time>
      </trkpt>
      <trkpt lat="43.0642233509971" lon="-5.08787423372743">
        <ele>1255.8630027771</ele>
        <time>2018-08-28T08:13:12Z</time>
      </trkpt>
      <trkpt lat="43.0642715050309" lon="-5.08783785626766">
        <ele>1253.67123031616</ele>
        <time>2018-08-28T08:13:14Z</time>
      </trkpt>
      <trkpt lat="43.0643178150459" lon="-5.08779879659888">
        <ele>1254.05916976929</ele>
        <time>2018-08-28T08:13:16Z</time>
      </trkpt>
      <trkpt lat="43.0643621134041" lon="-5.08775294758853">
        <ele>1253.58919906616</ele>
        <time>2018-08-28T08:13:18Z</time>
      </trkpt>
      <trkpt lat="43.0644366704329" lon="-5.08769595064697">
        <ele>1255.22640609741</ele>
        <time>2018-08-28T08:14:25Z</time>
      </trkpt>
      <trkpt lat="43.0644590501143" lon="-5.08761858568069">
        <ele>1253.18148422241</ele>
        <time>2018-08-28T08:14:29Z</time>
      </trkpt>
      <trkpt lat="43.0644854950188" lon="-5.08756116964397">
        <ele>1253.45907211304</ele>
        <time>2018-08-28T08:14:31Z</time>
      </trkpt>
      <trkpt lat="43.0645116046472" lon="-5.08749763481793">
        <ele>1253.92037582397</ele>
        <time>2018-08-28T08:14:33Z</time>
      </trkpt>
      <trkpt lat="43.0645364988996" lon="-5.08743594401058">
        <ele>1255.16549301147</ele>
        <time>2018-08-28T08:14:35Z</time>
      </trkpt>
      <trkpt lat="43.0645649973704" lon="-5.08738531731543">
        <ele>1256.0436668396</ele>
        <time>2018-08-28T08:14:37Z</time>
      </trkpt>
      <trkpt lat="43.0645958008646" lon="-5.08733737282929">
        <ele>1255.99605941772</ele>
        <time>2018-08-28T08:14:39Z</time>
      </trkpt>
      <trkpt lat="43.064622078131" lon="-5.08728406392512">
        <ele>1255.01644515991</ele>
        <time>2018-08-28T08:14:41Z</time>
      </trkpt>
      <trkpt lat="43.0646455474599" lon="-5.08722681552645">
        <ele>1256.11056137085</ele>
        <time>2018-08-28T08:14:43Z</time>
      </trkpt>
      <trkpt lat="43.0646873312472" lon="-5.08716529235718">
        <ele>1255.58419418335</ele>
        <time>2018-08-28T08:14:46Z</time>
      </trkpt>
      <trkpt lat="43.0647266004636" lon="-5.08708507754382">
        <ele>1254.20785140991</ele>
        <time>2018-08-28T08:14:49Z</time>
      </trkpt>
      <trkpt lat="43.064755392301" lon="-5.0870136637288">
        <ele>1255.57076644897</ele>
        <time>2018-08-28T08:14:51Z</time>
      </trkpt>
      <trkpt lat="43.0647788616298" lon="-5.08696077391979">
        <ele>1255.0778465271</ele>
        <time>2018-08-28T08:14:53Z</time>
      </trkpt>
      <trkpt lat="43.0648105452238" lon="-5.08691551164266">
        <ele>1256.16366195679</ele>
        <time>2018-08-28T08:14:55Z</time>
      </trkpt>
      <trkpt lat="43.0648384150519" lon="-5.08686429821429">
        <ele>1255.93197250366</ele>
        <time>2018-08-28T08:14:57Z</time>
      </trkpt>
      <trkpt lat="43.0648695119126" lon="-5.08681937121329">
        <ele>1255.95235824585</ele>
        <time>2018-08-28T08:14:59Z</time>
      </trkpt>
      <trkpt lat="43.0649170373036" lon="-5.08676690049943">
        <ele>1257.94527816772</ele>
        <time>2018-08-28T08:15:02Z</time>
      </trkpt>
      <trkpt lat="43.064972232136" lon="-5.0867187045562">
        <ele>1257.80196762085</ele>
        <time>2018-08-28T08:15:05Z</time>
      </trkpt>
      <trkpt lat="43.0650115432619" lon="-5.08668785915252">
        <ele>1261.02596664429</ele>
        <time>2018-08-28T08:15:07Z</time>
      </trkpt>
      <trkpt lat="43.0650624214141" lon="-5.08664251305637">
        <ele>1261.75985336304</ele>
        <time>2018-08-28T08:15:10Z</time>
      </trkpt>
      <trkpt lat="43.0651060492201" lon="-5.08660605177757">
        <ele>1260.02828598022</ele>
        <time>2018-08-28T08:15:12Z</time>
      </trkpt>
      <trkpt lat="43.0651528621493" lon="-5.08656565100428">
        <ele>1260.57406234741</ele>
        <time>2018-08-28T08:15:14Z</time>
      </trkpt>
      <trkpt lat="43.065191502723" lon="-5.08653271012482">
        <ele>1260.84762191772</ele>
        <time>2018-08-28T08:15:16Z</time>
      </trkpt>
      <trkpt lat="43.0652282154589" lon="-5.08649708703634">
        <ele>1260.28145980835</ele>
        <time>2018-08-28T08:15:18Z</time>
      </trkpt>
      <trkpt lat="43.0652763694926" lon="-5.08645115420696">
        <ele>1259.96334457397</ele>
        <time>2018-08-28T08:15:21Z</time>
      </trkpt>
      <trkpt lat="43.0653215898602" lon="-5.08640689775821">
        <ele>1260.2135887146</ele>
        <time>2018-08-28T08:15:26Z</time>
      </trkpt>
      <trkpt lat="43.0653599789767" lon="-5.08636423387107">
        <ele>1260.35494613647</ele>
        <time>2018-08-28T08:15:29Z</time>
      </trkpt>
      <trkpt lat="43.0653944705083" lon="-5.08630824275788">
        <ele>1261.18404769897</ele>
        <time>2018-08-28T08:15:32Z</time>
      </trkpt>
      <trkpt lat="43.0654393555998" lon="-5.08625174873051">
        <ele>1262.46371078491</ele>
        <time>2018-08-28T08:15:35Z</time>
      </trkpt>
      <trkpt lat="43.0654746015026" lon="-5.08618921973285">
        <ele>1261.88021469116</ele>
        <time>2018-08-28T08:15:38Z</time>
      </trkpt>
      <trkpt lat="43.0655254796548" lon="-5.08613339625773">
        <ele>1261.99056625366</ele>
        <time>2018-08-28T08:15:41Z</time>
      </trkpt>
      <trkpt lat="43.0655712448462" lon="-5.08612107486006">
        <ele>1263.2604637146</ele>
        <time>2018-08-28T08:15:43Z</time>
      </trkpt>
      <trkpt lat="43.0656259367643" lon="-5.08611663245138">
        <ele>1262.81771469116</ele>
        <time>2018-08-28T08:15:45Z</time>
      </trkpt>
      <trkpt lat="43.0656823469727" lon="-5.08611269295689">
        <ele>1261.97054672241</ele>
        <time>2018-08-28T08:15:47Z</time>
      </trkpt>
      <trkpt lat="43.0657330574869" lon="-5.08611135185239">
        <ele>1263.03902816772</ele>
        <time>2018-08-28T08:15:49Z</time>
      </trkpt>
      <trkpt lat="43.0657866178481" lon="-5.08610414341566">
        <ele>1262.39852523804</ele>
        <time>2018-08-28T08:15:51Z</time>
      </trkpt>
      <trkpt lat="43.0658371607243" lon="-5.08609592915055">
        <ele>1263.76571273804</ele>
        <time>2018-08-28T08:15:53Z</time>
      </trkpt>
      <trkpt lat="43.0658940319373" lon="-5.08607505821165">
        <ele>1264.2165184021</ele>
        <time>2018-08-28T08:15:55Z</time>
      </trkpt>
      <trkpt lat="43.0659566866635" lon="-5.08604203351316">
        <ele>1264.30892562866</ele>
        <time>2018-08-28T08:15:57Z</time>
      </trkpt>
      <trkpt lat="43.0660234485223" lon="-5.08600004017827">
        <ele>1264.39474105835</ele>
        <time>2018-08-28T08:15:59Z</time>
      </trkpt>
      <trkpt lat="43.0660904618381" lon="-5.08595922030982">
        <ele>1263.9196434021</ele>
        <time>2018-08-28T08:16:01Z</time>
      </trkpt>
      <trkpt lat="43.0661525298311" lon="-5.08592326194522">
        <ele>1265.11642074585</ele>
        <time>2018-08-28T08:16:03Z</time>
      </trkpt>
      <trkpt lat="43.0662192916899" lon="-5.08589803241667">
        <ele>1265.51791000366</ele>
        <time>2018-08-28T08:16:05Z</time>
      </trkpt>
      <trkpt lat="43.0662865983723" lon="-5.08589325473186">
        <ele>1265.85897445679</ele>
        <time>2018-08-28T08:16:07Z</time>
      </trkpt>
      <trkpt lat="43.0663431762187" lon="-5.08589895442602">
        <ele>1265.28609848022</ele>
        <time>2018-08-28T08:16:09Z</time>
      </trkpt>
      <trkpt lat="43.066395437385" lon="-5.0858880579519">
        <ele>1269.09200668335</ele>
        <time>2018-08-28T08:16:13Z</time>
      </trkpt>
      <trkpt lat="43.0664421245857" lon="-5.08589216508445">
        <ele>1269.98055648804</ele>
        <time>2018-08-28T08:16:18Z</time>
      </trkpt>
      <trkpt lat="43.0664787535025" lon="-5.0859327334958">
        <ele>1271.26327133179</ele>
        <time>2018-08-28T08:16:32Z</time>
      </trkpt>
      <trkpt lat="43.0665442999853" lon="-5.08593809791383">
        <ele>1274.00008773804</ele>
        <time>2018-08-28T08:16:35Z</time>
      </trkpt>
      <trkpt lat="43.0666196952044" lon="-5.08595913649079">
        <ele>1275.00631332397</ele>
        <time>2018-08-28T08:16:37Z</time>
      </trkpt>
      <trkpt lat="43.0666978145419" lon="-5.08599174209413">
        <ele>1274.65877914429</ele>
        <time>2018-08-28T08:16:39Z</time>
      </trkpt>
      <trkpt lat="43.0667795800074" lon="-5.08607111871716">
        <ele>1274.04867172241</ele>
        <time>2018-08-28T08:16:41Z</time>
      </trkpt>
      <trkpt lat="43.0668168794765" lon="-5.08610707708177">
        <ele>1274.56087875366</ele>
        <time>2018-08-28T08:16:42Z</time>
      </trkpt>
      <trkpt lat="43.0668986449419" lon="-5.08617446758327">
        <ele>1274.60103988647</ele>
        <time>2018-08-28T08:16:44Z</time>
      </trkpt>
      <trkpt lat="43.0669367406918" lon="-5.08621696383235">
        <ele>1274.56051254272</ele>
        <time>2018-08-28T08:16:45Z</time>
      </trkpt>
      <trkpt lat="43.0670130160107" lon="-5.08628929965672">
        <ele>1273.92025375366</ele>
        <time>2018-08-28T08:16:47Z</time>
      </trkpt>
      <trkpt lat="43.06705203377" lon="-5.08633464575288">
        <ele>1273.78158187866</ele>
        <time>2018-08-28T08:16:48Z</time>
      </trkpt>
      <trkpt lat="43.0670986790611" lon="-5.08637320250746">
        <ele>1273.28145980835</ele>
        <time>2018-08-28T08:16:49Z</time>
      </trkpt>
      <trkpt lat="43.067144569981" lon="-5.08638979867574">
        <ele>1273.48788070679</ele>
        <time>2018-08-28T08:16:50Z</time>
      </trkpt>
      <trkpt lat="43.0672008125513" lon="-5.08639616892215">
        <ele>1272.97933578491</ele>
        <time>2018-08-28T08:16:51Z</time>
      </trkpt>
      <trkpt lat="43.0672554206504" lon="-5.08638141677257">
        <ele>1271.75228500366</ele>
        <time>2018-08-28T08:16:52Z</time>
      </trkpt>
      <trkpt lat="43.0673069274454" lon="-5.08637228049812">
        <ele>1271.93844223022</ele>
        <time>2018-08-28T08:16:53Z</time>
      </trkpt>
      <trkpt lat="43.0673537403746" lon="-5.0863576959866">
        <ele>1271.94491195679</ele>
        <time>2018-08-28T08:16:54Z</time>
      </trkpt>
      <trkpt lat="43.0673997151135" lon="-5.08633808233318">
        <ele>1272.43673324585</ele>
        <time>2018-08-28T08:16:55Z</time>
      </trkpt>
      <trkpt lat="43.067472302395" lon="-5.08632710204002">
        <ele>1272.17660140991</ele>
        <time>2018-08-28T08:16:57Z</time>
      </trkpt>
      <trkpt lat="43.0675478233426" lon="-5.08629617281732">
        <ele>1272.32833480835</ele>
        <time>2018-08-28T08:16:59Z</time>
      </trkpt>
      <trkpt lat="43.0676288763462" lon="-5.08628720418092">
        <ele>1272.06856918335</ele>
        <time>2018-08-28T08:17:01Z</time>
      </trkpt>
      <trkpt lat="43.0676922016247" lon="-5.08629977703568">
        <ele>1272.12337875366</ele>
        <time>2018-08-28T08:17:03Z</time>
      </trkpt>
      <trkpt lat="43.0677460553526" lon="-5.08630530909177">
        <ele>1274.4508934021</ele>
        <time>2018-08-28T08:17:05Z</time>
      </trkpt>
      <trkpt lat="43.0678086262597" lon="-5.08630782366273">
        <ele>1274.16634750366</ele>
        <time>2018-08-28T08:17:07Z</time>
      </trkpt>
      <trkpt lat="43.0678610550641" lon="-5.08633146062967">
        <ele>1274.20321273804</ele>
        <time>2018-08-28T08:17:09Z</time>
      </trkpt>
      <trkpt lat="43.0679035513132" lon="-5.08635761216757">
        <ele>1274.86214828491</ele>
        <time>2018-08-28T08:17:11Z</time>
      </trkpt>
      <trkpt lat="43.0679434910818" lon="-5.08640673012015">
        <ele>1274.85042953491</ele>
        <time>2018-08-28T08:17:13Z</time>
      </trkpt>
      <trkpt lat="43.0679780245228" lon="-5.08647252806005">
        <ele>1276.43099594116</ele>
        <time>2018-08-28T08:17:15Z</time>
      </trkpt>
      <trkpt lat="43.0680124741449" lon="-5.08654017001864">
        <ele>1277.74984359741</ele>
        <time>2018-08-28T08:17:17Z</time>
      </trkpt>
      <trkpt lat="43.0680558924033" lon="-5.08659507148441">
        <ele>1278.15426254272</ele>
        <time>2018-08-28T08:17:19Z</time>
      </trkpt>
      <trkpt lat="43.0681092013075" lon="-5.08661736734685">
        <ele>1275.66231918335</ele>
        <time>2018-08-28T08:17:22Z</time>
      </trkpt>
      <trkpt lat="43.0681731971382" lon="-5.08661124855754">
        <ele>1275.30794906616</ele>
        <time>2018-08-28T08:17:25Z</time>
      </trkpt>
      <trkpt lat="43.0682391208066" lon="-5.08660873398658">
        <ele>1275.58529281616</ele>
        <time>2018-08-28T08:17:28Z</time>
      </trkpt>
      <trkpt lat="43.0683011887996" lon="-5.08663295768675">
        <ele>1276.00826644897</ele>
        <time>2018-08-28T08:17:31Z</time>
      </trkpt>
      <trkpt lat="43.0683410028397" lon="-5.08666858077523">
        <ele>1277.72665023804</ele>
        <time>2018-08-28T08:17:34Z</time>
      </trkpt>
      <trkpt lat="43.0683778832136" lon="-5.08671510033783">
        <ele>1279.59200668335</ele>
        <time>2018-08-28T08:17:37Z</time>
      </trkpt>
      <trkpt lat="43.0684191640868" lon="-5.08676161990043">
        <ele>1278.90951156616</ele>
        <time>2018-08-28T08:17:40Z</time>
      </trkpt>
      <trkpt lat="43.0684615765168" lon="-5.08680285886404">
        <ele>1279.23531723022</ele>
        <time>2018-08-28T08:17:43Z</time>
      </trkpt>
      <trkpt lat="43.0685102334647" lon="-5.08684485219893">
        <ele>1278.74203109741</ele>
        <time>2018-08-28T08:17:47Z</time>
      </trkpt>
      <trkpt lat="43.0685548251896" lon="-5.08687561378357">
        <ele>1279.25985336304</ele>
        <time>2018-08-28T08:17:50Z</time>
      </trkpt>
      <trkpt lat="43.068602224852" lon="-5.08690025657889">
        <ele>1284.26681137085</ele>
        <time>2018-08-28T08:17:53Z</time>
      </trkpt>
      <trkpt lat="43.068641703616" lon="-5.08686647750911">
        <ele>1284.51937484741</ele>
        <time>2018-08-28T08:17:56Z</time>
      </trkpt>
      <trkpt lat="43.0686812661989" lon="-5.08681853302297">
        <ele>1286.05672836304</ele>
        <time>2018-08-28T08:18:00Z</time>
      </trkpt>
      <trkpt lat="43.0687221279769" lon="-5.08678525686738">
        <ele>1290.26864242554</ele>
        <time>2018-08-28T08:18:05Z</time>
      </trkpt>
      <trkpt lat="43.0687755207001" lon="-5.08674376644668">
        <ele>1290.15133285522</ele>
        <time>2018-08-28T08:18:09Z</time>
      </trkpt>
      <trkpt lat="43.0688286200567" lon="-5.0867255777168">
        <ele>1291.55184555054</ele>
        <time>2018-08-28T08:18:12Z</time>
      </trkpt>
      <trkpt lat="43.068874385248" lon="-5.08670948446271">
        <ele>1292.15914535522</ele>
        <time>2018-08-28T08:18:15Z</time>
      </trkpt>
      <trkpt lat="43.0689174263208" lon="-5.08668702096221">
        <ele>1292.62484359741</ele>
        <time>2018-08-28T08:18:18Z</time>
      </trkpt>
      <trkpt lat="43.0689596711128" lon="-5.08665198460695">
        <ele>1293.0172996521</ele>
        <time>2018-08-28T08:18:21Z</time>
      </trkpt>
      <trkpt lat="43.0690055620326" lon="-5.08662658744034">
        <ele>1294.30697250366</ele>
        <time>2018-08-28T08:18:24Z</time>
      </trkpt>
      <trkpt lat="43.0690590804844" lon="-5.08661971427974">
        <ele>1294.75094223022</ele>
        <time>2018-08-28T08:18:27Z</time>
      </trkpt>
      <trkpt lat="43.0691135209455" lon="-5.08661954664168">
        <ele>1296.31380844116</ele>
        <time>2018-08-28T08:18:30Z</time>
      </trkpt>
      <trkpt lat="43.0691631418123" lon="-5.08663865738091">
        <ele>1295.57540512085</ele>
        <time>2018-08-28T08:18:33Z</time>
      </trkpt>
      <trkpt lat="43.0692081526323" lon="-5.08666078560528">
        <ele>1294.39779281616</ele>
        <time>2018-08-28T08:18:36Z</time>
      </trkpt>
      <trkpt lat="43.0692686280637" lon="-5.08667780086872">
        <ele>1295.2340965271</ele>
        <time>2018-08-28T08:18:40Z</time>
      </trkpt>
      <trkpt lat="43.0693228589772" lon="-5.08668391965803">
        <ele>1293.99422836304</ele>
        <time>2018-08-28T08:18:43Z</time>
      </trkpt>
      <trkpt lat="43.0693690013542" lon="-5.08668257855353">
        <ele>1294.51998519897</ele>
        <time>2018-08-28T08:18:46Z</time>
      </trkpt>
      <trkpt lat="43.0694120424269" lon="-5.08666070178625">
        <ele>1296.66891098022</ele>
        <time>2018-08-28T08:18:49Z</time>
      </trkpt>
      <trkpt lat="43.0694630463077" lon="-5.08663740009543">
        <ele>1296.68539047241</ele>
        <time>2018-08-28T08:18:52Z</time>
      </trkpt>
      <trkpt lat="43.06950872768" lon="-5.08662742563066">
        <ele>1299.06075668335</ele>
        <time>2018-08-28T08:18:55Z</time>
      </trkpt>
      <trkpt lat="43.069556169252" lon="-5.08660278283533">
        <ele>1300.43514633179</ele>
        <time>2018-08-28T08:18:58Z</time>
      </trkpt>
      <trkpt lat="43.0696070054947" lon="-5.08658459410545">
        <ele>1300.40816879272</ele>
        <time>2018-08-28T08:19:01Z</time>
      </trkpt>
      <trkpt lat="43.0696624517842" lon="-5.0865733623552">
        <ele>1300.38521957397</ele>
        <time>2018-08-28T08:19:04Z</time>
      </trkpt>
      <trkpt lat="43.0697124498366" lon="-5.08656372316655">
        <ele>1300.96224594116</ele>
        <time>2018-08-28T08:19:07Z</time>
      </trkpt>
      <trkpt lat="43.0697661359264" lon="-5.0865733623552">
        <ele>1301.97274398804</ele>
        <time>2018-08-28T08:19:10Z</time>
      </trkpt>
      <trkpt lat="43.0698214983969" lon="-5.08659146726605">
        <ele>1304.03524398804</ele>
        <time>2018-08-28T08:19:13Z</time>
      </trkpt>
      <trkpt lat="43.0698776152386" lon="-5.08660831489143">
        <ele>1303.57552719116</ele>
        <time>2018-08-28T08:19:16Z</time>
      </trkpt>
      <trkpt lat="43.06993809067" lon="-5.08662273176488">
        <ele>1303.94063949585</ele>
        <time>2018-08-28T08:19:19Z</time>
      </trkpt>
      <trkpt lat="43.0699960515304" lon="-5.08663714863834">
        <ele>1304.72115707397</ele>
        <time>2018-08-28T08:19:22Z</time>
      </trkpt>
      <trkpt lat="43.070057029876" lon="-5.08664368652281">
        <ele>1306.94759750366</ele>
        <time>2018-08-28T08:19:25Z</time>
      </trkpt>
      <trkpt lat="43.0701173376693" lon="-5.08665843867239">
        <ele>1308.26937484741</ele>
        <time>2018-08-28T08:19:28Z</time>
      </trkpt>
      <trkpt lat="43.0701840995281" lon="-5.08666958660361">
        <ele>1307.78573226929</ele>
        <time>2018-08-28T08:19:31Z</time>
      </trkpt>
      <trkpt lat="43.0702339299424" lon="-5.08667914197323">
        <ele>1305.41500473022</ele>
        <time>2018-08-28T08:19:33Z</time>
      </trkpt>
      <trkpt lat="43.0702814553334" lon="-5.08668467402932">
        <ele>1307.29488754272</ele>
        <time>2018-08-28T08:19:35Z</time>
      </trkpt>
      <trkpt lat="43.0703453673451" lon="-5.08669481613216">
        <ele>1309.66939926147</ele>
        <time>2018-08-28T08:19:38Z</time>
      </trkpt>
      <trkpt lat="43.0703951139404" lon="-5.08670873009142">
        <ele>1311.2633934021</ele>
        <time>2018-08-28T08:19:41Z</time>
      </trkpt>
      <trkpt lat="43.0704544578149" lon="-5.08670780808207">
        <ele>1312.50179672241</ele>
        <time>2018-08-28T08:19:44Z</time>
      </trkpt>
      <trkpt lat="43.0704978760733" lon="-5.08668869734284">
        <ele>1312.45809555054</ele>
        <time>2018-08-28T08:19:46Z</time>
      </trkpt>
      <trkpt lat="43.0705415457888" lon="-5.08666153997657">
        <ele>1314.50387191772</ele>
        <time>2018-08-28T08:19:48Z</time>
      </trkpt>
      <trkpt lat="43.0705905799224" lon="-5.08663455024835">
        <ele>1314.87972640991</ele>
        <time>2018-08-28T08:19:50Z</time>
      </trkpt>
      <trkpt lat="43.0706482893257" lon="-5.08661468513784">
        <ele>1313.2975730896</ele>
        <time>2018-08-28T08:19:52Z</time>
      </trkpt>
      <trkpt lat="43.0707089743047" lon="-5.08659884334084">
        <ele>1313.90096664429</ele>
        <time>2018-08-28T08:19:54Z</time>
      </trkpt>
      <trkpt lat="43.0707769934489" lon="-5.08658249862966">
        <ele>1314.38460922241</ele>
        <time>2018-08-28T08:19:56Z</time>
      </trkpt>
      <trkpt lat="43.070844677317" lon="-5.08656447753784">
        <ele>1315.17599105835</ele>
        <time>2018-08-28T08:19:58Z</time>
      </trkpt>
      <trkpt lat="43.0709036859153" lon="-5.0865474622744">
        <ele>1316.28756332397</ele>
        <time>2018-08-28T08:20:00Z</time>
      </trkpt>
      <trkpt lat="43.0709629459708" lon="-5.08652516641196">
        <ele>1315.73324203491</ele>
        <time>2018-08-28T08:20:02Z</time>
      </trkpt>
      <trkpt lat="43.07102446914" lon="-5.08651108481464">
        <ele>1315.67965316772</ele>
        <time>2018-08-28T08:20:04Z</time>
      </trkpt>
      <trkpt lat="43.0710761435731" lon="-5.08648476563868">
        <ele>1316.68941879272</ele>
        <time>2018-08-28T08:20:06Z</time>
      </trkpt>
      <trkpt lat="43.0711285304679" lon="-5.08645081893083">
        <ele>1317.0866355896</ele>
        <time>2018-08-28T08:20:08Z</time>
      </trkpt>
      <trkpt lat="43.0711769778683" lon="-5.08640731685337">
        <ele>1317.64486312866</ele>
        <time>2018-08-28T08:20:10Z</time>
      </trkpt>
      <trkpt lat="43.0712309154152" lon="-5.08635451086339">
        <ele>1317.79903793335</ele>
        <time>2018-08-28T08:20:12Z</time>
      </trkpt>
      <trkpt lat="43.0712882476329" lon="-5.08630606346306">
        <ele>1318.03524398804</ele>
        <time>2018-08-28T08:20:14Z</time>
      </trkpt>
      <trkpt lat="43.0713421432703" lon="-5.08626465686139">
        <ele>1316.9294090271</ele>
        <time>2018-08-28T08:20:16Z</time>
      </trkpt>
      <trkpt lat="43.0713973800122" lon="-5.08622836322066">
        <ele>1315.15377426147</ele>
        <time>2018-08-28T08:20:18Z</time>
      </trkpt>
      <trkpt lat="43.0714547960489" lon="-5.08617932908711">
        <ele>1317.42428207397</ele>
        <time>2018-08-28T08:20:20Z</time>
      </trkpt>
      <trkpt lat="43.0715140141948" lon="-5.0861277803826">
        <ele>1317.6296043396</ele>
        <time>2018-08-28T08:20:22Z</time>
      </trkpt>
      <trkpt lat="43.071572603698" lon="-5.08608436212417">
        <ele>1317.12752914429</ele>
        <time>2018-08-28T08:20:24Z</time>
      </trkpt>
      <trkpt lat="43.0716342106863" lon="-5.08604815230247">
        <ele>1318.07564926147</ele>
        <time>2018-08-28T08:20:26Z</time>
      </trkpt>
      <trkpt lat="43.071692925918" lon="-5.08599534631249">
        <ele>1319.02840805054</ele>
        <time>2018-08-28T08:20:28Z</time>
      </trkpt>
      <trkpt lat="43.0717453966318" lon="-5.08592460304972">
        <ele>1318.74813461304</ele>
        <time>2018-08-28T08:20:30Z</time>
      </trkpt>
      <trkpt lat="43.0717968615173" lon="-5.0858568772721">
        <ele>1319.09725570679</ele>
        <time>2018-08-28T08:20:32Z</time>
      </trkpt>
      <trkpt lat="43.0718506314262" lon="-5.08579443209347">
        <ele>1320.64669418335</ele>
        <time>2018-08-28T08:20:34Z</time>
      </trkpt>
      <trkpt lat="43.0719083408295" lon="-5.08573709987578">
        <ele>1320.73592758179</ele>
        <time>2018-08-28T08:20:36Z</time>
      </trkpt>
      <trkpt lat="43.0719697382702" lon="-5.08567498997327">
        <ele>1320.97408676147</ele>
        <time>2018-08-28T08:20:38Z</time>
      </trkpt>
      <trkpt lat="43.0720290402352" lon="-5.08562134579298">
        <ele>1320.17000961304</ele>
        <time>2018-08-28T08:20:40Z</time>
      </trkpt>
      <trkpt lat="43.072093371342" lon="-5.08558471687612">
        <ele>1320.41891098022</ele>
        <time>2018-08-28T08:20:42Z</time>
      </trkpt>
      <trkpt lat="43.0721654557093" lon="-5.08552981541034">
        <ele>1319.03719711304</ele>
        <time>2018-08-28T08:20:44Z</time>
      </trkpt>
      <trkpt lat="43.0722243804886" lon="-5.08544138633188">
        <ele>1317.24728012085</ele>
        <time>2018-08-28T08:20:46Z</time>
      </trkpt>
      <trkpt lat="43.0722443713276" lon="-5.08536033332821">
        <ele>1317.37618637085</ele>
        <time>2018-08-28T08:20:47Z</time>
      </trkpt>
      <trkpt lat="43.0722731212555" lon="-5.0852905120748">
        <ele>1316.50106430054</ele>
        <time>2018-08-28T08:20:48Z</time>
      </trkpt>
      <trkpt lat="43.0722864903911" lon="-5.08522865362939">
        <ele>1316.46139144897</ele>
        <time>2018-08-28T08:20:49Z</time>
      </trkpt>
      <trkpt lat="43.0722800363256" lon="-5.08511650376495">
        <ele>1318.68197250366</ele>
        <time>2018-08-28T08:20:51Z</time>
      </trkpt>
      <trkpt lat="43.0723012425407" lon="-5.08504039608416">
        <ele>1318.23556137085</ele>
        <time>2018-08-28T08:20:54Z</time>
      </trkpt>
      <trkpt lat="43.0723527493356" lon="-5.0850072037476">
        <ele>1317.52535629272</ele>
        <time>2018-08-28T08:20:56Z</time>
      </trkpt>
      <trkpt lat="43.0723881628765" lon="-5.0849673058885">
        <ele>1316.41488265991</ele>
        <time>2018-08-28T08:20:58Z</time>
      </trkpt>
      <trkpt lat="43.0724335089727" lon="-5.0849226303446">
        <ele>1316.3600730896</ele>
        <time>2018-08-28T08:21:01Z</time>
      </trkpt>
      <trkpt lat="43.0724813696398" lon="-5.08487451822039">
        <ele>1316.18563461304</ele>
        <time>2018-08-28T08:21:04Z</time>
      </trkpt>
      <trkpt lat="43.0725116283103" lon="-5.08482489735362">
        <ele>1317.17928695679</ele>
        <time>2018-08-28T08:21:07Z</time>
      </trkpt>
      <trkpt lat="43.072553118731" lon="-5.08476957679268">
        <ele>1316.38509750366</ele>
        <time>2018-08-28T08:21:11Z</time>
      </trkpt>
      <trkpt lat="43.0725894961907" lon="-5.08473202586648">
        <ele>1316.75545883179</ele>
        <time>2018-08-28T08:21:16Z</time>
      </trkpt>
      <trkpt lat="43.0725900829239" lon="-5.08466731757399">
        <ele>1321.38009262085</ele>
        <time>2018-08-28T08:21:36Z</time>
      </trkpt>
      <trkpt lat="43.0726092355727" lon="-5.08460763842341">
        <ele>1322.17086410522</ele>
        <time>2018-08-28T08:21:43Z</time>
      </trkpt>
      <trkpt lat="43.0726383626862" lon="-5.08455533534762">
        <ele>1322.30660629272</ele>
        <time>2018-08-28T08:21:46Z</time>
      </trkpt>
      <trkpt lat="43.0726741534128" lon="-5.08450361900505">
        <ele>1323.10885238647</ele>
        <time>2018-08-28T08:21:49Z</time>
      </trkpt>
      <trkpt lat="43.0727062141924" lon="-5.08444972336766">
        <ele>1323.52206039429</ele>
        <time>2018-08-28T08:21:52Z</time>
      </trkpt>
      <trkpt lat="43.0727268755837" lon="-5.08438467979905">
        <ele>1324.30501937866</ele>
        <time>2018-08-28T08:21:55Z</time>
      </trkpt>
      <trkpt lat="43.0727415439143" lon="-5.08431402035531">
        <ele>1324.36629867554</ele>
        <time>2018-08-28T08:21:58Z</time>
      </trkpt>
      <trkpt lat="43.0727595650061" lon="-5.08423992433127">
        <ele>1325.47408676147</ele>
        <time>2018-08-28T08:22:01Z</time>
      </trkpt>
      <trkpt lat="43.0727796396642" lon="-5.08416867815432">
        <ele>1326.30099105835</ele>
        <time>2018-08-28T08:22:04Z</time>
      </trkpt>
      <trkpt lat="43.0727959843754" lon="-5.08409743197736">
        <ele>1326.65841293335</ele>
        <time>2018-08-28T08:22:07Z</time>
      </trkpt>
      <trkpt lat="43.0728142988338" lon="-5.0840312149423">
        <ele>1327.00240707397</ele>
        <time>2018-08-28T08:22:10Z</time>
      </trkpt>
      <trkpt lat="43.0728417495667" lon="-5.08397078142044">
        <ele>1326.13827133179</ele>
        <time>2018-08-28T08:22:13Z</time>
      </trkpt>
      <trkpt lat="43.0728764925553" lon="-5.08389710449156">
        <ele>1327.0524559021</ele>
        <time>2018-08-28T08:22:16Z</time>
      </trkpt>
      <trkpt lat="43.0729122832819" lon="-5.08382074535367">
        <ele>1328.12716293335</ele>
        <time>2018-08-28T08:22:19Z</time>
      </trkpt>
      <trkpt lat="43.0729503371223" lon="-5.08374597877737">
        <ele>1328.67281723022</ele>
        <time>2018-08-28T08:22:22Z</time>
      </trkpt>
      <trkpt lat="43.0729873432248" lon="-5.08367272094365">
        <ele>1329.20614242554</ele>
        <time>2018-08-28T08:22:25Z</time>
      </trkpt>
      <trkpt lat="43.0730115669249" lon="-5.08361773565885">
        <ele>1329.89510726929</ele>
        <time>2018-08-28T08:22:27Z</time>
      </trkpt>
      <trkpt lat="43.0730385985627" lon="-5.08355570957538">
        <ele>1329.90584945679</ele>
        <time>2018-08-28T08:22:29Z</time>
      </trkpt>
      <trkpt lat="43.0730699468805" lon="-5.08348831907388">
        <ele>1329.76192855835</ele>
        <time>2018-08-28T08:22:31Z</time>
      </trkpt>
      <trkpt lat="43.0731051508738" lon="-5.08341439068791">
        <ele>1328.93905258179</ele>
        <time>2018-08-28T08:22:33Z</time>
      </trkpt>
      <trkpt lat="43.0731351161777" lon="-5.08333115838941">
        <ele>1329.82455062866</ele>
        <time>2018-08-28T08:22:35Z</time>
      </trkpt>
      <trkpt lat="43.0731669674097" lon="-5.08325153030929">
        <ele>1330.10335922241</ele>
        <time>2018-08-28T08:22:37Z</time>
      </trkpt>
      <trkpt lat="43.0732036382361" lon="-5.08317927830395">
        <ele>1330.09005355835</ele>
        <time>2018-08-28T08:22:39Z</time>
      </trkpt>
      <trkpt lat="43.073242949362" lon="-5.08310635574635">
        <ele>1329.9997215271</ele>
        <time>2018-08-28T08:22:41Z</time>
      </trkpt>
      <trkpt lat="43.073281380388" lon="-5.08303368464586">
        <ele>1330.07992172241</ele>
        <time>2018-08-28T08:22:43Z</time>
      </trkpt>
      <trkpt lat="43.0733174225717" lon="-5.08298096247491">
        <ele>1329.99691390991</ele>
        <time>2018-08-28T08:22:45Z</time>
      </trkpt>
      <trkpt lat="43.0733559374167" lon="-5.08293008432266">
        <ele>1329.96432113647</ele>
        <time>2018-08-28T08:22:47Z</time>
      </trkpt>
      <trkpt lat="43.0733878305583" lon="-5.08286998607692">
        <ele>1330.80196762085</ele>
        <time>2018-08-28T08:22:49Z</time>
      </trkpt>
      <trkpt lat="43.0734114675252" lon="-5.08280192502316">
        <ele>1331.30282211304</ele>
        <time>2018-08-28T08:22:51Z</time>
      </trkpt>
      <trkpt lat="43.0734344758494" lon="-5.08272967301782">
        <ele>1332.6432762146</ele>
        <time>2018-08-28T08:22:53Z</time>
      </trkpt>
      <trkpt lat="43.0734580709069" lon="-5.08265448734638">
        <ele>1333.23861312866</ele>
        <time>2018-08-28T08:22:55Z</time>
      </trkpt>
      <trkpt lat="43.0734805763169" lon="-5.08257930167493">
        <ele>1333.17904281616</ele>
        <time>2018-08-28T08:22:57Z</time>
      </trkpt>
      <trkpt lat="43.0735081108688" lon="-5.08250864223119">
        <ele>1333.7594871521</ele>
        <time>2018-08-28T08:22:59Z</time>
      </trkpt>
      <trkpt lat="43.0735443626" lon="-5.08244477212902">
        <ele>1334.05746078491</ele>
        <time>2018-08-28T08:23:01Z</time>
      </trkpt>
      <trkpt lat="43.0735884933202" lon="-5.08239431307193">
        <ele>1333.17416000366</ele>
        <time>2018-08-28T08:23:03Z</time>
      </trkpt>
      <trkpt lat="43.073632749769" lon="-5.08236045018312">
        <ele>1335.26510238647</ele>
        <time>2018-08-28T08:23:05Z</time>
      </trkpt>
      <trkpt lat="43.0736873997777" lon="-5.08232139051434">
        <ele>1335.03805160522</ele>
        <time>2018-08-28T08:23:07Z</time>
      </trkpt>
      <trkpt lat="43.0737417145102" lon="-5.08227813989397">
        <ele>1335.0680809021</ele>
        <time>2018-08-28T08:23:09Z</time>
      </trkpt>
      <trkpt lat="43.0737956520571" lon="-5.08223765530165">
        <ele>1336.16842269897</ele>
        <time>2018-08-28T08:23:11Z</time>
      </trkpt>
      <trkpt lat="43.0738474103092" lon="-5.08219331503388">
        <ele>1336.69234848022</ele>
        <time>2018-08-28T08:23:13Z</time>
      </trkpt>
      <trkpt lat="43.0739017250418" lon="-5.08214679547128">
        <ele>1336.29806137085</ele>
        <time>2018-08-28T08:23:15Z</time>
      </trkpt>
      <trkpt lat="43.073956668417" lon="-5.08209658787128">
        <ele>1336.90768051147</ele>
        <time>2018-08-28T08:23:17Z</time>
      </trkpt>
      <trkpt lat="43.0740125757112" lon="-5.08204579353806">
        <ele>1335.9342918396</ele>
        <time>2018-08-28T08:23:19Z</time>
      </trkpt>
      <trkpt lat="43.0740559520601" lon="-5.0820038840222">
        <ele>1335.13167953491</ele>
        <time>2018-08-28T08:23:21Z</time>
      </trkpt>
      <trkpt lat="43.0740906950488" lon="-5.08196365088698">
        <ele>1336.6735496521</ele>
        <time>2018-08-28T08:23:39Z</time>
      </trkpt>
      <trkpt lat="43.0741265695943" lon="-5.08192651905593">
        <ele>1337.00387191772</ele>
        <time>2018-08-28T08:23:41Z</time>
      </trkpt>
      <trkpt lat="43.0741736339806" lon="-5.08188142441686">
        <ele>1337.71932601929</ele>
        <time>2018-08-28T08:23:43Z</time>
      </trkpt>
      <trkpt lat="43.0742320558457" lon="-5.08183934726294">
        <ele>1339.03084945679</ele>
        <time>2018-08-28T08:23:45Z</time>
      </trkpt>
      <trkpt lat="43.0742904777108" lon="-5.08180422708865">
        <ele>1337.93062973022</ele>
        <time>2018-08-28T08:23:47Z</time>
      </trkpt>
      <trkpt lat="43.0743474746524" lon="-5.08177271113273">
        <ele>1339.18929672241</ele>
        <time>2018-08-28T08:23:49Z</time>
      </trkpt>
      <trkpt lat="43.0744025437562" lon="-5.08174723014709">
        <ele>1337.73824691772</ele>
        <time>2018-08-28T08:23:51Z</time>
      </trkpt>
      <trkpt lat="43.0744629772781" lon="-5.08172828704592">
        <ele>1337.77206039429</ele>
        <time>2018-08-28T08:23:53Z</time>
      </trkpt>
      <trkpt lat="43.0745279789372" lon="-5.08169903420385">
        <ele>1339.31039047241</ele>
        <time>2018-08-28T08:23:56Z</time>
      </trkpt>
      <trkpt lat="43.0745755881472" lon="-5.08167665452238">
        <ele>1340.15157699585</ele>
        <time>2018-08-28T08:23:58Z</time>
      </trkpt>
      <trkpt lat="43.0746186711295" lon="-5.08165352046963">
        <ele>1340.23397445679</ele>
        <time>2018-08-28T08:24:00Z</time>
      </trkpt>
      <trkpt lat="43.074662257026" lon="-5.08162736893173">
        <ele>1339.35067367554</ele>
        <time>2018-08-28T08:24:03Z</time>
      </trkpt>
      <trkpt lat="43.0746959103673" lon="-5.08157908916947">
        <ele>1339.60445785522</ele>
        <time>2018-08-28T08:24:23Z</time>
      </trkpt>
      <trkpt lat="43.0747520691185" lon="-5.08156307973441">
        <ele>1340.92049789429</ele>
        <time>2018-08-28T08:24:25Z</time>
      </trkpt>
      <trkpt lat="43.0748059647559" lon="-5.08154287934777">
        <ele>1342.26717758179</ele>
        <time>2018-08-28T08:24:27Z</time>
      </trkpt>
      <trkpt lat="43.0748601537599" lon="-5.08154883049902">
        <ele>1341.95211410522</ele>
        <time>2018-08-28T08:24:29Z</time>
      </trkpt>
      <trkpt lat="43.074913378845" lon="-5.08154614829">
        <ele>1342.17110824585</ele>
        <time>2018-08-28T08:24:31Z</time>
      </trkpt>
      <trkpt lat="43.0749580124794" lon="-5.08151127957281">
        <ele>1343.1940574646</ele>
        <time>2018-08-28T08:24:34Z</time>
      </trkpt>
      <trkpt lat="43.0749960244103" lon="-5.08146392181989">
        <ele>1341.82040023804</ele>
        <time>2018-08-28T08:24:36Z</time>
      </trkpt>
      <trkpt lat="43.0750308931275" lon="-5.08142150938984">
        <ele>1343.72213363647</ele>
        <time>2018-08-28T08:24:38Z</time>
      </trkpt>
      <trkpt lat="43.0750897340878" lon="-5.08138647303458">
        <ele>1342.33187484741</ele>
        <time>2018-08-28T08:24:41Z</time>
      </trkpt>
      <trkpt lat="43.0751469824864" lon="-5.08137549274143">
        <ele>1341.93307113647</ele>
        <time>2018-08-28T08:24:43Z</time>
      </trkpt>
      <trkpt lat="43.0751910293876" lon="-5.0813579745638">
        <ele>1343.8122215271</ele>
        <time>2018-08-28T08:24:45Z</time>
      </trkpt>
      <trkpt lat="43.0752271972998" lon="-5.08132025599953">
        <ele>1344.71676254272</ele>
        <time>2018-08-28T08:24:47Z</time>
      </trkpt>
      <trkpt lat="43.0752689810871" lon="-5.08125185966965">
        <ele>1347.14706039429</ele>
        <time>2018-08-28T08:24:50Z</time>
      </trkpt>
      <trkpt lat="43.0753082083939" lon="-5.08119762875613">
        <ele>1349.08883285522</ele>
        <time>2018-08-28T08:24:53Z</time>
      </trkpt>
      <trkpt lat="43.0753511656477" lon="-5.08115479723092">
        <ele>1350.22445297241</ele>
        <time>2018-08-28T08:24:56Z</time>
      </trkpt>
      <trkpt lat="43.0753935780777" lon="-5.08112378418919">
        <ele>1349.93856430054</ele>
        <time>2018-08-28T08:24:59Z</time>
      </trkpt>
      <trkpt lat="43.0754306679993" lon="-5.08107860573109">
        <ele>1351.74471664429</ele>
        <time>2018-08-28T08:25:02Z</time>
      </trkpt>
      <trkpt lat="43.0754571548133" lon="-5.08101155050572">
        <ele>1353.24569320679</ele>
        <time>2018-08-28T08:25:06Z</time>
      </trkpt>
      <trkpt lat="43.0754820490657" lon="-5.08095128462192">
        <ele>1353.78707504272</ele>
        <time>2018-08-28T08:25:10Z</time>
      </trkpt>
      <trkpt lat="43.0755188456206" lon="-5.08090258576449">
        <ele>1355.15743637085</ele>
        <time>2018-08-28T08:25:13Z</time>
      </trkpt>
      <trkpt lat="43.0755630601599" lon="-5.08083444089171">
        <ele>1355.0231590271</ele>
        <time>2018-08-28T08:25:16Z</time>
      </trkpt>
      <trkpt lat="43.0755944922968" lon="-5.08078540675815">
        <ele>1356.83724594116</ele>
        <time>2018-08-28T08:25:19Z</time>
      </trkpt>
      <trkpt lat="43.0756131001218" lon="-5.08071625605699">
        <ele>1360.10457992554</ele>
        <time>2018-08-28T08:25:24Z</time>
      </trkpt>
      <trkpt lat="43.0756452447205" lon="-5.08066152222928">
        <ele>1361.21688461304</ele>
        <time>2018-08-28T08:25:27Z</time>
      </trkpt>
      <trkpt lat="43.0756879086076" lon="-5.08061198518153">
        <ele>1360.68172836304</ele>
        <time>2018-08-28T08:25:30Z</time>
      </trkpt>
      <trkpt lat="43.0757101625605" lon="-5.08055540733513">
        <ele>1362.24789047241</ele>
        <time>2018-08-28T08:25:33Z</time>
      </trkpt>
      <trkpt lat="43.0757418461545" lon="-5.08050469682094">
        <ele>1363.50045394897</ele>
        <time>2018-08-28T08:25:36Z</time>
      </trkpt>
      <trkpt lat="43.075782833661" lon="-5.0804409105378">
        <ele>1363.64376449585</ele>
        <time>2018-08-28T08:25:39Z</time>
      </trkpt>
      <trkpt lat="43.0758148944407" lon="-5.08036455139991">
        <ele>1362.55807113647</ele>
        <time>2018-08-28T08:25:42Z</time>
      </trkpt>
      <trkpt lat="43.0758431414543" lon="-5.08030353114482">
        <ele>1362.87301254272</ele>
        <time>2018-08-28T08:25:45Z</time>
      </trkpt>
      <trkpt lat="43.0758695444493" lon="-5.08023329079624">
        <ele>1363.31759262085</ele>
        <time>2018-08-28T08:25:48Z</time>
      </trkpt>
      <trkpt lat="43.075906969647" lon="-5.08016615175184">
        <ele>1361.93062973022</ele>
        <time>2018-08-28T08:25:51Z</time>
      </trkpt>
      <trkpt lat="43.0759352585702" lon="-5.08011041209575">
        <ele>1363.37826156616</ele>
        <time>2018-08-28T08:25:53Z</time>
      </trkpt>
      <trkpt lat="43.0759536987572" lon="-5.08004947565969">
        <ele>1359.30489730835</ele>
        <time>2018-08-28T08:25:55Z</time>
      </trkpt>
      <trkpt lat="43.075963924679" lon="-5.07998552173849">
        <ele>1360.12411117554</ele>
        <time>2018-08-28T08:25:57Z</time>
      </trkpt>
      <trkpt lat="43.0759782577335" lon="-5.07992601022597">
        <ele>1360.53951644897</ele>
        <time>2018-08-28T08:25:59Z</time>
      </trkpt>
      <trkpt lat="43.0759947281732" lon="-5.07985769771513">
        <ele>1359.97555160522</ele>
        <time>2018-08-28T08:26:01Z</time>
      </trkpt>
      <trkpt lat="43.0760155152931" lon="-5.07978217676755">
        <ele>1359.70919418335</ele>
        <time>2018-08-28T08:26:03Z</time>
      </trkpt>
      <trkpt lat="43.076044516678" lon="-5.07972668856855">
        <ele>1361.22103500366</ele>
        <time>2018-08-28T08:26:05Z</time>
      </trkpt>
      <trkpt lat="43.0760681117355" lon="-5.07967287675019">
        <ele>1362.25912094116</ele>
        <time>2018-08-28T08:26:07Z</time>
      </trkpt>
      <trkpt lat="43.0760956462874" lon="-5.07960163057323">
        <ele>1361.7438621521</ele>
        <time>2018-08-28T08:26:09Z</time>
      </trkpt>
      <trkpt lat="43.0761171039595" lon="-5.07953197695788">
        <ele>1362.84139633179</ele>
        <time>2018-08-28T08:26:11Z</time>
      </trkpt>
      <trkpt lat="43.0761413276597" lon="-5.07946232334252">
        <ele>1363.25204086304</ele>
        <time>2018-08-28T08:26:13Z</time>
      </trkpt>
      <trkpt lat="43.0761629948794" lon="-5.07938110270079">
        <ele>1363.66048812866</ele>
        <time>2018-08-28T08:26:16Z</time>
      </trkpt>
      <trkpt lat="43.0761767412006" lon="-5.07931128144737">
        <ele>1362.67245101929</ele>
        <time>2018-08-28T08:26:18Z</time>
      </trkpt>
      <trkpt lat="43.0761992047011" lon="-5.07922997698661">
        <ele>1362.84493637085</ele>
        <time>2018-08-28T08:26:20Z</time>
      </trkpt>
      <trkpt lat="43.0762326484947" lon="-5.07916744798895">
        <ele>1363.85396957397</ele>
        <time>2018-08-28T08:26:22Z</time>
      </trkpt>
      <trkpt lat="43.0762701994209" lon="-5.07908924483236">
        <ele>1363.83944320679</ele>
        <time>2018-08-28T08:26:24Z</time>
      </trkpt>
      <trkpt lat="43.0762847420229" lon="-5.0789868179756">
        <ele>1364.33517074585</ele>
        <time>2018-08-28T08:26:26Z</time>
      </trkpt>
      <trkpt lat="43.0763183115451" lon="-5.07888589986142">
        <ele>1365.72506332397</ele>
        <time>2018-08-28T08:26:28Z</time>
      </trkpt>
      <trkpt lat="43.0763666751264" lon="-5.07878154516693">
        <ele>1366.64657211304</ele>
        <time>2018-08-28T08:26:30Z</time>
      </trkpt>
      <trkpt lat="43.0764004961057" lon="-5.07872614078697">
        <ele>1365.18209457397</ele>
        <time>2018-08-28T08:26:31Z</time>
      </trkpt>
      <trkpt lat="43.0765024200483" lon="-5.07864944637295">
        <ele>1363.97359848022</ele>
        <time>2018-08-28T08:26:32Z</time>
      </trkpt>
      <trkpt lat="43.0765540525718" lon="-5.07860158570584">
        <ele>1363.59066390991</ele>
        <time>2018-08-28T08:26:33Z</time>
      </trkpt>
      <trkpt lat="43.0766142346366" lon="-5.07852740586277">
        <ele>1364.99239730835</ele>
        <time>2018-08-28T08:26:35Z</time>
      </trkpt>
      <trkpt lat="43.0766634783177" lon="-5.07847476751085">
        <ele>1364.52950668335</ele>
        <time>2018-08-28T08:26:36Z</time>
      </trkpt>
      <trkpt lat="43.0767167872219" lon="-5.07843738422271">
        <ele>1364.25289535522</ele>
        <time>2018-08-28T08:26:37Z</time>
      </trkpt>
      <trkpt lat="43.0767610017611" lon="-5.07838415913757">
        <ele>1363.1003074646</ele>
        <time>2018-08-28T08:26:38Z</time>
      </trkpt>
      <trkpt lat="43.0768301524623" lon="-5.07833696902271">
        <ele>1361.56686019897</ele>
        <time>2018-08-28T08:26:39Z</time>
      </trkpt>
      <trkpt lat="43.0768985907017" lon="-5.07827209309216">
        <ele>1360.64156723022</ele>
        <time>2018-08-28T08:26:41Z</time>
      </trkpt>
      <trkpt lat="43.0769569287478" lon="-5.0782045349526">
        <ele>1361.01791000366</ele>
        <time>2018-08-28T08:26:43Z</time>
      </trkpt>
      <trkpt lat="43.0769871874182" lon="-5.07815876976129">
        <ele>1361.01571273804</ele>
        <time>2018-08-28T08:26:44Z</time>
      </trkpt>
      <trkpt lat="43.0770388199418" lon="-5.0780715979683">
        <ele>1360.57345199585</ele>
        <time>2018-08-28T08:26:46Z</time>
      </trkpt>
      <trkpt lat="43.0770753650396" lon="-5.0780213903683">
        <ele>1360.89596176147</ele>
        <time>2018-08-28T08:26:49Z</time>
      </trkpt>
      <trkpt lat="43.0771074258192" lon="-5.07796045393225">
        <ele>1360.34713363647</ele>
        <time>2018-08-28T08:26:52Z</time>
      </trkpt>
      <trkpt lat="43.0771477427735" lon="-5.0779180415022">
        <ele>1360.53646469116</ele>
        <time>2018-08-28T08:26:54Z</time>
      </trkpt>
      <trkpt lat="43.0772016803204" lon="-5.07788191549953">
        <ele>1362.04891586304</ele>
        <time>2018-08-28T08:26:56Z</time>
      </trkpt>
      <trkpt lat="43.0772441765695" lon="-5.07784000598367">
        <ele>1362.97860336304</ele>
        <time>2018-08-28T08:26:58Z</time>
      </trkpt>
      <trkpt lat="43.0772790452867" lon="-5.07779499516364">
        <ele>1362.9069480896</ele>
        <time>2018-08-28T08:27:00Z</time>
      </trkpt>
      <trkpt lat="43.0773124052613" lon="-5.07775040343877">
        <ele>1363.83614730835</ele>
        <time>2018-08-28T08:27:02Z</time>
      </trkpt>
      <trkpt lat="43.0773510877444" lon="-5.07771151140805">
        <ele>1366.3053855896</ele>
        <time>2018-08-28T08:27:04Z</time>
      </trkpt>
      <trkpt lat="43.0774046061962" lon="-5.07765652612325">
        <ele>1367.02889633179</ele>
        <time>2018-08-28T08:27:07Z</time>
      </trkpt>
      <trkpt lat="43.0774579570099" lon="-5.07760715671357">
        <ele>1366.27950668335</ele>
        <time>2018-08-28T08:27:09Z</time>
      </trkpt>
      <trkpt lat="43.0775141157611" lon="-5.0775551889139">
        <ele>1366.10482406616</ele>
        <time>2018-08-28T08:27:11Z</time>
      </trkpt>
      <trkpt lat="43.0775637785374" lon="-5.07748067379471">
        <ele>1365.93026351929</ele>
        <time>2018-08-28T08:27:13Z</time>
      </trkpt>
      <trkpt lat="43.0776062747865" lon="-5.07739266381141">
        <ele>1365.88631820679</ele>
        <time>2018-08-28T08:27:15Z</time>
      </trkpt>
      <trkpt lat="43.0776509922399" lon="-5.07732904516633">
        <ele>1365.22787094116</ele>
        <time>2018-08-28T08:27:17Z</time>
      </trkpt>
      <trkpt lat="43.0777014093875" lon="-5.07729006931659">
        <ele>1365.02535629272</ele>
        <time>2018-08-28T08:27:19Z</time>
      </trkpt>
      <trkpt lat="43.0777566880389" lon="-5.07725503296133">
        <ele>1364.75008773804</ele>
        <time>2018-08-28T08:27:21Z</time>
      </trkpt>
      <trkpt lat="43.0778213125123" lon="-5.07721706293996">
        <ele>1364.02267074585</ele>
        <time>2018-08-28T08:27:23Z</time>
      </trkpt>
      <trkpt lat="43.0778911756753" lon="-5.07718630135532">
        <ele>1364.70003890991</ele>
        <time>2018-08-28T08:27:25Z</time>
      </trkpt>
      <trkpt lat="43.0779512320115" lon="-5.07716123946484">
        <ele>1365.01522445679</ele>
        <time>2018-08-28T08:27:27Z</time>
      </trkpt>
      <trkpt lat="43.0779968295648" lon="-5.07714254782077">
        <ele>1365.36092758179</ele>
        <time>2018-08-28T08:27:29Z</time>
      </trkpt>
      <trkpt lat="43.0780482944502" lon="-5.07712310180541">
        <ele>1364.72542953491</ele>
        <time>2018-08-28T08:27:31Z</time>
      </trkpt>
      <trkpt lat="43.0781135056569" lon="-5.07710482925649">
        <ele>1364.21725082397</ele>
        <time>2018-08-28T08:27:33Z</time>
      </trkpt>
      <trkpt lat="43.0781894456996" lon="-5.07708655670758">
        <ele>1364.85897445679</ele>
        <time>2018-08-28T08:27:35Z</time>
      </trkpt>
      <trkpt lat="43.0782556627347" lon="-5.07707230747219">
        <ele>1365.20370101929</ele>
        <time>2018-08-28T08:27:37Z</time>
      </trkpt>
      <trkpt lat="43.07832531635" lon="-5.07703928277369">
        <ele>1364.70113754272</ele>
        <time>2018-08-28T08:27:39Z</time>
      </trkpt>
      <trkpt lat="43.0783905694662" lon="-5.07698639296468">
        <ele>1363.56698226929</ele>
        <time>2018-08-28T08:27:41Z</time>
      </trkpt>
      <trkpt lat="43.0784483207791" lon="-5.07694515400108">
        <ele>1364.33504867554</ele>
        <time>2018-08-28T08:27:43Z</time>
      </trkpt>
      <trkpt lat="43.0785069521918" lon="-5.07691472769256">
        <ele>1363.19527816772</ele>
        <time>2018-08-28T08:27:46Z</time>
      </trkpt>
      <trkpt lat="43.0785649968712" lon="-5.07689226419206">
        <ele>1363.24142074585</ele>
        <time>2018-08-28T08:27:49Z</time>
      </trkpt>
      <trkpt lat="43.0786206107988" lon="-5.07687089033898">
        <ele>1363.9811668396</ele>
        <time>2018-08-28T08:27:52Z</time>
      </trkpt>
      <trkpt lat="43.078679451759" lon="-5.07685303688522">
        <ele>1365.59103012085</ele>
        <time>2018-08-28T08:27:55Z</time>
      </trkpt>
      <trkpt lat="43.0787248816742" lon="-5.07683878764983">
        <ele>1365.85934066772</ele>
        <time>2018-08-28T08:27:57Z</time>
      </trkpt>
      <trkpt lat="43.0787771428405" lon="-5.07682395168122">
        <ele>1366.24837875366</ele>
        <time>2018-08-28T08:27:59Z</time>
      </trkpt>
      <trkpt lat="43.078828607726" lon="-5.07680157199975">
        <ele>1365.59261703491</ele>
        <time>2018-08-28T08:28:01Z</time>
      </trkpt>
      <trkpt lat="43.0788840540155" lon="-5.07677257061477">
        <ele>1365.8727684021</ele>
        <time>2018-08-28T08:28:03Z</time>
      </trkpt>
      <trkpt lat="43.0789332976966" lon="-5.076752034952">
        <ele>1367.35799789429</ele>
        <time>2018-08-28T08:28:05Z</time>
      </trkpt>
      <trkpt lat="43.0789806554495" lon="-5.07673334330793">
        <ele>1367.61141586304</ele>
        <time>2018-08-28T08:28:07Z</time>
      </trkpt>
      <trkpt lat="43.0790453218325" lon="-5.07669629529591">
        <ele>1368.03829574585</ele>
        <time>2018-08-28T08:28:10Z</time>
      </trkpt>
      <trkpt lat="43.0790985050081" lon="-5.07666360587354">
        <ele>1367.81856918335</ele>
        <time>2018-08-28T08:28:12Z</time>
      </trkpt>
      <trkpt lat="43.079145778942" lon="-5.07663711905952">
        <ele>1368.47677230835</ele>
        <time>2018-08-28T08:28:14Z</time>
      </trkpt>
      <trkpt lat="43.0791977467417" lon="-5.07660870440777">
        <ele>1368.4860496521</ele>
        <time>2018-08-28T08:28:16Z</time>
      </trkpt>
      <trkpt lat="43.0792444758518" lon="-5.07658548653599">
        <ele>1370.04525375366</ele>
        <time>2018-08-28T08:28:18Z</time>
      </trkpt>
      <trkpt lat="43.0792864691867" lon="-5.07656327449258">
        <ele>1370.05123519897</ele>
        <time>2018-08-28T08:28:20Z</time>
      </trkpt>
      <trkpt lat="43.0793352937727" lon="-5.07653460838373">
        <ele>1370.21871566772</ele>
        <time>2018-08-28T08:28:23Z</time>
      </trkpt>
      <trkpt lat="43.0793919554381" lon="-5.07652128115769">
        <ele>1371.04696273804</ele>
        <time>2018-08-28T08:28:26Z</time>
      </trkpt>
      <trkpt lat="43.0794492038368" lon="-5.07651323453065">
        <ele>1371.88900375366</ele>
        <time>2018-08-28T08:28:28Z</time>
      </trkpt>
      <trkpt lat="43.0795166781573" lon="-5.07650686428424">
        <ele>1372.93734359741</ele>
        <time>2018-08-28T08:28:30Z</time>
      </trkpt>
      <trkpt lat="43.0795637844532" lon="-5.07650225423749">
        <ele>1372.1422996521</ele>
        <time>2018-08-28T08:28:33Z</time>
      </trkpt>
      <trkpt lat="43.0796131119533" lon="-5.07647233084317">
        <ele>1373.50130844116</ele>
        <time>2018-08-28T08:28:36Z</time>
      </trkpt>
      <trkpt lat="43.0796575779496" lon="-5.07644232362982">
        <ele>1374.57772445679</ele>
        <time>2018-08-28T08:28:39Z</time>
      </trkpt>
      <trkpt lat="43.0797136528819" lon="-5.07641089149292">
        <ele>1376.04525375366</ele>
        <time>2018-08-28T08:28:43Z</time>
      </trkpt>
      <trkpt lat="43.0797657045006" lon="-5.07640359923716">
        <ele>1376.8805809021</ele>
        <time>2018-08-28T08:28:46Z</time>
      </trkpt>
      <trkpt lat="43.0798158282815" lon="-5.07639178075369">
        <ele>1377.59664535522</ele>
        <time>2018-08-28T08:28:49Z</time>
      </trkpt>
      <trkpt lat="43.079864694777" lon="-5.07638230920311">
        <ele>1378.6003074646</ele>
        <time>2018-08-28T08:28:52Z</time>
      </trkpt>
      <trkpt lat="43.0799147766485" lon="-5.07637660950895">
        <ele>1380.99886703491</ele>
        <time>2018-08-28T08:28:55Z</time>
      </trkpt>
      <trkpt lat="43.079977054189" lon="-5.07636051625486">
        <ele>1382.46419906616</ele>
        <time>2018-08-28T08:28:59Z</time>
      </trkpt>
      <trkpt lat="43.0800293991743" lon="-5.07634190842982">
        <ele>1383.70858383179</ele>
        <time>2018-08-28T08:29:02Z</time>
      </trkpt>
      <trkpt lat="43.0800830852641" lon="-5.07632003166254">
        <ele>1384.04610824585</ele>
        <time>2018-08-28T08:29:05Z</time>
      </trkpt>
      <trkpt lat="43.0801428063242" lon="-5.07630259730395">
        <ele>1384.46212387085</ele>
        <time>2018-08-28T08:29:08Z</time>
      </trkpt>
      <trkpt lat="43.0802020244702" lon="-5.07629388012465">
        <ele>1384.85287094116</ele>
        <time>2018-08-28T08:29:11Z</time>
      </trkpt>
      <trkpt lat="43.0802635895489" lon="-5.07630008273299">
        <ele>1385.83138656616</ele>
        <time>2018-08-28T08:29:14Z</time>
      </trkpt>
      <trkpt lat="43.0803201673954" lon="-5.07630544715102">
        <ele>1385.21590805054</ele>
        <time>2018-08-28T08:29:17Z</time>
      </trkpt>
      <trkpt lat="43.0803757394134" lon="-5.07630678825553">
        <ele>1386.76559066772</ele>
        <time>2018-08-28T08:29:20Z</time>
      </trkpt>
      <trkpt lat="43.0804304732411" lon="-5.07629890926655">
        <ele>1387.28451156616</ele>
        <time>2018-08-28T08:29:23Z</time>
      </trkpt>
      <trkpt lat="43.0804759031563" lon="-5.07629119791563">
        <ele>1386.82833480835</ele>
        <time>2018-08-28T08:29:25Z</time>
      </trkpt>
      <trkpt lat="43.0805299664317" lon="-5.0762702431577">
        <ele>1386.52242660522</ele>
        <time>2018-08-28T08:29:27Z</time>
      </trkpt>
      <trkpt lat="43.0805717921286" lon="-5.07624291815336">
        <ele>1386.56087875366</ele>
        <time>2018-08-28T08:29:29Z</time>
      </trkpt>
      <trkpt lat="43.0806276994227" lon="-5.07620251738008">
        <ele>1385.71541976929</ele>
        <time>2018-08-28T08:29:32Z</time>
      </trkpt>
      <trkpt lat="43.0806737998902" lon="-5.07615482435103">
        <ele>1386.46004867554</ele>
        <time>2018-08-28T08:29:35Z</time>
      </trkpt>
      <trkpt lat="43.0807186430721" lon="-5.07609682158108">
        <ele>1386.82284164429</ele>
        <time>2018-08-28T08:29:38Z</time>
      </trkpt>
      <trkpt lat="43.0807546852558" lon="-5.07604736835237">
        <ele>1388.97396469116</ele>
        <time>2018-08-28T08:29:41Z</time>
      </trkpt>
      <trkpt lat="43.0807936611055" lon="-5.07601073943551">
        <ele>1390.86263656616</ele>
        <time>2018-08-28T08:29:44Z</time>
      </trkpt>
      <trkpt lat="43.0808442878007" lon="-5.07596882991965">
        <ele>1391.70846176147</ele>
        <time>2018-08-28T08:29:48Z</time>
      </trkpt>
      <trkpt lat="43.0808889633446" lon="-5.07591627538677">
        <ele>1392.79598617554</ele>
        <time>2018-08-28T08:29:51Z</time>
      </trkpt>
      <trkpt lat="43.0809332197933" lon="-5.07586900145288">
        <ele>1393.87545394897</ele>
        <time>2018-08-28T08:29:54Z</time>
      </trkpt>
      <trkpt lat="43.0809767637803" lon="-5.07582717575606">
        <ele>1396.2497215271</ele>
        <time>2018-08-28T08:29:57Z</time>
      </trkpt>
      <trkpt lat="43.0810166616394" lon="-5.07579666562851">
        <ele>1394.43319320679</ele>
        <time>2018-08-28T08:29:59Z</time>
      </trkpt>
      <trkpt lat="43.0810665339633" lon="-5.07577395067092">
        <ele>1392.76583480835</ele>
        <time>2018-08-28T08:30:01Z</time>
      </trkpt>
      <trkpt lat="43.0811259197472" lon="-5.07576741278644">
        <ele>1392.43270492554</ele>
        <time>2018-08-28T08:30:03Z</time>
      </trkpt>
      <trkpt lat="43.0811801506608" lon="-5.07577646524187">
        <ele>1392.42379379272</ele>
        <time>2018-08-28T08:30:05Z</time>
      </trkpt>
      <trkpt lat="43.0812474992527" lon="-5.07577059790965">
        <ele>1393.0719871521</ele>
        <time>2018-08-28T08:30:08Z</time>
      </trkpt>
      <trkpt lat="43.081298461224" lon="-5.07576045580681">
        <ele>1392.04439926147</ele>
        <time>2018-08-28T08:30:10Z</time>
      </trkpt>
      <trkpt lat="43.081363127607" lon="-5.075750397523">
        <ele>1390.35604476929</ele>
        <time>2018-08-28T08:30:12Z</time>
      </trkpt>
      <trkpt lat="43.0814367207168" lon="-5.07575307973202">
        <ele>1389.80697250366</ele>
        <time>2018-08-28T08:30:14Z</time>
      </trkpt>
      <trkpt lat="43.0815025186567" lon="-5.07577445358511">
        <ele>1390.67037582397</ele>
        <time>2018-08-28T08:30:16Z</time>
      </trkpt>
      <trkpt lat="43.0815470265626" lon="-5.07579850964721">
        <ele>1391.82455062866</ele>
        <time>2018-08-28T08:30:18Z</time>
      </trkpt>
      <trkpt lat="43.0816112319409" lon="-5.07582642138477">
        <ele>1391.84127426147</ele>
        <time>2018-08-28T08:30:21Z</time>
      </trkpt>
      <trkpt lat="43.0816606432601" lon="-5.07584268227692">
        <ele>1392.26900863647</ele>
        <time>2018-08-28T08:30:23Z</time>
      </trkpt>
      <trkpt lat="43.0817152513592" lon="-5.07585190237041">
        <ele>1391.81454086304</ele>
        <time>2018-08-28T08:30:25Z</time>
      </trkpt>
      <trkpt lat="43.0817840667843" lon="-5.07585374638911">
        <ele>1391.52987289429</ele>
        <time>2018-08-28T08:30:27Z</time>
      </trkpt>
      <trkpt lat="43.0818605097412" lon="-5.07585793734069">
        <ele>1391.23275375366</ele>
        <time>2018-08-28T08:30:29Z</time>
      </trkpt>
      <trkpt lat="43.0819356954126" lon="-5.07587336004253">
        <ele>1392.27816390991</ele>
        <time>2018-08-28T08:30:31Z</time>
      </trkpt>
      <trkpt lat="43.0820099590747" lon="-5.07588400505956">
        <ele>1392.96810531616</ele>
        <time>2018-08-28T08:30:33Z</time>
      </trkpt>
      <trkpt lat="43.0820664111926" lon="-5.07588475943084">
        <ele>1393.89107894897</ele>
        <time>2018-08-28T08:30:35Z</time>
      </trkpt>
      <trkpt lat="43.0821196781873" lon="-5.0758835859644">
        <ele>1394.36678695679</ele>
        <time>2018-08-28T08:30:37Z</time>
      </trkpt>
      <trkpt lat="43.0821770523145" lon="-5.07588048466023">
        <ele>1394.4567527771</ele>
        <time>2018-08-28T08:30:39Z</time>
      </trkpt>
      <trkpt lat="43.0822401680454" lon="-5.07586849853869">
        <ele>1393.96578598022</ele>
        <time>2018-08-28T08:30:41Z</time>
      </trkpt>
      <trkpt lat="43.0822977098106" lon="-5.07584494539078">
        <ele>1394.65340805054</ele>
        <time>2018-08-28T08:30:43Z</time>
      </trkpt>
      <trkpt lat="43.0823481688677" lon="-5.07581242360647">
        <ele>1394.36092758179</ele>
        <time>2018-08-28T08:30:45Z</time>
      </trkpt>
      <trkpt lat="43.0823973287298" lon="-5.07576389238711">
        <ele>1394.81686019897</ele>
        <time>2018-08-28T08:30:47Z</time>
      </trkpt>
      <trkpt lat="43.0824430939211" lon="-5.07572097704287">
        <ele>1396.11922836304</ele>
        <time>2018-08-28T08:30:49Z</time>
      </trkpt>
      <trkpt lat="43.0824940139829" lon="-5.07568149827893">
        <ele>1396.50936508179</ele>
        <time>2018-08-28T08:30:51Z</time>
      </trkpt>
      <trkpt lat="43.0825376417889" lon="-5.07564495318111">
        <ele>1396.14645004272</ele>
        <time>2018-08-28T08:30:53Z</time>
      </trkpt>
      <trkpt lat="43.0825754860817" lon="-5.07560882717844">
        <ele>1397.71383285522</ele>
        <time>2018-08-28T08:30:55Z</time>
      </trkpt>
      <trkpt lat="43.0826270766958" lon="-5.07557068951901">
        <ele>1398.72152328491</ele>
        <time>2018-08-28T08:30:58Z</time>
      </trkpt>
      <trkpt lat="43.0826862110226" lon="-5.07552433759447">
        <ele>1399.30990219116</ele>
        <time>2018-08-28T08:31:01Z</time>
      </trkpt>
      <trkpt lat="43.082728078629" lon="-5.07548837922986">
        <ele>1401.37191390991</ele>
        <time>2018-08-28T08:31:03Z</time>
      </trkpt>
      <trkpt lat="43.0827700300543" lon="-5.07545485161718">
        <ele>1401.87240219116</ele>
        <time>2018-08-28T08:31:05Z</time>
      </trkpt>
      <trkpt lat="43.0828108918323" lon="-5.07541830651935">
        <ele>1402.06209945679</ele>
        <time>2018-08-28T08:31:07Z</time>
      </trkpt>
      <trkpt lat="43.0828535138099" lon="-5.07538025267895">
        <ele>1402.79439926147</ele>
        <time>2018-08-28T08:31:09Z</time>
      </trkpt>
      <trkpt lat="43.0829008715628" lon="-5.07533725351568">
        <ele>1403.46578598022</ele>
        <time>2018-08-28T08:31:11Z</time>
      </trkpt>
      <trkpt lat="43.0829526717244" lon="-5.07528855465825">
        <ele>1403.73446273804</ele>
        <time>2018-08-28T08:31:13Z</time>
      </trkpt>
      <trkpt lat="43.0830138596176" lon="-5.07523859851535">
        <ele>1401.43893051147</ele>
        <time>2018-08-28T08:31:15Z</time>
      </trkpt>
      <trkpt lat="43.0830855667992" lon="-5.07520255633171">
        <ele>1402.33614730835</ele>
        <time>2018-08-28T08:31:17Z</time>
      </trkpt>
      <trkpt lat="43.0831511971011" lon="-5.07517414167996">
        <ele>1402.21395492554</ele>
        <time>2018-08-28T08:31:19Z</time>
      </trkpt>
      <trkpt lat="43.0832006503298" lon="-5.07514891215141">
        <ele>1404.13766098022</ele>
        <time>2018-08-28T08:31:21Z</time>
      </trkpt>
      <trkpt lat="43.0832451582356" lon="-5.07512594573672">
        <ele>1404.93001937866</ele>
        <time>2018-08-28T08:31:23Z</time>
      </trkpt>
      <trkpt lat="43.0832895823224" lon="-5.07510331459816">
        <ele>1405.68514633179</ele>
        <time>2018-08-28T08:31:25Z</time>
      </trkpt>
      <trkpt lat="43.0833366047992" lon="-5.07507313974674">
        <ele>1406.2516746521</ele>
        <time>2018-08-28T08:31:27Z</time>
      </trkpt>
      <trkpt lat="43.0833917158126" lon="-5.07503667846795">
        <ele>1406.80587387085</ele>
        <time>2018-08-28T08:31:30Z</time>
      </trkpt>
      <trkpt lat="43.0834495090349" lon="-5.07501698099549">
        <ele>1407.77083969116</ele>
        <time>2018-08-28T08:31:33Z</time>
      </trkpt>
      <trkpt lat="43.0835132534086" lon="-5.07497666404124">
        <ele>1407.73824691772</ele>
        <time>2018-08-28T08:31:36Z</time>
      </trkpt>
      <trkpt lat="43.0835577613144" lon="-5.07492268458481">
        <ele>1409.00912094116</ele>
        <time>2018-08-28T08:31:38Z</time>
      </trkpt>
      <trkpt lat="43.083589738275" lon="-5.07486082613941">
        <ele>1407.71200180054</ele>
        <time>2018-08-28T08:31:40Z</time>
      </trkpt>
      <trkpt lat="43.0836159736319" lon="-5.07479402237113">
        <ele>1407.03109359741</ele>
        <time>2018-08-28T08:31:42Z</time>
      </trkpt>
      <trkpt lat="43.0836408259748" lon="-5.07473736070569">
        <ele>1407.11727523804</ele>
        <time>2018-08-28T08:31:44Z</time>
      </trkpt>
      <trkpt lat="43.0836792989104" lon="-5.07466837764259">
        <ele>1409.71273422241</ele>
        <time>2018-08-28T08:31:47Z</time>
      </trkpt>
      <trkpt lat="43.0837137485324" lon="-5.07460878231104">
        <ele>1409.58626937866</ele>
        <time>2018-08-28T08:31:50Z</time>
      </trkpt>
      <trkpt lat="43.0837471923261" lon="-5.0745484326082">
        <ele>1410.40047836304</ele>
        <time>2018-08-28T08:31:53Z</time>
      </trkpt>
      <trkpt lat="43.0837763613491" lon="-5.07449420169468">
        <ele>1409.84981918335</ele>
        <time>2018-08-28T08:31:55Z</time>
      </trkpt>
      <trkpt lat="43.0838134512707" lon="-5.07444189861889">
        <ele>1409.64352035522</ele>
        <time>2018-08-28T08:31:57Z</time>
      </trkpt>
      <trkpt lat="43.0838546064152" lon="-5.07440401241656">
        <ele>1408.2282371521</ele>
        <time>2018-08-28T08:31:59Z</time>
      </trkpt>
      <trkpt lat="43.0839021737157" lon="-5.07437190972741">
        <ele>1407.85885238647</ele>
        <time>2018-08-28T08:32:01Z</time>
      </trkpt>
      <trkpt lat="43.0839459272503" lon="-5.07434282452341">
        <ele>1408.83980941772</ele>
        <time>2018-08-28T08:32:03Z</time>
      </trkpt>
      <trkpt lat="43.0840031337394" lon="-5.07431549951907">
        <ele>1411.37044906616</ele>
        <time>2018-08-28T08:32:06Z</time>
      </trkpt>
      <trkpt lat="43.0840594601287" lon="-5.07428683341022">
        <ele>1412.75912094116</ele>
        <time>2018-08-28T08:32:09Z</time>
      </trkpt>
      <trkpt lat="43.0841089133574" lon="-5.07425984368201">
        <ele>1413.66292953491</ele>
        <time>2018-08-28T08:32:11Z</time>
      </trkpt>
      <trkpt lat="43.0841561872913" lon="-5.07423318922992">
        <ele>1413.41427230835</ele>
        <time>2018-08-28T08:32:13Z</time>
      </trkpt>
      <trkpt lat="43.0842089094623" lon="-5.07420678623493">
        <ele>1412.49007797241</ele>
        <time>2018-08-28T08:32:15Z</time>
      </trkpt>
      <trkpt lat="43.0842603324382" lon="-5.07418323308702">
        <ele>1413.44161605835</ele>
        <time>2018-08-28T08:32:17Z</time>
      </trkpt>
      <trkpt lat="43.0843123840569" lon="-5.07416504435714">
        <ele>1413.42501449585</ele>
        <time>2018-08-28T08:32:19Z</time>
      </trkpt>
      <trkpt lat="43.0843674531608" lon="-5.07415171713109">
        <ele>1413.5212059021</ele>
        <time>2018-08-28T08:32:21Z</time>
      </trkpt>
      <trkpt lat="43.0844177864893" lon="-5.07413822226699">
        <ele>1413.13302230835</ele>
        <time>2018-08-28T08:32:23Z</time>
      </trkpt>
      <trkpt lat="43.084464641328" lon="-5.07412154227968">
        <ele>1414.64596176147</ele>
        <time>2018-08-28T08:32:25Z</time>
      </trkpt>
      <trkpt lat="43.0845083529531" lon="-5.07410452701624">
        <ele>1414.19063949585</ele>
        <time>2018-08-28T08:32:27Z</time>
      </trkpt>
      <trkpt lat="43.0845528189494" lon="-5.07409337908502">
        <ele>1413.9909324646</ele>
        <time>2018-08-28T08:32:29Z</time>
      </trkpt>
      <trkpt lat="43.0846160184993" lon="-5.0740803871351">
        <ele>1415.4460105896</ele>
        <time>2018-08-28T08:32:32Z</time>
      </trkpt>
      <trkpt lat="43.0846721353411" lon="-5.07406488061424">
        <ele>1417.10213851929</ele>
        <time>2018-08-28T08:32:35Z</time>
      </trkpt>
      <trkpt lat="43.0847352510719" lon="-5.07404342294212">
        <ele>1417.54818344116</ele>
        <time>2018-08-28T08:32:38Z</time>
      </trkpt>
      <trkpt lat="43.0847816868155" lon="-5.07403059863027">
        <ele>1418.06820297241</ele>
        <time>2018-08-28T08:32:40Z</time>
      </trkpt>
      <trkpt lat="43.0848272424592" lon="-5.07401928306098">
        <ele>1418.11642074585</ele>
        <time>2018-08-28T08:32:42Z</time>
      </trkpt>
      <trkpt lat="43.0848789588018" lon="-5.07400712930139">
        <ele>1416.97689437866</ele>
        <time>2018-08-28T08:32:44Z</time>
      </trkpt>
      <trkpt lat="43.0849273223831" lon="-5.07399514317985">
        <ele>1417.07442855835</ele>
        <time>2018-08-28T08:32:46Z</time>
      </trkpt>
      <trkpt lat="43.0849722074746" lon="-5.07398005575414">
        <ele>1417.77523422241</ele>
        <time>2018-08-28T08:32:48Z</time>
      </trkpt>
      <trkpt lat="43.0850241752743" lon="-5.07396161556716">
        <ele>1417.77010726929</ele>
        <time>2018-08-28T08:32:50Z</time>
      </trkpt>
      <trkpt lat="43.0850724550365" lon="-5.07393596694346">
        <ele>1418.34225082397</ele>
        <time>2018-08-28T08:32:52Z</time>
      </trkpt>
      <trkpt lat="43.0851324694632" lon="-5.07390663028236">
        <ele>1419.03121566772</ele>
        <time>2018-08-28T08:32:55Z</time>
      </trkpt>
      <trkpt lat="43.0851928610756" lon="-5.07390017621692">
        <ele>1419.69527816772</ele>
        <time>2018-08-28T08:32:58Z</time>
      </trkpt>
      <trkpt lat="43.0852532107784" lon="-5.07388508879121">
        <ele>1421.72176742554</ele>
        <time>2018-08-28T08:33:01Z</time>
      </trkpt>
      <trkpt lat="43.0853056395828" lon="-5.07386488840456">
        <ele>1420.96151351929</ele>
        <time>2018-08-28T08:33:04Z</time>
      </trkpt>
      <trkpt lat="43.0853609601437" lon="-5.07383655757184">
        <ele>1420.85372543335</ele>
        <time>2018-08-28T08:33:07Z</time>
      </trkpt>
      <trkpt lat="43.0854087369918" lon="-5.0738076400059">
        <ele>1423.62984848022</ele>
        <time>2018-08-28T08:33:10Z</time>
      </trkpt>
      <trkpt lat="43.0854617944388" lon="-5.07378282957252">
        <ele>1424.73373031616</ele>
        <time>2018-08-28T08:33:13Z</time>
      </trkpt>
      <trkpt lat="43.0855169473617" lon="-5.07375634275849">
        <ele>1427.31393051147</ele>
        <time>2018-08-28T08:33:16Z</time>
      </trkpt>
      <trkpt lat="43.0855620000913" lon="-5.07371141575749">
        <ele>1427.88290023804</ele>
        <time>2018-08-28T08:33:19Z</time>
      </trkpt>
      <trkpt lat="43.0856069690018" lon="-5.07365534082528">
        <ele>1429.11654281616</ele>
        <time>2018-08-28T08:33:22Z</time>
      </trkpt>
      <trkpt lat="43.0856446875661" lon="-5.07360639051075">
        <ele>1430.37057113647</ele>
        <time>2018-08-28T08:33:25Z</time>
      </trkpt>
      <trkpt lat="43.0856889859243" lon="-5.07354511879857">
        <ele>1430.63863754272</ele>
        <time>2018-08-28T08:33:28Z</time>
      </trkpt>
      <trkpt lat="43.0857267883076" lon="-5.07350681350108">
        <ele>1429.92501449585</ele>
        <time>2018-08-28T08:33:30Z</time>
      </trkpt>
      <trkpt lat="43.0857657641574" lon="-5.0734690949368">
        <ele>1429.48531723022</ele>
        <time>2018-08-28T08:33:32Z</time>
      </trkpt>
      <trkpt lat="43.0858108168869" lon="-5.07342265919323">
        <ele>1428.97115707397</ele>
        <time>2018-08-28T08:33:34Z</time>
      </trkpt>
      <trkpt lat="43.0858534807741" lon="-5.07338644937153">
        <ele>1428.98275375366</ele>
        <time>2018-08-28T08:33:36Z</time>
      </trkpt>
      <trkpt lat="43.0858927918999" lon="-5.07335652597721">
        <ele>1430.0661277771</ele>
        <time>2018-08-28T08:33:38Z</time>
      </trkpt>
      <trkpt lat="43.0859323544829" lon="-5.07332442328806">
        <ele>1430.79281234741</ele>
        <time>2018-08-28T08:33:40Z</time>
      </trkpt>
      <trkpt lat="43.0859886389627" lon="-5.07327488624032">
        <ele>1431.18966293335</ele>
        <time>2018-08-28T08:33:43Z</time>
      </trkpt>
      <trkpt lat="43.0860314285784" lon="-5.07324429229374">
        <ele>1431.91219711304</ele>
        <time>2018-08-28T08:33:45Z</time>
      </trkpt>
      <trkpt lat="43.0860767746745" lon="-5.07321889512713">
        <ele>1433.21029281616</ele>
        <time>2018-08-28T08:33:47Z</time>
      </trkpt>
      <trkpt lat="43.0861212406709" lon="-5.07319592871244">
        <ele>1435.07223129272</ele>
        <time>2018-08-28T08:33:49Z</time>
      </trkpt>
      <trkpt lat="43.086167718324" lon="-5.07316650823231">
        <ele>1436.05819320679</ele>
        <time>2018-08-28T08:33:51Z</time>
      </trkpt>
      <trkpt lat="43.0862103403016" lon="-5.07313532755251">
        <ele>1436.84957504272</ele>
        <time>2018-08-28T08:33:53Z</time>
      </trkpt>
      <trkpt lat="43.0862565245881" lon="-5.07310951129074">
        <ele>1437.54232406616</ele>
        <time>2018-08-28T08:33:55Z</time>
      </trkpt>
      <trkpt lat="43.0863016611366" lon="-5.07308704779024">
        <ele>1438.36043930054</ele>
        <time>2018-08-28T08:33:57Z</time>
      </trkpt>
      <trkpt lat="43.0863473005994" lon="-5.07305980660494">
        <ele>1438.03792953491</ele>
        <time>2018-08-28T08:33:59Z</time>
      </trkpt>
      <trkpt lat="43.0864000227704" lon="-5.07302644663031">
        <ele>1438.69649887085</ele>
        <time>2018-08-28T08:34:01Z</time>
      </trkpt>
      <trkpt lat="43.0864581093593" lon="-5.07298219018157">
        <ele>1439.3337059021</ele>
        <time>2018-08-28T08:34:03Z</time>
      </trkpt>
      <trkpt lat="43.0865117535396" lon="-5.07293634117122">
        <ele>1439.55721664429</ele>
        <time>2018-08-28T08:34:05Z</time>
      </trkpt>
      <trkpt lat="43.0865609553112" lon="-5.07288957015152">
        <ele>1439.7839012146</ele>
        <time>2018-08-28T08:34:07Z</time>
      </trkpt>
      <trkpt lat="43.0866120849206" lon="-5.07284531370278">
        <ele>1438.9821434021</ele>
        <time>2018-08-28T08:34:09Z</time>
      </trkpt>
      <trkpt lat="43.0866688723146" lon="-5.07281228900428">
        <ele>1438.22311019897</ele>
        <time>2018-08-28T08:34:11Z</time>
      </trkpt>
      <trkpt lat="43.086724150966" lon="-5.07278110832448">
        <ele>1437.89803695679</ele>
        <time>2018-08-28T08:34:13Z</time>
      </trkpt>
      <trkpt lat="43.0867780885129" lon="-5.07274338976021">
        <ele>1438.1549949646</ele>
        <time>2018-08-28T08:34:15Z</time>
      </trkpt>
      <trkpt lat="43.0868241051613" lon="-5.07269645110245">
        <ele>1437.31820297241</ele>
        <time>2018-08-28T08:34:17Z</time>
      </trkpt>
      <trkpt lat="43.0868652603059" lon="-5.07265890017624">
        <ele>1436.88387680054</ele>
        <time>2018-08-28T08:34:19Z</time>
      </trkpt>
      <trkpt lat="43.0869086785643" lon="-5.07263761014219">
        <ele>1437.29427719116</ele>
        <time>2018-08-28T08:34:21Z</time>
      </trkpt>
      <trkpt lat="43.086957964155" lon="-5.07260953076656">
        <ele>1437.56100082397</ele>
        <time>2018-08-28T08:34:23Z</time>
      </trkpt>
      <trkpt lat="43.0870031007035" lon="-5.07257164456423">
        <ele>1438.49398422241</ele>
        <time>2018-08-28T08:34:25Z</time>
      </trkpt>
      <trkpt lat="43.0870456388621" lon="-5.07252370007809">
        <ele>1435.75155258179</ele>
        <time>2018-08-28T08:34:27Z</time>
      </trkpt>
      <trkpt lat="43.0870805494889" lon="-5.07247759961064">
        <ele>1435.79647445679</ele>
        <time>2018-08-28T08:34:29Z</time>
      </trkpt>
      <trkpt lat="43.087135073769" lon="-5.07242915221031">
        <ele>1438.28719711304</ele>
        <time>2018-08-28T08:34:32Z</time>
      </trkpt>
      <trkpt lat="43.0871833116217" lon="-5.07237651385839">
        <ele>1440.32149887085</ele>
        <time>2018-08-28T08:34:35Z</time>
      </trkpt>
      <trkpt lat="43.0872173002391" lon="-5.07232957520063">
        <ele>1440.56466293335</ele>
        <time>2018-08-28T08:34:37Z</time>
      </trkpt>
      <trkpt lat="43.0872483132808" lon="-5.07228028960998">
        <ele>1440.3317527771</ele>
        <time>2018-08-28T08:34:39Z</time>
      </trkpt>
      <trkpt lat="43.0872802064224" lon="-5.07223519497092">
        <ele>1440.47494125366</ele>
        <time>2018-08-28T08:34:41Z</time>
      </trkpt>
      <trkpt lat="43.087338586378" lon="-5.07220661268111">
        <ele>1441.36861801147</ele>
        <time>2018-08-28T08:34:44Z</time>
      </trkpt>
      <trkpt lat="43.0873850221216" lon="-5.07220594212885">
        <ele>1441.66268539429</ele>
        <time>2018-08-28T08:34:46Z</time>
      </trkpt>
      <trkpt lat="43.087440468411" lon="-5.0722121447372">
        <ele>1440.15926742554</ele>
        <time>2018-08-28T08:34:48Z</time>
      </trkpt>
      <trkpt lat="43.0874927714868" lon="-5.07220384665306">
        <ele>1439.56771469116</ele>
        <time>2018-08-28T08:34:50Z</time>
      </trkpt>
      <trkpt lat="43.0875524925469" lon="-5.07218582556124">
        <ele>1440.29793930054</ele>
        <time>2018-08-28T08:34:52Z</time>
      </trkpt>
      <trkpt lat="43.0876126746117" lon="-5.07217610255356">
        <ele>1440.19283676147</ele>
        <time>2018-08-28T08:34:54Z</time>
      </trkpt>
      <trkpt lat="43.0876574339746" lon="-5.07216855884071">
        <ele>1441.7868309021</ele>
        <time>2018-08-28T08:34:56Z</time>
      </trkpt>
      <trkpt lat="43.087707264389" lon="-5.07212840952451">
        <ele>1444.96505355835</ele>
        <time>2018-08-28T08:34:59Z</time>
      </trkpt>
      <trkpt lat="43.0877421331062" lon="-5.07206914946909">
        <ele>1447.04940414429</ele>
        <time>2018-08-28T08:35:02Z</time>
      </trkpt>
      <trkpt lat="43.0877712602197" lon="-5.07200326771016">
        <ele>1448.74044418335</ele>
        <time>2018-08-28T08:35:05Z</time>
      </trkpt>
      <trkpt lat="43.0878067575796" lon="-5.07192598656292">
        <ele>1448.49520492554</ele>
        <time>2018-08-28T08:35:08Z</time>
      </trkpt>
      <trkpt lat="43.0878432607679" lon="-5.0718596018898">
        <ele>1451.43294906616</ele>
        <time>2018-08-28T08:35:11Z</time>
      </trkpt>
      <trkpt lat="43.0879073404177" lon="-5.07181920111652">
        <ele>1450.31051254272</ele>
        <time>2018-08-28T08:35:14Z</time>
      </trkpt>
      <trkpt lat="43.0879632477118" lon="-5.07180377841468">
        <ele>1450.53011703491</ele>
        <time>2018-08-28T08:35:16Z</time>
      </trkpt>
      <trkpt lat="43.0880233040481" lon="-5.07177921943839">
        <ele>1448.97970199585</ele>
        <time>2018-08-28T08:35:18Z</time>
      </trkpt>
      <trkpt lat="43.0880779121472" lon="-5.0717525649863">
        <ele>1448.59725570679</ele>
        <time>2018-08-28T08:35:20Z</time>
      </trkpt>
      <trkpt lat="43.0881353700935" lon="-5.07173068821903">
        <ele>1448.01314926147</ele>
        <time>2018-08-28T08:35:22Z</time>
      </trkpt>
      <trkpt lat="43.0881940853252" lon="-5.07170654833789">
        <ele>1448.19247055054</ele>
        <time>2018-08-28T08:35:24Z</time>
      </trkpt>
      <trkpt lat="43.0882446701108" lon="-5.07168374956126">
        <ele>1448.60177230835</ele>
        <time>2018-08-28T08:35:26Z</time>
      </trkpt>
      <trkpt lat="43.0882910220354" lon="-5.07166388445075">
        <ele>1449.86959457397</ele>
        <time>2018-08-28T08:35:28Z</time>
      </trkpt>
      <trkpt lat="43.0883387988834" lon="-5.07164225914057">
        <ele>1450.00728988647</ele>
        <time>2018-08-28T08:35:30Z</time>
      </trkpt>
      <trkpt lat="43.0883840192511" lon="-5.0716230645823">
        <ele>1450.39608383179</ele>
        <time>2018-08-28T08:35:32Z</time>
      </trkpt>
      <trkpt lat="43.0884440755873" lon="-5.07158559747513">
        <ele>1450.67916488647</ele>
        <time>2018-08-28T08:35:35Z</time>
      </trkpt>
      <trkpt lat="43.0885019526287" lon="-5.07154787891085">
        <ele>1451.68502426147</ele>
        <time>2018-08-28T08:35:38Z</time>
      </trkpt>
      <trkpt lat="43.0885563930898" lon="-5.07150890306111">
        <ele>1452.3805809021</ele>
        <time>2018-08-28T08:35:41Z</time>
      </trkpt>
      <trkpt lat="43.0886053014948" lon="-5.07147026248749">
        <ele>1454.26705551147</ele>
        <time>2018-08-28T08:35:44Z</time>
      </trkpt>
      <trkpt lat="43.0886622984364" lon="-5.07143246010418">
        <ele>1452.57076644897</ele>
        <time>2018-08-28T08:35:47Z</time>
      </trkpt>
      <trkpt lat="43.0887102429225" lon="-5.07139407098766">
        <ele>1452.33260726929</ele>
        <time>2018-08-28T08:35:50Z</time>
      </trkpt>
      <trkpt lat="43.0887689162447" lon="-5.07136004046078">
        <ele>1451.62545394897</ele>
        <time>2018-08-28T08:35:53Z</time>
      </trkpt>
      <trkpt lat="43.0888255360006" lon="-5.07132223807748">
        <ele>1452.92171859741</ele>
        <time>2018-08-28T08:35:56Z</time>
      </trkpt>
      <trkpt lat="43.0888719717442" lon="-5.07128418423708">
        <ele>1454.33480453491</ele>
        <time>2018-08-28T08:35:59Z</time>
      </trkpt>
      <trkpt lat="43.0889238976343" lon="-5.0712504051673">
        <ele>1454.2672996521</ele>
        <time>2018-08-28T08:36:02Z</time>
      </trkpt>
      <trkpt lat="43.088970501016" lon="-5.07121603936429">
        <ele>1455.89986801147</ele>
        <time>2018-08-28T08:36:05Z</time>
      </trkpt>
      <trkpt lat="43.0890317308186" lon="-5.07119173184509">
        <ele>1456.24801254272</ele>
        <time>2018-08-28T08:36:08Z</time>
      </trkpt>
      <trkpt lat="43.0890775379195" lon="-5.07118209265645">
        <ele>1455.4049949646</ele>
        <time>2018-08-28T08:36:10Z</time>
      </trkpt>
      <trkpt lat="43.0891349539562" lon="-5.07118251175161">
        <ele>1455.29244613647</ele>
        <time>2018-08-28T08:36:13Z</time>
      </trkpt>
      <trkpt lat="43.0891849100991" lon="-5.07118091919">
        <ele>1456.04134750366</ele>
        <time>2018-08-28T08:36:16Z</time>
      </trkpt>
      <trkpt lat="43.0892466847255" lon="-5.07114730775829">
        <ele>1457.0934715271</ele>
        <time>2018-08-28T08:36:19Z</time>
      </trkpt>
      <trkpt lat="43.0893069925188" lon="-5.07112191059168">
        <ele>1458.6012840271</ele>
        <time>2018-08-28T08:36:22Z</time>
      </trkpt>
      <trkpt lat="43.0893626064463" lon="-5.07109492086346">
        <ele>1459.58431625366</ele>
        <time>2018-08-28T08:36:25Z</time>
      </trkpt>
      <trkpt lat="43.0894156219839" lon="-5.0710686016875">
        <ele>1460.51168441772</ele>
        <time>2018-08-28T08:36:28Z</time>
      </trkpt>
      <trkpt lat="43.0894657457649" lon="-5.07103566080804">
        <ele>1462.16439437866</ele>
        <time>2018-08-28T08:36:31Z</time>
      </trkpt>
      <trkpt lat="43.0895061046286" lon="-5.07100112736697">
        <ele>1462.9294090271</ele>
        <time>2018-08-28T08:36:34Z</time>
      </trkpt>
      <trkpt lat="43.0895593716233" lon="-5.07097707130487">
        <ele>1464.04061508179</ele>
        <time>2018-08-28T08:36:37Z</time>
      </trkpt>
      <trkpt lat="43.0896172486647" lon="-5.07094915956731">
        <ele>1465.33419418335</ele>
        <time>2018-08-28T08:36:40Z</time>
      </trkpt>
      <trkpt lat="43.0896739103301" lon="-5.07090322673793">
        <ele>1466.71798324585</ele>
        <time>2018-08-28T08:36:43Z</time>
      </trkpt>
      <trkpt lat="43.0897208908974" lon="-5.07085813209887">
        <ele>1468.01620101929</ele>
        <time>2018-08-28T08:36:46Z</time>
      </trkpt>
      <trkpt lat="43.0897710146784" lon="-5.07081060670788">
        <ele>1467.64156723022</ele>
        <time>2018-08-28T08:36:49Z</time>
      </trkpt>
      <trkpt lat="43.0898345075949" lon="-5.07080188952859">
        <ele>1467.67232894897</ele>
        <time>2018-08-28T08:36:52Z</time>
      </trkpt>
      <trkpt lat="43.0899016466393" lon="-5.07079350762541">
        <ele>1466.27535629272</ele>
        <time>2018-08-28T08:36:55Z</time>
      </trkpt>
      <trkpt lat="43.0899535725295" lon="-5.07076450624044">
        <ele>1466.9098777771</ele>
        <time>2018-08-28T08:36:58Z</time>
      </trkpt>
      <trkpt lat="43.0900049955054" lon="-5.07073240355129">
        <ele>1469.10091781616</ele>
        <time>2018-08-28T08:37:01Z</time>
      </trkpt>
      <trkpt lat="43.0900531495391" lon="-5.07069820538635">
        <ele>1470.77767562866</ele>
        <time>2018-08-28T08:37:04Z</time>
      </trkpt>
      <trkpt lat="43.0901033990486" lon="-5.0706666056114">
        <ele>1471.56490707397</ele>
        <time>2018-08-28T08:37:07Z</time>
      </trkpt>
      <trkpt lat="43.0901521398156" lon="-5.07063609548385">
        <ele>1472.84090805054</ele>
        <time>2018-08-28T08:37:10Z</time>
      </trkpt>
      <trkpt lat="43.0901989946543" lon="-5.07059628144379">
        <ele>1474.34029769897</ele>
        <time>2018-08-28T08:37:13Z</time>
      </trkpt>
      <trkpt lat="43.0902422871842" lon="-5.07056099363144">
        <ele>1475.43172836304</ele>
        <time>2018-08-28T08:37:16Z</time>
      </trkpt>
      <trkpt lat="43.0902971467405" lon="-5.07052402943845">
        <ele>1475.56661605835</ele>
        <time>2018-08-28T08:37:19Z</time>
      </trkpt>
      <trkpt lat="43.0903388467087" lon="-5.07047558203812">
        <ele>1476.4762840271</ele>
        <time>2018-08-28T08:37:22Z</time>
      </trkpt>
      <trkpt lat="43.0903768586396" lon="-5.07042470388587">
        <ele>1477.52401351929</ele>
        <time>2018-08-28T08:37:25Z</time>
      </trkpt>
      <trkpt lat="43.0904128170042" lon="-5.07037332281942">
        <ele>1478.70760726929</ele>
        <time>2018-08-28T08:37:28Z</time>
      </trkpt>
      <trkpt lat="43.0904577440052" lon="-5.07032445632393">
        <ele>1479.7223777771</ele>
        <time>2018-08-28T08:37:31Z</time>
      </trkpt>
      <trkpt lat="43.0905035930156" lon="-5.07030090317602">
        <ele>1479.45760726929</ele>
        <time>2018-08-28T08:37:33Z</time>
      </trkpt>
      <trkpt lat="43.0905568181007" lon="-5.07029403001542">
        <ele>1479.87606430054</ele>
        <time>2018-08-28T08:37:35Z</time>
      </trkpt>
      <trkpt lat="43.0906071514293" lon="-5.07029495202477">
        <ele>1479.82821273804</ele>
        <time>2018-08-28T08:37:37Z</time>
      </trkpt>
      <trkpt lat="43.0906525394349" lon="-5.07028430700774">
        <ele>1480.1784324646</ele>
        <time>2018-08-28T08:37:39Z</time>
      </trkpt>
      <trkpt lat="43.0906988913595" lon="-5.07026477717335">
        <ele>1480.74325180054</ele>
        <time>2018-08-28T08:37:41Z</time>
      </trkpt>
      <trkpt lat="43.090746626298" lon="-5.07022663951392">
        <ele>1480.4176902771</ele>
        <time>2018-08-28T08:37:44Z</time>
      </trkpt>
      <trkpt lat="43.0907931458606" lon="-5.07018908858771">
        <ele>1481.28731918335</ele>
        <time>2018-08-28T08:37:48Z</time>
      </trkpt>
      <trkpt lat="43.0908476282312" lon="-5.07015371695633">
        <ele>1480.77254867554</ele>
        <time>2018-08-28T08:37:52Z</time>
      </trkpt>
      <trkpt lat="43.0909027811541" lon="-5.07012153044815">
        <ele>1480.33797836304</ele>
        <time>2018-08-28T08:37:55Z</time>
      </trkpt>
      <trkpt lat="43.0909480015217" lon="-5.07009579800541">
        <ele>1479.71517562866</ele>
        <time>2018-08-28T08:37:57Z</time>
      </trkpt>
      <trkpt lat="43.0909925094276" lon="-5.07007107139106">
        <ele>1479.93453598022</ele>
        <time>2018-08-28T08:37:59Z</time>
      </trkpt>
      <trkpt lat="43.0910350056766" lon="-5.07004165091093">
        <ele>1479.82503890991</ele>
        <time>2018-08-28T08:38:01Z</time>
      </trkpt>
      <trkpt lat="43.0910867220192" lon="-5.07000024430926">
        <ele>1481.56844711304</ele>
        <time>2018-08-28T08:38:04Z</time>
      </trkpt>
      <trkpt lat="43.0911277933448" lon="-5.06996973418171">
        <ele>1481.5436668396</ele>
        <time>2018-08-28T08:38:06Z</time>
      </trkpt>
      <trkpt lat="43.0911685713037" lon="-5.06994073279674">
        <ele>1482.02401351929</ele>
        <time>2018-08-28T08:38:08Z</time>
      </trkpt>
      <trkpt lat="43.0912240595027" lon="-5.06990158930893">
        <ele>1484.31722640991</ele>
        <time>2018-08-28T08:38:11Z</time>
      </trkpt>
      <trkpt lat="43.0912704952462" lon="-5.06985481828923">
        <ele>1486.15511703491</ele>
        <time>2018-08-28T08:38:14Z</time>
      </trkpt>
      <trkpt lat="43.0913205352082" lon="-5.06979924627121">
        <ele>1486.31783676147</ele>
        <time>2018-08-28T08:38:17Z</time>
      </trkpt>
      <trkpt lat="43.0913603911578" lon="-5.06976890378172">
        <ele>1486.8131980896</ele>
        <time>2018-08-28T08:38:19Z</time>
      </trkpt>
      <trkpt lat="43.0914071202679" lon="-5.06974291988189">
        <ele>1486.32149887085</ele>
        <time>2018-08-28T08:38:21Z</time>
      </trkpt>
      <trkpt lat="43.0914659612282" lon="-5.06970075890894">
        <ele>1485.97713851929</ele>
        <time>2018-08-28T08:38:24Z</time>
      </trkpt>
      <trkpt lat="43.0915206112369" lon="-5.06965574808891">
        <ele>1485.33724594116</ele>
        <time>2018-08-28T08:38:27Z</time>
      </trkpt>
      <trkpt lat="43.0915700225561" lon="-5.06959866732831">
        <ele>1486.20248031616</ele>
        <time>2018-08-28T08:38:30Z</time>
      </trkpt>
      <trkpt lat="43.0916007841407" lon="-5.0695526506799">
        <ele>1486.37716293335</ele>
        <time>2018-08-28T08:38:32Z</time>
      </trkpt>
      <trkpt lat="43.0916431127517" lon="-5.06949867122347">
        <ele>1486.42330551147</ele>
        <time>2018-08-28T08:38:35Z</time>
      </trkpt>
      <trkpt lat="43.0916777719214" lon="-5.06943890825386">
        <ele>1487.50509262085</ele>
        <time>2018-08-28T08:38:38Z</time>
      </trkpt>
      <trkpt lat="43.0917070666729" lon="-5.0693848449784">
        <ele>1486.9870262146</ele>
        <time>2018-08-28T08:38:41Z</time>
      </trkpt>
      <trkpt lat="43.0917336792155" lon="-5.06932575256104">
        <ele>1487.8747215271</ele>
        <time>2018-08-28T08:38:44Z</time>
      </trkpt>
      <trkpt lat="43.0917595373868" lon="-5.06925308146055">
        <ele>1488.01583480835</ele>
        <time>2018-08-28T08:38:48Z</time>
      </trkpt>
      <trkpt lat="43.0917832162633" lon="-5.06919641979511">
        <ele>1489.63045883179</ele>
        <time>2018-08-28T08:38:51Z</time>
      </trkpt>
      <trkpt lat="43.0918135168432" lon="-5.06913523190196">
        <ele>1490.55892562866</ele>
        <time>2018-08-28T08:38:54Z</time>
      </trkpt>
      <trkpt lat="43.0918440269708" lon="-5.0690896343487">
        <ele>1492.72274398804</ele>
        <time>2018-08-28T08:38:57Z</time>
      </trkpt>
      <trkpt lat="43.091881745535" lon="-5.06904445589061">
        <ele>1494.16195297241</ele>
        <time>2018-08-28T08:39:01Z</time>
      </trkpt>
      <trkpt lat="43.0919167818903" lon="-5.06897974759812">
        <ele>1494.38973617554</ele>
        <time>2018-08-28T08:39:05Z</time>
      </trkpt>
      <trkpt lat="43.0919532431691" lon="-5.06891596131499">
        <ele>1494.22054672241</ele>
        <time>2018-08-28T08:39:09Z</time>
      </trkpt>
      <trkpt lat="43.0919772992312" lon="-5.06886072457309">
        <ele>1494.76351547241</ele>
        <time>2018-08-28T08:39:12Z</time>
      </trkpt>
      <trkpt lat="43.0920051271497" lon="-5.06881236099179">
        <ele>1495.91341781616</ele>
        <time>2018-08-28T08:39:15Z</time>
      </trkpt>
      <trkpt lat="43.0920428876235" lon="-5.06876517087693">
        <ele>1495.20223617554</ele>
        <time>2018-08-28T08:39:19Z</time>
      </trkpt>
      <trkpt lat="43.0920741102128" lon="-5.06870155223186">
        <ele>1495.68490219116</ele>
        <time>2018-08-28T08:40:07Z</time>
      </trkpt>
      <trkpt lat="43.0921218870609" lon="-5.06863801740582">
        <ele>1496.47640609741</ele>
        <time>2018-08-28T08:40:10Z</time>
      </trkpt>
      <trkpt lat="43.0921653053193" lon="-5.06857272238011">
        <ele>1497.10970687866</ele>
        <time>2018-08-28T08:40:13Z</time>
      </trkpt>
      <trkpt lat="43.0922017246886" lon="-5.06852016784723">
        <ele>1498.57308578491</ele>
        <time>2018-08-28T08:40:16Z</time>
      </trkpt>
      <trkpt lat="43.0922251101985" lon="-5.06846224889631">
        <ele>1499.06576156616</ele>
        <time>2018-08-28T08:40:19Z</time>
      </trkpt>
      <trkpt lat="43.0922425864666" lon="-5.06839712150867">
        <ele>1501.53451156616</ele>
        <time>2018-08-28T08:40:22Z</time>
      </trkpt>
      <trkpt lat="43.0922600627347" lon="-5.06833241321618">
        <ele>1503.13631820679</ele>
        <time>2018-08-28T08:40:25Z</time>
      </trkpt>
      <trkpt lat="43.0922984937607" lon="-5.06827407517011">
        <ele>1503.04232406616</ele>
        <time>2018-08-28T08:40:29Z</time>
      </trkpt>
      <trkpt lat="43.0923387688055" lon="-5.06822671741719">
        <ele>1503.20492172241</ele>
        <time>2018-08-28T08:40:32Z</time>
      </trkpt>
      <trkpt lat="43.0923695722996" lon="-5.06817382760818">
        <ele>1503.99300765991</ele>
        <time>2018-08-28T08:40:35Z</time>
      </trkpt>
      <trkpt lat="43.0924000405176" lon="-5.06811473519082">
        <ele>1505.79085922241</ele>
        <time>2018-08-28T08:40:38Z</time>
      </trkpt>
      <trkpt lat="43.0924285808979" lon="-5.06805614568765">
        <ele>1506.92538070679</ele>
        <time>2018-08-28T08:40:41Z</time>
      </trkpt>
      <trkpt lat="43.0924517568602" lon="-5.06799160503323">
        <ele>1504.67513656616</ele>
        <time>2018-08-28T08:40:59Z</time>
      </trkpt>
      <trkpt lat="43.0924732983514" lon="-5.067917006095">
        <ele>1505.22591781616</ele>
        <time>2018-08-28T08:41:02Z</time>
      </trkpt>
      <trkpt lat="43.0925005395367" lon="-5.06783997640486">
        <ele>1503.71541976929</ele>
        <time>2018-08-28T08:41:05Z</time>
      </trkpt>
      <trkpt lat="43.0925329775019" lon="-5.067763701086">
        <ele>1504.40462875366</ele>
        <time>2018-08-28T08:41:08Z</time>
      </trkpt>
      <trkpt lat="43.0925627332582" lon="-5.06771089509602">
        <ele>1504.79476547241</ele>
        <time>2018-08-28T08:41:10Z</time>
      </trkpt>
      <trkpt lat="43.092593913938" lon="-5.06765875965829">
        <ele>1504.48861312866</ele>
        <time>2018-08-28T08:41:12Z</time>
      </trkpt>
      <trkpt lat="43.0926180538191" lon="-5.06760151125963">
        <ele>1504.25716781616</ele>
        <time>2018-08-28T08:41:14Z</time>
      </trkpt>
      <trkpt lat="43.0926509527891" lon="-5.06754518487031">
        <ele>1503.65462875366</ele>
        <time>2018-08-28T08:41:16Z</time>
      </trkpt>
      <trkpt lat="43.0926881265297" lon="-5.06748793647165">
        <ele>1503.72542953491</ele>
        <time>2018-08-28T08:41:18Z</time>
      </trkpt>
      <trkpt lat="43.0927213188662" lon="-5.06742096506531">
        <ele>1504.51375961304</ele>
        <time>2018-08-28T08:41:20Z</time>
      </trkpt>
      <trkpt lat="43.0927548464789" lon="-5.06735047325964">
        <ele>1504.72640609741</ele>
        <time>2018-08-28T08:41:22Z</time>
      </trkpt>
      <trkpt lat="43.092788164544" lon="-5.06727805361624">
        <ele>1505.47591781616</ele>
        <time>2018-08-28T08:41:24Z</time>
      </trkpt>
      <trkpt lat="43.0928475084185" lon="-5.06724452600355">
        <ele>1505.61849594116</ele>
        <time>2018-08-28T08:41:25Z</time>
      </trkpt>
      <trkpt lat="43.0928653618722" lon="-5.06718643941457">
        <ele>1505.42757797241</ele>
        <time>2018-08-28T08:41:27Z</time>
      </trkpt>
      <trkpt lat="43.0928931478812" lon="-5.06712659262593">
        <ele>1506.03744125366</ele>
        <time>2018-08-28T08:41:29Z</time>
      </trkpt>
      <trkpt lat="43.0929209338902" lon="-5.06704336032743">
        <ele>1506.11654281616</ele>
        <time>2018-08-28T08:41:32Z</time>
      </trkpt>
      <trkpt lat="43.092950815375" lon="-5.06699273363228">
        <ele>1506.54281234741</ele>
        <time>2018-08-28T08:41:34Z</time>
      </trkpt>
      <trkpt lat="43.092977134551" lon="-5.06693355739589">
        <ele>1506.86239242554</ele>
        <time>2018-08-28T08:41:36Z</time>
      </trkpt>
      <trkpt lat="43.093014182563" lon="-5.06687010638888">
        <ele>1506.56966781616</ele>
        <time>2018-08-28T08:41:38Z</time>
      </trkpt>
      <trkpt lat="43.0930517334892" lon="-5.06680497900123">
        <ele>1506.94124984741</ele>
        <time>2018-08-28T08:41:40Z</time>
      </trkpt>
      <trkpt lat="43.0930900806962" lon="-5.06674152799423">
        <ele>1507.00204086304</ele>
        <time>2018-08-28T08:41:42Z</time>
      </trkpt>
      <trkpt lat="43.0931244464992" lon="-5.06667950191076">
        <ele>1507.36092758179</ele>
        <time>2018-08-28T08:41:44Z</time>
      </trkpt>
      <trkpt lat="43.0931632128014" lon="-5.06661554798956">
        <ele>1508.05599594116</ele>
        <time>2018-08-28T08:41:46Z</time>
      </trkpt>
      <trkpt lat="43.0931995483517" lon="-5.06655352190609">
        <ele>1508.44686508179</ele>
        <time>2018-08-28T08:41:48Z</time>
      </trkpt>
      <trkpt lat="43.0932352133497" lon="-5.0664909090894">
        <ele>1507.51522445679</ele>
        <time>2018-08-28T08:41:50Z</time>
      </trkpt>
      <trkpt lat="43.0932828225597" lon="-5.06642385386402">
        <ele>1507.31478500366</ele>
        <time>2018-08-28T08:41:52Z</time>
      </trkpt>
      <trkpt lat="43.0933330301597" lon="-5.06635830738122">
        <ele>1507.32503890991</ele>
        <time>2018-08-28T08:41:54Z</time>
      </trkpt>
      <trkpt lat="43.093371000181" lon="-5.06630198099191">
        <ele>1507.77694320679</ele>
        <time>2018-08-28T08:41:56Z</time>
      </trkpt>
      <trkpt lat="43.0934036896034" lon="-5.06625747308607">
        <ele>1508.81380844116</ele>
        <time>2018-08-28T08:41:58Z</time>
      </trkpt>
      <trkpt lat="43.0934559507697" lon="-5.06619955413515">
        <ele>1508.97347640991</ele>
        <time>2018-08-28T08:42:01Z</time>
      </trkpt>
      <trkpt lat="43.0934856646164" lon="-5.06615102291579">
        <ele>1510.55453109741</ele>
        <time>2018-08-28T08:42:03Z</time>
      </trkpt>
      <trkpt lat="43.0935391411587" lon="-5.06609662436421">
        <ele>1512.40658187866</ele>
        <time>2018-08-28T08:42:06Z</time>
      </trkpt>
      <trkpt lat="43.0935924919723" lon="-5.06603895687039">
        <ele>1513.80575180054</ele>
        <time>2018-08-28T08:42:09Z</time>
      </trkpt>
      <trkpt lat="43.0936286598845" lon="-5.06599746644969">
        <ele>1514.07259750366</ele>
        <time>2018-08-28T08:42:11Z</time>
      </trkpt>
      <trkpt lat="43.0936710304051" lon="-5.06595773622865">
        <ele>1514.09359359741</ele>
        <time>2018-08-28T08:42:13Z</time>
      </trkpt>
      <trkpt lat="43.0937183462485" lon="-5.06592370570178">
        <ele>1513.05257797241</ele>
        <time>2018-08-28T08:42:15Z</time>
      </trkpt>
      <trkpt lat="43.0937799113273" lon="-5.06591138430412">
        <ele>1513.36019515991</ele>
        <time>2018-08-28T08:42:17Z</time>
      </trkpt>
      <trkpt lat="43.0938274786278" lon="-5.06593426689977">
        <ele>1515.23275375366</ele>
        <time>2018-08-28T08:42:19Z</time>
      </trkpt>
      <trkpt lat="43.0938424403249" lon="-5.06601314060862">
        <ele>1515.69540023804</ele>
        <time>2018-08-28T08:42:22Z</time>
      </trkpt>
      <trkpt lat="43.0938554322748" lon="-5.06609075703199">
        <ele>1514.26913070679</ele>
        <time>2018-08-28T08:42:24Z</time>
      </trkpt>
      <trkpt lat="43.093874459195" lon="-5.06617197767372">
        <ele>1514.99715805054</ele>
        <time>2018-08-28T08:42:26Z</time>
      </trkpt>
      <trkpt lat="43.0938789435132" lon="-5.0662353448617">
        <ele>1513.78109359741</ele>
        <time>2018-08-28T08:44:10Z</time>
      </trkpt>
      <trkpt lat="43.0938664544775" lon="-5.06630625576253">
        <ele>1513.24251937866</ele>
        <time>2018-08-28T08:44:13Z</time>
      </trkpt>
      <trkpt lat="43.0938325077697" lon="-5.06636350416119">
        <ele>1509.80843734741</ele>
        <time>2018-08-28T08:47:36Z</time>
      </trkpt>
      <trkpt lat="43.0938670831202" lon="-5.06643131375785">
        <ele>1510.01253890991</ele>
        <time>2018-08-28T08:47:40Z</time>
      </trkpt>
      <trkpt lat="43.0938529596134" lon="-5.06650867872412">
        <ele>1510.73324203491</ele>
        <time>2018-08-28T08:47:43Z</time>
      </trkpt>
      <trkpt lat="43.0938205216481" lon="-5.06657288410241">
        <ele>1510.43832015991</ele>
        <time>2018-08-28T08:47:45Z</time>
      </trkpt>
      <trkpt lat="43.0937859462975" lon="-5.06665100343997">
        <ele>1510.32845687866</ele>
        <time>2018-08-28T08:47:47Z</time>
      </trkpt>
      <trkpt lat="43.0937546817987" lon="-5.06674513221259">
        <ele>1509.95663070679</ele>
        <time>2018-08-28T08:47:49Z</time>
      </trkpt>
      <trkpt lat="43.0937383370875" lon="-5.06683490239556">
        <ele>1510.08041000366</ele>
        <time>2018-08-28T08:47:51Z</time>
      </trkpt>
      <trkpt lat="43.093738295178" lon="-5.0669018738019">
        <ele>1510.63265609741</ele>
        <time>2018-08-28T08:47:53Z</time>
      </trkpt>
      <trkpt lat="43.0937393429159" lon="-5.06698351353879">
        <ele>1511.14193344116</ele>
        <time>2018-08-28T08:47:56Z</time>
      </trkpt>
      <trkpt lat="43.0937499460234" lon="-5.06705182604964">
        <ele>1511.20052719116</ele>
        <time>2018-08-28T08:47:59Z</time>
      </trkpt>
      <trkpt lat="43.0937996087997" lon="-5.06703053601558">
        <ele>1510.77718734741</ele>
        <time>2018-08-28T08:58:17Z</time>
      </trkpt>
      <trkpt lat="43.0937373312591" lon="-5.0670813303488">
        <ele>1510.20785140991</ele>
        <time>2018-08-28T08:58:22Z</time>
      </trkpt>
      <trkpt lat="43.0936732935189" lon="-5.06715358235414">
        <ele>1509.71517562866</ele>
        <time>2018-08-28T08:58:24Z</time>
      </trkpt>
      <trkpt lat="43.0936175119533" lon="-5.06724075414712">
        <ele>1509.87533187866</ele>
        <time>2018-08-28T08:58:26Z</time>
      </trkpt>
      <trkpt lat="43.093571746762" lon="-5.06733563729102">
        <ele>1509.06649398804</ele>
        <time>2018-08-28T08:58:28Z</time>
      </trkpt>
      <trkpt lat="43.0935298372461" lon="-5.06743747741456">
        <ele>1510.51253890991</ele>
        <time>2018-08-28T08:58:30Z</time>
      </trkpt>
      <trkpt lat="43.0934930406912" lon="-5.06749933585996">
        <ele>1509.91903305054</ele>
        <time>2018-08-28T08:58:31Z</time>
      </trkpt>
      <trkpt lat="43.093471331562" lon="-5.06755859591539">
        <ele>1509.14681625366</ele>
        <time>2018-08-28T08:58:32Z</time>
      </trkpt>
      <trkpt lat="43.0934515502705" lon="-5.06763353012974">
        <ele>1508.50399398804</ele>
        <time>2018-08-28T08:58:33Z</time>
      </trkpt>
      <trkpt lat="43.0934322718932" lon="-5.06769622676546">
        <ele>1508.71126937866</ele>
        <time>2018-08-28T08:58:34Z</time>
      </trkpt>
      <trkpt lat="43.093409263569" lon="-5.06775431335444">
        <ele>1508.31600570679</ele>
        <time>2018-08-28T08:58:35Z</time>
      </trkpt>
      <trkpt lat="43.0933917034819" lon="-5.06781826727564">
        <ele>1508.28109359741</ele>
        <time>2018-08-28T08:58:36Z</time>
      </trkpt>
      <trkpt lat="43.0933827348455" lon="-5.06792949513073">
        <ele>1505.48299789429</ele>
        <time>2018-08-28T08:58:38Z</time>
      </trkpt>
      <trkpt lat="43.0933659710391" lon="-5.0680002383935">
        <ele>1505.52816390991</ele>
        <time>2018-08-28T08:58:39Z</time>
      </trkpt>
      <trkpt lat="43.0933453096478" lon="-5.06810987368698">
        <ele>1505.66292953491</ele>
        <time>2018-08-28T08:58:41Z</time>
      </trkpt>
      <trkpt lat="43.0933453934668" lon="-5.06819620728965">
        <ele>1505.39510726929</ele>
        <time>2018-08-28T08:58:43Z</time>
      </trkpt>
      <trkpt lat="43.0933469022094" lon="-5.06827508099849">
        <ele>1505.04012680054</ele>
        <time>2018-08-28T08:58:45Z</time>
      </trkpt>
      <trkpt lat="43.0933476565807" lon="-5.0683401245671">
        <ele>1504.61996078491</ele>
        <time>2018-08-28T08:58:47Z</time>
      </trkpt>
      <trkpt lat="43.0933431722625" lon="-5.06843534298713">
        <ele>1506.57943344116</ele>
        <time>2018-08-28T08:58:50Z</time>
      </trkpt>
      <trkpt lat="43.0933356704592" lon="-5.06850575097377">
        <ele>1507.60433578491</ele>
        <time>2018-08-28T08:58:52Z</time>
      </trkpt>
      <trkpt lat="43.0933291744842" lon="-5.06857523695107">
        <ele>1508.18099594116</ele>
        <time>2018-08-28T08:58:54Z</time>
      </trkpt>
      <trkpt lat="43.0933249835326" lon="-5.06864162162418">
        <ele>1509.27767562866</ele>
        <time>2018-08-28T08:58:56Z</time>
      </trkpt>
      <trkpt lat="43.0933199543907" lon="-5.06871378981049">
        <ele>1508.91390609741</ele>
        <time>2018-08-28T08:58:58Z</time>
      </trkpt>
      <trkpt lat="43.0933147995203" lon="-5.06878403015907">
        <ele>1508.96615219116</ele>
        <time>2018-08-28T08:59:00Z</time>
      </trkpt>
      <trkpt lat="43.0933078844502" lon="-5.06886692718143">
        <ele>1508.35409164429</ele>
        <time>2018-08-28T08:59:03Z</time>
      </trkpt>
      <trkpt lat="43.0933077587216" lon="-5.06895024329896">
        <ele>1508.38827133179</ele>
        <time>2018-08-28T08:59:06Z</time>
      </trkpt>
      <trkpt lat="43.0933150928869" lon="-5.06902609952266">
        <ele>1509.66488265991</ele>
        <time>2018-08-28T08:59:09Z</time>
      </trkpt>
      <trkpt lat="43.0933235166996" lon="-5.06910153665121">
        <ele>1511.50374984741</ele>
        <time>2018-08-28T08:59:12Z</time>
      </trkpt>
      <trkpt lat="43.0933294678508" lon="-5.06917512976105">
        <ele>1511.92660140991</ele>
        <time>2018-08-28T08:59:15Z</time>
      </trkpt>
      <trkpt lat="43.0933430046244" lon="-5.06923388690228">
        <ele>1511.85580062866</ele>
        <time>2018-08-28T08:59:18Z</time>
      </trkpt>
      <trkpt lat="43.0933576310455" lon="-5.06929222494836">
        <ele>1511.50179672241</ele>
        <time>2018-08-28T08:59:21Z</time>
      </trkpt>
      <trkpt lat="43.0933714611857" lon="-5.06935634650762">
        <ele>1511.97616195679</ele>
        <time>2018-08-28T08:59:24Z</time>
      </trkpt>
      <trkpt lat="43.0933801364555" lon="-5.06942147389526">
        <ele>1513.30208969116</ele>
        <time>2018-08-28T08:59:27Z</time>
      </trkpt>
      <trkpt lat="43.0933892308204" lon="-5.06949263625319">
        <ele>1513.00008773804</ele>
        <time>2018-08-28T08:59:31Z</time>
      </trkpt>
      <trkpt lat="43.093392038758" lon="-5.0695592723834">
        <ele>1514.34261703491</ele>
        <time>2018-08-28T08:59:35Z</time>
      </trkpt>
      <trkpt lat="43.0933875125303" lon="-5.06962867454166">
        <ele>1514.36849594116</ele>
        <time>2018-08-28T08:59:39Z</time>
      </trkpt>
      <trkpt lat="43.0933784600749" lon="-5.06970386021311">
        <ele>1515.92416000366</ele>
        <time>2018-08-28T08:59:43Z</time>
      </trkpt>
      <trkpt lat="43.0933664739533" lon="-5.06976387463982">
        <ele>1517.89046859741</ele>
        <time>2018-08-28T08:59:46Z</time>
      </trkpt>
      <trkpt lat="43.0933629954635" lon="-5.06983654574032">
        <ele>1518.77669906616</ele>
        <time>2018-08-28T08:59:50Z</time>
      </trkpt>
      <trkpt lat="43.0933847465022" lon="-5.06989974529023">
        <ele>1519.81771469116</ele>
        <time>2018-08-28T08:59:54Z</time>
      </trkpt>
      <trkpt lat="43.0933941761433" lon="-5.06997308694298">
        <ele>1520.93026351929</ele>
        <time>2018-08-28T08:59:59Z</time>
      </trkpt>
      <trkpt lat="43.0933965649857" lon="-5.0700463447767">
        <ele>1521.84554672241</ele>
        <time>2018-08-28T09:00:03Z</time>
      </trkpt>
      <trkpt lat="43.0933883926301" lon="-5.07011256181176">
        <ele>1522.64437484741</ele>
        <time>2018-08-28T09:00:06Z</time>
      </trkpt>
      <trkpt lat="43.0933825672074" lon="-5.07017760538037">
        <ele>1523.92171859741</ele>
        <time>2018-08-28T09:00:09Z</time>
      </trkpt>
      <trkpt lat="43.0933804717316" lon="-5.07024222985382">
        <ele>1524.24715805054</ele>
        <time>2018-08-28T09:00:12Z</time>
      </trkpt>
      <trkpt lat="43.0933752330421" lon="-5.07030928507919">
        <ele>1524.87191390991</ele>
        <time>2018-08-28T09:00:15Z</time>
      </trkpt>
      <trkpt lat="43.0933637498348" lon="-5.07038505748386">
        <ele>1525.64583969116</ele>
        <time>2018-08-28T09:00:18Z</time>
      </trkpt>
      <trkpt lat="43.0933596846118" lon="-5.07046954706783">
        <ele>1525.44515609741</ele>
        <time>2018-08-28T09:00:21Z</time>
      </trkpt>
      <trkpt lat="43.0933578825026" lon="-5.07053475827451">
        <ele>1525.58626937866</ele>
        <time>2018-08-28T09:00:23Z</time>
      </trkpt>
      <trkpt lat="43.0933603132545" lon="-5.07060114294763">
        <ele>1525.49886703491</ele>
        <time>2018-08-28T09:00:25Z</time>
      </trkpt>
      <trkpt lat="43.0933652585774" lon="-5.07067389786716">
        <ele>1525.48983383179</ele>
        <time>2018-08-28T09:00:27Z</time>
      </trkpt>
      <trkpt lat="43.0933706649049" lon="-5.07075243629987">
        <ele>1525.39535140991</ele>
        <time>2018-08-28T09:00:29Z</time>
      </trkpt>
      <trkpt lat="43.0933795916318" lon="-5.07083407603676">
        <ele>1525.61678695679</ele>
        <time>2018-08-28T09:00:31Z</time>
      </trkpt>
      <trkpt lat="43.0933963554381" lon="-5.07090859115596">
        <ele>1525.83871078491</ele>
        <time>2018-08-28T09:00:33Z</time>
      </trkpt>
      <trkpt lat="43.0934222555189" lon="-5.07097388618167">
        <ele>1525.87484359741</ele>
        <time>2018-08-28T09:00:35Z</time>
      </trkpt>
      <trkpt lat="43.0934379296779" lon="-5.07105116732891">
        <ele>1526.34408187866</ele>
        <time>2018-08-28T09:00:37Z</time>
      </trkpt>
      <trkpt lat="43.0934400670632" lon="-5.07111864164944">
        <ele>1527.25960922241</ele>
        <time>2018-08-28T09:00:39Z</time>
      </trkpt>
      <trkpt lat="43.0934388935967" lon="-5.07118108682807">
        <ele>1528.08724594116</ele>
        <time>2018-08-28T09:00:41Z</time>
      </trkpt>
      <trkpt lat="43.0934398156061" lon="-5.0712432805496">
        <ele>1528.35628890991</ele>
        <time>2018-08-28T09:00:43Z</time>
      </trkpt>
      <trkpt lat="43.0934496643423" lon="-5.07131553255494">
        <ele>1529.14144515991</ele>
        <time>2018-08-28T09:00:45Z</time>
      </trkpt>
      <trkpt lat="43.0934716249286" lon="-5.07138744928415">
        <ele>1529.22494125366</ele>
        <time>2018-08-28T09:00:47Z</time>
      </trkpt>
      <trkpt lat="43.0935040209844" lon="-5.07145148702438">
        <ele>1529.94149398804</ele>
        <time>2018-08-28T09:00:49Z</time>
      </trkpt>
      <trkpt lat="43.0935387220635" lon="-5.07151116617496">
        <ele>1530.26009750366</ele>
        <time>2018-08-28T09:00:51Z</time>
      </trkpt>
      <trkpt lat="43.0935605569213" lon="-5.07157973014291">
        <ele>1530.33480453491</ele>
        <time>2018-08-28T09:00:53Z</time>
      </trkpt>
      <trkpt lat="43.0935706571146" lon="-5.07165164687212">
        <ele>1530.50814437866</ele>
        <time>2018-08-28T09:00:55Z</time>
      </trkpt>
      <trkpt lat="43.0935813859506" lon="-5.07173546590383">
        <ele>1530.92025375366</ele>
        <time>2018-08-28T09:00:58Z</time>
      </trkpt>
      <trkpt lat="43.0935946293577" lon="-5.07182473317261">
        <ele>1531.28377914429</ele>
        <time>2018-08-28T09:01:01Z</time>
      </trkpt>
      <trkpt lat="43.0936017539753" lon="-5.07191341370816">
        <ele>1531.59139633179</ele>
        <time>2018-08-28T09:01:04Z</time>
      </trkpt>
      <trkpt lat="43.0936182244151" lon="-5.07199647836859">
        <ele>1531.89681625366</ele>
        <time>2018-08-28T09:01:07Z</time>
      </trkpt>
      <trkpt lat="43.093648441176" lon="-5.07206135429914">
        <ele>1532.44173812866</ele>
        <time>2018-08-28T09:01:10Z</time>
      </trkpt>
      <trkpt lat="43.0936690187483" lon="-5.07212857716258">
        <ele>1532.89730453491</ele>
        <time>2018-08-28T09:01:20Z</time>
      </trkpt>
      <trkpt lat="43.0936888419493" lon="-5.07219487801667">
        <ele>1533.03207015991</ele>
        <time>2018-08-28T09:01:22Z</time>
      </trkpt>
      <trkpt lat="43.093701247166" lon="-5.07225531153853">
        <ele>1532.67318344116</ele>
        <time>2018-08-28T09:01:24Z</time>
      </trkpt>
      <trkpt lat="43.0937109701737" lon="-5.07234566845472">
        <ele>1533.70199203491</ele>
        <time>2018-08-28T09:01:27Z</time>
      </trkpt>
      <trkpt lat="43.093718471977" lon="-5.07241188548978">
        <ele>1534.67635726929</ele>
        <time>2018-08-28T09:01:29Z</time>
      </trkpt>
      <trkpt lat="43.0937204836338" lon="-5.07247734815355">
        <ele>1534.85287094116</ele>
        <time>2018-08-28T09:01:31Z</time>
      </trkpt>
      <trkpt lat="43.0937203159957" lon="-5.07254314609344">
        <ele>1535.97054672241</ele>
        <time>2018-08-28T09:01:33Z</time>
      </trkpt>
      <trkpt lat="43.0937232915713" lon="-5.07260659710045">
        <ele>1535.65780258179</ele>
        <time>2018-08-28T09:01:35Z</time>
      </trkpt>
      <trkpt lat="43.0937282788037" lon="-5.07267130539294">
        <ele>1534.64071273804</ele>
        <time>2018-08-28T09:01:37Z</time>
      </trkpt>
      <trkpt lat="43.0937324697553" lon="-5.07273743860896">
        <ele>1535.35433578491</ele>
        <time>2018-08-28T09:01:39Z</time>
      </trkpt>
      <trkpt lat="43.0937372893496" lon="-5.07280709222432">
        <ele>1536.72616195679</ele>
        <time>2018-08-28T09:01:41Z</time>
      </trkpt>
      <trkpt lat="43.0937462998955" lon="-5.07289937697823">
        <ele>1537.73470687866</ele>
        <time>2018-08-28T09:01:44Z</time>
      </trkpt>
      <trkpt lat="43.0937574897363" lon="-5.07296400145169">
        <ele>1538.16927719116</ele>
        <time>2018-08-28T09:01:46Z</time>
      </trkpt>
      <trkpt lat="43.093763482797" lon="-5.07302711718257">
        <ele>1537.91903305054</ele>
        <time>2018-08-28T09:01:48Z</time>
      </trkpt>
      <trkpt lat="43.0937672546535" lon="-5.07308964618023">
        <ele>1538.64291000366</ele>
        <time>2018-08-28T09:01:50Z</time>
      </trkpt>
      <trkpt lat="43.0937688891246" lon="-5.07315217517789">
        <ele>1538.82064437866</ele>
        <time>2018-08-28T09:01:52Z</time>
      </trkpt>
      <trkpt lat="43.0937773548468" lon="-5.0732275284874">
        <ele>1538.70638656616</ele>
        <time>2018-08-28T09:01:55Z</time>
      </trkpt>
      <trkpt lat="43.0937734153523" lon="-5.07332148962195">
        <ele>1539.18685531616</ele>
        <time>2018-08-28T09:01:58Z</time>
      </trkpt>
      <trkpt lat="43.0937778996705" lon="-5.073408829053">
        <ele>1539.83919906616</ele>
        <time>2018-08-28T09:02:01Z</time>
      </trkpt>
      <trkpt lat="43.0937853595643" lon="-5.07348376326735">
        <ele>1538.84505844116</ele>
        <time>2018-08-28T09:02:04Z</time>
      </trkpt>
      <trkpt lat="43.0937850661977" lon="-5.07355727255817">
        <ele>1539.93929672241</ele>
        <time>2018-08-28T09:02:07Z</time>
      </trkpt>
      <trkpt lat="43.0937869521259" lon="-5.0736284349161">
        <ele>1540.39339828491</ele>
        <time>2018-08-28T09:02:10Z</time>
      </trkpt>
      <trkpt lat="43.0937905563443" lon="-5.07369993255015">
        <ele>1541.27108383179</ele>
        <time>2018-08-28T09:02:13Z</time>
      </trkpt>
      <trkpt lat="43.0938051408558" lon="-5.07376187481459">
        <ele>1541.52376937866</ele>
        <time>2018-08-28T09:02:16Z</time>
      </trkpt>
      <trkpt lat="43.0938205216481" lon="-5.0738250743645">
        <ele>1542.05404281616</ele>
        <time>2018-08-28T09:02:19Z</time>
      </trkpt>
      <trkpt lat="43.0938459188147" lon="-5.07389254868503">
        <ele>1543.01205062866</ele>
        <time>2018-08-28T09:02:22Z</time>
      </trkpt>
      <trkpt lat="43.0938727828144" lon="-5.07396027446266">
        <ele>1543.18294906616</ele>
        <time>2018-08-28T09:02:25Z</time>
      </trkpt>
      <trkpt lat="43.0939012393757" lon="-5.07402766496416">
        <ele>1543.45492172241</ele>
        <time>2018-08-28T09:02:28Z</time>
      </trkpt>
      <trkpt lat="43.0939252116187" lon="-5.07408893667634">
        <ele>1544.37874984741</ele>
        <time>2018-08-28T09:02:31Z</time>
      </trkpt>
      <trkpt lat="43.0939493095904" lon="-5.07415247150238">
        <ele>1545.07113265991</ele>
        <time>2018-08-28T09:02:34Z</time>
      </trkpt>
      <trkpt lat="43.0939627625449" lon="-5.07421458140488">
        <ele>1545.52889633179</ele>
        <time>2018-08-28T09:02:37Z</time>
      </trkpt>
      <trkpt lat="43.0939833820267" lon="-5.07428339682992">
        <ele>1546.58968734741</ele>
        <time>2018-08-28T09:02:40Z</time>
      </trkpt>
      <trkpt lat="43.0940091982885" lon="-5.07434299216147">
        <ele>1547.69369125366</ele>
        <time>2018-08-28T09:02:43Z</time>
      </trkpt>
      <trkpt lat="43.0940416362538" lon="-5.07438741624828">
        <ele>1547.86581039429</ele>
        <time>2018-08-28T09:02:46Z</time>
      </trkpt>
      <trkpt lat="43.094077971804" lon="-5.07444441318985">
        <ele>1547.78841781616</ele>
        <time>2018-08-28T09:02:49Z</time>
      </trkpt>
      <trkpt lat="43.0941140139877" lon="-5.0744968839037">
        <ele>1549.68124008179</ele>
        <time>2018-08-28T09:02:52Z</time>
      </trkpt>
      <trkpt lat="43.0941537022992" lon="-5.07453594357248">
        <ele>1550.69027328491</ele>
        <time>2018-08-28T09:02:55Z</time>
      </trkpt>
      <trkpt lat="43.0942015629663" lon="-5.07457609288867">
        <ele>1551.99276351929</ele>
        <time>2018-08-28T09:02:59Z</time>
      </trkpt>
      <trkpt lat="43.094243137206" lon="-5.07463845424827">
        <ele>1553.14779281616</ele>
        <time>2018-08-28T09:03:03Z</time>
      </trkpt>
      <trkpt lat="43.0942702107533" lon="-5.07469042204793">
        <ele>1551.06039047241</ele>
        <time>2018-08-28T09:03:06Z</time>
      </trkpt>
      <trkpt lat="43.094303738366" lon="-5.07473484613474">
        <ele>1551.43343734741</ele>
        <time>2018-08-28T09:03:09Z</time>
      </trkpt>
      <trkpt lat="43.0943382298975" lon="-5.07478471845861">
        <ele>1552.00155258179</ele>
        <time>2018-08-28T09:03:13Z</time>
      </trkpt>
      <trkpt lat="43.0943650100781" lon="-5.07483643480118">
        <ele>1552.58871078491</ele>
        <time>2018-08-28T09:03:16Z</time>
      </trkpt>
      <trkpt lat="43.0943895271449" lon="-5.07490642369266">
        <ele>1554.85189437866</ele>
        <time>2018-08-28T09:03:20Z</time>
      </trkpt>
      <trkpt lat="43.094405704218" lon="-5.07496777922388">
        <ele>1555.05892562866</ele>
        <time>2018-08-28T09:03:25Z</time>
      </trkpt>
      <trkpt lat="43.0944396090164" lon="-5.0750114489394">
        <ele>1555.43294906616</ele>
        <time>2018-08-28T09:03:55Z</time>
      </trkpt>
      <trkpt lat="43.0944672273873" lon="-5.07506526075776">
        <ele>1554.88167953491</ele>
        <time>2018-08-28T09:03:57Z</time>
      </trkpt>
      <trkpt lat="43.0944957258581" lon="-5.0751287955838">
        <ele>1553.99325180054</ele>
        <time>2018-08-28T09:03:59Z</time>
      </trkpt>
      <trkpt lat="43.0945134116738" lon="-5.0752067472833">
        <ele>1553.00863265991</ele>
        <time>2018-08-28T09:04:06Z</time>
      </trkpt>
      <trkpt lat="43.094532522413" lon="-5.07527472451802">
        <ele>1552.98250961304</ele>
        <time>2018-08-28T09:04:08Z</time>
      </trkpt>
      <trkpt lat="43.0945492443099" lon="-5.07534991018947">
        <ele>1552.80892562866</ele>
        <time>2018-08-28T09:04:10Z</time>
      </trkpt>
      <trkpt lat="43.0946030142187" lon="-5.07539005950566">
        <ele>1549.91781234741</ele>
        <time>2018-08-28T09:04:12Z</time>
      </trkpt>
      <trkpt lat="43.0946902279212" lon="-5.07538603619214">
        <ele>1550.21859359741</ele>
        <time>2018-08-28T09:04:14Z</time>
      </trkpt>
      <trkpt lat="43.0947654555022" lon="-5.07536541671034">
        <ele>1550.57308578491</ele>
        <time>2018-08-28T09:04:16Z</time>
      </trkpt>
      <trkpt lat="43.0948167527496" lon="-5.07535024546559">
        <ele>1550.30453109741</ele>
        <time>2018-08-28T09:04:18Z</time>
      </trkpt>
      <trkpt lat="43.0948824668704" lon="-5.07534328848596">
        <ele>1547.34554672241</ele>
        <time>2018-08-28T09:04:21Z</time>
      </trkpt>
      <trkpt lat="43.0949318781896" lon="-5.07532577030833">
        <ele>1544.91830062866</ele>
        <time>2018-08-28T09:04:23Z</time>
      </trkpt>
      <trkpt lat="43.0949792359426" lon="-5.0752963498282">
        <ele>1543.97787094116</ele>
        <time>2018-08-28T09:04:25Z</time>
      </trkpt>
      <trkpt lat="43.0950126797362" lon="-5.07524756715174">
        <ele>1542.50326156616</ele>
        <time>2018-08-28T09:04:27Z</time>
      </trkpt>
      <trkpt lat="43.0950648151739" lon="-5.0752101838636">
        <ele>1540.36996078491</ele>
        <time>2018-08-28T09:04:29Z</time>
      </trkpt>
      <trkpt lat="43.0951161124214" lon="-5.07520213723655">
        <ele>1538.76253890991</ele>
        <time>2018-08-28T09:04:31Z</time>
      </trkpt>
      <trkpt lat="43.0951631768077" lon="-5.07519836538013">
        <ele>1534.84457015991</ele>
        <time>2018-08-28T09:04:36Z</time>
      </trkpt>
      <trkpt lat="43.0952119175746" lon="-5.07516534068163">
        <ele>1532.99007797241</ele>
        <time>2018-08-28T09:04:39Z</time>
      </trkpt>
      <trkpt lat="43.0952532822668" lon="-5.0751235149848">
        <ele>1531.51205062866</ele>
        <time>2018-08-28T09:04:41Z</time>
      </trkpt>
      <trkpt lat="43.0953018134861" lon="-5.07507347502287">
        <ele>1525.91732406616</ele>
        <time>2018-08-28T09:04:43Z</time>
      </trkpt>
      <trkpt lat="43.0953343352704" lon="-5.07502997294541">
        <ele>1525.65829086304</ele>
        <time>2018-08-28T09:04:45Z</time>
      </trkpt>
      <trkpt lat="43.0953581817849" lon="-5.07495520636912">
        <ele>1523.74203109741</ele>
        <time>2018-08-28T09:04:48Z</time>
      </trkpt>
      <trkpt lat="43.0953769153385" lon="-5.07489301264759">
        <ele>1523.40707015991</ele>
        <time>2018-08-28T09:04:51Z</time>
      </trkpt>
      <trkpt lat="43.0954081379278" lon="-5.07481330074843">
        <ele>1523.84945297241</ele>
        <time>2018-08-28T09:04:54Z</time>
      </trkpt>
      <trkpt lat="43.0954323197185" lon="-5.07474909537013">
        <ele>1521.90365219116</ele>
        <time>2018-08-28T09:04:56Z</time>
      </trkpt>
      <trkpt lat="43.095475821796" lon="-5.07472051308032">
        <ele>1518.31039047241</ele>
        <time>2018-08-28T09:05:01Z</time>
      </trkpt>
      <trkpt lat="43.0955244787439" lon="-5.07473015226896">
        <ele>1516.65707015991</ele>
        <time>2018-08-28T09:05:07Z</time>
      </trkpt>
      <trkpt lat="43.0955385603412" lon="-5.07466200739618">
        <ele>1510.49496078491</ele>
        <time>2018-08-28T09:05:39Z</time>
      </trkpt>
      <trkpt lat="43.0955510074674" lon="-5.07455404848333">
        <ele>1511.50887680054</ele>
        <time>2018-08-28T09:05:41Z</time>
      </trkpt>
      <trkpt lat="43.0955655081599" lon="-5.07447316311772">
        <ele>1510.94613265991</ele>
        <time>2018-08-28T09:05:42Z</time>
      </trkpt>
      <trkpt lat="43.0955850799038" lon="-5.07438967936214">
        <ele>1511.12386703491</ele>
        <time>2018-08-28T09:05:43Z</time>
      </trkpt>
      <trkpt lat="43.0956099322467" lon="-5.07431642152842">
        <ele>1510.01693344116</ele>
        <time>2018-08-28T09:05:44Z</time>
      </trkpt>
      <trkpt lat="43.0956580862804" lon="-5.07423511706765">
        <ele>1510.04769515991</ele>
        <time>2018-08-28T09:05:45Z</time>
      </trkpt>
      <trkpt lat="43.0956966011255" lon="-5.07418147288735">
        <ele>1509.62191390991</ele>
        <time>2018-08-28T09:05:46Z</time>
      </trkpt>
      <trkpt lat="43.0957342777803" lon="-5.07414065301891">
        <ele>1509.60262680054</ele>
        <time>2018-08-28T09:05:47Z</time>
      </trkpt>
      <trkpt lat="43.0957727088063" lon="-5.07410871796782">
        <ele>1510.67586898804</ele>
        <time>2018-08-28T09:05:48Z</time>
      </trkpt>
      <trkpt lat="43.0958114751085" lon="-5.07404996082659">
        <ele>1510.10946273804</ele>
        <time>2018-08-28T09:05:50Z</time>
      </trkpt>
      <trkpt lat="43.0958768958627" lon="-5.07399288006599">
        <ele>1508.73470687866</ele>
        <time>2018-08-28T09:05:52Z</time>
      </trkpt>
      <trkpt lat="43.0959300371288" lon="-5.07398625836249">
        <ele>1508.46566390991</ele>
        <time>2018-08-28T09:05:54Z</time>
      </trkpt>
      <trkpt lat="43.0959359463706" lon="-5.07392062806066">
        <ele>1511.64608383179</ele>
        <time>2018-08-28T09:06:17Z</time>
      </trkpt>
      <trkpt lat="43.0959587451472" lon="-5.07385206409271">
        <ele>1511.73568344116</ele>
        <time>2018-08-28T09:06:19Z</time>
      </trkpt>
      <trkpt lat="43.0959834717615" lon="-5.07375919260557">
        <ele>1510.18197250366</ele>
        <time>2018-08-28T09:06:21Z</time>
      </trkpt>
      <trkpt lat="43.0959916022076" lon="-5.07368962280925">
        <ele>1508.45907211304</ele>
        <time>2018-08-28T09:06:23Z</time>
      </trkpt>
      <trkpt lat="43.0959972180827" lon="-5.07361519150908">
        <ele>1506.67708969116</ele>
        <time>2018-08-28T09:06:25Z</time>
      </trkpt>
      <trkpt lat="43.0961159058317" lon="-5.07352181710775">
        <ele>1503.59505844116</ele>
        <time>2018-08-28T09:06:26Z</time>
      </trkpt>
      <trkpt lat="43.0961757945298" lon="-5.07342291065033">
        <ele>1500.50204086304</ele>
        <time>2018-08-28T09:06:28Z</time>
      </trkpt>
      <trkpt lat="43.0962059274717" lon="-5.07337396033581">
        <ele>1499.64925765991</ele>
        <time>2018-08-28T09:06:29Z</time>
      </trkpt>
      <trkpt lat="43.0961978389352" lon="-5.07330816239591">
        <ele>1500.20833969116</ele>
        <time>2018-08-28T09:06:30Z</time>
      </trkpt>
      <trkpt lat="43.0962363956897" lon="-5.07324487902696">
        <ele>1499.75985336304</ele>
        <time>2018-08-28T09:06:31Z</time>
      </trkpt>
      <trkpt lat="43.096307097043" lon="-5.07317187265034">
        <ele>1498.94808578491</ele>
        <time>2018-08-28T09:06:33Z</time>
      </trkpt>
      <trkpt lat="43.096358603838" lon="-5.07317790762062">
        <ele>1500.78499984741</ele>
        <time>2018-08-28T09:06:34Z</time>
      </trkpt>
      <trkpt lat="43.0964126252039" lon="-5.07312082686003">
        <ele>1499.33138656616</ele>
        <time>2018-08-28T09:06:36Z</time>
      </trkpt>
      <trkpt lat="43.0964680295839" lon="-5.07307288237388">
        <ele>1499.29256820679</ele>
        <time>2018-08-28T09:06:38Z</time>
      </trkpt>
      <trkpt lat="43.0965336179762" lon="-5.07306701504166">
        <ele>1501.27352523804</ele>
        <time>2018-08-28T09:06:40Z</time>
      </trkpt>
      <trkpt lat="43.0966133717849" lon="-5.07304706611212">
        <ele>1497.99447250366</ele>
        <time>2018-08-28T09:06:42Z</time>
      </trkpt>
      <trkpt lat="43.096675691235" lon="-5.07302384824033">
        <ele>1494.36849594116</ele>
        <time>2018-08-28T09:06:44Z</time>
      </trkpt>
      <trkpt lat="43.0967236357211" lon="-5.07299149409409">
        <ele>1492.86019515991</ele>
        <time>2018-08-28T09:06:46Z</time>
      </trkpt>
      <trkpt lat="43.0968034733488" lon="-5.07297925651546">
        <ele>1494.97591781616</ele>
        <time>2018-08-28T09:06:48Z</time>
      </trkpt>
      <trkpt lat="43.0968383839755" lon="-5.07305050269242">
        <ele>1493.59139633179</ele>
        <time>2018-08-28T09:06:51Z</time>
      </trkpt>
      <trkpt lat="43.0968559859722" lon="-5.07315619849141">
        <ele>1491.68954086304</ele>
        <time>2018-08-28T09:06:53Z</time>
      </trkpt>
      <trkpt lat="43.096881802234" lon="-5.07320774719591">
        <ele>1489.54037094116</ele>
        <time>2018-08-28T09:06:54Z</time>
      </trkpt>
      <trkpt lat="43.0969130248233" lon="-5.07325812243398">
        <ele>1489.42147445679</ele>
        <time>2018-08-28T09:06:55Z</time>
      </trkpt>
      <trkpt lat="43.0969864083855" lon="-5.07331620902296">
        <ele>1486.42110824585</ele>
        <time>2018-08-28T09:06:57Z</time>
      </trkpt>
      <trkpt lat="43.0970776454016" lon="-5.07333599031444">
        <ele>1484.94344711304</ele>
        <time>2018-08-28T09:06:59Z</time>
      </trkpt>
      <trkpt lat="43.0972159048944" lon="-5.07335451432045">
        <ele>1484.24300765991</ele>
        <time>2018-08-28T09:07:00Z</time>
      </trkpt>
      <trkpt lat="43.0972644780233" lon="-5.07337613963063">
        <ele>1484.52450180054</ele>
        <time>2018-08-28T09:07:01Z</time>
      </trkpt>
      <trkpt lat="43.0973258335545" lon="-5.0734328851151">
        <ele>1481.89205551147</ele>
        <time>2018-08-28T09:07:02Z</time>
      </trkpt>
      <trkpt lat="43.0973518593638" lon="-5.07350195199724">
        <ele>1479.4362449646</ele>
        <time>2018-08-28T09:07:03Z</time>
      </trkpt>
      <trkpt lat="43.0973806092917" lon="-5.07355811074849">
        <ele>1479.39144515991</ele>
        <time>2018-08-28T09:07:04Z</time>
      </trkpt>
      <trkpt lat="43.0973247019975" lon="-5.07357093506034">
        <ele>1477.15487289429</ele>
        <time>2018-08-28T09:07:06Z</time>
      </trkpt>
      <trkpt lat="43.0972753325879" lon="-5.07360345684464">
        <ele>1474.93368148804</ele>
        <time>2018-08-28T09:07:08Z</time>
      </trkpt>
      <trkpt lat="43.0972347641765" lon="-5.07363514043863">
        <ele>1472.46957015991</ele>
        <time>2018-08-28T09:07:09Z</time>
      </trkpt>
      <trkpt lat="43.0972822057485" lon="-5.07364234887536">
        <ele>1466.7868309021</ele>
        <time>2018-08-28T09:07:10Z</time>
      </trkpt>
      <trkpt lat="43.0972464150219" lon="-5.07370211184497">
        <ele>1466.25582504272</ele>
        <time>2018-08-28T09:07:14Z</time>
      </trkpt>
      <trkpt lat="43.0971899629041" lon="-5.07373304106768">
        <ele>1464.3854637146</ele>
        <time>2018-08-28T09:07:16Z</time>
      </trkpt>
      <trkpt lat="43.0971415155037" lon="-5.0737558398443">
        <ele>1462.45003890991</ele>
        <time>2018-08-28T09:07:17Z</time>
      </trkpt>
      <trkpt lat="43.0970592052146" lon="-5.07379313931342">
        <ele>1461.70699691772</ele>
        <time>2018-08-28T09:07:19Z</time>
      </trkpt>
      <trkpt lat="43.0969795352249" lon="-5.07384988479789">
        <ele>1461.99654769897</ele>
        <time>2018-08-28T09:07:21Z</time>
      </trkpt>
      <trkpt lat="43.0969347339525" lon="-5.07388693280991">
        <ele>1460.96761703491</ele>
        <time>2018-08-28T09:07:22Z</time>
      </trkpt>
      <trkpt lat="43.0968944589077" lon="-5.07391903549905">
        <ele>1460.53133773804</ele>
        <time>2018-08-28T09:07:23Z</time>
      </trkpt>
      <trkpt lat="43.0968458438694" lon="-5.07397133857484">
        <ele>1460.71078109741</ele>
        <time>2018-08-28T09:07:25Z</time>
      </trkpt>
      <trkpt lat="43.0968724564119" lon="-5.07404644042726">
        <ele>1459.48202133179</ele>
        <time>2018-08-28T09:07:29Z</time>
      </trkpt>
      <trkpt lat="43.0969343148573" lon="-5.07405272685464">
        <ele>1457.99374008179</ele>
        <time>2018-08-28T09:07:31Z</time>
      </trkpt>
      <trkpt lat="43.0970144877612" lon="-5.07406814955647">
        <ele>1456.73128890991</ele>
        <time>2018-08-28T09:07:33Z</time>
      </trkpt>
      <trkpt lat="43.0970832612767" lon="-5.0740877632099">
        <ele>1454.95711898804</ele>
        <time>2018-08-28T09:07:35Z</time>
      </trkpt>
      <trkpt lat="43.0971313734009" lon="-5.07408072241123">
        <ele>1455.00057601929</ele>
        <time>2018-08-28T09:07:37Z</time>
      </trkpt>
      <trkpt lat="43.0971768452256" lon="-5.07406580262359">
        <ele>1452.79037094116</ele>
        <time>2018-08-28T09:07:40Z</time>
      </trkpt>
      <trkpt lat="43.0972164497181" lon="-5.07410477847333">
        <ele>1451.13106918335</ele>
        <time>2018-08-28T09:07:43Z</time>
      </trkpt>
      <trkpt lat="43.0972661963134" lon="-5.07416563109036">
        <ele>1449.72970199585</ele>
        <time>2018-08-28T09:07:45Z</time>
      </trkpt>
      <trkpt lat="43.0973095307528" lon="-5.0742032658356">
        <ele>1449.45028305054</ele>
        <time>2018-08-28T09:07:47Z</time>
      </trkpt>
      <trkpt lat="43.09734180108" lon="-5.07426939905162">
        <ele>1445.46383285522</ele>
        <time>2018-08-28T09:07:50Z</time>
      </trkpt>
      <trkpt lat="43.0972474208503" lon="-5.07438473403926">
        <ele>1443.8727684021</ele>
        <time>2018-08-28T09:07:52Z</time>
      </trkpt>
      <trkpt lat="43.0972834211244" lon="-5.07446478121455">
        <ele>1439.01864242554</ele>
        <time>2018-08-28T09:07:54Z</time>
      </trkpt>
      <trkpt lat="43.0973277194827" lon="-5.07454189472373">
        <ele>1438.25716781616</ele>
        <time>2018-08-28T09:07:56Z</time>
      </trkpt>
      <trkpt lat="43.0974161066516" lon="-5.07457131520386">
        <ele>1435.86727523804</ele>
        <time>2018-08-28T09:07:58Z</time>
      </trkpt>
      <trkpt lat="43.0974610755621" lon="-5.07459813729401">
        <ele>1433.74569320679</ele>
        <time>2018-08-28T09:08:00Z</time>
      </trkpt>
      <trkpt lat="43.0975338723912" lon="-5.07462437265094">
        <ele>1434.03426742554</ele>
        <time>2018-08-28T09:08:01Z</time>
      </trkpt>
      <trkpt lat="43.0975886481284" lon="-5.07473467849668">
        <ele>1430.64376449585</ele>
        <time>2018-08-28T09:08:03Z</time>
      </trkpt>
      <trkpt lat="43.0975338304817" lon="-5.07480852306362">
        <ele>1429.15218734741</ele>
        <time>2018-08-28T09:08:05Z</time>
      </trkpt>
      <trkpt lat="43.0975315673678" lon="-5.07489477284725">
        <ele>1423.43795394897</ele>
        <time>2018-08-28T09:08:13Z</time>
      </trkpt>
      <trkpt lat="43.0974496761738" lon="-5.07494950667496">
        <ele>1421.03817367554</ele>
        <time>2018-08-28T09:08:15Z</time>
      </trkpt>
      <trkpt lat="43.0973908771231" lon="-5.07495604455944">
        <ele>1419.34066390991</ele>
        <time>2018-08-28T09:08:17Z</time>
      </trkpt>
      <trkpt lat="43.0973062618106" lon="-5.07499837317045">
        <ele>1420.88875961304</ele>
        <time>2018-08-28T09:08:19Z</time>
      </trkpt>
      <trkpt lat="43.0973293539538" lon="-5.07506098598714">
        <ele>1413.31527328491</ele>
        <time>2018-08-28T09:08:23Z</time>
      </trkpt>
      <trkpt lat="43.0973726464837" lon="-5.07509878837045">
        <ele>1411.79647445679</ele>
        <time>2018-08-28T09:08:25Z</time>
      </trkpt>
      <trkpt lat="43.0974732293217" lon="-5.07520691492136">
        <ele>1410.41366195679</ele>
        <time>2018-08-28T09:08:27Z</time>
      </trkpt>
      <trkpt lat="43.0975094391434" lon="-5.07525041699882">
        <ele>1408.86581039429</ele>
        <time>2018-08-28T09:08:28Z</time>
      </trkpt>
      <trkpt lat="43.0975685315608" lon="-5.07530188188429">
        <ele>1406.71957015991</ele>
        <time>2018-08-28T09:08:30Z</time>
      </trkpt>
      <trkpt lat="43.0976069206773" lon="-5.07534119301017">
        <ele>1405.96834945679</ele>
        <time>2018-08-28T09:08:32Z</time>
      </trkpt>
      <trkpt lat="43.0975903664186" lon="-5.07542911917444">
        <ele>1403.42879867554</ele>
        <time>2018-08-28T09:08:35Z</time>
      </trkpt>
      <trkpt lat="43.0975736864313" lon="-5.07548930123921">
        <ele>1402.27230453491</ele>
        <time>2018-08-28T09:08:37Z</time>
      </trkpt>
      <trkpt lat="43.0975139234616" lon="-5.07552794181283">
        <ele>1393.51009750366</ele>
        <time>2018-08-28T09:08:40Z</time>
      </trkpt>
      <trkpt lat="43.0974647635995" lon="-5.07554596290465">
        <ele>1392.50826644897</ele>
        <time>2018-08-28T09:08:42Z</time>
      </trkpt>
      <trkpt lat="43.0974209681555" lon="-5.07560572587426">
        <ele>1390.46212387085</ele>
        <time>2018-08-28T09:08:44Z</time>
      </trkpt>
      <trkpt lat="43.0974540347635" lon="-5.07564947940882">
        <ele>1385.28145980835</ele>
        <time>2018-08-28T09:08:49Z</time>
      </trkpt>
      <trkpt lat="43.0975066731154" lon="-5.07565291598912">
        <ele>1384.34688949585</ele>
        <time>2018-08-28T09:08:54Z</time>
      </trkpt>
      <trkpt lat="43.097480647306" lon="-5.07571142167326">
        <ele>1384.35775375366</ele>
        <time>2018-08-28T09:08:59Z</time>
      </trkpt>
      <trkpt lat="43.0974459462269" lon="-5.07575743832167">
        <ele>1383.74264144897</ele>
        <time>2018-08-28T09:09:06Z</time>
      </trkpt>
      <trkpt lat="43.0974269612162" lon="-5.07582709193702">
        <ele>1382.8415184021</ele>
        <time>2018-08-28T09:09:16Z</time>
      </trkpt>
      <trkpt lat="43.0974423420086" lon="-5.07589330897208">
        <ele>1379.55904769897</ele>
        <time>2018-08-28T09:09:21Z</time>
      </trkpt>
      <trkpt lat="43.0974861793621" lon="-5.07593228482183">
        <ele>1375.83065414429</ele>
        <time>2018-08-28T09:09:24Z</time>
      </trkpt>
      <trkpt lat="43.0975447269558" lon="-5.07597855292733">
        <ele>1375.32210922241</ele>
        <time>2018-08-28T09:09:26Z</time>
      </trkpt>
      <trkpt lat="43.0975864269241" lon="-5.07600470446523">
        <ele>1374.86629867554</ele>
        <time>2018-08-28T09:09:27Z</time>
      </trkpt>
      <trkpt lat="43.0976610677718" lon="-5.07605524734135">
        <ele>1373.40707015991</ele>
        <time>2018-08-28T09:09:29Z</time>
      </trkpt>
      <trkpt lat="43.0976956850319" lon="-5.07611148991163">
        <ele>1373.22164535522</ele>
        <time>2018-08-28T09:09:31Z</time>
      </trkpt>
      <trkpt lat="43.097711694467" lon="-5.07617326453801">
        <ele>1370.65877914429</ele>
        <time>2018-08-28T09:09:35Z</time>
      </trkpt>
      <trkpt lat="43.097780426073" lon="-5.07617100142415">
        <ele>1365.05123519897</ele>
        <time>2018-08-28T09:09:38Z</time>
      </trkpt>
      <trkpt lat="43.0978282867401" lon="-5.07616370916839">
        <ele>1364.35628890991</ele>
        <time>2018-08-28T09:09:39Z</time>
      </trkpt>
      <trkpt lat="43.097875728312" lon="-5.07615876384552">
        <ele>1364.17232894897</ele>
        <time>2018-08-28T09:09:40Z</time>
      </trkpt>
      <trkpt lat="43.0979250558122" lon="-5.07615608163651">
        <ele>1362.94710922241</ele>
        <time>2018-08-28T09:09:41Z</time>
      </trkpt>
      <trkpt lat="43.0979719106509" lon="-5.07615691982682">
        <ele>1362.49276351929</ele>
        <time>2018-08-28T09:09:42Z</time>
      </trkpt>
      <trkpt lat="43.0980500299885" lon="-5.07616999559577">
        <ele>1361.15999984741</ele>
        <time>2018-08-28T09:09:44Z</time>
      </trkpt>
      <trkpt lat="43.0980891315668" lon="-5.0762136653113">
        <ele>1360.72896957397</ele>
        <time>2018-08-28T09:09:46Z</time>
      </trkpt>
      <trkpt lat="43.0980761396169" lon="-5.07629689760979">
        <ele>1355.8376121521</ele>
        <time>2018-08-28T09:09:49Z</time>
      </trkpt>
      <trkpt lat="43.098057867068" lon="-5.07638390176471">
        <ele>1354.42806625366</ele>
        <time>2018-08-28T09:09:51Z</time>
      </trkpt>
      <trkpt lat="43.0980413128092" lon="-5.07646864280577">
        <ele>1353.87752914429</ele>
        <time>2018-08-28T09:09:53Z</time>
      </trkpt>
      <trkpt lat="43.0980832223251" lon="-5.07650795393165">
        <ele>1351.3395652771</ele>
        <time>2018-08-28T09:09:57Z</time>
      </trkpt>
      <trkpt lat="43.0981476791604" lon="-5.07646009326454">
        <ele>1347.12057113647</ele>
        <time>2018-08-28T09:09:59Z</time>
      </trkpt>
      <trkpt lat="43.0982193863421" lon="-5.07643687539275">
        <ele>1347.3874168396</ele>
        <time>2018-08-28T09:10:01Z</time>
      </trkpt>
      <trkpt lat="43.0982842622726" lon="-5.07641281933065">
        <ele>1343.39303207397</ele>
        <time>2018-08-28T09:10:03Z</time>
      </trkpt>
      <trkpt lat="43.098356514278" lon="-5.07636252791162">
        <ele>1339.70614242554</ele>
        <time>2018-08-28T09:10:05Z</time>
      </trkpt>
      <trkpt lat="43.0984325800492" lon="-5.0763376336592">
        <ele>1337.19576644897</ele>
        <time>2018-08-28T09:10:07Z</time>
      </trkpt>
      <trkpt lat="43.0984767107694" lon="-5.07635263726588">
        <ele>1336.46773910522</ele>
        <time>2018-08-28T09:10:08Z</time>
      </trkpt>
      <trkpt lat="43.0985521059885" lon="-5.07652002387222">
        <ele>1335.66463851929</ele>
        <time>2018-08-28T09:10:09Z</time>
      </trkpt>
      <trkpt lat="43.0985398684098" lon="-5.07661096752163">
        <ele>1334.36849594116</ele>
        <time>2018-08-28T09:10:11Z</time>
      </trkpt>
      <trkpt lat="43.0985558359354" lon="-5.07666989230092">
        <ele>1333.95785140991</ele>
        <time>2018-08-28T09:10:12Z</time>
      </trkpt>
      <trkpt lat="43.0985488789557" lon="-5.07673912682112">
        <ele>1334.70431137085</ele>
        <time>2018-08-28T09:10:13Z</time>
      </trkpt>
      <trkpt lat="43.0985269183694" lon="-5.0768455769914">
        <ele>1334.42965316772</ele>
        <time>2018-08-28T09:10:14Z</time>
      </trkpt>
      <trkpt lat="43.0985181173711" lon="-5.07692730054732">
        <ele>1329.94222640991</ele>
        <time>2018-08-28T09:10:15Z</time>
      </trkpt>
      <trkpt lat="43.0984613299771" lon="-5.0769785139757">
        <ele>1327.98055648804</ele>
        <time>2018-08-28T09:10:16Z</time>
      </trkpt>
      <trkpt lat="43.0984273413598" lon="-5.07702553645249">
        <ele>1328.00973129272</ele>
        <time>2018-08-28T09:10:18Z</time>
      </trkpt>
      <trkpt lat="43.0984019861027" lon="-5.07707775570925">
        <ele>1328.16817855835</ele>
        <time>2018-08-28T09:10:19Z</time>
      </trkpt>
      <trkpt lat="43.0983564304589" lon="-5.07712452672895">
        <ele>1329.68978500366</ele>
        <time>2018-08-28T09:10:21Z</time>
      </trkpt>
      <trkpt lat="43.0984047521307" lon="-5.07714087144013">
        <ele>1328.98263168335</ele>
        <time>2018-08-28T09:10:24Z</time>
      </trkpt>
      <trkpt lat="43.0984620005294" lon="-5.07715939544614">
        <ele>1327.07699203491</ele>
        <time>2018-08-28T09:10:27Z</time>
      </trkpt>
      <trkpt lat="43.0985148484289" lon="-5.07717833854731">
        <ele>1324.41329574585</ele>
        <time>2018-08-28T09:10:30Z</time>
      </trkpt>
      <trkpt lat="43.0985556263878" lon="-5.07721580565449">
        <ele>1320.47384262085</ele>
        <time>2018-08-28T09:10:36Z</time>
      </trkpt>
      <trkpt lat="43.0986120365961" lon="-5.07725000381943">
        <ele>1313.27145004272</ele>
        <time>2018-08-28T09:10:47Z</time>
      </trkpt>
      <trkpt lat="43.0987005075841" lon="-5.07724187337335">
        <ele>1312.5768699646</ele>
        <time>2018-08-28T09:10:48Z</time>
      </trkpt>
      <trkpt lat="43.0987849971681" lon="-5.07727473043378">
        <ele>1310.78170394897</ele>
        <time>2018-08-28T09:10:50Z</time>
      </trkpt>
      <trkpt lat="43.0988617754011" lon="-5.07729023695465">
        <ele>1309.39535140991</ele>
        <time>2018-08-28T09:10:51Z</time>
      </trkpt>
      <trkpt lat="43.0989861209347" lon="-5.07726467214998">
        <ele>1307.62911605835</ele>
        <time>2018-08-28T09:10:53Z</time>
      </trkpt>
      <trkpt lat="43.0990798725217" lon="-5.07722485810991">
        <ele>1306.03268051147</ele>
        <time>2018-08-28T09:10:54Z</time>
      </trkpt>
      <trkpt lat="43.0991307506739" lon="-5.07720868103679">
        <ele>1304.7067527771</ele>
        <time>2018-08-28T09:10:55Z</time>
      </trkpt>
      <trkpt lat="43.0992077384545" lon="-5.07718663663145">
        <ele>1301.26302719116</ele>
        <time>2018-08-28T09:10:58Z</time>
      </trkpt>
      <trkpt lat="43.0992649449437" lon="-5.07720868103679">
        <ele>1300.53561019897</ele>
        <time>2018-08-28T09:10:59Z</time>
      </trkpt>
      <trkpt lat="43.0993094528495" lon="-5.07719543762978">
        <ele>1298.74032211304</ele>
        <time>2018-08-28T09:11:01Z</time>
      </trkpt>
      <trkpt lat="43.099342393729" lon="-5.0771513488191">
        <ele>1297.04244613647</ele>
        <time>2018-08-28T09:11:02Z</time>
      </trkpt>
      <trkpt lat="43.0994134303584" lon="-5.07710508071359">
        <ele>1295.64864730835</ele>
        <time>2018-08-28T09:11:03Z</time>
      </trkpt>
      <trkpt lat="43.0994873168348" lon="-5.07705889642711">
        <ele>1295.60140609741</ele>
        <time>2018-08-28T09:11:04Z</time>
      </trkpt>
      <trkpt lat="43.0995355965971" lon="-5.077016316359">
        <ele>1293.01266098022</ele>
        <time>2018-08-28T09:11:06Z</time>
      </trkpt>
      <trkpt lat="43.0995977484091" lon="-5.07698873989757">
        <ele>1291.40157699585</ele>
        <time>2018-08-28T09:11:08Z</time>
      </trkpt>
      <trkpt lat="43.09965306897" lon="-5.07693316787954">
        <ele>1291.96957015991</ele>
        <time>2018-08-28T09:11:10Z</time>
      </trkpt>
      <trkpt lat="43.0997687811433" lon="-5.07688698359307">
        <ele>1291.11312484741</ele>
        <time>2018-08-28T09:11:12Z</time>
      </trkpt>
      <trkpt lat="43.0998363811924" lon="-5.07689871825751">
        <ele>1290.77132797241</ele>
        <time>2018-08-28T09:11:13Z</time>
      </trkpt>
      <trkpt lat="43.0999094713881" lon="-5.07689276710625">
        <ele>1289.82528305054</ele>
        <time>2018-08-28T09:11:15Z</time>
      </trkpt>
      <trkpt lat="43.0999640375777" lon="-5.07688421756502">
        <ele>1288.58932113647</ele>
        <time>2018-08-28T09:11:17Z</time>
      </trkpt>
      <trkpt lat="43.1000062823697" lon="-5.07685362361844">
        <ele>1287.22494125366</ele>
        <time>2018-08-28T09:11:20Z</time>
      </trkpt>
      <trkpt lat="43.0999565357744" lon="-5.07682051510092">
        <ele>1277.7829246521</ele>
        <time>2018-08-28T09:11:31Z</time>
      </trkpt>
      <trkpt lat="43.0999478605046" lon="-5.07675639354165">
        <ele>1274.46578598022</ele>
        <time>2018-08-28T09:11:41Z</time>
      </trkpt>
      <trkpt lat="43.0999855790689" lon="-5.07671213709291">
        <ele>1273.12936019897</ele>
        <time>2018-08-28T09:11:52Z</time>
      </trkpt>
      <trkpt lat="43.1000595074548" lon="-5.07669227198239">
        <ele>1271.08993148804</ele>
        <time>2018-08-28T09:11:55Z</time>
      </trkpt>
      <trkpt lat="43.100129957351" lon="-5.07665572688456">
        <ele>1271.29830551147</ele>
        <time>2018-08-28T09:11:57Z</time>
      </trkpt>
      <trkpt lat="43.1001715315907" lon="-5.0766294077086">
        <ele>1271.24129867554</ele>
        <time>2018-08-28T09:11:58Z</time>
      </trkpt>
      <trkpt lat="43.100235736969" lon="-5.07655254565652">
        <ele>1269.99032211304</ele>
        <time>2018-08-28T09:12:00Z</time>
      </trkpt>
      <trkpt lat="43.1002969248622" lon="-5.07647643797572">
        <ele>1266.08382797241</ele>
        <time>2018-08-28T09:12:02Z</time>
      </trkpt>
      <trkpt lat="43.1003813306271" lon="-5.07642874494668">
        <ele>1264.26107406616</ele>
        <time>2018-08-28T09:12:04Z</time>
      </trkpt>
      <trkpt lat="43.100454923737" lon="-5.07641449571129">
        <ele>1263.35860824585</ele>
        <time>2018-08-28T09:12:06Z</time>
      </trkpt>
      <trkpt lat="43.1005093222885" lon="-5.07641290314968">
        <ele>1258.72591781616</ele>
        <time>2018-08-28T09:12:10Z</time>
      </trkpt>
      <trkpt lat="43.1005546683847" lon="-5.07645070553299">
        <ele>1257.40938949585</ele>
        <time>2018-08-28T09:12:12Z</time>
      </trkpt>
      <trkpt lat="43.1005972484528" lon="-5.07651633583482">
        <ele>1256.61971664429</ele>
        <time>2018-08-28T09:12:14Z</time>
      </trkpt>
      <trkpt lat="43.1006612442835" lon="-5.07658397779341">
        <ele>1257.02853012085</ele>
        <time>2018-08-28T09:12:16Z</time>
      </trkpt>
      <trkpt lat="43.1006853003456" lon="-5.07664214820143">
        <ele>1255.54415512085</ele>
        <time>2018-08-28T09:12:24Z</time>
      </trkpt>
      <trkpt lat="43.1007351726695" lon="-5.07666343823548">
        <ele>1244.97513198853</ele>
        <time>2018-08-28T09:12:55Z</time>
      </trkpt>
      <trkpt lat="43.1007767469092" lon="-5.07669009268757">
        <ele>1245.28177261353</ele>
        <time>2018-08-28T09:12:58Z</time>
      </trkpt>
      <trkpt lat="43.1008230569242" lon="-5.07673099637504">
        <ele>1246.46341323853</ele>
        <time>2018-08-28T09:13:02Z</time>
      </trkpt>
      <trkpt lat="43.1008716300531" lon="-5.07674910128589">
        <ele>1245.42325210571</ele>
        <time>2018-08-28T09:13:05Z</time>
      </trkpt>
      <trkpt lat="43.1009181496157" lon="-5.07676812820609">
        <ele>1244.17923355103</ele>
        <time>2018-08-28T09:13:09Z</time>
      </trkpt>
      <trkpt lat="43.1009732606291" lon="-5.07677441463347">
        <ele>1243.44534683228</ele>
        <time>2018-08-28T09:13:13Z</time>
      </trkpt>
      <trkpt lat="43.101019403006" lon="-5.07676636800643">
        <ele>1242.3801612854</ele>
        <time>2018-08-28T09:13:16Z</time>
      </trkpt>
      <trkpt lat="43.1010775315045" lon="-5.07678464055534">
        <ele>1242.65420913696</ele>
        <time>2018-08-28T09:13:20Z</time>
      </trkpt>
      <trkpt lat="43.101129080209" lon="-5.07679067552562">
        <ele>1241.90079116821</ele>
        <time>2018-08-28T09:13:24Z</time>
      </trkpt>
      <trkpt lat="43.1011827662989" lon="-5.0767921842682">
        <ele>1240.7082862854</ele>
        <time>2018-08-28T09:13:27Z</time>
      </trkpt>
      <trkpt lat="43.1012447504728" lon="-5.07677877322312">
        <ele>1239.57278823853</ele>
        <time>2018-08-28T09:13:30Z</time>
      </trkpt>
      <trkpt lat="43.1012944551586" lon="-5.0767591595697">
        <ele>1238.69876480103</ele>
        <time>2018-08-28T09:13:32Z</time>
      </trkpt>
      <trkpt lat="43.1013540923997" lon="-5.07672839798506">
        <ele>1238.41971206665</ele>
        <time>2018-08-28T09:13:35Z</time>
      </trkpt>
      <trkpt lat="43.1013953732728" lon="-5.07669830695267">
        <ele>1237.70181655884</ele>
        <time>2018-08-28T09:13:37Z</time>
      </trkpt>
      <trkpt lat="43.1014115922554" lon="-5.07663200609859">
        <ele>1237.42093276978</ele>
        <time>2018-08-28T09:13:40Z</time>
      </trkpt>
      <trkpt lat="43.1014505261957" lon="-5.076593449344">
        <ele>1236.73233413696</ele>
        <time>2018-08-28T09:13:45Z</time>
      </trkpt>
      <trkpt lat="43.1015053019329" lon="-5.07661968470093">
        <ele>1236.48831558228</ele>
        <time>2018-08-28T09:13:49Z</time>
      </trkpt>
      <trkpt lat="43.1015523663192" lon="-5.07661046460744">
        <ele>1236.31949234009</ele>
        <time>2018-08-28T09:13:51Z</time>
      </trkpt>
      <trkpt lat="43.1016111234604" lon="-5.07657844573732">
        <ele>1235.44180679321</ele>
        <time>2018-08-28T09:13:54Z</time>
      </trkpt>
      <trkpt lat="43.1016710959776" lon="-5.07656134665485">
        <ele>1234.45547866821</ele>
        <time>2018-08-28T09:13:58Z</time>
      </trkpt>
      <trkpt lat="43.1017267099052" lon="-5.07657274604316">
        <ele>1233.9309425354</ele>
        <time>2018-08-28T09:14:01Z</time>
      </trkpt>
      <trkpt lat="43.1017786357953" lon="-5.07657467388089">
        <ele>1233.78982925415</ele>
        <time>2018-08-28T09:14:03Z</time>
      </trkpt>
      <trkpt lat="43.1018221797823" lon="-5.07655732334133">
        <ele>1233.50442886353</ele>
        <time>2018-08-28T09:14:05Z</time>
      </trkpt>
      <trkpt lat="43.101876829791" lon="-5.07652991451796">
        <ele>1232.21988296509</ele>
        <time>2018-08-28T09:14:07Z</time>
      </trkpt>
      <trkpt lat="43.1019397778838" lon="-5.07650828920778">
        <ele>1230.77933120728</ele>
        <time>2018-08-28T09:14:09Z</time>
      </trkpt>
      <trkpt lat="43.1019863393559" lon="-5.07649596781011">
        <ele>1228.34964370728</ele>
        <time>2018-08-28T09:14:15Z</time>
      </trkpt>
      <trkpt lat="43.1020422466501" lon="-5.07647719234701">
        <ele>1227.53165054321</ele>
        <time>2018-08-28T09:14:19Z</time>
      </trkpt>
      <trkpt lat="43.1020837370708" lon="-5.07644550875302">
        <ele>1224.91250991821</ele>
        <time>2018-08-28T09:14:22Z</time>
      </trkpt>
      <trkpt lat="43.1021386804461" lon="-5.07639261894401">
        <ele>1222.8264503479</ele>
        <time>2018-08-28T09:14:26Z</time>
      </trkpt>
      <trkpt lat="43.1021889718651" lon="-5.07635766640778">
        <ele>1221.47171401978</ele>
        <time>2018-08-28T09:14:28Z</time>
      </trkpt>
      <trkpt lat="43.1022265647008" lon="-5.07632246241446">
        <ele>1221.39029312134</ele>
        <time>2018-08-28T09:14:30Z</time>
      </trkpt>
      <trkpt lat="43.1022663787409" lon="-5.0762876775163">
        <ele>1220.08340835571</ele>
        <time>2018-08-28T09:14:32Z</time>
      </trkpt>
      <trkpt lat="43.10232098684" lon="-5.07627225481446">
        <ele>1218.98282241821</ele>
        <time>2018-08-28T09:14:34Z</time>
      </trkpt>
      <trkpt lat="43.1023700628831" lon="-5.07625155151363">
        <ele>1217.43228530884</ele>
        <time>2018-08-28T09:14:36Z</time>
      </trkpt>
      <trkpt lat="43.102418636012" lon="-5.07622246630963">
        <ele>1216.62210464478</ele>
        <time>2018-08-28T09:14:38Z</time>
      </trkpt>
      <trkpt lat="43.1024622219085" lon="-5.07620293647524">
        <ele>1215.8479347229</ele>
        <time>2018-08-28T09:14:41Z</time>
      </trkpt>
      <trkpt lat="43.1025130162417" lon="-5.07615641691263">
        <ele>1213.90079116821</ele>
        <time>2018-08-28T09:14:53Z</time>
      </trkpt>
      <trkpt lat="43.1025421433552" lon="-5.07610855624552">
        <ele>1212.89615249634</ele>
        <time>2018-08-28T09:15:02Z</time>
      </trkpt>
      <trkpt lat="43.1025744975015" lon="-5.07605683990296">
        <ele>1212.2356300354</ele>
        <time>2018-08-28T09:15:12Z</time>
      </trkpt>
      <trkpt lat="43.1026090309425" lon="-5.07599816658075">
        <ele>1212.07315444946</ele>
        <time>2018-08-28T09:15:17Z</time>
      </trkpt>
      <trkpt lat="43.1026603281899" lon="-5.07595659234102">
        <ele>1211.29690933228</ele>
        <time>2018-08-28T09:15:20Z</time>
      </trkpt>
      <trkpt lat="43.1027233601018" lon="-5.07592205889996">
        <ele>1210.7219581604</ele>
        <time>2018-08-28T09:15:22Z</time>
      </trkpt>
      <trkpt lat="43.1028022757201" lon="-5.07590202615138">
        <ele>1209.77481460571</ele>
        <time>2018-08-28T09:15:24Z</time>
      </trkpt>
      <trkpt lat="43.1028809817909" lon="-5.07585869171198">
        <ele>1208.64224624634</ele>
        <time>2018-08-28T09:15:26Z</time>
      </trkpt>
      <trkpt lat="43.102956544648" lon="-5.0757974199998">
        <ele>1205.42190933228</ele>
        <time>2018-08-28T09:15:28Z</time>
      </trkpt>
      <trkpt lat="43.1030316884099" lon="-5.07574168034371">
        <ele>1202.40579605103</ele>
        <time>2018-08-28T09:15:30Z</time>
      </trkpt>
      <trkpt lat="43.103074017021" lon="-5.07567630149897">
        <ele>1202.88223648071</ele>
        <time>2018-08-28T09:15:32Z</time>
      </trkpt>
      <trkpt lat="43.1031203689455" lon="-5.07564562373336">
        <ele>1195.51456069946</ele>
        <time>2018-08-28T09:15:41Z</time>
      </trkpt>
      <trkpt lat="43.1031767372443" lon="-5.07565777749296">
        <ele>1194.33060073853</ele>
        <time>2018-08-28T09:15:45Z</time>
      </trkpt>
      <trkpt lat="43.1032193173124" lon="-5.07568602450665">
        <ele>1193.36673355103</ele>
        <time>2018-08-28T09:15:48Z</time>
      </trkpt>
      <trkpt lat="43.1032654596894" lon="-5.0756988488185">
        <ele>1194.24893569946</ele>
        <time>2018-08-28T09:15:53Z</time>
      </trkpt>
      <trkpt lat="43.1033324730053" lon="-5.07569926791366">
        <ele>1193.40311050415</ele>
        <time>2018-08-28T09:15:56Z</time>
      </trkpt>
      <trkpt lat="43.1034086645051" lon="-5.07571427152033">
        <ele>1192.90140151978</ele>
        <time>2018-08-28T09:15:58Z</time>
      </trkpt>
      <trkpt lat="43.1034525856777" lon="-5.07573044859346">
        <ele>1192.45840835571</ele>
        <time>2018-08-28T09:15:59Z</time>
      </trkpt>
      <trkpt lat="43.1034953333839" lon="-5.075760958721">
        <ele>1190.61771011353</ele>
        <time>2018-08-28T09:16:01Z</time>
      </trkpt>
      <trkpt lat="43.1035150308563" lon="-5.07581887767192">
        <ele>1191.40054702759</ele>
        <time>2018-08-28T09:16:06Z</time>
      </trkpt>
      <trkpt lat="43.1035586167528" lon="-5.07587805390831">
        <ele>1191.65982437134</ele>
        <time>2018-08-28T09:16:14Z</time>
      </trkpt>
      <trkpt lat="43.1036033761158" lon="-5.0758991763043">
        <ele>1187.75857925415</ele>
        <time>2018-08-28T09:16:19Z</time>
      </trkpt>
      <trkpt lat="43.10365148824" lon="-5.07589775138076">
        <ele>1186.28958511353</ele>
        <time>2018-08-28T09:16:25Z</time>
      </trkpt>
      <trkpt lat="43.1036994327261" lon="-5.07587034255739">
        <ele>1185.62198257446</ele>
        <time>2018-08-28T09:16:30Z</time>
      </trkpt>
      <trkpt lat="43.1037169509037" lon="-5.07580865175005">
        <ele>1182.03091812134</ele>
        <time>2018-08-28T09:16:39Z</time>
      </trkpt>
      <trkpt lat="43.1036841357528" lon="-5.07575500756975">
        <ele>1179.38077163696</ele>
        <time>2018-08-28T09:16:46Z</time>
      </trkpt>
      <trkpt lat="43.1036818307294" lon="-5.07569348440047">
        <ele>1178.2981300354</ele>
        <time>2018-08-28T09:16:55Z</time>
      </trkpt>
      <trkpt lat="43.1037292723014" lon="-5.07568376139279">
        <ele>1175.29251480103</ele>
        <time>2018-08-28T09:17:07Z</time>
      </trkpt>
      <trkpt lat="43.1037801504537" lon="-5.0756676681387">
        <ele>1173.92264175415</ele>
        <time>2018-08-28T09:17:15Z</time>
      </trkpt>
      <trkpt lat="43.103823401074" lon="-5.0756454560953">
        <ele>1172.24856948853</ele>
        <time>2018-08-28T09:17:21Z</time>
      </trkpt>
      <trkpt lat="43.1038707169174" lon="-5.07561209612067">
        <ele>1172.83218765259</ele>
        <time>2018-08-28T09:17:29Z</time>
      </trkpt>
      <trkpt lat="43.1039152667328" lon="-5.07560161874171">
        <ele>1169.96500015259</ele>
        <time>2018-08-28T09:17:34Z</time>
      </trkpt>
      <trkpt lat="43.1039669830753" lon="-5.07561184466358">
        <ele>1167.39822769165</ele>
        <time>2018-08-28T09:17:40Z</time>
      </trkpt>
      <trkpt lat="43.1040120358049" lon="-5.07563422434505">
        <ele>1166.17337417603</ele>
        <time>2018-08-28T09:17:47Z</time>
      </trkpt>
      <trkpt lat="43.1040675659134" lon="-5.07561687380548">
        <ele>1164.41263198853</ele>
        <time>2018-08-28T09:17:51Z</time>
      </trkpt>
      <trkpt lat="43.1041146722092" lon="-5.07562559098478">
        <ele>1163.44156265259</ele>
        <time>2018-08-28T09:17:55Z</time>
      </trkpt>
      <trkpt lat="43.1041570008203" lon="-5.07564696483787">
        <ele>1163.57706069946</ele>
        <time>2018-08-28T09:18:00Z</time>
      </trkpt>
      <trkpt lat="43.1041948032036" lon="-5.07569583133336">
        <ele>1163.4602394104</ele>
        <time>2018-08-28T09:18:07Z</time>
      </trkpt>
      <trkpt lat="43.1042410713091" lon="-5.07571318187292">
        <ele>1163.20706558228</ele>
        <time>2018-08-28T09:18:15Z</time>
      </trkpt>
      <trkpt lat="43.1042854953959" lon="-5.07572826929863">
        <ele>1162.4485206604</ele>
        <time>2018-08-28T09:18:37Z</time>
      </trkpt>
      <trkpt lat="43.1043303804874" lon="-5.07570974529262">
        <ele>1162.09158706665</ele>
        <time>2018-08-28T09:18:44Z</time>
      </trkpt>
      <trkpt lat="43.1043608906149" lon="-5.07564688101884">
        <ele>1161.1516456604</ele>
        <time>2018-08-28T09:18:53Z</time>
      </trkpt>
      <trkpt lat="43.1043722061842" lon="-5.07558343001183">
        <ele>1159.37002944946</ele>
        <time>2018-08-28T09:19:00Z</time>
      </trkpt>
      <trkpt lat="43.1043844018533" lon="-5.07552115247126">
        <ele>1157.41800308228</ele>
        <time>2018-08-28T09:19:06Z</time>
      </trkpt>
      <trkpt lat="43.1044126069575" lon="-5.0754723697948">
        <ele>1155.93460464478</ele>
        <time>2018-08-28T09:19:12Z</time>
      </trkpt>
      <trkpt lat="43.1044512894406" lon="-5.07543247193571">
        <ele>1155.41446304321</ele>
        <time>2018-08-28T09:19:20Z</time>
      </trkpt>
      <trkpt lat="43.1044943724229" lon="-5.07539852522786">
        <ele>1154.54971694946</ele>
        <time>2018-08-28T09:19:27Z</time>
      </trkpt>
      <trkpt lat="43.10454223309" lon="-5.07538444363053">
        <ele>1153.69217300415</ele>
        <time>2018-08-28T09:19:32Z</time>
      </trkpt>
      <trkpt lat="43.1045862380817" lon="-5.07534085773404">
        <ele>1153.02676773071</ele>
        <time>2018-08-28T09:19:40Z</time>
      </trkpt>
      <trkpt lat="43.1046289019688" lon="-5.07530498318847">
        <ele>1151.94400405884</ele>
        <time>2018-08-28T09:19:45Z</time>
      </trkpt>
      <trkpt lat="43.1046738289698" lon="-5.07527422160383">
        <ele>1151.36050796509</ele>
        <time>2018-08-28T09:19:49Z</time>
      </trkpt>
      <trkpt lat="43.1047301972686" lon="-5.07528620772536">
        <ele>1149.10367202759</ele>
        <time>2018-08-28T09:19:52Z</time>
      </trkpt>
      <trkpt lat="43.1047793990403" lon="-5.07530473173137">
        <ele>1147.24368667603</ele>
        <time>2018-08-28T09:19:55Z</time>
      </trkpt>
      <trkpt lat="43.1048446102469" lon="-5.07530766539748">
        <ele>1145.70486831665</ele>
        <time>2018-08-28T09:19:57Z</time>
      </trkpt>
      <trkpt lat="43.1049013976409" lon="-5.07532308809932">
        <ele>1142.8401222229</ele>
        <time>2018-08-28T09:19:59Z</time>
      </trkpt>
      <trkpt lat="43.1049437262519" lon="-5.07535167038913">
        <ele>1140.03079605103</ele>
        <time>2018-08-28T09:20:01Z</time>
      </trkpt>
      <trkpt lat="43.1049753260269" lon="-5.07541059516843">
        <ele>1139.19107437134</ele>
        <time>2018-08-28T09:20:03Z</time>
      </trkpt>
      <trkpt lat="43.1050053332402" lon="-5.07547731511768">
        <ele>1137.18570327759</ele>
        <time>2018-08-28T09:20:08Z</time>
      </trkpt>
      <trkpt lat="43.1050267490028" lon="-5.07553741336342">
        <ele>1135.61673355103</ele>
        <time>2018-08-28T09:20:14Z</time>
      </trkpt>
      <trkpt lat="43.1050557084783" lon="-5.07559223101016">
        <ele>1136.26016616821</ele>
        <time>2018-08-28T09:20:22Z</time>
      </trkpt>
      <trkpt lat="43.1050908286526" lon="-5.07563564926859">
        <ele>1134.7864112854</ele>
        <time>2018-08-28T09:20:32Z</time>
      </trkpt>
      <trkpt lat="43.1051391084149" lon="-5.07565375417944">
        <ele>1132.53177261353</ele>
        <time>2018-08-28T09:20:44Z</time>
      </trkpt>
      <trkpt lat="43.1051819399401" lon="-5.07568024099346">
        <ele>1131.41360855103</ele>
        <time>2018-08-28T09:20:55Z</time>
      </trkpt>
      <trkpt lat="43.1052299682452" lon="-5.07571175694938">
        <ele>1129.23086929321</ele>
        <time>2018-08-28T09:21:07Z</time>
      </trkpt>
      <trkpt lat="43.1052764458983" lon="-5.07572592236574">
        <ele>1126.8635597229</ele>
        <time>2018-08-28T09:21:14Z</time>
      </trkpt>
      <trkpt lat="43.1053228397324" lon="-5.07574243471499">
        <ele>1125.86197280884</ele>
        <time>2018-08-28T09:21:22Z</time>
      </trkpt>
      <trkpt lat="43.1053683115571" lon="-5.07574930787559">
        <ele>1124.63736343384</ele>
        <time>2018-08-28T09:21:28Z</time>
      </trkpt>
      <trkpt lat="43.105419650714" lon="-5.07574159652467">
        <ele>1123.86331558228</ele>
        <time>2018-08-28T09:21:33Z</time>
      </trkpt>
      <trkpt lat="43.105463110882" lon="-5.07578409277375">
        <ele>1124.12186050415</ele>
        <time>2018-08-28T09:21:38Z</time>
      </trkpt>
      <trkpt lat="43.1054920284479" lon="-5.07583731785889">
        <ele>1121.27811050415</ele>
        <time>2018-08-28T09:21:52Z</time>
      </trkpt>
      <trkpt lat="43.1055511627748" lon="-5.07586816326256">
        <ele>1121.41800308228</ele>
        <time>2018-08-28T09:21:55Z</time>
      </trkpt>
      <trkpt lat="43.1056083692639" lon="-5.07584787905689">
        <ele>1120.96695327759</ele>
        <time>2018-08-28T09:21:57Z</time>
      </trkpt>
      <trkpt lat="43.1056694314285" lon="-5.07582365535672">
        <ele>1121.55655288696</ele>
        <time>2018-08-28T09:21:59Z</time>
      </trkpt>
      <trkpt lat="43.1057451619237" lon="-5.07583069615539">
        <ele>1116.45572280884</ele>
        <time>2018-08-28T09:22:01Z</time>
      </trkpt>
      <trkpt lat="43.1058180425718" lon="-5.07585600950297">
        <ele>1114.76443862915</ele>
        <time>2018-08-28T09:22:03Z</time>
      </trkpt>
      <trkpt lat="43.1058757519751" lon="-5.0758801493841">
        <ele>1111.35733413696</ele>
        <time>2018-08-28T09:22:05Z</time>
      </trkpt>
      <trkpt lat="43.105924408923" lon="-5.07589079440113">
        <ele>1108.81631851196</ele>
        <time>2018-08-28T09:22:08Z</time>
      </trkpt>
      <trkpt lat="43.1059738202422" lon="-5.07590814494069">
        <ele>1108.72354507446</ele>
        <time>2018-08-28T09:22:11Z</time>
      </trkpt>
      <trkpt lat="43.1060219742759" lon="-5.07594058290597">
        <ele>1107.01626968384</ele>
        <time>2018-08-28T09:22:15Z</time>
      </trkpt>
      <trkpt lat="43.1060707150429" lon="-5.07597612217541">
        <ele>1105.74100112915</ele>
        <time>2018-08-28T09:22:18Z</time>
      </trkpt>
      <trkpt lat="43.1061219703808" lon="-5.07599104196306">
        <ele>1104.42166519165</ele>
        <time>2018-08-28T09:22:20Z</time>
      </trkpt>
      <trkpt lat="43.1061787577747" lon="-5.07600344717975">
        <ele>1102.7864112854</ele>
        <time>2018-08-28T09:22:22Z</time>
      </trkpt>
      <trkpt lat="43.1062303064792" lon="-5.07600520737942">
        <ele>1100.64407730103</ele>
        <time>2018-08-28T09:22:24Z</time>
      </trkpt>
      <trkpt lat="43.106245393905" lon="-5.07609648630496">
        <ele>1097.91495132446</ele>
        <time>2018-08-28T09:22:34Z</time>
      </trkpt>
      <trkpt lat="43.1062626606255" lon="-5.07616035640712">
        <ele>1097.15726089478</ele>
        <time>2018-08-28T09:22:40Z</time>
      </trkpt>
      <trkpt lat="43.1062971102475" lon="-5.07620058954235">
        <ele>1096.46158218384</ele>
        <time>2018-08-28T09:23:05Z</time>
      </trkpt>
      <trkpt lat="43.1062977807998" lon="-5.07628533058341">
        <ele>1094.6262550354</ele>
        <time>2018-08-28T09:26:32Z</time>
      </trkpt>
      <trkpt lat="43.106343210715" lon="-5.07626915351029">
        <ele>1093.79935073853</ele>
        <time>2018-08-28T09:26:39Z</time>
      </trkpt>
      <trkpt lat="43.1063887663587" lon="-5.07628390565987">
        <ele>1091.99722671509</ele>
        <time>2018-08-28T09:26:47Z</time>
      </trkpt>
      <trkpt lat="43.1064366270258" lon="-5.07629631087657">
        <ele>1091.60220718384</ele>
        <time>2018-08-28T09:26:52Z</time>
      </trkpt>
      <trkpt lat="43.106486122164" lon="-5.07630393840845">
        <ele>1089.74405288696</ele>
        <time>2018-08-28T09:26:57Z</time>
      </trkpt>
      <trkpt lat="43.1065479386999" lon="-5.07632346824284">
        <ele>1088.50735855103</ele>
        <time>2018-08-28T09:27:13Z</time>
      </trkpt>
      <trkpt lat="43.106620903167" lon="-5.07636521012064">
        <ele>1088.27713394165</ele>
        <time>2018-08-28T09:27:15Z</time>
      </trkpt>
      <trkpt lat="43.1066683866485" lon="-5.07639396004852">
        <ele>1088.57315444946</ele>
        <time>2018-08-28T09:27:16Z</time>
      </trkpt>
      <trkpt lat="43.1067137327447" lon="-5.07641768083449">
        <ele>1088.55533218384</ele>
        <time>2018-08-28T09:27:17Z</time>
      </trkpt>
      <trkpt lat="43.1068372400879" lon="-5.07641994394835">
        <ele>1087.70499038696</ele>
        <time>2018-08-28T09:27:19Z</time>
      </trkpt>
      <trkpt lat="43.1068938179343" lon="-5.07646629587289">
        <ele>1086.98099136353</ele>
        <time>2018-08-28T09:27:21Z</time>
      </trkpt>
      <trkpt lat="43.1069401279493" lon="-5.07645992562648">
        <ele>1086.44900894165</ele>
        <time>2018-08-28T09:27:22Z</time>
      </trkpt>
      <trkpt lat="43.1070114998548" lon="-5.07642262615736">
        <ele>1085.80081558228</ele>
        <time>2018-08-28T09:27:23Z</time>
      </trkpt>
      <trkpt lat="43.1070810277416" lon="-5.07639764808591">
        <ele>1084.19351577759</ele>
        <time>2018-08-28T09:27:24Z</time>
      </trkpt>
      <trkpt lat="43.1071472447767" lon="-5.07640167139943">
        <ele>1083.50955581665</ele>
        <time>2018-08-28T09:27:25Z</time>
      </trkpt>
      <trkpt lat="43.1072132522642" lon="-5.07641223259743">
        <ele>1083.76626968384</ele>
        <time>2018-08-28T09:27:26Z</time>
      </trkpt>
      <trkpt lat="43.107289359945" lon="-5.07643327117439">
        <ele>1082.72183609009</ele>
        <time>2018-08-28T09:27:27Z</time>
      </trkpt>
      <trkpt lat="43.107339567545" lon="-5.07646227255936">
        <ele>1081.50491714478</ele>
        <time>2018-08-28T09:27:28Z</time>
      </trkpt>
      <trkpt lat="43.1074041920184" lon="-5.07646813989158">
        <ele>1080.74588394165</ele>
        <time>2018-08-28T09:27:29Z</time>
      </trkpt>
      <trkpt lat="43.1074613565981" lon="-5.07650041021879">
        <ele>1079.73965835571</ele>
        <time>2018-08-28T09:27:30Z</time>
      </trkpt>
      <trkpt lat="43.1075307168468" lon="-5.07650954649325">
        <ele>1079.21011734009</ele>
        <time>2018-08-28T09:27:31Z</time>
      </trkpt>
      <trkpt lat="43.1075872527837" lon="-5.07651641965385">
        <ele>1079.12259292603</ele>
        <time>2018-08-28T09:27:32Z</time>
      </trkpt>
      <trkpt lat="43.1076657073974" lon="-5.07647224702414">
        <ele>1078.09817886353</ele>
        <time>2018-08-28T09:27:33Z</time>
      </trkpt>
      <trkpt lat="43.1077457964822" lon="-5.07643142715569">
        <ele>1077.13077163696</ele>
        <time>2018-08-28T09:27:34Z</time>
      </trkpt>
      <trkpt lat="43.1077656196832" lon="-5.07636747323449">
        <ele>1076.88431167603</ele>
        <time>2018-08-28T09:27:35Z</time>
      </trkpt>
      <trkpt lat="43.1078599580034" lon="-5.07633268833633">
        <ele>1074.31814956665</ele>
        <time>2018-08-28T09:27:37Z</time>
      </trkpt>
      <trkpt lat="43.1078401348024" lon="-5.07623864338275">
        <ele>1073.96670913696</ele>
        <time>2018-08-28T09:27:38Z</time>
      </trkpt>
      <trkpt lat="43.1078348542034" lon="-5.0761703308719">
        <ele>1073.62552261353</ele>
        <time>2018-08-28T09:27:39Z</time>
      </trkpt>
      <trkpt lat="43.1078481814294" lon="-5.07610277273234">
        <ele>1072.13870620728</ele>
        <time>2018-08-28T09:27:41Z</time>
      </trkpt>
      <trkpt lat="43.107818090397" lon="-5.07602054626222">
        <ele>1069.9338722229</ele>
        <time>2018-08-28T09:27:44Z</time>
      </trkpt>
      <trkpt lat="43.1078485586151" lon="-5.07596421987291">
        <ele>1065.76919937134</ele>
        <time>2018-08-28T09:27:47Z</time>
      </trkpt>
      <trkpt lat="43.1079009455099" lon="-5.0759715959477">
        <ele>1061.63968276978</ele>
        <time>2018-08-28T09:27:49Z</time>
      </trkpt>
      <trkpt lat="43.107950021553" lon="-5.07600076497074">
        <ele>1057.37649917603</ele>
        <time>2018-08-28T09:27:51Z</time>
      </trkpt>
      <trkpt lat="43.1080008158862" lon="-5.07611433975871">
        <ele>1056.50894546509</ele>
        <time>2018-08-28T09:27:53Z</time>
      </trkpt>
      <trkpt lat="43.1080265064194" lon="-5.0761700794148">
        <ele>1054.96548843384</ele>
        <time>2018-08-28T09:27:54Z</time>
      </trkpt>
      <trkpt lat="43.1080674520164" lon="-5.07623336278375">
        <ele>1053.64786148071</ele>
        <time>2018-08-28T09:27:56Z</time>
      </trkpt>
      <trkpt lat="43.1081096129893" lon="-5.07626856677707">
        <ele>1052.48794937134</ele>
        <time>2018-08-28T09:27:59Z</time>
      </trkpt>
      <trkpt lat="43.1081514386862" lon="-5.07632237859543">
        <ele>1049.50357437134</ele>
        <time>2018-08-28T09:28:01Z</time>
      </trkpt>
      <trkpt lat="43.1082010176434" lon="-5.07638582960244">
        <ele>1046.89017105103</ele>
        <time>2018-08-28T09:28:03Z</time>
      </trkpt>
      <trkpt lat="43.1082385266601" lon="-5.07642815821346">
        <ele>1047.17288589478</ele>
        <time>2018-08-28T09:28:04Z</time>
      </trkpt>
      <trkpt lat="43.1082915002882" lon="-5.07649881765719">
        <ele>1046.71854019165</ele>
        <time>2018-08-28T09:28:06Z</time>
      </trkpt>
      <trkpt lat="43.1083632493793" lon="-5.07650904357906">
        <ele>1045.2463722229</ele>
        <time>2018-08-28T09:28:08Z</time>
      </trkpt>
      <trkpt lat="43.1084049074381" lon="-5.07643746212598">
        <ele>1044.00650405884</ele>
        <time>2018-08-28T09:28:10Z</time>
      </trkpt>
      <trkpt lat="43.1083795102715" lon="-5.07631500252064">
        <ele>1043.69241714478</ele>
        <time>2018-08-28T09:28:12Z</time>
      </trkpt>
      <trkpt lat="43.1083615729987" lon="-5.07625574246522">
        <ele>1043.24771499634</ele>
        <time>2018-08-28T09:28:13Z</time>
      </trkpt>
      <trkpt lat="43.108341204974" lon="-5.07616111077841">
        <ele>1041.93118667603</ele>
        <time>2018-08-28T09:28:15Z</time>
      </trkpt>
      <trkpt lat="43.1082925061165" lon="-5.07613311522182">
        <ele>1039.22269058228</ele>
        <time>2018-08-28T09:28:30Z</time>
      </trkpt>
      <trkpt lat="43.1082442682638" lon="-5.07597201504286">
        <ele>1036.8508644104</ele>
        <time>2018-08-28T09:28:32Z</time>
      </trkpt>
      <trkpt lat="43.1082496326818" lon="-5.07590554655071">
        <ele>1035.17776870728</ele>
        <time>2018-08-28T09:28:33Z</time>
      </trkpt>
      <trkpt lat="43.1082974514394" lon="-5.0758352223831">
        <ele>1034.38589859009</ele>
        <time>2018-08-28T09:28:34Z</time>
      </trkpt>
      <trkpt lat="43.1083435938164" lon="-5.07580068894203">
        <ele>1033.40677261353</ele>
        <time>2018-08-28T09:28:35Z</time>
      </trkpt>
      <trkpt lat="43.1084409077122" lon="-5.07582298480447">
        <ele>1032.2424659729</ele>
        <time>2018-08-28T09:28:36Z</time>
      </trkpt>
      <trkpt lat="43.1085356651275" lon="-5.07582742721315">
        <ele>1031.15115737915</ele>
        <time>2018-08-28T09:28:37Z</time>
      </trkpt>
      <trkpt lat="43.1086123595416" lon="-5.07582918741282">
        <ele>1030.13089370728</ele>
        <time>2018-08-28T09:28:38Z</time>
      </trkpt>
      <trkpt lat="43.1086753495439" lon="-5.07584494539078">
        <ele>1029.29605484009</ele>
        <time>2018-08-28T09:28:39Z</time>
      </trkpt>
      <trkpt lat="43.108750828582" lon="-5.07578442804988">
        <ele>1027.59268569946</ele>
        <time>2018-08-28T09:28:41Z</time>
      </trkpt>
      <trkpt lat="43.1087820092618" lon="-5.07573623210664">
        <ele>1027.22415542603</ele>
        <time>2018-08-28T09:28:42Z</time>
      </trkpt>
      <trkpt lat="43.1088295346527" lon="-5.07569348440047">
        <ele>1025.72525405884</ele>
        <time>2018-08-28T09:28:43Z</time>
      </trkpt>
      <trkpt lat="43.1086955918401" lon="-5.0756433606195">
        <ele>1023.95779800415</ele>
        <time>2018-08-28T09:28:45Z</time>
      </trkpt>
      <trkpt lat="43.1086507905676" lon="-5.07561938837643">
        <ele>1023.64358901978</ele>
        <time>2018-08-28T09:28:46Z</time>
      </trkpt>
      <trkpt lat="43.1086409837409" lon="-5.07552961819347">
        <ele>1024.49759292603</ele>
        <time>2018-08-28T09:28:48Z</time>
      </trkpt>
      <trkpt lat="43.10867828321" lon="-5.07545627654071">
        <ele>1024.23672866821</ele>
        <time>2018-08-28T09:28:49Z</time>
      </trkpt>
      <trkpt lat="43.1087114755466" lon="-5.07539726794239">
        <ele>1024.85428237915</ele>
        <time>2018-08-28T09:28:50Z</time>
      </trkpt>
      <trkpt lat="43.1087732920825" lon="-5.07530255243655">
        <ele>1023.53970718384</ele>
        <time>2018-08-28T09:28:52Z</time>
      </trkpt>
      <trkpt lat="43.1088118069275" lon="-5.07524035871502">
        <ele>1022.99917984009</ele>
        <time>2018-08-28T09:28:53Z</time>
      </trkpt>
      <trkpt lat="43.1088618468895" lon="-5.07518914528664">
        <ele>1021.53506851196</ele>
        <time>2018-08-28T09:28:54Z</time>
      </trkpt>
      <trkpt lat="43.1089143176033" lon="-5.07513466291602">
        <ele>1021.3118019104</ele>
        <time>2018-08-28T09:28:55Z</time>
      </trkpt>
      <trkpt lat="43.108964986208" lon="-5.07509116083856">
        <ele>1020.47171401978</ele>
        <time>2018-08-28T09:28:56Z</time>
      </trkpt>
      <trkpt lat="43.1090396270557" lon="-5.07505402900751">
        <ele>1019.23501968384</ele>
        <time>2018-08-28T09:28:57Z</time>
      </trkpt>
      <trkpt lat="43.1091032037913" lon="-5.07501186803456">
        <ele>1018.52420425415</ele>
        <time>2018-08-28T09:28:58Z</time>
      </trkpt>
      <trkpt lat="43.1091701332881" lon="-5.07495554164525">
        <ele>1018.8498878479</ele>
        <time>2018-08-28T09:28:59Z</time>
      </trkpt>
      <trkpt lat="43.1092422595649" lon="-5.07490483113106">
        <ele>1018.68814468384</ele>
        <time>2018-08-28T09:29:00Z</time>
      </trkpt>
      <trkpt lat="43.1092978315829" lon="-5.07483190857347">
        <ele>1017.64419937134</ele>
        <time>2018-08-28T09:29:01Z</time>
      </trkpt>
      <trkpt lat="43.1093655992701" lon="-5.0747490115511">
        <ele>1016.59585952759</ele>
        <time>2018-08-28T09:29:02Z</time>
      </trkpt>
      <trkpt lat="43.1094267871632" lon="-5.07465991192039">
        <ele>1015.60855484009</ele>
        <time>2018-08-28T09:29:03Z</time>
      </trkpt>
      <trkpt lat="43.1094798446103" lon="-5.07455145009335">
        <ele>1015.18045425415</ele>
        <time>2018-08-28T09:29:04Z</time>
      </trkpt>
      <trkpt lat="43.1095283339202" lon="-5.07443754002924">
        <ele>1016.30252456665</ele>
        <time>2018-08-28T09:29:05Z</time>
      </trkpt>
      <trkpt lat="43.1095708720787" lon="-5.07434282452341">
        <ele>1015.1311378479</ele>
        <time>2018-08-28T09:29:06Z</time>
      </trkpt>
      <trkpt lat="43.1096308445959" lon="-5.07423226722057">
        <ele>1012.89358901978</ele>
        <time>2018-08-28T09:29:07Z</time>
      </trkpt>
      <trkpt lat="43.1096748914971" lon="-5.07413025945898">
        <ele>1011.4934425354</ele>
        <time>2018-08-28T09:29:08Z</time>
      </trkpt>
      <trkpt lat="43.1097118975996" lon="-5.07403051481123">
        <ele>1012.06192398071</ele>
        <time>2018-08-28T09:29:09Z</time>
      </trkpt>
      <trkpt lat="43.1097465148597" lon="-5.07393479347702">
        <ele>1011.77042007446</ele>
        <time>2018-08-28T09:29:10Z</time>
      </trkpt>
      <trkpt lat="43.1097820541292" lon="-5.07384477183695">
        <ele>1011.53384780884</ele>
        <time>2018-08-28T09:29:11Z</time>
      </trkpt>
      <trkpt lat="43.1098270649492" lon="-5.07376472466166">
        <ele>1010.82022476196</ele>
        <time>2018-08-28T09:29:12Z</time>
      </trkpt>
      <trkpt lat="43.1098975567549" lon="-5.07372759283061">
        <ele>1011.4133644104</ele>
        <time>2018-08-28T09:29:13Z</time>
      </trkpt>
      <trkpt lat="43.1099562719866" lon="-5.07366548292811">
        <ele>1011.45450210571</ele>
        <time>2018-08-28T09:29:14Z</time>
      </trkpt>
      <trkpt lat="43.1100031687348" lon="-5.07361452095683">
        <ele>1011.57999038696</ele>
        <time>2018-08-28T09:29:15Z</time>
      </trkpt>
      <trkpt lat="43.1100417673989" lon="-5.07357965223964">
        <ele>1011.06827163696</ele>
        <time>2018-08-28T09:29:16Z</time>
      </trkpt>
      <trkpt lat="43.1100856885715" lon="-5.07353279740091">
        <ele>1010.12857437134</ele>
        <time>2018-08-28T09:29:18Z</time>
      </trkpt>
      <trkpt lat="43.1101394584804" lon="-5.07346875966068">
        <ele>1010.71463394165</ele>
        <time>2018-08-28T09:29:21Z</time>
      </trkpt>
      <trkpt lat="43.1101836730196" lon="-5.07340589538689">
        <ele>1011.06741714478</ele>
        <time>2018-08-28T09:29:23Z</time>
      </trkpt>
      <trkpt lat="43.1102245767071" lon="-5.07335233502562">
        <ele>1010.19827651978</ele>
        <time>2018-08-28T09:29:25Z</time>
      </trkpt>
      <trkpt lat="43.1102921767562" lon="-5.07326348685201">
        <ele>1007.85684585571</ele>
        <time>2018-08-28T09:29:27Z</time>
      </trkpt>
      <trkpt lat="43.1103254948213" lon="-5.07319383323665">
        <ele>1004.96329116821</ele>
        <time>2018-08-28T09:29:28Z</time>
      </trkpt>
      <trkpt lat="43.1103546638443" lon="-5.07314329036053">
        <ele>1003.69327163696</ele>
        <time>2018-08-28T09:29:29Z</time>
      </trkpt>
      <trkpt lat="43.1103970343649" lon="-5.0730805937248">
        <ele>1002.27933120728</ele>
        <time>2018-08-28T09:29:30Z</time>
      </trkpt>
      <trkpt lat="43.1104428414657" lon="-5.073020327841">
        <ele>1002.08438491821</ele>
        <time>2018-08-28T09:29:31Z</time>
      </trkpt>
      <trkpt lat="43.1104710884794" lon="-5.07292619906838">
        <ele>1002.10269546509</ele>
        <time>2018-08-28T09:29:32Z</time>
      </trkpt>
      <trkpt lat="43.1104943482607" lon="-5.07283567451413">
        <ele>1001.75455093384</ele>
        <time>2018-08-28T09:29:33Z</time>
      </trkpt>
      <trkpt lat="43.1105257384881" lon="-5.07274950854953">
        <ele>1000.91202163696</ele>
        <time>2018-08-28T09:29:34Z</time>
      </trkpt>
      <trkpt lat="43.1105588050961" lon="-5.07268295623834">
        <ele>1000.4045753479</ele>
        <time>2018-08-28T09:29:35Z</time>
      </trkpt>
      <trkpt lat="43.1106095575198" lon="-5.07260114886339">
        <ele>999.7873878479</ele>
        <time>2018-08-28T09:29:36Z</time>
      </trkpt>
      <trkpt lat="43.1106463959842" lon="-5.07252914831515">
        <ele>1000.74222183228</ele>
        <time>2018-08-28T09:29:37Z</time>
      </trkpt>
      <trkpt lat="43.1106735533505" lon="-5.07246594876523">
        <ele>1000.10696792603</ele>
        <time>2018-08-28T09:29:38Z</time>
      </trkpt>
      <trkpt lat="43.1107269460737" lon="-5.07243937813218">
        <ele>999.357089996338</ele>
        <time>2018-08-28T09:29:39Z</time>
      </trkpt>
      <trkpt lat="43.1107600126817" lon="-5.07239419967409">
        <ele>997.98904800415</ele>
        <time>2018-08-28T09:29:40Z</time>
      </trkpt>
      <trkpt lat="43.110796432051" lon="-5.07233301178093">
        <ele>996.322177886963</ele>
        <time>2018-08-28T09:29:41Z</time>
      </trkpt>
      <trkpt lat="43.1108468911081" lon="-5.07227065042134">
        <ele>996.892490386963</ele>
        <time>2018-08-28T09:29:42Z</time>
      </trkpt>
      <trkpt lat="43.1108880043431" lon="-5.07220803760464">
        <ele>996.400547027588</ele>
        <time>2018-08-28T09:29:43Z</time>
      </trkpt>
      <trkpt lat="43.1109553110256" lon="-5.07214542478795">
        <ele>995.325351715088</ele>
        <time>2018-08-28T09:29:44Z</time>
      </trkpt>
      <trkpt lat="43.111013271886" lon="-5.0720549002337">
        <ele>994.5285987854</ele>
        <time>2018-08-28T09:29:45Z</time>
      </trkpt>
      <trkpt lat="43.1110961269989" lon="-5.07200393826242">
        <ele>995.011753082275</ele>
        <time>2018-08-28T09:29:46Z</time>
      </trkpt>
      <trkpt lat="43.111171773675" lon="-5.07194308564539">
        <ele>994.906406402588</ele>
        <time>2018-08-28T09:29:47Z</time>
      </trkpt>
      <trkpt lat="43.1112562213494" lon="-5.07191064768012">
        <ele>994.46854019165</ele>
        <time>2018-08-28T09:29:48Z</time>
      </trkpt>
      <trkpt lat="43.1113288086309" lon="-5.07186077535625">
        <ele>993.372714996338</ele>
        <time>2018-08-28T09:29:49Z</time>
      </trkpt>
      <trkpt lat="43.1113783875882" lon="-5.07181484252687">
        <ele>993.9084815979</ele>
        <time>2018-08-28T09:29:50Z</time>
      </trkpt>
      <trkpt lat="43.111425493884" lon="-5.07174921222503">
        <ele>992.383213043213</ele>
        <time>2018-08-28T09:29:51Z</time>
      </trkpt>
      <trkpt lat="43.1114789285167" lon="-5.07167109288748">
        <ele>990.490146636963</ele>
        <time>2018-08-28T09:29:52Z</time>
      </trkpt>
      <trkpt lat="43.1115410803287" lon="-5.0715733598965">
        <ele>988.303256988525</ele>
        <time>2018-08-28T09:29:53Z</time>
      </trkpt>
      <trkpt lat="43.1115927128523" lon="-5.07147277705844">
        <ele>987.868320465088</ele>
        <time>2018-08-28T09:29:54Z</time>
      </trkpt>
      <trkpt lat="43.1116605643585" lon="-5.07137822919066">
        <ele>987.630405426025</ele>
        <time>2018-08-28T09:29:55Z</time>
      </trkpt>
      <trkpt lat="43.1117567466973" lon="-5.0712845195132">
        <ele>986.882236480713</ele>
        <time>2018-08-28T09:29:56Z</time>
      </trkpt>
      <trkpt lat="43.1118440442189" lon="-5.07117287256296">
        <ele>986.075229644775</ele>
        <time>2018-08-28T09:29:57Z</time>
      </trkpt>
      <trkpt lat="43.1118908990576" lon="-5.07107128389652">
        <ele>985.90701675415</ele>
        <time>2018-08-28T09:29:58Z</time>
      </trkpt>
      <trkpt lat="43.1120091677114" lon="-5.07097447291489">
        <ele>982.2317237854</ele>
        <time>2018-08-28T09:29:59Z</time>
      </trkpt>
      <trkpt lat="43.1120776059508" lon="-5.0708682742017">
        <ele>980.349155426025</ele>
        <time>2018-08-28T09:30:00Z</time>
      </trkpt>
      <trkpt lat="43.1121457927331" lon="-5.07075008936699">
        <ele>978.951572418213</ele>
        <time>2018-08-28T09:30:01Z</time>
      </trkpt>
      <trkpt lat="43.1122257979988" lon="-5.07066023536499">
        <ele>979.221836090088</ele>
        <time>2018-08-28T09:30:02Z</time>
      </trkpt>
      <trkpt lat="43.112301696132" lon="-5.07055889815564">
        <ele>976.834384918213</ele>
        <time>2018-08-28T09:30:03Z</time>
      </trkpt>
      <trkpt lat="43.1123606209113" lon="-5.07044850849087">
        <ele>976.661167144775</ele>
        <time>2018-08-28T09:30:04Z</time>
      </trkpt>
      <trkpt lat="43.1124387821584" lon="-5.07033954374964">
        <ele>975.9309425354</ele>
        <time>2018-08-28T09:30:05Z</time>
      </trkpt>
      <trkpt lat="43.1125029875367" lon="-5.07024063729222">
        <ele>976.709873199463</ele>
        <time>2018-08-28T09:30:06Z</time>
      </trkpt>
      <trkpt lat="43.112560529302" lon="-5.07012597285683">
        <ele>973.711948394775</ele>
        <time>2018-08-28T09:30:07Z</time>
      </trkpt>
      <trkpt lat="43.1126184063434" lon="-5.07001759484882">
        <ele>973.922031402588</ele>
        <time>2018-08-28T09:30:08Z</time>
      </trkpt>
      <trkpt lat="43.1126762414753" lon="-5.06990628317471">
        <ele>974.84256362915</ele>
        <time>2018-08-28T09:30:09Z</time>
      </trkpt>
      <trkpt lat="43.1127169775247" lon="-5.06978625432129">
        <ele>974.3186378479</ele>
        <time>2018-08-28T09:30:10Z</time>
      </trkpt>
      <trkpt lat="43.1127772434085" lon="-5.06965222768958">
        <ele>971.44217300415</ele>
        <time>2018-08-28T09:30:11Z</time>
      </trkpt>
      <trkpt lat="43.1128175184532" lon="-5.06953127682681">
        <ele>971.129917144775</ele>
        <time>2018-08-28T09:30:12Z</time>
      </trkpt>
      <trkpt lat="43.1128402334108" lon="-5.06943379529293">
        <ele>970.656406402588</ele>
        <time>2018-08-28T09:30:13Z</time>
      </trkpt>
      <trkpt lat="43.1128657982155" lon="-5.06934285164351">
        <ele>968.627475738525</ele>
        <time>2018-08-28T09:30:14Z</time>
      </trkpt>
      <trkpt lat="43.1128881359874" lon="-5.06924947724218">
        <ele>969.378574371338</ele>
        <time>2018-08-28T09:30:15Z</time>
      </trkpt>
      <trkpt lat="43.1129245134472" lon="-5.06919516250963">
        <ele>968.9133644104</ele>
        <time>2018-08-28T09:30:16Z</time>
      </trkpt>
      <trkpt lat="43.1130195642292" lon="-5.06918870844419">
        <ele>967.01834487915</ele>
        <time>2018-08-28T09:30:17Z</time>
      </trkpt>
      <trkpt lat="43.1130817998602" lon="-5.06913372315938">
        <ele>965.92947769165</ele>
        <time>2018-08-28T09:30:18Z</time>
      </trkpt>
      <trkpt lat="43.1131315464555" lon="-5.06905920804019">
        <ele>964.792514801025</ele>
        <time>2018-08-28T09:30:19Z</time>
      </trkpt>
      <trkpt lat="43.113188375759" lon="-5.06897094659979">
        <ele>964.20682144165</ele>
        <time>2018-08-28T09:30:20Z</time>
      </trkpt>
      <trkpt lat="43.1132353563263" lon="-5.06889835931833">
        <ele>962.79373550415</ele>
        <time>2018-08-28T09:30:21Z</time>
      </trkpt>
      <trkpt lat="43.1132738292619" lon="-5.06879718974705">
        <ele>962.052280426025</ele>
        <time>2018-08-28T09:30:22Z</time>
      </trkpt>
      <trkpt lat="43.1133195944532" lon="-5.06869501434739">
        <ele>960.3772315979</ele>
        <time>2018-08-28T09:30:23Z</time>
      </trkpt>
      <trkpt lat="43.113338998559" lon="-5.06858135574038">
        <ele>959.191440582275</ele>
        <time>2018-08-28T09:30:24Z</time>
      </trkpt>
      <trkpt lat="43.1133573968365" lon="-5.06846208125825">
        <ele>955.6213722229</ele>
        <time>2018-08-28T09:30:25Z</time>
      </trkpt>
      <trkpt lat="43.1133800279751" lon="-5.06835320033605">
        <ele>955.4787940979</ele>
        <time>2018-08-28T09:30:26Z</time>
      </trkpt>
      <trkpt lat="43.1133959535911" lon="-5.06825437769766">
        <ele>955.606967926025</ele>
        <time>2018-08-28T09:30:27Z</time>
      </trkpt>
      <trkpt lat="43.1134244101524" lon="-5.06817433052237">
        <ele>955.793979644775</ele>
        <time>2018-08-28T09:30:28Z</time>
      </trkpt>
      <trkpt lat="43.1134360190882" lon="-5.06810341962154">
        <ele>953.84451675415</ele>
        <time>2018-08-28T09:30:29Z</time>
      </trkpt>
      <trkpt lat="43.113427469547" lon="-5.06800719537313">
        <ele>953.508823394775</ele>
        <time>2018-08-28T09:30:30Z</time>
      </trkpt>
      <trkpt lat="43.113418207544" lon="-5.06792505272205">
        <ele>953.539707183838</ele>
        <time>2018-08-28T09:30:31Z</time>
      </trkpt>
      <trkpt lat="43.1134017790138" lon="-5.06784550846095">
        <ele>951.527011871338</ele>
        <time>2018-08-28T09:30:32Z</time>
      </trkpt>
      <trkpt lat="43.1134045450418" lon="-5.06774643436546">
        <ele>951.7717628479</ele>
        <time>2018-08-28T09:30:33Z</time>
      </trkpt>
      <trkpt lat="43.1134028267517" lon="-5.06765364669735">
        <ele>951.709995269775</ele>
        <time>2018-08-28T09:30:34Z</time>
      </trkpt>
      <trkpt lat="43.11341682453" lon="-5.06754174829001">
        <ele>951.546421051025</ele>
        <time>2018-08-28T09:30:35Z</time>
      </trkpt>
      <trkpt lat="43.1134124240308" lon="-5.06745977327699">
        <ele>949.622104644775</ele>
        <time>2018-08-28T09:30:36Z</time>
      </trkpt>
      <trkpt lat="43.1133790221467" lon="-5.06735047325964">
        <ele>948.7248878479</ele>
        <time>2018-08-28T09:30:37Z</time>
      </trkpt>
      <trkpt lat="43.113374579738" lon="-5.06725986488635">
        <ele>948.07986831665</ele>
        <time>2018-08-28T09:30:38Z</time>
      </trkpt>
      <trkpt lat="43.1133901281684" lon="-5.06715291180188">
        <ele>943.083896636963</ele>
        <time>2018-08-28T09:30:39Z</time>
      </trkpt>
      <trkpt lat="43.1133952411293" lon="-5.06704587489838">
        <ele>940.9709815979</ele>
        <time>2018-08-28T09:30:40Z</time>
      </trkpt>
      <trkpt lat="43.1133838836505" lon="-5.0669481419074">
        <ele>939.82986831665</ele>
        <time>2018-08-28T09:30:41Z</time>
      </trkpt>
      <trkpt lat="43.1133571453794" lon="-5.06686113775248">
        <ele>939.51053237915</ele>
        <time>2018-08-28T09:30:42Z</time>
      </trkpt>
      <trkpt lat="43.1133339694171" lon="-5.06678385660524">
        <ele>938.2512550354</ele>
        <time>2018-08-28T09:30:43Z</time>
      </trkpt>
      <trkpt lat="43.1133275572612" lon="-5.06670774892444">
        <ele>936.0295753479</ele>
        <time>2018-08-28T09:30:44Z</time>
      </trkpt>
      <trkpt lat="43.1133341789647" lon="-5.06663784385199">
        <ele>935.002964019775</ele>
        <time>2018-08-28T09:30:45Z</time>
      </trkpt>
      <trkpt lat="43.1133808661654" lon="-5.06657087244565">
        <ele>930.943881988525</ele>
        <time>2018-08-28T09:30:46Z</time>
      </trkpt>
      <trkpt lat="43.1134293554752" lon="-5.06649778225">
        <ele>930.344760894775</ele>
        <time>2018-08-28T09:30:47Z</time>
      </trkpt>
      <trkpt lat="43.1134726480051" lon="-5.06643491797621">
        <ele>929.942417144775</ele>
        <time>2018-08-28T09:30:48Z</time>
      </trkpt>
      <trkpt lat="43.1135091092839" lon="-5.06636970676954">
        <ele>930.200717926025</ele>
        <time>2018-08-28T09:30:49Z</time>
      </trkpt>
      <trkpt lat="43.1135379849403" lon="-5.06629602984066">
        <ele>930.1282081604</ele>
        <time>2018-08-28T09:30:50Z</time>
      </trkpt>
      <trkpt lat="43.1135682017013" lon="-5.0662197545218">
        <ele>929.765048980713</ele>
        <time>2018-08-28T09:30:51Z</time>
      </trkpt>
      <trkpt lat="43.1136042019754" lon="-5.06613115780527">
        <ele>930.000034332275</ele>
        <time>2018-08-28T09:30:52Z</time>
      </trkpt>
      <trkpt lat="43.1136441836535" lon="-5.06604490802164">
        <ele>929.1145362854</ele>
        <time>2018-08-28T09:30:53Z</time>
      </trkpt>
      <trkpt lat="43.1136821955844" lon="-5.06595262326772">
        <ele>928.234409332275</ele>
        <time>2018-08-28T09:30:54Z</time>
      </trkpt>
      <trkpt lat="43.1137301819801" lon="-5.0658672116744">
        <ele>927.437534332275</ele>
        <time>2018-08-28T09:30:55Z</time>
      </trkpt>
      <trkpt lat="43.1137945969059" lon="-5.06578657776589">
        <ele>926.680698394775</ele>
        <time>2018-08-28T09:30:56Z</time>
      </trkpt>
      <trkpt lat="43.1138453493296" lon="-5.06570820697124">
        <ele>925.6955909729</ele>
        <time>2018-08-28T09:30:57Z</time>
      </trkpt>
      <trkpt lat="43.113896646577" lon="-5.0656010862487">
        <ele>925.647373199463</ele>
        <time>2018-08-28T09:30:58Z</time>
      </trkpt>
      <trkpt lat="43.1139577506512" lon="-5.06549069658394">
        <ele>925.7541847229</ele>
        <time>2018-08-28T09:30:59Z</time>
      </trkpt>
      <trkpt lat="43.11401411895" lon="-5.06539304741199">
        <ele>925.802280426025</ele>
        <time>2018-08-28T09:31:00Z</time>
      </trkpt>
      <trkpt lat="43.114081467542" lon="-5.06531727500732">
        <ele>924.027256011963</ele>
        <time>2018-08-28T09:31:01Z</time>
      </trkpt>
      <trkpt lat="43.1141742971196" lon="-5.06524586119229">
        <ele>922.938510894775</ele>
        <time>2018-08-28T09:31:02Z</time>
      </trkpt>
      <trkpt lat="43.1142408494308" lon="-5.06516187452252">
        <ele>921.690952301025</ele>
        <time>2018-08-28T09:31:03Z</time>
      </trkpt>
      <trkpt lat="43.1143130176171" lon="-5.06507495418663">
        <ele>920.6633644104</ele>
        <time>2018-08-28T09:31:04Z</time>
      </trkpt>
      <trkpt lat="43.1143838446989" lon="-5.06498208269949">
        <ele>920.210117340088</ele>
        <time>2018-08-28T09:31:05Z</time>
      </trkpt>
      <trkpt lat="43.114452911581" lon="-5.06489851512487">
        <ele>919.9563331604</ele>
        <time>2018-08-28T09:31:06Z</time>
      </trkpt>
      <trkpt lat="43.1145431846782" lon="-5.06482006051118">
        <ele>919.209629058838</ele>
        <time>2018-08-28T09:31:07Z</time>
      </trkpt>
      <trkpt lat="43.1146165682404" lon="-5.06474269554491">
        <ele>918.262851715088</ele>
        <time>2018-08-28T09:31:08Z</time>
      </trkpt>
      <trkpt lat="43.1146833720087" lon="-5.06467044353957">
        <ele>916.085117340088</ele>
        <time>2018-08-28T09:31:09Z</time>
      </trkpt>
      <trkpt lat="43.1147824041947" lon="-5.06462182850117">
        <ele>917.216953277588</ele>
        <time>2018-08-28T09:31:10Z</time>
      </trkpt>
      <trkpt lat="43.1148617808177" lon="-5.06456810050184">
        <ele>916.914707183838</ele>
        <time>2018-08-28T09:31:11Z</time>
      </trkpt>
      <trkpt lat="43.1149623217463" lon="-5.06449878216261">
        <ele>916.259922027588</ele>
        <time>2018-08-28T09:31:12Z</time>
      </trkpt>
      <trkpt lat="43.1150496611773" lon="-5.06441454403574">
        <ele>915.19314956665</ele>
        <time>2018-08-28T09:31:13Z</time>
      </trkpt>
      <trkpt lat="43.1151445024117" lon="-5.06434924901003">
        <ele>915.38357925415</ele>
        <time>2018-08-28T09:31:14Z</time>
      </trkpt>
      <trkpt lat="43.1152265612438" lon="-5.06427012384409">
        <ele>915.076694488525</ele>
        <time>2018-08-28T09:31:15Z</time>
      </trkpt>
      <trkpt lat="43.1153201032831" lon="-5.06421547383542">
        <ele>916.2903175354</ele>
        <time>2018-08-28T09:31:16Z</time>
      </trkpt>
      <trkpt lat="43.1154156988888" lon="-5.06412553601439">
        <ele>911.953159332275</ele>
        <time>2018-08-28T09:31:17Z</time>
      </trkpt>
      <trkpt lat="43.1155066425382" lon="-5.06404498592491">
        <ele>910.856357574463</ele>
        <time>2018-08-28T09:31:18Z</time>
      </trkpt>
      <trkpt lat="43.1155972509115" lon="-5.06398254074628">
        <ele>908.1077003479</ele>
        <time>2018-08-28T09:31:19Z</time>
      </trkpt>
      <trkpt lat="43.1156968279212" lon="-5.06389821880037">
        <ele>905.993320465088</ele>
        <time>2018-08-28T09:31:20Z</time>
      </trkpt>
      <trkpt lat="43.1157986261352" lon="-5.06382051855797">
        <ele>905.81326675415</ele>
        <time>2018-08-28T09:31:21Z</time>
      </trkpt>
      <trkpt lat="43.1158915395319" lon="-5.06375555880839">
        <ele>905.427646636963</ele>
        <time>2018-08-28T09:31:22Z</time>
      </trkpt>
      <trkpt lat="43.1159966485976" lon="-5.06368531845982">
        <ele>903.749668121338</ele>
        <time>2018-08-28T09:31:23Z</time>
      </trkpt>
      <trkpt lat="43.1160775339632" lon="-5.06361516193027">
        <ele>903.1018409729</ele>
        <time>2018-08-28T09:31:24Z</time>
      </trkpt>
      <trkpt lat="43.1161690224364" lon="-5.06353930570657">
        <ele>901.7922706604</ele>
        <time>2018-08-28T09:31:25Z</time>
      </trkpt>
      <trkpt lat="43.1162618939235" lon="-5.06349831820006">
        <ele>899.5696144104</ele>
        <time>2018-08-28T09:31:26Z</time>
      </trkpt>
      <trkpt lat="43.1163540948584" lon="-5.06344827823812">
        <ele>897.50174331665</ele>
        <time>2018-08-28T09:31:27Z</time>
      </trkpt>
      <trkpt lat="43.1164397998183" lon="-5.06338105537469">
        <ele>896.7776222229</ele>
        <time>2018-08-28T09:31:28Z</time>
      </trkpt>
      <trkpt lat="43.1165134348377" lon="-5.06332682446117">
        <ele>896.344394683838</ele>
        <time>2018-08-28T09:31:29Z</time>
      </trkpt>
      <trkpt lat="43.1165674981131" lon="-5.0632700789767">
        <ele>895.957553863525</ele>
        <time>2018-08-28T09:31:30Z</time>
      </trkpt>
      <trkpt lat="43.1166352238908" lon="-5.06322087720508">
        <ele>895.9494972229</ele>
        <time>2018-08-28T09:31:31Z</time>
      </trkpt>
      <trkpt lat="43.1165825017198" lon="-5.06314812228555">
        <ele>894.4768409729</ele>
        <time>2018-08-28T09:31:32Z</time>
      </trkpt>
      <trkpt lat="43.1165492674737" lon="-5.06310286000843">
        <ele>893.0764503479</ele>
        <time>2018-08-28T09:31:33Z</time>
      </trkpt>
      <trkpt lat="43.1165074836864" lon="-5.06302809343214">
        <ele>890.206089019775</ele>
        <time>2018-08-28T09:31:34Z</time>
      </trkpt>
      <trkpt lat="43.1164591201051" lon="-5.06296221167321">
        <ele>890.025058746338</ele>
        <time>2018-08-28T09:31:35Z</time>
      </trkpt>
      <trkpt lat="43.116432298015" lon="-5.06290739402646">
        <ele>889.826572418213</ele>
        <time>2018-08-28T09:31:36Z</time>
      </trkpt>
      <trkpt lat="43.1164006563305" lon="-5.06283782423014">
        <ele>889.7659034729</ele>
        <time>2018-08-28T09:31:37Z</time>
      </trkpt>
      <trkpt lat="43.1163747143402" lon="-5.06277043372864">
        <ele>887.043003082275</ele>
        <time>2018-08-28T09:31:38Z</time>
      </trkpt>
      <trkpt lat="43.1163548492297" lon="-5.06269080564851">
        <ele>886.991367340088</ele>
        <time>2018-08-28T09:31:39Z</time>
      </trkpt>
      <trkpt lat="43.1163460901409" lon="-5.0626223254996">
        <ele>885.82889175415</ele>
        <time>2018-08-28T09:31:40Z</time>
      </trkpt>
      <trkpt lat="43.1163915619656" lon="-5.06258418784017">
        <ele>884.71463394165</ele>
        <time>2018-08-28T09:31:42Z</time>
      </trkpt>
      <trkpt lat="43.1164691783889" lon="-5.06253716536338">
        <ele>882.92264175415</ele>
        <time>2018-08-28T09:31:44Z</time>
      </trkpt>
      <trkpt lat="43.1164884148567" lon="-5.06247815676505">
        <ele>882.200839996338</ele>
        <time>2018-08-28T09:31:45Z</time>
      </trkpt>
      <trkpt lat="43.1165331323101" lon="-5.06244588643784">
        <ele>883.55154800415</ele>
        <time>2018-08-28T09:31:46Z</time>
      </trkpt>
      <trkpt lat="43.116577640216" lon="-5.06239098497207">
        <ele>885.618198394775</ele>
        <time>2018-08-28T09:31:47Z</time>
      </trkpt>
      <trkpt lat="43.1166184181749" lon="-5.06234496832365">
        <ele>884.237339019775</ele>
        <time>2018-08-28T09:31:48Z</time>
      </trkpt>
      <trkpt lat="43.1166586094006" lon="-5.06227648817474">
        <ele>884.339878082275</ele>
        <time>2018-08-28T09:31:49Z</time>
      </trkpt>
      <trkpt lat="43.1167224795028" lon="-5.06221882068092">
        <ele>887.803256988525</ele>
        <time>2018-08-28T09:31:50Z</time>
      </trkpt>
      <trkpt lat="43.1167750759452" lon="-5.06217238493735">
        <ele>887.35818862915</ele>
        <time>2018-08-28T09:31:51Z</time>
      </trkpt>
      <trkpt lat="43.1168253673642" lon="-5.06211387925321">
        <ele>889.618320465088</ele>
        <time>2018-08-28T09:31:52Z</time>
      </trkpt>
      <trkpt lat="43.1168571347772" lon="-5.06205344573135">
        <ele>890.362339019775</ele>
        <time>2018-08-28T09:31:53Z</time>
      </trkpt>
      <trkpt lat="43.1169448933034" lon="-5.0619576405781">
        <ele>889.57498550415</ele>
        <time>2018-08-28T09:31:55Z</time>
      </trkpt>
      <trkpt lat="43.1170088472246" lon="-5.06193081848795">
        <ele>892.4270362854</ele>
        <time>2018-08-28T09:31:56Z</time>
      </trkpt>
      <trkpt lat="43.1170616532146" lon="-5.06190466695005">
        <ele>893.600620269775</ele>
        <time>2018-08-28T09:31:57Z</time>
      </trkpt>
      <trkpt lat="43.1171297561779" lon="-5.06182143465156">
        <ele>892.3703956604</ele>
        <time>2018-08-28T09:31:59Z</time>
      </trkpt>
      <trkpt lat="43.1172269443452" lon="-5.06173124537343">
        <ele>887.487339019775</ele>
        <time>2018-08-28T09:32:00Z</time>
      </trkpt>
      <trkpt lat="43.1172405230283" lon="-5.06165840663487">
        <ele>887.829013824463</ele>
        <time>2018-08-28T09:32:01Z</time>
      </trkpt>
      <trkpt lat="43.1172717456176" lon="-5.0615860708105">
        <ele>887.739902496338</ele>
        <time>2018-08-28T09:32:02Z</time>
      </trkpt>
      <trkpt lat="43.1172804627969" lon="-5.06148280576343">
        <ele>881.13162612915</ele>
        <time>2018-08-28T09:32:04Z</time>
      </trkpt>
      <trkpt lat="43.1173370406433" lon="-5.06140401587362">
        <ele>880.5618019104</ele>
        <time>2018-08-28T09:32:05Z</time>
      </trkpt>
      <trkpt lat="43.1173880445241" lon="-5.06133268587763">
        <ele>881.07693862915</ele>
        <time>2018-08-28T09:32:06Z</time>
      </trkpt>
      <trkpt lat="43.1173834763869" lon="-5.06121911108965">
        <ele>878.039707183838</ele>
        <time>2018-08-28T09:32:08Z</time>
      </trkpt>
      <trkpt lat="43.1173805846303" lon="-5.06114794873173">
        <ele>881.224765777588</ele>
        <time>2018-08-28T09:32:09Z</time>
      </trkpt>
      <trkpt lat="43.1173963426083" lon="-5.0610696617561">
        <ele>879.000034332275</ele>
        <time>2018-08-28T09:32:10Z</time>
      </trkpt>
      <trkpt lat="43.1173873739719" lon="-5.06099279970402">
        <ele>879.247714996338</ele>
        <time>2018-08-28T09:32:11Z</time>
      </trkpt>
      <trkpt lat="43.1173794530734" lon="-5.06091920659417">
        <ele>879.278354644775</ele>
        <time>2018-08-28T09:32:12Z</time>
      </trkpt>
      <trkpt lat="43.1173472665652" lon="-5.06085483357782">
        <ele>876.839511871338</ele>
        <time>2018-08-28T09:32:14Z</time>
      </trkpt>
      <trkpt lat="43.1173145352333" lon="-5.06076724268967">
        <ele>877.87186050415</ele>
        <time>2018-08-28T09:32:16Z</time>
      </trkpt>
      <trkpt lat="43.1172766071214" lon="-5.06068979390437">
        <ele>875.0491065979</ele>
        <time>2018-08-28T09:32:18Z</time>
      </trkpt>
      <trkpt lat="43.1172628608002" lon="-5.060622738679">
        <ele>875.53396987915</ele>
        <time>2018-08-28T09:32:20Z</time>
      </trkpt>
      <trkpt lat="43.1172771519452" lon="-5.06053992547566">
        <ele>875.801303863525</ele>
        <time>2018-08-28T09:32:21Z</time>
      </trkpt>
      <trkpt lat="43.1173062790587" lon="-5.06048703566665">
        <ele>876.600620269775</ele>
        <time>2018-08-28T09:32:22Z</time>
      </trkpt>
      <trkpt lat="43.1173556903779" lon="-5.06041126326198">
        <ele>879.045444488525</ele>
        <time>2018-08-28T09:32:24Z</time>
      </trkpt>
      <trkpt lat="43.1174505735218" lon="-5.06035150029236">
        <ele>877.6487159729</ele>
        <time>2018-08-28T09:32:26Z</time>
      </trkpt>
      <trkpt lat="43.1174847716867" lon="-5.060297688474">
        <ele>878.1594581604</ele>
        <time>2018-08-28T09:32:27Z</time>
      </trkpt>
      <trkpt lat="43.1175341410964" lon="-5.06021244451875">
        <ele>878.275547027588</ele>
        <time>2018-08-28T09:32:29Z</time>
      </trkpt>
      <trkpt lat="43.1176020345121" lon="-5.06016927771742">
        <ele>879.4993019104</ele>
        <time>2018-08-28T09:32:30Z</time>
      </trkpt>
      <trkpt lat="43.1176411779999" lon="-5.06011052057618">
        <ele>880.007358551025</ele>
        <time>2018-08-28T09:32:31Z</time>
      </trkpt>
      <trkpt lat="43.1176905893191" lon="-5.06006810814613">
        <ele>880.3088722229</ele>
        <time>2018-08-28T09:32:32Z</time>
      </trkpt>
      <trkpt lat="43.1177525315835" lon="-5.0600339099812">
        <ele>879.895053863525</ele>
        <time>2018-08-28T09:32:33Z</time>
      </trkpt>
      <trkpt lat="43.1178430142283" lon="-5.05999309011275">
        <ele>878.423374176025</ele>
        <time>2018-08-28T09:32:34Z</time>
      </trkpt>
      <trkpt lat="43.1179198343708" lon="-5.05995109677786">
        <ele>879.593296051025</ele>
        <time>2018-08-28T09:32:35Z</time>
      </trkpt>
      <trkpt lat="43.1179839140206" lon="-5.05990248173946">
        <ele>879.0403175354</ele>
        <time>2018-08-28T09:32:36Z</time>
      </trkpt>
      <trkpt lat="43.1180826528399" lon="-5.05985252559656">
        <ele>876.746250152588</ele>
        <time>2018-08-28T09:32:37Z</time>
      </trkpt>
      <trkpt lat="43.1181930425047" lon="-5.05981463939423">
        <ele>875.985874176025</ele>
        <time>2018-08-28T09:32:38Z</time>
      </trkpt>
      <trkpt lat="43.1182885962009" lon="-5.0597693771171">
        <ele>876.3147315979</ele>
        <time>2018-08-28T09:32:39Z</time>
      </trkpt>
      <trkpt lat="43.1183730019658" lon="-5.05972042680258">
        <ele>873.9807472229</ele>
        <time>2018-08-28T09:32:40Z</time>
      </trkpt>
      <trkpt lat="43.1184705254092" lon="-5.05965856835717">
        <ele>872.969272613525</ele>
        <time>2018-08-28T09:32:41Z</time>
      </trkpt>
      <trkpt lat="43.1185673363908" lon="-5.05955991335684">
        <ele>873.248569488525</ele>
        <time>2018-08-28T09:32:42Z</time>
      </trkpt>
      <trkpt lat="43.1186392950296" lon="-5.05944566801662">
        <ele>872.3371925354</ele>
        <time>2018-08-28T09:32:43Z</time>
      </trkpt>
      <trkpt lat="43.1186952861427" lon="-5.05931910127873">
        <ele>871.12674331665</ele>
        <time>2018-08-28T09:32:44Z</time>
      </trkpt>
      <trkpt lat="43.1186757143988" lon="-5.05921374075586">
        <ele>868.761142730713</ele>
        <time>2018-08-28T09:32:45Z</time>
      </trkpt>
      <trkpt lat="43.1186814560025" lon="-5.05911282264167">
        <ele>868.744785308838</ele>
        <time>2018-08-28T09:32:46Z</time>
      </trkpt>
      <trkpt lat="43.1186375767394" lon="-5.05903352983767">
        <ele>868.756870269775</ele>
        <time>2018-08-28T09:32:47Z</time>
      </trkpt>
      <trkpt lat="43.1186212739377" lon="-5.05897016264969">
        <ele>869.712924957275</ele>
        <time>2018-08-28T09:32:48Z</time>
      </trkpt>
      <trkpt lat="43.1185509916796" lon="-5.05892632529611">
        <ele>868.3323097229</ele>
        <time>2018-08-28T09:32:49Z</time>
      </trkpt>
      <trkpt lat="43.1184864091157" lon="-5.05887620151514">
        <ele>867.990268707275</ele>
        <time>2018-08-28T09:32:50Z</time>
      </trkpt>
      <trkpt lat="43.1184056075691" lon="-5.05879607052082">
        <ele>868.027378082275</ele>
        <time>2018-08-28T09:32:51Z</time>
      </trkpt>
      <trkpt lat="43.1183333974733" lon="-5.05873387679929">
        <ele>867.9153175354</ele>
        <time>2018-08-28T09:32:52Z</time>
      </trkpt>
      <trkpt lat="43.1182616483822" lon="-5.05864217877859">
        <ele>869.247104644775</ele>
        <time>2018-08-28T09:32:53Z</time>
      </trkpt>
      <trkpt lat="43.1182006281271" lon="-5.05859624594921">
        <ele>869.0676612854</ele>
        <time>2018-08-28T09:32:54Z</time>
      </trkpt>
      <trkpt lat="43.118134327273" lon="-5.05854763091082">
        <ele>868.20779800415</ele>
        <time>2018-08-28T09:32:55Z</time>
      </trkpt>
      <trkpt lat="43.1180782104313" lon="-5.05848107859963">
        <ele>868.952671051025</ele>
        <time>2018-08-28T09:32:56Z</time>
      </trkpt>
      <trkpt lat="43.1180447666376" lon="-5.05839784630114">
        <ele>869.5686378479</ele>
        <time>2018-08-28T09:32:57Z</time>
      </trkpt>
      <trkpt lat="43.1181713333755" lon="-5.05825493485207">
        <ele>868.288974761963</ele>
        <time>2018-08-28T09:32:59Z</time>
      </trkpt>
      <trkpt lat="43.1182072079211" lon="-5.05821310915524">
        <ele>868.18826675415</ele>
        <time>2018-08-28T09:33:00Z</time>
      </trkpt>
      <trkpt lat="43.118283567059" lon="-5.05809819326276">
        <ele>861.0393409729</ele>
        <time>2018-08-28T09:33:01Z</time>
      </trkpt>
      <trkpt lat="43.1183249736606" lon="-5.05804798566276">
        <ele>860.88455581665</ele>
        <time>2018-08-28T09:33:02Z</time>
      </trkpt>
      <trkpt lat="43.1183234230085" lon="-5.05796542391652">
        <ele>859.9045753479</ele>
        <time>2018-08-28T09:33:03Z</time>
      </trkpt>
      <trkpt lat="43.1183747621655" lon="-5.05787800066644">
        <ele>861.2502784729</ele>
        <time>2018-08-28T09:33:04Z</time>
      </trkpt>
      <trkpt lat="43.1184429070383" lon="-5.05780323409015">
        <ele>859.6399269104</ele>
        <time>2018-08-28T09:33:05Z</time>
      </trkpt>
      <trkpt lat="43.1184740458085" lon="-5.05769410171086">
        <ele>858.9983253479</ele>
        <time>2018-08-28T09:33:06Z</time>
      </trkpt>
      <trkpt lat="43.118521613109" lon="-5.05760156549984">
        <ele>857.174228668213</ele>
        <time>2018-08-28T09:33:07Z</time>
      </trkpt>
      <trkpt lat="43.1185950385808" lon="-5.05749964155728">
        <ele>857.731479644775</ele>
        <time>2018-08-28T09:33:08Z</time>
      </trkpt>
      <trkpt lat="43.1186618004396" lon="-5.05740785971755">
        <ele>857.07400894165</ele>
        <time>2018-08-28T09:33:09Z</time>
      </trkpt>
      <trkpt lat="43.1187987188279" lon="-5.05731415004009">
        <ele>855.438999176025</ele>
        <time>2018-08-28T09:33:10Z</time>
      </trkpt>
      <trkpt lat="43.1188681209861" lon="-5.0572031736421">
        <ele>854.9534034729</ele>
        <time>2018-08-28T09:33:11Z</time>
      </trkpt>
      <trkpt lat="43.1188444840192" lon="-5.05705707706982">
        <ele>853.9446144104</ele>
        <time>2018-08-28T09:33:12Z</time>
      </trkpt>
      <trkpt lat="43.1188331684499" lon="-5.05690603517467">
        <ele>850.83377456665</ele>
        <time>2018-08-28T09:33:13Z</time>
      </trkpt>
      <trkpt lat="43.1188378204062" lon="-5.05674895830923">
        <ele>849.38064956665</ele>
        <time>2018-08-28T09:33:14Z</time>
      </trkpt>
      <trkpt lat="43.1188355572923" lon="-5.05662381649488">
        <ele>847.344272613525</ele>
        <time>2018-08-28T09:33:15Z</time>
      </trkpt>
      <trkpt lat="43.1188166141912" lon="-5.05652113818103">
        <ele>844.655307769775</ele>
        <time>2018-08-28T09:33:16Z</time>
      </trkpt>
      <trkpt lat="43.1188017782225" lon="-5.05642315373296">
        <ele>842.633335113525</ele>
        <time>2018-08-28T09:33:17Z</time>
      </trkpt>
      <trkpt lat="43.1187451165571" lon="-5.05634411238605">
        <ele>842.824741363525</ele>
        <time>2018-08-28T09:33:18Z</time>
      </trkpt>
      <trkpt lat="43.1187036680459" lon="-5.05628703162545">
        <ele>841.776889801025</ele>
        <time>2018-08-28T09:33:19Z</time>
      </trkpt>
      <trkpt lat="43.1186292367458" lon="-5.05620740354532">
        <ele>841.888828277588</ele>
        <time>2018-08-28T09:33:20Z</time>
      </trkpt>
      <trkpt lat="43.1185512431367" lon="-5.0561962556141">
        <ele>842.546054840088</ele>
        <time>2018-08-28T09:33:21Z</time>
      </trkpt>
      <trkpt lat="43.1184875406726" lon="-5.0561391748535">
        <ele>843.227451324463</ele>
        <time>2018-08-28T09:33:22Z</time>
      </trkpt>
      <trkpt lat="43.1184259336843" lon="-5.0560773164081">
        <ele>843.305332183838</ele>
        <time>2018-08-28T09:33:23Z</time>
      </trkpt>
      <trkpt lat="43.118366925086" lon="-5.05598125979775">
        <ele>842.712924957275</ele>
        <time>2018-08-28T09:33:24Z</time>
      </trkpt>
      <trkpt lat="43.1183596328302" lon="-5.05587682128423">
        <ele>829.90213394165</ele>
        <time>2018-08-28T09:33:26Z</time>
      </trkpt>
      <trkpt lat="43.1183512509271" lon="-5.0557268690365">
        <ele>828.91385269165</ele>
        <time>2018-08-28T09:33:27Z</time>
      </trkpt>
      <trkpt lat="43.1183568668022" lon="-5.05564430729026">
        <ele>827.39139175415</ele>
        <time>2018-08-28T09:33:28Z</time>
      </trkpt>
      <trkpt lat="43.1183820544212" lon="-5.05555453710729">
        <ele>827.960971832275</ele>
        <time>2018-08-28T09:33:29Z</time>
      </trkpt>
      <trkpt lat="43.1184292026266" lon="-5.05546962842816">
        <ele>827.378574371338</ele>
        <time>2018-08-28T09:33:30Z</time>
      </trkpt>
      <trkpt lat="43.1184794940456" lon="-5.05537449382716">
        <ele>828.12381362915</ele>
        <time>2018-08-28T09:33:31Z</time>
      </trkpt>
      <trkpt lat="43.1185263488843" lon="-5.05533216521615">
        <ele>827.134677886963</ele>
        <time>2018-08-28T09:33:32Z</time>
      </trkpt>
      <trkpt lat="43.118583597283" lon="-5.05528933369094">
        <ele>828.498569488525</ele>
        <time>2018-08-28T09:33:33Z</time>
      </trkpt>
      <trkpt lat="43.1186564360215" lon="-5.0552186742472">
        <ele>832.252964019775</ele>
        <time>2018-08-28T09:33:35Z</time>
      </trkpt>
      <trkpt lat="43.1187584856927" lon="-5.05518162623519">
        <ele>832.019565582275</ele>
        <time>2018-08-28T09:33:36Z</time>
      </trkpt>
      <trkpt lat="43.1188318692549" lon="-5.0551100447821">
        <ele>831.56521987915</ele>
        <time>2018-08-28T09:33:37Z</time>
      </trkpt>
      <trkpt lat="43.1188827893167" lon="-5.05501206033403">
        <ele>832.7727394104</ele>
        <time>2018-08-28T09:33:38Z</time>
      </trkpt>
      <trkpt lat="43.1189485453471" lon="-5.05488800816709">
        <ele>829.654453277588</ele>
        <time>2018-08-28T09:33:39Z</time>
      </trkpt>
      <trkpt lat="43.1189696677431" lon="-5.05480175838345">
        <ele>830.964389801025</ele>
        <time>2018-08-28T09:33:40Z</time>
      </trkpt>
      <trkpt lat="43.1189979985758" lon="-5.05472070537978">
        <ele>830.23221206665</ele>
        <time>2018-08-28T09:33:41Z</time>
      </trkpt>
      <trkpt lat="43.119035633321" lon="-5.05463948473805">
        <ele>830.268589019775</ele>
        <time>2018-08-28T09:33:42Z</time>
      </trkpt>
      <trkpt lat="43.118997369933" lon="-5.05454015918547">
        <ele>830.470249176025</ele>
        <time>2018-08-28T09:33:43Z</time>
      </trkpt>
      <trkpt lat="43.1190276286035" lon="-5.05445994437212">
        <ele>830.47928237915</ele>
        <time>2018-08-28T09:33:44Z</time>
      </trkpt>
      <trkpt lat="43.1190841645404" lon="-5.05442298017913">
        <ele>828.739292144775</ele>
        <time>2018-08-28T09:33:45Z</time>
      </trkpt>
      <trkpt lat="43.1191687379434" lon="-5.05430999212438">
        <ele>828.0930519104</ele>
        <time>2018-08-28T09:33:46Z</time>
      </trkpt>
      <trkpt lat="43.1192391878395" lon="-5.05418904126161">
        <ele>825.344760894775</ele>
        <time>2018-08-28T09:33:47Z</time>
      </trkpt>
      <trkpt lat="43.1193325203314" lon="-5.05410136655444">
        <ele>825.48416519165</ele>
        <time>2018-08-28T09:33:48Z</time>
      </trkpt>
      <trkpt lat="43.1194059877127" lon="-5.05401729606563">
        <ele>826.47537612915</ele>
        <time>2018-08-28T09:33:49Z</time>
      </trkpt>
      <trkpt lat="43.1195006193995" lon="-5.05395661108666">
        <ele>827.173252105713</ele>
        <time>2018-08-28T09:33:50Z</time>
      </trkpt>
      <trkpt lat="43.1195912696823" lon="-5.05389056168967">
        <ele>825.43729019165</ele>
        <time>2018-08-28T09:33:51Z</time>
      </trkpt>
      <trkpt lat="43.1196809560462" lon="-5.05382568575912">
        <ele>826.28494644165</ele>
        <time>2018-08-28T09:33:52Z</time>
      </trkpt>
      <trkpt lat="43.1197414733871" lon="-5.05376122892374">
        <ele>825.7776222229</ele>
        <time>2018-08-28T09:33:53Z</time>
      </trkpt>
      <trkpt lat="43.1198241189524" lon="-5.05370792001956">
        <ele>822.784702301025</ele>
        <time>2018-08-28T09:33:54Z</time>
      </trkpt>
      <trkpt lat="43.1199006457283" lon="-5.05369442515546">
        <ele>821.342319488525</ele>
        <time>2018-08-28T09:33:55Z</time>
      </trkpt>
      <trkpt lat="43.1199946068629" lon="-5.05369165912741">
        <ele>819.738437652588</ele>
        <time>2018-08-28T09:33:56Z</time>
      </trkpt>
      <trkpt lat="43.1200864306121" lon="-5.05370976403826">
        <ele>819.744541168213</ele>
        <time>2018-08-28T09:33:57Z</time>
      </trkpt>
      <trkpt lat="43.1201721355721" lon="-5.05372786894911">
        <ele>819.625522613525</ele>
        <time>2018-08-28T09:33:58Z</time>
      </trkpt>
      <trkpt lat="43.1202765321761" lon="-5.05374144763225">
        <ele>820.086460113525</ele>
        <time>2018-08-28T09:33:59Z</time>
      </trkpt>
      <trkpt lat="43.1203797553136" lon="-5.05372694693976">
        <ele>819.985507965088</ele>
        <time>2018-08-28T09:34:00Z</time>
      </trkpt>
      <trkpt lat="43.1204862054839" lon="-5.05366877653175">
        <ele>818.226963043213</ele>
        <time>2018-08-28T09:34:01Z</time>
      </trkpt>
      <trkpt lat="43.1205715751677" lon="-5.05360834300989">
        <ele>817.000156402588</ele>
        <time>2018-08-28T09:34:02Z</time>
      </trkpt>
      <trkpt lat="43.1206696434348" lon="-5.05355268717283">
        <ele>814.815952301025</ele>
        <time>2018-08-28T09:34:03Z</time>
      </trkpt>
      <trkpt lat="43.1207476789533" lon="-5.05349703133577">
        <ele>810.804233551025</ele>
        <time>2018-08-28T09:34:04Z</time>
      </trkpt>
      <trkpt lat="43.120848471339" lon="-5.05344321951741">
        <ele>810.083408355713</ele>
        <time>2018-08-28T09:34:05Z</time>
      </trkpt>
      <trkpt lat="43.1209471263393" lon="-5.05339887924963">
        <ele>808.4348487854</ele>
        <time>2018-08-28T09:34:06Z</time>
      </trkpt>
      <trkpt lat="43.1210061768471" lon="-5.05333651789003">
        <ele>806.714878082275</ele>
        <time>2018-08-28T09:34:07Z</time>
      </trkpt>
      <trkpt lat="43.1211104896321" lon="-5.05329184234613">
        <ele>804.234775543213</ele>
        <time>2018-08-28T09:34:08Z</time>
      </trkpt>
      <trkpt lat="43.1212213822111" lon="-5.05328614265197">
        <ele>804.12674331665</ele>
        <time>2018-08-28T09:34:09Z</time>
      </trkpt>
      <trkpt lat="43.1213197019353" lon="-5.05326946266466">
        <ele>803.4055519104</ele>
        <time>2018-08-28T09:34:10Z</time>
      </trkpt>
      <trkpt lat="43.121403437148" lon="-5.05323451012844">
        <ele>803.772373199463</ele>
        <time>2018-08-28T09:34:11Z</time>
      </trkpt>
      <trkpt lat="43.1214993261202" lon="-5.05318078212911">
        <ele>803.025791168213</ele>
        <time>2018-08-28T09:34:12Z</time>
      </trkpt>
      <trkpt lat="43.1215611007466" lon="-5.05311163142794">
        <ele>802.430210113525</ele>
        <time>2018-08-28T09:34:13Z</time>
      </trkpt>
      <trkpt lat="43.121608332771" lon="-5.05303217098587">
        <ele>802.25662612915</ele>
        <time>2018-08-28T09:34:14Z</time>
      </trkpt>
      <trkpt lat="43.1216456322401" lon="-5.05293896422261">
        <ele>800.769077301025</ele>
        <time>2018-08-28T09:34:15Z</time>
      </trkpt>
      <trkpt lat="43.121663988608" lon="-5.05285983905667">
        <ele>799.935459136963</ele>
        <time>2018-08-28T09:34:16Z</time>
      </trkpt>
      <trkpt lat="43.1216728315159" lon="-5.05275540054315">
        <ele>799.376499176025</ele>
        <time>2018-08-28T09:34:17Z</time>
      </trkpt>
      <trkpt lat="43.1216625636845" lon="-5.05266412161761">
        <ele>798.573764801025</ele>
        <time>2018-08-28T09:34:18Z</time>
      </trkpt>
      <trkpt lat="43.12168892477" lon="-5.05255498923832">
        <ele>797.023471832275</ele>
        <time>2018-08-28T09:34:19Z</time>
      </trkpt>
      <trkpt lat="43.121717926155" lon="-5.05244996399158">
        <ele>796.491733551025</ele>
        <time>2018-08-28T09:34:20Z</time>
      </trkpt>
      <trkpt lat="43.1217858195706" lon="-5.0523588527041">
        <ele>794.623447418213</ele>
        <time>2018-08-28T09:34:21Z</time>
      </trkpt>
      <trkpt lat="43.1218610052421" lon="-5.05228433758491">
        <ele>794.21658706665</ele>
        <time>2018-08-28T09:34:22Z</time>
      </trkpt>
      <trkpt lat="43.1219261745393" lon="-5.0522103253799">
        <ele>793.213901519775</ele>
        <time>2018-08-28T09:34:23Z</time>
      </trkpt>
      <trkpt lat="43.1219915952935" lon="-5.05214905366772">
        <ele>792.050693511963</ele>
        <time>2018-08-28T09:34:24Z</time>
      </trkpt>
      <trkpt lat="43.1220540823817" lon="-5.05209540948742">
        <ele>790.0676612854</ele>
        <time>2018-08-28T09:34:25Z</time>
      </trkpt>
      <trkpt lat="43.1221188325837" lon="-5.05205567926639">
        <ele>790.380405426025</ele>
        <time>2018-08-28T09:34:26Z</time>
      </trkpt>
      <trkpt lat="43.1221622927516" lon="-5.0520136859315">
        <ele>789.5725440979</ele>
        <time>2018-08-28T09:34:27Z</time>
      </trkpt>
      <trkpt lat="43.1222224329069" lon="-5.05198510364168">
        <ele>789.08572769165</ele>
        <time>2018-08-28T09:34:28Z</time>
      </trkpt>
      <trkpt lat="43.1222571758955" lon="-5.05193682387942">
        <ele>788.07986831665</ele>
        <time>2018-08-28T09:34:30Z</time>
      </trkpt>
      <trkpt lat="43.122305958572" lon="-5.05191083997958">
        <ele>786.3342628479</ele>
        <time>2018-08-28T09:34:31Z</time>
      </trkpt>
      <trkpt lat="43.1223602733045" lon="-5.05187504925304">
        <ele>786.22732925415</ele>
        <time>2018-08-28T09:34:32Z</time>
      </trkpt>
      <trkpt lat="43.1224248139589" lon="-5.05183246918493">
        <ele>783.758335113525</ele>
        <time>2018-08-28T09:34:33Z</time>
      </trkpt>
      <trkpt lat="43.122488432604" lon="-5.05178821273619">
        <ele>783.1692237854</ele>
        <time>2018-08-28T09:34:34Z</time>
      </trkpt>
      <trkpt lat="43.1225535180821" lon="-5.05173859186941">
        <ele>782.830600738525</ele>
        <time>2018-08-28T09:34:35Z</time>
      </trkpt>
      <trkpt lat="43.1226261891826" lon="-5.0516751408624">
        <ele>782.862216949463</ele>
        <time>2018-08-28T09:34:36Z</time>
      </trkpt>
      <trkpt lat="43.1227028416871" lon="-5.05161697045439">
        <ele>781.818881988525</ele>
        <time>2018-08-28T09:34:37Z</time>
      </trkpt>
      <trkpt lat="43.1227706931933" lon="-5.05153784528845">
        <ele>782.63260269165</ele>
        <time>2018-08-28T09:34:38Z</time>
      </trkpt>
      <trkpt lat="43.1228093337669" lon="-5.05147422664338">
        <ele>784.964389801025</ele>
        <time>2018-08-28T09:34:39Z</time>
      </trkpt>
      <trkpt lat="43.1228669593512" lon="-5.05138395354622">
        <ele>785.2268409729</ele>
        <time>2018-08-28T09:34:40Z</time>
      </trkpt>
      <trkpt lat="43.1229110900714" lon="-5.05130633712285">
        <ele>786.1135597229</ele>
        <time>2018-08-28T09:34:41Z</time>
      </trkpt>
      <trkpt lat="43.1229608785763" lon="-5.05122729577594">
        <ele>785.174839019775</ele>
        <time>2018-08-28T09:34:42Z</time>
      </trkpt>
      <trkpt lat="43.1230191328033" lon="-5.05116979592019">
        <ele>785.068881988525</ele>
        <time>2018-08-28T09:34:43Z</time>
      </trkpt>
      <trkpt lat="43.1230774289399" lon="-5.05109913647645">
        <ele>782.481967926025</ele>
        <time>2018-08-28T09:34:44Z</time>
      </trkpt>
      <trkpt lat="43.1231349707051" lon="-5.05102252588146">
        <ele>781.173007965088</ele>
        <time>2018-08-28T09:34:45Z</time>
      </trkpt>
      <trkpt lat="43.1231920514657" lon="-5.0509565603035">
        <ele>782.799350738525</ele>
        <time>2018-08-28T09:34:46Z</time>
      </trkpt>
      <trkpt lat="43.1232292671158" lon="-5.05090509541803">
        <ele>780.423862457275</ele>
        <time>2018-08-28T09:34:47Z</time>
      </trkpt>
      <trkpt lat="43.1232570112153" lon="-5.05085404962772">
        <ele>777.78787612915</ele>
        <time>2018-08-28T09:34:48Z</time>
      </trkpt>
      <trkpt lat="43.1232913770183" lon="-5.0507892575162">
        <ele>776.551792144775</ele>
        <time>2018-08-28T09:34:49Z</time>
      </trkpt>
      <trkpt lat="43.1233352143719" lon="-5.05072723143273">
        <ele>776.22537612915</ele>
        <time>2018-08-28T09:34:50Z</time>
      </trkpt>
      <trkpt lat="43.1233919598564" lon="-5.05064718425744">
        <ele>772.920932769775</ele>
        <time>2018-08-28T09:34:51Z</time>
      </trkpt>
      <trkpt lat="43.1234308518871" lon="-5.05057275295728">
        <ele>772.231479644775</ele>
        <time>2018-08-28T09:34:52Z</time>
      </trkpt>
      <trkpt lat="43.1234813109442" lon="-5.05049086176329">
        <ele>770.708042144775</ele>
        <time>2018-08-28T09:34:53Z</time>
      </trkpt>
      <trkpt lat="43.1234907824948" lon="-5.05040343851321">
        <ele>769.384189605713</ele>
        <time>2018-08-28T09:34:54Z</time>
      </trkpt>
      <trkpt lat="43.1235039001732" lon="-5.05032674409919">
        <ele>767.2024269104</ele>
        <time>2018-08-28T09:34:55Z</time>
      </trkpt>
      <trkpt lat="43.1234906986757" lon="-5.05024795420938">
        <ele>763.978427886963</ele>
        <time>2018-08-28T09:34:56Z</time>
      </trkpt>
      <trkpt lat="43.1234748987883" lon="-5.05017536692792">
        <ele>765.816440582275</ele>
        <time>2018-08-28T09:34:57Z</time>
      </trkpt>
      <trkpt lat="43.1234553689539" lon="-5.05010596476966">
        <ele>765.799716949463</ele>
        <time>2018-08-28T09:34:58Z</time>
      </trkpt>
      <trkpt lat="43.1234316900774" lon="-5.05004695617133">
        <ele>766.1868019104</ele>
        <time>2018-08-28T09:34:59Z</time>
      </trkpt>
      <trkpt lat="43.1234102324053" lon="-5.04997336306148">
        <ele>764.427768707275</ele>
        <time>2018-08-28T09:35:01Z</time>
      </trkpt>
      <trkpt lat="43.123381608206" lon="-5.04989708774262">
        <ele>755.840366363525</ele>
        <time>2018-08-28T09:38:28Z</time>
      </trkpt>
      <trkpt lat="43.1233384833141" lon="-5.04983841442042">
        <ele>756.516269683838</ele>
        <time>2018-08-28T09:38:30Z</time>
      </trkpt>
      <trkpt lat="43.1232943106844" lon="-5.04976775497668">
        <ele>756.705966949463</ele>
        <time>2018-08-28T09:38:32Z</time>
      </trkpt>
      <trkpt lat="43.1232553767442" lon="-5.04972073249989">
        <ele>756.662754058838</ele>
        <time>2018-08-28T09:38:34Z</time>
      </trkpt>
      <trkpt lat="43.1232086895435" lon="-5.04970908165448">
        <ele>757.696811676025</ele>
        <time>2018-08-28T09:39:09Z</time>
      </trkpt>
      <trkpt lat="43.1232174905419" lon="-5.04963154905015">
        <ele>761.323764801025</ele>
        <time>2018-08-28T09:39:21Z</time>
      </trkpt>
      <trkpt lat="43.1232114555716" lon="-5.04953783937269">
        <ele>761.79373550415</ele>
        <time>2018-08-28T09:39:23Z</time>
      </trkpt>
      <trkpt lat="43.1232069293439" lon="-5.04943910055333">
        <ele>761.037265777588</ele>
        <time>2018-08-28T09:39:25Z</time>
      </trkpt>
      <trkpt lat="43.1232127128571" lon="-5.04934002645784">
        <ele>759.828159332275</ele>
        <time>2018-08-28T09:39:27Z</time>
      </trkpt>
      <trkpt lat="43.1232461147412" lon="-5.04924162291461">
        <ele>758.17264175415</ele>
        <time>2018-08-28T09:39:29Z</time>
      </trkpt>
      <trkpt lat="43.123278678435" lon="-5.04915378056937">
        <ele>758.689853668213</ele>
        <time>2018-08-28T09:39:31Z</time>
      </trkpt>
      <trkpt lat="43.1233277544781" lon="-5.04908957519107">
        <ele>757.9924659729</ele>
        <time>2018-08-28T09:39:33Z</time>
      </trkpt>
      <trkpt lat="43.1233938457846" lon="-5.04902159795635">
        <ele>759.797397613525</ele>
        <time>2018-08-28T09:39:35Z</time>
      </trkpt>
      <trkpt lat="43.1235510483786" lon="-5.04893006757372">
        <ele>759.99588394165</ele>
        <time>2018-08-28T09:39:37Z</time>
      </trkpt>
      <trkpt lat="43.1236148765712" lon="-5.04885219969326">
        <ele>760.8850440979</ele>
        <time>2018-08-28T09:39:38Z</time>
      </trkpt>
      <trkpt lat="43.1236785371258" lon="-5.04879277199977">
        <ele>760.55350112915</ele>
        <time>2018-08-28T09:39:39Z</time>
      </trkpt>
      <trkpt lat="43.1237185607135" lon="-5.04874348640912">
        <ele>760.87967300415</ele>
        <time>2018-08-28T09:39:40Z</time>
      </trkpt>
      <trkpt lat="43.123757117468" lon="-5.0487014092552">
        <ele>761.13553237915</ele>
        <time>2018-08-28T09:39:41Z</time>
      </trkpt>
      <trkpt lat="43.123820317018" lon="-5.04867089912766">
        <ele>761.74393081665</ele>
        <time>2018-08-28T09:39:43Z</time>
      </trkpt>
      <trkpt lat="43.1238744222029" lon="-5.04864885472231">
        <ele>760.138706207275</ele>
        <time>2018-08-28T09:39:45Z</time>
      </trkpt>
      <trkpt lat="43.1239304971351" lon="-5.04862245172732">
        <ele>758.9827003479</ele>
        <time>2018-08-28T09:39:47Z</time>
      </trkpt>
      <trkpt lat="43.1239874940767" lon="-5.04863653332465">
        <ele>758.995151519775</ele>
        <time>2018-08-28T09:39:49Z</time>
      </trkpt>
      <trkpt lat="43.1240670802473" lon="-5.04865203984552">
        <ele>759.3899269104</ele>
        <time>2018-08-28T09:39:51Z</time>
      </trkpt>
      <trkpt lat="43.124150899279" lon="-5.04867609590762">
        <ele>759.172397613525</ele>
        <time>2018-08-28T09:39:53Z</time>
      </trkpt>
      <trkpt lat="43.1241986342176" lon="-5.04868221469694">
        <ele>759.659091949463</ele>
        <time>2018-08-28T09:39:54Z</time>
      </trkpt>
      <trkpt lat="43.1242696289375" lon="-5.04869529046588">
        <ele>759.0354347229</ele>
        <time>2018-08-28T09:39:55Z</time>
      </trkpt>
      <trkpt lat="43.1243282603502" lon="-5.04871088080578">
        <ele>759.068271636963</ele>
        <time>2018-08-28T09:39:56Z</time>
      </trkpt>
      <trkpt lat="43.1244044937595" lon="-5.04873870872431">
        <ele>760.102573394775</ele>
        <time>2018-08-28T09:39:57Z</time>
      </trkpt>
      <trkpt lat="43.1244542403548" lon="-5.04877978004985">
        <ele>760.849033355713</ele>
        <time>2018-08-28T09:39:58Z</time>
      </trkpt>
      <trkpt lat="43.1245455611899" lon="-5.04881448112898">
        <ele>761.493686676025</ele>
        <time>2018-08-28T09:39:59Z</time>
      </trkpt>
      <trkpt lat="43.1246479880466" lon="-5.04882596433633">
        <ele>761.7209815979</ele>
        <time>2018-08-28T09:40:00Z</time>
      </trkpt>
      <trkpt lat="43.1247416139051" lon="-5.04882453941279">
        <ele>762.376499176025</ele>
        <time>2018-08-28T09:40:01Z</time>
      </trkpt>
      <trkpt lat="43.1248336472019" lon="-5.0488221924799">
        <ele>760.706455230713</ele>
        <time>2018-08-28T09:40:02Z</time>
      </trkpt>
      <trkpt lat="43.1249253871321" lon="-5.04881615750962">
        <ele>760.29666519165</ele>
        <time>2018-08-28T09:40:03Z</time>
      </trkpt>
      <trkpt lat="43.1250187196239" lon="-5.04880048335069">
        <ele>759.407260894775</ele>
        <time>2018-08-28T09:40:04Z</time>
      </trkpt>
      <trkpt lat="43.1251161592483" lon="-5.0487843900966">
        <ele>759.26346206665</ele>
        <time>2018-08-28T09:40:05Z</time>
      </trkpt>
      <trkpt lat="43.1251969188853" lon="-5.04877449945086">
        <ele>757.55252456665</ele>
        <time>2018-08-28T09:40:06Z</time>
      </trkpt>
      <trkpt lat="43.125268626067" lon="-5.04873837344819">
        <ele>755.908237457275</ele>
        <time>2018-08-28T09:40:07Z</time>
      </trkpt>
      <trkpt lat="43.1253518583655" lon="-5.04871716723316">
        <ele>755.074741363525</ele>
        <time>2018-08-28T09:40:08Z</time>
      </trkpt>
      <trkpt lat="43.1254435563862" lon="-5.04868590273433">
        <ele>754.82596206665</ele>
        <time>2018-08-28T09:40:09Z</time>
      </trkpt>
      <trkpt lat="43.1254872680112" lon="-5.04865203984552">
        <ele>753.885776519775</ele>
        <time>2018-08-28T09:40:10Z</time>
      </trkpt>
      <trkpt lat="43.1255654711678" lon="-5.04861574620479">
        <ele>754.7561378479</ele>
        <time>2018-08-28T09:40:11Z</time>
      </trkpt>
      <trkpt lat="43.1256318139314" lon="-5.04859420471364">
        <ele>753.99686050415</ele>
        <time>2018-08-28T09:40:12Z</time>
      </trkpt>
      <trkpt lat="43.1256737234472" lon="-5.04856193438643">
        <ele>753.062656402588</ele>
        <time>2018-08-28T09:40:13Z</time>
      </trkpt>
      <trkpt lat="43.1257464783668" lon="-5.04853025079244">
        <ele>752.992343902588</ele>
        <time>2018-08-28T09:40:14Z</time>
      </trkpt>
      <trkpt lat="43.1258265255421" lon="-5.04849269986623">
        <ele>753.971591949463</ele>
        <time>2018-08-28T09:40:15Z</time>
      </trkpt>
      <trkpt lat="43.1258914433821" lon="-5.04846311174803">
        <ele>754.060581207275</ele>
        <time>2018-08-28T09:40:16Z</time>
      </trkpt>
      <trkpt lat="43.1259579537838" lon="-5.04843436182015">
        <ele>752.667392730713</ele>
        <time>2018-08-28T09:40:17Z</time>
      </trkpt>
      <trkpt lat="43.1260097539454" lon="-5.04840971902483">
        <ele>752.119297027588</ele>
        <time>2018-08-28T09:40:18Z</time>
      </trkpt>
      <trkpt lat="43.1260702293768" lon="-5.0483699888038">
        <ele>751.115268707275</ele>
        <time>2018-08-28T09:40:19Z</time>
      </trkpt>
      <trkpt lat="43.1261355244025" lon="-5.04833704792433">
        <ele>751.983921051025</ele>
        <time>2018-08-28T09:40:20Z</time>
      </trkpt>
      <trkpt lat="43.126189755316" lon="-5.04830821417742">
        <ele>750.715976715088</ele>
        <time>2018-08-28T09:40:21Z</time>
      </trkpt>
      <trkpt lat="43.1262391247257" lon="-5.04828164354437">
        <ele>750.262241363525</ele>
        <time>2018-08-28T09:40:22Z</time>
      </trkpt>
      <trkpt lat="43.126294068101" lon="-5.04824275151365">
        <ele>750.1828956604</ele>
        <time>2018-08-28T09:40:23Z</time>
      </trkpt>
      <trkpt lat="43.1263858499407" lon="-5.0482301786589">
        <ele>750.70584487915</ele>
        <time>2018-08-28T09:40:25Z</time>
      </trkpt>
      <trkpt lat="43.1264379853784" lon="-5.04820159636908">
        <ele>750.014682769775</ele>
        <time>2018-08-28T09:40:26Z</time>
      </trkpt>
      <trkpt lat="43.1264885701641" lon="-5.04816706292801">
        <ele>750.381381988525</ele>
        <time>2018-08-28T09:40:27Z</time>
      </trkpt>
      <trkpt lat="43.1265554158419" lon="-5.04815985449129">
        <ele>751.062534332275</ele>
        <time>2018-08-28T09:40:28Z</time>
      </trkpt>
      <trkpt lat="43.1266005523904" lon="-5.04813588224822">
        <ele>750.213901519775</ele>
        <time>2018-08-28T09:40:29Z</time>
      </trkpt>
      <trkpt lat="43.1266407436162" lon="-5.04809657112234">
        <ele>750.110385894775</ele>
        <time>2018-08-28T09:40:30Z</time>
      </trkpt>
      <trkpt lat="43.126691998954" lon="-5.0480674020993">
        <ele>749.65506362915</ele>
        <time>2018-08-28T09:40:31Z</time>
      </trkpt>
      <trkpt lat="43.1267090980365" lon="-5.04799984395974">
        <ele>748.435703277588</ele>
        <time>2018-08-28T09:40:32Z</time>
      </trkpt>
      <trkpt lat="43.1267476128816" lon="-5.04795868881517">
        <ele>747.846836090088</ele>
        <time>2018-08-28T09:40:33Z</time>
      </trkpt>
      <trkpt lat="43.126795012544" lon="-5.04791736603253">
        <ele>748.320957183838</ele>
        <time>2018-08-28T09:40:34Z</time>
      </trkpt>
      <trkpt lat="43.1268433342158" lon="-5.04784720950299">
        <ele>748.479404449463</ele>
        <time>2018-08-28T09:40:35Z</time>
      </trkpt>
      <trkpt lat="43.1268999958812" lon="-5.04779616371267">
        <ele>749.411655426025</ele>
        <time>2018-08-28T09:40:36Z</time>
      </trkpt>
      <trkpt lat="43.1269518798619" lon="-5.04775743932002">
        <ele>750.378940582275</ele>
        <time>2018-08-28T09:40:37Z</time>
      </trkpt>
      <trkpt lat="43.1270002015337" lon="-5.0476876180666">
        <ele>750.000156402588</ele>
        <time>2018-08-28T09:40:38Z</time>
      </trkpt>
      <trkpt lat="43.1270068232372" lon="-5.04761855118447">
        <ele>749.7258644104</ele>
        <time>2018-08-28T09:40:39Z</time>
      </trkpt>
      <trkpt lat="43.1270437874302" lon="-5.04754738882654">
        <ele>748.932651519775</ele>
        <time>2018-08-28T09:40:40Z</time>
      </trkpt>
      <trkpt lat="43.1270732079103" lon="-5.04745560698681">
        <ele>747.685947418213</ele>
        <time>2018-08-28T09:40:41Z</time>
      </trkpt>
      <trkpt lat="43.1271027960285" lon="-5.04736667499416">
        <ele>747.6809425354</ele>
        <time>2018-08-28T09:40:42Z</time>
      </trkpt>
      <trkpt lat="43.1271348568081" lon="-5.04727028310769">
        <ele>746.9426612854</ele>
        <time>2018-08-28T09:40:43Z</time>
      </trkpt>
      <trkpt lat="43.1271722400963" lon="-5.04717238247865">
        <ele>747.210483551025</ele>
        <time>2018-08-28T09:40:44Z</time>
      </trkpt>
      <trkpt lat="43.127197972539" lon="-5.04708638415211">
        <ele>746.84256362915</ele>
        <time>2018-08-28T09:40:45Z</time>
      </trkpt>
      <trkpt lat="43.1272263871908" lon="-5.04699669778817">
        <ele>746.582553863525</ele>
        <time>2018-08-28T09:40:46Z</time>
      </trkpt>
      <trkpt lat="43.12727060173" lon="-5.04690407775812">
        <ele>746.6516456604</ele>
        <time>2018-08-28T09:40:47Z</time>
      </trkpt>
      <trkpt lat="43.1273099966749" lon="-5.04680550657683">
        <ele>745.862339019775</ele>
        <time>2018-08-28T09:40:48Z</time>
      </trkpt>
      <trkpt lat="43.127376465167" lon="-5.04671129398518">
        <ele>745.72439956665</ele>
        <time>2018-08-28T09:40:49Z</time>
      </trkpt>
      <trkpt lat="43.1274128845363" lon="-5.04661766812675">
        <ele>745.520542144775</ele>
        <time>2018-08-28T09:40:50Z</time>
      </trkpt>
      <trkpt lat="43.1274216017156" lon="-5.04650727846198">
        <ele>743.284702301025</ele>
        <time>2018-08-28T09:40:51Z</time>
      </trkpt>
      <trkpt lat="43.1274500582769" lon="-5.04639538005464">
        <ele>740.527378082275</ele>
        <time>2018-08-28T09:40:52Z</time>
      </trkpt>
      <trkpt lat="43.1274985475867" lon="-5.04631793126934">
        <ele>740.137851715088</ele>
        <time>2018-08-28T09:40:53Z</time>
      </trkpt>
      <trkpt lat="43.1275540776952" lon="-5.04623662680857">
        <ele>740.060581207275</ele>
        <time>2018-08-28T09:40:54Z</time>
      </trkpt>
      <trkpt lat="43.1276614498749" lon="-5.04615372978621">
        <ele>740.296909332275</ele>
        <time>2018-08-28T09:40:55Z</time>
      </trkpt>
      <trkpt lat="43.1277524354338" lon="-5.0460762810009">
        <ele>739.60135269165</ele>
        <time>2018-08-28T09:40:56Z</time>
      </trkpt>
      <trkpt lat="43.1278176466405" lon="-5.04602439702027">
        <ele>739.832920074463</ele>
        <time>2018-08-28T09:40:57Z</time>
      </trkpt>
      <trkpt lat="43.1279062014475" lon="-5.04592817277186">
        <ele>739.819004058838</ele>
        <time>2018-08-28T09:40:58Z</time>
      </trkpt>
      <trkpt lat="43.1279761484294" lon="-5.04584385082596">
        <ele>739.846714019775</ele>
        <time>2018-08-28T09:40:59Z</time>
      </trkpt>
      <trkpt lat="43.1280474365159" lon="-5.04570957273715">
        <ele>736.850498199463</ele>
        <time>2018-08-28T09:41:00Z</time>
      </trkpt>
      <trkpt lat="43.1281177606835" lon="-5.04561980255418">
        <ele>735.5989112854</ele>
        <time>2018-08-28T09:41:01Z</time>
      </trkpt>
      <trkpt lat="43.128158664371" lon="-5.04553036764734">
        <ele>735.206577301025</ele>
        <time>2018-08-28T09:41:02Z</time>
      </trkpt>
      <trkpt lat="43.1281553116097" lon="-5.04545266740494">
        <ele>734.298007965088</ele>
        <time>2018-08-28T09:41:03Z</time>
      </trkpt>
      <trkpt lat="43.1281465944304" lon="-5.04534881562464">
        <ele>734.509799957275</ele>
        <time>2018-08-28T09:41:04Z</time>
      </trkpt>
      <trkpt lat="43.12812153254" lon="-5.04524915479593">
        <ele>734.87771987915</ele>
        <time>2018-08-28T09:41:05Z</time>
      </trkpt>
      <trkpt lat="43.1281250529393" lon="-5.04512887448542">
        <ele>736.03787612915</ele>
        <time>2018-08-28T09:41:06Z</time>
      </trkpt>
      <trkpt lat="43.1281232927396" lon="-5.04502770491414">
        <ele>737.0910987854</ele>
        <time>2018-08-28T09:41:07Z</time>
      </trkpt>
      <trkpt lat="43.1281172158598" lon="-5.04493349232249">
        <ele>737.977085113525</ele>
        <time>2018-08-28T09:41:08Z</time>
      </trkpt>
      <trkpt lat="43.1281248014822" lon="-5.04484263249211">
        <ele>737.1545753479</ele>
        <time>2018-08-28T09:41:09Z</time>
      </trkpt>
      <trkpt lat="43.1281592091947" lon="-5.04478647374087">
        <ele>736.6535987854</ele>
        <time>2018-08-28T09:41:10Z</time>
      </trkpt>
      <trkpt lat="43.1281954609259" lon="-5.04474724643402">
        <ele>735.68729019165</ele>
        <time>2018-08-28T09:41:11Z</time>
      </trkpt>
      <trkpt lat="43.1282981392398" lon="-5.04472210072451">
        <ele>735.257846832275</ele>
        <time>2018-08-28T09:41:12Z</time>
      </trkpt>
      <trkpt lat="43.1284342194378" lon="-5.04467901774221">
        <ele>734.441562652588</ele>
        <time>2018-08-28T09:41:13Z</time>
      </trkpt>
      <trkpt lat="43.1285329163476" lon="-5.0446760840761">
        <ele>734.336460113525</ele>
        <time>2018-08-28T09:41:14Z</time>
      </trkpt>
      <trkpt lat="43.1286127958848" lon="-5.04468589090281">
        <ele>734.449619293213</ele>
        <time>2018-08-28T09:41:15Z</time>
      </trkpt>
      <trkpt lat="43.1287099002331" lon="-5.04468278959863">
        <ele>734.8186378479</ele>
        <time>2018-08-28T09:41:16Z</time>
      </trkpt>
      <trkpt lat="43.1288306415483" lon="-5.04466887563937">
        <ele>735.384311676025</ele>
        <time>2018-08-28T09:41:17Z</time>
      </trkpt>
      <trkpt lat="43.1289429171413" lon="-5.04465345293753">
        <ele>732.5500831604</ele>
        <time>2018-08-28T09:41:18Z</time>
      </trkpt>
      <trkpt lat="43.1290502893209" lon="-5.04460718483203">
        <ele>730.261753082275</ele>
        <time>2018-08-28T09:41:19Z</time>
      </trkpt>
      <trkpt lat="43.1291282410204" lon="-5.04454281181567">
        <ele>729.36209487915</ele>
        <time>2018-08-28T09:41:20Z</time>
      </trkpt>
      <trkpt lat="43.1291861599713" lon="-5.044461758812">
        <ele>728.406894683838</ele>
        <time>2018-08-28T09:41:21Z</time>
      </trkpt>
      <trkpt lat="43.1292505329876" lon="-5.04436570220165">
        <ele>727.40799331665</ele>
        <time>2018-08-28T09:41:22Z</time>
      </trkpt>
      <trkpt lat="43.1292614294618" lon="-5.04425078630917">
        <ele>727.9670753479</ele>
        <time>2018-08-28T09:41:23Z</time>
      </trkpt>
      <trkpt lat="43.1292467611312" lon="-5.04412572831385">
        <ele>724.282871246338</ele>
        <time>2018-08-28T09:41:24Z</time>
      </trkpt>
      <trkpt lat="43.1292346492811" lon="-5.04400637001269">
        <ele>723.75760269165</ele>
        <time>2018-08-28T09:41:25Z</time>
      </trkpt>
      <trkpt lat="43.1292281952157" lon="-5.04388391040735">
        <ele>723.775913238525</ele>
        <time>2018-08-28T09:41:26Z</time>
      </trkpt>
      <trkpt lat="43.129158834967" lon="-5.04378475249283">
        <ele>724.845249176025</ele>
        <time>2018-08-28T09:41:27Z</time>
      </trkpt>
      <trkpt lat="43.1290949229553" lon="-5.04366380163007">
        <ele>720.96463394165</ele>
        <time>2018-08-28T09:41:28Z</time>
      </trkpt>
      <trkpt lat="43.1290300470247" lon="-5.04356632009618">
        <ele>720.058017730713</ele>
        <time>2018-08-28T09:41:29Z</time>
      </trkpt>
      <trkpt lat="43.1289681466698" lon="-5.04346875474327">
        <ele>719.98123550415</ele>
        <time>2018-08-28T09:41:30Z</time>
      </trkpt>
      <trkpt lat="43.1289048213913" lon="-5.04336113110654">
        <ele>719.3811378479</ele>
        <time>2018-08-28T09:41:31Z</time>
      </trkpt>
      <trkpt lat="43.1288318569242" lon="-5.04326046444945">
        <ele>719.23025894165</ele>
        <time>2018-08-28T09:41:32Z</time>
      </trkpt>
      <trkpt lat="43.1287737703353" lon="-5.04315602593594">
        <ele>723.653720855713</ele>
        <time>2018-08-28T09:41:33Z</time>
      </trkpt>
      <trkpt lat="43.1286903703987" lon="-5.04305804148786">
        <ele>724.051303863525</ele>
        <time>2018-08-28T09:41:34Z</time>
      </trkpt>
      <trkpt lat="43.1286038272484" lon="-5.04295779392593">
        <ele>724.139682769775</ele>
        <time>2018-08-28T09:41:35Z</time>
      </trkpt>
      <trkpt lat="43.1285160268127" lon="-5.04283240065448">
        <ele>720.784091949463</ele>
        <time>2018-08-28T09:41:36Z</time>
      </trkpt>
      <trkpt lat="43.128430740948" lon="-5.04273609258704">
        <ele>720.48416519165</ele>
        <time>2018-08-28T09:41:37Z</time>
      </trkpt>
      <trkpt lat="43.1283380790084" lon="-5.04262209870391">
        <ele>719.611850738525</ele>
        <time>2018-08-28T09:41:38Z</time>
      </trkpt>
      <trkpt lat="43.1282521225914" lon="-5.04251321778171">
        <ele>719.593662261963</ele>
        <time>2018-08-28T09:41:39Z</time>
      </trkpt>
      <trkpt lat="43.1281772302865" lon="-5.04240618087821">
        <ele>718.8938331604</ele>
        <time>2018-08-28T09:41:40Z</time>
      </trkpt>
      <trkpt lat="43.1280899746745" lon="-5.04227483645551">
        <ele>715.979404449463</ele>
        <time>2018-08-28T09:41:41Z</time>
      </trkpt>
      <trkpt lat="43.1279956782638" lon="-5.04214826971762">
        <ele>715.940586090088</ele>
        <time>2018-08-28T09:41:42Z</time>
      </trkpt>
      <trkpt lat="43.1279137451603" lon="-5.04204969853632">
        <ele>715.863803863525</ele>
        <time>2018-08-28T09:41:43Z</time>
      </trkpt>
      <trkpt lat="43.1278241845249" lon="-5.0419471040415">
        <ele>715.612216949463</ele>
        <time>2018-08-28T09:41:44Z</time>
      </trkpt>
      <trkpt lat="43.1277395692124" lon="-5.04184090532832">
        <ele>713.859409332275</ele>
        <time>2018-08-28T09:41:45Z</time>
      </trkpt>
      <trkpt lat="43.1276822369947" lon="-5.04176253453367">
        <ele>712.055698394775</ele>
        <time>2018-08-28T09:41:46Z</time>
      </trkpt>
      <trkpt lat="43.127598417963" lon="-5.04167418927424">
        <ele>711.712436676025</ele>
        <time>2018-08-28T09:41:47Z</time>
      </trkpt>
      <trkpt lat="43.1275207596301" lon="-5.04158433527224">
        <ele>712.807651519775</ele>
        <time>2018-08-28T09:41:48Z</time>
      </trkpt>
      <trkpt lat="43.1274578115373" lon="-5.0415239855694">
        <ele>712.431674957275</ele>
        <time>2018-08-28T09:41:49Z</time>
      </trkpt>
      <trkpt lat="43.1274167821213" lon="-5.0413910485851">
        <ele>712.1682472229</ele>
        <time>2018-08-28T09:41:50Z</time>
      </trkpt>
      <trkpt lat="43.1273488887056" lon="-5.04131284542851">
        <ele>711.001987457275</ele>
        <time>2018-08-28T09:41:51Z</time>
      </trkpt>
      <trkpt lat="43.1273888703837" lon="-5.04117940553002">
        <ele>711.334506988525</ele>
        <time>2018-08-28T09:41:52Z</time>
      </trkpt>
      <trkpt lat="43.1274170335784" lon="-5.04104487598412">
        <ele>710.244663238525</ele>
        <time>2018-08-28T09:41:53Z</time>
      </trkpt>
      <trkpt lat="43.1274405448168" lon="-5.04091034643822">
        <ele>709.790073394775</ele>
        <time>2018-08-28T09:41:54Z</time>
      </trkpt>
      <trkpt lat="43.1275529461383" lon="-5.04080272280149">
        <ele>707.499057769775</ele>
        <time>2018-08-28T09:41:55Z</time>
      </trkpt>
      <trkpt lat="43.1276057521283" lon="-5.04067724571101">
        <ele>705.473667144775</ele>
        <time>2018-08-28T09:41:56Z</time>
      </trkpt>
      <trkpt lat="43.1276411237597" lon="-5.04054757766895">
        <ele>704.85721206665</ele>
        <time>2018-08-28T09:41:57Z</time>
      </trkpt>
      <trkpt lat="43.127659102942" lon="-5.04041145556144">
        <ele>703.739292144775</ele>
        <time>2018-08-28T09:41:58Z</time>
      </trkpt>
      <trkpt lat="43.127671130973" lon="-5.04026209004693">
        <ele>702.430210113525</ele>
        <time>2018-08-28T09:41:59Z</time>
      </trkpt>
      <trkpt lat="43.1276808539807" lon="-5.0401013251441">
        <ele>702.681674957275</ele>
        <time>2018-08-28T09:42:00Z</time>
      </trkpt>
      <trkpt lat="43.1276979111537" lon="-5.03994475119285">
        <ele>702.043491363525</ele>
        <time>2018-08-28T09:42:01Z</time>
      </trkpt>
      <trkpt lat="43.1277577998518" lon="-5.03979764879219">
        <ele>699.44021987915</ele>
        <time>2018-08-28T09:42:02Z</time>
      </trkpt>
      <trkpt lat="43.1278413674264" lon="-5.03965775482826">
        <ele>699.15408706665</ele>
        <time>2018-08-28T09:42:03Z</time>
      </trkpt>
      <trkpt lat="43.1279050698906" lon="-5.03958265297584">
        <ele>697.93729019165</ele>
        <time>2018-08-28T09:42:04Z</time>
      </trkpt>
      <trkpt lat="43.1279522180959" lon="-5.03949338570706">
        <ele>698.062534332275</ele>
        <time>2018-08-28T09:42:05Z</time>
      </trkpt>
      <trkpt lat="43.1279848236992" lon="-5.03935860470407">
        <ele>695.897495269775</ele>
        <time>2018-08-28T09:42:06Z</time>
      </trkpt>
      <trkpt lat="43.1279636593937" lon="-5.03923346288972">
        <ele>693.719272613525</ele>
        <time>2018-08-28T09:42:07Z</time>
      </trkpt>
      <trkpt lat="43.1279575825139" lon="-5.03910647705667">
        <ele>693.408725738525</ele>
        <time>2018-08-28T09:42:08Z</time>
      </trkpt>
      <trkpt lat="43.12796311457" lon="-5.03896700218789">
        <ele>693.0442237854</ele>
        <time>2018-08-28T09:42:09Z</time>
      </trkpt>
      <trkpt lat="43.1279713707446" lon="-5.03881772049241">
        <ele>691.946323394775</ele>
        <time>2018-08-28T09:42:10Z</time>
      </trkpt>
      <trkpt lat="43.1279606419086" lon="-5.03865988925569">
        <ele>690.728549957275</ele>
        <time>2018-08-28T09:42:11Z</time>
      </trkpt>
      <trkpt lat="43.1279451772972" lon="-5.03850918263666">
        <ele>688.938999176025</ele>
        <time>2018-08-28T09:42:12Z</time>
      </trkpt>
      <trkpt lat="43.1279240968108" lon="-5.03837490454785">
        <ele>689.35623550415</ele>
        <time>2018-08-28T09:42:13Z</time>
      </trkpt>
      <trkpt lat="43.1279045250668" lon="-5.03824607469611">
        <ele>689.215244293213</ele>
        <time>2018-08-28T09:42:14Z</time>
      </trkpt>
      <trkpt lat="43.1278917426645" lon="-5.03812939860396">
        <ele>688.919956207275</ele>
        <time>2018-08-28T09:42:15Z</time>
      </trkpt>
      <trkpt lat="43.1278570415854" lon="-5.03801741637759">
        <ele>689.912021636963</ele>
        <time>2018-08-28T09:42:16Z</time>
      </trkpt>
      <trkpt lat="43.1277711689874" lon="-5.0379167497205">
        <ele>688.819858551025</ele>
        <time>2018-08-28T09:42:17Z</time>
      </trkpt>
      <trkpt lat="43.12769736633" lon="-5.03782060929112">
        <ele>687.445346832275</ele>
        <time>2018-08-28T09:42:18Z</time>
      </trkpt>
      <trkpt lat="43.1276137568458" lon="-5.03776461817793">
        <ele>688.303745269775</ele>
        <time>2018-08-28T09:42:19Z</time>
      </trkpt>
      <trkpt lat="43.1274910038739" lon="-5.03773670644037">
        <ele>686.864414215088</ele>
        <time>2018-08-28T09:42:20Z</time>
      </trkpt>
      <trkpt lat="43.1273983838438" lon="-5.03769177943937">
        <ele>686.148349761963</ele>
        <time>2018-08-28T09:42:21Z</time>
      </trkpt>
      <trkpt lat="43.1272926880448" lon="-5.03763595596425">
        <ele>685.426303863525</ele>
        <time>2018-08-28T09:42:22Z</time>
      </trkpt>
      <trkpt lat="43.1272227829724" lon="-5.03754752688579">
        <ele>685.898960113525</ele>
        <time>2018-08-28T09:42:23Z</time>
      </trkpt>
      <trkpt lat="43.1271340605273" lon="-5.03743059933655">
        <ele>685.880039215088</ele>
        <time>2018-08-28T09:42:24Z</time>
      </trkpt>
      <trkpt lat="43.1271061068802" lon="-5.03730914555959">
        <ele>685.239292144775</ele>
        <time>2018-08-28T09:42:25Z</time>
      </trkpt>
      <trkpt lat="43.1270343996986" lon="-5.03719188273422">
        <ele>684.99979019165</ele>
        <time>2018-08-28T09:42:26Z</time>
      </trkpt>
      <trkpt lat="43.1269307574659" lon="-5.03710454330317">
        <ele>684.569004058838</ele>
        <time>2018-08-28T09:42:27Z</time>
      </trkpt>
      <trkpt lat="43.1268274924188" lon="-5.03698845394425">
        <ele>685.2131690979</ele>
        <time>2018-08-28T09:42:28Z</time>
      </trkpt>
      <trkpt lat="43.1267775781854" lon="-5.03687881865076">
        <ele>685.999668121338</ele>
        <time>2018-08-28T09:42:29Z</time>
      </trkpt>
      <trkpt lat="43.126739356707" lon="-5.03678712063007">
        <ele>683.007358551025</ele>
        <time>2018-08-28T09:42:30Z</time>
      </trkpt>
      <trkpt lat="43.1266935496061" lon="-5.03667019308082">
        <ele>682.500888824463</ele>
        <time>2018-08-28T09:42:31Z</time>
      </trkpt>
      <trkpt lat="43.1267390214308" lon="-5.03659861162774">
        <ele>678.062534332275</ele>
        <time>2018-08-28T09:42:32Z</time>
      </trkpt>
      <trkpt lat="43.1268142071023" lon="-5.03652543761305">
        <ele>674.614658355713</ele>
        <time>2018-08-28T09:42:34Z</time>
      </trkpt>
      <trkpt lat="43.1269039772853" lon="-5.03652183339469">
        <ele>673.685092926025</ele>
        <time>2018-08-28T09:42:35Z</time>
      </trkpt>
      <trkpt lat="43.1269718287914" lon="-5.03658922389619">
        <ele>673.166538238525</ele>
        <time>2018-08-28T09:42:36Z</time>
      </trkpt>
      <trkpt lat="43.1270266045287" lon="-5.03664596938066">
        <ele>672.5969581604</ele>
        <time>2018-08-28T09:42:37Z</time>
      </trkpt>
      <trkpt lat="43.1270739203721" lon="-5.03672593273691">
        <ele>672.7053565979</ele>
        <time>2018-08-28T09:42:38Z</time>
      </trkpt>
      <trkpt lat="43.1271389639407" lon="-5.03675929271154">
        <ele>672.932651519775</ele>
        <time>2018-08-28T09:42:39Z</time>
      </trkpt>
      <trkpt lat="43.1271845614939" lon="-5.03681612201504">
        <ele>672.043369293213</ele>
        <time>2018-08-28T09:42:40Z</time>
      </trkpt>
      <trkpt lat="43.1272418518021" lon="-5.03686859272889">
        <ele>671.7522315979</ele>
        <time>2018-08-28T09:42:41Z</time>
      </trkpt>
      <trkpt lat="43.1272959569871" lon="-5.03692869097463">
        <ele>670.878452301025</ele>
        <time>2018-08-28T09:42:42Z</time>
      </trkpt>
      <trkpt lat="43.1273477571487" lon="-5.03699725494258">
        <ele>670.424961090088</ele>
        <time>2018-08-28T09:42:43Z</time>
      </trkpt>
      <trkpt lat="43.1273983419343" lon="-5.03706053831152">
        <ele>669.63553237915</ele>
        <time>2018-08-28T09:42:44Z</time>
      </trkpt>
      <trkpt lat="43.1274561351567" lon="-5.03711828962438">
        <ele>668.8821144104</ele>
        <time>2018-08-28T09:42:45Z</time>
      </trkpt>
      <trkpt lat="43.1275269622385" lon="-5.03715885803573">
        <ele>669.121128082275</ele>
        <time>2018-08-28T09:42:46Z</time>
      </trkpt>
      <trkpt lat="43.1276028184622" lon="-5.03719741479031">
        <ele>669.097690582275</ele>
        <time>2018-08-28T09:42:47Z</time>
      </trkpt>
      <trkpt lat="43.1276732683583" lon="-5.03723639064006">
        <ele>669.5862159729</ele>
        <time>2018-08-28T09:42:48Z</time>
      </trkpt>
      <trkpt lat="43.1277427962452" lon="-5.03726991825275">
        <ele>669.08279800415</ele>
        <time>2018-08-28T09:42:49Z</time>
      </trkpt>
      <trkpt lat="43.1278087199136" lon="-5.03730562516026">
        <ele>668.293979644775</ele>
        <time>2018-08-28T09:42:50Z</time>
      </trkpt>
      <trkpt lat="43.1278843665897" lon="-5.03732892685108">
        <ele>668.61990737915</ele>
        <time>2018-08-28T09:42:51Z</time>
      </trkpt>
      <trkpt lat="43.1279463926732" lon="-5.03734569065742">
        <ele>667.6125831604</ele>
        <time>2018-08-28T09:42:52Z</time>
      </trkpt>
      <trkpt lat="43.1280394317984" lon="-5.03734443337194">
        <ele>668.571933746338</ele>
        <time>2018-08-28T09:42:53Z</time>
      </trkpt>
      <trkpt lat="43.1281208200782" lon="-5.03737318329982">
        <ele>668.61795425415</ele>
        <time>2018-08-28T09:42:54Z</time>
      </trkpt>
      <trkpt lat="43.1282156194031" lon="-5.03736924380533">
        <ele>669.5325050354</ele>
        <time>2018-08-28T09:42:55Z</time>
      </trkpt>
      <trkpt lat="43.12828946397" lon="-5.03741056658797">
        <ele>669.738437652588</ele>
        <time>2018-08-28T09:42:56Z</time>
      </trkpt>
      <trkpt lat="43.1283517415106" lon="-5.0374571699696">
        <ele>670.140659332275</ele>
        <time>2018-08-28T09:42:57Z</time>
      </trkpt>
      <trkpt lat="43.1284127617657" lon="-5.03748206422202">
        <ele>670.252475738525</ele>
        <time>2018-08-28T09:42:58Z</time>
      </trkpt>
      <trkpt lat="43.1284761289536" lon="-5.03749698400967">
        <ele>670.08182144165</ele>
        <time>2018-08-28T09:42:59Z</time>
      </trkpt>
      <trkpt lat="43.1285307370528" lon="-5.03746965900533">
        <ele>667.364292144775</ele>
        <time>2018-08-28T09:43:00Z</time>
      </trkpt>
      <trkpt lat="43.1285798130959" lon="-5.03746831790082">
        <ele>667.099521636963</ele>
        <time>2018-08-28T09:43:01Z</time>
      </trkpt>
      <trkpt lat="43.1286455691262" lon="-5.0373361352878">
        <ele>665.334384918213</ele>
        <time>2018-08-28T09:43:03Z</time>
      </trkpt>
      <trkpt lat="43.1286570523336" lon="-5.03723873757295">
        <ele>666.73807144165</ele>
        <time>2018-08-28T09:43:04Z</time>
      </trkpt>
      <trkpt lat="43.1286737323209" lon="-5.03713396378331">
        <ele>666.755405426025</ele>
        <time>2018-08-28T09:43:05Z</time>
      </trkpt>
      <trkpt lat="43.1286772946297" lon="-5.03703522496394">
        <ele>666.8401222229</ele>
        <time>2018-08-28T09:43:06Z</time>
      </trkpt>
      <trkpt lat="43.1286760373443" lon="-5.03693103790752">
        <ele>666.897129058838</ele>
        <time>2018-08-28T09:43:07Z</time>
      </trkpt>
      <trkpt lat="43.1285832915857" lon="-5.03682559356562">
        <ele>666.216220855713</ele>
        <time>2018-08-28T09:43:08Z</time>
      </trkpt>
      <trkpt lat="43.1285868538945" lon="-5.03671118058733">
        <ele>664.00467300415</ele>
        <time>2018-08-28T09:43:09Z</time>
      </trkpt>
      <trkpt lat="43.1285991333827" lon="-5.03661981784276">
        <ele>663.358432769775</ele>
        <time>2018-08-28T09:43:10Z</time>
      </trkpt>
      <trkpt lat="43.1286756182491" lon="-5.03656407818667">
        <ele>663.440952301025</ele>
        <time>2018-08-28T09:43:11Z</time>
      </trkpt>
      <trkpt lat="43.1287345430284" lon="-5.03651462495796">
        <ele>663.781650543213</ele>
        <time>2018-08-28T09:43:12Z</time>
      </trkpt>
      <trkpt lat="43.1287953118264" lon="-5.03649936989419">
        <ele>663.38650894165</ele>
        <time>2018-08-28T09:43:13Z</time>
      </trkpt>
      <trkpt lat="43.1288711680501" lon="-5.03656265326313">
        <ele>664.143955230713</ele>
        <time>2018-08-28T09:43:15Z</time>
      </trkpt>
      <trkpt lat="43.1289114430948" lon="-5.03660179675094">
        <ele>665.3069190979</ele>
        <time>2018-08-28T09:43:16Z</time>
      </trkpt>
      <trkpt lat="43.1289550709009" lon="-5.03663850948684">
        <ele>665.2561378479</ele>
        <time>2018-08-28T09:43:17Z</time>
      </trkpt>
      <trkpt lat="43.1289568311005" lon="-5.03672651947014">
        <ele>664.782260894775</ele>
        <time>2018-08-28T09:43:18Z</time>
      </trkpt>
      <trkpt lat="43.1289931247412" lon="-5.03682056442372">
        <ele>666.272495269775</ele>
        <time>2018-08-28T09:43:20Z</time>
      </trkpt>
      <trkpt lat="43.1290380936518" lon="-5.0368717778521">
        <ele>663.55057144165</ele>
        <time>2018-08-28T09:43:22Z</time>
      </trkpt>
      <trkpt lat="43.1290526362538" lon="-5.03693975508682">
        <ele>664.597080230713</ele>
        <time>2018-08-28T09:43:23Z</time>
      </trkpt>
      <trkpt lat="43.1290459307312" lon="-5.03701535985343">
        <ele>666.3547706604</ele>
        <time>2018-08-28T09:43:24Z</time>
      </trkpt>
      <trkpt lat="43.1290379260137" lon="-5.03712859936528">
        <ele>668.868198394775</ele>
        <time>2018-08-28T09:43:26Z</time>
      </trkpt>
      <trkpt lat="43.129047942388" lon="-5.0372275058227">
        <ele>669.1721534729</ele>
        <time>2018-08-28T09:43:28Z</time>
      </trkpt>
      <trkpt lat="43.1290687295079" lon="-5.03732901067011">
        <ele>669.369174957275</ele>
        <time>2018-08-28T09:43:30Z</time>
      </trkpt>
      <trkpt lat="43.1290877983376" lon="-5.03744065762035">
        <ele>669.84744644165</ele>
        <time>2018-08-28T09:43:32Z</time>
      </trkpt>
      <trkpt lat="43.1291189371079" lon="-5.03753847443036">
        <ele>669.048374176025</ele>
        <time>2018-08-28T09:43:34Z</time>
      </trkpt>
      <trkpt lat="43.1291840644955" lon="-5.03761860542468">
        <ele>667.713413238525</ele>
        <time>2018-08-28T09:43:36Z</time>
      </trkpt>
      <trkpt lat="43.1292228307977" lon="-5.0376524683135">
        <ele>668.085605621338</ele>
        <time>2018-08-28T09:43:37Z</time>
      </trkpt>
      <trkpt lat="43.1292876229092" lon="-5.0377177633392">
        <ele>670.517124176025</ele>
        <time>2018-08-28T09:43:39Z</time>
      </trkpt>
      <trkpt lat="43.1293412670895" lon="-5.03778766841165">
        <ele>669.85623550415</ele>
        <time>2018-08-28T09:43:41Z</time>
      </trkpt>
      <trkpt lat="43.1293724058598" lon="-5.03786226734988">
        <ele>670.5061378479</ele>
        <time>2018-08-28T09:43:43Z</time>
      </trkpt>
      <trkpt lat="43.1293872837379" lon="-5.03794843331448">
        <ele>674.0325050354</ele>
        <time>2018-08-28T09:43:45Z</time>
      </trkpt>
      <trkpt lat="43.129407274577" lon="-5.03801733255856">
        <ele>671.966342926025</ele>
        <time>2018-08-28T09:43:47Z</time>
      </trkpt>
      <trkpt lat="43.1294374913379" lon="-5.038068713625">
        <ele>672.0373878479</ele>
        <time>2018-08-28T09:43:49Z</time>
      </trkpt>
      <trkpt lat="43.1294817896962" lon="-5.03812696785204">
        <ele>672.197788238525</ele>
        <time>2018-08-28T09:43:51Z</time>
      </trkpt>
      <trkpt lat="43.1295187538891" lon="-5.03819050267808">
        <ele>672.166538238525</ele>
        <time>2018-08-28T09:43:53Z</time>
      </trkpt>
      <trkpt lat="43.1295420974895" lon="-5.03827264532916">
        <ele>672.550205230713</ele>
        <time>2018-08-28T09:43:55Z</time>
      </trkpt>
      <trkpt lat="43.1295653153613" lon="-5.0383485853719">
        <ele>672.37967300415</ele>
        <time>2018-08-28T09:43:57Z</time>
      </trkpt>
      <trkpt lat="43.1295889942377" lon="-5.03842678852849">
        <ele>674.6321144104</ele>
        <time>2018-08-28T09:43:59Z</time>
      </trkpt>
      <trkpt lat="43.1296173250704" lon="-5.03850205801897">
        <ele>674.72635269165</ele>
        <time>2018-08-28T09:44:01Z</time>
      </trkpt>
      <trkpt lat="43.1296296045586" lon="-5.03858176991813">
        <ele>674.048374176025</ele>
        <time>2018-08-28T09:44:03Z</time>
      </trkpt>
      <trkpt lat="43.1296310294821" lon="-5.03866693005435">
        <ele>674.258335113525</ele>
        <time>2018-08-28T09:44:05Z</time>
      </trkpt>
      <trkpt lat="43.1296338374197" lon="-5.03875183873348">
        <ele>676.4465675354</ele>
        <time>2018-08-28T09:44:07Z</time>
      </trkpt>
      <trkpt lat="43.1296391180187" lon="-5.03883926198356">
        <ele>677.56033706665</ele>
        <time>2018-08-28T09:44:09Z</time>
      </trkpt>
      <trkpt lat="43.1296428479656" lon="-5.03893070854716">
        <ele>678.7473487854</ele>
        <time>2018-08-28T09:44:11Z</time>
      </trkpt>
      <trkpt lat="43.1296503497689" lon="-5.0390219874727">
        <ele>679.62381362915</ele>
        <time>2018-08-28T09:44:13Z</time>
      </trkpt>
      <trkpt lat="43.1296784710541" lon="-5.03910010681026">
        <ele>680.348667144775</ele>
        <time>2018-08-28T09:44:15Z</time>
      </trkpt>
      <trkpt lat="43.1297243200644" lon="-5.03916825168304">
        <ele>680.80057144165</ele>
        <time>2018-08-28T09:44:17Z</time>
      </trkpt>
      <trkpt lat="43.1297646370187" lon="-5.03923807293646">
        <ele>682.214878082275</ele>
        <time>2018-08-28T09:44:19Z</time>
      </trkpt>
      <trkpt lat="43.1298054987966" lon="-5.03930085339121">
        <ele>681.21072769165</ele>
        <time>2018-08-28T09:44:21Z</time>
      </trkpt>
      <trkpt lat="43.1298502581596" lon="-5.03935324028604">
        <ele>679.015659332275</ele>
        <time>2018-08-28T09:44:23Z</time>
      </trkpt>
      <trkpt lat="43.1298902817472" lon="-5.03940730356149">
        <ele>680.81814956665</ele>
        <time>2018-08-28T09:44:25Z</time>
      </trkpt>
      <trkpt lat="43.1299303891539" lon="-5.03948307596616">
        <ele>680.593784332275</ele>
        <time>2018-08-28T09:44:28Z</time>
      </trkpt>
      <trkpt lat="43.1299683172657" lon="-5.03953638487033">
        <ele>681.412631988525</ele>
        <time>2018-08-28T09:44:30Z</time>
      </trkpt>
      <trkpt lat="43.1300222548127" lon="-5.03958541900389">
        <ele>682.546421051025</ele>
        <time>2018-08-28T09:44:32Z</time>
      </trkpt>
      <trkpt lat="43.1300749769836" lon="-5.03964099102192">
        <ele>680.89822769165</ele>
        <time>2018-08-28T09:44:34Z</time>
      </trkpt>
      <trkpt lat="43.1301252684026" lon="-5.03969907761089">
        <ele>681.800815582275</ele>
        <time>2018-08-28T09:44:36Z</time>
      </trkpt>
      <trkpt lat="43.1301625678717" lon="-5.03976202570371">
        <ele>682.147983551025</ele>
        <time>2018-08-28T09:44:38Z</time>
      </trkpt>
      <trkpt lat="43.130195089656" lon="-5.03980653360955">
        <ele>681.796909332275</ele>
        <time>2018-08-28T09:44:40Z</time>
      </trkpt>
      <trkpt lat="43.1302297907352" lon="-5.03987526521556">
        <ele>681.695468902588</ele>
        <time>2018-08-28T09:44:42Z</time>
      </trkpt>
      <trkpt lat="43.1302758073836" lon="-5.03991440870337">
        <ele>680.35037612915</ele>
        <time>2018-08-28T09:44:44Z</time>
      </trkpt>
      <trkpt lat="43.1303334329679" lon="-5.03991147503726">
        <ele>678.157749176025</ele>
        <time>2018-08-28T09:44:46Z</time>
      </trkpt>
      <trkpt lat="43.1303843530297" lon="-5.03987794742457">
        <ele>678.772495269775</ele>
        <time>2018-08-28T09:44:48Z</time>
      </trkpt>
      <trkpt lat="43.1304273521929" lon="-5.0398317631381">
        <ele>679.470737457275</ele>
        <time>2018-08-28T09:44:50Z</time>
      </trkpt>
      <trkpt lat="43.1304744165792" lon="-5.03977543674879">
        <ele>680.934116363525</ele>
        <time>2018-08-28T09:44:52Z</time>
      </trkpt>
      <trkpt lat="43.1305176671996" lon="-5.03972246312074">
        <ele>681.826572418213</ele>
        <time>2018-08-28T09:44:54Z</time>
      </trkpt>
      <trkpt lat="43.1305513205408" lon="-5.03966823220722">
        <ele>682.431064605713</ele>
        <time>2018-08-28T09:44:56Z</time>
      </trkpt>
      <trkpt lat="43.1305815373018" lon="-5.03961358219854">
        <ele>681.940586090088</ele>
        <time>2018-08-28T09:44:58Z</time>
      </trkpt>
      <trkpt lat="43.130615190643" lon="-5.03955247812442">
        <ele>681.996616363525</ele>
        <time>2018-08-28T09:45:00Z</time>
      </trkpt>
      <trkpt lat="43.1306555075973" lon="-5.0394950620877">
        <ele>682.13064956665</ele>
        <time>2018-08-28T09:45:02Z</time>
      </trkpt>
      <trkpt lat="43.1306899572193" lon="-5.03944703378253">
        <ele>683.141147613525</ele>
        <time>2018-08-28T09:45:04Z</time>
      </trkpt>
      <trkpt lat="43.1307254964887" lon="-5.03940059803896">
        <ele>682.537631988525</ele>
        <time>2018-08-28T09:45:06Z</time>
      </trkpt>
      <trkpt lat="43.1307654362574" lon="-5.0393515639054">
        <ele>682.810214996338</ele>
        <time>2018-08-28T09:45:08Z</time>
      </trkpt>
      <trkpt lat="43.1308202119946" lon="-5.03930705599956">
        <ele>683.1321144104</ele>
        <time>2018-08-28T09:45:10Z</time>
      </trkpt>
      <trkpt lat="43.1308855908393" lon="-5.03929272294514">
        <ele>680.449253082275</ele>
        <time>2018-08-28T09:45:12Z</time>
      </trkpt>
      <trkpt lat="43.1309390673816" lon="-5.03930890001826">
        <ele>681.400913238525</ele>
        <time>2018-08-28T09:45:14Z</time>
      </trkpt>
      <trkpt lat="43.1309933821141" lon="-5.03935097717218">
        <ele>682.874546051025</ele>
        <time>2018-08-28T09:45:16Z</time>
      </trkpt>
      <trkpt lat="43.1310326094209" lon="-5.03942389972977">
        <ele>685.334995269775</ele>
        <time>2018-08-28T09:45:18Z</time>
      </trkpt>
      <trkpt lat="43.1310540251836" lon="-5.03951182589404">
        <ele>687.18436050415</ele>
        <time>2018-08-28T09:45:20Z</time>
      </trkpt>
      <trkpt lat="43.1310642091959" lon="-5.03959807567768">
        <ele>686.560092926025</ele>
        <time>2018-08-28T09:45:22Z</time>
      </trkpt>
      <trkpt lat="43.1310826912924" lon="-5.03967141733043">
        <ele>686.793003082275</ele>
        <time>2018-08-28T09:45:24Z</time>
      </trkpt>
      <trkpt lat="43.1311284983932" lon="-5.03973939456515">
        <ele>687.936557769775</ele>
        <time>2018-08-28T09:45:26Z</time>
      </trkpt>
      <trkpt lat="43.1311841542303" lon="-5.03978893161289">
        <ele>687.148838043213</ele>
        <time>2018-08-28T09:45:28Z</time>
      </trkpt>
      <trkpt lat="43.1312300032406" lon="-5.03982723691039">
        <ele>685.9729347229</ele>
        <time>2018-08-28T09:45:30Z</time>
      </trkpt>
      <trkpt lat="43.1312734214991" lon="-5.03985556774311">
        <ele>686.665195465088</ele>
        <time>2018-08-28T09:45:32Z</time>
      </trkpt>
      <trkpt lat="43.1313287839695" lon="-5.03987342119686">
        <ele>687.821323394775</ele>
        <time>2018-08-28T09:45:34Z</time>
      </trkpt>
      <trkpt lat="43.1313888822153" lon="-5.03989026882224">
        <ele>688.131870269775</ele>
        <time>2018-08-28T09:45:36Z</time>
      </trkpt>
      <trkpt lat="43.1314485613658" lon="-5.03991499543659">
        <ele>689.2336769104</ele>
        <time>2018-08-28T09:45:38Z</time>
      </trkpt>
      <trkpt lat="43.1315071927785" lon="-5.03993553109936">
        <ele>689.80154800415</ele>
        <time>2018-08-28T09:45:40Z</time>
      </trkpt>
      <trkpt lat="43.1315737450897" lon="-5.03995321691506">
        <ele>692.490146636963</ele>
        <time>2018-08-28T09:45:42Z</time>
      </trkpt>
      <trkpt lat="43.1316355197161" lon="-5.03996143118016">
        <ele>693.043491363525</ele>
        <time>2018-08-28T09:45:44Z</time>
      </trkpt>
      <trkpt lat="43.1316979648947" lon="-5.0399580784189">
        <ele>692.492221832275</ele>
        <time>2018-08-28T09:45:46Z</time>
      </trkpt>
      <trkpt lat="43.1317538302793" lon="-5.03996537067465">
        <ele>693.5520362854</ele>
        <time>2018-08-28T09:45:48Z</time>
      </trkpt>
      <trkpt lat="43.1318090251117" lon="-5.03997241147332">
        <ele>693.662021636963</ele>
        <time>2018-08-28T09:45:50Z</time>
      </trkpt>
      <trkpt lat="43.1318641780346" lon="-5.03994022496514">
        <ele>695.431186676025</ele>
        <time>2018-08-28T09:45:53Z</time>
      </trkpt>
      <trkpt lat="43.1318772957131" lon="-5.03987459466331">
        <ele>697.389682769775</ele>
        <time>2018-08-28T09:45:55Z</time>
      </trkpt>
      <trkpt lat="43.1318750745087" lon="-5.03979748115413">
        <ele>698.1409034729</ele>
        <time>2018-08-28T09:45:57Z</time>
      </trkpt>
      <trkpt lat="43.1318599451735" lon="-5.03973084502391">
        <ele>695.9133644104</ele>
        <time>2018-08-28T09:45:59Z</time>
      </trkpt>
      <trkpt lat="43.1318226457044" lon="-5.03968373872809">
        <ele>698.65408706665</ele>
        <time>2018-08-28T09:46:01Z</time>
      </trkpt>
      <trkpt lat="43.1317741563945" lon="-5.03967233933978">
        <ele>698.576328277588</ele>
        <time>2018-08-28T09:46:03Z</time>
      </trkpt>
      <trkpt lat="43.1317078555404" lon="-5.03966663964562">
        <ele>697.4963722229</ele>
        <time>2018-08-28T09:46:05Z</time>
      </trkpt>
      <trkpt lat="43.1316361483588" lon="-5.03966848366432">
        <ele>697.397861480713</ele>
        <time>2018-08-28T09:46:07Z</time>
      </trkpt>
      <trkpt lat="43.1315700570523" lon="-5.03965884447567">
        <ele>698.25076675415</ele>
        <time>2018-08-28T09:46:09Z</time>
      </trkpt>
      <trkpt lat="43.131512431468" lon="-5.03963839263193">
        <ele>698.798374176025</ele>
        <time>2018-08-28T09:46:11Z</time>
      </trkpt>
      <trkpt lat="43.1314519979461" lon="-5.03961408511273">
        <ele>698.51443862915</ele>
        <time>2018-08-28T09:46:13Z</time>
      </trkpt>
      <trkpt lat="43.1314029219031" lon="-5.03957075067334">
        <ele>701.756259918213</ele>
        <time>2018-08-28T09:46:15Z</time>
      </trkpt>
      <trkpt lat="43.1313630659535" lon="-5.03951635212175">
        <ele>701.76834487915</ele>
        <time>2018-08-28T09:46:17Z</time>
      </trkpt>
      <trkpt lat="43.1313175941288" lon="-5.03947016783528">
        <ele>703.02029800415</ele>
        <time>2018-08-28T09:46:19Z</time>
      </trkpt>
      <trkpt lat="43.1312888022914" lon="-5.03941476345532">
        <ele>703.44998550415</ele>
        <time>2018-08-28T09:46:21Z</time>
      </trkpt>
      <trkpt lat="43.1312763132557" lon="-5.03933756612711">
        <ele>703.9114112854</ele>
        <time>2018-08-28T09:46:23Z</time>
      </trkpt>
      <trkpt lat="43.1312722061231" lon="-5.03925676458053">
        <ele>706.41189956665</ele>
        <time>2018-08-28T09:46:25Z</time>
      </trkpt>
      <trkpt lat="43.131269356276" lon="-5.03918292001359">
        <ele>707.40408706665</ele>
        <time>2018-08-28T09:46:27Z</time>
      </trkpt>
      <trkpt lat="43.1312665483385" lon="-5.03910907544665">
        <ele>707.749179840088</ele>
        <time>2018-08-28T09:46:29Z</time>
      </trkpt>
      <trkpt lat="43.1312648719578" lon="-5.03901570104532">
        <ele>708.6155128479</ele>
        <time>2018-08-28T09:46:32Z</time>
      </trkpt>
      <trkpt lat="43.1312796241074" lon="-5.03895417787604">
        <ele>708.225620269775</ele>
        <time>2018-08-28T09:46:34Z</time>
      </trkpt>
      <trkpt lat="43.1312919455051" lon="-5.03888268024199">
        <ele>709.454624176025</ele>
        <time>2018-08-28T09:46:36Z</time>
      </trkpt>
      <trkpt lat="43.1312972680136" lon="-5.03880900331311">
        <ele>709.876499176025</ele>
        <time>2018-08-28T09:46:38Z</time>
      </trkpt>
      <trkpt lat="43.1312994473084" lon="-5.03873633221261">
        <ele>711.1282081604</ele>
        <time>2018-08-28T09:46:40Z</time>
      </trkpt>
      <trkpt lat="43.1312774448126" lon="-5.03866994753949">
        <ele>711.425327301025</ele>
        <time>2018-08-28T09:46:42Z</time>
      </trkpt>
      <trkpt lat="43.1312376307725" lon="-5.03862200305335">
        <ele>712.24686050415</ele>
        <time>2018-08-28T09:46:44Z</time>
      </trkpt>
      <trkpt lat="43.1311733834847" lon="-5.03858277574651">
        <ele>713.73709487915</ele>
        <time>2018-08-28T09:46:46Z</time>
      </trkpt>
      <trkpt lat="43.1311101420253" lon="-5.03855109215252">
        <ele>712.063999176025</ele>
        <time>2018-08-28T09:46:48Z</time>
      </trkpt>
      <trkpt lat="43.131052516441" lon="-5.03853969276421">
        <ele>712.602451324463</ele>
        <time>2018-08-28T09:46:50Z</time>
      </trkpt>
      <trkpt lat="43.1309872633248" lon="-5.03855788149409">
        <ele>716.051425933838</ele>
        <time>2018-08-28T09:46:52Z</time>
      </trkpt>
      <trkpt lat="43.1309262011602" lon="-5.03859207965903">
        <ele>716.738315582275</ele>
        <time>2018-08-28T09:46:54Z</time>
      </trkpt>
      <trkpt lat="43.1308673182904" lon="-5.03863675520293">
        <ele>721.0364112854</ele>
        <time>2018-08-28T09:46:56Z</time>
      </trkpt>
      <trkpt lat="43.1307903724193" lon="-5.03869174048774">
        <ele>720.2092628479</ele>
        <time>2018-08-28T09:46:58Z</time>
      </trkpt>
      <trkpt lat="43.1307081040397" lon="-5.03875116818122">
        <ele>720.27029800415</ele>
        <time>2018-08-28T09:47:00Z</time>
      </trkpt>
      <trkpt lat="43.1306633027672" lon="-5.03877782263331">
        <ele>720.321933746338</ele>
        <time>2018-08-28T09:47:01Z</time>
      </trkpt>
      <trkpt lat="43.1306221895322" lon="-5.03880330361895">
        <ele>717.084018707275</ele>
        <time>2018-08-28T09:47:02Z</time>
      </trkpt>
      <trkpt lat="43.1305492669746" lon="-5.03885510378055">
        <ele>718.680576324463</ele>
        <time>2018-08-28T09:47:04Z</time>
      </trkpt>
      <trkpt lat="43.1304725725605" lon="-5.03888368607037">
        <ele>719.007846832275</ele>
        <time>2018-08-28T09:47:06Z</time>
      </trkpt>
      <trkpt lat="43.1303879991575" lon="-5.03886206076018">
        <ele>716.621250152588</ele>
        <time>2018-08-28T09:47:08Z</time>
      </trkpt>
      <trkpt lat="43.1303302478447" lon="-5.0388110987889">
        <ele>714.083530426025</ele>
        <time>2018-08-28T09:47:10Z</time>
      </trkpt>
      <trkpt lat="43.1303376239195" lon="-5.03873314708941">
        <ele>716.42361831665</ele>
        <time>2018-08-28T09:47:12Z</time>
      </trkpt>
      <trkpt lat="43.1304013263836" lon="-5.03866751678757">
        <ele>715.581211090088</ele>
        <time>2018-08-28T09:47:14Z</time>
      </trkpt>
      <trkpt lat="43.1304758834123" lon="-5.03863214515619">
        <ele>713.547885894775</ele>
        <time>2018-08-28T09:47:16Z</time>
      </trkpt>
      <trkpt lat="43.130546375218" lon="-5.03858596086971">
        <ele>712.6321144104</ele>
        <time>2018-08-28T09:47:18Z</time>
      </trkpt>
      <trkpt lat="43.1306053838163" lon="-5.03851815127306">
        <ele>710.459873199463</ele>
        <time>2018-08-28T09:47:20Z</time>
      </trkpt>
      <trkpt lat="43.1306428509235" lon="-5.03845847212247">
        <ele>707.021030426025</ele>
        <time>2018-08-28T09:47:22Z</time>
      </trkpt>
      <trkpt lat="43.1306793541118" lon="-5.03838974051647">
        <ele>705.393711090088</ele>
        <time>2018-08-28T09:47:25Z</time>
      </trkpt>
      <trkpt lat="43.1307311961829" lon="-5.03834498115353">
        <ele>706.08182144165</ele>
        <time>2018-08-28T09:47:27Z</time>
      </trkpt>
      <trkpt lat="43.1307976227655" lon="-5.03830474801831">
        <ele>706.355991363525</ele>
        <time>2018-08-28T09:47:29Z</time>
      </trkpt>
      <trkpt lat="43.1308774603932" lon="-5.03825906664602">
        <ele>708.71756362915</ele>
        <time>2018-08-28T09:47:31Z</time>
      </trkpt>
      <trkpt lat="43.1309553701832" lon="-5.03822143190078">
        <ele>709.097324371338</ele>
        <time>2018-08-28T09:47:33Z</time>
      </trkpt>
      <trkpt lat="43.13099979427" lon="-5.03820634447507">
        <ele>710.4700050354</ele>
        <time>2018-08-28T09:47:34Z</time>
      </trkpt>
      <trkpt lat="43.1310450984567" lon="-5.03819402307741">
        <ele>711.464267730713</ele>
        <time>2018-08-28T09:47:35Z</time>
      </trkpt>
      <trkpt lat="43.1311235530704" lon="-5.03817357123367">
        <ele>712.572788238525</ele>
        <time>2018-08-28T09:47:37Z</time>
      </trkpt>
      <trkpt lat="43.1311964337184" lon="-5.03815094009511">
        <ele>713.6604347229</ele>
        <time>2018-08-28T09:47:39Z</time>
      </trkpt>
      <trkpt lat="43.1312777800887" lon="-5.03814004362099">
        <ele>712.717807769775</ele>
        <time>2018-08-28T09:47:41Z</time>
      </trkpt>
      <trkpt lat="43.1313619343966" lon="-5.03814255819194">
        <ele>717.092807769775</ele>
        <time>2018-08-28T09:47:43Z</time>
      </trkpt>
      <trkpt lat="43.1314354017779" lon="-5.03813752905004">
        <ele>717.20682144165</ele>
        <time>2018-08-28T09:47:45Z</time>
      </trkpt>
      <trkpt lat="43.1315040495648" lon="-5.03813023679428">
        <ele>719.425815582275</ele>
        <time>2018-08-28T09:47:47Z</time>
      </trkpt>
      <trkpt lat="43.1315629324346" lon="-5.03813970834486">
        <ele>720.478672027588</ele>
        <time>2018-08-28T09:47:49Z</time>
      </trkpt>
      <trkpt lat="43.1316179177194" lon="-5.0381688773679">
        <ele>722.099033355713</ele>
        <time>2018-08-28T09:47:51Z</time>
      </trkpt>
      <trkpt lat="43.1316661136627" lon="-5.03823090345137">
        <ele>722.468906402588</ele>
        <time>2018-08-28T09:47:53Z</time>
      </trkpt>
      <trkpt lat="43.1316897506296" lon="-5.03833056428008">
        <ele>723.776401519775</ele>
        <time>2018-08-28T09:47:55Z</time>
      </trkpt>
      <trkpt lat="43.1316930195718" lon="-5.03843232058458">
        <ele>722.1379737854</ele>
        <time>2018-08-28T09:47:57Z</time>
      </trkpt>
      <trkpt lat="43.1316817040026" lon="-5.03852427006237">
        <ele>721.420444488525</ele>
        <time>2018-08-28T09:47:59Z</time>
      </trkpt>
      <trkpt lat="43.1316752080276" lon="-5.03861177713148">
        <ele>720.585971832275</ele>
        <time>2018-08-28T09:48:01Z</time>
      </trkpt>
      <trkpt lat="43.1316890381678" lon="-5.03869065084033">
        <ele>721.860385894775</ele>
        <time>2018-08-28T09:48:03Z</time>
      </trkpt>
      <trkpt lat="43.131714561063" lon="-5.03874856979124">
        <ele>719.449863433838</ele>
        <time>2018-08-28T09:48:05Z</time>
      </trkpt>
      <trkpt lat="43.1317539140984" lon="-5.03881596029274">
        <ele>718.499546051025</ele>
        <time>2018-08-28T09:48:08Z</time>
      </trkpt>
      <trkpt lat="43.1317917583912" lon="-5.0388610549318">
        <ele>719.480991363525</ele>
        <time>2018-08-28T09:48:10Z</time>
      </trkpt>
      <trkpt lat="43.1318496354326" lon="-5.03889659420125">
        <ele>719.366245269775</ele>
        <time>2018-08-28T09:48:12Z</time>
      </trkpt>
      <trkpt lat="43.1319060456409" lon="-5.03892559558622">
        <ele>720.812534332275</ele>
        <time>2018-08-28T09:48:14Z</time>
      </trkpt>
      <trkpt lat="43.1319590611785" lon="-5.03895945847504">
        <ele>722.727573394775</ele>
        <time>2018-08-28T09:48:16Z</time>
      </trkpt>
      <trkpt lat="43.1320044072747" lon="-5.03899784759156">
        <ele>723.442295074463</ele>
        <time>2018-08-28T09:48:18Z</time>
      </trkpt>
      <trkpt lat="43.1320518488466" lon="-5.0390238314914">
        <ele>724.353061676025</ele>
        <time>2018-08-28T09:48:20Z</time>
      </trkpt>
      <trkpt lat="43.1320979493141" lon="-5.03903774545066">
        <ele>725.422397613525</ele>
        <time>2018-08-28T09:48:22Z</time>
      </trkpt>
      <trkpt lat="43.1321442174196" lon="-5.03905895166568">
        <ele>725.109409332275</ele>
        <time>2018-08-28T09:48:24Z</time>
      </trkpt>
      <trkpt lat="43.132195514667" lon="-5.03909138963096">
        <ele>727.595859527588</ele>
        <time>2018-08-28T09:48:26Z</time>
      </trkpt>
      <trkpt lat="43.1322581274837" lon="-5.03911100328438">
        <ele>728.464878082275</ele>
        <time>2018-08-28T09:48:28Z</time>
      </trkpt>
      <trkpt lat="43.1323122745781" lon="-5.03913581371777">
        <ele>729.28885269165</ele>
        <time>2018-08-28T09:48:30Z</time>
      </trkpt>
      <trkpt lat="43.1323720375478" lon="-5.03914821893446">
        <ele>730.645664215088</ele>
        <time>2018-08-28T09:48:32Z</time>
      </trkpt>
      <trkpt lat="43.1324244244426" lon="-5.03914738074414">
        <ele>730.877964019775</ele>
        <time>2018-08-28T09:48:34Z</time>
      </trkpt>
      <trkpt lat="43.1324802898272" lon="-5.03915098496251">
        <ele>731.44217300415</ele>
        <time>2018-08-28T09:48:36Z</time>
      </trkpt>
      <trkpt lat="43.1325244624569" lon="-5.03916406073145">
        <ele>733.9700050354</ele>
        <time>2018-08-28T09:48:38Z</time>
      </trkpt>
      <trkpt lat="43.1325829262316" lon="-5.03917437047236">
        <ele>734.396030426025</ele>
        <time>2018-08-28T09:48:40Z</time>
      </trkpt>
      <trkpt lat="43.1326464610576" lon="-5.03918074071877">
        <ele>734.857944488525</ele>
        <time>2018-08-28T09:48:42Z</time>
      </trkpt>
      <trkpt lat="43.1327147735684" lon="-5.03917797469072">
        <ele>737.688022613525</ele>
        <time>2018-08-28T09:48:44Z</time>
      </trkpt>
      <trkpt lat="43.1327773444756" lon="-5.0391615461605">
        <ele>737.6409034729</ele>
        <time>2018-08-28T09:48:46Z</time>
      </trkpt>
      <trkpt lat="43.1328284321755" lon="-5.03913975321226">
        <ele>738.25760269165</ele>
        <time>2018-08-28T09:48:48Z</time>
      </trkpt>
      <trkpt lat="43.1328777596756" lon="-5.03911620006435">
        <ele>739.426303863525</ele>
        <time>2018-08-28T09:48:50Z</time>
      </trkpt>
      <trkpt lat="43.1329326192319" lon="-5.03907227889173">
        <ele>740.971714019775</ele>
        <time>2018-08-28T09:48:53Z</time>
      </trkpt>
      <trkpt lat="43.1329821143701" lon="-5.03902894445233">
        <ele>742.827548980713</ele>
        <time>2018-08-28T09:48:56Z</time>
      </trkpt>
      <trkpt lat="43.1330246525287" lon="-5.03898309544198">
        <ele>742.034214019775</ele>
        <time>2018-08-28T09:48:58Z</time>
      </trkpt>
      <trkpt lat="43.1330700824439" lon="-5.03893129528038">
        <ele>739.418979644775</ele>
        <time>2018-08-28T09:49:00Z</time>
      </trkpt>
      <trkpt lat="43.1331134587928" lon="-5.03888670355551">
        <ele>740.247592926025</ele>
        <time>2018-08-28T09:49:02Z</time>
      </trkpt>
      <trkpt lat="43.1331658875971" lon="-5.03884152509741">
        <ele>741.083164215088</ele>
        <time>2018-08-28T09:49:04Z</time>
      </trkpt>
      <trkpt lat="43.1332194060489" lon="-5.03879768774383">
        <ele>740.177768707275</ele>
        <time>2018-08-28T09:49:06Z</time>
      </trkpt>
      <trkpt lat="43.13326864973" lon="-5.03875703551344">
        <ele>740.463413238525</ele>
        <time>2018-08-28T09:49:08Z</time>
      </trkpt>
      <trkpt lat="43.1333032669901" lon="-5.03871244378857">
        <ele>742.160312652588</ele>
        <time>2018-08-28T09:49:10Z</time>
      </trkpt>
      <trkpt lat="43.1333484873577" lon="-5.03865779377989">
        <ele>743.479526519775</ele>
        <time>2018-08-28T09:49:12Z</time>
      </trkpt>
      <trkpt lat="43.13338897195" lon="-5.03860515542798">
        <ele>741.912631988525</ele>
        <time>2018-08-28T09:49:14Z</time>
      </trkpt>
      <trkpt lat="43.1334398081928" lon="-5.03854505718224">
        <ele>742.330478668213</ele>
        <time>2018-08-28T09:49:16Z</time>
      </trkpt>
      <trkpt lat="43.1334974756866" lon="-5.03848445602231">
        <ele>742.80740737915</ele>
        <time>2018-08-28T09:49:18Z</time>
      </trkpt>
      <trkpt lat="43.1335386308312" lon="-5.03842754289977">
        <ele>742.803134918213</ele>
        <time>2018-08-28T09:49:20Z</time>
      </trkpt>
      <trkpt lat="43.133579073514" lon="-5.03837104887239">
        <ele>743.5032081604</ele>
        <time>2018-08-28T09:49:22Z</time>
      </trkpt>
      <trkpt lat="43.1336204801156" lon="-5.03832478076689">
        <ele>742.92264175415</ele>
        <time>2018-08-28T09:49:24Z</time>
      </trkpt>
      <trkpt lat="43.13366511375" lon="-5.03826728091113">
        <ele>743.7707862854</ele>
        <time>2018-08-28T09:49:26Z</time>
      </trkpt>
      <trkpt lat="43.1337080710038" lon="-5.03821665421597">
        <ele>744.446323394775</ele>
        <time>2018-08-28T09:49:28Z</time>
      </trkpt>
      <trkpt lat="43.1337481784105" lon="-5.03817642108075">
        <ele>744.998447418213</ele>
        <time>2018-08-28T09:49:30Z</time>
      </trkpt>
      <trkpt lat="43.1337926444068" lon="-5.03813845105938">
        <ele>746.2327003479</ele>
        <time>2018-08-28T09:49:32Z</time>
      </trkpt>
      <trkpt lat="43.133851401548" lon="-5.03811313771181">
        <ele>748.814121246338</ele>
        <time>2018-08-28T09:49:34Z</time>
      </trkpt>
      <trkpt lat="43.1339124218031" lon="-5.03811758012049">
        <ele>749.740879058838</ele>
        <time>2018-08-28T09:49:36Z</time>
      </trkpt>
      <trkpt lat="43.1339762919053" lon="-5.03812721930913">
        <ele>750.492588043213</ele>
        <time>2018-08-28T09:49:38Z</time>
      </trkpt>
      <trkpt lat="43.134037605527" lon="-5.03812654875688">
        <ele>750.02713394165</ele>
        <time>2018-08-28T09:49:40Z</time>
      </trkpt>
      <trkpt lat="43.1340925069928" lon="-5.03812084906272">
        <ele>749.159702301025</ele>
        <time>2018-08-28T09:49:42Z</time>
      </trkpt>
      <trkpt lat="43.1341404514789" lon="-5.0381102040457">
        <ele>750.56619644165</ele>
        <time>2018-08-28T09:49:44Z</time>
      </trkpt>
      <trkpt lat="43.1341847917467" lon="-5.03809830174319">
        <ele>750.4807472229</ele>
        <time>2018-08-28T09:49:46Z</time>
      </trkpt>
      <trkpt lat="43.1342497934058" lon="-5.03807391040496">
        <ele>751.994663238525</ele>
        <time>2018-08-28T09:49:49Z</time>
      </trkpt>
      <trkpt lat="43.1343148788839" lon="-5.03806133755021">
        <ele>752.124057769775</ele>
        <time>2018-08-28T09:49:51Z</time>
      </trkpt>
      <trkpt lat="43.1343769468769" lon="-5.03804516047709">
        <ele>751.354038238525</ele>
        <time>2018-08-28T09:49:53Z</time>
      </trkpt>
      <trkpt lat="43.1344363326608" lon="-5.03803258762233">
        <ele>752.807163238525</ele>
        <time>2018-08-28T09:49:55Z</time>
      </trkpt>
      <trkpt lat="43.1344891805603" lon="-5.03802093677692">
        <ele>753.437412261963</ele>
        <time>2018-08-28T09:49:57Z</time>
      </trkpt>
      <trkpt lat="43.1345520029246" lon="-5.03799025901131">
        <ele>752.5969581604</ele>
        <time>2018-08-28T09:50:00Z</time>
      </trkpt>
      <trkpt lat="43.1346001150488" lon="-5.0379648618447">
        <ele>752.411167144775</ele>
        <time>2018-08-28T09:50:03Z</time>
      </trkpt>
      <trkpt lat="43.1346554775193" lon="-5.03792479634754">
        <ele>757.703159332275</ele>
        <time>2018-08-28T09:54:24Z</time>
      </trkpt>
      <trkpt lat="43.1347249634966" lon="-5.03788104281299">
        <ele>757.895664215088</ele>
        <time>2018-08-28T09:54:26Z</time>
      </trkpt>
      <trkpt lat="43.1347959163069" lon="-5.03783921711616">
        <ele>758.154453277588</ele>
        <time>2018-08-28T09:54:28Z</time>
      </trkpt>
      <trkpt lat="43.1348804478004" lon="-5.03779613413386">
        <ele>757.421421051025</ele>
        <time>2018-08-28T09:54:30Z</time>
      </trkpt>
      <trkpt lat="43.134962632361" lon="-5.03774927929513">
        <ele>757.316562652588</ele>
        <time>2018-08-28T09:54:32Z</time>
      </trkpt>
      <trkpt lat="43.1350434758171" lon="-5.03769907169513">
        <ele>756.728061676025</ele>
        <time>2018-08-28T09:54:34Z</time>
      </trkpt>
      <trkpt lat="43.1350842956855" lon="-5.03767183050982">
        <ele>756.75564956665</ele>
        <time>2018-08-28T09:54:35Z</time>
      </trkpt>
      <trkpt lat="43.1351658935129" lon="-5.03761726432018">
        <ele>755.842685699463</ele>
        <time>2018-08-28T09:54:37Z</time>
      </trkpt>
      <trkpt lat="43.1352067552909" lon="-5.03758717328779">
        <ele>756.012729644775</ele>
        <time>2018-08-28T09:54:38Z</time>
      </trkpt>
      <trkpt lat="43.135249419178" lon="-5.03752573393754">
        <ele>755.6350440979</ele>
        <time>2018-08-28T09:54:39Z</time>
      </trkpt>
      <trkpt lat="43.1352786720201" lon="-5.03745490685574">
        <ele>755.2688331604</ele>
        <time>2018-08-28T09:54:41Z</time>
      </trkpt>
      <trkpt lat="43.1352842040762" lon="-5.03738885745875">
        <ele>755.266147613525</ele>
        <time>2018-08-28T09:54:43Z</time>
      </trkpt>
      <trkpt lat="43.1352531910344" lon="-5.03732549027078">
        <ele>754.598178863525</ele>
        <time>2018-08-28T09:54:45Z</time>
      </trkpt>
      <trkpt lat="43.1352075096622" lon="-5.03728534095458">
        <ele>754.146152496338</ele>
        <time>2018-08-28T09:54:47Z</time>
      </trkpt>
      <trkpt lat="43.1351672765269" lon="-5.03723605536394">
        <ele>754.933139801025</ele>
        <time>2018-08-28T09:54:49Z</time>
      </trkpt>
      <trkpt lat="43.1351158954605" lon="-5.03718660213522">
        <ele>758.22146987915</ele>
        <time>2018-08-28T09:54:52Z</time>
      </trkpt>
      <trkpt lat="43.135073776397" lon="-5.03712985665075">
        <ele>760.211948394775</ele>
        <time>2018-08-28T09:54:55Z</time>
      </trkpt>
      <trkpt lat="43.1350328308001" lon="-5.03706950694792">
        <ele>760.740756988525</ele>
        <time>2018-08-28T09:54:59Z</time>
      </trkpt>
      <trkpt lat="43.1349980878114" lon="-5.03701770678632">
        <ele>760.660678863525</ele>
        <time>2018-08-28T09:55:02Z</time>
      </trkpt>
      <trkpt lat="43.1349576870381" lon="-5.03697755747012">
        <ele>761.175693511963</ele>
        <time>2018-08-28T09:55:05Z</time>
      </trkpt>
      <trkpt lat="43.1348993909016" lon="-5.03698426299266">
        <ele>761.772006988525</ele>
        <time>2018-08-28T09:55:08Z</time>
      </trkpt>
      <trkpt lat="43.1348507758632" lon="-5.03699147142939">
        <ele>761.713535308838</ele>
        <time>2018-08-28T09:55:10Z</time>
      </trkpt>
      <trkpt lat="43.1347886659607" lon="-5.03700144589416">
        <ele>762.74979019165</ele>
        <time>2018-08-28T09:55:13Z</time>
      </trkpt>
      <trkpt lat="43.1347248796775" lon="-5.03700161353223">
        <ele>763.330112457275</ele>
        <time>2018-08-28T09:55:16Z</time>
      </trkpt>
      <trkpt lat="43.1346809165954" lon="-5.03698627464942">
        <ele>763.11404800415</ele>
        <time>2018-08-28T09:55:19Z</time>
      </trkpt>
      <trkpt lat="43.1346373726084" lon="-5.03696531989149">
        <ele>763.27713394165</ele>
        <time>2018-08-28T09:55:22Z</time>
      </trkpt>
      <trkpt lat="43.1345851114421" lon="-5.03694721498064">
        <ele>763.377964019775</ele>
        <time>2018-08-28T09:55:25Z</time>
      </trkpt>
      <trkpt lat="43.1345272763103" lon="-5.03693707287781">
        <ele>763.3528175354</ele>
        <time>2018-08-28T09:55:28Z</time>
      </trkpt>
      <trkpt lat="43.1344662979647" lon="-5.03693271428816">
        <ele>763.281772613525</ele>
        <time>2018-08-28T09:55:31Z</time>
      </trkpt>
      <trkpt lat="43.1344074150949" lon="-5.03693975508682">
        <ele>764.227085113525</ele>
        <time>2018-08-28T09:55:34Z</time>
      </trkpt>
      <trkpt lat="43.1343578361376" lon="-5.0369478855329">
        <ele>765.329990386963</ele>
        <time>2018-08-28T09:55:37Z</time>
      </trkpt>
      <trkpt lat="43.1343093468278" lon="-5.03693983890585">
        <ele>765.886753082275</ele>
        <time>2018-08-28T09:55:40Z</time>
      </trkpt>
      <trkpt lat="43.1342567922949" lon="-5.03692902625076">
        <ele>767.03396987915</ele>
        <time>2018-08-28T09:55:43Z</time>
      </trkpt>
      <trkpt lat="43.1342055788665" lon="-5.03690849058799">
        <ele>767.988315582275</ele>
        <time>2018-08-28T09:55:48Z</time>
      </trkpt>
      <trkpt lat="43.134160442318" lon="-5.03688175231687">
        <ele>768.84451675415</ele>
        <time>2018-08-28T09:55:51Z</time>
      </trkpt>
      <trkpt lat="43.1341098156228" lon="-5.03686817363374">
        <ele>769.35330581665</ele>
        <time>2018-08-28T09:55:55Z</time>
      </trkpt>
      <trkpt lat="43.1340610748559" lon="-5.0368683412718">
        <ele>769.542636871338</ele>
        <time>2018-08-28T09:55:58Z</time>
      </trkpt>
      <trkpt lat="43.1340089813276" lon="-5.03686876036696">
        <ele>770.6077003479</ele>
        <time>2018-08-28T09:56:01Z</time>
      </trkpt>
      <trkpt lat="43.1339594442799" lon="-5.03685719334058">
        <ele>771.81814956665</ele>
        <time>2018-08-28T09:56:04Z</time>
      </trkpt>
      <trkpt lat="43.1339032855287" lon="-5.03682827577464">
        <ele>773.033237457275</ele>
        <time>2018-08-28T09:56:08Z</time>
      </trkpt>
      <trkpt lat="43.1338581908896" lon="-5.03682928160302">
        <ele>774.140537261963</ele>
        <time>2018-08-28T09:56:11Z</time>
      </trkpt>
      <trkpt lat="43.1338019483193" lon="-5.03681452945344">
        <ele>775.33377456665</ele>
        <time>2018-08-28T09:56:15Z</time>
      </trkpt>
      <trkpt lat="43.1337451190158" lon="-5.03680757247381">
        <ele>775.611972808838</ele>
        <time>2018-08-28T09:56:19Z</time>
      </trkpt>
      <trkpt lat="43.1336988090008" lon="-5.03681846894793">
        <ele>776.266635894775</ele>
        <time>2018-08-28T09:56:22Z</time>
      </trkpt>
      <trkpt lat="43.1336446619063" lon="-5.03682324663274">
        <ele>777.530307769775</ele>
        <time>2018-08-28T09:56:26Z</time>
      </trkpt>
      <trkpt lat="43.1335984357103" lon="-5.03681897186212">
        <ele>777.85818862915</ele>
        <time>2018-08-28T09:56:29Z</time>
      </trkpt>
      <trkpt lat="43.133552754338" lon="-5.03683548421137">
        <ele>778.89822769165</ele>
        <time>2018-08-28T09:56:32Z</time>
      </trkpt>
      <trkpt lat="43.1335050193995" lon="-5.03684646450452">
        <ele>780.32107925415</ele>
        <time>2018-08-28T09:56:35Z</time>
      </trkpt>
      <trkpt lat="43.1334540993377" lon="-5.03688108176462">
        <ele>781.20096206665</ele>
        <time>2018-08-28T09:56:39Z</time>
      </trkpt>
      <trkpt lat="43.13341407575" lon="-5.03692760132722">
        <ele>781.197422027588</ele>
        <time>2018-08-28T09:56:43Z</time>
      </trkpt>
      <trkpt lat="43.1333740521624" lon="-5.03696490079634">
        <ele>783.3928565979</ele>
        <time>2018-08-28T09:56:46Z</time>
      </trkpt>
      <trkpt lat="43.1333247246622" lon="-5.03701276146345">
        <ele>783.981601715088</ele>
        <time>2018-08-28T09:56:49Z</time>
      </trkpt>
      <trkpt lat="43.133279127109" lon="-5.037072356795">
        <ele>785.220249176025</ele>
        <time>2018-08-28T09:56:52Z</time>
      </trkpt>
      <trkpt lat="43.1332267821237" lon="-5.0371310301172">
        <ele>784.216831207275</ele>
        <time>2018-08-28T09:56:55Z</time>
      </trkpt>
      <trkpt lat="43.1331724673911" lon="-5.03718358465008">
        <ele>785.482456207275</ele>
        <time>2018-08-28T09:56:58Z</time>
      </trkpt>
      <trkpt lat="43.1331148418068" lon="-5.03722549416594">
        <ele>786.706577301025</ele>
        <time>2018-08-28T09:57:01Z</time>
      </trkpt>
      <trkpt lat="43.1330566713988" lon="-5.03725072369449">
        <ele>786.609409332275</ele>
        <time>2018-08-28T09:57:04Z</time>
      </trkpt>
      <trkpt lat="43.1330029433995" lon="-5.03726363182537">
        <ele>787.39725112915</ele>
        <time>2018-08-28T09:57:07Z</time>
      </trkpt>
      <trkpt lat="43.1329417135968" lon="-5.03727016970984">
        <ele>788.165195465088</ele>
        <time>2018-08-28T09:57:10Z</time>
      </trkpt>
      <trkpt lat="43.1328897457972" lon="-5.0372446887242">
        <ele>789.774082183838</ele>
        <time>2018-08-28T09:57:13Z</time>
      </trkpt>
      <trkpt lat="43.1328553380846" lon="-5.03719096072487">
        <ele>791.495151519775</ele>
        <time>2018-08-28T09:57:16Z</time>
      </trkpt>
      <trkpt lat="43.1328362273454" lon="-5.03711929545276">
        <ele>792.0608253479</ele>
        <time>2018-08-28T09:57:19Z</time>
      </trkpt>
      <trkpt lat="43.1328447349771" lon="-5.03703958355359">
        <ele>791.866733551025</ele>
        <time>2018-08-28T09:57:22Z</time>
      </trkpt>
      <trkpt lat="43.1328697549581" lon="-5.0369547586935">
        <ele>792.8860206604</ele>
        <time>2018-08-28T09:57:25Z</time>
      </trkpt>
      <trkpt lat="43.1328963255911" lon="-5.03690354526512">
        <ele>794.067539215088</ele>
        <time>2018-08-28T09:57:27Z</time>
      </trkpt>
      <trkpt lat="43.1329299370229" lon="-5.03685509786479">
        <ele>794.24295425415</ele>
        <time>2018-08-28T09:57:29Z</time>
      </trkpt>
      <trkpt lat="43.1329625007167" lon="-5.03681218252055">
        <ele>795.123569488525</ele>
        <time>2018-08-28T09:57:31Z</time>
      </trkpt>
      <trkpt lat="43.1329959026008" lon="-5.03674085252456">
        <ele>796.215732574463</ele>
        <time>2018-08-28T09:57:34Z</time>
      </trkpt>
      <trkpt lat="43.1330333277985" lon="-5.03666759469084">
        <ele>796.616733551025</ele>
        <time>2018-08-28T09:57:37Z</time>
      </trkpt>
      <trkpt lat="43.1330699148058" lon="-5.03659232520036">
        <ele>796.2903175354</ele>
        <time>2018-08-28T09:57:40Z</time>
      </trkpt>
      <trkpt lat="43.1330992933764" lon="-5.03651387058667">
        <ele>794.811069488525</ele>
        <time>2018-08-28T09:57:43Z</time>
      </trkpt>
      <trkpt lat="43.1331251096382" lon="-5.03645846620671">
        <ele>794.762241363525</ele>
        <time>2018-08-28T09:57:45Z</time>
      </trkpt>
      <trkpt lat="43.133151093538" lon="-5.03640566021673">
        <ele>796.456089019775</ele>
        <time>2018-08-28T09:57:47Z</time>
      </trkpt>
      <trkpt lat="43.1331795920088" lon="-5.03634111956231">
        <ele>796.200595855713</ele>
        <time>2018-08-28T09:57:50Z</time>
      </trkpt>
      <trkpt lat="43.1332112756028" lon="-5.03628160804979">
        <ele>797.876621246338</ele>
        <time>2018-08-28T09:57:53Z</time>
      </trkpt>
      <trkpt lat="43.1332536461233" lon="-5.03621203825347">
        <ele>799.695835113525</ele>
        <time>2018-08-28T09:57:57Z</time>
      </trkpt>
      <trkpt lat="43.1332933763444" lon="-5.03615143709354">
        <ele>800.59939956665</ele>
        <time>2018-08-28T09:58:00Z</time>
      </trkpt>
      <trkpt lat="43.133332016918" lon="-5.03608563915364">
        <ele>802.494297027588</ele>
        <time>2018-08-28T09:58:03Z</time>
      </trkpt>
      <trkpt lat="43.133380841504" lon="-5.03601816483311">
        <ele>800.425815582275</ele>
        <time>2018-08-28T09:58:06Z</time>
      </trkpt>
      <trkpt lat="43.1334212003677" lon="-5.03595295362643">
        <ele>801.2317237854</ele>
        <time>2018-08-28T09:58:09Z</time>
      </trkpt>
      <trkpt lat="43.1334511656716" lon="-5.03589997999839">
        <ele>803.063022613525</ele>
        <time>2018-08-28T09:58:12Z</time>
      </trkpt>
      <trkpt lat="43.1334799155995" lon="-5.03583124839238">
        <ele>803.89920425415</ele>
        <time>2018-08-28T09:58:16Z</time>
      </trkpt>
      <trkpt lat="43.1335242558672" lon="-5.03577576019339">
        <ele>805.3987159729</ele>
        <time>2018-08-28T09:58:20Z</time>
      </trkpt>
      <trkpt lat="43.1335623516172" lon="-5.03572647460274">
        <ele>807.148105621338</ele>
        <time>2018-08-28T09:58:23Z</time>
      </trkpt>
      <trkpt lat="43.1335892156168" lon="-5.03567333333663">
        <ele>805.49100112915</ele>
        <time>2018-08-28T09:58:27Z</time>
      </trkpt>
      <trkpt lat="43.1336347712606" lon="-5.03561859950892">
        <ele>807.95584487915</ele>
        <time>2018-08-28T09:58:31Z</time>
      </trkpt>
      <trkpt lat="43.133675591129" lon="-5.03558322787754">
        <ele>807.611850738525</ele>
        <time>2018-08-28T09:58:34Z</time>
      </trkpt>
      <trkpt lat="43.1337274332001" lon="-5.03556302749089">
        <ele>808.58279800415</ele>
        <time>2018-08-28T09:58:37Z</time>
      </trkpt>
      <trkpt lat="43.1337872380792" lon="-5.03557769582144">
        <ele>810.429233551025</ele>
        <time>2018-08-28T09:58:41Z</time>
      </trkpt>
      <trkpt lat="43.1338471686869" lon="-5.03557216376535">
        <ele>809.17752456665</ele>
        <time>2018-08-28T09:58:44Z</time>
      </trkpt>
      <trkpt lat="43.133893562521" lon="-5.03557786345951">
        <ele>809.7112159729</ele>
        <time>2018-08-28T09:58:47Z</time>
      </trkpt>
      <trkpt lat="43.133939788717" lon="-5.03557962365917">
        <ele>811.68924331665</ele>
        <time>2018-08-28T09:58:50Z</time>
      </trkpt>
      <trkpt lat="43.1339948578208" lon="-5.03556051291994">
        <ele>812.83768081665</ele>
        <time>2018-08-28T09:58:53Z</time>
      </trkpt>
      <trkpt lat="43.1340416288405" lon="-5.03555137664549">
        <ele>813.67264175415</ele>
        <time>2018-08-28T09:58:56Z</time>
      </trkpt>
      <trkpt lat="43.1340832449897" lon="-5.03552556038372">
        <ele>814.852695465088</ele>
        <time>2018-08-28T09:58:59Z</time>
      </trkpt>
      <trkpt lat="43.1341336202278" lon="-5.0355004146742">
        <ele>817.712436676025</ele>
        <time>2018-08-28T09:59:04Z</time>
      </trkpt>
      <trkpt lat="43.134178966324" lon="-5.0355004146742">
        <ele>819.297397613525</ele>
        <time>2018-08-28T09:59:09Z</time>
      </trkpt>
      <trkpt lat="43.1342207920208" lon="-5.03546454012863">
        <ele>818.616245269775</ele>
        <time>2018-08-28T09:59:18Z</time>
      </trkpt>
      <trkpt lat="43.1342669763073" lon="-5.03542941995434">
        <ele>819.801303863525</ele>
        <time>2018-08-28T09:59:21Z</time>
      </trkpt>
      <trkpt lat="43.1343224645063" lon="-5.03540745936803">
        <ele>821.6409034729</ele>
        <time>2018-08-28T09:59:24Z</time>
      </trkpt>
      <trkpt lat="43.1343802996381" lon="-5.03538130783014">
        <ele>823.76248550415</ele>
        <time>2018-08-28T09:59:27Z</time>
      </trkpt>
      <trkpt lat="43.1344259810104" lon="-5.03535456955902">
        <ele>825.529331207275</ele>
        <time>2018-08-28T09:59:30Z</time>
      </trkpt>
      <trkpt lat="43.1344709499209" lon="-5.03533051349692">
        <ele>825.473178863525</ele>
        <time>2018-08-28T09:59:33Z</time>
      </trkpt>
      <trkpt lat="43.1345226662635" lon="-5.03530176356904">
        <ele>825.976108551025</ele>
        <time>2018-08-28T09:59:36Z</time>
      </trkpt>
      <trkpt lat="43.134567467536" lon="-5.03526890650861">
        <ele>825.52811050415</ele>
        <time>2018-08-28T09:59:39Z</time>
      </trkpt>
      <trkpt lat="43.1346190162405" lon="-5.03523177467756">
        <ele>826.0110206604</ele>
        <time>2018-08-28T09:59:42Z</time>
      </trkpt>
      <trkpt lat="43.1346694333881" lon="-5.03518952988557">
        <ele>824.557163238525</ele>
        <time>2018-08-28T09:59:45Z</time>
      </trkpt>
      <trkpt lat="43.1347030867293" lon="-5.03513504751496">
        <ele>826.5022315979</ele>
        <time>2018-08-28T09:59:48Z</time>
      </trkpt>
      <trkpt lat="43.1347278971627" lon="-5.03507922403983">
        <ele>826.294956207275</ele>
        <time>2018-08-28T09:59:51Z</time>
      </trkpt>
      <trkpt lat="43.1347593292996" lon="-5.03500009887389">
        <ele>826.182285308838</ele>
        <time>2018-08-28T09:59:54Z</time>
      </trkpt>
      <trkpt lat="43.1347785238578" lon="-5.0349411740946">
        <ele>826.61893081665</ele>
        <time>2018-08-28T09:59:56Z</time>
      </trkpt>
      <trkpt lat="43.1348016160011" lon="-5.03488157876305">
        <ele>826.185947418213</ele>
        <time>2018-08-28T09:59:58Z</time>
      </trkpt>
      <trkpt lat="43.1348286476388" lon="-5.03481293097607">
        <ele>826.47342300415</ele>
        <time>2018-08-28T10:00:01Z</time>
      </trkpt>
      <trkpt lat="43.1348431902408" lon="-5.03475199454002">
        <ele>826.9114112854</ele>
        <time>2018-08-28T10:00:04Z</time>
      </trkpt>
      <trkpt lat="43.1348631810799" lon="-5.03467236645989">
        <ele>831.345615386963</ele>
        <time>2018-08-28T10:00:08Z</time>
      </trkpt>
      <trkpt lat="43.1348876981466" lon="-5.03460732289127">
        <ele>831.73807144165</ele>
        <time>2018-08-28T10:00:11Z</time>
      </trkpt>
      <trkpt lat="43.134903078939" lon="-5.03452585079245">
        <ele>832.815952301025</ele>
        <time>2018-08-28T10:00:14Z</time>
      </trkpt>
      <trkpt lat="43.1349054677814" lon="-5.03445929848127">
        <ele>834.3098487854</ele>
        <time>2018-08-28T10:00:17Z</time>
      </trkpt>
      <trkpt lat="43.1349200942024" lon="-5.03437816165856">
        <ele>834.963901519775</ele>
        <time>2018-08-28T10:00:20Z</time>
      </trkpt>
      <trkpt lat="43.1349197170168" lon="-5.03430959769062">
        <ele>836.28299331665</ele>
        <time>2018-08-28T10:00:24Z</time>
      </trkpt>
      <trkpt lat="43.1349285180151" lon="-5.03424555995039">
        <ele>837.110385894775</ele>
        <time>2018-08-28T10:00:28Z</time>
      </trkpt>
      <trkpt lat="43.1349541666388" lon="-5.0341776665347">
        <ele>836.7190284729</ele>
        <time>2018-08-28T10:00:31Z</time>
      </trkpt>
      <trkpt lat="43.1349802343577" lon="-5.03410139121584">
        <ele>837.747104644775</ele>
        <time>2018-08-28T10:00:34Z</time>
      </trkpt>
      <trkpt lat="43.1350177852839" lon="-5.03404967487327">
        <ele>837.280185699463</ele>
        <time>2018-08-28T10:00:36Z</time>
      </trkpt>
      <trkpt lat="43.1350676995173" lon="-5.03399351612202">
        <ele>837.9524269104</ele>
        <time>2018-08-28T10:00:39Z</time>
      </trkpt>
      <trkpt lat="43.1351134227991" lon="-5.03393920138947">
        <ele>836.6643409729</ele>
        <time>2018-08-28T10:00:42Z</time>
      </trkpt>
      <trkpt lat="43.135160864371" lon="-5.0338890776085">
        <ele>835.95096206665</ele>
        <time>2018-08-28T10:00:46Z</time>
      </trkpt>
      <trkpt lat="43.1352087250381" lon="-5.03382814117245">
        <ele>835.70975112915</ele>
        <time>2018-08-28T10:00:49Z</time>
      </trkpt>
      <trkpt lat="43.13526136339" lon="-5.03377525136344">
        <ele>837.741245269775</ele>
        <time>2018-08-28T10:00:52Z</time>
      </trkpt>
      <trkpt lat="43.1353042787343" lon="-5.03372169100217">
        <ele>838.205112457275</ele>
        <time>2018-08-28T10:00:55Z</time>
      </trkpt>
      <trkpt lat="43.1353490800067" lon="-5.03367458470635">
        <ele>841.09451675415</ele>
        <time>2018-08-28T10:00:58Z</time>
      </trkpt>
      <trkpt lat="43.1354078790575" lon="-5.03363669850401">
        <ele>840.800815582275</ele>
        <time>2018-08-28T10:01:01Z</time>
      </trkpt>
      <trkpt lat="43.1354627386137" lon="-5.03359864466361">
        <ele>842.3450050354</ele>
        <time>2018-08-28T10:01:04Z</time>
      </trkpt>
      <trkpt lat="43.1354928715556" lon="-5.0335491914349">
        <ele>840.58279800415</ele>
        <time>2018-08-28T10:01:08Z</time>
      </trkpt>
      <trkpt lat="43.1355432048842" lon="-5.03349680454008">
        <ele>841.763706207275</ele>
        <time>2018-08-28T10:01:11Z</time>
      </trkpt>
      <trkpt lat="43.1355985673546" lon="-5.03345397301487">
        <ele>841.20193862915</ele>
        <time>2018-08-28T10:01:14Z</time>
      </trkpt>
      <trkpt lat="43.1356450869172" lon="-5.03342555836312">
        <ele>842.180820465088</ele>
        <time>2018-08-28T10:01:17Z</time>
      </trkpt>
      <trkpt lat="43.1356996950164" lon="-5.03339605406395">
        <ele>842.43729019165</ele>
        <time>2018-08-28T10:01:20Z</time>
      </trkpt>
      <trkpt lat="43.1357515370875" lon="-5.03337493166796">
        <ele>842.805698394775</ele>
        <time>2018-08-28T10:01:23Z</time>
      </trkpt>
      <trkpt lat="43.1357943267032" lon="-5.03334349953107">
        <ele>843.674839019775</ele>
        <time>2018-08-28T10:01:26Z</time>
      </trkpt>
      <trkpt lat="43.1358337635576" lon="-5.03329413012139">
        <ele>844.83865737915</ele>
        <time>2018-08-28T10:01:29Z</time>
      </trkpt>
      <trkpt lat="43.1358643994137" lon="-5.03323428333274">
        <ele>845.327671051025</ele>
        <time>2018-08-28T10:01:32Z</time>
      </trkpt>
      <trkpt lat="43.1358761340781" lon="-5.03316429444126">
        <ele>846.012241363525</ele>
        <time>2018-08-28T10:01:35Z</time>
      </trkpt>
      <trkpt lat="43.1358717754885" lon="-5.03308743238918">
        <ele>849.706943511963</ele>
        <time>2018-08-28T10:01:39Z</time>
      </trkpt>
      <trkpt lat="43.1358524132922" lon="-5.03302180208734">
        <ele>850.6506690979</ele>
        <time>2018-08-28T10:01:43Z</time>
      </trkpt>
      <trkpt lat="43.135816413018" lon="-5.03296690062157">
        <ele>852.082675933838</ele>
        <time>2018-08-28T10:01:48Z</time>
      </trkpt>
      <trkpt lat="43.1357758026972" lon="-5.03292147070638">
        <ele>852.473667144775</ele>
        <time>2018-08-28T10:01:52Z</time>
      </trkpt>
      <trkpt lat="43.1357283192157" lon="-5.03290805966131">
        <ele>852.867343902588</ele>
        <time>2018-08-28T10:01:56Z</time>
      </trkpt>
      <trkpt lat="43.1356816739246" lon="-5.0329170282977">
        <ele>854.18924331665</ele>
        <time>2018-08-28T10:01:59Z</time>
      </trkpt>
      <trkpt lat="43.1356281973823" lon="-5.03295206465296">
        <ele>855.999546051025</ele>
        <time>2018-08-28T10:02:03Z</time>
      </trkpt>
      <trkpt lat="43.1355768163159" lon="-5.03299171105496">
        <ele>857.041538238525</ele>
        <time>2018-08-28T10:02:06Z</time>
      </trkpt>
      <trkpt lat="43.1355233397737" lon="-5.03301182762257">
        <ele>857.484043121338</ele>
        <time>2018-08-28T10:02:09Z</time>
      </trkpt>
      <trkpt lat="43.1354696536838" lon="-5.03303160891406">
        <ele>857.454257965088</ele>
        <time>2018-08-28T10:02:12Z</time>
      </trkpt>
      <trkpt lat="43.1354136206611" lon="-5.03305952065162">
        <ele>858.192905426025</ele>
        <time>2018-08-28T10:02:15Z</time>
      </trkpt>
      <trkpt lat="43.1353687355697" lon="-5.03307301551572">
        <ele>860.690586090088</ele>
        <time>2018-08-28T10:02:18Z</time>
      </trkpt>
      <trkpt lat="43.1353155104845" lon="-5.03307050094477">
        <ele>864.582920074463</ele>
        <time>2018-08-28T10:02:22Z</time>
      </trkpt>
      <trkpt lat="43.1352600222855" lon="-5.033055245881">
        <ele>865.070713043213</ele>
        <time>2018-08-28T10:02:27Z</time>
      </trkpt>
      <trkpt lat="43.1352164782985" lon="-5.03307159059218">
        <ele>863.933628082275</ele>
        <time>2018-08-28T10:02:30Z</time>
      </trkpt>
      <trkpt lat="43.1351573439717" lon="-5.03309179097883">
        <ele>863.5920753479</ele>
        <time>2018-08-28T10:02:33Z</time>
      </trkpt>
      <trkpt lat="43.1351112435042" lon="-5.03308718093208">
        <ele>864.085605621338</ele>
        <time>2018-08-28T10:02:36Z</time>
      </trkpt>
      <trkpt lat="43.1350677414268" lon="-5.0330639630603">
        <ele>862.4895362854</ele>
        <time>2018-08-28T10:02:40Z</time>
      </trkpt>
      <trkpt lat="43.1350171147316" lon="-5.03305063583425">
        <ele>863.2698097229</ele>
        <time>2018-08-28T10:02:45Z</time>
      </trkpt>
      <trkpt lat="43.1349740736588" lon="-5.03303244710437">
        <ele>859.997104644775</ele>
        <time>2018-08-28T10:02:48Z</time>
      </trkpt>
      <trkpt lat="43.1349252909824" lon="-5.03301283345095">
        <ele>861.044467926025</ele>
        <time>2018-08-28T10:02:51Z</time>
      </trkpt>
      <trkpt lat="43.134877975139" lon="-5.03299799748234">
        <ele>865.391147613525</ele>
        <time>2018-08-28T10:02:54Z</time>
      </trkpt>
      <trkpt lat="43.1348161166936" lon="-5.03298123367599">
        <ele>867.513584136963</ele>
        <time>2018-08-28T10:02:57Z</time>
      </trkpt>
      <trkpt lat="43.1347633945226" lon="-5.0329582672613">
        <ele>868.4026222229</ele>
        <time>2018-08-28T10:03:00Z</time>
      </trkpt>
      <trkpt lat="43.134712977375" lon="-5.03294519149236">
        <ele>872.938388824463</ele>
        <time>2018-08-28T10:03:03Z</time>
      </trkpt>
      <trkpt lat="43.134656106162" lon="-5.03295340575746">
        <ele>872.90115737915</ele>
        <time>2018-08-28T10:03:07Z</time>
      </trkpt>
      <trkpt lat="43.1345987739443" lon="-5.03296027891807">
        <ele>870.901401519775</ele>
        <time>2018-08-28T10:03:11Z</time>
      </trkpt>
      <trkpt lat="43.1345532183006" lon="-5.03295524977616">
        <ele>871.7473487854</ele>
        <time>2018-08-28T10:03:14Z</time>
      </trkpt>
      <trkpt lat="43.1344963889971" lon="-5.0329463649588">
        <ele>872.976596832275</ele>
        <time>2018-08-28T10:03:17Z</time>
      </trkpt>
      <trkpt lat="43.1344342371851" lon="-5.03294175491206">
        <ele>873.692417144775</ele>
        <time>2018-08-28T10:03:20Z</time>
      </trkpt>
      <trkpt lat="43.1343780784338" lon="-5.03294301219753">
        <ele>876.00467300415</ele>
        <time>2018-08-28T10:03:23Z</time>
      </trkpt>
      <trkpt lat="43.1343222130492" lon="-5.03293404356114">
        <ele>876.521030426025</ele>
        <time>2018-08-28T10:03:26Z</time>
      </trkpt>
      <trkpt lat="43.1342717539921" lon="-5.0329342111992">
        <ele>878.365146636963</ele>
        <time>2018-08-28T10:03:30Z</time>
      </trkpt>
      <trkpt lat="43.134208135347" lon="-5.03294024616949">
        <ele>877.12967300415</ele>
        <time>2018-08-28T10:03:34Z</time>
      </trkpt>
      <trkpt lat="43.1341528986051" lon="-5.0329413358169">
        <ele>876.5354347229</ele>
        <time>2018-08-28T10:03:36Z</time>
      </trkpt>
      <trkpt lat="43.1340981228679" lon="-5.0329431798356">
        <ele>876.949619293213</ele>
        <time>2018-08-28T10:03:39Z</time>
      </trkpt>
      <trkpt lat="43.1340464484348" lon="-5.03295047209135">
        <ele>880.22146987915</ele>
        <time>2018-08-28T10:03:43Z</time>
      </trkpt>
      <trkpt lat="43.1339968694776" lon="-5.03295809962324">
        <ele>880.549839019775</ele>
        <time>2018-08-28T10:03:47Z</time>
      </trkpt>
      <trkpt lat="43.1339526130288" lon="-5.03298207186631">
        <ele>880.01932144165</ele>
        <time>2018-08-28T10:03:50Z</time>
      </trkpt>
      <trkpt lat="43.133896160911" lon="-5.03300579265229">
        <ele>882.3000831604</ele>
        <time>2018-08-28T10:03:54Z</time>
      </trkpt>
      <trkpt lat="43.13384084035" lon="-5.0330277532386">
        <ele>885.7102394104</ele>
        <time>2018-08-28T10:03:58Z</time>
      </trkpt>
      <trkpt lat="43.1337936502352" lon="-5.03304325975946">
        <ele>885.225620269775</ele>
        <time>2018-08-28T10:04:01Z</time>
      </trkpt>
      <trkpt lat="43.1337404670595" lon="-5.03303705715112">
        <ele>884.911533355713</ele>
        <time>2018-08-28T10:04:05Z</time>
      </trkpt>
      <trkpt lat="43.1336912652879" lon="-5.03301140852741">
        <ele>885.602573394775</ele>
        <time>2018-08-28T10:04:08Z</time>
      </trkpt>
      <trkpt lat="43.1336371181934" lon="-5.0329984165775">
        <ele>886.0725440979</ele>
        <time>2018-08-28T10:04:12Z</time>
      </trkpt>
      <trkpt lat="43.1335801212519" lon="-5.03298634663693">
        <ele>888.645664215088</ele>
        <time>2018-08-28T10:04:16Z</time>
      </trkpt>
      <trkpt lat="43.1335265189811" lon="-5.03297888674311">
        <ele>887.007968902588</ele>
        <time>2018-08-28T10:04:20Z</time>
      </trkpt>
      <trkpt lat="43.1334706116869" lon="-5.03296287730805">
        <ele>887.901889801025</ele>
        <time>2018-08-28T10:04:24Z</time>
      </trkpt>
      <trkpt lat="43.1334215356439" lon="-5.03295449540488">
        <ele>890.88064956665</ele>
        <time>2018-08-28T10:04:27Z</time>
      </trkpt>
      <trkpt lat="43.1333748903527" lon="-5.03293312155179">
        <ele>890.716953277588</ele>
        <time>2018-08-28T10:04:30Z</time>
      </trkpt>
      <trkpt lat="43.133314792107" lon="-5.03292147070638">
        <ele>890.878940582275</ele>
        <time>2018-08-28T10:04:33Z</time>
      </trkpt>
      <trkpt lat="43.1332611479267" lon="-5.03290713765196">
        <ele>893.52029800415</ele>
        <time>2018-08-28T10:04:36Z</time>
      </trkpt>
      <trkpt lat="43.1331961043581" lon="-5.03288626671306">
        <ele>893.441440582275</ele>
        <time>2018-08-28T10:04:39Z</time>
      </trkpt>
      <trkpt lat="43.1331340363651" lon="-5.03286405466966">
        <ele>893.2580909729</ele>
        <time>2018-08-28T10:04:42Z</time>
      </trkpt>
      <trkpt lat="43.1330698728963" lon="-5.03283656202725">
        <ele>892.825717926025</ele>
        <time>2018-08-28T10:04:45Z</time>
      </trkpt>
      <trkpt lat="43.1330223055958" lon="-5.03283530474178">
        <ele>894.161655426025</ele>
        <time>2018-08-28T10:04:47Z</time>
      </trkpt>
      <trkpt lat="43.1329591479554" lon="-5.03283279017083">
        <ele>896.08768081665</ele>
        <time>2018-08-28T10:04:50Z</time>
      </trkpt>
      <trkpt lat="43.1328953197628" lon="-5.03283237107567">
        <ele>897.330600738525</ele>
        <time>2018-08-28T10:04:53Z</time>
      </trkpt>
      <trkpt lat="43.1328434776916" lon="-5.03282524645797">
        <ele>898.593784332275</ele>
        <time>2018-08-28T10:04:56Z</time>
      </trkpt>
      <trkpt lat="43.1327923480823" lon="-5.03282524645797">
        <ele>897.878452301025</ele>
        <time>2018-08-28T10:04:59Z</time>
      </trkpt>
      <trkpt lat="43.1327348482265" lon="-5.03281611018352">
        <ele>892.9338722229</ele>
        <time>2018-08-28T10:05:03Z</time>
      </trkpt>
      <trkpt lat="43.1326835928886" lon="-5.03280487843327">
        <ele>890.8147315979</ele>
        <time>2018-08-28T10:05:06Z</time>
      </trkpt>
      <trkpt lat="43.1326358160406" lon="-5.03278694116048">
        <ele>892.909702301025</ele>
        <time>2018-08-28T10:05:09Z</time>
      </trkpt>
      <trkpt lat="43.1325834291457" lon="-5.03275408410005">
        <ele>893.02713394165</ele>
        <time>2018-08-28T10:05:13Z</time>
      </trkpt>
      <trkpt lat="43.1325403461634" lon="-5.03272340633444">
        <ele>895.88455581665</ele>
        <time>2018-08-28T10:05:16Z</time>
      </trkpt>
      <trkpt lat="43.132490180473" lon="-5.03269507550172">
        <ele>897.212436676025</ele>
        <time>2018-08-28T10:05:19Z</time>
      </trkpt>
      <trkpt lat="43.1324365362927" lon="-5.03265769221357">
        <ele>894.624057769775</ele>
        <time>2018-08-28T10:05:23Z</time>
      </trkpt>
      <trkpt lat="43.1323935790389" lon="-5.03262860700957">
        <ele>894.983432769775</ele>
        <time>2018-08-28T10:05:26Z</time>
      </trkpt>
      <trkpt lat="43.1323511666089" lon="-5.03260195255748">
        <ele>897.990756988525</ele>
        <time>2018-08-28T10:05:29Z</time>
      </trkpt>
      <trkpt lat="43.1323064072459" lon="-5.03256456926934">
        <ele>899.231967926025</ele>
        <time>2018-08-28T10:05:32Z</time>
      </trkpt>
      <trkpt lat="43.1322764000326" lon="-5.03249441273979">
        <ele>901.087436676025</ele>
        <time>2018-08-28T10:05:36Z</time>
      </trkpt>
      <trkpt lat="43.1322480691999" lon="-5.0324457977014">
        <ele>902.132846832275</ele>
        <time>2018-08-28T10:05:39Z</time>
      </trkpt>
      <trkpt lat="43.1322308024793" lon="-5.03237664700023">
        <ele>904.811557769775</ele>
        <time>2018-08-28T10:05:43Z</time>
      </trkpt>
      <trkpt lat="43.1321978196903" lon="-5.03231621347836">
        <ele>905.28982925415</ele>
        <time>2018-08-28T10:05:46Z</time>
      </trkpt>
      <trkpt lat="43.1321584247454" lon="-5.0322639942216">
        <ele>903.459506988525</ele>
        <time>2018-08-28T10:05:50Z</time>
      </trkpt>
      <trkpt lat="43.1321183173388" lon="-5.03223021515182">
        <ele>901.515659332275</ele>
        <time>2018-08-28T10:05:53Z</time>
      </trkpt>
      <trkpt lat="43.1320782937511" lon="-5.03219928592912">
        <ele>902.634677886963</ele>
        <time>2018-08-28T10:05:55Z</time>
      </trkpt>
      <trkpt lat="43.1320413295581" lon="-5.03216332756451">
        <ele>902.787143707275</ele>
        <time>2018-08-28T10:05:57Z</time>
      </trkpt>
      <trkpt lat="43.131988188292" lon="-5.03210440278522">
        <ele>903.8664894104</ele>
        <time>2018-08-28T10:06:00Z</time>
      </trkpt>
      <trkpt lat="43.1319503859087" lon="-5.03205897287003">
        <ele>904.16092300415</ele>
        <time>2018-08-28T10:06:02Z</time>
      </trkpt>
      <trkpt lat="43.1319189956813" lon="-5.03201362677387">
        <ele>904.664218902588</ele>
        <time>2018-08-28T10:06:04Z</time>
      </trkpt>
      <trkpt lat="43.1318661058723" lon="-5.03196710721127">
        <ele>906.73807144165</ele>
        <time>2018-08-28T10:06:07Z</time>
      </trkpt>
      <trkpt lat="43.1318156049057" lon="-5.03194145858756">
        <ele>909.621616363525</ele>
        <time>2018-08-28T10:06:10Z</time>
      </trkpt>
      <trkpt lat="43.1317665288626" lon="-5.03192972392312">
        <ele>909.917026519775</ele>
        <time>2018-08-28T10:06:13Z</time>
      </trkpt>
      <trkpt lat="43.1317071430787" lon="-5.03189594485334">
        <ele>911.556186676025</ele>
        <time>2018-08-28T10:06:17Z</time>
      </trkpt>
      <trkpt lat="43.1316542951792" lon="-5.03186987713448">
        <ele>910.622592926025</ele>
        <time>2018-08-28T10:06:20Z</time>
      </trkpt>
      <trkpt lat="43.1315886229678" lon="-5.03186317161194">
        <ele>911.460117340088</ele>
        <time>2018-08-28T10:06:23Z</time>
      </trkpt>
      <trkpt lat="43.1315397145628" lon="-5.03185613081328">
        <ele>913.876987457275</ele>
        <time>2018-08-28T10:06:25Z</time>
      </trkpt>
      <trkpt lat="43.1314897584199" lon="-5.03183509223632">
        <ele>913.015048980713</ele>
        <time>2018-08-28T10:06:27Z</time>
      </trkpt>
      <trkpt lat="43.1314478908136" lon="-5.03180357628039">
        <ele>914.10330581665</ele>
        <time>2018-08-28T10:06:29Z</time>
      </trkpt>
      <trkpt lat="43.1314057717501" lon="-5.03174322657756">
        <ele>912.416660308838</ele>
        <time>2018-08-28T10:06:32Z</time>
      </trkpt>
      <trkpt lat="43.1313629402249" lon="-5.0316806975799">
        <ele>915.3127784729</ele>
        <time>2018-08-28T10:06:35Z</time>
      </trkpt>
      <trkpt lat="43.1313266465842" lon="-5.03162001260094">
        <ele>918.702304840088</ele>
        <time>2018-08-28T10:06:38Z</time>
      </trkpt>
      <trkpt lat="43.1312880060106" lon="-5.0315546337562">
        <ele>919.09842300415</ele>
        <time>2018-08-28T10:06:41Z</time>
      </trkpt>
      <trkpt lat="43.1312509160891" lon="-5.03148129210345">
        <ele>918.3284034729</ele>
        <time>2018-08-28T10:06:44Z</time>
      </trkpt>
      <trkpt lat="43.1312266085699" lon="-5.03140853718392">
        <ele>919.124668121338</ele>
        <time>2018-08-28T10:06:47Z</time>
      </trkpt>
      <trkpt lat="43.131201756227" lon="-5.0313387159305">
        <ele>919.903354644775</ele>
        <time>2018-08-28T10:06:50Z</time>
      </trkpt>
      <trkpt lat="43.1311762333318" lon="-5.0312763545709">
        <ele>920.87576675415</ele>
        <time>2018-08-28T10:06:53Z</time>
      </trkpt>
      <trkpt lat="43.1311553623929" lon="-5.03121374175421">
        <ele>921.252475738525</ele>
        <time>2018-08-28T10:06:56Z</time>
      </trkpt>
      <trkpt lat="43.1311282888457" lon="-5.03115599044136">
        <ele>920.816440582275</ele>
        <time>2018-08-28T10:06:59Z</time>
      </trkpt>
      <trkpt lat="43.1311051128834" lon="-5.03108181059829">
        <ele>923.508823394775</ele>
        <time>2018-08-28T10:07:03Z</time>
      </trkpt>
      <trkpt lat="43.1310902350053" lon="-5.03100947477392">
        <ele>925.127475738525</ele>
        <time>2018-08-28T10:07:07Z</time>
      </trkpt>
      <trkpt lat="43.1311034784123" lon="-5.03093722276858">
        <ele>926.33572769165</ele>
        <time>2018-08-28T10:07:11Z</time>
      </trkpt>
      <trkpt lat="43.1311286660313" lon="-5.03087108955256">
        <ele>927.11014175415</ele>
        <time>2018-08-28T10:07:15Z</time>
      </trkpt>
      <trkpt lat="43.1311548594787" lon="-5.03081191331617">
        <ele>928.50369644165</ele>
        <time>2018-08-28T10:07:19Z</time>
      </trkpt>
      <trkpt lat="43.1311767781555" lon="-5.03074385226241">
        <ele>929.016147613525</ele>
        <time>2018-08-28T10:07:23Z</time>
      </trkpt>
      <trkpt lat="43.1311961822613" lon="-5.03066950478128">
        <ele>930.395053863525</ele>
        <time>2018-08-28T10:07:27Z</time>
      </trkpt>
      <trkpt lat="43.1312132813438" lon="-5.03059390001467">
        <ele>931.61307144165</ele>
        <time>2018-08-28T10:07:31Z</time>
      </trkpt>
      <trkpt lat="43.1312437914714" lon="-5.03054251894823">
        <ele>931.80545425415</ele>
        <time>2018-08-28T10:07:34Z</time>
      </trkpt>
      <trkpt lat="43.1312786601885" lon="-5.0304906349676">
        <ele>930.460483551025</ele>
        <time>2018-08-28T10:07:38Z</time>
      </trkpt>
      <trkpt lat="43.1312899338483" lon="-5.03041653894357">
        <ele>930.565464019775</ele>
        <time>2018-08-28T10:07:42Z</time>
      </trkpt>
      <trkpt lat="43.1312958430901" lon="-5.030354261403">
        <ele>930.945835113525</ele>
        <time>2018-08-28T10:07:44Z</time>
      </trkpt>
      <trkpt lat="43.1312952144473" lon="-5.03027723171285">
        <ele>931.057773590088</ele>
        <time>2018-08-28T10:07:46Z</time>
      </trkpt>
      <trkpt lat="43.1312739244133" lon="-5.03019316122404">
        <ele>931.7834815979</ele>
        <time>2018-08-28T10:07:48Z</time>
      </trkpt>
      <trkpt lat="43.1312269019365" lon="-5.0301277823793">
        <ele>930.325595855713</ele>
        <time>2018-08-28T10:07:50Z</time>
      </trkpt>
      <trkpt lat="43.1311336951732" lon="-5.03007866442672">
        <ele>930.53396987915</ele>
        <time>2018-08-28T10:07:52Z</time>
      </trkpt>
      <trkpt lat="43.1310964795231" lon="-5.03004220314792">
        <ele>930.5334815979</ele>
        <time>2018-08-28T10:07:53Z</time>
      </trkpt>
      <trkpt lat="43.1310411589622" lon="-5.0300056580501">
        <ele>930.8391456604</ele>
        <time>2018-08-28T10:07:54Z</time>
      </trkpt>
      <trkpt lat="43.1309926277428" lon="-5.02996726893357">
        <ele>930.8508644104</ele>
        <time>2018-08-28T10:07:55Z</time>
      </trkpt>
      <trkpt lat="43.1309595192253" lon="-5.02992460504643">
        <ele>928.65018081665</ele>
        <time>2018-08-28T10:07:56Z</time>
      </trkpt>
      <trkpt lat="43.1309015583649" lon="-5.02988655120603">
        <ele>927.950717926025</ele>
        <time>2018-08-28T10:07:57Z</time>
      </trkpt>
      <trkpt lat="43.1308454834326" lon="-5.02985117957464">
        <ele>931.066440582275</ele>
        <time>2018-08-28T10:07:58Z</time>
      </trkpt>
      <trkpt lat="43.1307999696984" lon="-5.0298103597062">
        <ele>932.832553863525</ele>
        <time>2018-08-28T10:07:59Z</time>
      </trkpt>
      <trkpt lat="43.1307804817735" lon="-5.0297500938224">
        <ele>933.073642730713</ele>
        <time>2018-08-28T10:08:00Z</time>
      </trkpt>
      <trkpt lat="43.1307296874403" lon="-5.02969502471856">
        <ele>932.3020362854</ele>
        <time>2018-08-28T10:08:02Z</time>
      </trkpt>
      <trkpt lat="43.1306902505859" lon="-5.02965118736497">
        <ele>932.408603668213</ele>
        <time>2018-08-28T10:08:04Z</time>
      </trkpt>
      <trkpt lat="43.1306446530327" lon="-5.02957549877933">
        <ele>937.25955581665</ele>
        <time>2018-08-28T10:08:07Z</time>
      </trkpt>
      <trkpt lat="43.130621854256" lon="-5.02951581962875">
        <ele>938.068393707275</ele>
        <time>2018-08-28T10:08:09Z</time>
      </trkpt>
      <trkpt lat="43.1305861473485" lon="-5.02945798449687">
        <ele>935.78592300415</ele>
        <time>2018-08-28T10:08:11Z</time>
      </trkpt>
      <trkpt lat="43.1305484287842" lon="-5.02940903418235">
        <ele>933.358921051025</ele>
        <time>2018-08-28T10:08:13Z</time>
      </trkpt>
      <trkpt lat="43.1304989755555" lon="-5.02935019322208">
        <ele>932.785678863525</ele>
        <time>2018-08-28T10:08:15Z</time>
      </trkpt>
      <trkpt lat="43.1304489775031" lon="-5.02928104252091">
        <ele>932.494052886963</ele>
        <time>2018-08-28T10:08:17Z</time>
      </trkpt>
      <trkpt lat="43.130403631407" lon="-5.02920711413494">
        <ele>934.060459136963</ele>
        <time>2018-08-28T10:08:19Z</time>
      </trkpt>
      <trkpt lat="43.1303697266086" lon="-5.02911717631391">
        <ele>931.5901222229</ele>
        <time>2018-08-28T10:08:21Z</time>
      </trkpt>
      <trkpt lat="43.1303491909459" lon="-5.02902137116066">
        <ele>930.070346832275</ele>
        <time>2018-08-28T10:08:23Z</time>
      </trkpt>
      <trkpt lat="43.1303385459288" lon="-5.02893679775766">
        <ele>929.235996246338</ele>
        <time>2018-08-28T10:08:25Z</time>
      </trkpt>
      <trkpt lat="43.1303302059352" lon="-5.02887150273195">
        <ele>931.5666847229</ele>
        <time>2018-08-28T10:08:27Z</time>
      </trkpt>
      <trkpt lat="43.1303208182036" lon="-5.02879749052695">
        <ele>931.35623550415</ele>
        <time>2018-08-28T10:08:30Z</time>
      </trkpt>
      <trkpt lat="43.1302990671649" lon="-5.02871182747654">
        <ele>931.7160987854</ele>
        <time>2018-08-28T10:08:33Z</time>
      </trkpt>
      <trkpt lat="43.1302650785475" lon="-5.02865558490625">
        <ele>931.404331207275</ele>
        <time>2018-08-28T10:08:35Z</time>
      </trkpt>
      <trkpt lat="43.1302229175746" lon="-5.02859724686018">
        <ele>930.528354644775</ele>
        <time>2018-08-28T10:08:37Z</time>
      </trkpt>
      <trkpt lat="43.1301813433348" lon="-5.02854251303247">
        <ele>929.732456207275</ele>
        <time>2018-08-28T10:08:39Z</time>
      </trkpt>
      <trkpt lat="43.1301475642651" lon="-5.02848140895835">
        <ele>931.28885269165</ele>
        <time>2018-08-28T10:08:41Z</time>
      </trkpt>
      <trkpt lat="43.1301208679035" lon="-5.02842080779842">
        <ele>931.5256690979</ele>
        <time>2018-08-28T10:08:43Z</time>
      </trkpt>
      <trkpt lat="43.1301672617375" lon="-5.02834813669792">
        <ele>935.098667144775</ele>
        <time>2018-08-28T10:29:12Z</time>
      </trkpt>
      <trkpt lat="43.1302035134687" lon="-5.02827236429325">
        <ele>935.41678237915</ele>
        <time>2018-08-28T10:29:14Z</time>
      </trkpt>
      <trkpt lat="43.1302301679208" lon="-5.02818083391062">
        <ele>934.985385894775</ele>
        <time>2018-08-28T10:29:16Z</time>
      </trkpt>
      <trkpt lat="43.1302449200704" lon="-5.02808813006154">
        <ele>935.132724761963</ele>
        <time>2018-08-28T10:29:18Z</time>
      </trkpt>
      <trkpt lat="43.1302505359455" lon="-5.02798830159477">
        <ele>937.588779449463</ele>
        <time>2018-08-28T10:29:20Z</time>
      </trkpt>
      <trkpt lat="43.1302489852934" lon="-5.02788361162415">
        <ele>937.147495269775</ele>
        <time>2018-08-28T10:29:22Z</time>
      </trkpt>
      <trkpt lat="43.1302429084136" lon="-5.0277999602305">
        <ele>936.8284034729</ele>
        <time>2018-08-28T10:29:24Z</time>
      </trkpt>
      <trkpt lat="43.1302402681141" lon="-5.02772661857775">
        <ele>938.1272315979</ele>
        <time>2018-08-28T10:29:26Z</time>
      </trkpt>
      <trkpt lat="43.1302510388597" lon="-5.02761530690363">
        <ele>936.328159332275</ele>
        <time>2018-08-28T10:29:28Z</time>
      </trkpt>
      <trkpt lat="43.1302720355272" lon="-5.02750969492367">
        <ele>936.75760269165</ele>
        <time>2018-08-28T10:29:30Z</time>
      </trkpt>
      <trkpt lat="43.1302957144036" lon="-5.02742403187326">
        <ele>936.91092300415</ele>
        <time>2018-08-28T10:29:32Z</time>
      </trkpt>
      <trkpt lat="43.130307197611" lon="-5.02735890448562">
        <ele>938.139194488525</ele>
        <time>2018-08-28T10:29:34Z</time>
      </trkpt>
      <trkpt lat="43.1303256377979" lon="-5.02728514373771">
        <ele>937.902378082275</ele>
        <time>2018-08-28T10:29:36Z</time>
      </trkpt>
      <trkpt lat="43.1303692236944" lon="-5.02722940408162">
        <ele>937.6643409729</ele>
        <time>2018-08-28T10:29:38Z</time>
      </trkpt>
      <trkpt lat="43.1304282742023" lon="-5.0272008217918">
        <ele>937.86307144165</ele>
        <time>2018-08-28T10:29:40Z</time>
      </trkpt>
      <trkpt lat="43.1304888334527" lon="-5.02720308490566">
        <ele>937.5813331604</ele>
        <time>2018-08-28T10:29:42Z</time>
      </trkpt>
      <trkpt lat="43.1305554276734" lon="-5.02721406519881">
        <ele>936.93143081665</ele>
        <time>2018-08-28T10:29:44Z</time>
      </trkpt>
      <trkpt lat="43.1306303199782" lon="-5.02722655423454">
        <ele>937.35623550415</ele>
        <time>2018-08-28T10:29:46Z</time>
      </trkpt>
      <trkpt lat="43.1306855986296" lon="-5.02722118981651">
        <ele>937.4153175354</ele>
        <time>2018-08-28T10:29:48Z</time>
      </trkpt>
      <trkpt lat="43.1307330821111" lon="-5.02720057033471">
        <ele>938.088413238525</ele>
        <time>2018-08-28T10:29:50Z</time>
      </trkpt>
      <trkpt lat="43.13078425363" lon="-5.027169641112">
        <ele>937.854160308838</ele>
        <time>2018-08-28T10:29:52Z</time>
      </trkpt>
      <trkpt lat="43.1308203796326" lon="-5.02713200636676">
        <ele>933.746494293213</ele>
        <time>2018-08-28T10:29:54Z</time>
      </trkpt>
      <trkpt lat="43.1308639236196" lon="-5.02708146349064">
        <ele>935.126987457275</ele>
        <time>2018-08-28T10:29:57Z</time>
      </trkpt>
      <trkpt lat="43.1309153465956" lon="-5.0270316749858">
        <ele>935.112216949463</ele>
        <time>2018-08-28T10:30:01Z</time>
      </trkpt>
      <trkpt lat="43.1309552444547" lon="-5.02699093893639">
        <ele>935.168003082275</ele>
        <time>2018-08-28T10:30:03Z</time>
      </trkpt>
      <trkpt lat="43.1309936335712" lon="-5.0269346963661">
        <ele>938.522617340088</ele>
        <time>2018-08-28T10:30:05Z</time>
      </trkpt>
      <trkpt lat="43.1310262810841" lon="-5.02682212740651">
        <ele>939.314853668213</ele>
        <time>2018-08-28T10:30:07Z</time>
      </trkpt>
      <trkpt lat="43.131048618856" lon="-5.02674761228732">
        <ele>939.35232925415</ele>
        <time>2018-08-28T10:30:08Z</time>
      </trkpt>
      <trkpt lat="43.1310702022567" lon="-5.02666387707463">
        <ele>939.036655426025</ele>
        <time>2018-08-28T10:30:09Z</time>
      </trkpt>
      <trkpt lat="43.131098826456" lon="-5.0265913736122">
        <ele>938.858798980713</ele>
        <time>2018-08-28T10:30:10Z</time>
      </trkpt>
      <trkpt lat="43.1310934201285" lon="-5.0264790561097">
        <ele>940.3596534729</ele>
        <time>2018-08-28T10:30:11Z</time>
      </trkpt>
      <trkpt lat="43.1310911570146" lon="-5.02639020793608">
        <ele>940.810092926025</ele>
        <time>2018-08-28T10:30:12Z</time>
      </trkpt>
      <trkpt lat="43.1310853315919" lon="-5.02629733644894">
        <ele>940.99295425415</ele>
        <time>2018-08-28T10:30:13Z</time>
      </trkpt>
      <trkpt lat="43.1310908217385" lon="-5.02619558014444">
        <ele>938.186557769775</ele>
        <time>2018-08-28T10:30:14Z</time>
      </trkpt>
      <trkpt lat="43.1310936715856" lon="-5.02612081356815">
        <ele>937.930576324463</ele>
        <time>2018-08-28T10:30:15Z</time>
      </trkpt>
      <trkpt lat="43.1310986588179" lon="-5.02605241723827">
        <ele>938.276889801025</ele>
        <time>2018-08-28T10:30:16Z</time>
      </trkpt>
      <trkpt lat="43.1311124470487" lon="-5.02598159015647">
        <ele>937.843173980713</ele>
        <time>2018-08-28T10:30:17Z</time>
      </trkpt>
      <trkpt lat="43.1311413646146" lon="-5.02592819743326">
        <ele>936.359897613525</ele>
        <time>2018-08-28T10:30:18Z</time>
      </trkpt>
      <trkpt lat="43.1311675161525" lon="-5.02587539144328">
        <ele>935.404697418213</ele>
        <time>2018-08-28T10:30:19Z</time>
      </trkpt>
      <trkpt lat="43.1311815139308" lon="-5.02577112056783">
        <ele>935.1155128479</ele>
        <time>2018-08-28T10:30:21Z</time>
      </trkpt>
      <trkpt lat="43.1311903987482" lon="-5.02570012584797">
        <ele>935.06424331665</ele>
        <time>2018-08-28T10:30:23Z</time>
      </trkpt>
      <trkpt lat="43.1311947573378" lon="-5.02562351525298">
        <ele>934.999546051025</ele>
        <time>2018-08-28T10:30:25Z</time>
      </trkpt>
      <trkpt lat="43.1311690248951" lon="-5.02557179891041">
        <ele>933.36502456665</ele>
        <time>2018-08-28T10:30:50Z</time>
      </trkpt>
      <trkpt lat="43.1311865849822" lon="-5.02549124882093">
        <ele>934.13162612915</ele>
        <time>2018-08-28T10:30:53Z</time>
      </trkpt>
      <trkpt lat="43.1312030973315" lon="-5.02542360686234">
        <ele>935.65311050415</ele>
        <time>2018-08-28T10:30:55Z</time>
      </trkpt>
      <trkpt lat="43.1312179752096" lon="-5.02535303123763">
        <ele>935.557773590088</ele>
        <time>2018-08-28T10:30:57Z</time>
      </trkpt>
      <trkpt lat="43.131229542236" lon="-5.02529192716351">
        <ele>935.5403175354</ele>
        <time>2018-08-28T10:31:00Z</time>
      </trkpt>
      <trkpt lat="43.1312419893622" lon="-5.02521933988205">
        <ele>937.4700050354</ele>
        <time>2018-08-28T10:31:03Z</time>
      </trkpt>
      <trkpt lat="43.1312701944663" lon="-5.0251370295929">
        <ele>938.186557769775</ele>
        <time>2018-08-28T10:31:06Z</time>
      </trkpt>
      <trkpt lat="43.1312912330433" lon="-5.0250783562707">
        <ele>939.26639175415</ele>
        <time>2018-08-28T10:31:08Z</time>
      </trkpt>
      <trkpt lat="43.1312987348466" lon="-5.0249953754293">
        <ele>940.757968902588</ele>
        <time>2018-08-28T10:31:11Z</time>
      </trkpt>
      <trkpt lat="43.1312835636019" lon="-5.02492387779525">
        <ele>941.246738433838</ele>
        <time>2018-08-28T10:31:14Z</time>
      </trkpt>
      <trkpt lat="43.131289095658" lon="-5.02485221252313">
        <ele>941.806552886963</ele>
        <time>2018-08-28T10:31:17Z</time>
      </trkpt>
      <trkpt lat="43.1313008303224" lon="-5.02476906404367">
        <ele>940.611484527588</ele>
        <time>2018-08-28T10:31:21Z</time>
      </trkpt>
      <trkpt lat="43.1313296640693" lon="-5.02469153143934">
        <ele>940.78689956665</ele>
        <time>2018-08-28T10:31:24Z</time>
      </trkpt>
      <trkpt lat="43.1313611381158" lon="-5.02462766133717">
        <ele>940.407138824463</ele>
        <time>2018-08-28T10:31:27Z</time>
      </trkpt>
      <trkpt lat="43.1313922349765" lon="-5.02455649897924">
        <ele>942.604892730713</ele>
        <time>2018-08-28T10:31:30Z</time>
      </trkpt>
      <trkpt lat="43.1314131478249" lon="-5.02449908294252">
        <ele>943.764804840088</ele>
        <time>2018-08-28T10:31:32Z</time>
      </trkpt>
      <trkpt lat="43.131433054845" lon="-5.02444082871547">
        <ele>944.547885894775</ele>
        <time>2018-08-28T10:31:34Z</time>
      </trkpt>
      <trkpt lat="43.1314584939211" lon="-5.02438466996422">
        <ele>944.791904449463</ele>
        <time>2018-08-28T10:31:36Z</time>
      </trkpt>
      <trkpt lat="43.1314944103762" lon="-5.0243166927295">
        <ele>945.0012550354</ele>
        <time>2018-08-28T10:31:38Z</time>
      </trkpt>
      <trkpt lat="43.1315222382947" lon="-5.0242564268457">
        <ele>946.6467628479</ele>
        <time>2018-08-28T10:31:40Z</time>
      </trkpt>
      <trkpt lat="43.131542899686" lon="-5.02419792116156">
        <ele>946.84549331665</ele>
        <time>2018-08-28T10:31:42Z</time>
      </trkpt>
      <trkpt lat="43.1315515749558" lon="-5.024130363022">
        <ele>947.760776519775</ele>
        <time>2018-08-28T10:31:45Z</time>
      </trkpt>
      <trkpt lat="43.1315579032927" lon="-5.02405886538795">
        <ele>951.04275894165</ele>
        <time>2018-08-28T10:31:52Z</time>
      </trkpt>
      <trkpt lat="43.1315958314046" lon="-5.02399843186608">
        <ele>950.977451324463</ele>
        <time>2018-08-28T10:31:55Z</time>
      </trkpt>
      <trkpt lat="43.1315916823625" lon="-5.0239281915175">
        <ele>950.797031402588</ele>
        <time>2018-08-28T10:31:58Z</time>
      </trkpt>
      <trkpt lat="43.1315588672116" lon="-5.02385686152151">
        <ele>951.880039215088</ele>
        <time>2018-08-28T10:32:01Z</time>
      </trkpt>
      <trkpt lat="43.1315491861134" lon="-5.02379047684839">
        <ele>952.80057144165</ele>
        <time>2018-08-28T10:32:04Z</time>
      </trkpt>
      <trkpt lat="43.1315623037919" lon="-5.02371587791017">
        <ele>953.6614112854</ele>
        <time>2018-08-28T10:32:07Z</time>
      </trkpt>
      <trkpt lat="43.1315773073986" lon="-5.02363725565842">
        <ele>955.18143081665</ele>
        <time>2018-08-28T10:32:10Z</time>
      </trkpt>
      <trkpt lat="43.1315894192486" lon="-5.02355134115091">
        <ele>955.2903175354</ele>
        <time>2018-08-28T10:32:13Z</time>
      </trkpt>
      <trkpt lat="43.1316011539131" lon="-5.02349065617195">
        <ele>954.734897613525</ele>
        <time>2018-08-28T10:32:15Z</time>
      </trkpt>
      <trkpt lat="43.1316050095885" lon="-5.02342158928981">
        <ele>955.276401519775</ele>
        <time>2018-08-28T10:32:17Z</time>
      </trkpt>
      <trkpt lat="43.1316050934076" lon="-5.02335235476962">
        <ele>956.708530426025</ele>
        <time>2018-08-28T10:32:19Z</time>
      </trkpt>
      <trkpt lat="43.1315994775324" lon="-5.02328119241169">
        <ele>958.418491363525</ele>
        <time>2018-08-28T10:32:21Z</time>
      </trkpt>
      <trkpt lat="43.1315885391488" lon="-5.02320701256862">
        <ele>959.71658706665</ele>
        <time>2018-08-28T10:32:23Z</time>
      </trkpt>
      <trkpt lat="43.1315776007652" lon="-5.02313668840101">
        <ele>960.820346832275</ele>
        <time>2018-08-28T10:32:25Z</time>
      </trkpt>
      <trkpt lat="43.1315606693208" lon="-5.0230684597092">
        <ele>962.732456207275</ele>
        <time>2018-08-28T10:32:27Z</time>
      </trkpt>
      <trkpt lat="43.1315328833117" lon="-5.02299545333257">
        <ele>964.1145362854</ele>
        <time>2018-08-28T10:32:29Z</time>
      </trkpt>
      <trkpt lat="43.1315055163979" lon="-5.02291398123374">
        <ele>963.118198394775</ele>
        <time>2018-08-28T10:32:31Z</time>
      </trkpt>
      <trkpt lat="43.1314770179271" lon="-5.02283611335328">
        <ele>962.978427886963</ele>
        <time>2018-08-28T10:32:33Z</time>
      </trkpt>
      <trkpt lat="43.13144646589" lon="-5.02277609892657">
        <ele>962.841220855713</ele>
        <time>2018-08-28T10:32:35Z</time>
      </trkpt>
      <trkpt lat="43.1314156623959" lon="-5.02272237092724">
        <ele>962.9094581604</ele>
        <time>2018-08-28T10:32:37Z</time>
      </trkpt>
      <trkpt lat="43.1313874992012" lon="-5.02266906202307">
        <ele>963.3186378479</ele>
        <time>2018-08-28T10:32:39Z</time>
      </trkpt>
      <trkpt lat="43.1313423626527" lon="-5.02260737121573">
        <ele>964.7746925354</ele>
        <time>2018-08-28T10:32:42Z</time>
      </trkpt>
      <trkpt lat="43.1313051050931" lon="-5.02256671898535">
        <ele>967.3635597229</ele>
        <time>2018-08-28T10:32:44Z</time>
      </trkpt>
      <trkpt lat="43.1312651653244" lon="-5.02251567319503">
        <ele>968.033237457275</ele>
        <time>2018-08-28T10:32:46Z</time>
      </trkpt>
      <trkpt lat="43.1312320987164" lon="-5.0224587600725">
        <ele>968.125034332275</ele>
        <time>2018-08-28T10:32:48Z</time>
      </trkpt>
      <trkpt lat="43.1312111439585" lon="-5.02240184694996">
        <ele>967.36404800415</ele>
        <time>2018-08-28T10:32:50Z</time>
      </trkpt>
      <trkpt lat="43.1311868364393" lon="-5.02234007232359">
        <ele>967.404819488525</ele>
        <time>2018-08-28T10:32:52Z</time>
      </trkpt>
      <trkpt lat="43.1311717490136" lon="-5.02226555720439">
        <ele>967.1946144104</ele>
        <time>2018-08-28T10:32:54Z</time>
      </trkpt>
      <trkpt lat="43.1311625289201" lon="-5.02218894660941">
        <ele>966.257358551025</ele>
        <time>2018-08-28T10:32:56Z</time>
      </trkpt>
      <trkpt lat="43.1311546499311" lon="-5.02211418003312">
        <ele>964.90994644165</ele>
        <time>2018-08-28T10:32:58Z</time>
      </trkpt>
      <trkpt lat="43.1311349943682" lon="-5.02204729244581">
        <ele>964.11209487915</ele>
        <time>2018-08-28T10:33:00Z</time>
      </trkpt>
      <trkpt lat="43.1311090942874" lon="-5.02199557610324">
        <ele>960.823154449463</ele>
        <time>2018-08-28T10:33:02Z</time>
      </trkpt>
      <trkpt lat="43.1310925400286" lon="-5.02193229273429">
        <ele>960.565464019775</ele>
        <time>2018-08-28T10:33:04Z</time>
      </trkpt>
      <trkpt lat="43.1310891872674" lon="-5.02185601741543">
        <ele>958.925937652588</ele>
        <time>2018-08-28T10:33:06Z</time>
      </trkpt>
      <trkpt lat="43.1311038136884" lon="-5.0217970088171">
        <ele>959.391757965088</ele>
        <time>2018-08-28T10:33:08Z</time>
      </trkpt>
      <trkpt lat="43.1311274925649" lon="-5.02170849591961">
        <ele>960.18436050415</ele>
        <time>2018-08-28T10:33:11Z</time>
      </trkpt>
      <trkpt lat="43.1311408197909" lon="-5.02164605074098">
        <ele>960.631381988525</ele>
        <time>2018-08-28T10:33:13Z</time>
      </trkpt>
      <trkpt lat="43.1311590504303" lon="-5.02158352174332">
        <ele>960.46561050415</ele>
        <time>2018-08-28T10:33:15Z</time>
      </trkpt>
      <trkpt lat="43.131172838661" lon="-5.02151998691728">
        <ele>961.685581207275</ele>
        <time>2018-08-28T10:33:17Z</time>
      </trkpt>
      <trkpt lat="43.1311843218684" lon="-5.02145494334867">
        <ele>962.781772613525</ele>
        <time>2018-08-28T10:33:19Z</time>
      </trkpt>
      <trkpt lat="43.1311941706046" lon="-5.02138034441045">
        <ele>962.322666168213</ele>
        <time>2018-08-28T10:33:21Z</time>
      </trkpt>
      <trkpt lat="43.1312077073782" lon="-5.02130767330995">
        <ele>963.343296051025</ele>
        <time>2018-08-28T10:33:23Z</time>
      </trkpt>
      <trkpt lat="43.1312201964139" lon="-5.02124355175069">
        <ele>963.7932472229</ele>
        <time>2018-08-28T10:33:25Z</time>
      </trkpt>
      <trkpt lat="43.1312277820363" lon="-5.02118043601981">
        <ele>962.36502456665</ele>
        <time>2018-08-28T10:33:27Z</time>
      </trkpt>
      <trkpt lat="43.1312258541986" lon="-5.0210873968946">
        <ele>963.46756362915</ele>
        <time>2018-08-28T10:33:30Z</time>
      </trkpt>
      <trkpt lat="43.1312285364076" lon="-5.02100860700479">
        <ele>965.255405426025</ele>
        <time>2018-08-28T10:33:32Z</time>
      </trkpt>
      <trkpt lat="43.1312363315775" lon="-5.0209063477861">
        <ele>966.188632965088</ele>
        <time>2018-08-28T10:33:34Z</time>
      </trkpt>
      <trkpt lat="43.1312276143982" lon="-5.02080576494804">
        <ele>964.975131988525</ele>
        <time>2018-08-28T10:33:36Z</time>
      </trkpt>
      <trkpt lat="43.1312087551161" lon="-5.02071859315505">
        <ele>964.349277496338</ele>
        <time>2018-08-28T10:33:38Z</time>
      </trkpt>
      <trkpt lat="43.131180801469" lon="-5.02065698616674">
        <ele>964.6965675354</ele>
        <time>2018-08-28T10:33:40Z</time>
      </trkpt>
      <trkpt lat="43.1311669294193" lon="-5.02059630118778">
        <ele>962.153354644775</ele>
        <time>2018-08-28T10:33:42Z</time>
      </trkpt>
      <trkpt lat="43.1311681028857" lon="-5.02052471973469">
        <ele>961.524448394775</ele>
        <time>2018-08-28T10:33:44Z</time>
      </trkpt>
      <trkpt lat="43.1311798794597" lon="-5.02044852823487">
        <ele>959.905185699463</ele>
        <time>2018-08-28T10:33:46Z</time>
      </trkpt>
      <trkpt lat="43.1312048575311" lon="-5.02037694678178">
        <ele>960.986362457275</ele>
        <time>2018-08-28T10:33:48Z</time>
      </trkpt>
      <trkpt lat="43.1312165083765" lon="-5.02030184492936">
        <ele>964.689975738525</ele>
        <time>2018-08-28T10:33:51Z</time>
      </trkpt>
      <trkpt lat="43.1312131556153" lon="-5.02022800036242">
        <ele>966.1614112854</ele>
        <time>2018-08-28T10:33:53Z</time>
      </trkpt>
      <trkpt lat="43.1312069530069" lon="-5.02015013248196">
        <ele>966.982089996338</ele>
        <time>2018-08-28T10:33:55Z</time>
      </trkpt>
      <trkpt lat="43.1312115211441" lon="-5.02006455325058">
        <ele>964.168979644775</ele>
        <time>2018-08-28T10:33:58Z</time>
      </trkpt>
      <trkpt lat="43.131212485063" lon="-5.01999079250267">
        <ele>964.397006988525</ele>
        <time>2018-08-28T10:34:01Z</time>
      </trkpt>
      <trkpt lat="43.1312055699929" lon="-5.01990454271903">
        <ele>964.838779449463</ele>
        <time>2018-08-28T10:34:04Z</time>
      </trkpt>
      <trkpt lat="43.1312099285825" lon="-5.01984276809266">
        <ele>965.504917144775</ele>
        <time>2018-08-28T10:34:06Z</time>
      </trkpt>
      <trkpt lat="43.1312202383234" lon="-5.01975375228098">
        <ele>966.0412940979</ele>
        <time>2018-08-28T10:34:09Z</time>
      </trkpt>
      <trkpt lat="43.1312364992156" lon="-5.01969449222555">
        <ele>963.999057769775</ele>
        <time>2018-08-28T10:34:11Z</time>
      </trkpt>
      <trkpt lat="43.1312516285508" lon="-5.01962844282856">
        <ele>962.648960113525</ele>
        <time>2018-08-28T10:34:13Z</time>
      </trkpt>
      <trkpt lat="43.1312614353775" lon="-5.0195558555471">
        <ele>963.783237457275</ele>
        <time>2018-08-28T10:34:15Z</time>
      </trkpt>
      <trkpt lat="43.1312743854179" lon="-5.01948687248399">
        <ele>966.6457862854</ele>
        <time>2018-08-28T10:34:17Z</time>
      </trkpt>
      <trkpt lat="43.1312919455051" lon="-5.01942995936146">
        <ele>968.834018707275</ele>
        <time>2018-08-28T10:34:19Z</time>
      </trkpt>
      <trkpt lat="43.1313148700103" lon="-5.01936156303158">
        <ele>969.366123199463</ele>
        <time>2018-08-28T10:34:22Z</time>
      </trkpt>
      <trkpt lat="43.1313372077822" lon="-5.01930724829903">
        <ele>969.589878082275</ele>
        <time>2018-08-28T10:34:24Z</time>
      </trkpt>
      <trkpt lat="43.1313637365057" lon="-5.019241115083">
        <ele>971.541049957275</ele>
        <time>2018-08-28T10:34:27Z</time>
      </trkpt>
      <trkpt lat="43.1313780695602" lon="-5.01917271875312">
        <ele>975.209629058838</ele>
        <time>2018-08-28T10:34:30Z</time>
      </trkpt>
      <trkpt lat="43.1314041791885" lon="-5.01910926774612">
        <ele>975.627109527588</ele>
        <time>2018-08-28T10:34:34Z</time>
      </trkpt>
      <trkpt lat="43.1314278161555" lon="-5.01904380508235">
        <ele>979.588291168213</ele>
        <time>2018-08-28T10:34:37Z</time>
      </trkpt>
      <trkpt lat="43.1314720726042" lon="-5.01899460331073">
        <ele>982.155307769775</ele>
        <time>2018-08-28T10:34:41Z</time>
      </trkpt>
      <trkpt lat="43.1315065222263" lon="-5.01894506626299">
        <ele>980.991123199463</ele>
        <time>2018-08-28T10:34:44Z</time>
      </trkpt>
      <trkpt lat="43.1315172091528" lon="-5.01888161525598">
        <ele>981.8508644104</ele>
        <time>2018-08-28T10:34:46Z</time>
      </trkpt>
      <trkpt lat="43.13152437568" lon="-5.01881724223962">
        <ele>983.287631988525</ele>
        <time>2018-08-28T10:34:48Z</time>
      </trkpt>
      <trkpt lat="43.1315232441231" lon="-5.01875152811875">
        <ele>984.247592926025</ele>
        <time>2018-08-28T10:34:50Z</time>
      </trkpt>
      <trkpt lat="43.131526890251" lon="-5.01868749037852">
        <ele>985.368808746338</ele>
        <time>2018-08-28T10:34:52Z</time>
      </trkpt>
      <trkpt lat="43.1315380381822" lon="-5.01862579957118">
        <ele>985.7121925354</ele>
        <time>2018-08-28T10:34:54Z</time>
      </trkpt>
      <trkpt lat="43.1315440731525" lon="-5.01856368966868">
        <ele>985.595615386963</ele>
        <time>2018-08-28T10:34:56Z</time>
      </trkpt>
      <trkpt lat="43.1315576937451" lon="-5.01847743988504">
        <ele>984.957553863525</ele>
        <time>2018-08-28T10:34:59Z</time>
      </trkpt>
      <trkpt lat="43.1315836357354" lon="-5.01839647070041">
        <ele>987.324619293213</ele>
        <time>2018-08-28T10:35:02Z</time>
      </trkpt>
      <trkpt lat="43.1315990584373" lon="-5.01832069829574">
        <ele>987.374423980713</ele>
        <time>2018-08-28T10:35:05Z</time>
      </trkpt>
      <trkpt lat="43.131616744253" lon="-5.01824081875851">
        <ele>989.849643707275</ele>
        <time>2018-08-28T10:35:08Z</time>
      </trkpt>
      <trkpt lat="43.1316174986243" lon="-5.01816948876252">
        <ele>987.021640777588</ele>
        <time>2018-08-28T10:35:10Z</time>
      </trkpt>
      <trkpt lat="43.1316185044526" lon="-5.01810134388974">
        <ele>987.667026519775</ele>
        <time>2018-08-28T10:35:12Z</time>
      </trkpt>
      <trkpt lat="43.1316184206336" lon="-5.01802263781896">
        <ele>986.396884918213</ele>
        <time>2018-08-28T10:35:15Z</time>
      </trkpt>
      <trkpt lat="43.1316206418379" lon="-5.01795097254684">
        <ele>987.414463043213</ele>
        <time>2018-08-28T10:35:18Z</time>
      </trkpt>
      <trkpt lat="43.1316104159161" lon="-5.01787637360861">
        <ele>989.789707183838</ele>
        <time>2018-08-28T10:35:21Z</time>
      </trkpt>
      <trkpt lat="43.1315808697074" lon="-5.0178044568794">
        <ele>990.633823394775</ele>
        <time>2018-08-28T10:35:24Z</time>
      </trkpt>
      <trkpt lat="43.1315581547498" lon="-5.01773874275854">
        <ele>991.538120269775</ele>
        <time>2018-08-28T10:35:27Z</time>
      </trkpt>
      <trkpt lat="43.1315193465381" lon="-5.01768744551113">
        <ele>994.094150543213</ele>
        <time>2018-08-28T10:35:30Z</time>
      </trkpt>
      <trkpt lat="43.1314949971094" lon="-5.01762944274118">
        <ele>992.507724761963</ele>
        <time>2018-08-28T10:35:33Z</time>
      </trkpt>
      <trkpt lat="43.1314765988319" lon="-5.01755895093551">
        <ele>994.876987457275</ele>
        <time>2018-08-28T10:35:36Z</time>
      </trkpt>
      <trkpt lat="43.1314646546199" lon="-5.01748368144503">
        <ele>994.689365386963</ele>
        <time>2018-08-28T10:35:40Z</time>
      </trkpt>
      <trkpt lat="43.1314618047728" lon="-5.01741101034453">
        <ele>997.374423980713</ele>
        <time>2018-08-28T10:35:43Z</time>
      </trkpt>
      <trkpt lat="43.1314499024703" lon="-5.01733154990246">
        <ele>996.798496246338</ele>
        <time>2018-08-28T10:35:46Z</time>
      </trkpt>
      <trkpt lat="43.1314451666951" lon="-5.01725426875522">
        <ele>999.504306793213</ele>
        <time>2018-08-28T10:35:49Z</time>
      </trkpt>
      <trkpt lat="43.1314404309198" lon="-5.01717338338962">
        <ele>1001.0373878479</ele>
        <time>2018-08-28T10:35:52Z</time>
      </trkpt>
      <trkpt lat="43.1314348988637" lon="-5.01709610224237">
        <ele>1000.97964859009</ele>
        <time>2018-08-28T10:35:55Z</time>
      </trkpt>
      <trkpt lat="43.1314316718309" lon="-5.01702108420899">
        <ele>1002.54605484009</ele>
        <time>2018-08-28T10:35:59Z</time>
      </trkpt>
      <trkpt lat="43.1314300792693" lon="-5.01695889048746">
        <ele>1001.14432144165</ele>
        <time>2018-08-28T10:36:02Z</time>
      </trkpt>
      <trkpt lat="43.1314364076062" lon="-5.01688529737761">
        <ele>1001.13052749634</ele>
        <time>2018-08-28T10:36:06Z</time>
      </trkpt>
      <trkpt lat="43.13142915726" lon="-5.0168133806484">
        <ele>1004.59720230103</ele>
        <time>2018-08-28T10:36:35Z</time>
      </trkpt>
      <trkpt lat="43.1314247567608" lon="-5.01675202511718">
        <ele>1004.99820327759</ele>
        <time>2018-08-28T10:36:37Z</time>
      </trkpt>
      <trkpt lat="43.131419979076" lon="-5.01668438315859">
        <ele>1007.50003433228</ele>
        <time>2018-08-28T10:36:39Z</time>
      </trkpt>
      <trkpt lat="43.1314298278122" lon="-5.01662126742771">
        <ele>1006.33902359009</ele>
        <time>2018-08-28T10:36:41Z</time>
      </trkpt>
      <trkpt lat="43.1314517045795" lon="-5.01655840315392">
        <ele>1005.45474624634</ele>
        <time>2018-08-28T10:37:02Z</time>
      </trkpt>
      <trkpt lat="43.131448980461" lon="-5.01647315919866">
        <ele>1005.72061538696</ele>
        <time>2018-08-28T10:37:07Z</time>
      </trkpt>
      <trkpt lat="43.1314695161238" lon="-5.01639378257563">
        <ele>1005.2102394104</ele>
        <time>2018-08-28T10:37:09Z</time>
      </trkpt>
      <trkpt lat="43.131489926058" lon="-5.01630987972488">
        <ele>1005.96963882446</ele>
        <time>2018-08-28T10:37:11Z</time>
      </trkpt>
      <trkpt lat="43.131511048454" lon="-5.01620410010686">
        <ele>1005.17862319946</ele>
        <time>2018-08-28T10:37:13Z</time>
      </trkpt>
      <trkpt lat="43.1315212324663" lon="-5.01612422056963">
        <ele>1006.61380386353</ele>
        <time>2018-08-28T10:37:15Z</time>
      </trkpt>
      <trkpt lat="43.1315299077361" lon="-5.01605842262974">
        <ele>1008.2971534729</ele>
        <time>2018-08-28T10:37:17Z</time>
      </trkpt>
      <trkpt lat="43.1315520359605" lon="-5.01600293443074">
        <ele>1008.2297706604</ele>
        <time>2018-08-28T10:37:19Z</time>
      </trkpt>
      <trkpt lat="43.1315905508056" lon="-5.01596513204744">
        <ele>1009.69449234009</ele>
        <time>2018-08-28T10:37:21Z</time>
      </trkpt>
      <trkpt lat="43.1316363579064" lon="-5.01596940681805">
        <ele>1009.93399429321</ele>
        <time>2018-08-28T10:37:24Z</time>
      </trkpt>
      <trkpt lat="43.131696037057" lon="-5.01600947231521">
        <ele>1011.60306167603</ele>
        <time>2018-08-28T10:37:27Z</time>
      </trkpt>
      <trkpt lat="43.1317521958082" lon="-5.01602573320737">
        <ele>1012.04947280884</ele>
        <time>2018-08-28T10:37:29Z</time>
      </trkpt>
      <trkpt lat="43.1318047503411" lon="-5.01602497883608">
        <ele>1014.23294448853</ele>
        <time>2018-08-28T10:37:31Z</time>
      </trkpt>
      <trkpt lat="43.1318523595511" lon="-5.01602347009351">
        <ele>1016.4983253479</ele>
        <time>2018-08-28T10:37:33Z</time>
      </trkpt>
      <trkpt lat="43.1319071771979" lon="-5.01601265743842">
        <ele>1014.66958999634</ele>
        <time>2018-08-28T10:37:35Z</time>
      </trkpt>
      <trkpt lat="43.1319638388633" lon="-5.01599497162273">
        <ele>1014.47818374634</ele>
        <time>2018-08-28T10:37:37Z</time>
      </trkpt>
      <trkpt lat="43.1320174830436" lon="-5.01597602852156">
        <ele>1014.45083999634</ele>
        <time>2018-08-28T10:37:39Z</time>
      </trkpt>
      <trkpt lat="43.1320658047154" lon="-5.01595482230654">
        <ele>1014.24356460571</ele>
        <time>2018-08-28T10:37:41Z</time>
      </trkpt>
      <trkpt lat="43.1321123661875" lon="-5.01593478955796">
        <ele>1014.6116065979</ele>
        <time>2018-08-28T10:37:43Z</time>
      </trkpt>
      <trkpt lat="43.1321605202212" lon="-5.01588290557732">
        <ele>1015.16812515259</ele>
        <time>2018-08-28T10:37:46Z</time>
      </trkpt>
      <trkpt lat="43.1321924971818" lon="-5.01581367105713">
        <ele>1014.85293960571</ele>
        <time>2018-08-28T10:37:49Z</time>
      </trkpt>
      <trkpt lat="43.1322199479147" lon="-5.01575851813426">
        <ele>1013.47562026978</ele>
        <time>2018-08-28T10:37:51Z</time>
      </trkpt>
      <trkpt lat="43.1322480272903" lon="-5.01570872962942">
        <ele>1015.4104347229</ele>
        <time>2018-08-28T10:37:53Z</time>
      </trkpt>
      <trkpt lat="43.1322792917892" lon="-5.01564653590789">
        <ele>1015.72720718384</ele>
        <time>2018-08-28T10:37:56Z</time>
      </trkpt>
      <trkpt lat="43.1323008751898" lon="-5.01557637937834">
        <ele>1016.18448257446</ele>
        <time>2018-08-28T10:37:59Z</time>
      </trkpt>
      <trkpt lat="43.1323193572863" lon="-5.0155144371139">
        <ele>1016.3010597229</ele>
        <time>2018-08-28T10:38:01Z</time>
      </trkpt>
      <trkpt lat="43.1323428685247" lon="-5.0154504831927">
        <ele>1016.16873550415</ele>
        <time>2018-08-28T10:38:04Z</time>
      </trkpt>
      <trkpt lat="43.1323819281935" lon="-5.01539960504045">
        <ele>1017.66495132446</ele>
        <time>2018-08-28T10:38:07Z</time>
      </trkpt>
      <trkpt lat="43.1324183475628" lon="-5.01534671523144">
        <ele>1018.36673355103</ele>
        <time>2018-08-28T10:38:10Z</time>
      </trkpt>
      <trkpt lat="43.1324523780897" lon="-5.01528921537568">
        <ele>1017.59585952759</ele>
        <time>2018-08-28T10:38:13Z</time>
      </trkpt>
      <trkpt lat="43.1324934075057" lon="-5.01523531973829">
        <ele>1017.23843765259</ele>
        <time>2018-08-28T10:38:17Z</time>
      </trkpt>
      <trkpt lat="43.1325437408342" lon="-5.015205480163">
        <ele>1018.57925796509</ele>
        <time>2018-08-28T10:38:21Z</time>
      </trkpt>
      <trkpt lat="43.1325646117731" lon="-5.01514404081275">
        <ele>1021.42056655884</ele>
        <time>2018-08-28T10:38:24Z</time>
      </trkpt>
      <trkpt lat="43.1325883744686" lon="-5.01508872025182">
        <ele>1017.83902359009</ele>
        <time>2018-08-28T10:38:27Z</time>
      </trkpt>
      <trkpt lat="43.1326215248957" lon="-5.01504077576568">
        <ele>1017.54776382446</ele>
        <time>2018-08-28T10:38:29Z</time>
      </trkpt>
      <trkpt lat="43.1326438626676" lon="-5.01497531310191">
        <ele>1010.33572769165</ele>
        <time>2018-08-28T10:38:33Z</time>
      </trkpt>
      <trkpt lat="43.1326743727952" lon="-5.01491940580775">
        <ele>1012.17129898071</ele>
        <time>2018-08-28T10:38:36Z</time>
      </trkpt>
      <trkpt lat="43.1327094929694" lon="-5.01486743800809">
        <ele>1012.36490249634</ele>
        <time>2018-08-28T10:38:39Z</time>
      </trkpt>
      <trkpt lat="43.1327379914402" lon="-5.0148032326298">
        <ele>1013.66116714478</ele>
        <time>2018-08-28T10:38:42Z</time>
      </trkpt>
      <trkpt lat="43.1327776797517" lon="-5.01473894343247">
        <ele>1016.15323257446</ele>
        <time>2018-08-28T10:38:45Z</time>
      </trkpt>
      <trkpt lat="43.1328026997327" lon="-5.01467649825384">
        <ele>1017.7737159729</ele>
        <time>2018-08-28T10:38:48Z</time>
      </trkpt>
      <trkpt lat="43.1328262528806" lon="-5.01461841166486">
        <ele>1019.55142593384</ele>
        <time>2018-08-28T10:38:50Z</time>
      </trkpt>
      <trkpt lat="43.1328472914576" lon="-5.01454917714467">
        <ele>1017.41312026978</ele>
        <time>2018-08-28T10:38:52Z</time>
      </trkpt>
      <trkpt lat="43.1328658154636" lon="-5.01448052935769">
        <ele>1017.34048843384</ele>
        <time>2018-08-28T10:38:54Z</time>
      </trkpt>
      <trkpt lat="43.1328896619781" lon="-5.01440702006688">
        <ele>1018.11734390259</ele>
        <time>2018-08-28T10:38:56Z</time>
      </trkpt>
      <trkpt lat="43.1329213874816" lon="-5.01435966231396">
        <ele>1018.73782730103</ele>
        <time>2018-08-28T10:38:58Z</time>
      </trkpt>
      <trkpt lat="43.1329469103768" lon="-5.01429939643016">
        <ele>1017.83890151978</ele>
        <time>2018-08-28T10:39:01Z</time>
      </trkpt>
      <trkpt lat="43.1329617463454" lon="-5.01422395930161">
        <ele>1021.37173843384</ele>
        <time>2018-08-28T10:39:04Z</time>
      </trkpt>
      <trkpt lat="43.1329658953875" lon="-5.01415338367691">
        <ele>1021.30472183228</ele>
        <time>2018-08-28T10:39:07Z</time>
      </trkpt>
      <trkpt lat="43.1329441443487" lon="-5.01407400705387">
        <ele>1024.43997573853</ele>
        <time>2018-08-28T10:39:10Z</time>
      </trkpt>
      <trkpt lat="43.1329233153194" lon="-5.01400091685822">
        <ele>1026.98355484009</ele>
        <time>2018-08-28T10:39:13Z</time>
      </trkpt>
      <trkpt lat="43.132919711101" lon="-5.01392665319612">
        <ele>1028.44913101196</ele>
        <time>2018-08-28T10:39:17Z</time>
      </trkpt>
      <trkpt lat="43.1329526100709" lon="-5.01386965625455">
        <ele>1027.58511734009</ele>
        <time>2018-08-28T10:39:21Z</time>
      </trkpt>
      <trkpt lat="43.1329801446229" lon="-5.01380385831465">
        <ele>1029.71731948853</ele>
        <time>2018-08-28T10:39:25Z</time>
      </trkpt>
      <trkpt lat="43.1330087688222" lon="-5.01375063322951">
        <ele>1033.59915542603</ele>
        <time>2018-08-28T10:39:28Z</time>
      </trkpt>
      <trkpt lat="43.1330398237734" lon="-5.01370050944855">
        <ele>1035.59756851196</ele>
        <time>2018-08-28T10:39:31Z</time>
      </trkpt>
      <trkpt lat="43.1330637121975" lon="-5.01362834126224">
        <ele>1034.41678237915</ele>
        <time>2018-08-28T10:39:35Z</time>
      </trkpt>
      <trkpt lat="43.1330804340943" lon="-5.01356614754071">
        <ele>1035.7629737854</ele>
        <time>2018-08-28T10:39:39Z</time>
      </trkpt>
      <trkpt lat="43.1330934679537" lon="-5.01350596547594">
        <ele>1038.72525405884</ele>
        <time>2018-08-28T10:39:42Z</time>
      </trkpt>
      <trkpt lat="43.1330954796105" lon="-5.01342600211968">
        <ele>1039.33682632446</ele>
        <time>2018-08-28T10:39:45Z</time>
      </trkpt>
      <trkpt lat="43.1331143808021" lon="-5.01333991997411">
        <ele>1041.28714370728</ele>
        <time>2018-08-28T10:39:48Z</time>
      </trkpt>
      <trkpt lat="43.1331487885147" lon="-5.01326439902653">
        <ele>1043.21500015259</ele>
        <time>2018-08-28T10:39:51Z</time>
      </trkpt>
      <trkpt lat="43.133169449906" lon="-5.01320480369498">
        <ele>1043.52798843384</ele>
        <time>2018-08-28T10:39:53Z</time>
      </trkpt>
      <trkpt lat="43.1332079647511" lon="-5.01313347369899">
        <ele>1042.4660987854</ele>
        <time>2018-08-28T10:39:56Z</time>
      </trkpt>
      <trkpt lat="43.1332396064355" lon="-5.01306625083556">
        <ele>1043.64139175415</ele>
        <time>2018-08-28T10:39:59Z</time>
      </trkpt>
      <trkpt lat="43.1332723796769" lon="-5.01299517229666">
        <ele>1045.91202163696</ele>
        <time>2018-08-28T10:40:02Z</time>
      </trkpt>
      <trkpt lat="43.1333038956329" lon="-5.01294597052505">
        <ele>1044.89261245728</ele>
        <time>2018-08-28T10:40:04Z</time>
      </trkpt>
      <trkpt lat="43.1333567435324" lon="-5.01288528554608">
        <ele>1044.13455581665</ele>
        <time>2018-08-28T10:40:07Z</time>
      </trkpt>
      <trkpt lat="43.13339676712" lon="-5.01284840517213">
        <ele>1044.87271499634</ele>
        <time>2018-08-28T10:40:09Z</time>
      </trkpt>
      <trkpt lat="43.13344437633" lon="-5.01279559918215">
        <ele>1044.49954605103</ele>
        <time>2018-08-28T10:40:12Z</time>
      </trkpt>
      <trkpt lat="43.1334824301704" lon="-5.0127426255541">
        <ele>1044.36587905884</ele>
        <time>2018-08-28T10:40:15Z</time>
      </trkpt>
      <trkpt lat="43.1335147424071" lon="-5.01267791726162">
        <ele>1043.41849136353</ele>
        <time>2018-08-28T10:40:18Z</time>
      </trkpt>
      <trkpt lat="43.1335014990001" lon="-5.01261463389267">
        <ele>1045.9309425354</ele>
        <time>2018-08-28T10:40:20Z</time>
      </trkpt>
      <trkpt lat="43.1334666721924" lon="-5.01255051233341">
        <ele>1047.49673843384</ele>
        <time>2018-08-28T10:40:22Z</time>
      </trkpt>
      <trkpt lat="43.1334271096095" lon="-5.01249955036213">
        <ele>1048.9875831604</ele>
        <time>2018-08-28T10:40:24Z</time>
      </trkpt>
      <trkpt lat="43.1333814282372" lon="-5.01244733110537">
        <ele>1052.0198097229</ele>
        <time>2018-08-28T10:40:27Z</time>
      </trkpt>
      <trkpt lat="43.1333395187213" lon="-5.01242419705262">
        <ele>1054.05350112915</ele>
        <time>2018-08-28T10:40:30Z</time>
      </trkpt>
      <trkpt lat="43.1332847010746" lon="-5.01240399666597">
        <ele>1055.87857437134</ele>
        <time>2018-08-28T10:40:33Z</time>
      </trkpt>
      <trkpt lat="43.1332496647193" lon="-5.01236359589269">
        <ele>1052.20865249634</ele>
        <time>2018-08-28T10:40:35Z</time>
      </trkpt>
      <trkpt lat="43.1332148798212" lon="-5.01231565140655">
        <ele>1052.95315933228</ele>
        <time>2018-08-28T10:40:37Z</time>
      </trkpt>
      <trkpt lat="43.1331852497935" lon="-5.0122629292356">
        <ele>1052.65604019165</ele>
        <time>2018-08-28T10:40:39Z</time>
      </trkpt>
      <trkpt lat="43.1331573380559" lon="-5.01219914295246">
        <ele>1050.95279312134</ele>
        <time>2018-08-28T10:40:41Z</time>
      </trkpt>
      <trkpt lat="43.1331306836038" lon="-5.01213041134645">
        <ele>1049.47598648071</ele>
        <time>2018-08-28T10:40:43Z</time>
      </trkpt>
      <trkpt lat="43.1331130396976" lon="-5.01206067391207">
        <ele>1049.42081069946</ele>
        <time>2018-08-28T10:40:45Z</time>
      </trkpt>
      <trkpt lat="43.1330839544936" lon="-5.01197878271808">
        <ele>1050.80667495728</ele>
        <time>2018-08-28T10:40:48Z</time>
      </trkpt>
      <trkpt lat="43.1330699567153" lon="-5.01191868447234">
        <ele>1048.75564956665</ele>
        <time>2018-08-28T10:40:50Z</time>
      </trkpt>
      <trkpt lat="43.1330577191367" lon="-5.01185791567435">
        <ele>1050.21561050415</ele>
        <time>2018-08-28T10:40:52Z</time>
      </trkpt>
      <trkpt lat="43.1330392789497" lon="-5.0117914471822">
        <ele>1050.01333999634</ele>
        <time>2018-08-28T10:40:54Z</time>
      </trkpt>
      <trkpt lat="43.1330199586629" lon="-5.01172807999422">
        <ele>1050.90738296509</ele>
        <time>2018-08-28T10:40:56Z</time>
      </trkpt>
      <trkpt lat="43.1330038234993" lon="-5.01165842637886">
        <ele>1051.17911148071</ele>
        <time>2018-08-28T10:40:59Z</time>
      </trkpt>
      <trkpt lat="43.1329868082359" lon="-5.01159204170575">
        <ele>1055.27688980103</ele>
        <time>2018-08-28T10:41:03Z</time>
      </trkpt>
      <trkpt lat="43.1329689547821" lon="-5.01153387129774">
        <ele>1056.8108253479</ele>
        <time>2018-08-28T10:41:06Z</time>
      </trkpt>
      <trkpt lat="43.1329293083801" lon="-5.01146530732979">
        <ele>1058.41897964478</ele>
        <time>2018-08-28T10:41:09Z</time>
      </trkpt>
      <trkpt lat="43.1328940624773" lon="-5.01142364927103">
        <ele>1060.08145523071</ele>
        <time>2018-08-28T10:41:11Z</time>
      </trkpt>
      <trkpt lat="43.1328547094419" lon="-5.01135600731244">
        <ele>1061.98770523071</ele>
        <time>2018-08-28T10:41:14Z</time>
      </trkpt>
      <trkpt lat="43.1328197569057" lon="-5.01128308475484">
        <ele>1063.98331069946</ele>
        <time>2018-08-28T10:41:17Z</time>
      </trkpt>
      <trkpt lat="43.1327913003444" lon="-5.01120664179792">
        <ele>1064.89615249634</ele>
        <time>2018-08-28T10:41:20Z</time>
      </trkpt>
      <trkpt lat="43.1327634305164" lon="-5.01113422215452">
        <ele>1066.31985855103</ele>
        <time>2018-08-28T10:41:23Z</time>
      </trkpt>
      <trkpt lat="43.1327371113404" lon="-5.01107906923165">
        <ele>1068.10318374634</ele>
        <time>2018-08-28T10:41:26Z</time>
      </trkpt>
      <trkpt lat="43.1327231973811" lon="-5.01100673340728">
        <ele>1067.53824234009</ele>
        <time>2018-08-28T10:41:39Z</time>
      </trkpt>
      <trkpt lat="43.1326679187297" lon="-5.01100304536988">
        <ele>1065.57876968384</ele>
        <time>2018-08-28T10:42:21Z</time>
      </trkpt>
      <trkpt lat="43.1326183397725" lon="-5.01098150387873">
        <ele>1066.01553726196</ele>
        <time>2018-08-28T10:42:24Z</time>
      </trkpt>
      <trkpt lat="43.1325861951738" lon="-5.0109330564784">
        <ele>1064.64493179321</ele>
        <time>2018-08-28T10:42:26Z</time>
      </trkpt>
      <trkpt lat="43.1325570261508" lon="-5.01087002456655">
        <ele>1064.49405288696</ele>
        <time>2018-08-28T10:42:28Z</time>
      </trkpt>
      <trkpt lat="43.1325307488843" lon="-5.01080221496989">
        <ele>1064.43057632446</ele>
        <time>2018-08-28T10:42:30Z</time>
      </trkpt>
      <trkpt lat="43.132504890713" lon="-5.01074069180061">
        <ele>1064.96170425415</ele>
        <time>2018-08-28T10:42:32Z</time>
      </trkpt>
      <trkpt lat="43.1324844388693" lon="-5.01068453304936">
        <ele>1065.97647476196</ele>
        <time>2018-08-28T10:42:34Z</time>
      </trkpt>
      <trkpt lat="43.1324523361801" lon="-5.01061085612048">
        <ele>1066.89175796509</ele>
        <time>2018-08-28T10:42:37Z</time>
      </trkpt>
      <trkpt lat="43.1324257655471" lon="-5.01055494882633">
        <ele>1067.81314468384</ele>
        <time>2018-08-28T10:42:39Z</time>
      </trkpt>
      <trkpt lat="43.1324073672696" lon="-5.0104940962093">
        <ele>1068.41397476196</ele>
        <time>2018-08-28T10:42:41Z</time>
      </trkpt>
      <trkpt lat="43.1323894719064" lon="-5.01039736904671">
        <ele>1067.71988296509</ele>
        <time>2018-08-28T10:42:44Z</time>
      </trkpt>
      <trkpt lat="43.1323830178409" lon="-5.01030609012117">
        <ele>1068.27981948853</ele>
        <time>2018-08-28T10:42:46Z</time>
      </trkpt>
      <trkpt lat="43.132393830496" lon="-5.01019335352351">
        <ele>1067.88345718384</ele>
        <time>2018-08-28T10:42:48Z</time>
      </trkpt>
      <trkpt lat="43.1324223708763" lon="-5.01010039821734">
        <ele>1068.2815284729</ele>
        <time>2018-08-28T10:42:50Z</time>
      </trkpt>
      <trkpt lat="43.1324553536653" lon="-5.01000593416859">
        <ele>1067.45462417603</ele>
        <time>2018-08-28T10:42:52Z</time>
      </trkpt>
      <trkpt lat="43.1324758474185" lon="-5.00991138630082">
        <ele>1067.52090835571</ele>
        <time>2018-08-28T10:42:54Z</time>
      </trkpt>
      <trkpt lat="43.1324900128349" lon="-5.00981549732854">
        <ele>1067.2932472229</ele>
        <time>2018-08-28T10:42:56Z</time>
      </trkpt>
      <trkpt lat="43.1325011188566" lon="-5.00973226503004">
        <ele>1069.54495620728</ele>
        <time>2018-08-28T10:42:58Z</time>
      </trkpt>
      <trkpt lat="43.1325192237675" lon="-5.00966663472821">
        <ele>1067.31680679321</ele>
        <time>2018-08-28T10:43:00Z</time>
      </trkpt>
      <trkpt lat="43.1325317966222" lon="-5.0095931254374">
        <ele>1067.10513687134</ele>
        <time>2018-08-28T10:43:02Z</time>
      </trkpt>
      <trkpt lat="43.1325306650653" lon="-5.00950343907346">
        <ele>1066.24881362915</ele>
        <time>2018-08-28T10:43:04Z</time>
      </trkpt>
      <trkpt lat="43.1325293658703" lon="-5.00941534527113">
        <ele>1067.79837417603</ele>
        <time>2018-08-28T10:43:06Z</time>
      </trkpt>
      <trkpt lat="43.1325278990372" lon="-5.00933144242038">
        <ele>1068.00442886353</ele>
        <time>2018-08-28T10:43:08Z</time>
      </trkpt>
      <trkpt lat="43.132523414719" lon="-5.00926312990953">
        <ele>1068.11954116821</ele>
        <time>2018-08-28T10:43:10Z</time>
      </trkpt>
      <trkpt lat="43.1325163320109" lon="-5.00920177437832">
        <ele>1067.84927749634</ele>
        <time>2018-08-28T10:43:12Z</time>
      </trkpt>
      <trkpt lat="43.1325103808596" lon="-5.00913396478166">
        <ele>1067.5813331604</ele>
        <time>2018-08-28T10:43:14Z</time>
      </trkpt>
      <trkpt lat="43.1325134821638" lon="-5.00906070694794">
        <ele>1065.89065933228</ele>
        <time>2018-08-28T10:43:16Z</time>
      </trkpt>
      <trkpt lat="43.1325275637611" lon="-5.00899331644644">
        <ele>1066.87686538696</ele>
        <time>2018-08-28T10:43:18Z</time>
      </trkpt>
      <trkpt lat="43.1325481832429" lon="-5.00893053599168">
        <ele>1065.72244644165</ele>
        <time>2018-08-28T10:43:20Z</time>
      </trkpt>
      <trkpt lat="43.1325644022255" lon="-5.00885040499736">
        <ele>1065.12601089478</ele>
        <time>2018-08-28T10:43:23Z</time>
      </trkpt>
      <trkpt lat="43.1325779809087" lon="-5.00874655321707">
        <ele>1066.37076187134</ele>
        <time>2018-08-28T10:43:26Z</time>
      </trkpt>
      <trkpt lat="43.1325977202907" lon="-5.0086324755149">
        <ele>1065.89932632446</ele>
        <time>2018-08-28T10:43:28Z</time>
      </trkpt>
      <trkpt lat="43.1326128077164" lon="-5.00856600702275">
        <ele>1065.56595230103</ele>
        <time>2018-08-28T10:43:29Z</time>
      </trkpt>
      <trkpt lat="43.1326327147364" lon="-5.00850054435898">
        <ele>1065.06131362915</ele>
        <time>2018-08-28T10:43:30Z</time>
      </trkpt>
      <trkpt lat="43.1326924357965" lon="-5.00842074864079">
        <ele>1065.09292984009</ele>
        <time>2018-08-28T10:43:31Z</time>
      </trkpt>
      <trkpt lat="43.1327420147538" lon="-5.00837272033562">
        <ele>1065.5598487854</ele>
        <time>2018-08-28T10:43:32Z</time>
      </trkpt>
      <trkpt lat="43.1327714352339" lon="-5.00832075253595">
        <ele>1065.77334976196</ele>
        <time>2018-08-28T10:43:33Z</time>
      </trkpt>
      <trkpt lat="43.1327983830526" lon="-5.00826627016534">
        <ele>1066.49661636353</ele>
        <time>2018-08-28T10:43:34Z</time>
      </trkpt>
      <trkpt lat="43.1328077707841" lon="-5.00818605535199">
        <ele>1067.90933609009</ele>
        <time>2018-08-28T10:43:36Z</time>
      </trkpt>
      <trkpt lat="43.1328348443314" lon="-5.00811355188955">
        <ele>1066.90018081665</ele>
        <time>2018-08-28T10:43:38Z</time>
      </trkpt>
      <trkpt lat="43.1328949006676" lon="-5.00807994045784">
        <ele>1066.42374038696</ele>
        <time>2018-08-28T10:43:40Z</time>
      </trkpt>
      <trkpt lat="43.1329255784332" lon="-5.00801389106084">
        <ele>1066.61917495728</ele>
        <time>2018-08-28T10:43:42Z</time>
      </trkpt>
      <trkpt lat="43.1329480419337" lon="-5.00794121996035">
        <ele>1066.7649269104</ele>
        <time>2018-08-28T10:43:44Z</time>
      </trkpt>
      <trkpt lat="43.1329689128726" lon="-5.00787399709691">
        <ele>1065.76724624634</ele>
        <time>2018-08-28T10:43:46Z</time>
      </trkpt>
      <trkpt lat="43.1330145523354" lon="-5.00776285306086">
        <ele>1064.69144058228</ele>
        <time>2018-08-28T10:43:48Z</time>
      </trkpt>
      <trkpt lat="43.133036051917" lon="-5.00770158134867">
        <ele>1063.55130386353</ele>
        <time>2018-08-28T10:43:49Z</time>
      </trkpt>
      <trkpt lat="43.1330549531087" lon="-5.00762715004851">
        <ele>1063.44424819946</ele>
        <time>2018-08-28T10:43:50Z</time>
      </trkpt>
      <trkpt lat="43.1330567552178" lon="-5.00756512396504">
        <ele>1063.68924331665</ele>
        <time>2018-08-28T10:43:51Z</time>
      </trkpt>
      <trkpt lat="43.1330538215517" lon="-5.00746487640311">
        <ele>1065.04544448853</ele>
        <time>2018-08-28T10:43:53Z</time>
      </trkpt>
      <trkpt lat="43.1330699567153" lon="-5.00738566741814">
        <ele>1065.12552261353</ele>
        <time>2018-08-28T10:43:55Z</time>
      </trkpt>
      <trkpt lat="43.1330786319851" lon="-5.00731282867958">
        <ele>1065.65274429321</ele>
        <time>2018-08-28T10:43:57Z</time>
      </trkpt>
      <trkpt lat="43.1330800988182" lon="-5.00723353587557">
        <ele>1065.52029800415</ele>
        <time>2018-08-28T10:43:59Z</time>
      </trkpt>
      <trkpt lat="43.1330869719788" lon="-5.00716941431631">
        <ele>1063.92142105103</ele>
        <time>2018-08-28T10:44:01Z</time>
      </trkpt>
      <trkpt lat="43.1330942642345" lon="-5.00709699467291">
        <ele>1062.61429214478</ele>
        <time>2018-08-28T10:44:05Z</time>
      </trkpt>
      <trkpt lat="43.1330981618195" lon="-5.00702306628694">
        <ele>1062.05374526978</ele>
        <time>2018-08-28T10:44:08Z</time>
      </trkpt>
      <trkpt lat="43.1330986228242" lon="-5.00694913790096">
        <ele>1065.50076675415</ele>
        <time>2018-08-28T10:44:11Z</time>
      </trkpt>
      <trkpt lat="43.1331185298442" lon="-5.00687680207659">
        <ele>1066.05533218384</ele>
        <time>2018-08-28T10:44:14Z</time>
      </trkpt>
      <trkpt lat="43.133144429925" lon="-5.0068141892599">
        <ele>1068.35452651978</ele>
        <time>2018-08-28T10:44:17Z</time>
      </trkpt>
      <trkpt lat="43.1331812264799" lon="-5.0067571084993">
        <ele>1067.69253921509</ele>
        <time>2018-08-28T10:44:20Z</time>
      </trkpt>
      <trkpt lat="43.1332321884512" lon="-5.00672969967593">
        <ele>1069.17581558228</ele>
        <time>2018-08-28T10:44:23Z</time>
      </trkpt>
      <trkpt lat="43.133285706903" lon="-5.00672341324855">
        <ele>1069.54825210571</ele>
        <time>2018-08-28T10:44:26Z</time>
      </trkpt>
      <trkpt lat="43.1333264429524" lon="-5.00668963417877">
        <ele>1069.54288101196</ele>
        <time>2018-08-28T10:44:29Z</time>
      </trkpt>
      <trkpt lat="43.1333546480566" lon="-5.00663255341817">
        <ele>1069.6887550354</ele>
        <time>2018-08-28T10:44:33Z</time>
      </trkpt>
      <trkpt lat="43.1333679333731" lon="-5.00655443408061">
        <ele>1070.28567886353</ele>
        <time>2018-08-28T10:44:37Z</time>
      </trkpt>
      <trkpt lat="43.1333936658158" lon="-5.00648603775073">
        <ele>1071.14004898071</ele>
        <time>2018-08-28T10:44:41Z</time>
      </trkpt>
      <trkpt lat="43.1334304204612" lon="-5.00643750653137">
        <ele>1071.63492202759</ele>
        <time>2018-08-28T10:44:46Z</time>
      </trkpt>
      <trkpt lat="43.1334670493781" lon="-5.00638612546493">
        <ele>1070.71072769165</ele>
        <time>2018-08-28T10:44:50Z</time>
      </trkpt>
      <trkpt lat="43.1335016666382" lon="-5.00632451847662">
        <ele>1071.28226089478</ele>
        <time>2018-08-28T10:44:54Z</time>
      </trkpt>
      <trkpt lat="43.1335364934459" lon="-5.00627246685792">
        <ele>1072.17325210571</ele>
        <time>2018-08-28T10:44:58Z</time>
      </trkpt>
      <trkpt lat="43.1335848989367" lon="-5.00622527674307">
        <ele>1073.76700210571</ele>
        <time>2018-08-28T10:45:02Z</time>
      </trkpt>
      <trkpt lat="43.133631879504" lon="-5.00617473386694">
        <ele>1074.00955581665</ele>
        <time>2018-08-28T10:45:05Z</time>
      </trkpt>
      <trkpt lat="43.1336593302368" lon="-5.00612050295342">
        <ele>1075.59366226196</ele>
        <time>2018-08-28T10:45:08Z</time>
      </trkpt>
      <trkpt lat="43.1336558936565" lon="-5.00604716130067">
        <ele>1076.66299819946</ele>
        <time>2018-08-28T10:45:11Z</time>
      </trkpt>
      <trkpt lat="43.1336364476412" lon="-5.00598547049333">
        <ele>1078.03470230103</ele>
        <time>2018-08-28T10:45:14Z</time>
      </trkpt>
      <trkpt lat="43.1336170854449" lon="-5.00592906028499">
        <ele>1078.89200210571</ele>
        <time>2018-08-28T10:45:18Z</time>
      </trkpt>
      <trkpt lat="43.1335887127026" lon="-5.00587767921854">
        <ele>1079.5901222229</ele>
        <time>2018-08-28T10:45:23Z</time>
      </trkpt>
      <trkpt lat="43.1335612619697" lon="-5.0058159884112">
        <ele>1081.70315933228</ele>
        <time>2018-08-28T10:45:27Z</time>
      </trkpt>
      <trkpt lat="43.1335531734332" lon="-5.0057504419284">
        <ele>1082.02823257446</ele>
        <time>2018-08-28T10:45:30Z</time>
      </trkpt>
      <trkpt lat="43.1335349008843" lon="-5.00567039475311">
        <ele>1081.75625991821</ele>
        <time>2018-08-28T10:45:33Z</time>
      </trkpt>
      <trkpt lat="43.133538295555" lon="-5.00560300425161">
        <ele>1083.50052261353</ele>
        <time>2018-08-28T10:45:35Z</time>
      </trkpt>
      <trkpt lat="43.133543408516" lon="-5.00553603284527">
        <ele>1083.1233253479</ele>
        <time>2018-08-28T10:45:37Z</time>
      </trkpt>
      <trkpt lat="43.1335421512305" lon="-5.00545799732674">
        <ele>1083.05118179321</ele>
        <time>2018-08-28T10:45:39Z</time>
      </trkpt>
      <trkpt lat="43.1335290754616" lon="-5.0053841527598">
        <ele>1084.62771987915</ele>
        <time>2018-08-28T10:45:41Z</time>
      </trkpt>
      <trkpt lat="43.1335082883417" lon="-5.00530628487934">
        <ele>1085.02017593384</ele>
        <time>2018-08-28T10:45:44Z</time>
      </trkpt>
      <trkpt lat="43.1334935361921" lon="-5.00522858463694">
        <ele>1085.1760597229</ele>
        <time>2018-08-28T10:45:47Z</time>
      </trkpt>
      <trkpt lat="43.1334989006101" lon="-5.00516270287801">
        <ele>1085.71963882446</ele>
        <time>2018-08-28T10:45:50Z</time>
      </trkpt>
      <trkpt lat="43.1334895966976" lon="-5.00508265570272">
        <ele>1084.86148452759</ele>
        <time>2018-08-28T10:45:53Z</time>
      </trkpt>
      <trkpt lat="43.1334629422455" lon="-5.00503018498887">
        <ele>1084.51175308228</ele>
        <time>2018-08-28T10:45:58Z</time>
      </trkpt>
      <trkpt lat="43.133417805697" lon="-5.0050408300059">
        <ele>1087.46756362915</ele>
        <time>2018-08-28T10:46:07Z</time>
      </trkpt>
      <trkpt lat="43.1333771115571" lon="-5.00508869067301">
        <ele>1086.20169448853</ele>
        <time>2018-08-28T10:46:23Z</time>
      </trkpt>
      <trkpt lat="43.1333730044245" lon="-5.00515758991708">
        <ele>1084.58377456665</ele>
        <time>2018-08-28T10:46:27Z</time>
      </trkpt>
      <trkpt lat="43.133375560905" lon="-5.00522925518919">
        <ele>1081.21365737915</ele>
        <time>2018-08-28T10:46:31Z</time>
      </trkpt>
      <trkpt lat="43.1333564501657" lon="-5.00529320911039">
        <ele>1081.55655288696</ele>
        <time>2018-08-28T10:46:35Z</time>
      </trkpt>
      <trkpt lat="43.1333137024596" lon="-5.00532715581824">
        <ele>1081.73123550415</ele>
        <time>2018-08-28T10:46:38Z</time>
      </trkpt>
      <trkpt lat="43.1332688592776" lon="-5.00535313971807">
        <ele>1082.85525894165</ele>
        <time>2018-08-28T10:46:42Z</time>
      </trkpt>
      <trkpt lat="43.1332251476526" lon="-5.00532371923794">
        <ele>1085.35123062134</ele>
        <time>2018-08-28T10:46:48Z</time>
      </trkpt>
      <trkpt lat="43.1331749400526" lon="-5.00530435704161">
        <ele>1086.08975601196</ele>
        <time>2018-08-28T10:46:57Z</time>
      </trkpt>
      <trkpt lat="43.1331230141624" lon="-5.00528893433977">
        <ele>1087.30557632446</ele>
        <time>2018-08-28T10:47:02Z</time>
      </trkpt>
      <trkpt lat="43.1330767460569" lon="-5.00529941171874">
        <ele>1090.20938491821</ele>
        <time>2018-08-28T10:47:11Z</time>
      </trkpt>
      <trkpt lat="43.1330313999607" lon="-5.00530159101356">
        <ele>1090.94034194946</ele>
        <time>2018-08-28T10:47:14Z</time>
      </trkpt>
      <trkpt lat="43.1329846289411" lon="-5.00528968871106">
        <ele>1090.94632339478</ele>
        <time>2018-08-28T10:47:18Z</time>
      </trkpt>
      <trkpt lat="43.1329350918933" lon="-5.0052805524366">
        <ele>1091.58255386353</ele>
        <time>2018-08-28T10:47:22Z</time>
      </trkpt>
      <trkpt lat="43.1328902906209" lon="-5.00525792129804">
        <ele>1092.7287940979</ele>
        <time>2018-08-28T10:47:25Z</time>
      </trkpt>
      <trkpt lat="43.1328466209053" lon="-5.00524291769136">
        <ele>1091.76565933228</ele>
        <time>2018-08-28T10:47:32Z</time>
      </trkpt>
      <trkpt lat="43.1327977963194" lon="-5.0052305962937">
        <ele>1090.57999038696</ele>
        <time>2018-08-28T10:47:44Z</time>
      </trkpt>
      <trkpt lat="43.1327493908285" lon="-5.00527636148502">
        <ele>1093.22989273071</ele>
        <time>2018-08-28T10:47:51Z</time>
      </trkpt>
      <trkpt lat="43.1326988898619" lon="-5.00528222881724">
        <ele>1094.21280288696</ele>
        <time>2018-08-28T10:47:54Z</time>
      </trkpt>
      <trkpt lat="43.1326535856753" lon="-5.00526102260221">
        <ele>1094.78165054321</ele>
        <time>2018-08-28T10:47:57Z</time>
      </trkpt>
      <trkpt lat="43.1326048029988" lon="-5.00526990741957">
        <ele>1095.62869644165</ele>
        <time>2018-08-28T10:48:00Z</time>
      </trkpt>
      <trkpt lat="43.1325358199357" lon="-5.00528968871106">
        <ele>1096.23709487915</ele>
        <time>2018-08-28T10:48:03Z</time>
      </trkpt>
      <trkpt lat="43.1324898451968" lon="-5.00527443364729">
        <ele>1096.6955909729</ele>
        <time>2018-08-28T10:48:05Z</time>
      </trkpt>
      <trkpt lat="43.1324269809231" lon="-5.00526387244929">
        <ele>1097.68802261353</ele>
        <time>2018-08-28T10:48:08Z</time>
      </trkpt>
      <trkpt lat="43.1323676789581" lon="-5.00530963764061">
        <ele>1098.41360855103</ele>
        <time>2018-08-28T10:48:11Z</time>
      </trkpt>
      <trkpt lat="43.1323267333611" lon="-5.00534844585229">
        <ele>1098.05020523071</ele>
        <time>2018-08-28T10:48:13Z</time>
      </trkpt>
      <trkpt lat="43.1322738854616" lon="-5.00536705367733">
        <ele>1098.54629898071</ele>
        <time>2018-08-28T10:48:16Z</time>
      </trkpt>
      <trkpt lat="43.1322044413938" lon="-5.00535456464161">
        <ele>1098.22562026978</ele>
        <time>2018-08-28T10:48:19Z</time>
      </trkpt>
      <trkpt lat="43.1321483664616" lon="-5.0053651258396">
        <ele>1098.70010757446</ele>
        <time>2018-08-28T10:48:21Z</time>
      </trkpt>
      <trkpt lat="43.1321026012703" lon="-5.00538130291272">
        <ele>1099.07669448853</ele>
        <time>2018-08-28T10:48:23Z</time>
      </trkpt>
      <trkpt lat="43.1320578838169" lon="-5.0053947139578">
        <ele>1096.94095230103</ele>
        <time>2018-08-28T10:48:25Z</time>
      </trkpt>
      <trkpt lat="43.1320137950062" lon="-5.00541868620087">
        <ele>1096.82510757446</ele>
        <time>2018-08-28T10:48:30Z</time>
      </trkpt>
      <trkpt lat="43.1319682393625" lon="-5.00542882830371">
        <ele>1101.0832862854</ele>
        <time>2018-08-28T10:48:40Z</time>
      </trkpt>
      <trkpt lat="43.1319244020089" lon="-5.00541139394511">
        <ele>1102.97745132446</ele>
        <time>2018-08-28T10:48:45Z</time>
      </trkpt>
      <trkpt lat="43.131878343451" lon="-5.00538021326531">
        <ele>1105.61612319946</ele>
        <time>2018-08-28T10:48:48Z</time>
      </trkpt>
      <trkpt lat="43.1318284711271" lon="-5.00535489991773">
        <ele>1108.24063491821</ele>
        <time>2018-08-28T10:48:51Z</time>
      </trkpt>
      <trkpt lat="43.1317844661354" lon="-5.00533528626431">
        <ele>1110.19827651978</ele>
        <time>2018-08-28T10:48:53Z</time>
      </trkpt>
      <trkpt lat="43.1317376532062" lon="-5.00532321632375">
        <ele>1111.66580581665</ele>
        <time>2018-08-28T10:48:55Z</time>
      </trkpt>
      <trkpt lat="43.1316879904299" lon="-5.0053170137154">
        <ele>1111.39749526978</ele>
        <time>2018-08-28T10:48:57Z</time>
      </trkpt>
      <trkpt lat="43.1316402135819" lon="-5.00530133955647">
        <ele>1111.8830909729</ele>
        <time>2018-08-28T10:48:59Z</time>
      </trkpt>
      <trkpt lat="43.1315949093952" lon="-5.00527904369403">
        <ele>1113.39542007446</ele>
        <time>2018-08-28T10:49:01Z</time>
      </trkpt>
      <trkpt lat="43.1315443246096" lon="-5.00526647083927">
        <ele>1114.39139175415</ele>
        <time>2018-08-28T10:49:03Z</time>
      </trkpt>
      <trkpt lat="43.1314946618333" lon="-5.0052636209922">
        <ele>1115.18667984009</ele>
        <time>2018-08-28T10:49:05Z</time>
      </trkpt>
      <trkpt lat="43.1314298278122" lon="-5.00525775365998">
        <ele>1114.9944190979</ele>
        <time>2018-08-28T10:49:08Z</time>
      </trkpt>
      <trkpt lat="43.1313744653418" lon="-5.00521165319253">
        <ele>1116.99100112915</ele>
        <time>2018-08-28T10:49:11Z</time>
      </trkpt>
      <trkpt lat="43.1313360343158" lon="-5.00514753163327">
        <ele>1118.30374526978</ele>
        <time>2018-08-28T10:49:14Z</time>
      </trkpt>
      <trkpt lat="43.1312985672086" lon="-5.00508684665431">
        <ele>1117.37784194946</ele>
        <time>2018-08-28T10:49:17Z</time>
      </trkpt>
      <trkpt lat="43.1312510418176" lon="-5.00505541451741">
        <ele>1118.16800308228</ele>
        <time>2018-08-28T10:49:20Z</time>
      </trkpt>
      <trkpt lat="43.1311947573378" lon="-5.00505415723194">
        <ele>1117.77200698853</ele>
        <time>2018-08-28T10:49:23Z</time>
      </trkpt>
      <trkpt lat="43.1311390595912" lon="-5.00507695600857">
        <ele>1118.95230484009</ele>
        <time>2018-08-28T10:49:26Z</time>
      </trkpt>
      <trkpt lat="43.1310739741131" lon="-5.00509003177751">
        <ele>1119.64444351196</ele>
        <time>2018-08-28T10:49:29Z</time>
      </trkpt>
      <trkpt lat="43.1310108164727" lon="-5.00508240424563">
        <ele>1121.04397964478</ele>
        <time>2018-08-28T10:49:32Z</time>
      </trkpt>
      <trkpt lat="43.1309456890851" lon="-5.00508005731274">
        <ele>1121.52310562134</ele>
        <time>2018-08-28T10:49:35Z</time>
      </trkpt>
      <trkpt lat="43.1308997143462" lon="-5.00508776866366">
        <ele>1120.56265640259</ele>
        <time>2018-08-28T10:49:38Z</time>
      </trkpt>
      <trkpt lat="43.130852985236" lon="-5.00508936122526">
        <ele>1119.36514663696</ele>
        <time>2018-08-28T10:49:41Z</time>
      </trkpt>
      <trkpt lat="43.1307982933178" lon="-5.00508466735948">
        <ele>1118.93619155884</ele>
        <time>2018-08-28T10:49:44Z</time>
      </trkpt>
      <trkpt lat="43.1307479180797" lon="-5.00508458354045">
        <ele>1116.70169448853</ele>
        <time>2018-08-28T10:49:48Z</time>
      </trkpt>
      <trkpt lat="43.1306991354033" lon="-5.00508869067301">
        <ele>1118.05936050415</ele>
        <time>2018-08-28T10:49:51Z</time>
      </trkpt>
      <trkpt lat="43.130646790418" lon="-5.00508827157785">
        <ele>1118.06216812134</ele>
        <time>2018-08-28T10:49:54Z</time>
      </trkpt>
      <trkpt lat="43.1306002708554" lon="-5.00508567318786">
        <ele>1118.84317398071</ele>
        <time>2018-08-28T10:49:57Z</time>
      </trkpt>
      <trkpt lat="43.1305376580387" lon="-5.0050836615311">
        <ele>1121.50650405884</ele>
        <time>2018-08-28T10:50:00Z</time>
      </trkpt>
      <trkpt lat="43.130485690239" lon="-5.00509413891007">
        <ele>1120.32803726196</ele>
        <time>2018-08-28T10:50:05Z</time>
      </trkpt>
      <trkpt lat="43.1304296572163" lon="-5.00512992963661">
        <ele>1121.75052261353</ele>
        <time>2018-08-28T10:50:10Z</time>
      </trkpt>
      <trkpt lat="43.130381209816" lon="-5.00516303815414">
        <ele>1124.61673355103</ele>
        <time>2018-08-28T10:50:14Z</time>
      </trkpt>
      <trkpt lat="43.1303407671332" lon="-5.00511375256349">
        <ele>1123.31546401978</ele>
        <time>2018-08-28T10:50:18Z</time>
      </trkpt>
      <trkpt lat="43.1302913139045" lon="-5.0050905346917">
        <ele>1120.90323257446</ele>
        <time>2018-08-28T10:50:22Z</time>
      </trkpt>
      <trkpt lat="43.1302377535432" lon="-5.00510662794579">
        <ele>1122.37320327759</ele>
        <time>2018-08-28T10:50:25Z</time>
      </trkpt>
      <trkpt lat="43.1301851571008" lon="-5.00511928461958">
        <ele>1123.30960464478</ele>
        <time>2018-08-28T10:50:28Z</time>
      </trkpt>
      <trkpt lat="43.1301352009579" lon="-5.00511115417351">
        <ele>1124.8459815979</ele>
        <time>2018-08-28T10:50:32Z</time>
      </trkpt>
      <trkpt lat="43.1300910702377" lon="-5.00509598292876">
        <ele>1124.49869155884</ele>
        <time>2018-08-28T10:50:37Z</time>
      </trkpt>
      <trkpt lat="43.1300425390183" lon="-5.00505935401191">
        <ele>1125.40298843384</ele>
        <time>2018-08-28T10:50:42Z</time>
      </trkpt>
      <trkpt lat="43.1300030602544" lon="-5.00502624549438">
        <ele>1125.90762710571</ele>
        <time>2018-08-28T10:50:46Z</time>
      </trkpt>
      <trkpt lat="43.1299578398868" lon="-5.00500244088937">
        <ele>1127.6409034729</ele>
        <time>2018-08-28T10:50:50Z</time>
      </trkpt>
      <trkpt lat="43.129912200424" lon="-5.0049766246276">
        <ele>1130.05240249634</ele>
        <time>2018-08-28T10:50:55Z</time>
      </trkpt>
      <trkpt lat="43.1298612384527" lon="-5.00497209839989">
        <ele>1131.77042007446</ele>
        <time>2018-08-28T10:50:59Z</time>
      </trkpt>
      <trkpt lat="43.1298080133676" lon="-5.00498299487401">
        <ele>1133.30752944946</ele>
        <time>2018-08-28T10:51:04Z</time>
      </trkpt>
      <trkpt lat="43.1297519803449" lon="-5.00500570983161">
        <ele>1134.29153823853</ele>
        <time>2018-08-28T10:51:08Z</time>
      </trkpt>
      <trkpt lat="43.1297052931442" lon="-5.00501769595314">
        <ele>1135.65518569946</ele>
        <time>2018-08-28T10:51:11Z</time>
      </trkpt>
      <trkpt lat="43.129655798006" lon="-5.0050218030857">
        <ele>1136.55728530884</ele>
        <time>2018-08-28T10:51:14Z</time>
      </trkpt>
      <trkpt lat="43.1295965379506" lon="-5.00500503927935">
        <ele>1137.47012710571</ele>
        <time>2018-08-28T10:51:18Z</time>
      </trkpt>
      <trkpt lat="43.1295466656267" lon="-5.0049993395852">
        <ele>1138.00931167603</ele>
        <time>2018-08-28T10:51:22Z</time>
      </trkpt>
      <trkpt lat="43.1295024510875" lon="-5.0049819052266">
        <ele>1138.6047706604</ele>
        <time>2018-08-28T10:51:26Z</time>
      </trkpt>
      <trkpt lat="43.1294501061022" lon="-5.004985593264">
        <ele>1139.76956558228</ele>
        <time>2018-08-28T10:51:31Z</time>
      </trkpt>
      <trkpt lat="43.1294014072447" lon="-5.00498048030306">
        <ele>1141.10208511353</ele>
        <time>2018-08-28T10:51:35Z</time>
      </trkpt>
      <trkpt lat="43.1293511158257" lon="-5.00498333015014">
        <ele>1142.24332046509</ele>
        <time>2018-08-28T10:51:40Z</time>
      </trkpt>
      <trkpt lat="43.1293048058107" lon="-5.00498291105498">
        <ele>1143.19583511353</ele>
        <time>2018-08-28T10:51:44Z</time>
      </trkpt>
      <trkpt lat="43.1292530056491" lon="-5.00497763045598">
        <ele>1144.75601577759</ele>
        <time>2018-08-28T10:51:48Z</time>
      </trkpt>
      <trkpt lat="43.1292097550287" lon="-5.00495743006934">
        <ele>1145.26248550415</ele>
        <time>2018-08-28T10:51:52Z</time>
      </trkpt>
      <trkpt lat="43.1291667139559" lon="-5.00493119471241">
        <ele>1146.55740737915</ele>
        <time>2018-08-28T10:51:57Z</time>
      </trkpt>
      <trkpt lat="43.12911788937" lon="-5.00491233543028">
        <ele>1147.23343276978</ele>
        <time>2018-08-28T10:52:01Z</time>
      </trkpt>
      <trkpt lat="43.1290670531272" lon="-5.00488408841659">
        <ele>1148.38187026978</ele>
        <time>2018-08-28T10:52:05Z</time>
      </trkpt>
      <trkpt lat="43.1290194439172" lon="-5.00487604178954">
        <ele>1149.91275405884</ele>
        <time>2018-08-28T10:52:09Z</time>
      </trkpt>
      <trkpt lat="43.1289635785326" lon="-5.00486665405799">
        <ele>1151.71146011353</ele>
        <time>2018-08-28T10:52:13Z</time>
      </trkpt>
      <trkpt lat="43.1289057434007" lon="-5.00486137345899">
        <ele>1152.55667495728</ele>
        <time>2018-08-28T10:52:18Z</time>
      </trkpt>
      <trkpt lat="43.1288503809302" lon="-5.00483740121592">
        <ele>1153.9963722229</ele>
        <time>2018-08-28T10:52:22Z</time>
      </trkpt>
      <trkpt lat="43.1288058730244" lon="-5.00481309369673">
        <ele>1155.49307632446</ele>
        <time>2018-08-28T10:52:26Z</time>
      </trkpt>
      <trkpt lat="43.1287640473276" lon="-5.00478216447402">
        <ele>1158.12210464478</ele>
        <time>2018-08-28T10:52:30Z</time>
      </trkpt>
      <trkpt lat="43.1287120795279" lon="-5.00476364046801">
        <ele>1159.89419937134</ele>
        <time>2018-08-28T10:52:35Z</time>
      </trkpt>
      <trkpt lat="43.1286639674037" lon="-5.0047524925368">
        <ele>1161.31131362915</ele>
        <time>2018-08-28T10:52:41Z</time>
      </trkpt>
      <trkpt lat="43.1286176573887" lon="-5.00473053195049">
        <ele>1163.19876480103</ele>
        <time>2018-08-28T10:52:45Z</time>
      </trkpt>
      <trkpt lat="43.128573568578" lon="-5.00470329076518">
        <ele>1164.1848487854</ele>
        <time>2018-08-28T10:52:49Z</time>
      </trkpt>
      <trkpt lat="43.1285283901199" lon="-5.00467646867503">
        <ele>1165.59195327759</ele>
        <time>2018-08-28T10:52:53Z</time>
      </trkpt>
      <trkpt lat="43.1284924736648" lon="-5.00462718308438">
        <ele>1167.64834976196</ele>
        <time>2018-08-28T10:52:59Z</time>
      </trkpt>
      <trkpt lat="43.128445451188" lon="-5.00459977426101">
        <ele>1168.86429214478</ele>
        <time>2018-08-28T10:53:04Z</time>
      </trkpt>
      <trkpt lat="43.1284071458905" lon="-5.0045659113722">
        <ele>1170.26834487915</ele>
        <time>2018-08-28T10:53:08Z</time>
      </trkpt>
      <trkpt lat="43.1283691339596" lon="-5.00453012064565">
        <ele>1171.03995132446</ele>
        <time>2018-08-28T10:53:12Z</time>
      </trkpt>
      <trkpt lat="43.128323913592" lon="-5.00451520085801">
        <ele>1172.59134292603</ele>
        <time>2018-08-28T10:53:16Z</time>
      </trkpt>
      <trkpt lat="43.1282756338298" lon="-5.00449106097687">
        <ele>1173.83157730103</ele>
        <time>2018-08-28T10:53:20Z</time>
      </trkpt>
      <trkpt lat="43.1282358616992" lon="-5.00446214341093">
        <ele>1174.48062515259</ele>
        <time>2018-08-28T10:53:24Z</time>
      </trkpt>
      <trkpt lat="43.1281873723894" lon="-5.00442249700893">
        <ele>1175.5618019104</ele>
        <time>2018-08-28T10:53:28Z</time>
      </trkpt>
      <trkpt lat="43.1281640706986" lon="-5.00436449423898">
        <ele>1176.21719741821</ele>
        <time>2018-08-28T10:53:31Z</time>
      </trkpt>
      <trkpt lat="43.1281608436658" lon="-5.0042929127859">
        <ele>1176.49173355103</ele>
        <time>2018-08-28T10:53:33Z</time>
      </trkpt>
      <trkpt lat="43.1281727459683" lon="-5.0041993707465">
        <ele>1176.70718765259</ele>
        <time>2018-08-28T10:53:35Z</time>
      </trkpt>
      <trkpt lat="43.1281967182114" lon="-5.00409166329075">
        <ele>1176.95901870728</ele>
        <time>2018-08-28T10:53:37Z</time>
      </trkpt>
      <trkpt lat="43.1282218220114" lon="-5.00398152508308">
        <ele>1177.10000991821</ele>
        <time>2018-08-28T10:53:39Z</time>
      </trkpt>
      <trkpt lat="43.1282377476274" lon="-5.00386199914385">
        <ele>1176.83877944946</ele>
        <time>2018-08-28T10:53:41Z</time>
      </trkpt>
      <trkpt lat="43.1282404298364" lon="-5.00379947014619">
        <ele>1177.74161148071</ele>
        <time>2018-08-28T10:53:42Z</time>
      </trkpt>
      <trkpt lat="43.1282409327506" lon="-5.00373777933885">
        <ele>1178.73025894165</ele>
        <time>2018-08-28T10:53:43Z</time>
      </trkpt>
      <trkpt lat="43.1281919824361" lon="-5.00360132195521">
        <ele>1179.54654312134</ele>
        <time>2018-08-28T10:53:45Z</time>
      </trkpt>
      <trkpt lat="43.1281728716969" lon="-5.00354248099495">
        <ele>1179.9719581604</ele>
        <time>2018-08-28T10:53:46Z</time>
      </trkpt>
      <trkpt lat="43.1281489413633" lon="-5.00345983542968">
        <ele>1180.56741714478</ele>
        <time>2018-08-28T10:53:48Z</time>
      </trkpt>
      <trkpt lat="43.1281193113356" lon="-5.00339018181432">
        <ele>1180.9211769104</ele>
        <time>2018-08-28T10:53:50Z</time>
      </trkpt>
      <trkpt lat="43.1280929502501" lon="-5.00332706608344">
        <ele>1181.40384292603</ele>
        <time>2018-08-28T10:53:52Z</time>
      </trkpt>
      <trkpt lat="43.1280654995173" lon="-5.00326420180965">
        <ele>1182.23184585571</ele>
        <time>2018-08-28T10:53:54Z</time>
      </trkpt>
      <trkpt lat="43.1280347798421" lon="-5.00321751460899">
        <ele>1182.45218276978</ele>
        <time>2018-08-28T10:53:56Z</time>
      </trkpt>
      <trkpt lat="43.1280046888097" lon="-5.00317007303704">
        <ele>1182.44498062134</ele>
        <time>2018-08-28T10:53:58Z</time>
      </trkpt>
      <trkpt lat="43.1279811356618" lon="-5.00311584212352">
        <ele>1183.24502944946</ele>
        <time>2018-08-28T10:54:00Z</time>
      </trkpt>
      <trkpt lat="43.1279541040241" lon="-5.00305884518195">
        <ele>1183.58389663696</ele>
        <time>2018-08-28T10:54:02Z</time>
      </trkpt>
      <trkpt lat="43.1279157149076" lon="-5.00299748965074">
        <ele>1183.39175796509</ele>
        <time>2018-08-28T10:54:04Z</time>
      </trkpt>
      <trkpt lat="43.127879756543" lon="-5.00293605030049">
        <ele>1184.44668960571</ele>
        <time>2018-08-28T10:54:06Z</time>
      </trkpt>
      <trkpt lat="43.1278452231019" lon="-5.00287670642603">
        <ele>1185.36661148071</ele>
        <time>2018-08-28T10:54:08Z</time>
      </trkpt>
      <trkpt lat="43.1278068339854" lon="-5.00283043832053">
        <ele>1185.15921401978</ele>
        <time>2018-08-28T10:54:10Z</time>
      </trkpt>
      <trkpt lat="43.1277664751216" lon="-5.00278475694824">
        <ele>1185.81912612915</ele>
        <time>2018-08-28T10:54:12Z</time>
      </trkpt>
      <trkpt lat="43.1277184468164" lon="-5.00271191820968">
        <ele>1186.59170913696</ele>
        <time>2018-08-28T10:54:15Z</time>
      </trkpt>
      <trkpt lat="43.1276774593099" lon="-5.00265760347713">
        <ele>1186.6438331604</ele>
        <time>2018-08-28T10:54:17Z</time>
      </trkpt>
      <trkpt lat="43.1276327418565" lon="-5.00261200592388">
        <ele>1185.55032730103</ele>
        <time>2018-08-28T10:54:19Z</time>
      </trkpt>
      <trkpt lat="43.1275861803844" lon="-5.00254880637396">
        <ele>1186.41409683228</ele>
        <time>2018-08-28T10:54:21Z</time>
      </trkpt>
      <trkpt lat="43.1275471207156" lon="-5.0024762190925">
        <ele>1186.69131851196</ele>
        <time>2018-08-28T10:54:23Z</time>
      </trkpt>
      <trkpt lat="43.1275185803353" lon="-5.00241000205744">
        <ele>1185.72830581665</ele>
        <time>2018-08-28T10:54:25Z</time>
      </trkpt>
      <trkpt lat="43.1275055883854" lon="-5.00233548693825">
        <ele>1185.3996925354</ele>
        <time>2018-08-28T10:54:27Z</time>
      </trkpt>
      <trkpt lat="43.1275064684852" lon="-5.00226985663641">
        <ele>1186.30667495728</ele>
        <time>2018-08-28T10:54:29Z</time>
      </trkpt>
      <trkpt lat="43.1275180774211" lon="-5.00217606313992">
        <ele>1188.94009780884</ele>
        <time>2018-08-28T10:54:32Z</time>
      </trkpt>
      <trkpt lat="43.1275522336765" lon="-5.0021083373623">
        <ele>1189.24454116821</ele>
        <time>2018-08-28T10:54:34Z</time>
      </trkpt>
      <trkpt lat="43.1276020221814" lon="-5.00203792937566">
        <ele>1190.45206069946</ele>
        <time>2018-08-28T10:54:36Z</time>
      </trkpt>
      <trkpt lat="43.1276596477657" lon="-5.00195243396331">
        <ele>1190.50967788696</ele>
        <time>2018-08-28T10:54:38Z</time>
      </trkpt>
      <trkpt lat="43.1277044071286" lon="-5.00185017474462">
        <ele>1189.61722183228</ele>
        <time>2018-08-28T10:54:40Z</time>
      </trkpt>
      <trkpt lat="43.1277131243079" lon="-5.00175839290489">
        <ele>1189.48831558228</ele>
        <time>2018-08-28T10:54:41Z</time>
      </trkpt>
      <trkpt lat="43.1277181534498" lon="-5.00169401988853">
        <ele>1190.2600440979</ele>
        <time>2018-08-28T10:54:42Z</time>
      </trkpt>
      <trkpt lat="43.1277227215871" lon="-5.00162880868185">
        <ele>1190.59671401978</ele>
        <time>2018-08-28T10:54:43Z</time>
      </trkpt>
      <trkpt lat="43.1276982883393" lon="-5.00155747868586">
        <ele>1190.58023452759</ele>
        <time>2018-08-28T10:54:44Z</time>
      </trkpt>
      <trkpt lat="43.12768437438" lon="-5.00149251893628">
        <ele>1190.64810562134</ele>
        <time>2018-08-28T10:54:45Z</time>
      </trkpt>
      <trkpt lat="43.1276739389106" lon="-5.00143116340507">
        <ele>1192.25015640259</ele>
        <time>2018-08-28T10:54:46Z</time>
      </trkpt>
      <trkpt lat="43.1276638387173" lon="-5.00134717673529">
        <ele>1193.55948257446</ele>
        <time>2018-08-28T10:54:48Z</time>
      </trkpt>
      <trkpt lat="43.1276751961961" lon="-5.00124399550725">
        <ele>1190.68765640259</ele>
        <time>2018-08-28T10:54:51Z</time>
      </trkpt>
      <trkpt lat="43.1276818178996" lon="-5.0011759344535">
        <ele>1189.23086929321</ele>
        <time>2018-08-28T10:54:53Z</time>
      </trkpt>
      <trkpt lat="43.127684290561" lon="-5.00109672546852">
        <ele>1189.27334976196</ele>
        <time>2018-08-28T10:54:55Z</time>
      </trkpt>
      <trkpt lat="43.1276866794034" lon="-5.00101508573163">
        <ele>1189.59622573853</ele>
        <time>2018-08-28T10:54:57Z</time>
      </trkpt>
      <trkpt lat="43.1276887748792" lon="-5.00094409101177">
        <ele>1188.47635269165</ele>
        <time>2018-08-28T10:54:59Z</time>
      </trkpt>
      <trkpt lat="43.1276994198962" lon="-5.00086613931228">
        <ele>1189.33780288696</ele>
        <time>2018-08-28T10:55:01Z</time>
      </trkpt>
      <trkpt lat="43.1277117832034" lon="-5.00078936107922">
        <ele>1188.57889175415</ele>
        <time>2018-08-28T10:55:03Z</time>
      </trkpt>
      <trkpt lat="43.1277374737366" lon="-5.00071182847489">
        <ele>1186.22330093384</ele>
        <time>2018-08-28T10:55:05Z</time>
      </trkpt>
      <trkpt lat="43.1277745217487" lon="-5.0006384030031">
        <ele>1185.15213394165</ele>
        <time>2018-08-28T10:55:07Z</time>
      </trkpt>
      <trkpt lat="43.127821586135" lon="-5.00057419762481">
        <ele>1184.22330093384</ele>
        <time>2018-08-28T10:55:09Z</time>
      </trkpt>
      <trkpt lat="43.1278646691173" lon="-5.00052583404351">
        <ele>1183.70950698853</ele>
        <time>2018-08-28T10:55:11Z</time>
      </trkpt>
      <trkpt lat="43.1278849533229" lon="-5.00044746324886">
        <ele>1185.07034683228</ele>
        <time>2018-08-28T10:55:14Z</time>
      </trkpt>
      <trkpt lat="43.1278814748331" lon="-5.00036439858843">
        <ele>1191.3635597229</ele>
        <time>2018-08-28T10:55:17Z</time>
      </trkpt>
      <trkpt lat="43.1279002502962" lon="-5.00030832365621">
        <ele>1190.38199234009</ele>
        <time>2018-08-28T10:55:20Z</time>
      </trkpt>
      <trkpt lat="43.127922001335" lon="-5.00025216490496">
        <ele>1191.52933120728</ele>
        <time>2018-08-28T10:55:23Z</time>
      </trkpt>
      <trkpt lat="43.1279529305577" lon="-5.00018150546122">
        <ele>1192.15567398071</ele>
        <time>2018-08-28T10:55:27Z</time>
      </trkpt>
      <trkpt lat="43.1279598456278" lon="-5.00010187738109">
        <ele>1193.3801612854</ele>
        <time>2018-08-28T10:55:31Z</time>
      </trkpt>
      <trkpt lat="43.1279363343894" lon="-5.00003130175639">
        <ele>1194.51309585571</ele>
        <time>2018-08-28T10:55:34Z</time>
      </trkpt>
      <trkpt lat="43.1278887670889" lon="-4.99998863786925">
        <ele>1193.55191421509</ele>
        <time>2018-08-28T10:55:37Z</time>
      </trkpt>
      <trkpt lat="43.1278430857166" lon="-4.99997137114871">
        <ele>1195.90970230103</ele>
        <time>2018-08-28T10:55:39Z</time>
      </trkpt>
      <trkpt lat="43.1277933391213" lon="-4.99994890764821">
        <ele>1197.66519546509</ele>
        <time>2018-08-28T10:55:41Z</time>
      </trkpt>
      <trkpt lat="43.1277620327129" lon="-4.99990331009496">
        <ele>1196.95914077759</ele>
        <time>2018-08-28T10:55:44Z</time>
      </trkpt>
      <trkpt lat="43.1277514715149" lon="-4.99983474612702">
        <ele>1196.93326187134</ele>
        <time>2018-08-28T10:56:31Z</time>
      </trkpt>
      <trkpt lat="43.1277275830909" lon="-4.99977808446158">
        <ele>1198.10025405884</ele>
        <time>2018-08-28T10:56:34Z</time>
      </trkpt>
      <trkpt lat="43.1276930077403" lon="-4.99971647747327">
        <ele>1198.87674331665</ele>
        <time>2018-08-28T10:56:37Z</time>
      </trkpt>
      <trkpt lat="43.1276705023303" lon="-4.99964154325891">
        <ele>1201.0627784729</ele>
        <time>2018-08-28T10:56:41Z</time>
      </trkpt>
      <trkpt lat="43.1276478711917" lon="-4.99958379194606">
        <ele>1202.61490249634</ele>
        <time>2018-08-28T10:56:44Z</time>
      </trkpt>
      <trkpt lat="43.1276186183497" lon="-4.99953039922286">
        <ele>1203.81827163696</ele>
        <time>2018-08-28T10:56:47Z</time>
      </trkpt>
      <trkpt lat="43.1275929278164" lon="-4.99947491102386">
        <ele>1204.59610366821</ele>
        <time>2018-08-28T10:56:50Z</time>
      </trkpt>
      <trkpt lat="43.1275700871303" lon="-4.99942026101518">
        <ele>1206.84170913696</ele>
        <time>2018-08-28T10:56:53Z</time>
      </trkpt>
      <trkpt lat="43.1275542034238" lon="-4.99935504980851">
        <ele>1207.87076187134</ele>
        <time>2018-08-28T10:56:57Z</time>
      </trkpt>
      <trkpt lat="43.1275400799169" lon="-4.99928263016511">
        <ele>1208.40225601196</ele>
        <time>2018-08-28T10:57:01Z</time>
      </trkpt>
      <trkpt lat="43.1275206758111" lon="-4.99922202900518">
        <ele>1209.08243179321</ele>
        <time>2018-08-28T10:57:04Z</time>
      </trkpt>
      <trkpt lat="43.1275105337083" lon="-4.99914533459116">
        <ele>1209.86661148071</ele>
        <time>2018-08-28T10:57:07Z</time>
      </trkpt>
      <trkpt lat="43.1275067199423" lon="-4.99906604178715">
        <ele>1210.47146987915</ele>
        <time>2018-08-28T10:57:10Z</time>
      </trkpt>
      <trkpt lat="43.1275061332091" lon="-4.9989771097945">
        <ele>1210.34317398071</ele>
        <time>2018-08-28T10:57:13Z</time>
      </trkpt>
      <trkpt lat="43.1275073904946" lon="-4.99889748171437">
        <ele>1211.66006851196</ele>
        <time>2018-08-28T10:57:16Z</time>
      </trkpt>
      <trkpt lat="43.1275130063697" lon="-4.99881944619585">
        <ele>1211.98257827759</ele>
        <time>2018-08-28T10:57:19Z</time>
      </trkpt>
      <trkpt lat="43.1275261659577" lon="-4.99875574373174">
        <ele>1211.91702651978</ele>
        <time>2018-08-28T10:57:22Z</time>
      </trkpt>
      <trkpt lat="43.127544228959" lon="-4.99868650921155">
        <ele>1210.94546890259</ele>
        <time>2018-08-28T10:57:26Z</time>
      </trkpt>
      <trkpt lat="43.1275537843286" lon="-4.99861769378651">
        <ele>1210.80740737915</ele>
        <time>2018-08-28T10:57:29Z</time>
      </trkpt>
      <trkpt lat="43.127567949745" lon="-4.99854787253309">
        <ele>1209.34451675415</ele>
        <time>2018-08-28T10:57:32Z</time>
      </trkpt>
      <trkpt lat="43.1275896169647" lon="-4.99847746454645">
        <ele>1204.9768409729</ele>
        <time>2018-08-28T10:57:35Z</time>
      </trkpt>
      <trkpt lat="43.1276237732201" lon="-4.99840085395146">
        <ele>1204.8547706604</ele>
        <time>2018-08-28T10:57:38Z</time>
      </trkpt>
      <trkpt lat="43.1276581390231" lon="-4.99834788032342">
        <ele>1204.50137710571</ele>
        <time>2018-08-28T10:57:40Z</time>
      </trkpt>
      <trkpt lat="43.1276917504548" lon="-4.99829767272342">
        <ele>1204.23135757446</ele>
        <time>2018-08-28T10:57:42Z</time>
      </trkpt>
      <trkpt lat="43.127722553949" lon="-4.99823120423127">
        <ele>1205.2024269104</ele>
        <time>2018-08-28T10:57:44Z</time>
      </trkpt>
      <trkpt lat="43.1277430057927" lon="-4.99816691503394">
        <ele>1207.06448745728</ele>
        <time>2018-08-28T10:57:46Z</time>
      </trkpt>
      <trkpt lat="43.1277656369313" lon="-4.99810664915014">
        <ele>1207.62857437134</ele>
        <time>2018-08-28T10:57:48Z</time>
      </trkpt>
      <trkpt lat="43.1277735997393" lon="-4.99804437160957">
        <ele>1208.91861343384</ele>
        <time>2018-08-28T10:57:50Z</time>
      </trkpt>
      <trkpt lat="43.1277666846692" lon="-4.99798125587869">
        <ele>1210.6809425354</ele>
        <time>2018-08-28T10:57:52Z</time>
      </trkpt>
      <trkpt lat="43.1277406169503" lon="-4.99791990034748">
        <ele>1211.47439956665</ele>
        <time>2018-08-28T10:57:54Z</time>
      </trkpt>
      <trkpt lat="43.1277060415997" lon="-4.99787522480357">
        <ele>1212.38101577759</ele>
        <time>2018-08-28T10:57:56Z</time>
      </trkpt>
      <trkpt lat="43.1276718853443" lon="-4.99781655148137">
        <ele>1214.42850112915</ele>
        <time>2018-08-28T10:57:59Z</time>
      </trkpt>
      <trkpt lat="43.1276523974194" lon="-4.9977391865151">
        <ele>1215.47757339478</ele>
        <time>2018-08-28T10:58:02Z</time>
      </trkpt>
      <trkpt lat="43.1276569655567" lon="-4.99767280184198">
        <ele>1215.85013198853</ele>
        <time>2018-08-28T10:58:04Z</time>
      </trkpt>
      <trkpt lat="43.1276759505674" lon="-4.99759610742796">
        <ele>1214.85318374634</ele>
        <time>2018-08-28T10:58:06Z</time>
      </trkpt>
      <trkpt lat="43.1276954804017" lon="-4.99751362950075">
        <ele>1213.61197280884</ele>
        <time>2018-08-28T10:58:08Z</time>
      </trkpt>
      <trkpt lat="43.1277186982735" lon="-4.99741849489975">
        <ele>1212.48306655884</ele>
        <time>2018-08-28T10:58:10Z</time>
      </trkpt>
      <trkpt lat="43.1277293432906" lon="-4.99731229618657">
        <ele>1213.1594581604</ele>
        <time>2018-08-28T10:58:12Z</time>
      </trkpt>
      <trkpt lat="43.1277177762642" lon="-4.99721632339526">
        <ele>1214.16836929321</ele>
        <time>2018-08-28T10:58:14Z</time>
      </trkpt>
      <trkpt lat="43.1276864698558" lon="-4.99714725651312">
        <ele>1214.54080581665</ele>
        <time>2018-08-28T10:58:16Z</time>
      </trkpt>
      <trkpt lat="43.1276501343056" lon="-4.99709587544668">
        <ele>1215.08780288696</ele>
        <time>2018-08-28T10:58:18Z</time>
      </trkpt>
      <trkpt lat="43.1276087696134" lon="-4.99705296010244">
        <ele>1215.61697769165</ele>
        <time>2018-08-28T10:58:20Z</time>
      </trkpt>
      <trkpt lat="43.1275473721727" lon="-4.99701473862398">
        <ele>1218.46207046509</ele>
        <time>2018-08-28T10:58:23Z</time>
      </trkpt>
      <trkpt lat="43.127496703568" lon="-4.99697458930779">
        <ele>1220.49356460571</ele>
        <time>2018-08-28T10:58:26Z</time>
      </trkpt>
      <trkpt lat="43.1274500163674" lon="-4.99694030732382">
        <ele>1222.82168960571</ele>
        <time>2018-08-28T10:58:29Z</time>
      </trkpt>
      <trkpt lat="43.1274103280559" lon="-4.99688632786739">
        <ele>1223.84439468384</ele>
        <time>2018-08-28T10:58:32Z</time>
      </trkpt>
      <trkpt lat="43.1273915945023" lon="-4.99678825960029">
        <ele>1225.12381362915</ele>
        <time>2018-08-28T10:58:35Z</time>
      </trkpt>
      <trkpt lat="43.1273815362185" lon="-4.9967026803689">
        <ele>1225.21841812134</ele>
        <time>2018-08-28T10:58:37Z</time>
      </trkpt>
      <trkpt lat="43.1273669936165" lon="-4.99662003480363">
        <ele>1224.66971206665</ele>
        <time>2018-08-28T10:58:39Z</time>
      </trkpt>
      <trkpt lat="43.1273823324993" lon="-4.9965060409205">
        <ele>1223.45267105103</ele>
        <time>2018-08-28T10:58:40Z</time>
      </trkpt>
      <trkpt lat="43.1274199672445" lon="-4.99643923715222">
        <ele>1221.5578956604</ele>
        <time>2018-08-28T10:58:41Z</time>
      </trkpt>
      <trkpt lat="43.127431785728" lon="-4.9963506404357">
        <ele>1218.71817398071</ele>
        <time>2018-08-28T10:58:42Z</time>
      </trkpt>
      <trkpt lat="43.1274308637186" lon="-4.99628274702001">
        <ele>1218.02090835571</ele>
        <time>2018-08-28T10:58:43Z</time>
      </trkpt>
      <trkpt lat="43.1274360185891" lon="-4.99620018527377">
        <ele>1216.89505386353</ele>
        <time>2018-08-28T10:58:44Z</time>
      </trkpt>
      <trkpt lat="43.1274637207791" lon="-4.9961260054307">
        <ele>1217.42520523071</ele>
        <time>2018-08-28T10:58:45Z</time>
      </trkpt>
      <trkpt lat="43.1274803588569" lon="-4.99606272206176">
        <ele>1216.9670753479</ele>
        <time>2018-08-28T10:58:46Z</time>
      </trkpt>
      <trkpt lat="43.1275024032622" lon="-4.99600228853989">
        <ele>1216.86978530884</ele>
        <time>2018-08-28T10:58:47Z</time>
      </trkpt>
      <trkpt lat="43.1275302311807" lon="-4.9959412682848">
        <ele>1215.88418960571</ele>
        <time>2018-08-28T10:58:48Z</time>
      </trkpt>
      <trkpt lat="43.1275584362849" lon="-4.9958828464197">
        <ele>1216.17581558228</ele>
        <time>2018-08-28T10:58:49Z</time>
      </trkpt>
      <trkpt lat="43.1275901198789" lon="-4.99581310898531">
        <ele>1216.48733901978</ele>
        <time>2018-08-28T10:58:50Z</time>
      </trkpt>
      <trkpt lat="43.12761945654" lon="-4.99572132714558">
        <ele>1216.94717788696</ele>
        <time>2018-08-28T10:58:52Z</time>
      </trkpt>
      <trkpt lat="43.1276931753784" lon="-4.99566776678431">
        <ele>1218.6506690979</ele>
        <time>2018-08-28T10:58:54Z</time>
      </trkpt>
      <trkpt lat="43.1277551176428" lon="-4.99562744983006">
        <ele>1217.8889503479</ele>
        <time>2018-08-28T10:58:56Z</time>
      </trkpt>
      <trkpt lat="43.1277803052618" lon="-4.99557095580268">
        <ele>1224.86148452759</ele>
        <time>2018-08-28T10:59:01Z</time>
      </trkpt>
      <trkpt lat="43.127780640538" lon="-4.99550909735728">
        <ele>1224.40030288696</ele>
        <time>2018-08-28T10:59:07Z</time>
      </trkpt>
      <trkpt lat="43.1277758628532" lon="-4.99544329941738">
        <ele>1226.94607925415</ele>
        <time>2018-08-28T10:59:11Z</time>
      </trkpt>
      <trkpt lat="43.1277636252745" lon="-4.99537314288783">
        <ele>1224.98904800415</ele>
        <time>2018-08-28T10:59:15Z</time>
      </trkpt>
      <trkpt lat="43.1277536927193" lon="-4.99530508183408">
        <ele>1226.99649429321</ele>
        <time>2018-08-28T10:59:18Z</time>
      </trkpt>
      <trkpt lat="43.127714758779" lon="-4.99523492530454">
        <ele>1230.08792495728</ele>
        <time>2018-08-28T10:59:22Z</time>
      </trkpt>
      <trkpt lat="43.1276941392972" lon="-4.99516577460337">
        <ele>1226.95914077759</ele>
        <time>2018-08-28T10:59:26Z</time>
      </trkpt>
      <trkpt lat="43.127705329138" lon="-4.99507742934394">
        <ele>1224.88626480103</ele>
        <time>2018-08-28T10:59:30Z</time>
      </trkpt>
      <trkpt lat="43.1277134595841" lon="-4.99500249512959">
        <ele>1224.9504737854</ele>
        <time>2018-08-28T10:59:33Z</time>
      </trkpt>
      <trkpt lat="43.127681524533" lon="-4.99495304190088">
        <ele>1225.21854019165</ele>
        <time>2018-08-28T10:59:36Z</time>
      </trkpt>
      <trkpt lat="43.1276455242588" lon="-4.99491264112759">
        <ele>1226.44327163696</ele>
        <time>2018-08-28T10:59:45Z</time>
      </trkpt>
      <trkpt lat="43.1276498828485" lon="-4.99485036358702">
        <ele>1229.5500831604</ele>
        <time>2018-08-28T10:59:52Z</time>
      </trkpt>
      <trkpt lat="43.1276381481841" lon="-4.99478909187484">
        <ele>1231.22916030884</ele>
        <time>2018-08-28T10:59:58Z</time>
      </trkpt>
      <trkpt lat="43.1276484998345" lon="-4.99472907744813">
        <ele>1233.24905776978</ele>
        <time>2018-08-28T11:00:03Z</time>
      </trkpt>
      <trkpt lat="43.1276687002211" lon="-4.99467208050657">
        <ele>1234.27603530884</ele>
        <time>2018-08-28T11:00:10Z</time>
      </trkpt>
      <trkpt lat="43.1276693707734" lon="-4.99460100196767">
        <ele>1236.85501480103</ele>
        <time>2018-08-28T11:00:23Z</time>
      </trkpt>
      <trkpt lat="43.1276764534815" lon="-4.99452967197168">
        <ele>1239.12833023071</ele>
        <time>2018-08-28T11:00:27Z</time>
      </trkpt>
      <trkpt lat="43.1276990427106" lon="-4.9944628682034">
        <ele>1238.90298843384</ele>
        <time>2018-08-28T11:00:31Z</time>
      </trkpt>
      <trkpt lat="43.1277084304421" lon="-4.99439807609189">
        <ele>1236.16250991821</ele>
        <time>2018-08-28T11:00:36Z</time>
      </trkpt>
      <trkpt lat="43.1277371384605" lon="-4.99433328398037">
        <ele>1236.52933120728</ele>
        <time>2018-08-28T11:00:41Z</time>
      </trkpt>
      <trkpt lat="43.1277478253871" lon="-4.99426798895467">
        <ele>1236.30130386353</ele>
        <time>2018-08-28T11:00:44Z</time>
      </trkpt>
      <trkpt lat="43.1277418323263" lon="-4.99419313855934">
        <ele>1237.82437515259</ele>
        <time>2018-08-28T11:00:48Z</time>
      </trkpt>
      <trkpt lat="43.1277407007694" lon="-4.99412365258205">
        <ele>1239.6379737854</ele>
        <time>2018-08-28T11:00:52Z</time>
      </trkpt>
      <trkpt lat="43.1277565006568" lon="-4.994057435547">
        <ele>1240.8371925354</ele>
        <time>2018-08-28T11:00:57Z</time>
      </trkpt>
      <trkpt lat="43.127763583365" lon="-4.99398836866486">
        <ele>1241.7981300354</ele>
        <time>2018-08-28T11:01:01Z</time>
      </trkpt>
      <trkpt lat="43.1277882261603" lon="-4.99392894097138">
        <ele>1242.19339370728</ele>
        <time>2018-08-28T11:01:05Z</time>
      </trkpt>
      <trkpt lat="43.1278007151961" lon="-4.99386917800176">
        <ele>1244.08853530884</ele>
        <time>2018-08-28T11:01:11Z</time>
      </trkpt>
      <trkpt lat="43.1278064567997" lon="-4.99379491433966">
        <ele>1246.12759780884</ele>
        <time>2018-08-28T11:01:26Z</time>
      </trkpt>
      <trkpt lat="43.1278259447246" lon="-4.99372249469626">
        <ele>1248.55386734009</ele>
        <time>2018-08-28T11:01:30Z</time>
      </trkpt>
      <trkpt lat="43.127849539782" lon="-4.99365627766121">
        <ele>1249.14920425415</ele>
        <time>2018-08-28T11:01:34Z</time>
      </trkpt>
      <trkpt lat="43.1278800080001" lon="-4.9935928266542">
        <ele>1249.3342628479</ele>
        <time>2018-08-28T11:01:38Z</time>
      </trkpt>
      <trkpt lat="43.1279028486862" lon="-4.9935323093133">
        <ele>1250.69986343384</ele>
        <time>2018-08-28T11:01:42Z</time>
      </trkpt>
      <trkpt lat="43.127934113185" lon="-4.99348419718909">
        <ele>1251.48904800415</ele>
        <time>2018-08-28T11:01:52Z</time>
      </trkpt>
      <trkpt lat="43.127968395169" lon="-4.9934197403537">
        <ele>1251.94595718384</ele>
        <time>2018-08-28T11:01:56Z</time>
      </trkpt>
      <trkpt lat="43.1279938761547" lon="-4.99336207285988">
        <ele>1252.33279800415</ele>
        <time>2018-08-28T11:02:00Z</time>
      </trkpt>
      <trkpt lat="43.128004060167" lon="-4.99329283833969">
        <ele>1253.42630386353</ele>
        <time>2018-08-28T11:02:04Z</time>
      </trkpt>
      <trkpt lat="43.1280084606662" lon="-4.99322025105822">
        <ele>1253.87027359009</ele>
        <time>2018-08-28T11:02:07Z</time>
      </trkpt>
      <trkpt lat="43.1280137412652" lon="-4.99315889552701">
        <ele>1254.7961769104</ele>
        <time>2018-08-28T11:02:10Z</time>
      </trkpt>
      <trkpt lat="43.1280191475927" lon="-4.99309292994905">
        <ele>1255.23318862915</ele>
        <time>2018-08-28T11:02:13Z</time>
      </trkpt>
      <trkpt lat="43.1280311337143" lon="-4.99302914366591">
        <ele>1255.70059585571</ele>
        <time>2018-08-28T11:02:17Z</time>
      </trkpt>
      <trkpt lat="43.128042491193" lon="-4.99296518974471">
        <ele>1256.6692237854</ele>
        <time>2018-08-28T11:02:21Z</time>
      </trkpt>
      <trkpt lat="43.1280570337951" lon="-4.99289989471901">
        <ele>1256.60123062134</ele>
        <time>2018-08-28T11:02:24Z</time>
      </trkpt>
      <trkpt lat="43.128067511174" lon="-4.99283040874171">
        <ele>1254.81045913696</ele>
        <time>2018-08-28T11:02:28Z</time>
      </trkpt>
      <trkpt lat="43.1280898070365" lon="-4.99277508818078">
        <ele>1255.13577651978</ele>
        <time>2018-08-28T11:02:32Z</time>
      </trkpt>
      <trkpt lat="43.1280996557727" lon="-4.99271331355441">
        <ele>1255.51712417603</ele>
        <time>2018-08-28T11:02:35Z</time>
      </trkpt>
      <trkpt lat="43.1281077443092" lon="-4.99263645150232">
        <ele>1255.97745132446</ele>
        <time>2018-08-28T11:02:40Z</time>
      </trkpt>
      <trkpt lat="43.1281265616819" lon="-4.99257098883855">
        <ele>1257.02310562134</ele>
        <time>2018-08-28T11:02:44Z</time>
      </trkpt>
      <trkpt lat="43.1281517073914" lon="-4.99251742847729">
        <ele>1260.36758804321</ele>
        <time>2018-08-28T11:02:48Z</time>
      </trkpt>
      <trkpt lat="43.128185067366" lon="-4.99247610569465">
        <ele>1262.00442886353</ele>
        <time>2018-08-28T11:02:51Z</time>
      </trkpt>
      <trkpt lat="43.1282334309473" lon="-4.99242757447529">
        <ele>1262.98770523071</ele>
        <time>2018-08-28T11:02:55Z</time>
      </trkpt>
      <trkpt lat="43.1282808306097" lon="-4.99239161611068">
        <ele>1262.8469581604</ele>
        <time>2018-08-28T11:02:58Z</time>
      </trkpt>
      <trkpt lat="43.1283348100662" lon="-4.99236714095342">
        <ele>1263.1682472229</ele>
        <time>2018-08-28T11:03:01Z</time>
      </trkpt>
      <trkpt lat="43.1283759652107" lon="-4.99233922921586">
        <ele>1263.29690933228</ele>
        <time>2018-08-28T11:03:04Z</time>
      </trkpt>
      <trkpt lat="43.128411001566" lon="-4.99229639769065">
        <ele>1263.60879898071</ele>
        <time>2018-08-28T11:03:07Z</time>
      </trkpt>
      <trkpt lat="43.1284361472755" lon="-4.99223814346361">
        <ele>1264.73624038696</ele>
        <time>2018-08-28T11:03:10Z</time>
      </trkpt>
      <trkpt lat="43.1284538750007" lon="-4.99218097888398">
        <ele>1265.26663589478</ele>
        <time>2018-08-28T11:03:13Z</time>
      </trkpt>
      <trkpt lat="43.1284775538772" lon="-4.99210059643257">
        <ele>1266.95157241821</ele>
        <time>2018-08-28T11:03:21Z</time>
      </trkpt>
      <trkpt lat="43.1285024062201" lon="-4.99204527587163">
        <ele>1268.1545753479</ele>
        <time>2018-08-28T11:03:24Z</time>
      </trkpt>
      <trkpt lat="43.1285226485162" lon="-4.99197956175077">
        <ele>1268.80606460571</ele>
        <time>2018-08-28T11:03:28Z</time>
      </trkpt>
      <trkpt lat="43.1285190023884" lon="-4.99190622009802">
        <ele>1271.05960464478</ele>
        <time>2018-08-28T11:03:33Z</time>
      </trkpt>
      <trkpt lat="43.1284947786882" lon="-4.99185374938416">
        <ele>1273.17520523071</ele>
        <time>2018-08-28T11:04:09Z</time>
      </trkpt>
      <trkpt lat="43.1284725666448" lon="-4.99178485014009">
        <ele>1273.57950210571</ele>
        <time>2018-08-28T11:04:12Z</time>
      </trkpt>
      <trkpt lat="43.1284404220461" lon="-4.99173296615946">
        <ele>1273.9280128479</ele>
        <time>2018-08-28T11:04:15Z</time>
      </trkpt>
      <trkpt lat="43.1284128874942" lon="-4.99167446047533">
        <ele>1275.91214370728</ele>
        <time>2018-08-28T11:04:19Z</time>
      </trkpt>
      <trkpt lat="43.1284223171353" lon="-4.99160245992708">
        <ele>1274.96426773071</ele>
        <time>2018-08-28T11:04:22Z</time>
      </trkpt>
      <trkpt lat="43.1284434395313" lon="-4.99154110439587">
        <ele>1273.8000831604</ele>
        <time>2018-08-28T11:04:25Z</time>
      </trkpt>
      <trkpt lat="43.1284723570972" lon="-4.99147396535146">
        <ele>1274.7883644104</ele>
        <time>2018-08-28T11:04:28Z</time>
      </trkpt>
      <trkpt lat="43.1284731114685" lon="-4.9914027191745">
        <ele>1275.0842628479</ele>
        <time>2018-08-28T11:04:32Z</time>
      </trkpt>
      <trkpt lat="43.1284596166044" lon="-4.99134262092876">
        <ele>1276.61441421509</ele>
        <time>2018-08-28T11:05:47Z</time>
      </trkpt>
      <trkpt lat="43.1284623826324" lon="-4.99127464369404">
        <ele>1282.38606262207</ele>
        <time>2018-08-28T11:05:53Z</time>
      </trkpt>
      <trkpt lat="43.1284517795249" lon="-4.99120750464964">
        <ele>1284.72724914551</ele>
        <time>2018-08-28T11:05:58Z</time>
      </trkpt>
      <trkpt lat="43.1284504384204" lon="-4.99113583937752">
        <ele>1283.84077453613</ele>
        <time>2018-08-28T11:06:05Z</time>
      </trkpt>
      <trkpt lat="43.1284440262645" lon="-4.99106274918187">
        <ele>1283.86701965332</ele>
        <time>2018-08-28T11:06:10Z</time>
      </trkpt>
      <trkpt lat="43.128418964374" lon="-4.99100994319188">
        <ele>1284.82649230957</ele>
        <time>2018-08-28T11:06:14Z</time>
      </trkpt>
      <trkpt lat="43.1283889152511" lon="-4.99096225016284">
        <ele>1286.38056945801</ele>
        <time>2018-08-28T11:06:20Z</time>
      </trkpt>
      <trkpt lat="43.1283694273263" lon="-4.99089234509039">
        <ele>1287.12983703613</ele>
        <time>2018-08-28T11:06:25Z</time>
      </trkpt>
      <trkpt lat="43.1283474248304" lon="-4.99082520604598">
        <ele>1288.72456359863</ele>
        <time>2018-08-28T11:06:29Z</time>
      </trkpt>
      <trkpt lat="43.1283144001319" lon="-4.99077835120725">
        <ele>1289.12776184082</ele>
        <time>2018-08-28T11:06:33Z</time>
      </trkpt>
      <trkpt lat="43.1282885000511" lon="-4.99072194099891">
        <ele>1291.32722473145</ele>
        <time>2018-08-28T11:06:38Z</time>
      </trkpt>
      <trkpt lat="43.1282531284198" lon="-4.99067533761728">
        <ele>1294.19136047363</ele>
        <time>2018-08-28T11:06:44Z</time>
      </trkpt>
      <trkpt lat="43.1282313354715" lon="-4.99061482027638">
        <ele>1295.2808380127</ele>
        <time>2018-08-28T11:06:52Z</time>
      </trkpt>
      <trkpt lat="43.1282298267289" lon="-4.99054399319458">
        <ele>1297.18391418457</ele>
        <time>2018-08-28T11:07:00Z</time>
      </trkpt>
      <trkpt lat="43.1282385019987" lon="-4.99048029073048">
        <ele>1301.53437805176</ele>
        <time>2018-08-28T11:07:09Z</time>
      </trkpt>
      <trkpt lat="43.1282344367757" lon="-4.99041482806671">
        <ele>1303.83174133301</ele>
        <time>2018-08-28T11:07:17Z</time>
      </trkpt>
      <trkpt lat="43.1282372866228" lon="-4.99034718610811">
        <ele>1303.60786437988</ele>
        <time>2018-08-28T11:07:22Z</time>
      </trkpt>
      <trkpt lat="43.1282421900361" lon="-4.99028256163466">
        <ele>1304.59736633301</ele>
        <time>2018-08-28T11:07:27Z</time>
      </trkpt>
      <trkpt lat="43.1282354006945" lon="-4.99020997435319">
        <ele>1305.71467590332</ele>
        <time>2018-08-28T11:07:32Z</time>
      </trkpt>
      <trkpt lat="43.12821155418" lon="-4.99015012756455">
        <ele>1307.89009094238</ele>
        <time>2018-08-28T11:07:38Z</time>
      </trkpt>
      <trkpt lat="43.1281913957029" lon="-4.99009321444201">
        <ele>1309.22590637207</ele>
        <time>2018-08-28T11:07:43Z</time>
      </trkpt>
      <trkpt lat="43.1281828042521" lon="-4.9900263268547">
        <ele>1310.68672180176</ele>
        <time>2018-08-28T11:07:50Z</time>
      </trkpt>
      <trkpt lat="43.1281918567076" lon="-4.98994762078392">
        <ele>1310.08100891113</ele>
        <time>2018-08-28T11:08:02Z</time>
      </trkpt>
      <trkpt lat="43.1281810440525" lon="-4.98987813480663">
        <ele>1310.24153137207</ele>
        <time>2018-08-28T11:08:06Z</time>
      </trkpt>
      <trkpt lat="43.1282056449383" lon="-4.98980797827708">
        <ele>1310.39558410645</ele>
        <time>2018-08-28T11:08:11Z</time>
      </trkpt>
      <trkpt lat="43.1282403041079" lon="-4.98974880204069">
        <ele>1311.87422180176</ele>
        <time>2018-08-28T11:08:16Z</time>
      </trkpt>
      <trkpt lat="43.1282449560642" lon="-4.98967688531148">
        <ele>1311.64045715332</ele>
        <time>2018-08-28T11:08:20Z</time>
      </trkpt>
      <trkpt lat="43.1282688444882" lon="-4.98962357640731">
        <ele>1311.96015930176</ele>
        <time>2018-08-28T11:08:24Z</time>
      </trkpt>
      <trkpt lat="43.1282863207563" lon="-4.98955182731616">
        <ele>1312.64533996582</ele>
        <time>2018-08-28T11:08:29Z</time>
      </trkpt>
      <trkpt lat="43.1282823393523" lon="-4.9894758034544">
        <ele>1314.08955383301</ele>
        <time>2018-08-28T11:08:33Z</time>
      </trkpt>
      <trkpt lat="43.1282609654992" lon="-4.98941101134288">
        <ele>1314.59004211426</ele>
        <time>2018-08-28T11:08:37Z</time>
      </trkpt>
      <trkpt lat="43.1282126019179" lon="-4.98937899247277">
        <ele>1315.53388977051</ele>
        <time>2018-08-28T11:08:42Z</time>
      </trkpt>
      <trkpt lat="43.128159963566" lon="-4.98938553035724">
        <ele>1315.70149230957</ele>
        <time>2018-08-28T11:08:47Z</time>
      </trkpt>
      <trkpt lat="43.1281122286274" lon="-4.98940112069714">
        <ele>1318.3404083252</ele>
        <time>2018-08-28T11:08:54Z</time>
      </trkpt>
      <trkpt lat="43.1280627334892" lon="-4.98941277154255">
        <ele>1319.40156555176</ele>
        <time>2018-08-28T11:08:59Z</time>
      </trkpt>
      <trkpt lat="43.1280195247784" lon="-4.98939148150849">
        <ele>1320.43232727051</ele>
        <time>2018-08-28T11:09:03Z</time>
      </trkpt>
      <trkpt lat="43.1279684370785" lon="-4.98936608434188">
        <ele>1321.61848449707</ele>
        <time>2018-08-28T11:09:07Z</time>
      </trkpt>
      <trkpt lat="43.1279270304769" lon="-4.98931285925674">
        <ele>1322.57527160645</ele>
        <time>2018-08-28T11:09:11Z</time>
      </trkpt>
      <trkpt lat="43.1278848695039" lon="-4.98926893808412">
        <ele>1322.71589660645</ele>
        <time>2018-08-28T11:09:14Z</time>
      </trkpt>
      <trkpt lat="43.1278424989834" lon="-4.98922426254022">
        <ele>1323.65888977051</ele>
        <time>2018-08-28T11:09:18Z</time>
      </trkpt>
      <trkpt lat="43.1278090970992" lon="-4.98916667886543">
        <ele>1325.25508117676</ele>
        <time>2018-08-28T11:09:23Z</time>
      </trkpt>
      <trkpt lat="43.1277957698732" lon="-4.98909409158396">
        <ele>1326.8521270752</ele>
        <time>2018-08-28T11:09:27Z</time>
      </trkpt>
      <trkpt lat="43.1277746055677" lon="-4.98901748098898">
        <ele>1327.68037414551</ele>
        <time>2018-08-28T11:09:31Z</time>
      </trkpt>
      <trkpt lat="43.1277699536114" lon="-4.98895268887746">
        <ele>1328.06184387207</ele>
        <time>2018-08-28T11:09:34Z</time>
      </trkpt>
      <trkpt lat="43.127764798741" lon="-4.98888060451019">
        <ele>1328.66682434082</ele>
        <time>2018-08-28T11:09:37Z</time>
      </trkpt>
      <trkpt lat="43.1277671875834" lon="-4.98881204054224">
        <ele>1329.18208312988</ele>
        <time>2018-08-28T11:09:40Z</time>
      </trkpt>
      <trkpt lat="43.127783490385" lon="-4.9887432251172">
        <ele>1330.10530090332</ele>
        <time>2018-08-28T11:09:44Z</time>
      </trkpt>
      <trkpt lat="43.1277924171119" lon="-4.98867223039734">
        <ele>1331.56172180176</ele>
        <time>2018-08-28T11:09:48Z</time>
      </trkpt>
      <trkpt lat="43.1278092228278" lon="-4.98859796673524">
        <ele>1332.18135070801</ele>
        <time>2018-08-28T11:09:52Z</time>
      </trkpt>
      <trkpt lat="43.1278236397012" lon="-4.98853216879534">
        <ele>1332.74482727051</ele>
        <time>2018-08-28T11:09:56Z</time>
      </trkpt>
      <trkpt lat="43.1278407806932" lon="-4.98847424984443">
        <ele>1333.24726867676</ele>
        <time>2018-08-28T11:10:00Z</time>
      </trkpt>
      <trkpt lat="43.1278645014792" lon="-4.98841356486547">
        <ele>1333.74812316895</ele>
        <time>2018-08-28T11:10:04Z</time>
      </trkpt>
      <trkpt lat="43.1278653396695" lon="-4.98834768310654">
        <ele>1334.55574035645</ele>
        <time>2018-08-28T11:10:08Z</time>
      </trkpt>
      <trkpt lat="43.1278273277386" lon="-4.98829135671722">
        <ele>1334.88179016113</ele>
        <time>2018-08-28T11:10:12Z</time>
      </trkpt>
      <trkpt lat="43.1278107315704" lon="-4.98822622932958">
        <ele>1335.01545715332</ele>
        <time>2018-08-28T11:10:16Z</time>
      </trkpt>
      <trkpt lat="43.1278075045376" lon="-4.98816126958">
        <ele>1335.8863067627</ele>
        <time>2018-08-28T11:10:19Z</time>
      </trkpt>
      <trkpt lat="43.1277862145036" lon="-4.98810636811423">
        <ele>1335.68635559082</ele>
        <time>2018-08-28T11:10:22Z</time>
      </trkpt>
      <trkpt lat="43.1277483702108" lon="-4.98806328513193">
        <ele>1336.59028625488</ele>
        <time>2018-08-28T11:10:26Z</time>
      </trkpt>
      <trkpt lat="43.1277193688258" lon="-4.98799891211557">
        <ele>1337.07417297363</ele>
        <time>2018-08-28T11:10:30Z</time>
      </trkpt>
      <trkpt lat="43.1276984559774" lon="-4.98793395236599">
        <ele>1338.15303039551</ele>
        <time>2018-08-28T11:10:33Z</time>
      </trkpt>
      <trkpt lat="43.1276945583924" lon="-4.98786136508452">
        <ele>1339.08808898926</ele>
        <time>2018-08-28T11:10:36Z</time>
      </trkpt>
      <trkpt lat="43.1276978692442" lon="-4.98779355548787">
        <ele>1338.78730773926</ele>
        <time>2018-08-28T11:10:39Z</time>
      </trkpt>
      <trkpt lat="43.1277121603891" lon="-4.98771526851225">
        <ele>1339.79963684082</ele>
        <time>2018-08-28T11:10:43Z</time>
      </trkpt>
      <trkpt lat="43.127737096551" lon="-4.98766103759873">
        <ele>1340.10737609863</ele>
        <time>2018-08-28T11:10:46Z</time>
      </trkpt>
      <trkpt lat="43.1277646311029" lon="-4.98759850860107">
        <ele>1341.45454406738</ele>
        <time>2018-08-28T11:10:50Z</time>
      </trkpt>
      <trkpt lat="43.1277828617423" lon="-4.98754159547853">
        <ele>1342.7261505127</ele>
        <time>2018-08-28T11:10:53Z</time>
      </trkpt>
      <trkpt lat="43.1277995417296" lon="-4.98748376034665">
        <ele>1343.70967102051</ele>
        <time>2018-08-28T11:10:56Z</time>
      </trkpt>
      <trkpt lat="43.1278232625156" lon="-4.98743087053763">
        <ele>1344.98835754395</ele>
        <time>2018-08-28T11:10:59Z</time>
      </trkpt>
      <trkpt lat="43.1278384337603" lon="-4.98737085611093">
        <ele>1345.90803527832</ele>
        <time>2018-08-28T11:11:02Z</time>
      </trkpt>
      <trkpt lat="43.1278606038942" lon="-4.98730589636135">
        <ele>1346.1157989502</ele>
        <time>2018-08-28T11:11:05Z</time>
      </trkpt>
      <trkpt lat="43.1278723385587" lon="-4.98724596575367">
        <ele>1345.76887512207</ele>
        <time>2018-08-28T11:11:08Z</time>
      </trkpt>
      <trkpt lat="43.127895682159" lon="-4.987180754547">
        <ele>1346.39692687988</ele>
        <time>2018-08-28T11:11:12Z</time>
      </trkpt>
      <trkpt lat="43.1279184390261" lon="-4.98712409288156">
        <ele>1348.01655578613</ele>
        <time>2018-08-28T11:11:16Z</time>
      </trkpt>
      <trkpt lat="43.1279642880365" lon="-4.98706407845485">
        <ele>1348.55207824707</ele>
        <time>2018-08-28T11:11:20Z</time>
      </trkpt>
      <trkpt lat="43.128002760972" lon="-4.98700364493298">
        <ele>1348.53547668457</ele>
        <time>2018-08-28T11:11:23Z</time>
      </trkpt>
      <trkpt lat="43.1280269427627" lon="-4.98694941401946">
        <ele>1350.28596496582</ele>
        <time>2018-08-28T11:11:29Z</time>
      </trkpt>
      <trkpt lat="43.1280313432618" lon="-4.98687825166153">
        <ele>1350.10786437988</ele>
        <time>2018-08-28T11:11:33Z</time>
      </trkpt>
      <trkpt lat="43.1280144956365" lon="-4.98681840487289">
        <ele>1349.82783508301</ele>
        <time>2018-08-28T11:11:36Z</time>
      </trkpt>
      <trkpt lat="43.1279904814839" lon="-4.98675973155069">
        <ele>1350.74617004395</ele>
        <time>2018-08-28T11:11:39Z</time>
      </trkpt>
      <trkpt lat="43.1279589655279" lon="-4.98670038767623">
        <ele>1352.63655090332</ele>
        <time>2018-08-28T11:11:43Z</time>
      </trkpt>
      <trkpt lat="43.1279705744638" lon="-4.98662662692832">
        <ele>1353.60029602051</ele>
        <time>2018-08-28T11:11:47Z</time>
      </trkpt>
      <trkpt lat="43.1279858295276" lon="-4.98656166717875">
        <ele>1355.03388977051</ele>
        <time>2018-08-28T11:11:51Z</time>
      </trkpt>
      <trkpt lat="43.1280122744321" lon="-4.98650383204686">
        <ele>1355.6978302002</ele>
        <time>2018-08-28T11:11:56Z</time>
      </trkpt>
      <trkpt lat="43.1280474784254" lon="-4.98646209016907">
        <ele>1357.10078430176</ele>
        <time>2018-08-28T11:12:01Z</time>
      </trkpt>
      <trkpt lat="43.1280599674612" lon="-4.98639729805755">
        <ele>1359.1157989502</ele>
        <time>2018-08-28T11:12:07Z</time>
      </trkpt>
      <trkpt lat="43.1280603446468" lon="-4.9863345176028">
        <ele>1361.87593078613</ele>
        <time>2018-08-28T11:12:11Z</time>
      </trkpt>
      <trkpt lat="43.1280615600228" lon="-4.98627240770029">
        <ele>1362.61628723145</ele>
        <time>2018-08-28T11:12:16Z</time>
      </trkpt>
      <trkpt lat="43.1280614762037" lon="-4.98620744795072">
        <ele>1363.87763977051</ele>
        <time>2018-08-28T11:12:20Z</time>
      </trkpt>
      <trkpt lat="43.1280406471744" lon="-4.98614902608561">
        <ele>1365.27656555176</ele>
        <time>2018-08-28T11:12:26Z</time>
      </trkpt>
      <trkpt lat="43.1280351570278" lon="-4.98607643880414">
        <ele>1366.60224914551</ele>
        <time>2018-08-28T11:12:31Z</time>
      </trkpt>
      <trkpt lat="43.12804102436" lon="-4.98600913212168">
        <ele>1367.65351867676</ele>
        <time>2018-08-28T11:12:35Z</time>
      </trkpt>
      <trkpt lat="43.1280511664628" lon="-4.98594593257176">
        <ele>1369.40547180176</ele>
        <time>2018-08-28T11:12:39Z</time>
      </trkpt>
      <trkpt lat="43.1280673854455" lon="-4.9858820624696">
        <ele>1370.68135070801</ele>
        <time>2018-08-28T11:12:43Z</time>
      </trkpt>
      <trkpt lat="43.12806872655" lon="-4.9858125764923">
        <ele>1372.03401184082</ele>
        <time>2018-08-28T11:12:48Z</time>
      </trkpt>
      <trkpt lat="43.12809642874" lon="-4.98574811965691">
        <ele>1373.81025695801</ele>
        <time>2018-08-28T11:12:52Z</time>
      </trkpt>
      <trkpt lat="43.1281175092264" lon="-4.9856899492489">
        <ele>1374.7906036377</ele>
        <time>2018-08-28T11:12:56Z</time>
      </trkpt>
      <trkpt lat="43.1281102588802" lon="-4.98562146909999">
        <ele>1377.60517883301</ele>
        <time>2018-08-28T11:13:02Z</time>
      </trkpt>
      <trkpt lat="43.1280996976822" lon="-4.98556095175909">
        <ele>1376.93733215332</ele>
        <time>2018-08-28T11:13:06Z</time>
      </trkpt>
      <trkpt lat="43.1280833948805" lon="-4.98549641110467">
        <ele>1377.61140441895</ele>
        <time>2018-08-28T11:13:10Z</time>
      </trkpt>
      <trkpt lat="43.1280455086782" lon="-4.9854467902379">
        <ele>1378.76106262207</ele>
        <time>2018-08-28T11:13:14Z</time>
      </trkpt>
      <trkpt lat="43.1280051498144" lon="-4.9853878654586">
        <ele>1380.94453430176</ele>
        <time>2018-08-28T11:13:19Z</time>
      </trkpt>
      <trkpt lat="43.1279615639179" lon="-4.98535727151202">
        <ele>1381.60713195801</ele>
        <time>2018-08-28T11:13:22Z</time>
      </trkpt>
      <trkpt lat="43.1279211631446" lon="-4.98530731536912">
        <ele>1382.84590148926</ele>
        <time>2018-08-28T11:13:26Z</time>
      </trkpt>
      <trkpt lat="43.1278861267894" lon="-4.9852549284743">
        <ele>1384.48554992676</ele>
        <time>2018-08-28T11:13:30Z</time>
      </trkpt>
      <trkpt lat="43.1278443010926" lon="-4.98520111665594">
        <ele>1385.36421203613</ele>
        <time>2018-08-28T11:13:34Z</time>
      </trkpt>
      <trkpt lat="43.1278018048435" lon="-4.98514613137113">
        <ele>1385.95478820801</ele>
        <time>2018-08-28T11:13:38Z</time>
      </trkpt>
      <trkpt lat="43.1277682772308" lon="-4.98510179110336">
        <ele>1387.28804016113</ele>
        <time>2018-08-28T11:13:41Z</time>
      </trkpt>
      <trkpt lat="43.1277308520331" lon="-4.98506373726296">
        <ele>1388.20478820801</ele>
        <time>2018-08-28T11:13:44Z</time>
      </trkpt>
      <trkpt lat="43.1277050776809" lon="-4.98499676585662">
        <ele>1390.30964660645</ele>
        <time>2018-08-28T11:13:49Z</time>
      </trkpt>
      <trkpt lat="43.1277003838151" lon="-4.98492652550804">
        <ele>1391.40803527832</ele>
        <time>2018-08-28T11:13:53Z</time>
      </trkpt>
      <trkpt lat="43.1277019763767" lon="-4.98485997319686">
        <ele>1391.77033996582</ele>
        <time>2018-08-28T11:13:57Z</time>
      </trkpt>
      <trkpt lat="43.1276637968078" lon="-4.98480599374043">
        <ele>1392.59346008301</ele>
        <time>2018-08-28T11:14:01Z</time>
      </trkpt>
      <trkpt lat="43.1276238151296" lon="-4.98475586995947">
        <ele>1392.79487609863</ele>
        <time>2018-08-28T11:14:05Z</time>
      </trkpt>
      <trkpt lat="43.1275770022004" lon="-4.9847353342967">
        <ele>1393.90669250488</ele>
        <time>2018-08-28T11:14:09Z</time>
      </trkpt>
      <trkpt lat="43.1275316561043" lon="-4.98469258659052">
        <ele>1394.4009552002</ele>
        <time>2018-08-28T11:14:13Z</time>
      </trkpt>
      <trkpt lat="43.1274869386508" lon="-4.98466123827266">
        <ele>1395.26533508301</ele>
        <time>2018-08-28T11:14:17Z</time>
      </trkpt>
      <trkpt lat="43.1274363538652" lon="-4.98462821357416">
        <ele>1396.97285461426</ele>
        <time>2018-08-28T11:14:21Z</time>
      </trkpt>
      <trkpt lat="43.1273951987206" lon="-4.98460172676014">
        <ele>1396.70356750488</ele>
        <time>2018-08-28T11:14:24Z</time>
      </trkpt>
      <trkpt lat="43.12734851152" lon="-4.98456476256715">
        <ele>1396.65400695801</ele>
        <time>2018-08-28T11:14:28Z</time>
      </trkpt>
      <trkpt lat="43.1273116730555" lon="-4.98450826853978">
        <ele>1397.97175598145</ele>
        <time>2018-08-28T11:14:32Z</time>
      </trkpt>
      <trkpt lat="43.1272876589029" lon="-4.98445554636883">
        <ele>1400.65376281738</ele>
        <time>2018-08-28T11:14:38Z</time>
      </trkpt>
      <trkpt lat="43.1273105834081" lon="-4.98439662158953">
        <ele>1402.11885070801</ele>
        <time>2018-08-28T11:14:43Z</time>
      </trkpt>
      <trkpt lat="43.1273497268959" lon="-4.98435169458853">
        <ele>1403.68745422363</ele>
        <time>2018-08-28T11:14:49Z</time>
      </trkpt>
      <trkpt lat="43.1273944443493" lon="-4.98430836014914">
        <ele>1408.53804016113</ele>
        <time>2018-08-28T11:14:56Z</time>
      </trkpt>
      <trkpt lat="43.127433168742" lon="-4.98426670209038">
        <ele>1410.5054473877</ele>
        <time>2018-08-28T11:15:02Z</time>
      </trkpt>
      <trkpt lat="43.1274777604669" lon="-4.98422688805031">
        <ele>1412.02436828613</ele>
        <time>2018-08-28T11:15:08Z</time>
      </trkpt>
      <trkpt lat="43.1275213463634" lon="-4.98418112285899">
        <ele>1413.50239562988</ele>
        <time>2018-08-28T11:15:13Z</time>
      </trkpt>
      <trkpt lat="43.1274884473934" lon="-4.98412848450708">
        <ele>1415.03120422363</ele>
        <time>2018-08-28T11:15:21Z</time>
      </trkpt>
      <trkpt lat="43.1274335459276" lon="-4.98411155306267">
        <ele>1415.24971008301</ele>
        <time>2018-08-28T11:15:27Z</time>
      </trkpt>
      <trkpt lat="43.127376465167" lon="-4.98409143649506">
        <ele>1415.55928039551</ele>
        <time>2018-08-28T11:15:31Z</time>
      </trkpt>
      <trkpt lat="43.1273314962565" lon="-4.98408908956217">
        <ele>1415.78364562988</ele>
        <time>2018-08-28T11:15:33Z</time>
      </trkpt>
      <trkpt lat="43.1272812048375" lon="-4.98410769738721">
        <ele>1417.0191192627</ele>
        <time>2018-08-28T11:15:36Z</time>
      </trkpt>
      <trkpt lat="43.1272326317086" lon="-4.98409864493179">
        <ele>1417.25691223145</ele>
        <time>2018-08-28T11:15:40Z</time>
      </trkpt>
      <trkpt lat="43.1271781912475" lon="-4.98407802544998">
        <ele>1419.37959289551</ele>
        <time>2018-08-28T11:15:45Z</time>
      </trkpt>
      <trkpt lat="43.1271393830358" lon="-4.98402924277353">
        <ele>1421.14765930176</ele>
        <time>2018-08-28T11:15:50Z</time>
      </trkpt>
      <trkpt lat="43.1270956295013" lon="-4.98398657888638">
        <ele>1423.11238098145</ele>
        <time>2018-08-28T11:15:55Z</time>
      </trkpt>
      <trkpt lat="43.1270453799918" lon="-4.98394307680892">
        <ele>1423.28523254395</ele>
        <time>2018-08-28T11:16:00Z</time>
      </trkpt>
      <trkpt lat="43.1269977707817" lon="-4.98390695080625">
        <ele>1423.16572570801</ele>
        <time>2018-08-28T11:16:04Z</time>
      </trkpt>
      <trkpt lat="43.1269546039804" lon="-4.98386470601427">
        <ele>1425.45295715332</ele>
        <time>2018-08-28T11:16:08Z</time>
      </trkpt>
      <trkpt lat="43.1269243872195" lon="-4.98381550424265">
        <ele>1426.29731750488</ele>
        <time>2018-08-28T11:16:12Z</time>
      </trkpt>
      <trkpt lat="43.126879418309" lon="-4.98376730829941">
        <ele>1427.15718078613</ele>
        <time>2018-08-28T11:16:17Z</time>
      </trkpt>
      <trkpt lat="43.126854398328" lon="-4.9837146699475">
        <ele>1428.41609191895</ele>
        <time>2018-08-28T11:16:21Z</time>
      </trkpt>
      <trkpt lat="43.1268266542285" lon="-4.98365809210109">
        <ele>1428.86311340332</ele>
        <time>2018-08-28T11:16:25Z</time>
      </trkpt>
      <trkpt lat="43.1268009217858" lon="-4.98360184953081">
        <ele>1430.77156066895</ele>
        <time>2018-08-28T11:16:29Z</time>
      </trkpt>
      <trkpt lat="43.1267847866222" lon="-4.98354007490443">
        <ele>1432.82917785645</ele>
        <time>2018-08-28T11:16:33Z</time>
      </trkpt>
      <trkpt lat="43.1267821044131" lon="-4.98346983455586">
        <ele>1434.63813781738</ele>
        <time>2018-08-28T11:16:38Z</time>
      </trkpt>
      <trkpt lat="43.1267647957831" lon="-4.98341174796688">
        <ele>1435.72529602051</ele>
        <time>2018-08-28T11:16:42Z</time>
      </trkpt>
      <trkpt lat="43.1267607305601" lon="-4.98334703967439">
        <ele>1438.07514953613</ele>
        <time>2018-08-28T11:16:47Z</time>
      </trkpt>
      <trkpt lat="43.1267409492686" lon="-4.98327956535386">
        <ele>1439.37153625488</ele>
        <time>2018-08-28T11:16:52Z</time>
      </trkpt>
      <trkpt lat="43.1267068349227" lon="-4.98322768137323">
        <ele>1441.22969055176</ele>
        <time>2018-08-28T11:16:56Z</time>
      </trkpt>
      <trkpt lat="43.1266704574629" lon="-4.98317655176388">
        <ele>1441.97212219238</ele>
        <time>2018-08-28T11:16:59Z</time>
      </trkpt>
      <trkpt lat="43.1266422523587" lon="-4.9831203091936">
        <ele>1441.20613098145</ele>
        <time>2018-08-28T11:17:02Z</time>
      </trkpt>
      <trkpt lat="43.1265995884716" lon="-4.98306239024269">
        <ele>1441.63569641113</ele>
        <time>2018-08-28T11:17:06Z</time>
      </trkpt>
      <trkpt lat="43.1265497580572" lon="-4.98300815932917">
        <ele>1442.68989562988</ele>
        <time>2018-08-28T11:17:09Z</time>
      </trkpt>
      <trkpt lat="43.1264981674432" lon="-4.9829545989679">
        <ele>1443.34382629395</ele>
        <time>2018-08-28T11:17:12Z</time>
      </trkpt>
      <trkpt lat="43.1264489656716" lon="-4.98289944604503">
        <ele>1444.13740539551</ele>
        <time>2018-08-28T11:17:15Z</time>
      </trkpt>
      <trkpt lat="43.1264055474132" lon="-4.98285049573051">
        <ele>1445.12422180176</ele>
        <time>2018-08-28T11:17:18Z</time>
      </trkpt>
      <trkpt lat="43.126361584331" lon="-4.98280129395889">
        <ele>1445.59248352051</ele>
        <time>2018-08-28T11:17:21Z</time>
      </trkpt>
      <trkpt lat="43.1263130112021" lon="-4.98273038305806">
        <ele>1445.64924621582</ele>
        <time>2018-08-28T11:17:24Z</time>
      </trkpt>
      <trkpt lat="43.126275627914" lon="-4.98266617767977">
        <ele>1445.76692199707</ele>
        <time>2018-08-28T11:17:26Z</time>
      </trkpt>
      <trkpt lat="43.1262389570876" lon="-4.98259803280698">
        <ele>1445.56929016113</ele>
        <time>2018-08-28T11:17:28Z</time>
      </trkpt>
      <trkpt lat="43.1262017414375" lon="-4.98253751546608">
        <ele>1445.76887512207</ele>
        <time>2018-08-28T11:17:30Z</time>
      </trkpt>
      <trkpt lat="43.1261594966456" lon="-4.98248772696125">
        <ele>1446.93379211426</ele>
        <time>2018-08-28T11:17:32Z</time>
      </trkpt>
      <trkpt lat="43.1261146115541" lon="-4.98244020157026">
        <ele>1447.63020324707</ele>
        <time>2018-08-28T11:17:34Z</time>
      </trkpt>
      <trkpt lat="43.1260789884656" lon="-4.9823914188938">
        <ele>1448.28694152832</ele>
        <time>2018-08-28T11:17:36Z</time>
      </trkpt>
      <trkpt lat="43.1260447483911" lon="-4.98232729733454">
        <ele>1449.3247833252</ele>
        <time>2018-08-28T11:17:39Z</time>
      </trkpt>
      <trkpt lat="43.1260142801731" lon="-4.98226040974723">
        <ele>1450.02815246582</ele>
        <time>2018-08-28T11:17:42Z</time>
      </trkpt>
      <trkpt lat="43.1260059401795" lon="-4.98219804838764">
        <ele>1450.31880187988</ele>
        <time>2018-08-28T11:17:44Z</time>
      </trkpt>
      <trkpt lat="43.126011430326" lon="-4.98210987076627">
        <ele>1450.70808410645</ele>
        <time>2018-08-28T11:17:47Z</time>
      </trkpt>
      <trkpt lat="43.126021907705" lon="-4.98203166760968">
        <ele>1452.40205383301</ele>
        <time>2018-08-28T11:17:50Z</time>
      </trkpt>
      <trkpt lat="43.12602840368" lon="-4.98194592074024">
        <ele>1453.62287902832</ele>
        <time>2018-08-28T11:17:53Z</time>
      </trkpt>
      <trkpt lat="43.1260413956299" lon="-4.98186235316562">
        <ele>1454.71784973145</ele>
        <time>2018-08-28T11:17:56Z</time>
      </trkpt>
      <trkpt lat="43.1260722410335" lon="-4.98178892769383">
        <ele>1455.11335754395</ele>
        <time>2018-08-28T11:17:59Z</time>
      </trkpt>
      <trkpt lat="43.1261081993981" lon="-4.98172690161037">
        <ele>1457.7788848877</ele>
        <time>2018-08-28T11:18:02Z</time>
      </trkpt>
      <trkpt lat="43.1261493126332" lon="-4.98168314807581">
        <ele>1459.29048156738</ele>
        <time>2018-08-28T11:18:05Z</time>
      </trkpt>
      <trkpt lat="43.1261809962272" lon="-4.98163679615127">
        <ele>1460.34016418457</ele>
        <time>2018-08-28T11:18:08Z</time>
      </trkpt>
      <trkpt lat="43.1262120092689" lon="-4.98159161769318">
        <ele>1461.63374328613</ele>
        <time>2018-08-28T11:18:11Z</time>
      </trkpt>
      <trkpt lat="43.1262516975804" lon="-4.98156161047982">
        <ele>1462.2574005127</ele>
        <time>2018-08-28T11:18:14Z</time>
      </trkpt>
      <trkpt lat="43.1263026176422" lon="-4.98153939843642">
        <ele>1463.61445617676</ele>
        <time>2018-08-28T11:18:18Z</time>
      </trkpt>
      <trkpt lat="43.1263545854419" lon="-4.98151257634627">
        <ele>1464.56916809082</ele>
        <time>2018-08-28T11:18:22Z</time>
      </trkpt>
      <trkpt lat="43.1264066789701" lon="-4.98150033876764">
        <ele>1465.84980773926</ele>
        <time>2018-08-28T11:18:26Z</time>
      </trkpt>
      <trkpt lat="43.1264613289788" lon="-4.98148625717031">
        <ele>1466.69514465332</ele>
        <time>2018-08-28T11:18:30Z</time>
      </trkpt>
      <trkpt lat="43.1265149312495" lon="-4.98147108592557">
        <ele>1467.9868927002</ele>
        <time>2018-08-28T11:18:34Z</time>
      </trkpt>
      <trkpt lat="43.1265622890025" lon="-4.98145599849986">
        <ele>1468.78230285645</ele>
        <time>2018-08-28T11:18:38Z</time>
      </trkpt>
      <trkpt lat="43.1266050367086" lon="-4.98143269680904">
        <ele>1469.6411895752</ele>
        <time>2018-08-28T11:18:42Z</time>
      </trkpt>
      <trkpt lat="43.1266539451136" lon="-4.98141232878434">
        <ele>1469.82832336426</ele>
        <time>2018-08-28T11:18:46Z</time>
      </trkpt>
      <trkpt lat="43.1267003808572" lon="-4.98138123192357">
        <ele>1470.06904602051</ele>
        <time>2018-08-28T11:18:50Z</time>
      </trkpt>
      <trkpt lat="43.1267417455494" lon="-4.98135432601439">
        <ele>1470.33247375488</ele>
        <time>2018-08-28T11:18:54Z</time>
      </trkpt>
      <trkpt lat="43.126785666722" lon="-4.98131635599302">
        <ele>1472.03645324707</ele>
        <time>2018-08-28T11:18:59Z</time>
      </trkpt>
      <trkpt lat="43.1268254388525" lon="-4.98128676787483">
        <ele>1472.91157531738</ele>
        <time>2018-08-28T11:19:03Z</time>
      </trkpt>
      <trkpt lat="43.126863660331" lon="-4.98124527745413">
        <ele>1473.12397766113</ele>
        <time>2018-08-28T11:19:07Z</time>
      </trkpt>
      <trkpt lat="43.1268975232198" lon="-4.98120395467149">
        <ele>1474.09773254395</ele>
        <time>2018-08-28T11:19:11Z</time>
      </trkpt>
      <trkpt lat="43.1269420730352" lon="-4.98117352836298">
        <ele>1474.0825958252</ele>
        <time>2018-08-28T11:19:16Z</time>
      </trkpt>
      <trkpt lat="43.1269841082796" lon="-4.98114209622609">
        <ele>1474.11811828613</ele>
        <time>2018-08-28T11:19:20Z</time>
      </trkpt>
      <trkpt lat="43.1270281970903" lon="-4.98109012842642">
        <ele>1474.78388977051</ele>
        <time>2018-08-28T11:19:24Z</time>
      </trkpt>
      <trkpt lat="43.1270741299196" lon="-4.98104394413995">
        <ele>1475.45063781738</ele>
        <time>2018-08-28T11:19:28Z</time>
      </trkpt>
      <trkpt lat="43.1271232059627" lon="-4.98100052588152">
        <ele>1476.58613586426</ele>
        <time>2018-08-28T11:19:32Z</time>
      </trkpt>
      <trkpt lat="43.1271711504489" lon="-4.98095341958569">
        <ele>1476.6138458252</ele>
        <time>2018-08-28T11:19:36Z</time>
      </trkpt>
      <trkpt lat="43.1272132695123" lon="-4.98091553338336">
        <ele>1477.05317687988</ele>
        <time>2018-08-28T11:19:39Z</time>
      </trkpt>
      <trkpt lat="43.1272605434462" lon="-4.98088971712159">
        <ele>1477.30378723145</ele>
        <time>2018-08-28T11:19:42Z</time>
      </trkpt>
      <trkpt lat="43.1273017405003" lon="-4.98084361665415">
        <ele>1477.10432434082</ele>
        <time>2018-08-28T11:19:45Z</time>
      </trkpt>
      <trkpt lat="43.1273454102158" lon="-4.98080388643311">
        <ele>1477.34101867676</ele>
        <time>2018-08-28T11:19:48Z</time>
      </trkpt>
      <trkpt lat="43.1273879902839" lon="-4.98076885007786">
        <ele>1478.15437316895</ele>
        <time>2018-08-28T11:19:51Z</time>
      </trkpt>
      <trkpt lat="43.1274275528669" lon="-4.98072794639038">
        <ele>1478.22932434082</ele>
        <time>2018-08-28T11:19:54Z</time>
      </trkpt>
      <trkpt lat="43.1274797302141" lon="-4.98069399968253">
        <ele>1479.15937805176</ele>
        <time>2018-08-28T11:19:58Z</time>
      </trkpt>
      <trkpt lat="43.1275334582134" lon="-4.98067891225683">
        <ele>1480.4644317627</ele>
        <time>2018-08-28T11:20:02Z</time>
      </trkpt>
      <trkpt lat="43.1275820732518" lon="-4.98066122644113">
        <ele>1482.20417785645</ele>
        <time>2018-08-28T11:20:06Z</time>
      </trkpt>
      <trkpt lat="43.1276299339189" lon="-4.98066206463145">
        <ele>1482.36836242676</ele>
        <time>2018-08-28T11:20:09Z</time>
      </trkpt>
      <trkpt lat="43.1276819436281" lon="-4.98065628111826">
        <ele>1483.1831817627</ele>
        <time>2018-08-28T11:20:13Z</time>
      </trkpt>
      <trkpt lat="43.1277325284138" lon="-4.98065862805115">
        <ele>1483.67292785645</ele>
        <time>2018-08-28T11:20:18Z</time>
      </trkpt>
      <trkpt lat="43.1277756952151" lon="-4.98063398525583">
        <ele>1484.27912902832</ele>
        <time>2018-08-28T11:20:36Z</time>
      </trkpt>
      <trkpt lat="43.1278265733674" lon="-4.98063499108421">
        <ele>1484.75178527832</ele>
        <time>2018-08-28T11:20:39Z</time>
      </trkpt>
      <trkpt lat="43.1278737215727" lon="-4.98063071631359">
        <ele>1485.45027160645</ele>
        <time>2018-08-28T11:20:42Z</time>
      </trkpt>
      <trkpt lat="43.1279253540962" lon="-4.98063750565516">
        <ele>1487.40718078613</ele>
        <time>2018-08-28T11:20:45Z</time>
      </trkpt>
      <trkpt lat="43.1279707840114" lon="-4.98063088395165">
        <ele>1488.05207824707</ele>
        <time>2018-08-28T11:20:48Z</time>
      </trkpt>
      <trkpt lat="43.1280242605537" lon="-4.98061730526851">
        <ele>1490.70185852051</ele>
        <time>2018-08-28T11:20:51Z</time>
      </trkpt>
      <trkpt lat="43.1280798325717" lon="-4.98061311431693">
        <ele>1492.39888000488</ele>
        <time>2018-08-28T11:20:54Z</time>
      </trkpt>
      <trkpt lat="43.1281422358408" lon="-4.98060565442311">
        <ele>1492.55110168457</ele>
        <time>2018-08-28T11:20:57Z</time>
      </trkpt>
      <trkpt lat="43.128200909163" lon="-4.9806006252812">
        <ele>1490.97407531738</ele>
        <time>2018-08-28T11:21:00Z</time>
      </trkpt>
      <trkpt lat="43.1282583251997" lon="-4.9805958475964">
        <ele>1492.98213195801</ele>
        <time>2018-08-28T11:21:04Z</time>
      </trkpt>
      <trkpt lat="43.1283044256672" lon="-4.98058444820808">
        <ele>1492.33308410645</ele>
        <time>2018-08-28T11:21:07Z</time>
      </trkpt>
      <trkpt lat="43.1283588242187" lon="-4.98053415678905">
        <ele>1494.27339172363</ele>
        <time>2018-08-28T11:21:10Z</time>
      </trkpt>
      <trkpt lat="43.1283968361496" lon="-4.98048621230291">
        <ele>1495.61372375488</ele>
        <time>2018-08-28T11:21:13Z</time>
      </trkpt>
      <trkpt lat="43.1284529110818" lon="-4.98045243323313">
        <ele>1496.86958312988</ele>
        <time>2018-08-28T11:21:16Z</time>
      </trkpt>
      <trkpt lat="43.1284999754682" lon="-4.98044245876836">
        <ele>1497.69868469238</ele>
        <time>2018-08-28T11:21:18Z</time>
      </trkpt>
      <trkpt lat="43.1285575172334" lon="-4.98045997694599">
        <ele>1500.74067687988</ele>
        <time>2018-08-28T11:21:22Z</time>
      </trkpt>
      <trkpt lat="43.1286049588054" lon="-4.98050440103279">
        <ele>1503.77119445801</ele>
        <time>2018-08-28T11:21:26Z</time>
      </trkpt>
      <trkpt lat="43.1286605727329" lon="-4.98048621230291">
        <ele>1505.50679016113</ele>
        <time>2018-08-28T11:21:30Z</time>
      </trkpt>
      <trkpt lat="43.1287010573252" lon="-4.98044757172929">
        <ele>1505.53486633301</ele>
        <time>2018-08-28T11:21:33Z</time>
      </trkpt>
      <trkpt lat="43.1287609041139" lon="-4.98042611405717">
        <ele>1505.19697570801</ele>
        <time>2018-08-28T11:21:36Z</time>
      </trkpt>
      <trkpt lat="43.1288078846812" lon="-4.98041521758305">
        <ele>1505.87324523926</ele>
        <time>2018-08-28T11:21:38Z</time>
      </trkpt>
      <trkpt lat="43.1288717966928" lon="-4.98039979488121">
        <ele>1506.56733703613</ele>
        <time>2018-08-28T11:21:41Z</time>
      </trkpt>
      <trkpt lat="43.1289191544458" lon="-4.98040105216669">
        <ele>1507.12324523926</ele>
        <time>2018-08-28T11:21:44Z</time>
      </trkpt>
      <trkpt lat="43.1290052785008" lon="-4.98037925921844">
        <ele>1505.80024719238</ele>
        <time>2018-08-28T11:32:24Z</time>
      </trkpt>
      <trkpt lat="43.1289733015402" lon="-4.9804349150555">
        <ele>1505.39888000488</ele>
        <time>2018-08-28T11:32:30Z</time>
      </trkpt>
      <trkpt lat="43.1289417017653" lon="-4.98048403300809">
        <ele>1506.83247375488</ele>
        <time>2018-08-28T11:32:35Z</time>
      </trkpt>
      <trkpt lat="43.1288758200064" lon="-4.98049350455867">
        <ele>1507.70918273926</ele>
        <time>2018-08-28T11:32:38Z</time>
      </trkpt>
      <trkpt lat="43.1287981616735" lon="-4.98048285954164">
        <ele>1507.97261047363</ele>
        <time>2018-08-28T11:32:40Z</time>
      </trkpt>
      <trkpt lat="43.1287266640394" lon="-4.98047037050592">
        <ele>1506.74507141113</ele>
        <time>2018-08-28T11:32:42Z</time>
      </trkpt>
      <trkpt lat="43.1286601117282" lon="-4.98050364666151">
        <ele>1505.10151672363</ele>
        <time>2018-08-28T11:32:44Z</time>
      </trkpt>
      <trkpt lat="43.1285790168151" lon="-4.98046559282111">
        <ele>1504.82954406738</ele>
        <time>2018-08-28T11:32:46Z</time>
      </trkpt>
      <trkpt lat="43.1285371072992" lon="-4.98043994419741">
        <ele>1504.46821594238</ele>
        <time>2018-08-28T11:32:47Z</time>
      </trkpt>
      <trkpt lat="43.1284804456338" lon="-4.98045503162311">
        <ele>1503.28559875488</ele>
        <time>2018-08-28T11:32:48Z</time>
      </trkpt>
      <trkpt lat="43.1284099538281" lon="-4.9804470688151">
        <ele>1504.28950500488</ele>
        <time>2018-08-28T11:32:49Z</time>
      </trkpt>
      <trkpt lat="43.1283270568057" lon="-4.98042737134265">
        <ele>1505.58149719238</ele>
        <time>2018-08-28T11:32:50Z</time>
      </trkpt>
      <trkpt lat="43.1282610493182" lon="-4.98043633997904">
        <ele>1507.01362609863</ele>
        <time>2018-08-28T11:32:51Z</time>
      </trkpt>
      <trkpt lat="43.1281920662551" lon="-4.98045377433764">
        <ele>1506.68257141113</ele>
        <time>2018-08-28T11:32:52Z</time>
      </trkpt>
      <trkpt lat="43.1281405594602" lon="-4.98044614680575">
        <ele>1504.76802062988</ele>
        <time>2018-08-28T11:32:53Z</time>
      </trkpt>
      <trkpt lat="43.1280724564969" lon="-4.98046232387887">
        <ele>1504.01899719238</ele>
        <time>2018-08-28T11:32:54Z</time>
      </trkpt>
      <trkpt lat="43.1280249730154" lon="-4.98052619398104">
        <ele>1501.21308898926</ele>
        <time>2018-08-28T11:32:55Z</time>
      </trkpt>
      <trkpt lat="43.1279217917874" lon="-4.98055687174665">
        <ele>1500.43574523926</ele>
        <time>2018-08-28T11:32:57Z</time>
      </trkpt>
      <trkpt lat="43.1278554490238" lon="-4.98053239658939">
        <ele>1499.70454406738</ele>
        <time>2018-08-28T11:32:58Z</time>
      </trkpt>
      <trkpt lat="43.1277989130869" lon="-4.98052870855199">
        <ele>1497.40718078613</ele>
        <time>2018-08-28T11:32:59Z</time>
      </trkpt>
      <trkpt lat="43.1277351687133" lon="-4.98052828945683">
        <ele>1496.59370422363</ele>
        <time>2018-08-28T11:33:00Z</time>
      </trkpt>
      <trkpt lat="43.1276637548982" lon="-4.98058578931259">
        <ele>1493.75239562988</ele>
        <time>2018-08-28T11:33:01Z</time>
      </trkpt>
      <trkpt lat="43.1275855517417" lon="-4.98061688617336">
        <ele>1492.76374816895</ele>
        <time>2018-08-28T11:33:02Z</time>
      </trkpt>
      <trkpt lat="43.1275063427567" lon="-4.9806577060418">
        <ele>1491.6363067627</ele>
        <time>2018-08-28T11:33:03Z</time>
      </trkpt>
      <trkpt lat="43.1274320371851" lon="-4.98073289171325">
        <ele>1490.60835266113</ele>
        <time>2018-08-28T11:33:04Z</time>
      </trkpt>
      <trkpt lat="43.127340800169" lon="-4.98078821227418">
        <ele>1490.00654602051</ele>
        <time>2018-08-28T11:33:05Z</time>
      </trkpt>
      <trkpt lat="43.1272540893807" lon="-4.98086582869755">
        <ele>1489.01960754395</ele>
        <time>2018-08-28T11:33:06Z</time>
      </trkpt>
      <trkpt lat="43.1271709828108" lon="-4.98093824834095">
        <ele>1488.32954406738</ele>
        <time>2018-08-28T11:33:07Z</time>
      </trkpt>
      <trkpt lat="43.1270874152362" lon="-4.98101578094529">
        <ele>1486.79475402832</ele>
        <time>2018-08-28T11:33:08Z</time>
      </trkpt>
      <trkpt lat="43.1270093378081" lon="-4.98108987696933">
        <ele>1485.50813293457</ele>
        <time>2018-08-28T11:33:09Z</time>
      </trkpt>
      <trkpt lat="43.1269462220772" lon="-4.98116799630689">
        <ele>1483.54536437988</ele>
        <time>2018-08-28T11:33:10Z</time>
      </trkpt>
      <trkpt lat="43.1269142870262" lon="-4.98122474179136">
        <ele>1481.91499328613</ele>
        <time>2018-08-28T11:33:11Z</time>
      </trkpt>
      <trkpt lat="43.1268698210298" lon="-4.98125676066147">
        <ele>1478.98091125488</ele>
        <time>2018-08-28T11:33:13Z</time>
      </trkpt>
      <trkpt lat="43.1268088426843" lon="-4.98132716864811">
        <ele>1473.98799133301</ele>
        <time>2018-08-28T11:33:52Z</time>
      </trkpt>
      <trkpt lat="43.126764544326" lon="-4.98136111535596">
        <ele>1473.19856262207</ele>
        <time>2018-08-28T11:33:53Z</time>
      </trkpt>
      <trkpt lat="43.1267023086949" lon="-4.98140302487182">
        <ele>1472.68476867676</ele>
        <time>2018-08-28T11:33:54Z</time>
      </trkpt>
      <trkpt lat="43.1266233930766" lon="-4.98145147227215">
        <ele>1471.52961730957</ele>
        <time>2018-08-28T11:33:55Z</time>
      </trkpt>
      <trkpt lat="43.1265124585881" lon="-4.98148424551355">
        <ele>1470.45906066895</ele>
        <time>2018-08-28T11:33:56Z</time>
      </trkpt>
      <trkpt lat="43.1264121272071" lon="-4.98152657412456">
        <ele>1469.53840637207</ele>
        <time>2018-08-28T11:33:57Z</time>
      </trkpt>
      <trkpt lat="43.1263175793394" lon="-4.98156202957498">
        <ele>1468.4878692627</ele>
        <time>2018-08-28T11:33:58Z</time>
      </trkpt>
      <trkpt lat="43.1262133084639" lon="-4.98159999959635">
        <ele>1466.54695129395</ele>
        <time>2018-08-28T11:33:59Z</time>
      </trkpt>
      <trkpt lat="43.1261028349801" lon="-4.98163201846646">
        <ele>1463.6890411377</ele>
        <time>2018-08-28T11:34:00Z</time>
      </trkpt>
      <trkpt lat="43.1259838119551" lon="-4.98164115474092">
        <ele>1461.24018859863</ele>
        <time>2018-08-28T11:34:01Z</time>
      </trkpt>
      <trkpt lat="43.1258710334479" lon="-4.98164727353023">
        <ele>1460.27180480957</ele>
        <time>2018-08-28T11:34:02Z</time>
      </trkpt>
      <trkpt lat="43.1257674331247" lon="-4.9816181045072">
        <ele>1459.56135559082</ele>
        <time>2018-08-28T11:34:03Z</time>
      </trkpt>
      <trkpt lat="43.1256681494816" lon="-4.98158952221738">
        <ele>1458.22871398926</ele>
        <time>2018-08-28T11:34:04Z</time>
      </trkpt>
      <trkpt lat="43.1255710870429" lon="-4.98158985749351">
        <ele>1458.55574035645</ele>
        <time>2018-08-28T11:34:05Z</time>
      </trkpt>
      <trkpt lat="43.1254772516369" lon="-4.98158357106613">
        <ele>1459.11445617676</ele>
        <time>2018-08-28T11:34:06Z</time>
      </trkpt>
      <trkpt lat="43.1253963243618" lon="-4.98158466071354">
        <ele>1458.76692199707</ele>
        <time>2018-08-28T11:34:07Z</time>
      </trkpt>
      <trkpt lat="43.1253143912583" lon="-4.98159103095995">
        <ele>1458.83283996582</ele>
        <time>2018-08-28T11:34:08Z</time>
      </trkpt>
      <trkpt lat="43.1252407981484" lon="-4.98160796240436">
        <ele>1458.74067687988</ele>
        <time>2018-08-28T11:34:09Z</time>
      </trkpt>
      <trkpt lat="43.1251783948793" lon="-4.98162640259134">
        <ele>1459.16145324707</ele>
        <time>2018-08-28T11:34:10Z</time>
      </trkpt>
      <trkpt lat="43.1251257984369" lon="-4.98162271455394">
        <ele>1459.70124816895</ele>
        <time>2018-08-28T11:34:11Z</time>
      </trkpt>
      <trkpt lat="43.1250840146496" lon="-4.98166210949885">
        <ele>1460.33027648926</ele>
        <time>2018-08-28T11:34:12Z</time>
      </trkpt>
      <trkpt lat="43.1250433624192" lon="-4.98175045475828">
        <ele>1460.79048156738</ele>
        <time>2018-08-28T11:34:14Z</time>
      </trkpt>
      <trkpt lat="43.1249947054713" lon="-4.98174995184409">
        <ele>1459.83613586426</ele>
        <time>2018-08-28T11:34:20Z</time>
      </trkpt>
      <trkpt lat="43.1249457132473" lon="-4.98173821717965">
        <ele>1461.68721008301</ele>
        <time>2018-08-28T11:34:34Z</time>
      </trkpt>
      <trkpt lat="43.124902797903" lon="-4.98166579753624">
        <ele>1462.06074523926</ele>
        <time>2018-08-28T11:34:37Z</time>
      </trkpt>
      <trkpt lat="43.1248896802246" lon="-4.98151165433692">
        <ele>1462.1040802002</ele>
        <time>2018-08-28T11:34:39Z</time>
      </trkpt>
      <trkpt lat="43.1248905603244" lon="-4.9814489577012">
        <ele>1462.35054016113</ele>
        <time>2018-08-28T11:34:40Z</time>
      </trkpt>
      <trkpt lat="43.1249025883555" lon="-4.98132658191489">
        <ele>1462.49128723145</ele>
        <time>2018-08-28T11:34:42Z</time>
      </trkpt>
      <trkpt lat="43.1249209447234" lon="-4.98126321472691">
        <ele>1462.6919708252</ele>
        <time>2018-08-28T11:34:43Z</time>
      </trkpt>
      <trkpt lat="43.1249407679244" lon="-4.98119825497734">
        <ele>1462.47041320801</ele>
        <time>2018-08-28T11:34:44Z</time>
      </trkpt>
      <trkpt lat="43.1249604234874" lon="-4.9811363127129">
        <ele>1462.69319152832</ele>
        <time>2018-08-28T11:34:45Z</time>
      </trkpt>
      <trkpt lat="43.1249896763294" lon="-4.98107646592425">
        <ele>1462.76448059082</ele>
        <time>2018-08-28T11:34:46Z</time>
      </trkpt>
      <trkpt lat="43.1250085356116" lon="-4.98101561330723">
        <ele>1462.65827941895</ele>
        <time>2018-08-28T11:34:47Z</time>
      </trkpt>
      <trkpt lat="43.1250184681668" lon="-4.9809426069306">
        <ele>1462.1841583252</ele>
        <time>2018-08-28T11:34:48Z</time>
      </trkpt>
      <trkpt lat="43.1250020396366" lon="-4.98087010346817">
        <ele>1462.13301086426</ele>
        <time>2018-08-28T11:34:49Z</time>
      </trkpt>
      <trkpt lat="43.1249774387508" lon="-4.98081662692594">
        <ele>1462.49494934082</ele>
        <time>2018-08-28T11:34:50Z</time>
      </trkpt>
      <trkpt lat="43.1249388819962" lon="-4.98077941127585">
        <ele>1463.71516418457</ele>
        <time>2018-08-28T11:34:56Z</time>
      </trkpt>
      <trkpt lat="43.1248929910763" lon="-4.98074387200641">
        <ele>1463.01094055176</ele>
        <time>2018-08-28T11:35:08Z</time>
      </trkpt>
      <trkpt lat="43.1248340243875" lon="-4.98071470298337">
        <ele>1464.36433410645</ele>
        <time>2018-08-28T11:35:11Z</time>
      </trkpt>
      <trkpt lat="43.124765250872" lon="-4.98070372269021">
        <ele>1465.04267883301</ele>
        <time>2018-08-28T11:35:13Z</time>
      </trkpt>
      <trkpt lat="43.1246952619805" lon="-4.98069802299606">
        <ele>1465.20942687988</ele>
        <time>2018-08-28T11:35:15Z</time>
      </trkpt>
      <trkpt lat="43.1246211659565" lon="-4.98068804853128">
        <ele>1466.74531555176</ele>
        <time>2018-08-28T11:35:17Z</time>
      </trkpt>
      <trkpt lat="43.1245436752617" lon="-4.98067002743946">
        <ele>1466.92427062988</ele>
        <time>2018-08-28T11:35:19Z</time>
      </trkpt>
      <trkpt lat="43.1244629994436" lon="-4.9806524254428">
        <ele>1464.86494445801</ele>
        <time>2018-08-28T11:35:21Z</time>
      </trkpt>
      <trkpt lat="43.1243796833261" lon="-4.98064622283446">
        <ele>1464.90791320801</ele>
        <time>2018-08-28T11:35:23Z</time>
      </trkpt>
      <trkpt lat="43.1242971215799" lon="-4.98064253479706">
        <ele>1463.89448547363</ele>
        <time>2018-08-28T11:35:25Z</time>
      </trkpt>
      <trkpt lat="43.1242208881705" lon="-4.9806439597206">
        <ele>1465.80830383301</ele>
        <time>2018-08-28T11:35:27Z</time>
      </trkpt>
      <trkpt lat="43.1241413858189" lon="-4.98063331470357">
        <ele>1466.09785461426</ele>
        <time>2018-08-28T11:35:29Z</time>
      </trkpt>
      <trkpt lat="43.1240829220443" lon="-4.98054773547219">
        <ele>1466.33027648926</ele>
        <time>2018-08-28T11:35:31Z</time>
      </trkpt>
      <trkpt lat="43.124048933427" lon="-4.98046098277437">
        <ele>1466.0884552002</ele>
        <time>2018-08-28T11:35:33Z</time>
      </trkpt>
      <trkpt lat="43.1240149867191" lon="-4.98035847209858">
        <ele>1466.22602844238</ele>
        <time>2018-08-28T11:35:35Z</time>
      </trkpt>
      <trkpt lat="43.1239757175028" lon="-4.98030072078573">
        <ele>1464.23274230957</ele>
        <time>2018-08-28T11:35:36Z</time>
      </trkpt>
      <trkpt lat="43.1239384599432" lon="-4.98024598695802">
        <ele>1462.96308898926</ele>
        <time>2018-08-28T11:35:37Z</time>
      </trkpt>
      <trkpt lat="43.1238902220904" lon="-4.98020499945151">
        <ele>1462.81941223145</ele>
        <time>2018-08-28T11:35:38Z</time>
      </trkpt>
      <trkpt lat="43.1238233764126" lon="-4.98016694561111">
        <ele>1462.74604797363</ele>
        <time>2018-08-28T11:35:39Z</time>
      </trkpt>
      <trkpt lat="43.1237626495241" lon="-4.9801378604071">
        <ele>1462.1802520752</ele>
        <time>2018-08-28T11:35:40Z</time>
      </trkpt>
      <trkpt lat="43.1237058621302" lon="-4.98014263809191">
        <ele>1462.32209777832</ele>
        <time>2018-08-28T11:35:41Z</time>
      </trkpt>
      <trkpt lat="43.1236361246958" lon="-4.98011229560243">
        <ele>1460.43782043457</ele>
        <time>2018-08-28T11:35:42Z</time>
      </trkpt>
      <trkpt lat="43.1235596398293" lon="-4.98011623509692">
        <ele>1459.56196594238</ele>
        <time>2018-08-28T11:35:43Z</time>
      </trkpt>
      <trkpt lat="43.1234766170784" lon="-4.98011095449792">
        <ele>1459.62287902832</ele>
        <time>2018-08-28T11:35:44Z</time>
      </trkpt>
      <trkpt lat="43.1233849609672" lon="-4.98012838885652">
        <ele>1459.78462219238</ele>
        <time>2018-08-28T11:35:45Z</time>
      </trkpt>
      <trkpt lat="43.1232599029719" lon="-4.98009343632029">
        <ele>1458.07722473145</ele>
        <time>2018-08-28T11:35:46Z</time>
      </trkpt>
      <trkpt lat="43.1231588172197" lon="-4.98008505441712">
        <ele>1456.85139465332</ele>
        <time>2018-08-28T11:35:47Z</time>
      </trkpt>
      <trkpt lat="43.1230563903629" lon="-4.97999637388157">
        <ele>1457.37886047363</ele>
        <time>2018-08-28T11:35:48Z</time>
      </trkpt>
      <trkpt lat="43.1229475094407" lon="-4.9799687136011">
        <ele>1457.01936340332</ele>
        <time>2018-08-28T11:35:49Z</time>
      </trkpt>
      <trkpt lat="43.1228369521379" lon="-4.9799755867617">
        <ele>1455.64192199707</ele>
        <time>2018-08-28T11:35:50Z</time>
      </trkpt>
      <trkpt lat="43.1227343157335" lon="-4.97995924205052">
        <ele>1454.1490020752</ele>
        <time>2018-08-28T11:35:51Z</time>
      </trkpt>
      <trkpt lat="43.1226317212387" lon="-4.97993686236905">
        <ele>1452.80952453613</ele>
        <time>2018-08-28T11:35:52Z</time>
      </trkpt>
      <trkpt lat="43.1225132430374" lon="-4.97991062701212">
        <ele>1454.21943664551</ele>
        <time>2018-08-28T11:35:53Z</time>
      </trkpt>
      <trkpt lat="43.1224094750761" lon="-4.97993191704618">
        <ele>1451.61006164551</ele>
        <time>2018-08-28T11:35:54Z</time>
      </trkpt>
      <trkpt lat="43.1223083893239" lon="-4.9799512792425">
        <ele>1450.52778625488</ele>
        <time>2018-08-28T11:35:55Z</time>
      </trkpt>
      <trkpt lat="43.1222118717089" lon="-4.97998908162581">
        <ele>1450.40400695801</ele>
        <time>2018-08-28T11:35:56Z</time>
      </trkpt>
      <trkpt lat="43.1221148092701" lon="-4.98006233945953">
        <ele>1449.29951477051</ele>
        <time>2018-08-28T11:35:57Z</time>
      </trkpt>
      <trkpt lat="43.1220109155803" lon="-4.98012897558974">
        <ele>1448.47053527832</ele>
        <time>2018-08-28T11:35:58Z</time>
      </trkpt>
      <trkpt lat="43.1219285633817" lon="-4.98025872745084">
        <ele>1445.47077941895</ele>
        <time>2018-08-28T11:35:59Z</time>
      </trkpt>
      <trkpt lat="43.1218325905903" lon="-4.98031220399307">
        <ele>1446.53071594238</ele>
        <time>2018-08-28T11:36:00Z</time>
      </trkpt>
      <trkpt lat="43.1217314210191" lon="-4.98036626726853">
        <ele>1446.97749328613</ele>
        <time>2018-08-28T11:36:01Z</time>
      </trkpt>
      <trkpt lat="43.1216257252201" lon="-4.98041488230692">
        <ele>1447.27229309082</ele>
        <time>2018-08-28T11:36:02Z</time>
      </trkpt>
      <trkpt lat="43.121521160978" lon="-4.98043608852195">
        <ele>1448.76643371582</ele>
        <time>2018-08-28T11:36:03Z</time>
      </trkpt>
      <trkpt lat="43.1214104779466" lon="-4.98048897833096">
        <ele>1446.57649230957</ele>
        <time>2018-08-28T11:36:04Z</time>
      </trkpt>
      <trkpt lat="43.1212909939169" lon="-4.98048705049323">
        <ele>1445.48152160645</ele>
        <time>2018-08-28T11:36:05Z</time>
      </trkpt>
      <trkpt lat="43.1211852142989" lon="-4.98048101552295">
        <ele>1445.24458312988</ele>
        <time>2018-08-28T11:36:06Z</time>
      </trkpt>
      <trkpt lat="43.1210836256325" lon="-4.98049509712027">
        <ele>1443.84748840332</ele>
        <time>2018-08-28T11:36:07Z</time>
      </trkpt>
      <trkpt lat="43.1209811149567" lon="-4.98048772104548">
        <ele>1444.35432434082</ele>
        <time>2018-08-28T11:36:08Z</time>
      </trkpt>
      <trkpt lat="43.1208832981467" lon="-4.98047699220942">
        <ele>1442.75666809082</ele>
        <time>2018-08-28T11:36:09Z</time>
      </trkpt>
      <trkpt lat="43.1207836373179" lon="-4.98046693392562">
        <ele>1442.49873352051</ele>
        <time>2018-08-28T11:36:10Z</time>
      </trkpt>
      <trkpt lat="43.1206971360772" lon="-4.98046668246852">
        <ele>1441.69953918457</ele>
        <time>2018-08-28T11:36:11Z</time>
      </trkpt>
      <trkpt lat="43.1206039712235" lon="-4.98046559282111">
        <ele>1441.71113586426</ele>
        <time>2018-08-28T11:36:12Z</time>
      </trkpt>
      <trkpt lat="43.1205423642351" lon="-4.98055125587152">
        <ele>1440.74824523926</ele>
        <time>2018-08-28T11:36:13Z</time>
      </trkpt>
      <trkpt lat="43.1204653764545" lon="-4.98057304881977">
        <ele>1439.40571594238</ele>
        <time>2018-08-28T11:36:14Z</time>
      </trkpt>
      <trkpt lat="43.1203787913948" lon="-4.98060875572728">
        <ele>1439.89375305176</ele>
        <time>2018-08-28T11:36:15Z</time>
      </trkpt>
      <trkpt lat="43.1203219201817" lon="-4.98063691892194">
        <ele>1440.10810852051</ele>
        <time>2018-08-28T11:36:16Z</time>
      </trkpt>
      <trkpt lat="43.1202555355086" lon="-4.98065317981409">
        <ele>1439.06953430176</ele>
        <time>2018-08-28T11:36:17Z</time>
      </trkpt>
      <trkpt lat="43.1201934256061" lon="-4.98064655811058">
        <ele>1438.86042785645</ele>
        <time>2018-08-28T11:36:18Z</time>
      </trkpt>
      <trkpt lat="43.1201190362155" lon="-4.9805884715216">
        <ele>1440.00764465332</ele>
        <time>2018-08-28T11:36:19Z</time>
      </trkpt>
      <trkpt lat="43.120070253539" lon="-4.98054815456735">
        <ele>1438.66133117676</ele>
        <time>2018-08-28T11:36:20Z</time>
      </trkpt>
      <trkpt lat="43.1200129632308" lon="-4.98050532304214">
        <ele>1438.63911437988</ele>
        <time>2018-08-28T11:36:21Z</time>
      </trkpt>
      <trkpt lat="43.1199960736959" lon="-4.98042946681844">
        <ele>1437.1236114502</ele>
        <time>2018-08-28T11:36:22Z</time>
      </trkpt>
      <trkpt lat="43.120019878301" lon="-4.9803624954121">
        <ele>1435.01387023926</ele>
        <time>2018-08-28T11:36:23Z</time>
      </trkpt>
      <trkpt lat="43.1200419227063" lon="-4.98028890230225">
        <ele>1434.88069152832</ele>
        <time>2018-08-28T11:36:24Z</time>
      </trkpt>
      <trkpt lat="43.120063589926" lon="-4.9802176561253">
        <ele>1434.89057922363</ele>
        <time>2018-08-28T11:36:25Z</time>
      </trkpt>
      <trkpt lat="43.120082197751" lon="-4.9801468290435">
        <ele>1435.09394836426</ele>
        <time>2018-08-28T11:36:26Z</time>
      </trkpt>
      <trkpt lat="43.1201189523964" lon="-4.98007549904751">
        <ele>1434.61103820801</ele>
        <time>2018-08-28T11:36:27Z</time>
      </trkpt>
      <trkpt lat="43.120150929357" lon="-4.97999377549158">
        <ele>1434.15742492676</ele>
        <time>2018-08-28T11:36:28Z</time>
      </trkpt>
      <trkpt lat="43.1201940961584" lon="-4.97990383767055">
        <ele>1433.14863586426</ele>
        <time>2018-08-28T11:36:29Z</time>
      </trkpt>
      <trkpt lat="43.1202396098926" lon="-4.97982571833299">
        <ele>1432.53193664551</ele>
        <time>2018-08-28T11:36:30Z</time>
      </trkpt>
      <trkpt lat="43.1202663062542" lon="-4.97973435558842">
        <ele>1431.68501281738</ele>
        <time>2018-08-28T11:36:31Z</time>
      </trkpt>
      <trkpt lat="43.120301552157" lon="-4.97965372167991">
        <ele>1429.78926086426</ele>
        <time>2018-08-28T11:36:32Z</time>
      </trkpt>
      <trkpt lat="43.1203469401627" lon="-4.97957761399912">
        <ele>1429.35737609863</ele>
        <time>2018-08-28T11:36:33Z</time>
      </trkpt>
      <trkpt lat="43.1204031408235" lon="-4.97950661927925">
        <ele>1428.47944641113</ele>
        <time>2018-08-28T11:36:34Z</time>
      </trkpt>
      <trkpt lat="43.1204419490352" lon="-4.97942078859078">
        <ele>1430.01472473145</ele>
        <time>2018-08-28T11:36:35Z</time>
      </trkpt>
      <trkpt lat="43.1205039751186" lon="-4.9793505482422">
        <ele>1430.43013000488</ele>
        <time>2018-08-28T11:36:36Z</time>
      </trkpt>
      <trkpt lat="43.1205531349807" lon="-4.9792675674008">
        <ele>1430.58638000488</ele>
        <time>2018-08-28T11:36:37Z</time>
      </trkpt>
      <trkpt lat="43.1206143228739" lon="-4.97917679138945">
        <ele>1430.13130187988</ele>
        <time>2018-08-28T11:36:38Z</time>
      </trkpt>
      <trkpt lat="43.1206669612258" lon="-4.97908668593036">
        <ele>1429.7574005127</ele>
        <time>2018-08-28T11:36:39Z</time>
      </trkpt>
      <trkpt lat="43.1207075296371" lon="-4.97899792157577">
        <ele>1429.28608703613</ele>
        <time>2018-08-28T11:36:40Z</time>
      </trkpt>
      <trkpt lat="43.1207530852809" lon="-4.97890622355508">
        <ele>1428.46882629395</ele>
        <time>2018-08-28T11:36:41Z</time>
      </trkpt>
      <trkpt lat="43.1207833020418" lon="-4.97880463488864">
        <ele>1427.06221008301</ele>
        <time>2018-08-28T11:36:42Z</time>
      </trkpt>
      <trkpt lat="43.120807609561" lon="-4.97869558632837">
        <ele>1425.52571105957</ele>
        <time>2018-08-28T11:36:43Z</time>
      </trkpt>
      <trkpt lat="43.1208029576048" lon="-4.97857538983689">
        <ele>1423.82026672363</ele>
        <time>2018-08-28T11:36:44Z</time>
      </trkpt>
      <trkpt lat="43.1208599964558" lon="-4.97845896520184">
        <ele>1425.24311828613</ele>
        <time>2018-08-28T11:36:45Z</time>
      </trkpt>
      <trkpt lat="43.1208954519063" lon="-4.97833784670101">
        <ele>1425.51509094238</ele>
        <time>2018-08-28T11:36:46Z</time>
      </trkpt>
      <trkpt lat="43.1209702184825" lon="-4.97823206708299">
        <ele>1424.16096496582</ele>
        <time>2018-08-28T11:36:47Z</time>
      </trkpt>
      <trkpt lat="43.1210584799229" lon="-4.97813550755845">
        <ele>1424.01008605957</ele>
        <time>2018-08-28T11:36:48Z</time>
      </trkpt>
      <trkpt lat="43.1211417541309" lon="-4.97804070823358">
        <ele>1423.9468536377</ele>
        <time>2018-08-28T11:36:49Z</time>
      </trkpt>
      <trkpt lat="43.1212233100488" lon="-4.97796921059953">
        <ele>1422.30110168457</ele>
        <time>2018-08-28T11:36:50Z</time>
      </trkpt>
      <trkpt lat="43.1213162234455" lon="-4.97792252339886">
        <ele>1421.78462219238</ele>
        <time>2018-08-28T11:36:51Z</time>
      </trkpt>
      <trkpt lat="43.1213799259096" lon="-4.9778359383391">
        <ele>1422.02058410645</ele>
        <time>2018-08-28T11:36:52Z</time>
      </trkpt>
      <trkpt lat="43.1214454723924" lon="-4.97774566524194">
        <ele>1420.06257629395</ele>
        <time>2018-08-28T11:36:53Z</time>
      </trkpt>
      <trkpt lat="43.1215339433803" lon="-4.97766905464696">
        <ele>1419.17121887207</ele>
        <time>2018-08-28T11:36:54Z</time>
      </trkpt>
      <trkpt lat="43.1215819716855" lon="-4.97758003883527">
        <ele>1417.3540802002</ele>
        <time>2018-08-28T11:36:55Z</time>
      </trkpt>
      <trkpt lat="43.1216641143366" lon="-4.97746923007535">
        <ele>1417.45893859863</ele>
        <time>2018-08-28T11:36:56Z</time>
      </trkpt>
      <trkpt lat="43.1217239611252" lon="-4.97736277990507">
        <ele>1417.21870422363</ele>
        <time>2018-08-28T11:36:57Z</time>
      </trkpt>
      <trkpt lat="43.1217936566501" lon="-4.9772576708393">
        <ele>1416.74531555176</ele>
        <time>2018-08-28T11:36:58Z</time>
      </trkpt>
      <trkpt lat="43.1218781462341" lon="-4.97714803554581">
        <ele>1416.68452453613</ele>
        <time>2018-08-28T11:36:59Z</time>
      </trkpt>
      <trkpt lat="43.1219442794501" lon="-4.97702892870174">
        <ele>1415.03901672363</ele>
        <time>2018-08-28T11:37:00Z</time>
      </trkpt>
      <trkpt lat="43.1220106222137" lon="-4.9769204668747">
        <ele>1414.3882598877</ele>
        <time>2018-08-28T11:37:01Z</time>
      </trkpt>
      <trkpt lat="43.1220356421947" lon="-4.97679088265167">
        <ele>1414.64436340332</ele>
        <time>2018-08-28T11:37:02Z</time>
      </trkpt>
      <trkpt lat="43.1221213052451" lon="-4.97667613439725">
        <ele>1413.07698059082</ele>
        <time>2018-08-28T11:37:03Z</time>
      </trkpt>
      <trkpt lat="43.1221700879215" lon="-4.97657756321596">
        <ele>1413.19343566895</ele>
        <time>2018-08-28T11:37:04Z</time>
      </trkpt>
      <trkpt lat="43.1222210079833" lon="-4.97645032592581">
        <ele>1414.02973937988</ele>
        <time>2018-08-28T11:37:05Z</time>
      </trkpt>
      <trkpt lat="43.1222325750097" lon="-4.97632023878859">
        <ele>1413.87702941895</ele>
        <time>2018-08-28T11:37:06Z</time>
      </trkpt>
      <trkpt lat="43.1222336646571" lon="-4.97616886161731">
        <ele>1413.7837677002</ele>
        <time>2018-08-28T11:37:07Z</time>
      </trkpt>
      <trkpt lat="43.122257050167" lon="-4.9760329909669">
        <ele>1413.46382141113</ele>
        <time>2018-08-28T11:37:08Z</time>
      </trkpt>
      <trkpt lat="43.1222898234084" lon="-4.97590608895288">
        <ele>1413.26826477051</ele>
        <time>2018-08-28T11:37:09Z</time>
      </trkpt>
      <trkpt lat="43.1223368039756" lon="-4.9757755827205">
        <ele>1413.16181945801</ele>
        <time>2018-08-28T11:37:10Z</time>
      </trkpt>
      <trkpt lat="43.1223728042497" lon="-4.97565764934288">
        <ele>1413.11994934082</ele>
        <time>2018-08-28T11:37:11Z</time>
      </trkpt>
      <trkpt lat="43.1223988300591" lon="-4.97552303597794">
        <ele>1412.59736633301</ele>
        <time>2018-08-28T11:37:12Z</time>
      </trkpt>
      <trkpt lat="43.1224108999997" lon="-4.97538817115591">
        <ele>1411.60005187988</ele>
        <time>2018-08-28T11:37:13Z</time>
      </trkpt>
      <trkpt lat="43.1224040687486" lon="-4.97524685226844">
        <ele>1411.01509094238</ele>
        <time>2018-08-28T11:37:14Z</time>
      </trkpt>
      <trkpt lat="43.1224153843179" lon="-4.97510704212354">
        <ele>1410.95222473145</ele>
        <time>2018-08-28T11:37:15Z</time>
      </trkpt>
      <trkpt lat="43.1224558270007" lon="-4.97501056641804">
        <ele>1410.95686340332</ele>
        <time>2018-08-28T11:37:16Z</time>
      </trkpt>
      <trkpt lat="43.1223413302033" lon="-4.97491610236929">
        <ele>1410.43440246582</ele>
        <time>2018-08-28T11:37:17Z</time>
      </trkpt>
      <trkpt lat="43.1223177351459" lon="-4.97484426945911">
        <ele>1409.72016906738</ele>
        <time>2018-08-28T11:37:18Z</time>
      </trkpt>
      <trkpt lat="43.1222855486377" lon="-4.97475625947581">
        <ele>1407.09077453613</ele>
        <time>2018-08-28T11:37:19Z</time>
      </trkpt>
      <trkpt lat="43.1222354667663" lon="-4.97470362112389">
        <ele>1404.3189239502</ele>
        <time>2018-08-28T11:37:20Z</time>
      </trkpt>
      <trkpt lat="43.1221614545613" lon="-4.97472650371955">
        <ele>1404.00141906738</ele>
        <time>2018-08-28T11:37:21Z</time>
      </trkpt>
      <trkpt lat="43.1220896216511" lon="-4.97479590587781">
        <ele>1401.13374328613</ele>
        <time>2018-08-28T11:37:22Z</time>
      </trkpt>
      <trkpt lat="43.122024619992" lon="-4.97484326363073">
        <ele>1400.30207824707</ele>
        <time>2018-08-28T11:37:23Z</time>
      </trkpt>
      <trkpt lat="43.1219747895776" lon="-4.97484720312522">
        <ele>1400.32234191895</ele>
        <time>2018-08-28T11:37:24Z</time>
      </trkpt>
      <trkpt lat="43.1219084049045" lon="-4.97485918924676">
        <ele>1400.20722961426</ele>
        <time>2018-08-28T11:37:25Z</time>
      </trkpt>
      <trkpt lat="43.1218382064655" lon="-4.97490579262839">
        <ele>1394.92573547363</ele>
        <time>2018-08-28T11:37:26Z</time>
      </trkpt>
      <trkpt lat="43.1217652419984" lon="-4.97493102215694">
        <ele>1393.91584777832</ele>
        <time>2018-08-28T11:37:27Z</time>
      </trkpt>
      <trkpt lat="43.1216889666795" lon="-4.97492423281537">
        <ele>1394.14729309082</ele>
        <time>2018-08-28T11:37:28Z</time>
      </trkpt>
      <trkpt lat="43.1216205284401" lon="-4.97493638657497">
        <ele>1392.3452911377</ele>
        <time>2018-08-28T11:37:29Z</time>
      </trkpt>
      <trkpt lat="43.1215178501263" lon="-4.97487519868181">
        <ele>1395.70991516113</ele>
        <time>2018-08-28T11:37:30Z</time>
      </trkpt>
      <trkpt lat="43.1214311812475" lon="-4.97488953173624">
        <ele>1395.36763000488</ele>
        <time>2018-08-28T11:37:31Z</time>
      </trkpt>
      <trkpt lat="43.1213392317697" lon="-4.97490847483741">
        <ele>1395.1187286377</ele>
        <time>2018-08-28T11:37:32Z</time>
      </trkpt>
      <trkpt lat="43.1212469051062" lon="-4.97491342016028">
        <ele>1394.60981750488</ele>
        <time>2018-08-28T11:37:33Z</time>
      </trkpt>
      <trkpt lat="43.1211629184365" lon="-4.97489372268782">
        <ele>1393.60530090332</ele>
        <time>2018-08-28T11:37:34Z</time>
      </trkpt>
      <trkpt lat="43.1210835837229" lon="-4.97481627390252">
        <ele>1392.74751281738</ele>
        <time>2018-08-28T11:37:35Z</time>
      </trkpt>
      <trkpt lat="43.1209842581704" lon="-4.97470705770419">
        <ele>1391.29780578613</ele>
        <time>2018-08-28T11:37:36Z</time>
      </trkpt>
      <trkpt lat="43.1208865670889" lon="-4.97465827502774">
        <ele>1390.45808410645</ele>
        <time>2018-08-28T11:37:37Z</time>
      </trkpt>
      <trkpt lat="43.1207860680699" lon="-4.9746050499426">
        <ele>1389.58930969238</ele>
        <time>2018-08-28T11:37:38Z</time>
      </trkpt>
      <trkpt lat="43.1206864910602" lon="-4.97457797639535">
        <ele>1387.96040344238</ele>
        <time>2018-08-28T11:37:39Z</time>
      </trkpt>
      <trkpt lat="43.1205890095263" lon="-4.97455031611489">
        <ele>1387.24812316895</ele>
        <time>2018-08-28T11:37:40Z</time>
      </trkpt>
      <trkpt lat="43.1204925757303" lon="-4.97453263029919">
        <ele>1388.15339660645</ele>
        <time>2018-08-28T11:37:41Z</time>
      </trkpt>
      <trkpt lat="43.1203850359126" lon="-4.9745115079032">
        <ele>1387.38056945801</ele>
        <time>2018-08-28T11:37:42Z</time>
      </trkpt>
      <trkpt lat="43.1202886440261" lon="-4.97451393865512">
        <ele>1385.6031036377</ele>
        <time>2018-08-28T11:37:43Z</time>
      </trkpt>
      <trkpt lat="43.1201912463113" lon="-4.97452936135696">
        <ele>1384.68305969238</ele>
        <time>2018-08-28T11:37:44Z</time>
      </trkpt>
      <trkpt lat="43.1200914178445" lon="-4.97455618344711">
        <ele>1384.74983215332</ele>
        <time>2018-08-28T11:37:45Z</time>
      </trkpt>
      <trkpt lat="43.1199814053654" lon="-4.97461427003608">
        <ele>1384.4751739502</ele>
        <time>2018-08-28T11:37:46Z</time>
      </trkpt>
      <trkpt lat="43.1198708480626" lon="-4.97471309267448">
        <ele>1384.17671203613</ele>
        <time>2018-08-28T11:37:47Z</time>
      </trkpt>
      <trkpt lat="43.1197720673337" lon="-4.97481870465444">
        <ele>1383.30671691895</ele>
        <time>2018-08-28T11:37:48Z</time>
      </trkpt>
      <trkpt lat="43.1196675030916" lon="-4.97492968105243">
        <ele>1383.44209289551</ele>
        <time>2018-08-28T11:37:49Z</time>
      </trkpt>
      <trkpt lat="43.1195657886966" lon="-4.97502129525409">
        <ele>1383.85066223145</ele>
        <time>2018-08-28T11:37:50Z</time>
      </trkpt>
      <trkpt lat="43.1194668822392" lon="-4.97510687448548">
        <ele>1383.69514465332</ele>
        <time>2018-08-28T11:37:51Z</time>
      </trkpt>
      <trkpt lat="43.1194362882926" lon="-4.97515884228514">
        <ele>1382.17024230957</ele>
        <time>2018-08-28T11:37:52Z</time>
      </trkpt>
      <trkpt lat="43.1193517987087" lon="-4.97521089390384">
        <ele>1382.25495910645</ele>
        <time>2018-08-28T11:37:53Z</time>
      </trkpt>
      <trkpt lat="43.1192553230032" lon="-4.97523033991919">
        <ele>1381.64936828613</ele>
        <time>2018-08-28T11:37:54Z</time>
      </trkpt>
      <trkpt lat="43.1191971945047" lon="-4.97518960386978">
        <ele>1379.2124786377</ele>
        <time>2018-08-28T11:37:55Z</time>
      </trkpt>
      <trkpt lat="43.1190968212142" lon="-4.97516445816027">
        <ele>1377.71174621582</ele>
        <time>2018-08-28T11:37:56Z</time>
      </trkpt>
      <trkpt lat="43.1189984176709" lon="-4.97514375485943">
        <ele>1377.19551086426</ele>
        <time>2018-08-28T11:37:57Z</time>
      </trkpt>
      <trkpt lat="43.1189093599497" lon="-4.97515716590451">
        <ele>1375.15205383301</ele>
        <time>2018-08-28T11:37:58Z</time>
      </trkpt>
      <trkpt lat="43.1188123813301" lon="-4.97518382035659">
        <ele>1374.81355285645</ele>
        <time>2018-08-28T11:37:59Z</time>
      </trkpt>
      <trkpt lat="43.1187363993778" lon="-4.97525313869582">
        <ele>1374.88557434082</ele>
        <time>2018-08-28T11:38:00Z</time>
      </trkpt>
      <trkpt lat="43.1186426477908" lon="-4.9752766080247">
        <ele>1374.84858703613</ele>
        <time>2018-08-28T11:38:01Z</time>
      </trkpt>
      <trkpt lat="43.1185613852396" lon="-4.97523939237462">
        <ele>1374.59382629395</ele>
        <time>2018-08-28T11:38:02Z</time>
      </trkpt>
      <trkpt lat="43.1184683461144" lon="-4.97519739903973">
        <ele>1375.41316223145</ele>
        <time>2018-08-28T11:38:03Z</time>
      </trkpt>
      <trkpt lat="43.1183815095975" lon="-4.97515867464708">
        <ele>1375.32234191895</ele>
        <time>2018-08-28T11:38:04Z</time>
      </trkpt>
      <trkpt lat="43.1183011690556" lon="-4.97515448369549">
        <ele>1373.63764953613</ele>
        <time>2018-08-28T11:38:05Z</time>
      </trkpt>
      <trkpt lat="43.1181958085328" lon="-4.97514802963005">
        <ele>1371.94404602051</ele>
        <time>2018-08-28T11:38:06Z</time>
      </trkpt>
      <trkpt lat="43.1180967763468" lon="-4.97515347786711">
        <ele>1371.57746887207</ele>
        <time>2018-08-28T11:38:07Z</time>
      </trkpt>
      <trkpt lat="43.1180030247598" lon="-4.97519102879332">
        <ele>1368.50849914551</ele>
        <time>2018-08-28T11:38:08Z</time>
      </trkpt>
      <trkpt lat="43.1178885279625" lon="-4.97520343401001">
        <ele>1365.0093536377</ele>
        <time>2018-08-28T11:38:09Z</time>
      </trkpt>
      <trkpt lat="43.1177923875331" lon="-4.97522279620634">
        <ele>1363.78047180176</ele>
        <time>2018-08-28T11:38:10Z</time>
      </trkpt>
      <trkpt lat="43.1176876975625" lon="-4.97524785809682">
        <ele>1362.79853820801</ele>
        <time>2018-08-28T11:38:11Z</time>
      </trkpt>
      <trkpt lat="43.1175949937134" lon="-4.97527023777829">
        <ele>1361.90730285645</ele>
        <time>2018-08-28T11:38:12Z</time>
      </trkpt>
      <trkpt lat="43.1174872862577" lon="-4.97528314590917">
        <ele>1361.00984191895</ele>
        <time>2018-08-28T11:38:13Z</time>
      </trkpt>
      <trkpt lat="43.1173862843244" lon="-4.97532195412086">
        <ele>1359.83052062988</ele>
        <time>2018-08-28T11:38:14Z</time>
      </trkpt>
      <trkpt lat="43.1172857014864" lon="-4.97536797076927">
        <ele>1358.61213684082</ele>
        <time>2018-08-28T11:38:15Z</time>
      </trkpt>
      <trkpt lat="43.1171852024674" lon="-4.97541943565474">
        <ele>1357.36640930176</ele>
        <time>2018-08-28T11:38:16Z</time>
      </trkpt>
      <trkpt lat="43.1170965638413" lon="-4.97546587139831">
        <ele>1356.2886505127</ele>
        <time>2018-08-28T11:38:17Z</time>
      </trkpt>
      <trkpt lat="43.1170198275178" lon="-4.97555689886676">
        <ele>1354.19136047363</ele>
        <time>2018-08-28T11:38:18Z</time>
      </trkpt>
      <trkpt lat="43.1169342482864" lon="-4.97564725578295">
        <ele>1353.32820129395</ele>
        <time>2018-08-28T11:38:19Z</time>
      </trkpt>
      <trkpt lat="43.1168468250363" lon="-4.97573836707042">
        <ele>1352.98579406738</ele>
        <time>2018-08-28T11:38:20Z</time>
      </trkpt>
      <trkpt lat="43.1167716393649" lon="-4.97582151554988">
        <ele>1353.05867004395</ele>
        <time>2018-08-28T11:38:21Z</time>
      </trkpt>
      <trkpt lat="43.1167307775869" lon="-4.97589787468778">
        <ele>1351.5718536377</ele>
        <time>2018-08-28T11:38:22Z</time>
      </trkpt>
      <trkpt lat="43.1166682904988" lon="-4.9759603198664">
        <ele>1351.89070129395</ele>
        <time>2018-08-28T11:38:23Z</time>
      </trkpt>
      <trkpt lat="43.1166195916413" lon="-4.97602075338827">
        <ele>1351.43086242676</ele>
        <time>2018-08-28T11:38:24Z</time>
      </trkpt>
      <trkpt lat="43.1165659055515" lon="-4.97606425546573">
        <ele>1350.95686340332</ele>
        <time>2018-08-28T11:38:25Z</time>
      </trkpt>
      <trkpt lat="43.1164870318427" lon="-4.97596275061832">
        <ele>1352.44721984863</ele>
        <time>2018-08-28T11:38:27Z</time>
      </trkpt>
      <trkpt lat="43.1164539233252" lon="-4.97586526908444">
        <ele>1354.30110168457</ele>
        <time>2018-08-28T11:38:28Z</time>
      </trkpt>
      <trkpt lat="43.1164841400861" lon="-4.97573769651817">
        <ele>1351.50093078613</ele>
        <time>2018-08-28T11:38:30Z</time>
      </trkpt>
      <trkpt lat="43.1165066035866" lon="-4.97566686943637">
        <ele>1351.20161437988</ele>
        <time>2018-08-28T11:38:31Z</time>
      </trkpt>
      <trkpt lat="43.1165452022507" lon="-4.97560769319998">
        <ele>1350.8980255127</ele>
        <time>2018-08-28T11:38:32Z</time>
      </trkpt>
      <trkpt lat="43.1165889557853" lon="-4.97555220500098">
        <ele>1351.14863586426</ele>
        <time>2018-08-28T11:38:33Z</time>
      </trkpt>
      <trkpt lat="43.1166262133449" lon="-4.97550015338229">
        <ele>1351.72138977051</ele>
        <time>2018-08-28T11:38:34Z</time>
      </trkpt>
      <trkpt lat="43.116670260246" lon="-4.97545539401935">
        <ele>1351.59663391113</ele>
        <time>2018-08-28T11:38:35Z</time>
      </trkpt>
      <trkpt lat="43.1167053804203" lon="-4.97540837154256">
        <ele>1351.97724914551</ele>
        <time>2018-08-28T11:38:36Z</time>
      </trkpt>
      <trkpt lat="43.116742805618" lon="-4.97536017559932">
        <ele>1351.80366516113</ele>
        <time>2018-08-28T11:38:37Z</time>
      </trkpt>
      <trkpt lat="43.1168033648684" lon="-4.9752628617035">
        <ele>1352.00239562988</ele>
        <time>2018-08-28T11:38:39Z</time>
      </trkpt>
      <trkpt lat="43.1168312346964" lon="-4.97520888224707">
        <ele>1352.73567199707</ele>
        <time>2018-08-28T11:38:40Z</time>
      </trkpt>
      <trkpt lat="43.116872306022" lon="-4.97516068630384">
        <ele>1352.67304992676</ele>
        <time>2018-08-28T11:38:41Z</time>
      </trkpt>
      <trkpt lat="43.1169380620523" lon="-4.9750588461803">
        <ele>1351.63008117676</ele>
        <time>2018-08-28T11:38:43Z</time>
      </trkpt>
      <trkpt lat="43.1169686559989" lon="-4.97500335798131">
        <ele>1350.43965148926</ele>
        <time>2018-08-28T11:38:44Z</time>
      </trkpt>
      <trkpt lat="43.1170318974584" lon="-4.97496496886478">
        <ele>1350.45930480957</ele>
        <time>2018-08-28T11:38:45Z</time>
      </trkpt>
      <trkpt lat="43.1170709990366" lon="-4.97491006739901">
        <ele>1350.92427062988</ele>
        <time>2018-08-28T11:38:46Z</time>
      </trkpt>
      <trkpt lat="43.1171178538754" lon="-4.97486446984576">
        <ele>1350.71675109863</ele>
        <time>2018-08-28T11:38:47Z</time>
      </trkpt>
      <trkpt lat="43.1171529321402" lon="-4.97481811792122">
        <ele>1349.92475891113</ele>
        <time>2018-08-28T11:38:48Z</time>
      </trkpt>
      <trkpt lat="43.1171969790413" lon="-4.97477562167214">
        <ele>1349.65864562988</ele>
        <time>2018-08-28T11:38:49Z</time>
      </trkpt>
      <trkpt lat="43.1172502041265" lon="-4.97474737465845">
        <ele>1350.10554504395</ele>
        <time>2018-08-28T11:38:50Z</time>
      </trkpt>
      <trkpt lat="43.1172893057048" lon="-4.97469507158266">
        <ele>1349.82136535645</ele>
        <time>2018-08-28T11:38:51Z</time>
      </trkpt>
      <trkpt lat="43.117331005673" lon="-4.97464871965812">
        <ele>1350.57221984863</ele>
        <time>2018-08-28T11:38:52Z</time>
      </trkpt>
      <trkpt lat="43.1173720350891" lon="-4.97459851205812">
        <ele>1351.1695098877</ele>
        <time>2018-08-28T11:38:53Z</time>
      </trkpt>
      <trkpt lat="43.1174113881244" lon="-4.9744906369643">
        <ele>1350.9634552002</ele>
        <time>2018-08-28T11:38:55Z</time>
      </trkpt>
      <trkpt lat="43.117451160255" lon="-4.9744374956982">
        <ele>1350.76679992676</ele>
        <time>2018-08-28T11:38:56Z</time>
      </trkpt>
      <trkpt lat="43.1174797425448" lon="-4.9743822589563">
        <ele>1350.78718566895</ele>
        <time>2018-08-28T11:38:57Z</time>
      </trkpt>
      <trkpt lat="43.1174954586133" lon="-4.97432299890087">
        <ele>1350.40742492676</ele>
        <time>2018-08-28T11:38:58Z</time>
      </trkpt>
      <trkpt lat="43.1175088696583" lon="-4.97425954789387">
        <ele>1350.7798614502</ele>
        <time>2018-08-28T11:38:59Z</time>
      </trkpt>
      <trkpt lat="43.1175156170904" lon="-4.97419173829721">
        <ele>1350.13996887207</ele>
        <time>2018-08-28T11:39:00Z</time>
      </trkpt>
      <trkpt lat="43.117518508847" lon="-4.97411437333093">
        <ele>1350.06233215332</ele>
        <time>2018-08-28T11:39:01Z</time>
      </trkpt>
      <trkpt lat="43.1175229093461" lon="-4.97404119931625">
        <ele>1349.13130187988</ele>
        <time>2018-08-28T11:39:02Z</time>
      </trkpt>
      <trkpt lat="43.1174927344947" lon="-4.97396307997869">
        <ele>1348.95967102051</ele>
        <time>2018-08-28T11:39:03Z</time>
      </trkpt>
      <trkpt lat="43.1174368691101" lon="-4.97388797812627">
        <ele>1349.18086242676</ele>
        <time>2018-08-28T11:39:04Z</time>
      </trkpt>
      <trkpt lat="43.1173875835194" lon="-4.97380935587452">
        <ele>1349.45600891113</ele>
        <time>2018-08-28T11:39:05Z</time>
      </trkpt>
      <trkpt lat="43.1173240486934" lon="-4.97371774167286">
        <ele>1348.18293762207</ele>
        <time>2018-08-28T11:39:06Z</time>
      </trkpt>
      <trkpt lat="43.117287377867" lon="-4.97364616021977">
        <ele>1349.41023254395</ele>
        <time>2018-08-28T11:39:07Z</time>
      </trkpt>
      <trkpt lat="43.117247563827" lon="-4.97354909778104">
        <ele>1348.41938781738</ele>
        <time>2018-08-28T11:39:08Z</time>
      </trkpt>
      <trkpt lat="43.1172056962206" lon="-4.97346485965417">
        <ele>1347.01643371582</ele>
        <time>2018-08-28T11:39:09Z</time>
      </trkpt>
      <trkpt lat="43.1171818916156" lon="-4.97336561792062">
        <ele>1341.40278625488</ele>
        <time>2018-08-28T11:39:11Z</time>
      </trkpt>
      <trkpt lat="43.1171929976373" lon="-4.97326495126353">
        <ele>1340.59590148926</ele>
        <time>2018-08-28T11:39:35Z</time>
      </trkpt>
      <trkpt lat="43.1171640800714" lon="-4.97317258269058">
        <ele>1341.76350402832</ele>
        <time>2018-08-28T11:39:37Z</time>
      </trkpt>
      <trkpt lat="43.1171585899248" lon="-4.97305381112264">
        <ele>1341.64424133301</ele>
        <time>2018-08-28T11:39:38Z</time>
      </trkpt>
      <trkpt lat="43.1171423709422" lon="-4.97298114002214">
        <ele>1341.62605285645</ele>
        <time>2018-08-28T11:39:39Z</time>
      </trkpt>
      <trkpt lat="43.1171400659188" lon="-4.97289933264719">
        <ele>1341.39131164551</ele>
        <time>2018-08-28T11:39:40Z</time>
      </trkpt>
      <trkpt lat="43.1171521358593" lon="-4.97280620970295">
        <ele>1342.52046203613</ele>
        <time>2018-08-28T11:39:42Z</time>
      </trkpt>
      <trkpt lat="43.1171562010824" lon="-4.97272004373835">
        <ele>1342.63557434082</ele>
        <time>2018-08-28T11:39:43Z</time>
      </trkpt>
      <trkpt lat="43.117152513045" lon="-4.97264779173301">
        <ele>1342.02046203613</ele>
        <time>2018-08-28T11:39:44Z</time>
      </trkpt>
      <trkpt lat="43.1171735935315" lon="-4.97254771180914">
        <ele>1341.73225402832</ele>
        <time>2018-08-28T11:39:45Z</time>
      </trkpt>
      <trkpt lat="43.117217347066" lon="-4.97244419530497">
        <ele>1340.46626281738</ele>
        <time>2018-08-28T11:39:46Z</time>
      </trkpt>
      <trkpt lat="43.1172661297425" lon="-4.97236699797676">
        <ele>1338.94172668457</ele>
        <time>2018-08-28T11:39:47Z</time>
      </trkpt>
      <trkpt lat="43.1173191033705" lon="-4.9723100010352">
        <ele>1338.18330383301</ele>
        <time>2018-08-28T11:39:48Z</time>
      </trkpt>
      <trkpt lat="43.1173946662276" lon="-4.97224453837143">
        <ele>1337.47981262207</ele>
        <time>2018-08-28T11:39:49Z</time>
      </trkpt>
      <trkpt lat="43.1174557703017" lon="-4.97220824473069">
        <ele>1336.72969055176</ele>
        <time>2018-08-28T11:39:50Z</time>
      </trkpt>
      <trkpt lat="43.1174913514807" lon="-4.97216071933971">
        <ele>1336.72065734863</ele>
        <time>2018-08-28T11:39:51Z</time>
      </trkpt>
      <trkpt lat="43.1175377872243" lon="-4.97208687477277">
        <ele>1333.59577941895</ele>
        <time>2018-08-28T11:39:53Z</time>
      </trkpt>
      <trkpt lat="43.1176129728957" lon="-4.97203205712603">
        <ele>1333.26826477051</ele>
        <time>2018-08-28T11:39:55Z</time>
      </trkpt>
      <trkpt lat="43.1176473806082" lon="-4.97199073434339">
        <ele>1332.43745422363</ele>
        <time>2018-08-28T11:39:57Z</time>
      </trkpt>
      <trkpt lat="43.1176348077535" lon="-4.97192543931768">
        <ele>1330.52192687988</ele>
        <time>2018-08-28T11:40:54Z</time>
      </trkpt>
      <trkpt lat="43.1176574808016" lon="-4.97183131054507">
        <ele>1329.45698547363</ele>
        <time>2018-08-28T11:40:56Z</time>
      </trkpt>
      <trkpt lat="43.1176687544613" lon="-4.9717589747207">
        <ele>1327.17915344238</ele>
        <time>2018-08-28T11:40:57Z</time>
      </trkpt>
      <trkpt lat="43.1176775554597" lon="-4.97167356312738">
        <ele>1327.44966125488</ele>
        <time>2018-08-28T11:40:58Z</time>
      </trkpt>
      <trkpt lat="43.1176871527388" lon="-4.97158027254508">
        <ele>1327.89265441895</ele>
        <time>2018-08-28T11:40:59Z</time>
      </trkpt>
      <trkpt lat="43.1176704727515" lon="-4.97145932168231">
        <ele>1327.99409484863</ele>
        <time>2018-08-28T11:41:00Z</time>
      </trkpt>
      <trkpt lat="43.1176743703365" lon="-4.97136427090035">
        <ele>1327.30244445801</ele>
        <time>2018-08-28T11:41:01Z</time>
      </trkpt>
      <trkpt lat="43.1176768010884" lon="-4.9712925218092">
        <ele>1327.1597442627</ele>
        <time>2018-08-28T11:41:02Z</time>
      </trkpt>
      <trkpt lat="43.1176663237094" lon="-4.97117894702123">
        <ele>1326.75166320801</ele>
        <time>2018-08-28T11:41:03Z</time>
      </trkpt>
      <trkpt lat="43.1176736997842" lon="-4.9710903503047">
        <ele>1326.49287414551</ele>
        <time>2018-08-28T11:41:04Z</time>
      </trkpt>
      <trkpt lat="43.1176473386987" lon="-4.97096789069937">
        <ele>1326.50825500488</ele>
        <time>2018-08-28T11:41:05Z</time>
      </trkpt>
      <trkpt lat="43.117652158293" lon="-4.97085171752141">
        <ele>1327.65730285645</ele>
        <time>2018-08-28T11:41:06Z</time>
      </trkpt>
      <trkpt lat="43.1176179182186" lon="-4.97075901367233">
        <ele>1327.68281555176</ele>
        <time>2018-08-28T11:41:07Z</time>
      </trkpt>
      <trkpt lat="43.1175770983501" lon="-4.97064996511207">
        <ele>1327.89582824707</ele>
        <time>2018-08-28T11:41:08Z</time>
      </trkpt>
      <trkpt lat="43.1175176287471" lon="-4.97055524960623">
        <ele>1327.80439758301</ele>
        <time>2018-08-28T11:41:09Z</time>
      </trkpt>
      <trkpt lat="43.1174364919244" lon="-4.97048727237151">
        <ele>1326.42756652832</ele>
        <time>2018-08-28T11:41:10Z</time>
      </trkpt>
      <trkpt lat="43.117416878271" lon="-4.97039339505599">
        <ele>1326.03486633301</ele>
        <time>2018-08-28T11:41:11Z</time>
      </trkpt>
      <trkpt lat="43.1173764774977" lon="-4.97029633261726">
        <ele>1326.18464660645</ele>
        <time>2018-08-28T11:41:12Z</time>
      </trkpt>
      <trkpt lat="43.1173400162189" lon="-4.9701701011555">
        <ele>1326.45332336426</ele>
        <time>2018-08-28T11:41:13Z</time>
      </trkpt>
      <trkpt lat="43.1173419021472" lon="-4.97007647529707">
        <ele>1325.74702453613</ele>
        <time>2018-08-28T11:41:14Z</time>
      </trkpt>
      <trkpt lat="43.1173926964804" lon="-4.97001159936652">
        <ele>1325.86225891113</ele>
        <time>2018-08-28T11:41:15Z</time>
      </trkpt>
      <trkpt lat="43.1173861166864" lon="-4.96994429268406">
        <ele>1325.86860656738</ele>
        <time>2018-08-28T11:41:16Z</time>
      </trkpt>
      <trkpt lat="43.1175720272987" lon="-4.96993188746736">
        <ele>1325.11360168457</ele>
        <time>2018-08-28T11:41:17Z</time>
      </trkpt>
      <trkpt lat="43.1176462071418" lon="-4.96989433654115">
        <ele>1324.22663879395</ele>
        <time>2018-08-28T11:41:18Z</time>
      </trkpt>
      <trkpt lat="43.117698216851" lon="-4.96980884112881">
        <ele>1324.10359191895</ele>
        <time>2018-08-28T11:41:19Z</time>
      </trkpt>
      <trkpt lat="43.1177611230343" lon="-4.96973876841829">
        <ele>1324.4634552002</ele>
        <time>2018-08-28T11:41:20Z</time>
      </trkpt>
      <trkpt lat="43.117831698659" lon="-4.96967003681228">
        <ele>1323.29170227051</ele>
        <time>2018-08-28T11:41:21Z</time>
      </trkpt>
      <trkpt lat="43.1179029029264" lon="-4.96960851364301">
        <ele>1322.60627746582</ele>
        <time>2018-08-28T11:41:22Z</time>
      </trkpt>
      <trkpt lat="43.1179666892096" lon="-4.96954891831146">
        <ele>1320.72041320801</ele>
        <time>2018-08-28T11:41:23Z</time>
      </trkpt>
      <trkpt lat="43.1180287572025" lon="-4.96948136017189">
        <ele>1320.42268371582</ele>
        <time>2018-08-28T11:41:24Z</time>
      </trkpt>
      <trkpt lat="43.1180698704376" lon="-4.96940751560495">
        <ele>1319.53425598145</ele>
        <time>2018-08-28T11:41:25Z</time>
      </trkpt>
      <trkpt lat="43.1181059126212" lon="-4.96934498660729">
        <ele>1319.08857727051</ele>
        <time>2018-08-28T11:41:26Z</time>
      </trkpt>
      <trkpt lat="43.1181456428423" lon="-4.96927348897324">
        <ele>1318.74519348145</ele>
        <time>2018-08-28T11:41:27Z</time>
      </trkpt>
      <trkpt lat="43.1181816431164" lon="-4.96919134632216">
        <ele>1319.32051086426</ele>
        <time>2018-08-28T11:41:28Z</time>
      </trkpt>
      <trkpt lat="43.1182119436964" lon="-4.96912294999228">
        <ele>1318.4790802002</ele>
        <time>2018-08-28T11:41:29Z</time>
      </trkpt>
      <trkpt lat="43.1182349520206" lon="-4.96906343847976">
        <ele>1317.38154602051</ele>
        <time>2018-08-28T11:41:30Z</time>
      </trkpt>
      <trkpt lat="43.1182930805191" lon="-4.96905120090113">
        <ele>1314.16218566895</ele>
        <time>2018-08-28T11:41:32Z</time>
      </trkpt>
      <trkpt lat="43.1183359539538" lon="-4.96900225058661">
        <ele>1313.09687805176</ele>
        <time>2018-08-28T11:41:34Z</time>
      </trkpt>
      <trkpt lat="43.1183829764306" lon="-4.96891189367042">
        <ele>1312.80928039551</ele>
        <time>2018-08-28T11:41:36Z</time>
      </trkpt>
      <trkpt lat="43.1184506183892" lon="-4.96888037771449">
        <ele>1312.82014465332</ele>
        <time>2018-08-28T11:41:37Z</time>
      </trkpt>
      <trkpt lat="43.1184961321234" lon="-4.96881533414588">
        <ele>1311.98652648926</ele>
        <time>2018-08-28T11:41:38Z</time>
      </trkpt>
      <trkpt lat="43.1185413944005" lon="-4.96876722202168">
        <ele>1309.95918273926</ele>
        <time>2018-08-28T11:41:39Z</time>
      </trkpt>
      <trkpt lat="43.118574419099" lon="-4.96869035996959">
        <ele>1308.90864562988</ele>
        <time>2018-08-28T11:41:40Z</time>
      </trkpt>
      <trkpt lat="43.1186426058813" lon="-4.96863788925574">
        <ele>1308.79389953613</ele>
        <time>2018-08-28T11:41:41Z</time>
      </trkpt>
      <trkpt lat="43.1186830066546" lon="-4.96853529476092">
        <ele>1309.62934875488</ele>
        <time>2018-08-28T11:41:42Z</time>
      </trkpt>
      <trkpt lat="43.1187670771434" lon="-4.96845306829081">
        <ele>1310.48481750488</ele>
        <time>2018-08-28T11:41:43Z</time>
      </trkpt>
      <trkpt lat="43.1188253313705" lon="-4.96837629005776">
        <ele>1308.1577911377</ele>
        <time>2018-08-28T11:41:44Z</time>
      </trkpt>
      <trkpt lat="43.1189002655848" lon="-4.96826221235559">
        <ele>1308.51594543457</ele>
        <time>2018-08-28T11:41:45Z</time>
      </trkpt>
      <trkpt lat="43.1189804384886" lon="-4.96815458871887">
        <ele>1309.42500305176</ele>
        <time>2018-08-28T11:41:46Z</time>
      </trkpt>
      <trkpt lat="43.1190436799481" lon="-4.96806490235493">
        <ele>1310.05097961426</ele>
        <time>2018-08-28T11:41:47Z</time>
      </trkpt>
      <trkpt lat="43.1191110285401" lon="-4.96797563508616">
        <ele>1308.98237609863</ele>
        <time>2018-08-28T11:41:48Z</time>
      </trkpt>
      <trkpt lat="43.1191908661678" lon="-4.96788050048516">
        <ele>1308.89631652832</ele>
        <time>2018-08-28T11:41:49Z</time>
      </trkpt>
      <trkpt lat="43.119200798723" lon="-4.96775485575662">
        <ele>1305.80500793457</ele>
        <time>2018-08-28T11:41:50Z</time>
      </trkpt>
      <trkpt lat="43.1192678539484" lon="-4.96763164178">
        <ele>1305.36897277832</ele>
        <time>2018-08-28T11:41:51Z</time>
      </trkpt>
      <trkpt lat="43.1193404831394" lon="-4.96753315441773">
        <ele>1305.33857727051</ele>
        <time>2018-08-28T11:41:52Z</time>
      </trkpt>
      <trkpt lat="43.1193973962619" lon="-4.96744061820672">
        <ele>1304.8257598877</ele>
        <time>2018-08-28T11:41:53Z</time>
      </trkpt>
      <trkpt lat="43.1194516271754" lon="-4.96734472923443">
        <ele>1304.1529083252</ele>
        <time>2018-08-28T11:41:54Z</time>
      </trkpt>
      <trkpt lat="43.1194231287047" lon="-4.96725261211858">
        <ele>1304.39936828613</ele>
        <time>2018-08-28T11:41:55Z</time>
      </trkpt>
      <trkpt lat="43.1194271939277" lon="-4.96715295128987">
        <ele>1304.77632141113</ele>
        <time>2018-08-28T11:41:56Z</time>
      </trkpt>
      <trkpt lat="43.1194344442739" lon="-4.96704792604313">
        <ele>1304.25080871582</ele>
        <time>2018-08-28T11:41:57Z</time>
      </trkpt>
      <trkpt lat="43.1194499088853" lon="-4.96691255830691">
        <ele>1303.88325500488</ele>
        <time>2018-08-28T11:41:58Z</time>
      </trkpt>
      <trkpt lat="43.1194391381397" lon="-4.96678020805583">
        <ele>1303.51936340332</ele>
        <time>2018-08-28T11:41:59Z</time>
      </trkpt>
      <trkpt lat="43.1194509985327" lon="-4.96664685197637">
        <ele>1303.95246887207</ele>
        <time>2018-08-28T11:42:00Z</time>
      </trkpt>
      <trkpt lat="43.1194567401364" lon="-4.96652732603714">
        <ele>1302.20881652832</ele>
        <time>2018-08-28T11:42:01Z</time>
      </trkpt>
      <trkpt lat="43.1194191892102" lon="-4.96642062440977">
        <ele>1301.66999816895</ele>
        <time>2018-08-28T11:42:02Z</time>
      </trkpt>
      <trkpt lat="43.1194029702275" lon="-4.96630126610861">
        <ele>1301.35823059082</ele>
        <time>2018-08-28T11:42:03Z</time>
      </trkpt>
      <trkpt lat="43.1193414470582" lon="-4.96622658335135">
        <ele>1300.00691223145</ele>
        <time>2018-08-28T11:42:04Z</time>
      </trkpt>
      <trkpt lat="43.1192766549467" lon="-4.96615265496538">
        <ele>1299.08381652832</ele>
        <time>2018-08-28T11:42:05Z</time>
      </trkpt>
      <trkpt lat="43.119261567521" lon="-4.9660596996592">
        <ele>1296.91047668457</ele>
        <time>2018-08-28T11:42:06Z</time>
      </trkpt>
      <trkpt lat="43.1192397326633" lon="-4.96595886536405">
        <ele>1296.07759094238</ele>
        <time>2018-08-28T11:42:07Z</time>
      </trkpt>
      <trkpt lat="43.1192531856178" lon="-4.96589122340546">
        <ele>1295.20124816895</ele>
        <time>2018-08-28T11:42:08Z</time>
      </trkpt>
      <trkpt lat="43.1193089671835" lon="-4.96584168635771">
        <ele>1295.59211730957</ele>
        <time>2018-08-28T11:42:09Z</time>
      </trkpt>
      <trkpt lat="43.1193931214913" lon="-4.96576013043985">
        <ele>1294.10810852051</ele>
        <time>2018-08-28T11:42:11Z</time>
      </trkpt>
      <trkpt lat="43.1194428680866" lon="-4.96575560421214">
        <ele>1293.62898254395</ele>
        <time>2018-08-28T11:42:12Z</time>
      </trkpt>
      <trkpt lat="43.1194919441297" lon="-4.96577840298877">
        <ele>1294.06233215332</ele>
        <time>2018-08-28T11:42:13Z</time>
      </trkpt>
      <trkpt lat="43.1195818819507" lon="-4.96583598666356">
        <ele>1290.04133605957</ele>
        <time>2018-08-28T11:42:15Z</time>
      </trkpt>
      <trkpt lat="43.1196649466112" lon="-4.9658733699517">
        <ele>1287.96675109863</ele>
        <time>2018-08-28T11:42:16Z</time>
      </trkpt>
      <trkpt lat="43.1197365699738" lon="-4.96589566581414">
        <ele>1287.3345489502</ele>
        <time>2018-08-28T11:42:17Z</time>
      </trkpt>
      <trkpt lat="43.1198241189524" lon="-4.96592441574202">
        <ele>1288.43086242676</ele>
        <time>2018-08-28T11:42:18Z</time>
      </trkpt>
      <trkpt lat="43.1199262524425" lon="-4.96591058560178">
        <ele>1283.53987121582</ele>
        <time>2018-08-28T11:42:19Z</time>
      </trkpt>
      <trkpt lat="43.1199994683667" lon="-4.96590094641313">
        <ele>1282.35835266113</ele>
        <time>2018-08-28T11:42:20Z</time>
      </trkpt>
      <trkpt lat="43.1200961955293" lon="-4.96589943767056">
        <ele>1282.19990539551</ele>
        <time>2018-08-28T11:42:21Z</time>
      </trkpt>
      <trkpt lat="43.1201911624923" lon="-4.96586775407658">
        <ele>1280.9966583252</ele>
        <time>2018-08-28T11:42:22Z</time>
      </trkpt>
      <trkpt lat="43.1202791724756" lon="-4.96583615430162">
        <ele>1278.0396270752</ele>
        <time>2018-08-28T11:42:23Z</time>
      </trkpt>
      <trkpt lat="43.1203641230642" lon="-4.96577815153167">
        <ele>1278.02778625488</ele>
        <time>2018-08-28T11:42:24Z</time>
      </trkpt>
      <trkpt lat="43.1204397697403" lon="-4.96570589952633">
        <ele>1278.5142364502</ele>
        <time>2018-08-28T11:42:25Z</time>
      </trkpt>
      <trkpt lat="43.1205344433367" lon="-4.9656624812679">
        <ele>1278.4097442627</ele>
        <time>2018-08-28T11:42:26Z</time>
      </trkpt>
      <trkpt lat="43.1206188491016" lon="-4.96561990119979">
        <ele>1277.73445129395</ele>
        <time>2018-08-28T11:42:27Z</time>
      </trkpt>
      <trkpt lat="43.1207177974685" lon="-4.96559081599579">
        <ele>1277.7759552002</ele>
        <time>2018-08-28T11:42:28Z</time>
      </trkpt>
      <trkpt lat="43.1208292767807" lon="-4.96559383348093">
        <ele>1276.51582336426</ele>
        <time>2018-08-28T11:42:29Z</time>
      </trkpt>
      <trkpt lat="43.1209463300585" lon="-4.9656059034215">
        <ele>1274.72200012207</ele>
        <time>2018-08-28T11:42:30Z</time>
      </trkpt>
      <trkpt lat="43.1210481282725" lon="-4.96558863670096">
        <ele>1273.12727355957</ele>
        <time>2018-08-28T11:42:31Z</time>
      </trkpt>
      <trkpt lat="43.1211468251824" lon="-4.96557732113168">
        <ele>1270.75886535645</ele>
        <time>2018-08-28T11:42:32Z</time>
      </trkpt>
      <trkpt lat="43.1211755751102" lon="-4.96551596560047">
        <ele>1267.62605285645</ele>
        <time>2018-08-28T11:42:33Z</time>
      </trkpt>
      <trkpt lat="43.1212459830969" lon="-4.96551412158177">
        <ele>1267.19221496582</ele>
        <time>2018-08-28T11:42:34Z</time>
      </trkpt>
      <trkpt lat="43.1213224679633" lon="-4.96550926007793">
        <ele>1266.9947052002</ele>
        <time>2018-08-28T11:42:35Z</time>
      </trkpt>
      <trkpt lat="43.1214111065894" lon="-4.96555795893536">
        <ele>1266.52900695801</ele>
        <time>2018-08-28T11:42:36Z</time>
      </trkpt>
      <trkpt lat="43.1215268606722" lon="-4.96565653011665">
        <ele>1266.49238586426</ele>
        <time>2018-08-28T11:42:37Z</time>
      </trkpt>
      <trkpt lat="43.1216135714605" lon="-4.96570355259345">
        <ele>1266.62800598145</ele>
        <time>2018-08-28T11:42:38Z</time>
      </trkpt>
      <trkpt lat="43.1216815486952" lon="-4.96576708741949">
        <ele>1264.85932922363</ele>
        <time>2018-08-28T11:42:39Z</time>
      </trkpt>
      <trkpt lat="43.1217476400017" lon="-4.96582291089461">
        <ele>1264.33222961426</ele>
        <time>2018-08-28T11:42:40Z</time>
      </trkpt>
      <trkpt lat="43.1218309561192" lon="-4.96587135829494">
        <ele>1264.22639465332</ele>
        <time>2018-08-28T11:42:41Z</time>
      </trkpt>
      <trkpt lat="43.1219140207797" lon="-4.96592081152365">
        <ele>1263.41487121582</ele>
        <time>2018-08-28T11:42:42Z</time>
      </trkpt>
      <trkpt lat="43.1219773460581" lon="-4.96596263722048">
        <ele>1263.86213684082</ele>
        <time>2018-08-28T11:42:43Z</time>
      </trkpt>
      <trkpt lat="43.1220982550114" lon="-4.96600362472699">
        <ele>1260.89192199707</ele>
        <time>2018-08-28T11:42:44Z</time>
      </trkpt>
      <trkpt lat="43.1222085608571" lon="-4.9660269264178">
        <ele>1261.14985656738</ele>
        <time>2018-08-28T11:42:45Z</time>
      </trkpt>
      <trkpt lat="43.1223363848805" lon="-4.96605919674501">
        <ele>1257.24726867676</ele>
        <time>2018-08-28T11:42:46Z</time>
      </trkpt>
      <trkpt lat="43.1224567909195" lon="-4.96604293585286">
        <ele>1254.49653625488</ele>
        <time>2018-08-28T11:42:47Z</time>
      </trkpt>
      <trkpt lat="43.1225623190805" lon="-4.96604260057673">
        <ele>1250.03730773926</ele>
        <time>2018-08-28T11:42:48Z</time>
      </trkpt>
      <trkpt lat="43.1226580823242" lon="-4.96603480540678">
        <ele>1251.35713195801</ele>
        <time>2018-08-28T11:42:49Z</time>
      </trkpt>
      <trkpt lat="43.1227471400454" lon="-4.96605115011797">
        <ele>1251.90718078613</ele>
        <time>2018-08-28T11:42:50Z</time>
      </trkpt>
      <trkpt lat="43.1228684261843" lon="-4.96602466330395">
        <ele>1248.26350402832</ele>
        <time>2018-08-28T11:42:51Z</time>
      </trkpt>
      <trkpt lat="43.1229882873996" lon="-4.9659854359971">
        <ele>1248.70161437988</ele>
        <time>2018-08-28T11:42:52Z</time>
      </trkpt>
      <trkpt lat="43.1230563484534" lon="-4.96593472548292">
        <ele>1242.9175567627</ele>
        <time>2018-08-28T11:42:53Z</time>
      </trkpt>
      <trkpt lat="43.1231488008454" lon="-4.9658804945694">
        <ele>1243.90010070801</ele>
        <time>2018-08-28T11:42:54Z</time>
      </trkpt>
      <trkpt lat="43.1232407503232" lon="-4.96581461281047">
        <ele>1243.16584777832</ele>
        <time>2018-08-28T11:42:55Z</time>
      </trkpt>
      <trkpt lat="43.123270631808" lon="-4.96573339216874">
        <ele>1243.06672668457</ele>
        <time>2018-08-28T11:42:56Z</time>
      </trkpt>
      <trkpt lat="43.1233584741532" lon="-4.96572308242783">
        <ele>1242.46223449707</ele>
        <time>2018-08-28T11:42:57Z</time>
      </trkpt>
      <trkpt lat="43.1234391080617" lon="-4.96570883319244">
        <ele>1243.32722473145</ele>
        <time>2018-08-28T11:42:58Z</time>
      </trkpt>
      <trkpt lat="43.1235241005599" lon="-4.96573942713902">
        <ele>1244.32637023926</ele>
        <time>2018-08-28T11:42:59Z</time>
      </trkpt>
      <trkpt lat="43.1236206181749" lon="-4.96577220038042">
        <ele>1244.50617980957</ele>
        <time>2018-08-28T11:43:00Z</time>
      </trkpt>
      <trkpt lat="43.1236971449509" lon="-4.96580933221147">
        <ele>1245.2329864502</ele>
        <time>2018-08-28T11:43:01Z</time>
      </trkpt>
      <trkpt lat="43.1237461790844" lon="-4.96581704356239">
        <ele>1245.6978302002</ele>
        <time>2018-08-28T11:43:02Z</time>
      </trkpt>
      <trkpt lat="43.1238219933986" lon="-4.96581989340947">
        <ele>1242.99739074707</ele>
        <time>2018-08-28T11:43:03Z</time>
      </trkpt>
      <trkpt lat="43.1239141105144" lon="-4.96581871994302">
        <ele>1241.97541809082</ele>
        <time>2018-08-28T11:43:04Z</time>
      </trkpt>
      <trkpt lat="43.1240104604914" lon="-4.96579365805254">
        <ele>1242.64888000488</ele>
        <time>2018-08-28T11:43:05Z</time>
      </trkpt>
      <trkpt lat="43.1241068523779" lon="-4.96576180682049">
        <ele>1240.75068664551</ele>
        <time>2018-08-28T11:43:06Z</time>
      </trkpt>
      <trkpt lat="43.124186396639" lon="-4.9657301232265">
        <ele>1240.15559387207</ele>
        <time>2018-08-28T11:43:07Z</time>
      </trkpt>
      <trkpt lat="43.1242872728436" lon="-4.96571302414403">
        <ele>1240.27278137207</ele>
        <time>2018-08-28T11:43:08Z</time>
      </trkpt>
      <trkpt lat="43.1243997998937" lon="-4.96568821371064">
        <ele>1236.72651672363</ele>
        <time>2018-08-28T11:43:09Z</time>
      </trkpt>
      <trkpt lat="43.1244801404356" lon="-4.96561797336206">
        <ele>1235.0718536377</ele>
        <time>2018-08-28T11:43:10Z</time>
      </trkpt>
      <trkpt lat="43.1245715869992" lon="-4.96555628255472">
        <ele>1234.75117492676</ele>
        <time>2018-08-28T11:43:11Z</time>
      </trkpt>
      <trkpt lat="43.1246470660373" lon="-4.96550934389696">
        <ele>1233.60920715332</ele>
        <time>2018-08-28T11:43:12Z</time>
      </trkpt>
      <trkpt lat="43.1246920768573" lon="-4.96541873552368">
        <ele>1233.37934875488</ele>
        <time>2018-08-28T11:43:13Z</time>
      </trkpt>
      <trkpt lat="43.1247608922824" lon="-4.96534128673837">
        <ele>1233.52082824707</ele>
        <time>2018-08-28T11:43:14Z</time>
      </trkpt>
      <trkpt lat="43.1248266483127" lon="-4.96528579853937">
        <ele>1232.38594055176</ele>
        <time>2018-08-28T11:43:15Z</time>
      </trkpt>
      <trkpt lat="43.1248903507768" lon="-4.96523818932936">
        <ele>1232.87825012207</ele>
        <time>2018-08-28T11:43:16Z</time>
      </trkpt>
      <trkpt lat="43.124966081272" lon="-4.96519552544222">
        <ele>1234.2447052002</ele>
        <time>2018-08-28T11:43:17Z</time>
      </trkpt>
      <trkpt lat="43.125026766251" lon="-4.96514883824155">
        <ele>1234.48188781738</ele>
        <time>2018-08-28T11:43:18Z</time>
      </trkpt>
      <trkpt lat="43.1250825478166" lon="-4.96510625817344">
        <ele>1234.49385070801</ele>
        <time>2018-08-28T11:43:19Z</time>
      </trkpt>
      <trkpt lat="43.1251416402339" lon="-4.96507943608329">
        <ele>1235.10664367676</ele>
        <time>2018-08-28T11:43:20Z</time>
      </trkpt>
      <trkpt lat="43.1252313265979" lon="-4.96504582465157">
        <ele>1235.54414367676</ele>
        <time>2018-08-28T11:43:22Z</time>
      </trkpt>
      <trkpt lat="43.1253100745782" lon="-4.96502671391234">
        <ele>1236.84504699707</ele>
        <time>2018-08-28T11:43:24Z</time>
      </trkpt>
      <trkpt lat="43.1253666943341" lon="-4.96496787295208">
        <ele>1233.43794250488</ele>
        <time>2018-08-28T11:43:27Z</time>
      </trkpt>
      <trkpt lat="43.125441754277" lon="-4.96493987739549">
        <ele>1234.83906555176</ele>
        <time>2018-08-28T11:43:29Z</time>
      </trkpt>
      <trkpt lat="43.1255167304008" lon="-4.96490534395442">
        <ele>1234.16389465332</ele>
        <time>2018-08-28T11:43:31Z</time>
      </trkpt>
      <trkpt lat="43.1255859230115" lon="-4.96488254517779">
        <ele>1234.07734680176</ele>
        <time>2018-08-28T11:43:33Z</time>
      </trkpt>
      <trkpt lat="43.1256471528142" lon="-4.96485630982087">
        <ele>1234.13606262207</ele>
        <time>2018-08-28T11:43:35Z</time>
      </trkpt>
      <trkpt lat="43.1257082987978" lon="-4.96482714079783">
        <ele>1234.8833770752</ele>
        <time>2018-08-28T11:43:37Z</time>
      </trkpt>
      <trkpt lat="43.1257698219671" lon="-4.96478598565326">
        <ele>1235.49116516113</ele>
        <time>2018-08-28T11:43:39Z</time>
      </trkpt>
      <trkpt lat="43.1258275313704" lon="-4.9647282343404">
        <ele>1235.2320098877</ele>
        <time>2018-08-28T11:43:41Z</time>
      </trkpt>
      <trkpt lat="43.1258718716382" lon="-4.96465623379216">
        <ele>1235.81806945801</ele>
        <time>2018-08-28T11:43:43Z</time>
      </trkpt>
      <trkpt lat="43.1259109732165" lon="-4.96457719244525">
        <ele>1237.76838684082</ele>
        <time>2018-08-28T11:43:45Z</time>
      </trkpt>
      <trkpt lat="43.1259395135968" lon="-4.9644935410516">
        <ele>1239.46894836426</ele>
        <time>2018-08-28T11:43:47Z</time>
      </trkpt>
      <trkpt lat="43.1259472668573" lon="-4.96441910975144">
        <ele>1239.33222961426</ele>
        <time>2018-08-28T11:43:49Z</time>
      </trkpt>
      <trkpt lat="43.1259286590322" lon="-4.96433948167131">
        <ele>1238.9497833252</ele>
        <time>2018-08-28T11:43:51Z</time>
      </trkpt>
      <trkpt lat="43.1259135716065" lon="-4.96425817721054">
        <ele>1240.98847961426</ele>
        <time>2018-08-28T11:43:53Z</time>
      </trkpt>
      <trkpt lat="43.1259524636372" lon="-4.96422322467432">
        <ele>1237.57026672363</ele>
        <time>2018-08-28T11:43:58Z</time>
      </trkpt>
      <trkpt lat="43.1259859493404" lon="-4.96414309368">
        <ele>1244.47944641113</ele>
        <time>2018-08-28T11:44:02Z</time>
      </trkpt>
      <trkpt lat="43.1259699818148" lon="-4.96406614780888">
        <ele>1246.89472961426</ele>
        <time>2018-08-28T11:44:04Z</time>
      </trkpt>
      <trkpt lat="43.1259291200369" lon="-4.96400361881122">
        <ele>1247.27998352051</ele>
        <time>2018-08-28T11:44:06Z</time>
      </trkpt>
      <trkpt lat="43.1258802116319" lon="-4.96392633766398">
        <ele>1246.22090148926</ele>
        <time>2018-08-28T11:44:08Z</time>
      </trkpt>
      <trkpt lat="43.1258808821841" lon="-4.96382617392108">
        <ele>1243.06440734863</ele>
        <time>2018-08-28T11:44:10Z</time>
      </trkpt>
      <trkpt lat="43.1258947123244" lon="-4.96371218003795">
        <ele>1240.53755187988</ele>
        <time>2018-08-28T11:44:12Z</time>
      </trkpt>
      <trkpt lat="43.1258960115194" lon="-4.96359374374613">
        <ele>1236.96992492676</ele>
        <time>2018-08-28T11:44:14Z</time>
      </trkpt>
      <trkpt lat="43.1258955924242" lon="-4.96347882785365">
        <ele>1237.14143371582</ele>
        <time>2018-08-28T11:44:16Z</time>
      </trkpt>
      <trkpt lat="43.1259058602556" lon="-4.96341487393245">
        <ele>1237.25215148926</ele>
        <time>2018-08-28T11:44:17Z</time>
      </trkpt>
      <trkpt lat="43.1259195227578" lon="-4.96335008182094">
        <ele>1238.61079406738</ele>
        <time>2018-08-28T11:44:18Z</time>
      </trkpt>
      <trkpt lat="43.1259311316936" lon="-4.96328663081393">
        <ele>1238.48115539551</ele>
        <time>2018-08-28T11:44:19Z</time>
      </trkpt>
      <trkpt lat="43.1259450875624" lon="-4.96316852979824">
        <ele>1239.05952453613</ele>
        <time>2018-08-28T11:44:21Z</time>
      </trkpt>
      <trkpt lat="43.1259540142893" lon="-4.96308010071978">
        <ele>1240.76606750488</ele>
        <time>2018-08-28T11:44:23Z</time>
      </trkpt>
      <trkpt lat="43.1259778188943" lon="-4.96296828613147">
        <ele>1239.57246398926</ele>
        <time>2018-08-28T11:44:25Z</time>
      </trkpt>
      <trkpt lat="43.1259949598863" lon="-4.96286862530276">
        <ele>1241.34492492676</ele>
        <time>2018-08-28T11:44:27Z</time>
      </trkpt>
      <trkpt lat="43.1260207342386" lon="-4.96275873855219">
        <ele>1240.7574005127</ele>
        <time>2018-08-28T11:44:29Z</time>
      </trkpt>
      <trkpt lat="43.1260428624629" lon="-4.96270081960127">
        <ele>1240.24580383301</ele>
        <time>2018-08-28T11:44:30Z</time>
      </trkpt>
      <trkpt lat="43.126068301539" lon="-4.96264943853483">
        <ele>1241.30378723145</ele>
        <time>2018-08-28T11:44:31Z</time>
      </trkpt>
      <trkpt lat="43.1261143181875" lon="-4.96256888844535">
        <ele>1242.46186828613</ele>
        <time>2018-08-28T11:44:33Z</time>
      </trkpt>
      <trkpt lat="43.1261351053073" lon="-4.96250275522933">
        <ele>1245.45198059082</ele>
        <time>2018-08-28T11:44:35Z</time>
      </trkpt>
      <trkpt lat="43.126131668727" lon="-4.96242555790112">
        <ele>1248.6665802002</ele>
        <time>2018-08-28T11:44:37Z</time>
      </trkpt>
      <trkpt lat="43.126126304309" lon="-4.96234752238259">
        <ele>1251.51350402832</ele>
        <time>2018-08-28T11:44:39Z</time>
      </trkpt>
      <trkpt lat="43.1261387933447" lon="-4.96227543801531">
        <ele>1249.86799621582</ele>
        <time>2018-08-28T11:44:41Z</time>
      </trkpt>
      <trkpt lat="43.1261636037781" lon="-4.96220729314253">
        <ele>1249.01960754395</ele>
        <time>2018-08-28T11:44:43Z</time>
      </trkpt>
      <trkpt lat="43.1261887075781" lon="-4.96214962564871">
        <ele>1249.67414855957</ele>
        <time>2018-08-28T11:44:45Z</time>
      </trkpt>
      <trkpt lat="43.1262227800145" lon="-4.96209933422968">
        <ele>1250.1324005127</ele>
        <time>2018-08-28T11:44:47Z</time>
      </trkpt>
      <trkpt lat="43.1262687128439" lon="-4.96207251213953">
        <ele>1250.30610656738</ele>
        <time>2018-08-28T11:44:49Z</time>
      </trkpt>
      <trkpt lat="43.1263400428399" lon="-4.96200067922935">
        <ele>1248.48554992676</ele>
        <time>2018-08-28T11:44:51Z</time>
      </trkpt>
      <trkpt lat="43.1263755401998" lon="-4.96195130981967">
        <ele>1246.59968566895</ele>
        <time>2018-08-28T11:44:52Z</time>
      </trkpt>
      <trkpt lat="43.1264121272071" lon="-4.96190504171416">
        <ele>1248.13740539551</ele>
        <time>2018-08-28T11:44:53Z</time>
      </trkpt>
      <trkpt lat="43.1264669867634" lon="-4.96181728318796">
        <ele>1250.55879211426</ele>
        <time>2018-08-28T11:44:55Z</time>
      </trkpt>
      <trkpt lat="43.1265130872308" lon="-4.96171980165407">
        <ele>1251.0503692627</ele>
        <time>2018-08-28T11:44:57Z</time>
      </trkpt>
      <trkpt lat="43.1265523564472" lon="-4.96161779389247">
        <ele>1253.08125305176</ele>
        <time>2018-08-28T11:44:59Z</time>
      </trkpt>
      <trkpt lat="43.1265761191427" lon="-4.96156389825508">
        <ele>1254.43525695801</ele>
        <time>2018-08-28T11:45:00Z</time>
      </trkpt>
      <trkpt lat="43.126619202125" lon="-4.96146448888347">
        <ele>1255.00105285645</ele>
        <time>2018-08-28T11:45:02Z</time>
      </trkpt>
      <trkpt lat="43.1266387738689" lon="-4.96137572452888">
        <ele>1254.3687286377</ele>
        <time>2018-08-28T11:45:04Z</time>
      </trkpt>
      <trkpt lat="43.1266555376752" lon="-4.96126986109182">
        <ele>1256.7105255127</ele>
        <time>2018-08-28T11:45:06Z</time>
      </trkpt>
      <trkpt lat="43.1266601896315" lon="-4.96120842174158">
        <ele>1257.76045227051</ele>
        <time>2018-08-28T11:45:08Z</time>
      </trkpt>
      <trkpt lat="43.1266578426986" lon="-4.96111487970218">
        <ele>1259.1490020752</ele>
        <time>2018-08-28T11:45:10Z</time>
      </trkpt>
      <trkpt lat="43.126672091934" lon="-4.96101320721671">
        <ele>1260.42695617676</ele>
        <time>2018-08-28T11:45:12Z</time>
      </trkpt>
      <trkpt lat="43.1267114449694" lon="-4.96094623581037">
        <ele>1260.46772766113</ele>
        <time>2018-08-28T11:45:14Z</time>
      </trkpt>
      <trkpt lat="43.1267841998889" lon="-4.96090943925545">
        <ele>1260.19270324707</ele>
        <time>2018-08-28T11:45:16Z</time>
      </trkpt>
      <trkpt lat="43.1268299231707" lon="-4.96089242399201">
        <ele>1261.24702453613</ele>
        <time>2018-08-28T11:45:17Z</time>
      </trkpt>
      <trkpt lat="43.1269020494475" lon="-4.96086426079735">
        <ele>1262.63313293457</ele>
        <time>2018-08-28T11:45:19Z</time>
      </trkpt>
      <trkpt lat="43.1269764807477" lon="-4.96084506623909">
        <ele>1264.36103820801</ele>
        <time>2018-08-28T11:45:21Z</time>
      </trkpt>
      <trkpt lat="43.1270374171838" lon="-4.96082461439535">
        <ele>1264.74263000488</ele>
        <time>2018-08-28T11:45:23Z</time>
      </trkpt>
      <trkpt lat="43.1271035503998" lon="-4.96079661883876">
        <ele>1263.43452453613</ele>
        <time>2018-08-28T11:45:26Z</time>
      </trkpt>
      <trkpt lat="43.1271591224178" lon="-4.96077759191856">
        <ele>1262.35420227051</ele>
        <time>2018-08-28T11:45:28Z</time>
      </trkpt>
      <trkpt lat="43.1272423547163" lon="-4.96076476760671">
        <ele>1258.05757141113</ele>
        <time>2018-08-28T11:45:30Z</time>
      </trkpt>
      <trkpt lat="43.1273294426902" lon="-4.96074305847749">
        <ele>1258.61860656738</ele>
        <time>2018-08-28T11:45:32Z</time>
      </trkpt>
      <trkpt lat="43.127405550371" lon="-4.96072528884277">
        <ele>1260.06001281738</ele>
        <time>2018-08-28T11:45:34Z</time>
      </trkpt>
      <trkpt lat="43.1274906266882" lon="-4.96070676483676">
        <ele>1258.54878234863</ele>
        <time>2018-08-28T11:45:36Z</time>
      </trkpt>
      <trkpt lat="43.1275840010896" lon="-4.96067550033793">
        <ele>1258.35469055176</ele>
        <time>2018-08-28T11:45:38Z</time>
      </trkpt>
      <trkpt lat="43.1276324903994" lon="-4.96066175401673">
        <ele>1257.26679992676</ele>
        <time>2018-08-28T11:45:39Z</time>
      </trkpt>
      <trkpt lat="43.1276796386048" lon="-4.96062219143376">
        <ele>1257.25263977051</ele>
        <time>2018-08-28T11:45:41Z</time>
      </trkpt>
      <trkpt lat="43.1277378928318" lon="-4.96055739932224">
        <ele>1257.58589172363</ele>
        <time>2018-08-28T11:45:43Z</time>
      </trkpt>
      <trkpt lat="43.1277722586348" lon="-4.96049956419036">
        <ele>1255.24995422363</ele>
        <time>2018-08-28T11:45:45Z</time>
      </trkpt>
      <trkpt lat="43.1278215442254" lon="-4.9604455009149">
        <ele>1254.37934875488</ele>
        <time>2018-08-28T11:45:47Z</time>
      </trkpt>
      <trkpt lat="43.1278743921249" lon="-4.96041683480605">
        <ele>1253.68159484863</ele>
        <time>2018-08-28T11:45:48Z</time>
      </trkpt>
      <trkpt lat="43.1279409025266" lon="-4.96038037352726">
        <ele>1254.97395324707</ele>
        <time>2018-08-28T11:45:50Z</time>
      </trkpt>
      <trkpt lat="43.1279693590879" lon="-4.96031868271992">
        <ele>1255.8169708252</ele>
        <time>2018-08-28T11:45:53Z</time>
      </trkpt>
      <trkpt lat="43.1280129030749" lon="-4.96024274267718">
        <ele>1256.63850402832</ele>
        <time>2018-08-28T11:45:56Z</time>
      </trkpt>
      <trkpt lat="43.1280561117857" lon="-4.96020192280874">
        <ele>1258.04475402832</ele>
        <time>2018-08-28T11:45:58Z</time>
      </trkpt>
      <trkpt lat="43.128107157576" lon="-4.96015825309321">
        <ele>1256.81660461426</ele>
        <time>2018-08-28T11:46:01Z</time>
      </trkpt>
      <trkpt lat="43.1281538028672" lon="-4.96011131443545">
        <ele>1258.8902130127</ele>
        <time>2018-08-28T11:46:03Z</time>
      </trkpt>
      <trkpt lat="43.1282128114655" lon="-4.96008340269789">
        <ele>1260.92219543457</ele>
        <time>2018-08-28T11:46:05Z</time>
      </trkpt>
      <trkpt lat="43.1282698503166" lon="-4.96005406603679">
        <ele>1262.78877258301</ele>
        <time>2018-08-28T11:46:07Z</time>
      </trkpt>
      <trkpt lat="43.1283127656608" lon="-4.96000469662711">
        <ele>1263.64448547363</ele>
        <time>2018-08-28T11:46:09Z</time>
      </trkpt>
      <trkpt lat="43.1283521186962" lon="-4.95995230973229">
        <ele>1263.6363067627</ele>
        <time>2018-08-28T11:46:11Z</time>
      </trkpt>
      <trkpt lat="43.1283887476131" lon="-4.9599050357984">
        <ele>1262.7896270752</ele>
        <time>2018-08-28T11:46:13Z</time>
      </trkpt>
      <trkpt lat="43.1284280168294" lon="-4.9598463624762">
        <ele>1264.40803527832</ele>
        <time>2018-08-28T11:46:15Z</time>
      </trkpt>
      <trkpt lat="43.1284526596247" lon="-4.95977327228054">
        <ele>1263.39167785645</ele>
        <time>2018-08-28T11:46:18Z</time>
      </trkpt>
      <trkpt lat="43.1284788111626" lon="-4.95971300639674">
        <ele>1264.28816223145</ele>
        <time>2018-08-28T11:46:20Z</time>
      </trkpt>
      <trkpt lat="43.1285254983633" lon="-4.95966087095901">
        <ele>1266.22297668457</ele>
        <time>2018-08-28T11:46:22Z</time>
      </trkpt>
      <trkpt lat="43.1285657314985" lon="-4.95960462838873">
        <ele>1266.11531066895</ele>
        <time>2018-08-28T11:46:24Z</time>
      </trkpt>
      <trkpt lat="43.12859590635" lon="-4.95954679325685">
        <ele>1266.11824035645</ele>
        <time>2018-08-28T11:46:26Z</time>
      </trkpt>
      <trkpt lat="43.1286252430111" lon="-4.95949323289558">
        <ele>1266.69172668457</ele>
        <time>2018-08-28T11:46:28Z</time>
      </trkpt>
      <trkpt lat="43.1286590220808" lon="-4.95941720903382">
        <ele>1265.43659973145</ele>
        <time>2018-08-28T11:46:31Z</time>
      </trkpt>
      <trkpt lat="43.1286913762271" lon="-4.95936859399542">
        <ele>1267.35945129395</ele>
        <time>2018-08-28T11:46:33Z</time>
      </trkpt>
      <trkpt lat="43.1287246523827" lon="-4.95932291262314">
        <ele>1269.33918762207</ele>
        <time>2018-08-28T11:46:35Z</time>
      </trkpt>
      <trkpt lat="43.1287541566818" lon="-4.95926868170962">
        <ele>1270.5005645752</ele>
        <time>2018-08-28T11:46:37Z</time>
      </trkpt>
      <trkpt lat="43.1288038613676" lon="-4.95921403170094">
        <ele>1268.30256652832</ele>
        <time>2018-08-28T11:46:39Z</time>
      </trkpt>
      <trkpt lat="43.1288354611426" lon="-4.95914127678141">
        <ele>1269.44367980957</ele>
        <time>2018-08-28T11:46:42Z</time>
      </trkpt>
      <trkpt lat="43.1288518477633" lon="-4.95908109471664">
        <ele>1270.04219055176</ele>
        <time>2018-08-28T11:46:44Z</time>
      </trkpt>
      <trkpt lat="43.1288776221155" lon="-4.9590051546739">
        <ele>1272.32551574707</ele>
        <time>2018-08-28T11:46:47Z</time>
      </trkpt>
      <trkpt lat="43.1289035221963" lon="-4.95893239975437">
        <ele>1274.43293762207</ele>
        <time>2018-08-28T11:46:49Z</time>
      </trkpt>
      <trkpt lat="43.1289365468948" lon="-4.95886450633868">
        <ele>1274.8950958252</ele>
        <time>2018-08-28T11:46:51Z</time>
      </trkpt>
      <trkpt lat="43.1289826892718" lon="-4.95880415663585">
        <ele>1273.4771270752</ele>
        <time>2018-08-28T11:46:53Z</time>
      </trkpt>
      <trkpt lat="43.1290410692274" lon="-4.95875411667391">
        <ele>1274.08992004395</ele>
        <time>2018-08-28T11:46:55Z</time>
      </trkpt>
      <trkpt lat="43.129091486375" lon="-4.95870851912066">
        <ele>1275.44123840332</ele>
        <time>2018-08-28T11:46:57Z</time>
      </trkpt>
      <trkpt lat="43.1291253073543" lon="-4.95865864679679">
        <ele>1273.32136535645</ele>
        <time>2018-08-28T11:46:59Z</time>
      </trkpt>
      <trkpt lat="43.1291631097376" lon="-4.95860282332167">
        <ele>1275.01728820801</ele>
        <time>2018-08-28T11:47:01Z</time>
      </trkpt>
      <trkpt lat="43.129201163578" lon="-4.95855202898845">
        <ele>1275.50874328613</ele>
        <time>2018-08-28T11:47:03Z</time>
      </trkpt>
      <trkpt lat="43.1292322185292" lon="-4.9585064314352">
        <ele>1275.21516418457</ele>
        <time>2018-08-28T11:47:05Z</time>
      </trkpt>
      <trkpt lat="43.1292650336801" lon="-4.95845211670264">
        <ele>1275.5923614502</ele>
        <time>2018-08-28T11:47:07Z</time>
      </trkpt>
      <trkpt lat="43.1292905565753" lon="-4.95839419775173">
        <ele>1276.12178039551</ele>
        <time>2018-08-28T11:47:09Z</time>
      </trkpt>
      <trkpt lat="43.129313690628" lon="-4.95832881890699">
        <ele>1276.5425567627</ele>
        <time>2018-08-28T11:47:11Z</time>
      </trkpt>
      <trkpt lat="43.129310840781" lon="-4.95826134458646">
        <ele>1276.70576477051</ele>
        <time>2018-08-28T11:47:13Z</time>
      </trkpt>
      <trkpt lat="43.1292668776988" lon="-4.95821029879615">
        <ele>1274.86470031738</ele>
        <time>2018-08-28T11:47:15Z</time>
      </trkpt>
      <trkpt lat="43.1291942065983" lon="-4.95818104595408">
        <ele>1274.07612609863</ele>
        <time>2018-08-28T11:47:17Z</time>
      </trkpt>
      <trkpt lat="43.1291201524838" lon="-4.95815983973905">
        <ele>1274.55390930176</ele>
        <time>2018-08-28T11:47:19Z</time>
      </trkpt>
      <trkpt lat="43.1290524267062" lon="-4.95814919472202">
        <ele>1274.00508117676</ele>
        <time>2018-08-28T11:47:21Z</time>
      </trkpt>
      <trkpt lat="43.1289818510815" lon="-4.95814684778914">
        <ele>1274.75495910645</ele>
        <time>2018-08-28T11:47:23Z</time>
      </trkpt>
      <trkpt lat="43.1289037317439" lon="-4.95813276619181">
        <ele>1274.63105773926</ele>
        <time>2018-08-28T11:47:25Z</time>
      </trkpt>
      <trkpt lat="43.1288410351082" lon="-4.95811809786126">
        <ele>1275.91999816895</ele>
        <time>2018-08-28T11:47:27Z</time>
      </trkpt>
      <trkpt lat="43.1287907436892" lon="-4.95811197907194">
        <ele>1275.0933380127</ele>
        <time>2018-08-28T11:47:29Z</time>
      </trkpt>
      <trkpt lat="43.128740033175" lon="-4.95811256580517">
        <ele>1274.46943664551</ele>
        <time>2018-08-28T11:47:31Z</time>
      </trkpt>
      <trkpt lat="43.1286800606578" lon="-4.95810267515942">
        <ele>1276.02070617676</ele>
        <time>2018-08-28T11:47:33Z</time>
      </trkpt>
      <trkpt lat="43.1286297692388" lon="-4.95808037929699">
        <ele>1276.6431427002</ele>
        <time>2018-08-28T11:47:35Z</time>
      </trkpt>
      <trkpt lat="43.1285715150117" lon="-4.95805883780584">
        <ele>1276.33479309082</ele>
        <time>2018-08-28T11:47:37Z</time>
      </trkpt>
      <trkpt lat="43.1285117520421" lon="-4.95802606456443">
        <ele>1276.42085266113</ele>
        <time>2018-08-28T11:47:39Z</time>
      </trkpt>
      <trkpt lat="43.1284441100835" lon="-4.95798650198147">
        <ele>1276.27729797363</ele>
        <time>2018-08-28T11:47:41Z</time>
      </trkpt>
      <trkpt lat="43.1283835508331" lon="-4.95795800351068">
        <ele>1276.68489074707</ele>
        <time>2018-08-28T11:47:43Z</time>
      </trkpt>
      <trkpt lat="43.1283167051553" lon="-4.95792472735509">
        <ele>1275.16255187988</ele>
        <time>2018-08-28T11:47:45Z</time>
      </trkpt>
      <trkpt lat="43.128263144794" lon="-4.95789388195142">
        <ele>1272.18843078613</ele>
        <time>2018-08-28T11:47:47Z</time>
      </trkpt>
      <trkpt lat="43.12818645038" lon="-4.95786194690034">
        <ele>1267.73176574707</ele>
        <time>2018-08-28T11:47:49Z</time>
      </trkpt>
      <trkpt lat="43.1281446246832" lon="-4.95783906430468">
        <ele>1268.13179016113</ele>
        <time>2018-08-28T11:47:50Z</time>
      </trkpt>
      <trkpt lat="43.12806872655" lon="-4.95779941790268">
        <ele>1269.84150695801</ele>
        <time>2018-08-28T11:47:52Z</time>
      </trkpt>
      <trkpt lat="43.1280060299143" lon="-4.95776429772839">
        <ele>1271.56123352051</ele>
        <time>2018-08-28T11:47:54Z</time>
      </trkpt>
      <trkpt lat="43.1279478175967" lon="-4.95773722418114">
        <ele>1271.3853302002</ele>
        <time>2018-08-28T11:47:56Z</time>
      </trkpt>
      <trkpt lat="43.1278763618722" lon="-4.9577098991768">
        <ele>1271.69831848145</ele>
        <time>2018-08-28T11:47:58Z</time>
      </trkpt>
      <trkpt lat="43.1278049480572" lon="-4.95766782202288">
        <ele>1273.41035461426</ele>
        <time>2018-08-28T11:48:00Z</time>
      </trkpt>
      <trkpt lat="43.1277405331313" lon="-4.95761585422322">
        <ele>1277.18159484863</ele>
        <time>2018-08-28T11:48:02Z</time>
      </trkpt>
      <trkpt lat="43.1276863022178" lon="-4.95756363496646">
        <ele>1277.25276184082</ele>
        <time>2018-08-28T11:48:04Z</time>
      </trkpt>
      <trkpt lat="43.1276384415507" lon="-4.95750504546329">
        <ele>1277.91865539551</ele>
        <time>2018-08-28T11:48:06Z</time>
      </trkpt>
      <trkpt lat="43.1275966158538" lon="-4.95743002742991">
        <ele>1280.74800109863</ele>
        <time>2018-08-28T11:48:08Z</time>
      </trkpt>
      <trkpt lat="43.1275581848278" lon="-4.95738686062857">
        <ele>1279.35127258301</ele>
        <time>2018-08-28T11:48:10Z</time>
      </trkpt>
      <trkpt lat="43.1275196280732" lon="-4.95734880678817">
        <ele>1279.39363098145</ele>
        <time>2018-08-28T11:48:12Z</time>
      </trkpt>
      <trkpt lat="43.1274861842796" lon="-4.95727295056447">
        <ele>1280.5298614502</ele>
        <time>2018-08-28T11:48:14Z</time>
      </trkpt>
      <trkpt lat="43.1274542492285" lon="-4.95720346458718">
        <ele>1279.87568664551</ele>
        <time>2018-08-28T11:48:16Z</time>
      </trkpt>
      <trkpt lat="43.1273907982215" lon="-4.95714210905596">
        <ele>1276.4722442627</ele>
        <time>2018-08-28T11:48:18Z</time>
      </trkpt>
      <trkpt lat="43.1273161154642" lon="-4.95711159892842">
        <ele>1273.50605773926</ele>
        <time>2018-08-28T11:48:20Z</time>
      </trkpt>
      <trkpt lat="43.1272728648438" lon="-4.9570935778366">
        <ele>1273.8462677002</ele>
        <time>2018-08-28T11:48:21Z</time>
      </trkpt>
      <trkpt lat="43.1272049714281" lon="-4.95704839937851">
        <ele>1275.35493469238</ele>
        <time>2018-08-28T11:48:23Z</time>
      </trkpt>
      <trkpt lat="43.1271348987176" lon="-4.95697581209704">
        <ele>1275.61714172363</ele>
        <time>2018-08-28T11:48:25Z</time>
      </trkpt>
      <trkpt lat="43.1270983536198" lon="-4.95693096891507">
        <ele>1276.31782531738</ele>
        <time>2018-08-28T11:48:26Z</time>
      </trkpt>
      <trkpt lat="43.1270531751617" lon="-4.95686039329037">
        <ele>1280.8706817627</ele>
        <time>2018-08-28T11:48:28Z</time>
      </trkpt>
      <trkpt lat="43.1270403927594" lon="-4.95678512379989">
        <ele>1284.37739562988</ele>
        <time>2018-08-28T11:48:30Z</time>
      </trkpt>
      <trkpt lat="43.1270230003103" lon="-4.95670943521425">
        <ele>1285.93598937988</ele>
        <time>2018-08-28T11:48:32Z</time>
      </trkpt>
      <trkpt lat="43.1269979384198" lon="-4.95662754402026">
        <ele>1285.78706359863</ele>
        <time>2018-08-28T11:48:34Z</time>
      </trkpt>
      <trkpt lat="43.1269719126105" lon="-4.95655009523496">
        <ele>1288.53706359863</ele>
        <time>2018-08-28T11:48:36Z</time>
      </trkpt>
      <trkpt lat="43.1269455934345" lon="-4.95648111217186">
        <ele>1287.06318664551</ele>
        <time>2018-08-28T11:48:38Z</time>
      </trkpt>
      <trkpt lat="43.1269061984896" lon="-4.9564077705191">
        <ele>1285.96821594238</ele>
        <time>2018-08-28T11:48:40Z</time>
      </trkpt>
      <trkpt lat="43.1268656719878" lon="-4.95633074082896">
        <ele>1285.15437316895</ele>
        <time>2018-08-28T11:48:42Z</time>
      </trkpt>
      <trkpt lat="43.1268242653861" lon="-4.95627282187804">
        <ele>1286.40901184082</ele>
        <time>2018-08-28T11:48:44Z</time>
      </trkpt>
      <trkpt lat="43.1267611496552" lon="-4.95622110553547">
        <ele>1284.15046691895</ele>
        <time>2018-08-28T11:48:46Z</time>
      </trkpt>
      <trkpt lat="43.1266909512161" lon="-4.95617358014449">
        <ele>1279.55757141113</ele>
        <time>2018-08-28T11:48:48Z</time>
      </trkpt>
      <trkpt lat="43.1266306015133" lon="-4.9561075307475">
        <ele>1279.19367980957</ele>
        <time>2018-08-28T11:48:50Z</time>
      </trkpt>
      <trkpt lat="43.1265785498946" lon="-4.95602882467672">
        <ele>1278.57612609863</ele>
        <time>2018-08-28T11:48:52Z</time>
      </trkpt>
      <trkpt lat="43.1265442679106" lon="-4.95593938976988">
        <ele>1279.94697570801</ele>
        <time>2018-08-28T11:48:54Z</time>
      </trkpt>
      <trkpt lat="43.1265019812091" lon="-4.95583176613316">
        <ele>1279.60615539551</ele>
        <time>2018-08-28T11:48:56Z</time>
      </trkpt>
      <trkpt lat="43.1264778832375" lon="-4.95577703230544">
        <ele>1279.74385070801</ele>
        <time>2018-08-28T11:48:57Z</time>
      </trkpt>
      <trkpt lat="43.1264578504889" lon="-4.95572179556354">
        <ele>1280.59956359863</ele>
        <time>2018-08-28T11:48:58Z</time>
      </trkpt>
      <trkpt lat="43.1264349259838" lon="-4.95560478419527">
        <ele>1282.85346984863</ele>
        <time>2018-08-28T11:49:00Z</time>
      </trkpt>
      <trkpt lat="43.1264020689233" lon="-4.9555065482901">
        <ele>1282.90608215332</ele>
        <time>2018-08-28T11:49:01Z</time>
      </trkpt>
      <trkpt lat="43.1263746601" lon="-4.95542566292449">
        <ele>1283.16999816895</ele>
        <time>2018-08-28T11:49:02Z</time>
      </trkpt>
      <trkpt lat="43.1263365643501" lon="-4.95535768568977">
        <ele>1282.63288879395</ele>
        <time>2018-08-28T11:49:03Z</time>
      </trkpt>
      <trkpt lat="43.1262998935237" lon="-4.9552700109826">
        <ele>1282.42402648926</ele>
        <time>2018-08-28T11:49:04Z</time>
      </trkpt>
      <trkpt lat="43.1262356881454" lon="-4.95518124662801">
        <ele>1281.01863098145</ele>
        <time>2018-08-28T11:49:05Z</time>
      </trkpt>
      <trkpt lat="43.1262018671661" lon="-4.95508720167443">
        <ele>1282.05647277832</ele>
        <time>2018-08-28T11:49:06Z</time>
      </trkpt>
      <trkpt lat="43.1261643581494" lon="-4.95500338264271">
        <ele>1282.07539367676</ele>
        <time>2018-08-28T11:49:07Z</time>
      </trkpt>
      <trkpt lat="43.1261260528519" lon="-4.95491076261267">
        <ele>1280.60859680176</ele>
        <time>2018-08-28T11:49:08Z</time>
      </trkpt>
      <trkpt lat="43.1260861969023" lon="-4.95481462218329">
        <ele>1280.84736633301</ele>
        <time>2018-08-28T11:49:09Z</time>
      </trkpt>
      <trkpt lat="43.1260465085908" lon="-4.95471814647778">
        <ele>1280.78950500488</ele>
        <time>2018-08-28T11:49:10Z</time>
      </trkpt>
      <trkpt lat="43.1260188064008" lon="-4.95464363135859">
        <ele>1276.01020812988</ele>
        <time>2018-08-28T11:49:11Z</time>
      </trkpt>
      <trkpt lat="43.1260415213584" lon="-4.95456869714423">
        <ele>1274.64949035645</ele>
        <time>2018-08-28T11:49:12Z</time>
      </trkpt>
      <trkpt lat="43.1260403059825" lon="-4.95447448455259">
        <ele>1274.40644836426</ele>
        <time>2018-08-28T11:49:13Z</time>
      </trkpt>
      <trkpt lat="43.1260548066749" lon="-4.95435160585209">
        <ele>1272.74140930176</ele>
        <time>2018-08-28T11:49:14Z</time>
      </trkpt>
      <trkpt lat="43.1261119293451" lon="-4.95430232026144">
        <ele>1269.13471984863</ele>
        <time>2018-08-28T11:49:15Z</time>
      </trkpt>
      <trkpt lat="43.1262033759087" lon="-4.95428622700735">
        <ele>1270.99494934082</ele>
        <time>2018-08-28T11:49:17Z</time>
      </trkpt>
      <trkpt lat="43.1262917630776" lon="-4.95429310016795">
        <ele>1271.16218566895</ele>
        <time>2018-08-28T11:49:18Z</time>
      </trkpt>
      <trkpt lat="43.1263927650108" lon="-4.95433299802705">
        <ele>1272.1597442627</ele>
        <time>2018-08-28T11:49:20Z</time>
      </trkpt>
      <trkpt lat="43.1264466187387" lon="-4.95435814373657">
        <ele>1273.02314758301</ele>
        <time>2018-08-28T11:49:21Z</time>
      </trkpt>
      <trkpt lat="43.1265033223137" lon="-4.95438588783606">
        <ele>1272.15437316895</ele>
        <time>2018-08-28T11:49:22Z</time>
      </trkpt>
      <trkpt lat="43.1265656836732" lon="-4.95442528278097">
        <ele>1273.78889465332</ele>
        <time>2018-08-28T11:49:23Z</time>
      </trkpt>
      <trkpt lat="43.1266160170018" lon="-4.95445705019399">
        <ele>1273.41975402832</ele>
        <time>2018-08-28T11:49:24Z</time>
      </trkpt>
      <trkpt lat="43.126686550717" lon="-4.95448320173189">
        <ele>1271.86238098145</ele>
        <time>2018-08-28T11:49:25Z</time>
      </trkpt>
      <trkpt lat="43.1267364649504" lon="-4.95450667106077">
        <ele>1272.42280578613</ele>
        <time>2018-08-28T11:49:26Z</time>
      </trkpt>
      <trkpt lat="43.1268152129307" lon="-4.95452268049582">
        <ele>1275.76484680176</ele>
        <time>2018-08-28T11:49:28Z</time>
      </trkpt>
      <trkpt lat="43.1268613133981" lon="-4.9545360915409">
        <ele>1277.7193145752</ele>
        <time>2018-08-28T11:49:29Z</time>
      </trkpt>
      <trkpt lat="43.126916382502" lon="-4.9545133765833">
        <ele>1274.0718536377</ele>
        <time>2018-08-28T11:49:31Z</time>
      </trkpt>
      <trkpt lat="43.1269642431691" lon="-4.95449946262404">
        <ele>1273.8111114502</ele>
        <time>2018-08-28T11:49:32Z</time>
      </trkpt>
      <trkpt lat="43.1270363275363" lon="-4.95451396331652">
        <ele>1271.58699035645</ele>
        <time>2018-08-28T11:49:34Z</time>
      </trkpt>
      <trkpt lat="43.1271360721841" lon="-4.95450298302337">
        <ele>1269.84773254395</ele>
        <time>2018-08-28T11:49:36Z</time>
      </trkpt>
      <trkpt lat="43.1271780236095" lon="-4.95453097857996">
        <ele>1271.09175109863</ele>
        <time>2018-08-28T11:49:37Z</time>
      </trkpt>
      <trkpt lat="43.1272230344295" lon="-4.95455545373722">
        <ele>1271.34809875488</ele>
        <time>2018-08-28T11:49:38Z</time>
      </trkpt>
      <trkpt lat="43.1272882875457" lon="-4.95458411984607">
        <ele>1270.78388977051</ele>
        <time>2018-08-28T11:49:40Z</time>
      </trkpt>
      <trkpt lat="43.1273594918131" lon="-4.95461060666009">
        <ele>1270.8452911377</ele>
        <time>2018-08-28T11:49:42Z</time>
      </trkpt>
      <trkpt lat="43.1274148961931" lon="-4.95462058112487">
        <ele>1273.90998840332</ele>
        <time>2018-08-28T11:49:51Z</time>
      </trkpt>
      <trkpt lat="43.1274604099273" lon="-4.95462812483772">
        <ele>1271.1206817627</ele>
        <time>2018-08-28T11:50:01Z</time>
      </trkpt>
      <trkpt lat="43.1275214301824" lon="-4.95463826694056">
        <ele>1269.56819152832</ele>
        <time>2018-08-28T11:50:04Z</time>
      </trkpt>
      <trkpt lat="43.1275879824936" lon="-4.95464195497795">
        <ele>1269.04011535645</ele>
        <time>2018-08-28T11:50:06Z</time>
      </trkpt>
      <trkpt lat="43.1276650540932" lon="-4.95466081426009">
        <ele>1269.37409973145</ele>
        <time>2018-08-28T11:50:08Z</time>
      </trkpt>
      <trkpt lat="43.1277426705166" lon="-4.95469987392887">
        <ele>1269.85054016113</ele>
        <time>2018-08-28T11:50:10Z</time>
      </trkpt>
      <trkpt lat="43.1277851248562" lon="-4.95472066104873">
        <ele>1270.97346496582</ele>
        <time>2018-08-28T11:50:11Z</time>
      </trkpt>
      <trkpt lat="43.1278285012051" lon="-4.95473968796893">
        <ele>1272.16096496582</ele>
        <time>2018-08-28T11:50:12Z</time>
      </trkpt>
      <trkpt lat="43.1279055308952" lon="-4.95476827025875">
        <ele>1273.15644836426</ele>
        <time>2018-08-28T11:50:14Z</time>
      </trkpt>
      <trkpt lat="43.1279843626946" lon="-4.95479618199631">
        <ele>1273.75068664551</ele>
        <time>2018-08-28T11:50:16Z</time>
      </trkpt>
      <trkpt lat="43.1280354923039" lon="-4.95480389334723">
        <ele>1273.89070129395</ele>
        <time>2018-08-28T11:50:17Z</time>
      </trkpt>
      <trkpt lat="43.1281317584618" lon="-4.95483063161835">
        <ele>1275.45283508301</ele>
        <time>2018-08-28T11:50:19Z</time>
      </trkpt>
      <trkpt lat="43.1281768950104" lon="-4.95484253392085">
        <ele>1275.88325500488</ele>
        <time>2018-08-28T11:50:20Z</time>
      </trkpt>
      <trkpt lat="43.128231377381" lon="-4.95486415923103">
        <ele>1277.67707824707</ele>
        <time>2018-08-28T11:50:21Z</time>
      </trkpt>
      <trkpt lat="43.1282910146221" lon="-4.95489542372986">
        <ele>1277.97285461426</ele>
        <time>2018-08-28T11:50:22Z</time>
      </trkpt>
      <trkpt lat="43.1283493526682" lon="-4.95487916283771">
        <ele>1277.09834289551</ele>
        <time>2018-08-28T11:50:23Z</time>
      </trkpt>
      <trkpt lat="43.1283983029827" lon="-4.95490263216659">
        <ele>1278.5200958252</ele>
        <time>2018-08-28T11:50:24Z</time>
      </trkpt>
      <trkpt lat="43.1284501869633" lon="-4.95490917005106">
        <ele>1278.71223449707</ele>
        <time>2018-08-28T11:50:25Z</time>
      </trkpt>
      <trkpt lat="43.1285254983633" lon="-4.9549230001913">
        <ele>1280.66181945801</ele>
        <time>2018-08-28T11:50:27Z</time>
      </trkpt>
      <trkpt lat="43.1286430545553" lon="-4.95490489528045">
        <ele>1279.43672180176</ele>
        <time>2018-08-28T11:50:29Z</time>
      </trkpt>
      <trkpt lat="43.1287223054498" lon="-4.95487916283771">
        <ele>1277.91889953613</ele>
        <time>2018-08-28T11:50:31Z</time>
      </trkpt>
      <trkpt lat="43.1288132071897" lon="-4.9548759777145">
        <ele>1278.15303039551</ele>
        <time>2018-08-28T11:50:33Z</time>
      </trkpt>
      <trkpt lat="43.1288572960004" lon="-4.95489031076893">
        <ele>1279.20259094238</ele>
        <time>2018-08-28T11:50:34Z</time>
      </trkpt>
      <trkpt lat="43.1289177714317" lon="-4.95488486253187">
        <ele>1278.36616516113</ele>
        <time>2018-08-28T11:50:35Z</time>
      </trkpt>
      <trkpt lat="43.12898197681" lon="-4.9548553582327">
        <ele>1277.29463195801</ele>
        <time>2018-08-28T11:50:36Z</time>
      </trkpt>
      <trkpt lat="43.1290284963726" lon="-4.95483851060733">
        <ele>1277.68782043457</ele>
        <time>2018-08-28T11:50:37Z</time>
      </trkpt>
      <trkpt lat="43.1290945876791" lon="-4.95483381674155">
        <ele>1280.97798156738</ele>
        <time>2018-08-28T11:50:40Z</time>
      </trkpt>
      <trkpt lat="43.1291673425987" lon="-4.95481210761234">
        <ele>1279.35688781738</ele>
        <time>2018-08-28T11:50:42Z</time>
      </trkpt>
      <trkpt lat="43.1292560231342" lon="-4.95478671044573">
        <ele>1275.2505645752</ele>
        <time>2018-08-28T11:50:43Z</time>
      </trkpt>
      <trkpt lat="43.1293012435018" lon="-4.95477732271417">
        <ele>1276.44026184082</ele>
        <time>2018-08-28T11:50:44Z</time>
      </trkpt>
      <trkpt lat="43.1293752976164" lon="-4.95474287309214">
        <ele>1277.61543273926</ele>
        <time>2018-08-28T11:50:46Z</time>
      </trkpt>
      <trkpt lat="43.1294460408791" lon="-4.95470289141401">
        <ele>1279.96467590332</ele>
        <time>2018-08-28T11:50:48Z</time>
      </trkpt>
      <trkpt lat="43.1294879084855" lon="-4.95467950590416">
        <ele>1280.21382141113</ele>
        <time>2018-08-28T11:50:49Z</time>
      </trkpt>
      <trkpt lat="43.1295331707626" lon="-4.95462493971452">
        <ele>1280.1851348877</ele>
        <time>2018-08-28T11:50:51Z</time>
      </trkpt>
      <trkpt lat="43.1295814086153" lon="-4.9546206649439">
        <ele>1280.73908996582</ele>
        <time>2018-08-28T11:50:52Z</time>
      </trkpt>
      <trkpt lat="43.1296477094694" lon="-4.95456425473555">
        <ele>1280.33979797363</ele>
        <time>2018-08-28T11:50:54Z</time>
      </trkpt>
      <trkpt lat="43.1296907505422" lon="-4.95453072712287">
        <ele>1279.66877746582</ele>
        <time>2018-08-28T11:50:55Z</time>
      </trkpt>
      <trkpt lat="43.1297382759332" lon="-4.95449502021536">
        <ele>1279.59870910645</ele>
        <time>2018-08-28T11:50:56Z</time>
      </trkpt>
      <trkpt lat="43.1297944346844" lon="-4.95441480540201">
        <ele>1279.67353820801</ele>
        <time>2018-08-28T11:50:58Z</time>
      </trkpt>
      <trkpt lat="43.1298286328494" lon="-4.95437130332455">
        <ele>1280.6402130127</ele>
        <time>2018-08-28T11:50:59Z</time>
      </trkpt>
      <trkpt lat="43.1298629148334" lon="-4.95432436466678">
        <ele>1281.0659942627</ele>
        <time>2018-08-28T11:51:00Z</time>
      </trkpt>
      <trkpt lat="43.129916098009" lon="-4.95422788896128">
        <ele>1280.22846984863</ele>
        <time>2018-08-28T11:51:02Z</time>
      </trkpt>
      <trkpt lat="43.1299411598995" lon="-4.95415907353624">
        <ele>1277.66181945801</ele>
        <time>2018-08-28T11:51:03Z</time>
      </trkpt>
      <trkpt lat="43.1299874699145" lon="-4.95405765250787">
        <ele>1279.65046691895</ele>
        <time>2018-08-28T11:51:05Z</time>
      </trkpt>
      <trkpt lat="43.1300038984447" lon="-4.95399747044309">
        <ele>1280.18745422363</ele>
        <time>2018-08-28T11:51:06Z</time>
      </trkpt>
      <trkpt lat="43.1300066644728" lon="-4.95393376797899">
        <ele>1281.01460266113</ele>
        <time>2018-08-28T11:51:07Z</time>
      </trkpt>
      <trkpt lat="43.1300103106006" lon="-4.95384089649185">
        <ele>1282.9380645752</ele>
        <time>2018-08-28T11:51:09Z</time>
      </trkpt>
      <trkpt lat="43.1299921218707" lon="-4.95372354984745">
        <ele>1283.15339660645</ele>
        <time>2018-08-28T11:51:11Z</time>
      </trkpt>
      <trkpt lat="43.129991577047" lon="-4.95361424983009">
        <ele>1280.72773742676</ele>
        <time>2018-08-28T11:51:13Z</time>
      </trkpt>
      <trkpt lat="43.1299861707195" lon="-4.95349899866148">
        <ele>1280.6265411377</ele>
        <time>2018-08-28T11:51:15Z</time>
      </trkpt>
      <trkpt lat="43.1299959775462" lon="-4.95340445079371">
        <ele>1277.99201965332</ele>
        <time>2018-08-28T11:51:17Z</time>
      </trkpt>
      <trkpt lat="43.1300181895896" lon="-4.95334963314697">
        <ele>1279.45637512207</ele>
        <time>2018-08-28T11:51:18Z</time>
      </trkpt>
      <trkpt lat="43.1300375517859" lon="-4.95329380967184">
        <ele>1280.13569641113</ele>
        <time>2018-08-28T11:51:19Z</time>
      </trkpt>
      <trkpt lat="43.1300754379883" lon="-4.9531922210054">
        <ele>1281.40034484863</ele>
        <time>2018-08-28T11:51:21Z</time>
      </trkpt>
      <trkpt lat="43.1301133661001" lon="-4.95310412720307">
        <ele>1281.69953918457</ele>
        <time>2018-08-28T11:51:23Z</time>
      </trkpt>
      <trkpt lat="43.130146013613" lon="-4.95302164927586">
        <ele>1282.1743927002</ele>
        <time>2018-08-28T11:51:25Z</time>
      </trkpt>
      <trkpt lat="43.1301778229355" lon="-4.95292911306485">
        <ele>1283.72651672363</ele>
        <time>2018-08-28T11:51:27Z</time>
      </trkpt>
      <trkpt lat="43.1302132364764" lon="-4.9528333079116">
        <ele>1281.28584289551</ele>
        <time>2018-08-28T11:51:29Z</time>
      </trkpt>
      <trkpt lat="43.1302509550407" lon="-4.95273557492062">
        <ele>1280.99775695801</ele>
        <time>2018-08-28T11:51:31Z</time>
      </trkpt>
      <trkpt lat="43.1302922778233" lon="-4.9526551924692">
        <ele>1281.51362609863</ele>
        <time>2018-08-28T11:51:33Z</time>
      </trkpt>
      <trkpt lat="43.130336282815" lon="-4.95258478448256">
        <ele>1281.45222473145</ele>
        <time>2018-08-28T11:51:35Z</time>
      </trkpt>
      <trkpt lat="43.1303923577472" lon="-4.95251714252397">
        <ele>1281.58125305176</ele>
        <time>2018-08-28T11:51:37Z</time>
      </trkpt>
      <trkpt lat="43.1304313335969" lon="-4.95245017111763">
        <ele>1283.58601379395</ele>
        <time>2018-08-28T11:51:39Z</time>
      </trkpt>
      <trkpt lat="43.1304489355936" lon="-4.95236484334334">
        <ele>1283.61543273926</ele>
        <time>2018-08-28T11:51:41Z</time>
      </trkpt>
      <trkpt lat="43.1304770568787" lon="-4.9522719718562">
        <ele>1286.05183410645</ele>
        <time>2018-08-28T11:51:43Z</time>
      </trkpt>
      <trkpt lat="43.130521439056" lon="-4.95217692107423">
        <ele>1285.45747375488</ele>
        <time>2018-08-28T11:51:45Z</time>
      </trkpt>
      <trkpt lat="43.1305522844597" lon="-4.952089078729">
        <ele>1283.17646789551</ele>
        <time>2018-08-28T11:51:47Z</time>
      </trkpt>
      <trkpt lat="43.1305791065499" lon="-4.95198262855872">
        <ele>1284.23896789551</ele>
        <time>2018-08-28T11:51:49Z</time>
      </trkpt>
      <trkpt lat="43.1306147296383" lon="-4.95188414119645">
        <ele>1282.1011505127</ele>
        <time>2018-08-28T11:51:51Z</time>
      </trkpt>
      <trkpt lat="43.1306558847829" lon="-4.95179688558444">
        <ele>1283.10359191895</ele>
        <time>2018-08-28T11:51:53Z</time>
      </trkpt>
      <trkpt lat="43.1306733191415" lon="-4.95171256363853">
        <ele>1284.55097961426</ele>
        <time>2018-08-28T11:51:55Z</time>
      </trkpt>
      <trkpt lat="43.1307020271599" lon="-4.95160778984889">
        <ele>1284.67671203613</ele>
        <time>2018-08-28T11:51:57Z</time>
      </trkpt>
      <trkpt lat="43.1307496782794" lon="-4.95150569826826">
        <ele>1286.54280090332</ele>
        <time>2018-08-28T11:51:59Z</time>
      </trkpt>
      <trkpt lat="43.1307752849936" lon="-4.95145356283053">
        <ele>1288.5913848877</ele>
        <time>2018-08-28T11:52:00Z</time>
      </trkpt>
      <trkpt lat="43.1307998439699" lon="-4.95139882900282">
        <ele>1288.69966125488</ele>
        <time>2018-08-28T11:52:01Z</time>
      </trkpt>
      <trkpt lat="43.1308274204313" lon="-4.95134870522185">
        <ele>1287.79866027832</ele>
        <time>2018-08-28T11:52:02Z</time>
      </trkpt>
      <trkpt lat="43.1308892788767" lon="-4.95126153342887">
        <ele>1286.0269317627</ele>
        <time>2018-08-28T11:52:04Z</time>
      </trkpt>
      <trkpt lat="43.130925614427" lon="-4.95121836662754">
        <ele>1285.01704406738</ele>
        <time>2018-08-28T11:52:05Z</time>
      </trkpt>
      <trkpt lat="43.1309650093719" lon="-4.95117654093071">
        <ele>1285.2046661377</ele>
        <time>2018-08-28T11:52:06Z</time>
      </trkpt>
      <trkpt lat="43.1310049491405" lon="-4.95113597251936">
        <ele>1284.97602844238</ele>
        <time>2018-08-28T11:52:07Z</time>
      </trkpt>
      <trkpt lat="43.1310451822757" lon="-4.95110026561185">
        <ele>1285.9097442627</ele>
        <time>2018-08-28T11:52:08Z</time>
      </trkpt>
      <trkpt lat="43.1310855411395" lon="-4.95106246322854">
        <ele>1285.58711242676</ele>
        <time>2018-08-28T11:52:09Z</time>
      </trkpt>
      <trkpt lat="43.1311602658063" lon="-4.95101242326661">
        <ele>1284.13838195801</ele>
        <time>2018-08-28T11:52:10Z</time>
      </trkpt>
      <trkpt lat="43.1312276982173" lon="-4.95099616237446">
        <ele>1284.61372375488</ele>
        <time>2018-08-28T11:52:11Z</time>
      </trkpt>
      <trkpt lat="43.1312695239141" lon="-4.95095492341085">
        <ele>1285.05085754395</ele>
        <time>2018-08-28T11:52:12Z</time>
      </trkpt>
      <trkpt lat="43.1313204858854" lon="-4.95086607523724">
        <ele>1282.74263000488</ele>
        <time>2018-08-28T11:52:14Z</time>
      </trkpt>
      <trkpt lat="43.1313674245431" lon="-4.95081905276044">
        <ele>1283.76338195801</ele>
        <time>2018-08-28T11:52:15Z</time>
      </trkpt>
      <trkpt lat="43.1313711963996" lon="-4.95073045604392">
        <ele>1284.30793762207</ele>
        <time>2018-08-28T11:52:17Z</time>
      </trkpt>
      <trkpt lat="43.1313926121622" lon="-4.95066155679985">
        <ele>1282.86213684082</ele>
        <time>2018-08-28T11:52:18Z</time>
      </trkpt>
      <trkpt lat="43.1313939951762" lon="-4.95055502281054">
        <ele>1283.15339660645</ele>
        <time>2018-08-28T11:52:20Z</time>
      </trkpt>
      <trkpt lat="43.131409417878" lon="-4.95048738085195">
        <ele>1284.84785461426</ele>
        <time>2018-08-28T11:52:21Z</time>
      </trkpt>
      <trkpt lat="43.1314521236747" lon="-4.95043331757649">
        <ele>1286.16999816895</ele>
        <time>2018-08-28T11:52:22Z</time>
      </trkpt>
      <trkpt lat="43.1314553926169" lon="-4.95037145913108">
        <ele>1286.16621398926</ele>
        <time>2018-08-28T11:52:23Z</time>
      </trkpt>
      <trkpt lat="43.1314947456523" lon="-4.95031102560922">
        <ele>1288.02754211426</ele>
        <time>2018-08-28T11:52:24Z</time>
      </trkpt>
      <trkpt lat="43.1315110903635" lon="-4.95019854046865">
        <ele>1289.30732727051</ele>
        <time>2018-08-28T11:52:26Z</time>
      </trkpt>
      <trkpt lat="43.1315296981885" lon="-4.95008245110973">
        <ele>1289.73603820801</ele>
        <time>2018-08-28T11:52:28Z</time>
      </trkpt>
      <trkpt lat="43.1315405527531" lon="-4.95002143085464">
        <ele>1290.28352355957</ele>
        <time>2018-08-28T11:52:29Z</time>
      </trkpt>
      <trkpt lat="43.1315503176703" lon="-4.94990140200122">
        <ele>1291.92951965332</ele>
        <time>2018-08-28T11:52:31Z</time>
      </trkpt>
      <trkpt lat="43.1315424386814" lon="-4.94980442338153">
        <ele>1292.3863067627</ele>
        <time>2018-08-28T11:52:32Z</time>
      </trkpt>
      <trkpt lat="43.1315224897518" lon="-4.94974432513579">
        <ele>1292.37507629395</ele>
        <time>2018-08-28T11:52:33Z</time>
      </trkpt>
      <trkpt lat="43.1314876210346" lon="-4.94969311170741">
        <ele>1292.98054504395</ele>
        <time>2018-08-28T11:52:34Z</time>
      </trkpt>
      <trkpt lat="43.1314184703335" lon="-4.94965204038187">
        <ele>1292.05867004395</ele>
        <time>2018-08-28T11:52:36Z</time>
      </trkpt>
      <trkpt lat="43.131370986852" lon="-4.94960778393312">
        <ele>1294.78889465332</ele>
        <time>2018-08-28T11:52:37Z</time>
      </trkpt>
      <trkpt lat="43.1313349027588" lon="-4.94956428185566">
        <ele>1294.79426574707</ele>
        <time>2018-08-28T11:52:38Z</time>
      </trkpt>
      <trkpt lat="43.1312840246066" lon="-4.94950032793446">
        <ele>1295.32734680176</ele>
        <time>2018-08-28T11:52:39Z</time>
      </trkpt>
      <trkpt lat="43.1312494911655" lon="-4.94943545200392">
        <ele>1295.24201965332</ele>
        <time>2018-08-28T11:52:40Z</time>
      </trkpt>
      <trkpt lat="43.1311931228667" lon="-4.94937853888138">
        <ele>1294.59382629395</ele>
        <time>2018-08-28T11:52:41Z</time>
      </trkpt>
      <trkpt lat="43.1311009638413" lon="-4.94935649447604">
        <ele>1292.00434875488</ele>
        <time>2018-08-28T11:52:43Z</time>
      </trkpt>
      <trkpt lat="43.1309938012093" lon="-4.94933855720325">
        <ele>1289.76545715332</ele>
        <time>2018-08-28T11:52:45Z</time>
      </trkpt>
      <trkpt lat="43.1308984570607" lon="-4.94935775176152">
        <ele>1293.13679504395</ele>
        <time>2018-08-28T11:52:47Z</time>
      </trkpt>
      <trkpt lat="43.1308332877635" lon="-4.94934006594582">
        <ele>1291.25227355957</ele>
        <time>2018-08-28T11:52:48Z</time>
      </trkpt>
      <trkpt lat="43.1307635922387" lon="-4.94930796325668">
        <ele>1291.39595031738</ele>
        <time>2018-08-28T11:52:49Z</time>
      </trkpt>
      <trkpt lat="43.1307032425358" lon="-4.9492945522116">
        <ele>1290.71467590332</ele>
        <time>2018-08-28T11:52:50Z</time>
      </trkpt>
      <trkpt lat="43.1306434376567" lon="-4.94925188832446">
        <ele>1290.80403137207</ele>
        <time>2018-08-28T11:52:51Z</time>
      </trkpt>
      <trkpt lat="43.130559702444" lon="-4.94924585335418">
        <ele>1287.20637512207</ele>
        <time>2018-08-28T11:52:53Z</time>
      </trkpt>
      <trkpt lat="43.1305114645913" lon="-4.94927242398723">
        <ele>1284.47370910645</ele>
        <time>2018-08-28T11:52:54Z</time>
      </trkpt>
      <trkpt lat="43.130414192605" lon="-4.94924266823097">
        <ele>1284.74604797363</ele>
        <time>2018-08-28T11:52:56Z</time>
      </trkpt>
      <trkpt lat="43.1303616799816" lon="-4.94921425357922">
        <ele>1284.8863067627</ele>
        <time>2018-08-28T11:52:57Z</time>
      </trkpt>
      <trkpt lat="43.1303154118761" lon="-4.94920738041862">
        <ele>1285.13154602051</ele>
        <time>2018-08-28T11:52:58Z</time>
      </trkpt>
      <trkpt lat="43.1302665453806" lon="-4.94919740595384">
        <ele>1285.52632141113</ele>
        <time>2018-08-28T11:52:59Z</time>
      </trkpt>
      <trkpt lat="43.1302206125512" lon="-4.94918642566069">
        <ele>1285.0630645752</ele>
        <time>2018-08-28T11:53:00Z</time>
      </trkpt>
      <trkpt lat="43.1301611848577" lon="-4.94918885641261">
        <ele>1286.2583770752</ele>
        <time>2018-08-28T11:53:01Z</time>
      </trkpt>
      <trkpt lat="43.130084029439" lon="-4.94917452335819">
        <ele>1283.32832336426</ele>
        <time>2018-08-28T11:53:02Z</time>
      </trkpt>
      <trkpt lat="43.130021877627" lon="-4.94916999713047">
        <ele>1283.2368927002</ele>
        <time>2018-08-28T11:53:03Z</time>
      </trkpt>
      <trkpt lat="43.1298824027582" lon="-4.94918969460293">
        <ele>1284.04707336426</ele>
        <time>2018-08-28T11:53:05Z</time>
      </trkpt>
      <trkpt lat="43.1298148865282" lon="-4.94912875816687">
        <ele>1283.91279602051</ele>
        <time>2018-08-28T11:53:06Z</time>
      </trkpt>
      <trkpt lat="43.1297384435713" lon="-4.94912917726203">
        <ele>1283.34162902832</ele>
        <time>2018-08-28T11:53:07Z</time>
      </trkpt>
      <trkpt lat="43.1296666106611" lon="-4.94910327718123">
        <ele>1284.2046661377</ele>
        <time>2018-08-28T11:53:08Z</time>
      </trkpt>
      <trkpt lat="43.1295850128337" lon="-4.94906120002731">
        <ele>1283.42561340332</ele>
        <time>2018-08-28T11:53:09Z</time>
      </trkpt>
      <trkpt lat="43.1295244116738" lon="-4.94903404266103">
        <ele>1282.22090148926</ele>
        <time>2018-08-28T11:53:10Z</time>
      </trkpt>
      <trkpt lat="43.1294492260023" lon="-4.94901635684534">
        <ele>1282.84956359863</ele>
        <time>2018-08-28T11:53:11Z</time>
      </trkpt>
      <trkpt lat="43.1293750042497" lon="-4.94901920669242">
        <ele>1281.39082336426</ele>
        <time>2018-08-28T11:53:12Z</time>
      </trkpt>
      <trkpt lat="43.1292762235209" lon="-4.94901602156921">
        <ele>1280.21528625488</ele>
        <time>2018-08-28T11:53:13Z</time>
      </trkpt>
      <trkpt lat="43.1291965535312" lon="-4.94900872931345">
        <ele>1280.09980773926</ele>
        <time>2018-08-28T11:53:14Z</time>
      </trkpt>
      <trkpt lat="43.1291164644464" lon="-4.94898551144167">
        <ele>1279.61836242676</ele>
        <time>2018-08-28T11:53:15Z</time>
      </trkpt>
      <trkpt lat="43.1290367525473" lon="-4.94898157194718">
        <ele>1278.92549133301</ele>
        <time>2018-08-28T11:53:16Z</time>
      </trkpt>
      <trkpt lat="43.1289511314064" lon="-4.94898073375686">
        <ele>1279.40937805176</ele>
        <time>2018-08-28T11:53:17Z</time>
      </trkpt>
      <trkpt lat="43.1288654264464" lon="-4.94897536933883">
        <ele>1278.20515441895</ele>
        <time>2018-08-28T11:53:18Z</time>
      </trkpt>
      <trkpt lat="43.1287776260107" lon="-4.94897251949175">
        <ele>1278.14656066895</ele>
        <time>2018-08-28T11:53:19Z</time>
      </trkpt>
      <trkpt lat="43.1287037814438" lon="-4.94894703850611">
        <ele>1279.38996887207</ele>
        <time>2018-08-28T11:53:20Z</time>
      </trkpt>
      <trkpt lat="43.1286185374885" lon="-4.94897612371012">
        <ele>1279.2993927002</ele>
        <time>2018-08-28T11:53:21Z</time>
      </trkpt>
      <trkpt lat="43.128526127006" lon="-4.94897704571946">
        <ele>1278.57331848145</ele>
        <time>2018-08-28T11:53:22Z</time>
      </trkpt>
      <trkpt lat="43.1284542102768" lon="-4.94894209318324">
        <ele>1279.25117492676</ele>
        <time>2018-08-28T11:53:23Z</time>
      </trkpt>
      <trkpt lat="43.1284237420588" lon="-4.94885014370545">
        <ele>1279.57624816895</ele>
        <time>2018-08-28T11:53:24Z</time>
      </trkpt>
      <trkpt lat="43.1283625960752" lon="-4.94878794998391">
        <ele>1279.04426574707</ele>
        <time>2018-08-28T11:53:25Z</time>
      </trkpt>
      <trkpt lat="43.1282958761259" lon="-4.94877018034919">
        <ele>1278.50373840332</ele>
        <time>2018-08-28T11:53:26Z</time>
      </trkpt>
      <trkpt lat="43.1282343110471" lon="-4.9487387482123">
        <ele>1278.5337677002</ele>
        <time>2018-08-28T11:53:27Z</time>
      </trkpt>
      <trkpt lat="43.1281281542435" lon="-4.94874620810612">
        <ele>1277.81550598145</ele>
        <time>2018-08-28T11:53:28Z</time>
      </trkpt>
      <trkpt lat="43.1280488614395" lon="-4.94872416370078">
        <ele>1276.91645812988</ele>
        <time>2018-08-28T11:53:29Z</time>
      </trkpt>
      <trkpt lat="43.127941908355" lon="-4.94871620089277">
        <ele>1275.1665802002</ele>
        <time>2018-08-28T11:53:30Z</time>
      </trkpt>
      <trkpt lat="43.1278426666214" lon="-4.94868644513651">
        <ele>1274.72761535645</ele>
        <time>2018-08-28T11:53:31Z</time>
      </trkpt>
      <trkpt lat="43.1277756533056" lon="-4.94863313623234">
        <ele>1272.92158508301</ele>
        <time>2018-08-28T11:53:32Z</time>
      </trkpt>
      <trkpt lat="43.1277044490381" lon="-4.94856281206473">
        <ele>1270.70967102051</ele>
        <time>2018-08-28T11:53:33Z</time>
      </trkpt>
      <trkpt lat="43.1276601925894" lon="-4.94844839908643">
        <ele>1269.8218536377</ele>
        <time>2018-08-28T11:53:34Z</time>
      </trkpt>
      <trkpt lat="43.1276093982562" lon="-4.94834597222968">
        <ele>1269.71760559082</ele>
        <time>2018-08-28T11:53:35Z</time>
      </trkpt>
      <trkpt lat="43.1276012259006" lon="-4.94826131500765">
        <ele>1269.27095031738</ele>
        <time>2018-08-28T11:53:36Z</time>
      </trkpt>
      <trkpt lat="43.1275565084472" lon="-4.94816601276858">
        <ele>1270.45283508301</ele>
        <time>2018-08-28T11:53:37Z</time>
      </trkpt>
      <trkpt lat="43.1275094859704" lon="-4.94806274772151">
        <ele>1270.42475891113</ele>
        <time>2018-08-28T11:53:38Z</time>
      </trkpt>
      <trkpt lat="43.1274584820896" lon="-4.94797649793788">
        <ele>1271.31245422363</ele>
        <time>2018-08-28T11:53:39Z</time>
      </trkpt>
      <trkpt lat="43.1274071848422" lon="-4.94793886319264">
        <ele>1269.72505187988</ele>
        <time>2018-08-28T11:53:40Z</time>
      </trkpt>
      <trkpt lat="43.1273639342218" lon="-4.94787826203271">
        <ele>1269.94209289551</ele>
        <time>2018-08-28T11:53:41Z</time>
      </trkpt>
      <trkpt lat="43.1273771776288" lon="-4.94779310189648">
        <ele>1269.93757629395</ele>
        <time>2018-08-28T11:53:43Z</time>
      </trkpt>
      <trkpt lat="43.1274343002989" lon="-4.94780693203672">
        <ele>1267.52912902832</ele>
        <time>2018-08-28T11:53:44Z</time>
      </trkpt>
      <trkpt lat="43.1274933508068" lon="-4.94781648740633">
        <ele>1267.5806427002</ele>
        <time>2018-08-28T11:53:45Z</time>
      </trkpt>
      <trkpt lat="43.1275645969837" lon="-4.94785940275057">
        <ele>1267.11726379395</ele>
        <time>2018-08-28T11:53:47Z</time>
      </trkpt>
      <trkpt lat="43.1276389025553" lon="-4.94788060896559">
        <ele>1266.64082336426</ele>
        <time>2018-08-28T11:53:48Z</time>
      </trkpt>
      <trkpt lat="43.1277104840084" lon="-4.94785345159932">
        <ele>1265.74848937988</ele>
        <time>2018-08-28T11:53:49Z</time>
      </trkpt>
      <trkpt lat="43.1277987454488" lon="-4.9478179961489">
        <ele>1264.55561828613</ele>
        <time>2018-08-28T11:53:50Z</time>
      </trkpt>
      <trkpt lat="43.1278536888241" lon="-4.94776443578764">
        <ele>1264.79280090332</ele>
        <time>2018-08-28T11:53:51Z</time>
      </trkpt>
      <trkpt lat="43.127918019931" lon="-4.94770986959799">
        <ele>1264.98371887207</ele>
        <time>2018-08-28T11:53:52Z</time>
      </trkpt>
      <trkpt lat="43.1279728794872" lon="-4.94766083546444">
        <ele>1262.87629699707</ele>
        <time>2018-08-28T11:53:53Z</time>
      </trkpt>
      <trkpt lat="43.1280412339076" lon="-4.94760668836995">
        <ele>1263.03340148926</ele>
        <time>2018-08-28T11:53:54Z</time>
      </trkpt>
      <trkpt lat="43.1281139888271" lon="-4.94754667394324">
        <ele>1261.8130645752</ele>
        <time>2018-08-28T11:53:55Z</time>
      </trkpt>
      <trkpt lat="43.1281877076655" lon="-4.94749043137296">
        <ele>1261.88557434082</ele>
        <time>2018-08-28T11:53:56Z</time>
      </trkpt>
      <trkpt lat="43.1282554334431" lon="-4.94742731564208">
        <ele>1260.56782531738</ele>
        <time>2018-08-28T11:53:57Z</time>
      </trkpt>
      <trkpt lat="43.1283110473707" lon="-4.94736461900635">
        <ele>1259.50068664551</ele>
        <time>2018-08-28T11:53:58Z</time>
      </trkpt>
      <trkpt lat="43.1283718161687" lon="-4.94730250910385">
        <ele>1258.48530578613</ele>
        <time>2018-08-28T11:53:59Z</time>
      </trkpt>
      <trkpt lat="43.128446750383" lon="-4.94723687880202">
        <ele>1258.20307922363</ele>
        <time>2018-08-28T11:54:00Z</time>
      </trkpt>
      <trkpt lat="43.1284925574838" lon="-4.94715054519935">
        <ele>1256.52143859863</ele>
        <time>2018-08-28T11:54:01Z</time>
      </trkpt>
      <trkpt lat="43.1284856424137" lon="-4.94706412777765">
        <ele>1255.15718078613</ele>
        <time>2018-08-28T11:54:02Z</time>
      </trkpt>
      <trkpt lat="43.12851279978" lon="-4.94696471840604">
        <ele>1255.28950500488</ele>
        <time>2018-08-28T11:54:04Z</time>
      </trkpt>
      <trkpt lat="43.1285345508187" lon="-4.94689347222908">
        <ele>1252.65913391113</ele>
        <time>2018-08-28T11:54:07Z</time>
      </trkpt>
      <trkpt lat="43.128586895804" lon="-4.94684259407683">
        <ele>1252.0738067627</ele>
        <time>2018-08-28T11:54:09Z</time>
      </trkpt>
      <trkpt lat="43.128663338761" lon="-4.94677620940371">
        <ele>1251.53706359863</ele>
        <time>2018-08-28T11:54:11Z</time>
      </trkpt>
      <trkpt lat="43.1287122052565" lon="-4.94673312642141">
        <ele>1251.92280578613</ele>
        <time>2018-08-28T11:54:12Z</time>
      </trkpt>
      <trkpt lat="43.1287671486317" lon="-4.94669985026582">
        <ele>1252.34980773926</ele>
        <time>2018-08-28T11:54:13Z</time>
      </trkpt>
      <trkpt lat="43.1288212957262" lon="-4.94666959159537">
        <ele>1251.93562316895</ele>
        <time>2018-08-28T11:54:14Z</time>
      </trkpt>
      <trkpt lat="43.1288717547833" lon="-4.94663170539303">
        <ele>1252.16426086426</ele>
        <time>2018-08-28T11:54:15Z</time>
      </trkpt>
      <trkpt lat="43.1289315177529" lon="-4.94658979587718">
        <ele>1251.74324035645</ele>
        <time>2018-08-28T11:54:16Z</time>
      </trkpt>
      <trkpt lat="43.1289980281546" lon="-4.94653791189654">
        <ele>1253.05110168457</ele>
        <time>2018-08-28T11:54:17Z</time>
      </trkpt>
      <trkpt lat="43.1290396443039" lon="-4.94646004401608">
        <ele>1253.8443145752</ele>
        <time>2018-08-28T11:54:18Z</time>
      </trkpt>
      <trkpt lat="43.129090354818" lon="-4.94641637430056">
        <ele>1252.2993927002</ele>
        <time>2018-08-28T11:54:19Z</time>
      </trkpt>
      <trkpt lat="43.1291483994975" lon="-4.94635233656033">
        <ele>1252.9068145752</ele>
        <time>2018-08-28T11:54:20Z</time>
      </trkpt>
      <trkpt lat="43.1291778199776" lon="-4.94626642205282">
        <ele>1252.29707336426</ele>
        <time>2018-08-28T11:54:21Z</time>
      </trkpt>
      <trkpt lat="43.1292121438711" lon="-4.94617681950791">
        <ele>1251.40962219238</ele>
        <time>2018-08-28T11:54:22Z</time>
      </trkpt>
      <trkpt lat="43.1292295363202" lon="-4.94609727524682">
        <ele>1249.86445617676</ele>
        <time>2018-08-28T11:54:23Z</time>
      </trkpt>
      <trkpt lat="43.1292403908848" lon="-4.94601747952862">
        <ele>1248.75862121582</ele>
        <time>2018-08-28T11:54:24Z</time>
      </trkpt>
      <trkpt lat="43.129256819415" lon="-4.94592444040342">
        <ele>1247.37239074707</ele>
        <time>2018-08-28T11:54:25Z</time>
      </trkpt>
      <trkpt lat="43.1292832643195" lon="-4.94582301937504">
        <ele>1247.61445617676</ele>
        <time>2018-08-28T11:54:26Z</time>
      </trkpt>
      <trkpt lat="43.1293021655112" lon="-4.94571723975702">
        <ele>1248.06758117676</ele>
        <time>2018-08-28T11:54:27Z</time>
      </trkpt>
      <trkpt lat="43.1293454999506" lon="-4.94561665691896">
        <ele>1247.3179473877</ele>
        <time>2018-08-28T11:54:28Z</time>
      </trkpt>
      <trkpt lat="43.1293580728053" lon="-4.94550509378775">
        <ele>1245.49971008301</ele>
        <time>2018-08-28T11:54:29Z</time>
      </trkpt>
      <trkpt lat="43.1293783989205" lon="-4.94540476240678">
        <ele>1244.2720489502</ele>
        <time>2018-08-28T11:54:30Z</time>
      </trkpt>
      <trkpt lat="43.1294122618093" lon="-4.94530744851096">
        <ele>1244.13691711426</ele>
        <time>2018-08-28T11:54:31Z</time>
      </trkpt>
      <trkpt lat="43.1294502737402" lon="-4.94521088898642">
        <ele>1244.27339172363</ele>
        <time>2018-08-28T11:54:32Z</time>
      </trkpt>
      <trkpt lat="43.1294761319115" lon="-4.94511391036673">
        <ele>1243.95930480957</ele>
        <time>2018-08-28T11:54:33Z</time>
      </trkpt>
      <trkpt lat="43.1295212684601" lon="-4.9450239725457">
        <ele>1243.54389953613</ele>
        <time>2018-08-28T11:54:34Z</time>
      </trkpt>
      <trkpt lat="43.1295767566591" lon="-4.94493294507726">
        <ele>1242.56074523926</ele>
        <time>2018-08-28T11:54:35Z</time>
      </trkpt>
      <trkpt lat="43.1296448596224" lon="-4.94483529590531">
        <ele>1242.85078430176</ele>
        <time>2018-08-28T11:54:36Z</time>
      </trkpt>
      <trkpt lat="43.1297078077152" lon="-4.94471618906124">
        <ele>1241.98994445801</ele>
        <time>2018-08-28T11:54:37Z</time>
      </trkpt>
      <trkpt lat="43.129762876819" lon="-4.94462591596408">
        <ele>1242.2574005127</ele>
        <time>2018-08-28T11:54:38Z</time>
      </trkpt>
      <trkpt lat="43.1298115756764" lon="-4.94453765452369">
        <ele>1242.60810852051</ele>
        <time>2018-08-28T11:54:39Z</time>
      </trkpt>
      <trkpt lat="43.1298304349586" lon="-4.9444348923908">
        <ele>1240.74909973145</ele>
        <time>2018-08-28T11:54:40Z</time>
      </trkpt>
      <trkpt lat="43.1298378110334" lon="-4.94433187880082">
        <ele>1240.96235656738</ele>
        <time>2018-08-28T11:54:41Z</time>
      </trkpt>
      <trkpt lat="43.1298330333486" lon="-4.94423783384724">
        <ele>1241.36799621582</ele>
        <time>2018-08-28T11:54:42Z</time>
      </trkpt>
      <trkpt lat="43.1298067979916" lon="-4.94415644556744">
        <ele>1241.62446594238</ele>
        <time>2018-08-28T11:54:43Z</time>
      </trkpt>
      <trkpt lat="43.1297732703789" lon="-4.94408017024858">
        <ele>1239.23420715332</ele>
        <time>2018-08-28T11:54:44Z</time>
      </trkpt>
      <trkpt lat="43.1297101965576" lon="-4.94402543642087">
        <ele>1238.00569152832</ele>
        <time>2018-08-28T11:54:45Z</time>
      </trkpt>
      <trkpt lat="43.1296798540681" lon="-4.9439237639354">
        <ele>1237.89399719238</ele>
        <time>2018-08-28T11:54:46Z</time>
      </trkpt>
      <trkpt lat="43.1296793930634" lon="-4.94383541867597">
        <ele>1236.75398254395</ele>
        <time>2018-08-28T11:54:47Z</time>
      </trkpt>
      <trkpt lat="43.1296610366955" lon="-4.94372729212506">
        <ele>1236.98432922363</ele>
        <time>2018-08-28T11:54:48Z</time>
      </trkpt>
      <trkpt lat="43.1296552112728" lon="-4.94364171289368">
        <ele>1239.13459777832</ele>
        <time>2018-08-28T11:54:49Z</time>
      </trkpt>
      <trkpt lat="43.1296177022561" lon="-4.94355118833943">
        <ele>1239.3804473877</ele>
        <time>2018-08-28T11:54:50Z</time>
      </trkpt>
      <trkpt lat="43.1295508984878" lon="-4.94346854277415">
        <ele>1238.60762023926</ele>
        <time>2018-08-28T11:54:51Z</time>
      </trkpt>
      <trkpt lat="43.1294965418457" lon="-4.94337600656314">
        <ele>1238.68293762207</ele>
        <time>2018-08-28T11:54:52Z</time>
      </trkpt>
      <trkpt lat="43.1294307858154" lon="-4.94329989888234">
        <ele>1237.97724914551</ele>
        <time>2018-08-28T11:54:53Z</time>
      </trkpt>
      <trkpt lat="43.1293439492985" lon="-4.9431951250927">
        <ele>1239.78974914551</ele>
        <time>2018-08-28T11:54:55Z</time>
      </trkpt>
      <trkpt lat="43.1292758882447" lon="-4.94310627691908">
        <ele>1240.47163391113</ele>
        <time>2018-08-28T11:54:56Z</time>
      </trkpt>
      <trkpt lat="43.1292072404578" lon="-4.94302832521959">
        <ele>1240.68061828613</ele>
        <time>2018-08-28T11:54:57Z</time>
      </trkpt>
      <trkpt lat="43.129146974574" lon="-4.94295305572911">
        <ele>1240.07014465332</ele>
        <time>2018-08-28T11:54:58Z</time>
      </trkpt>
      <trkpt lat="43.1290799193486" lon="-4.94286864996417">
        <ele>1239.27058410645</ele>
        <time>2018-08-28T11:54:59Z</time>
      </trkpt>
      <trkpt lat="43.1290291250154" lon="-4.94277602993412">
        <ele>1237.50044250488</ele>
        <time>2018-08-28T11:55:00Z</time>
      </trkpt>
      <trkpt lat="43.1289904006227" lon="-4.94269279763563">
        <ele>1234.08381652832</ele>
        <time>2018-08-28T11:55:01Z</time>
      </trkpt>
      <trkpt lat="43.1289380975469" lon="-4.94259623811109">
        <ele>1233.57746887207</ele>
        <time>2018-08-28T11:55:02Z</time>
      </trkpt>
      <trkpt lat="43.1288979482307" lon="-4.94249070995016">
        <ele>1233.60322570801</ele>
        <time>2018-08-28T11:55:03Z</time>
      </trkpt>
      <trkpt lat="43.1288575055479" lon="-4.9424213077919">
        <ele>1235.10432434082</ele>
        <time>2018-08-28T11:55:04Z</time>
      </trkpt>
      <trkpt lat="43.1287988322257" lon="-4.94235693477554">
        <ele>1234.98127746582</ele>
        <time>2018-08-28T11:55:05Z</time>
      </trkpt>
      <trkpt lat="43.1287127500802" lon="-4.9423266761051">
        <ele>1235.0152130127</ele>
        <time>2018-08-28T11:55:06Z</time>
      </trkpt>
      <trkpt lat="43.128642300184" lon="-4.94229826145334">
        <ele>1235.08174133301</ele>
        <time>2018-08-28T11:55:07Z</time>
      </trkpt>
      <trkpt lat="43.1285761250585" lon="-4.94232885539992">
        <ele>1234.55390930176</ele>
        <time>2018-08-28T11:55:08Z</time>
      </trkpt>
      <trkpt lat="43.1285081059142" lon="-4.94229574688239">
        <ele>1235.20771789551</ele>
        <time>2018-08-28T11:55:09Z</time>
      </trkpt>
      <trkpt lat="43.1283989735349" lon="-4.94225023314817">
        <ele>1234.9868927002</ele>
        <time>2018-08-28T11:55:10Z</time>
      </trkpt>
      <trkpt lat="43.1283097481757" lon="-4.94221771136387">
        <ele>1235.04121398926</ele>
        <time>2018-08-28T11:55:11Z</time>
      </trkpt>
      <trkpt lat="43.1282146973937" lon="-4.94217613712413">
        <ele>1233.72578430176</ele>
        <time>2018-08-28T11:55:12Z</time>
      </trkpt>
      <trkpt lat="43.1281157490268" lon="-4.94207438081963">
        <ele>1230.09553527832</ele>
        <time>2018-08-28T11:55:13Z</time>
      </trkpt>
      <trkpt lat="43.1280121067941" lon="-4.94200053625269">
        <ele>1228.46430969238</ele>
        <time>2018-08-28T11:55:14Z</time>
      </trkpt>
      <trkpt lat="43.1278937543213" lon="-4.94194437750144">
        <ele>1225.62910461426</ele>
        <time>2018-08-28T11:55:15Z</time>
      </trkpt>
      <trkpt lat="43.1278130365937" lon="-4.94189375080629">
        <ele>1224.60957336426</ele>
        <time>2018-08-28T11:55:16Z</time>
      </trkpt>
      <trkpt lat="43.127731732133" lon="-4.941853350033">
        <ele>1225.0396270752</ele>
        <time>2018-08-28T11:55:17Z</time>
      </trkpt>
      <trkpt lat="43.127639195922" lon="-4.94180138223333">
        <ele>1225.55061340332</ele>
        <time>2018-08-28T11:55:19Z</time>
      </trkpt>
      <trkpt lat="43.1275914190739" lon="-4.94176232256456">
        <ele>1226.34248352051</ele>
        <time>2018-08-28T11:55:20Z</time>
      </trkpt>
      <trkpt lat="43.1275383616268" lon="-4.94173935614987">
        <ele>1225.78303527832</ele>
        <time>2018-08-28T11:55:21Z</time>
      </trkpt>
      <trkpt lat="43.1276007648959" lon="-4.94163843803568">
        <ele>1227.97346496582</ele>
        <time>2018-08-28T11:55:24Z</time>
      </trkpt>
      <trkpt lat="43.1276612403273" lon="-4.94165997952683">
        <ele>1224.2574005127</ele>
        <time>2018-08-28T11:55:25Z</time>
      </trkpt>
      <trkpt lat="43.1277064187854" lon="-4.94162661955221">
        <ele>1221.45515441895</ele>
        <time>2018-08-28T11:55:27Z</time>
      </trkpt>
      <trkpt lat="43.1277706660732" lon="-4.94155939668877">
        <ele>1222.04731750488</ele>
        <time>2018-08-28T11:55:29Z</time>
      </trkpt>
      <trkpt lat="43.1278197421163" lon="-4.9415681976871">
        <ele>1221.8609161377</ele>
        <time>2018-08-28T11:55:30Z</time>
      </trkpt>
      <trkpt lat="43.1278747274011" lon="-4.94151153602166">
        <ele>1221.60676574707</ele>
        <time>2018-08-28T11:55:32Z</time>
      </trkpt>
      <trkpt lat="43.1279091770231" lon="-4.94146845303936">
        <ele>1221.79560852051</ele>
        <time>2018-08-28T11:55:34Z</time>
      </trkpt>
      <trkpt lat="43.1279488653346" lon="-4.94140600786073">
        <ele>1223.91780090332</ele>
        <time>2018-08-28T11:55:36Z</time>
      </trkpt>
      <trkpt lat="43.1280125258892" lon="-4.94131917134388">
        <ele>1226.4439239502</ele>
        <time>2018-08-28T11:55:38Z</time>
      </trkpt>
      <trkpt lat="43.1280507054582" lon="-4.94128363207443">
        <ele>1227.65937805176</ele>
        <time>2018-08-28T11:55:39Z</time>
      </trkpt>
      <trkpt lat="43.1281189760595" lon="-4.94124306366308">
        <ele>1227.52229309082</ele>
        <time>2018-08-28T11:55:41Z</time>
      </trkpt>
      <trkpt lat="43.1281629391416" lon="-4.94120995514555">
        <ele>1226.73152160645</ele>
        <time>2018-08-28T11:55:43Z</time>
      </trkpt>
      <trkpt lat="43.1282306230097" lon="-4.94117642753286">
        <ele>1228.31050109863</ele>
        <time>2018-08-28T11:55:45Z</time>
      </trkpt>
      <trkpt lat="43.1282914337172" lon="-4.94115773588879">
        <ele>1229.46980285645</ele>
        <time>2018-08-28T11:55:46Z</time>
      </trkpt>
      <trkpt lat="43.1283324631333" lon="-4.94111993350549">
        <ele>1229.72004699707</ele>
        <time>2018-08-28T11:55:47Z</time>
      </trkpt>
      <trkpt lat="43.1284314953192" lon="-4.94109378196759">
        <ele>1230.88667297363</ele>
        <time>2018-08-28T11:55:49Z</time>
      </trkpt>
      <trkpt lat="43.1284845108568" lon="-4.94105128571851">
        <ele>1229.1402130127</ele>
        <time>2018-08-28T11:55:51Z</time>
      </trkpt>
      <trkpt lat="43.1285547512054" lon="-4.94099923409982">
        <ele>1224.58052062988</ele>
        <time>2018-08-28T11:55:52Z</time>
      </trkpt>
      <trkpt lat="43.1286064675479" lon="-4.94099009782536">
        <ele>1222.74494934082</ele>
        <time>2018-08-28T11:55:56Z</time>
      </trkpt>
      <trkpt lat="43.128664805594" lon="-4.94098640978796">
        <ele>1225.6157989502</ele>
        <time>2018-08-28T11:55:58Z</time>
      </trkpt>
      <trkpt lat="43.1287303101673" lon="-4.94097341783805">
        <ele>1224.88496398926</ele>
        <time>2018-08-28T11:56:01Z</time>
      </trkpt>
      <trkpt lat="43.1287992932304" lon="-4.94093779474957">
        <ele>1224.52803039551</ele>
        <time>2018-08-28T11:56:03Z</time>
      </trkpt>
      <trkpt lat="43.1288615288615" lon="-4.94087861851318">
        <ele>1225.10237121582</ele>
        <time>2018-08-28T11:56:05Z</time>
      </trkpt>
      <trkpt lat="43.1289206631883" lon="-4.94079873897595">
        <ele>1226.1089630127</ele>
        <time>2018-08-28T11:56:07Z</time>
      </trkpt>
      <trkpt lat="43.1289784564107" lon="-4.94069111533923">
        <ele>1227.0777130127</ele>
        <time>2018-08-28T11:56:09Z</time>
      </trkpt>
      <trkpt lat="43.1290247664257" lon="-4.94063219055993">
        <ele>1227.12007141113</ele>
        <time>2018-08-28T11:56:11Z</time>
      </trkpt>
      <trkpt lat="43.1290731719165" lon="-4.9405837431596">
        <ele>1228.06355285645</ele>
        <time>2018-08-28T11:56:13Z</time>
      </trkpt>
      <trkpt lat="43.1291598407953" lon="-4.94056379423006">
        <ele>1228.61299133301</ele>
        <time>2018-08-28T11:56:15Z</time>
      </trkpt>
      <trkpt lat="43.1291681388795" lon="-4.94048978202505">
        <ele>1228.97077941895</ele>
        <time>2018-08-28T11:56:17Z</time>
      </trkpt>
      <trkpt lat="43.1293056020915" lon="-4.94048852473957">
        <ele>1229.60969543457</ele>
        <time>2018-08-28T11:56:20Z</time>
      </trkpt>
      <trkpt lat="43.1293918099656" lon="-4.94053730741603">
        <ele>1231.97285461426</ele>
        <time>2018-08-28T11:56:22Z</time>
      </trkpt>
      <trkpt lat="43.1294391677185" lon="-4.94055323303206">
        <ele>1232.21430969238</ele>
        <time>2018-08-28T11:56:24Z</time>
      </trkpt>
      <trkpt lat="43.1295128865569" lon="-4.94057904929383">
        <ele>1229.16450500488</ele>
        <time>2018-08-28T11:56:25Z</time>
      </trkpt>
      <trkpt lat="43.129569925408" lon="-4.94062188081903">
        <ele>1230.38581848145</ele>
        <time>2018-08-28T11:56:28Z</time>
      </trkpt>
      <trkpt lat="43.1296810275345" lon="-4.94061341509683">
        <ele>1231.33100891113</ele>
        <time>2018-08-28T11:56:30Z</time>
      </trkpt>
      <trkpt lat="43.1297445623606" lon="-4.9406117387162">
        <ele>1232.94123840332</ele>
        <time>2018-08-28T11:56:32Z</time>
      </trkpt>
      <trkpt lat="43.1298215920507" lon="-4.94061391801102">
        <ele>1233.74482727051</ele>
        <time>2018-08-28T11:56:34Z</time>
      </trkpt>
      <trkpt lat="43.1298661837756" lon="-4.94062439538999">
        <ele>1232.3277130127</ele>
        <time>2018-08-28T11:56:35Z</time>
      </trkpt>
      <trkpt lat="43.1299116136908" lon="-4.94063956663473">
        <ele>1233.13081359863</ele>
        <time>2018-08-28T11:56:36Z</time>
      </trkpt>
      <trkpt lat="43.1299600191816" lon="-4.94065188803239">
        <ele>1230.80879211426</ele>
        <time>2018-08-28T11:56:37Z</time>
      </trkpt>
      <trkpt lat="43.1300506275549" lon="-4.94067736901803">
        <ele>1229.98457336426</ele>
        <time>2018-08-28T11:56:39Z</time>
      </trkpt>
      <trkpt lat="43.1300987815886" lon="-4.94068834931118">
        <ele>1230.08540344238</ele>
        <time>2018-08-28T11:56:40Z</time>
      </trkpt>
      <trkpt lat="43.1301505398407" lon="-4.94069664739532">
        <ele>1229.65327453613</ele>
        <time>2018-08-28T11:56:41Z</time>
      </trkpt>
      <trkpt lat="43.1301998673409" lon="-4.94070385583205">
        <ele>1229.73371887207</ele>
        <time>2018-08-28T11:56:42Z</time>
      </trkpt>
      <trkpt lat="43.1302871648624" lon="-4.94070880115492">
        <ele>1230.98603820801</ele>
        <time>2018-08-28T11:56:43Z</time>
      </trkpt>
      <trkpt lat="43.1303419405996" lon="-4.94072757661803">
        <ele>1230.56074523926</ele>
        <time>2018-08-28T11:56:44Z</time>
      </trkpt>
      <trkpt lat="43.1303911004617" lon="-4.94075397961302">
        <ele>1231.52644348145</ele>
        <time>2018-08-28T11:56:45Z</time>
      </trkpt>
      <trkpt lat="43.1304773921549" lon="-4.94078633375926">
        <ele>1228.97969055176</ele>
        <time>2018-08-28T11:56:47Z</time>
      </trkpt>
      <trkpt lat="43.1305496441602" lon="-4.94079404511018">
        <ele>1228.68916320801</ele>
        <time>2018-08-28T11:56:48Z</time>
      </trkpt>
      <trkpt lat="43.1306056771829" lon="-4.94079706259532">
        <ele>1227.6031036377</ele>
        <time>2018-08-28T11:56:49Z</time>
      </trkpt>
      <trkpt lat="43.1306836288824" lon="-4.94080770761235">
        <ele>1226.32722473145</ele>
        <time>2018-08-28T11:56:51Z</time>
      </trkpt>
      <trkpt lat="43.1307483790844" lon="-4.94078147225542">
        <ele>1224.06880187988</ele>
        <time>2018-08-28T11:56:52Z</time>
      </trkpt>
      <trkpt lat="43.1308047473832" lon="-4.94078700431151">
        <ele>1222.11824035645</ele>
        <time>2018-08-28T11:56:53Z</time>
      </trkpt>
      <trkpt lat="43.1308943080186" lon="-4.94084693491919">
        <ele>1220.7769317627</ele>
        <time>2018-08-28T11:56:55Z</time>
      </trkpt>
      <trkpt lat="43.1309371814533" lon="-4.94087660685642">
        <ele>1221.20906066895</ele>
        <time>2018-08-28T11:56:56Z</time>
      </trkpt>
      <trkpt lat="43.1309868442296" lon="-4.94088247418864">
        <ele>1220.87580871582</ele>
        <time>2018-08-28T11:56:57Z</time>
      </trkpt>
      <trkpt lat="43.1310385605722" lon="-4.94088783860667">
        <ele>1220.52485656738</ele>
        <time>2018-08-28T11:56:58Z</time>
      </trkpt>
      <trkpt lat="43.1311199069425" lon="-4.94091994129581">
        <ele>1219.25886535645</ele>
        <time>2018-08-28T11:57:00Z</time>
      </trkpt>
      <trkpt lat="43.1311651692196" lon="-4.94092807174189">
        <ele>1218.87995910645</ele>
        <time>2018-08-28T11:57:01Z</time>
      </trkpt>
      <trkpt lat="43.1312212022423" lon="-4.94094634429081">
        <ele>1216.23738098145</ele>
        <time>2018-08-28T11:57:02Z</time>
      </trkpt>
      <trkpt lat="43.1312672188907" lon="-4.94096419774456">
        <ele>1216.14753723145</ele>
        <time>2018-08-28T11:57:03Z</time>
      </trkpt>
      <trkpt lat="43.1313091703161" lon="-4.94098842144473">
        <ele>1217.12141418457</ele>
        <time>2018-08-28T11:57:04Z</time>
      </trkpt>
      <trkpt lat="43.1313539715885" lon="-4.94099420495791">
        <ele>1217.10285949707</ele>
        <time>2018-08-28T11:57:05Z</time>
      </trkpt>
      <trkpt lat="43.1314098788827" lon="-4.94100267068012">
        <ele>1217.28291320801</ele>
        <time>2018-08-28T11:57:06Z</time>
      </trkpt>
      <trkpt lat="43.1314548897027" lon="-4.94101448916359">
        <ele>1217.38471984863</ele>
        <time>2018-08-28T11:57:07Z</time>
      </trkpt>
      <trkpt lat="43.1315300753742" lon="-4.94100535288913">
        <ele>1217.83625793457</ele>
        <time>2018-08-28T11:57:09Z</time>
      </trkpt>
      <trkpt lat="43.1316154031485" lon="-4.94102052413387">
        <ele>1217.4029083252</ele>
        <time>2018-08-28T11:57:11Z</time>
      </trkpt>
      <trkpt lat="43.1316796923458" lon="-4.94104265235825">
        <ele>1217.1333770752</ele>
        <time>2018-08-28T11:57:13Z</time>
      </trkpt>
      <trkpt lat="43.1317576859548" lon="-4.94101666845841">
        <ele>1217.64888000488</ele>
        <time>2018-08-28T11:57:15Z</time>
      </trkpt>
      <trkpt lat="43.1318099471211" lon="-4.94101943448646">
        <ele>1218.60139465332</ele>
        <time>2018-08-28T11:57:16Z</time>
      </trkpt>
      <trkpt lat="43.1318617891922" lon="-4.94101205841167">
        <ele>1218.90132141113</ele>
        <time>2018-08-28T11:57:17Z</time>
      </trkpt>
      <trkpt lat="43.1319363043114" lon="-4.94099856354756">
        <ele>1220.49299621582</ele>
        <time>2018-08-28T11:57:19Z</time>
      </trkpt>
      <trkpt lat="43.1319788843795" lon="-4.94096654467745">
        <ele>1221.55976867676</ele>
        <time>2018-08-28T11:57:21Z</time>
      </trkpt>
      <trkpt lat="43.13205415387" lon="-4.9409740883903">
        <ele>1222.5210723877</ele>
        <time>2018-08-28T11:57:23Z</time>
      </trkpt>
      <trkpt lat="43.1321201194479" lon="-4.94098397903605">
        <ele>1223.45405578613</ele>
        <time>2018-08-28T11:57:25Z</time>
      </trkpt>
      <trkpt lat="43.1322093867167" lon="-4.94100250304205">
        <ele>1225.41975402832</ele>
        <time>2018-08-28T11:57:27Z</time>
      </trkpt>
      <trkpt lat="43.1322585046693" lon="-4.94102152996225">
        <ele>1225.44233703613</ele>
        <time>2018-08-28T11:57:29Z</time>
      </trkpt>
      <trkpt lat="43.1323192734673" lon="-4.94104265235825">
        <ele>1225.56428527832</ele>
        <time>2018-08-28T11:57:31Z</time>
      </trkpt>
      <trkpt lat="43.1323833112075" lon="-4.9410451669292">
        <ele>1228.28950500488</ele>
        <time>2018-08-28T11:57:33Z</time>
      </trkpt>
      <trkpt lat="43.1324519589945" lon="-4.94102320634289">
        <ele>1229.13386535645</ele>
        <time>2018-08-28T11:57:35Z</time>
      </trkpt>
      <trkpt lat="43.132519349496" lon="-4.94098942727311">
        <ele>1228.51301574707</ele>
        <time>2018-08-28T11:57:37Z</time>
      </trkpt>
      <trkpt lat="43.1325818784937" lon="-4.94095237926109">
        <ele>1229.25874328613</ele>
        <time>2018-08-28T11:57:39Z</time>
      </trkpt>
      <trkpt lat="43.132642353925" lon="-4.94092974812253">
        <ele>1228.32075500488</ele>
        <time>2018-08-28T11:57:41Z</time>
      </trkpt>
      <trkpt lat="43.1326843891694" lon="-4.94089345448179">
        <ele>1231.38276672363</ele>
        <time>2018-08-28T11:57:43Z</time>
      </trkpt>
      <trkpt lat="43.1327299448132" lon="-4.94085623883171">
        <ele>1231.57551574707</ele>
        <time>2018-08-28T11:57:45Z</time>
      </trkpt>
      <trkpt lat="43.1327990116953" lon="-4.94083285332186">
        <ele>1231.71699523926</ele>
        <time>2018-08-28T11:57:47Z</time>
      </trkpt>
      <trkpt lat="43.132848464924" lon="-4.94083126076026">
        <ele>1232.13130187988</ele>
        <time>2018-08-28T11:57:48Z</time>
      </trkpt>
      <trkpt lat="43.1328974152386" lon="-4.94083947502537">
        <ele>1232.76240539551</ele>
        <time>2018-08-28T11:57:49Z</time>
      </trkpt>
      <trkpt lat="43.1329773366853" lon="-4.9408792052464">
        <ele>1233.37348937988</ele>
        <time>2018-08-28T11:57:51Z</time>
      </trkpt>
      <trkpt lat="43.1330468226626" lon="-4.94093553163571">
        <ele>1233.53901672363</ele>
        <time>2018-08-28T11:57:53Z</time>
      </trkpt>
      <trkpt lat="43.1331080524653" lon="-4.94100191630883">
        <ele>1233.8755645752</ele>
        <time>2018-08-28T11:57:55Z</time>
      </trkpt>
      <trkpt lat="43.1331645884021" lon="-4.94108146056993">
        <ele>1234.77278137207</ele>
        <time>2018-08-28T11:57:57Z</time>
      </trkpt>
      <trkpt lat="43.133226404938" lon="-4.94116134010716">
        <ele>1234.26350402832</ele>
        <time>2018-08-28T11:57:59Z</time>
      </trkpt>
      <trkpt lat="43.1332913646876" lon="-4.94123694487376">
        <ele>1233.41706848145</ele>
        <time>2018-08-28T11:58:01Z</time>
      </trkpt>
      <trkpt lat="43.1333605153888" lon="-4.94130408391817">
        <ele>1233.51557922363</ele>
        <time>2018-08-28T11:58:03Z</time>
      </trkpt>
      <trkpt lat="43.1334352819651" lon="-4.94135110639496">
        <ele>1233.27998352051</ele>
        <time>2018-08-28T11:58:05Z</time>
      </trkpt>
      <trkpt lat="43.1335457135394" lon="-4.94132738560898">
        <ele>1232.50776672363</ele>
        <time>2018-08-28T11:58:07Z</time>
      </trkpt>
      <trkpt lat="43.1336295744806" lon="-4.94130173698528">
        <ele>1231.23750305176</ele>
        <time>2018-08-28T11:58:09Z</time>
      </trkpt>
      <trkpt lat="43.1336991023674" lon="-4.94125387631817">
        <ele>1233.19477844238</ele>
        <time>2018-08-28T11:58:11Z</time>
      </trkpt>
      <trkpt lat="43.1337734498485" lon="-4.94119453244371">
        <ele>1234.38606262207</ele>
        <time>2018-08-28T11:58:13Z</time>
      </trkpt>
      <trkpt lat="43.1338183768495" lon="-4.94116393849714">
        <ele>1235.27558898926</ele>
        <time>2018-08-28T11:58:14Z</time>
      </trkpt>
      <trkpt lat="43.133859280537" lon="-4.94107626378996">
        <ele>1237.86494445801</ele>
        <time>2018-08-28T11:58:16Z</time>
      </trkpt>
      <trkpt lat="43.1339197978779" lon="-4.94101884775324">
        <ele>1238.35786437988</ele>
        <time>2018-08-28T11:58:18Z</time>
      </trkpt>
      <trkpt lat="43.1339441892161" lon="-4.94092773646576">
        <ele>1239.76643371582</ele>
        <time>2018-08-28T11:58:20Z</time>
      </trkpt>
      <trkpt lat="43.133998126763" lon="-4.94086654857261">
        <ele>1239.93574523926</ele>
        <time>2018-08-28T11:58:22Z</time>
      </trkpt>
      <trkpt lat="43.1340469094395" lon="-4.9407930392818">
        <ele>1239.99092102051</ele>
        <time>2018-08-28T11:58:24Z</time>
      </trkpt>
      <trkpt lat="43.134098374325" lon="-4.94070586748881">
        <ele>1240.78157043457</ele>
        <time>2018-08-28T11:58:26Z</time>
      </trkpt>
      <trkpt lat="43.1341230171203" lon="-4.94062297046645">
        <ele>1241.4263458252</ele>
        <time>2018-08-28T11:58:28Z</time>
      </trkpt>
      <trkpt lat="43.1341352546989" lon="-4.94052574038966">
        <ele>1241.9175567627</ele>
        <time>2018-08-28T11:58:30Z</time>
      </trkpt>
      <trkpt lat="43.1341373501747" lon="-4.94041903876228">
        <ele>1241.47273254395</ele>
        <time>2018-08-28T11:58:32Z</time>
      </trkpt>
      <trkpt lat="43.1341145094886" lon="-4.94030982256396">
        <ele>1240.56074523926</ele>
        <time>2018-08-28T11:58:34Z</time>
      </trkpt>
      <trkpt lat="43.1340784253954" lon="-4.940249137585">
        <ele>1239.79780578613</ele>
        <time>2018-08-28T11:58:35Z</time>
      </trkpt>
      <trkpt lat="43.1340544531524" lon="-4.94014427997632">
        <ele>1239.29634094238</ele>
        <time>2018-08-28T11:58:37Z</time>
      </trkpt>
      <trkpt lat="43.1340319058328" lon="-4.94008929469151">
        <ele>1239.45649719238</ele>
        <time>2018-08-28T11:58:38Z</time>
      </trkpt>
      <trkpt lat="43.1340147229313" lon="-4.94002995081706">
        <ele>1239.01985168457</ele>
        <time>2018-08-28T11:58:39Z</time>
      </trkpt>
      <trkpt lat="43.1339849252655" lon="-4.93991595693393">
        <ele>1238.68659973145</ele>
        <time>2018-08-28T11:58:41Z</time>
      </trkpt>
      <trkpt lat="43.1339737354248" lon="-4.93984420784278">
        <ele>1238.6616973877</ele>
        <time>2018-08-28T11:58:42Z</time>
      </trkpt>
      <trkpt lat="43.1339534931287" lon="-4.93978025392158">
        <ele>1238.0034942627</ele>
        <time>2018-08-28T11:58:43Z</time>
      </trkpt>
      <trkpt lat="43.1339477096155" lon="-4.93971018121106">
        <ele>1237.92219543457</ele>
        <time>2018-08-28T11:58:44Z</time>
      </trkpt>
      <trkpt lat="43.1339432252973" lon="-4.93964673020406">
        <ele>1238.78913879395</ele>
        <time>2018-08-28T11:58:45Z</time>
      </trkpt>
      <trkpt lat="43.1339420099213" lon="-4.93957355618937">
        <ele>1239.19795227051</ele>
        <time>2018-08-28T11:58:46Z</time>
      </trkpt>
      <trkpt lat="43.1339300237998" lon="-4.93948495947285">
        <ele>1238.00630187988</ele>
        <time>2018-08-28T11:58:47Z</time>
      </trkpt>
      <trkpt lat="43.1339449854969" lon="-4.93939669803245">
        <ele>1239.15083312988</ele>
        <time>2018-08-28T11:58:48Z</time>
      </trkpt>
      <trkpt lat="43.1339749088913" lon="-4.93931111880107">
        <ele>1238.73274230957</ele>
        <time>2018-08-28T11:58:49Z</time>
      </trkpt>
      <trkpt lat="43.1340208836301" lon="-4.93922713213129">
        <ele>1240.39582824707</ele>
        <time>2018-08-28T11:58:50Z</time>
      </trkpt>
      <trkpt lat="43.1340500945627" lon="-4.93914012797637">
        <ele>1240.8433380127</ele>
        <time>2018-08-28T11:58:51Z</time>
      </trkpt>
      <trkpt lat="43.1340757431864" lon="-4.93906083517237">
        <ele>1238.80781555176</ele>
        <time>2018-08-28T11:58:52Z</time>
      </trkpt>
      <trkpt lat="43.1341143418505" lon="-4.93896729313297">
        <ele>1238.97846984863</ele>
        <time>2018-08-28T11:58:53Z</time>
      </trkpt>
      <trkpt lat="43.1341266632482" lon="-4.93887894787354">
        <ele>1237.01985168457</ele>
        <time>2018-08-28T11:58:54Z</time>
      </trkpt>
      <trkpt lat="43.1341645494505" lon="-4.93878875859542">
        <ele>1237.04243469238</ele>
        <time>2018-08-28T11:58:55Z</time>
      </trkpt>
      <trkpt lat="43.1341837020993" lon="-4.93869856931729">
        <ele>1238.0601348877</ele>
        <time>2018-08-28T11:58:56Z</time>
      </trkpt>
      <trkpt lat="43.1341893598839" lon="-4.93859991431696">
        <ele>1238.39582824707</ele>
        <time>2018-08-28T11:58:57Z</time>
      </trkpt>
      <trkpt lat="43.1342322752281" lon="-4.93850000203116">
        <ele>1239.51301574707</ele>
        <time>2018-08-28T11:58:58Z</time>
      </trkpt>
      <trkpt lat="43.1342472788348" lon="-4.93836672977073">
        <ele>1237.49629211426</ele>
        <time>2018-08-28T11:58:59Z</time>
      </trkpt>
      <trkpt lat="43.1342777470528" lon="-4.93829112500412">
        <ele>1239.24226379395</ele>
        <time>2018-08-28T11:59:00Z</time>
      </trkpt>
      <trkpt lat="43.1342858774989" lon="-4.93822800927324">
        <ele>1238.06294250488</ele>
        <time>2018-08-28T11:59:01Z</time>
      </trkpt>
      <trkpt lat="43.1343075866281" lon="-4.93813262321515">
        <ele>1238.39680480957</ele>
        <time>2018-08-28T11:59:02Z</time>
      </trkpt>
      <trkpt lat="43.1343196565687" lon="-4.93803053163452">
        <ele>1236.54341125488</ele>
        <time>2018-08-28T11:59:03Z</time>
      </trkpt>
      <trkpt lat="43.1343453051924" lon="-4.93793782778544">
        <ele>1236.76631164551</ele>
        <time>2018-08-28T11:59:04Z</time>
      </trkpt>
      <trkpt lat="43.1343650445744" lon="-4.9378378316806">
        <ele>1236.88191223145</ele>
        <time>2018-08-28T11:59:05Z</time>
      </trkpt>
      <trkpt lat="43.1343787489861" lon="-4.93773682974739">
        <ele>1237.33235168457</ele>
        <time>2018-08-28T11:59:06Z</time>
      </trkpt>
      <trkpt lat="43.1343828980281" lon="-4.93764571845991">
        <ele>1237.69258117676</ele>
        <time>2018-08-28T11:59:07Z</time>
      </trkpt>
      <trkpt lat="43.1343645416602" lon="-4.93755871430499">
        <ele>1238.50202941895</ele>
        <time>2018-08-28T11:59:08Z</time>
      </trkpt>
      <trkpt lat="43.1343247695296" lon="-4.93748503737611">
        <ele>1238.23579406738</ele>
        <time>2018-08-28T11:59:09Z</time>
      </trkpt>
      <trkpt lat="43.1342830276518" lon="-4.9374096840666">
        <ele>1238.93269348145</ele>
        <time>2018-08-28T11:59:10Z</time>
      </trkpt>
      <trkpt lat="43.1342523079767" lon="-4.93735855445726">
        <ele>1237.00703430176</ele>
        <time>2018-08-28T11:59:11Z</time>
      </trkpt>
      <trkpt lat="43.1342067104235" lon="-4.93728655390901">
        <ele>1237.28547668457</ele>
        <time>2018-08-28T11:59:12Z</time>
      </trkpt>
      <trkpt lat="43.1341700395971" lon="-4.93721128441853">
        <ele>1237.62214660645</ele>
        <time>2018-08-28T11:59:13Z</time>
      </trkpt>
      <trkpt lat="43.1341244839534" lon="-4.93715370074374">
        <ele>1238.69441223145</ele>
        <time>2018-08-28T11:59:14Z</time>
      </trkpt>
      <trkpt lat="43.1340937223687" lon="-4.93707834743423">
        <ele>1238.74629211426</ele>
        <time>2018-08-28T11:59:15Z</time>
      </trkpt>
      <trkpt lat="43.1340517290338" lon="-4.93699377403123">
        <ele>1235.98384094238</ele>
        <time>2018-08-28T11:59:17Z</time>
      </trkpt>
      <trkpt lat="43.1340425089403" lon="-4.93689721450669">
        <ele>1235.47200012207</ele>
        <time>2018-08-28T11:59:19Z</time>
      </trkpt>
      <trkpt lat="43.1340720132395" lon="-4.93683393113775">
        <ele>1235.12727355957</ele>
        <time>2018-08-28T11:59:20Z</time>
      </trkpt>
      <trkpt lat="43.1340649305313" lon="-4.93670141324861">
        <ele>1234.57453918457</ele>
        <time>2018-08-28T11:59:22Z</time>
      </trkpt>
      <trkpt lat="43.1340473285347" lon="-4.93663310073776">
        <ele>1234.06269836426</ele>
        <time>2018-08-28T11:59:23Z</time>
      </trkpt>
      <trkpt lat="43.1340407068312" lon="-4.93655246682925">
        <ele>1234.03266906738</ele>
        <time>2018-08-28T11:59:24Z</time>
      </trkpt>
      <trkpt lat="43.1340210093587" lon="-4.93642506190104">
        <ele>1233.4673614502</ele>
        <time>2018-08-28T11:59:26Z</time>
      </trkpt>
      <trkpt lat="43.1340051675617" lon="-4.93634576909704">
        <ele>1232.76582336426</ele>
        <time>2018-08-28T11:59:27Z</time>
      </trkpt>
      <trkpt lat="43.1340107834368" lon="-4.93627385236783">
        <ele>1232.12715148926</ele>
        <time>2018-08-28T11:59:28Z</time>
      </trkpt>
      <trkpt lat="43.1340029882669" lon="-4.9361974094109">
        <ele>1231.9038848877</ele>
        <time>2018-08-28T11:59:29Z</time>
      </trkpt>
      <trkpt lat="43.1340136332839" lon="-4.93610562757117">
        <ele>1232.99494934082</ele>
        <time>2018-08-28T11:59:30Z</time>
      </trkpt>
      <trkpt lat="43.1340068020328" lon="-4.93601845577819">
        <ele>1233.17671203613</ele>
        <time>2018-08-28T11:59:31Z</time>
      </trkpt>
      <trkpt lat="43.1339905830502" lon="-4.9359312839852">
        <ele>1233.39057922363</ele>
        <time>2018-08-28T11:59:32Z</time>
      </trkpt>
      <trkpt lat="43.1339584384515" lon="-4.93587546051008">
        <ele>1232.73359680176</ele>
        <time>2018-08-28T11:59:33Z</time>
      </trkpt>
      <trkpt lat="43.1339311134472" lon="-4.93581930175883">
        <ele>1232.36604309082</ele>
        <time>2018-08-28T11:59:34Z</time>
      </trkpt>
      <trkpt lat="43.1338663213357" lon="-4.93576247245533">
        <ele>1231.86555480957</ele>
        <time>2018-08-28T11:59:35Z</time>
      </trkpt>
      <trkpt lat="43.1337610865413" lon="-4.93572584353847">
        <ele>1232.03254699707</ele>
        <time>2018-08-28T11:59:36Z</time>
      </trkpt>
      <trkpt lat="43.133713854517" lon="-4.93568116799457">
        <ele>1231.57234191895</ele>
        <time>2018-08-28T11:59:37Z</time>
      </trkpt>
      <trkpt lat="43.1336224079534" lon="-4.93560824543697">
        <ele>1231.08467102051</ele>
        <time>2018-08-28T11:59:39Z</time>
      </trkpt>
      <trkpt lat="43.133573876734" lon="-4.93559014052612">
        <ele>1230.99971008301</ele>
        <time>2018-08-28T11:59:40Z</time>
      </trkpt>
      <trkpt lat="43.1335532572522" lon="-4.93553465232713">
        <ele>1230.06843566895</ele>
        <time>2018-08-28T11:59:41Z</time>
      </trkpt>
      <trkpt lat="43.1335173827066" lon="-4.9354756437288">
        <ele>1229.36836242676</ele>
        <time>2018-08-28T11:59:42Z</time>
      </trkpt>
      <trkpt lat="43.1334908539831" lon="-4.93538972922129">
        <ele>1229.01692199707</ele>
        <time>2018-08-28T11:59:43Z</time>
      </trkpt>
      <trkpt lat="43.1335030077427" lon="-4.93525318801863">
        <ele>1231.35517883301</ele>
        <time>2018-08-28T11:59:45Z</time>
      </trkpt>
      <trkpt lat="43.1335043069377" lon="-4.93518990464968">
        <ele>1232.04988098145</ele>
        <time>2018-08-28T11:59:46Z</time>
      </trkpt>
      <trkpt lat="43.1335062766849" lon="-4.93510524742765">
        <ele>1231.19111633301</ele>
        <time>2018-08-28T11:59:47Z</time>
      </trkpt>
      <trkpt lat="43.1334929494589" lon="-4.93503710255486">
        <ele>1230.77558898926</ele>
        <time>2018-08-28T11:59:48Z</time>
      </trkpt>
      <trkpt lat="43.1334925722732" lon="-4.93495889939827">
        <ele>1231.28889465332</ele>
        <time>2018-08-28T11:59:49Z</time>
      </trkpt>
      <trkpt lat="43.1334800832375" lon="-4.93488161825103">
        <ele>1231.66719055176</ele>
        <time>2018-08-28T11:59:50Z</time>
      </trkpt>
      <trkpt lat="43.1334637804359" lon="-4.93482017890078">
        <ele>1231.67720031738</ele>
        <time>2018-08-28T11:59:51Z</time>
      </trkpt>
      <trkpt lat="43.1334515847667" lon="-4.93474138901097">
        <ele>1230.18977355957</ele>
        <time>2018-08-28T11:59:52Z</time>
      </trkpt>
      <trkpt lat="43.1334419455781" lon="-4.93466553278727">
        <ele>1230.89082336426</ele>
        <time>2018-08-28T11:59:53Z</time>
      </trkpt>
      <trkpt lat="43.133431216742" lon="-4.93459965102834">
        <ele>1229.71748352051</ele>
        <time>2018-08-28T11:59:54Z</time>
      </trkpt>
      <trkpt lat="43.1334181828826" lon="-4.93452974595589">
        <ele>1229.4204864502</ele>
        <time>2018-08-28T11:59:55Z</time>
      </trkpt>
      <trkpt lat="43.133375728543" lon="-4.93449227884871">
        <ele>1229.84773254395</ele>
        <time>2018-08-28T11:59:56Z</time>
      </trkpt>
      <trkpt lat="43.1333422847494" lon="-4.9344272352801">
        <ele>1230.45027160645</ele>
        <time>2018-08-28T11:59:57Z</time>
      </trkpt>
      <trkpt lat="43.1332783308282" lon="-4.93432816118461">
        <ele>1230.19599914551</ele>
        <time>2018-08-28T11:59:59Z</time>
      </trkpt>
      <trkpt lat="43.1332246866479" lon="-4.93428776041133">
        <ele>1229.71760559082</ele>
        <time>2018-08-28T12:00:00Z</time>
      </trkpt>
      <trkpt lat="43.13315352429" lon="-4.93427468464238">
        <ele>1227.32490539551</ele>
        <time>2018-08-28T12:00:01Z</time>
      </trkpt>
      <trkpt lat="43.1330945576011" lon="-4.93424501270515">
        <ele>1226.2300567627</ele>
        <time>2018-08-28T12:00:02Z</time>
      </trkpt>
      <trkpt lat="43.1330423802539" lon="-4.93420947343571">
        <ele>1225.52815246582</ele>
        <time>2018-08-28T12:00:03Z</time>
      </trkpt>
      <trkpt lat="43.1329809828132" lon="-4.93417242542369">
        <ele>1224.98603820801</ele>
        <time>2018-08-28T12:00:04Z</time>
      </trkpt>
      <trkpt lat="43.1329297693848" lon="-4.934138897811">
        <ele>1224.88227844238</ele>
        <time>2018-08-28T12:00:05Z</time>
      </trkpt>
      <trkpt lat="43.1328838784649" lon="-4.93411048315925">
        <ele>1224.50239562988</ele>
        <time>2018-08-28T12:00:06Z</time>
      </trkpt>
      <trkpt lat="43.1328379456356" lon="-4.93408902548713">
        <ele>1226.85041809082</ele>
        <time>2018-08-28T12:00:07Z</time>
      </trkpt>
      <trkpt lat="43.1327706808626" lon="-4.93404015899164">
        <ele>1225.96504211426</ele>
        <time>2018-08-28T12:00:08Z</time>
      </trkpt>
      <trkpt lat="43.1327089062362" lon="-4.9340389855252">
        <ele>1223.80390930176</ele>
        <time>2018-08-28T12:00:09Z</time>
      </trkpt>
      <trkpt lat="43.1326539628609" lon="-4.93398131803138">
        <ele>1222.12043762207</ele>
        <time>2018-08-28T12:00:10Z</time>
      </trkpt>
      <trkpt lat="43.1325783580943" lon="-4.93389590643806">
        <ele>1222.95124816895</ele>
        <time>2018-08-28T12:00:12Z</time>
      </trkpt>
      <trkpt lat="43.1325014541327" lon="-4.93383572437329">
        <ele>1222.04890441895</ele>
        <time>2018-08-28T12:00:13Z</time>
      </trkpt>
      <trkpt lat="43.1324367039307" lon="-4.93377663195593">
        <ele>1221.47444152832</ele>
        <time>2018-08-28T12:00:14Z</time>
      </trkpt>
      <trkpt lat="43.1323609734356" lon="-4.93371569551987">
        <ele>1222.49604797363</ele>
        <time>2018-08-28T12:00:15Z</time>
      </trkpt>
      <trkpt lat="43.1322858715832" lon="-4.93365341797931">
        <ele>1223.45002746582</ele>
        <time>2018-08-28T12:00:16Z</time>
      </trkpt>
      <trkpt lat="43.1321919104486" lon="-4.93362206966144">
        <ele>1222.97456359863</ele>
        <time>2018-08-28T12:00:17Z</time>
      </trkpt>
      <trkpt lat="43.1321272021561" lon="-4.93357395753724">
        <ele>1222.06318664551</ele>
        <time>2018-08-28T12:00:18Z</time>
      </trkpt>
      <trkpt lat="43.1320693670242" lon="-4.93347002193791">
        <ele>1222.28828430176</ele>
        <time>2018-08-28T12:00:19Z</time>
      </trkpt>
      <trkpt lat="43.1320246076613" lon="-4.9333634879486">
        <ele>1223.03913879395</ele>
        <time>2018-08-28T12:00:20Z</time>
      </trkpt>
      <trkpt lat="43.1320571713551" lon="-4.93330473080737">
        <ele>1223.90107727051</ele>
        <time>2018-08-28T12:00:21Z</time>
      </trkpt>
      <trkpt lat="43.1321039423748" lon="-4.93324706331355">
        <ele>1222.97151184082</ele>
        <time>2018-08-28T12:00:22Z</time>
      </trkpt>
      <trkpt lat="43.1320965663" lon="-4.93316827342374">
        <ele>1222.34272766113</ele>
        <time>2018-08-28T12:00:23Z</time>
      </trkpt>
      <trkpt lat="43.1320718396857" lon="-4.93306819349987">
        <ele>1222.65376281738</ele>
        <time>2018-08-28T12:00:24Z</time>
      </trkpt>
      <trkpt lat="43.1320471549808" lon="-4.93298454210622">
        <ele>1222.30476379395</ele>
        <time>2018-08-28T12:00:25Z</time>
      </trkpt>
      <trkpt lat="43.1320207519858" lon="-4.9328920058952">
        <ele>1221.4380645752</ele>
        <time>2018-08-28T12:00:26Z</time>
      </trkpt>
      <trkpt lat="43.1319929240673" lon="-4.93281715549988">
        <ele>1221.06538391113</ele>
        <time>2018-08-28T12:00:27Z</time>
      </trkpt>
      <trkpt lat="43.131959019269" lon="-4.9327437300281">
        <ele>1219.38313293457</ele>
        <time>2018-08-28T12:00:28Z</time>
      </trkpt>
      <trkpt lat="43.1319230189949" lon="-4.93265781552059">
        <ele>1218.8560333252</ele>
        <time>2018-08-28T12:00:29Z</time>
      </trkpt>
      <trkpt lat="43.1318827858596" lon="-4.93258816190523">
        <ele>1217.87019348145</ele>
        <time>2018-08-28T12:00:30Z</time>
      </trkpt>
      <trkpt lat="43.1318434328242" lon="-4.93250668980641">
        <ele>1218.4136505127</ele>
        <time>2018-08-28T12:00:31Z</time>
      </trkpt>
      <trkpt lat="43.1318012718513" lon="-4.93241951801342">
        <ele>1218.12605285645</ele>
        <time>2018-08-28T12:00:32Z</time>
      </trkpt>
      <trkpt lat="43.1317228591471" lon="-4.93233041838271">
        <ele>1215.83992004395</ele>
        <time>2018-08-28T12:00:33Z</time>
      </trkpt>
      <trkpt lat="43.1316721905425" lon="-4.93225573562545">
        <ele>1217.07099914551</ele>
        <time>2018-08-28T12:00:34Z</time>
      </trkpt>
      <trkpt lat="43.1316111283778" lon="-4.93218365125817">
        <ele>1216.03230285645</ele>
        <time>2018-08-28T12:00:35Z</time>
      </trkpt>
      <trkpt lat="43.1315644411772" lon="-4.93210201152128">
        <ele>1216.35810852051</ele>
        <time>2018-08-28T12:00:36Z</time>
      </trkpt>
      <trkpt lat="43.1315314164787" lon="-4.93202464655501">
        <ele>1216.77339172363</ele>
        <time>2018-08-28T12:00:37Z</time>
      </trkpt>
      <trkpt lat="43.1315028760984" lon="-4.93192205206019">
        <ele>1216.66291809082</ele>
        <time>2018-08-28T12:00:38Z</time>
      </trkpt>
      <trkpt lat="43.13145685945" lon="-4.93184292689425">
        <ele>1214.90852355957</ele>
        <time>2018-08-28T12:00:39Z</time>
      </trkpt>
      <trkpt lat="43.1313905166864" lon="-4.93182607926888">
        <ele>1212.80586242676</ele>
        <time>2018-08-28T12:00:40Z</time>
      </trkpt>
      <trkpt lat="43.1313085835829" lon="-4.93179992773098">
        <ele>1212.27119445801</ele>
        <time>2018-08-28T12:00:41Z</time>
      </trkpt>
      <trkpt lat="43.1312251417368" lon="-4.93176941760344">
        <ele>1211.76069641113</ele>
        <time>2018-08-28T12:00:42Z</time>
      </trkpt>
      <trkpt lat="43.1311404006957" lon="-4.93174217641813">
        <ele>1211.65840148926</ele>
        <time>2018-08-28T12:00:43Z</time>
      </trkpt>
      <trkpt lat="43.1310916599288" lon="-4.93177369237405">
        <ele>1211.35127258301</ele>
        <time>2018-08-28T12:00:44Z</time>
      </trkpt>
      <trkpt lat="43.1310346210777" lon="-4.93175969459576">
        <ele>1211.62031555176</ele>
        <time>2018-08-28T12:00:45Z</time>
      </trkpt>
      <trkpt lat="43.1309727207228" lon="-4.93174267933232">
        <ele>1211.55830383301</ele>
        <time>2018-08-28T12:00:46Z</time>
      </trkpt>
      <trkpt lat="43.1309962738707" lon="-4.93164829910261">
        <ele>1209.76826477051</ele>
        <time>2018-08-28T12:00:47Z</time>
      </trkpt>
      <trkpt lat="43.1309618242487" lon="-4.9316054675774">
        <ele>1209.78852844238</ele>
        <time>2018-08-28T12:00:48Z</time>
      </trkpt>
      <trkpt lat="43.1309376005485" lon="-4.93150144815904">
        <ele>1208.13764953613</ele>
        <time>2018-08-28T12:00:49Z</time>
      </trkpt>
      <trkpt lat="43.1309227226704" lon="-4.93141804822249">
        <ele>1211.5279083252</ele>
        <time>2018-08-28T12:00:50Z</time>
      </trkpt>
      <trkpt lat="43.1309093116253" lon="-4.93135367520613">
        <ele>1212.25556945801</ele>
        <time>2018-08-28T12:00:51Z</time>
      </trkpt>
      <trkpt lat="43.1308947271138" lon="-4.93126859888894">
        <ele>1212.93342590332</ele>
        <time>2018-08-28T12:00:53Z</time>
      </trkpt>
      <trkpt lat="43.1309056654974" lon="-4.93120531551999">
        <ele>1214.76496887207</ele>
        <time>2018-08-28T12:00:54Z</time>
      </trkpt>
      <trkpt lat="43.1309461500897" lon="-4.93115083314938">
        <ele>1211.84382629395</ele>
        <time>2018-08-28T12:00:55Z</time>
      </trkpt>
      <trkpt lat="43.1309849163919" lon="-4.931083777924">
        <ele>1213.61518859863</ele>
        <time>2018-08-28T12:00:57Z</time>
      </trkpt>
      <trkpt lat="43.1310381833866" lon="-4.93107145652634">
        <ele>1216.05024719238</ele>
        <time>2018-08-28T12:00:59Z</time>
      </trkpt>
      <trkpt lat="43.1311023468553" lon="-4.93108478375238">
        <ele>1209.67085266113</ele>
        <time>2018-08-28T12:01:02Z</time>
      </trkpt>
      <trkpt lat="43.1311462261184" lon="-4.93105192669195">
        <ele>1209.03633117676</ele>
        <time>2018-08-28T12:01:03Z</time>
      </trkpt>
      <trkpt lat="43.1311768619745" lon="-4.93100314401549">
        <ele>1209.58576965332</ele>
        <time>2018-08-28T12:01:04Z</time>
      </trkpt>
      <trkpt lat="43.1312183523952" lon="-4.93089811876875">
        <ele>1207.63423156738</ele>
        <time>2018-08-28T12:01:06Z</time>
      </trkpt>
      <trkpt lat="43.1312774029031" lon="-4.9308266211347">
        <ele>1207.67085266113</ele>
        <time>2018-08-28T12:01:08Z</time>
      </trkpt>
      <trkpt lat="43.1313165044814" lon="-4.93079334497911">
        <ele>1207.70588684082</ele>
        <time>2018-08-28T12:01:09Z</time>
      </trkpt>
      <trkpt lat="43.1313846074446" lon="-4.93077834137243">
        <ele>1208.04316711426</ele>
        <time>2018-08-28T12:01:11Z</time>
      </trkpt>
      <trkpt lat="43.1314635649725" lon="-4.93079326116008">
        <ele>1208.20063781738</ele>
        <time>2018-08-28T12:01:13Z</time>
      </trkpt>
      <trkpt lat="43.1315458333521" lon="-4.93081488647026">
        <ele>1208.86152648926</ele>
        <time>2018-08-28T12:01:15Z</time>
      </trkpt>
      <trkpt lat="43.131590257439" lon="-4.93082829751534">
        <ele>1211.73701477051</ele>
        <time>2018-08-28T12:01:17Z</time>
      </trkpt>
      <trkpt lat="43.1316442368954" lon="-4.93083558977109">
        <ele>1214.8238067627</ele>
        <time>2018-08-28T12:01:19Z</time>
      </trkpt>
      <trkpt lat="43.1317109987541" lon="-4.93083726615173">
        <ele>1214.32344055176</ele>
        <time>2018-08-28T12:01:22Z</time>
      </trkpt>
      <trkpt lat="43.1317646010249" lon="-4.93081698194605">
        <ele>1213.47871398926</ele>
        <time>2018-08-28T12:01:24Z</time>
      </trkpt>
      <trkpt lat="43.1318266271084" lon="-4.9308041576342">
        <ele>1214.69441223145</ele>
        <time>2018-08-28T12:01:26Z</time>
      </trkpt>
      <trkpt lat="43.1318874378159" lon="-4.93080189452034">
        <ele>1213.24678039551</ele>
        <time>2018-08-28T12:01:28Z</time>
      </trkpt>
      <trkpt lat="43.1319952710002" lon="-4.93080130778712">
        <ele>1212.01069641113</ele>
        <time>2018-08-28T12:01:30Z</time>
      </trkpt>
      <trkpt lat="43.1320414133772" lon="-4.93079988286358">
        <ele>1212.05158996582</ele>
        <time>2018-08-28T12:01:31Z</time>
      </trkpt>
      <trkpt lat="43.1320945546433" lon="-4.93079862557811">
        <ele>1213.02644348145</ele>
        <time>2018-08-28T12:01:32Z</time>
      </trkpt>
      <trkpt lat="43.1321607716783" lon="-4.93080038577777">
        <ele>1213.81550598145</ele>
        <time>2018-08-28T12:01:34Z</time>
      </trkpt>
      <trkpt lat="43.1322196545481" lon="-4.93079334497911">
        <ele>1214.03315734863</ele>
        <time>2018-08-28T12:01:36Z</time>
      </trkpt>
      <trkpt lat="43.1322727958142" lon="-4.93078278378111">
        <ele>1213.42842102051</ele>
        <time>2018-08-28T12:01:38Z</time>
      </trkpt>
      <trkpt lat="43.1323324749648" lon="-4.93079342879814">
        <ele>1212.58576965332</ele>
        <time>2018-08-28T12:01:41Z</time>
      </trkpt>
      <trkpt lat="43.1323975604429" lon="-4.93079711683554">
        <ele>1213.84443664551</ele>
        <time>2018-08-28T12:01:43Z</time>
      </trkpt>
      <trkpt lat="43.132473207119" lon="-4.9307975359307">
        <ele>1211.74287414551</ele>
        <time>2018-08-28T12:01:45Z</time>
      </trkpt>
      <trkpt lat="43.1325230375334" lon="-4.93079560809297">
        <ele>1212.8042755127</ele>
        <time>2018-08-28T12:01:47Z</time>
      </trkpt>
      <trkpt lat="43.1325805373892" lon="-4.93077800609631">
        <ele>1213.30256652832</ele>
        <time>2018-08-28T12:01:49Z</time>
      </trkpt>
      <trkpt lat="43.1326698465674" lon="-4.93074062280816">
        <ele>1212.33723449707</ele>
        <time>2018-08-28T12:01:51Z</time>
      </trkpt>
      <trkpt lat="43.1327189226105" lon="-4.93071849458379">
        <ele>1212.49238586426</ele>
        <time>2018-08-28T12:01:52Z</time>
      </trkpt>
      <trkpt lat="43.1327670766442" lon="-4.93069636635941">
        <ele>1213.25654602051</ele>
        <time>2018-08-28T12:01:53Z</time>
      </trkpt>
      <trkpt lat="43.1328121293738" lon="-4.93066887371701">
        <ele>1212.71040344238</ele>
        <time>2018-08-28T12:01:54Z</time>
      </trkpt>
      <trkpt lat="43.1328516081377" lon="-4.93063869886559">
        <ele>1213.4370880127</ele>
        <time>2018-08-28T12:01:55Z</time>
      </trkpt>
      <trkpt lat="43.1329280091851" lon="-4.93058463559014">
        <ele>1215.32173156738</ele>
        <time>2018-08-28T12:01:57Z</time>
      </trkpt>
      <trkpt lat="43.1329728942766" lon="-4.93055898696643">
        <ele>1216.59590148926</ele>
        <time>2018-08-28T12:01:58Z</time>
      </trkpt>
      <trkpt lat="43.1330173183634" lon="-4.93053367361886">
        <ele>1216.50422668457</ele>
        <time>2018-08-28T12:01:59Z</time>
      </trkpt>
      <trkpt lat="43.1330641732022" lon="-4.93051322177512">
        <ele>1216.81587219238</ele>
        <time>2018-08-28T12:02:00Z</time>
      </trkpt>
      <trkpt lat="43.1331140036165" lon="-4.93049536832136">
        <ele>1216.88093566895</ele>
        <time>2018-08-28T12:02:01Z</time>
      </trkpt>
      <trkpt lat="43.1331651332259" lon="-4.93048447184724">
        <ele>1218.3101348877</ele>
        <time>2018-08-28T12:02:02Z</time>
      </trkpt>
      <trkpt lat="43.133239564526" lon="-4.93045723066193">
        <ele>1220.70869445801</ele>
        <time>2018-08-28T12:02:04Z</time>
      </trkpt>
      <trkpt lat="43.133259387727" lon="-4.93037039414507">
        <ele>1221.05342102051</ele>
        <time>2018-08-28T12:02:07Z</time>
      </trkpt>
      <trkpt lat="43.1332808873087" lon="-4.93028297089499">
        <ele>1221.82893371582</ele>
        <time>2018-08-28T12:02:09Z</time>
      </trkpt>
      <trkpt lat="43.1333261914953" lon="-4.93020786904258">
        <ele>1222.68086242676</ele>
        <time>2018-08-28T12:02:11Z</time>
      </trkpt>
      <trkpt lat="43.1333884690359" lon="-4.93014274165493">
        <ele>1223.54280090332</ele>
        <time>2018-08-28T12:02:13Z</time>
      </trkpt>
      <trkpt lat="43.1334473099961" lon="-4.93008993566495">
        <ele>1222.78999328613</ele>
        <time>2018-08-28T12:02:15Z</time>
      </trkpt>
      <trkpt lat="43.1334816338896" lon="-4.9300496187107">
        <ele>1223.5669708252</ele>
        <time>2018-08-28T12:02:16Z</time>
      </trkpt>
      <trkpt lat="43.1335298717424" lon="-4.9299616087274">
        <ele>1225.93257141113</ele>
        <time>2018-08-28T12:02:18Z</time>
      </trkpt>
      <trkpt lat="43.1335693505063" lon="-4.92988315411371">
        <ele>1226.89497375488</ele>
        <time>2018-08-28T12:02:20Z</time>
      </trkpt>
      <trkpt lat="43.1336185941874" lon="-4.92983009666664">
        <ele>1227.59358215332</ele>
        <time>2018-08-28T12:02:22Z</time>
      </trkpt>
      <trkpt lat="43.1336804945424" lon="-4.92978064343792">
        <ele>1228.25190734863</ele>
        <time>2018-08-28T12:02:24Z</time>
      </trkpt>
      <trkpt lat="43.1337368209317" lon="-4.92976698093575">
        <ele>1229.85054016113</ele>
        <time>2018-08-28T12:02:26Z</time>
      </trkpt>
      <trkpt lat="43.133812970522" lon="-4.92976840585929">
        <ele>1230.13288879395</ele>
        <time>2018-08-28T12:02:28Z</time>
      </trkpt>
      <trkpt lat="43.1338781817287" lon="-4.92977888323826">
        <ele>1230.43830871582</ele>
        <time>2018-08-28T12:02:30Z</time>
      </trkpt>
      <trkpt lat="43.1339331670135" lon="-4.92977729067665">
        <ele>1230.24873352051</ele>
        <time>2018-08-28T12:02:32Z</time>
      </trkpt>
      <trkpt lat="43.1339798961236" lon="-4.92976756766898">
        <ele>1230.24775695801</ele>
        <time>2018-08-28T12:02:34Z</time>
      </trkpt>
      <trkpt lat="43.134040287736" lon="-4.92974032648367">
        <ele>1232.1997833252</ele>
        <time>2018-08-28T12:02:37Z</time>
      </trkpt>
      <trkpt lat="43.1340907467931" lon="-4.92973026819986">
        <ele>1231.40437316895</ele>
        <time>2018-08-28T12:02:39Z</time>
      </trkpt>
      <trkpt lat="43.1341620348796" lon="-4.92970118299586">
        <ele>1227.71723937988</ele>
        <time>2018-08-28T12:02:41Z</time>
      </trkpt>
      <trkpt lat="43.1342276651814" lon="-4.92967419326764">
        <ele>1226.02742004395</ele>
        <time>2018-08-28T12:02:43Z</time>
      </trkpt>
      <trkpt lat="43.1342960196018" lon="-4.92966882884962">
        <ele>1228.34907531738</ele>
        <time>2018-08-28T12:02:45Z</time>
      </trkpt>
      <trkpt lat="43.1343730073824" lon="-4.92967377417249">
        <ele>1227.41340637207</ele>
        <time>2018-08-28T12:02:47Z</time>
      </trkpt>
      <trkpt lat="43.1344410684361" lon="-4.92968450300855">
        <ele>1226.8257598877</ele>
        <time>2018-08-28T12:02:49Z</time>
      </trkpt>
      <trkpt lat="43.1344967242732" lon="-4.92969657294911">
        <ele>1226.39375305176</ele>
        <time>2018-08-28T12:02:51Z</time>
      </trkpt>
      <trkpt lat="43.1345606362849" lon="-4.92969422601622">
        <ele>1225.07331848145</ele>
        <time>2018-08-28T12:02:53Z</time>
      </trkpt>
      <trkpt lat="43.134633516933" lon="-4.92967234924895">
        <ele>1225.42512512207</ele>
        <time>2018-08-28T12:02:55Z</time>
      </trkpt>
      <trkpt lat="43.1347097503423" lon="-4.92963094264728">
        <ele>1227.10530090332</ele>
        <time>2018-08-28T12:02:57Z</time>
      </trkpt>
      <trkpt lat="43.1347658252745" lon="-4.92958165705663">
        <ele>1228.7417755127</ele>
        <time>2018-08-28T12:02:59Z</time>
      </trkpt>
      <trkpt lat="43.1348020770057" lon="-4.92951703258318">
        <ele>1228.86433410645</ele>
        <time>2018-08-28T12:03:01Z</time>
      </trkpt>
      <trkpt lat="43.1348346406996" lon="-4.92945634760422">
        <ele>1230.86555480957</ele>
        <time>2018-08-28T12:03:03Z</time>
      </trkpt>
      <trkpt lat="43.134896582964" lon="-4.9294156115548">
        <ele>1232.77082824707</ele>
        <time>2018-08-28T12:03:06Z</time>
      </trkpt>
      <trkpt lat="43.1349669909506" lon="-4.92941946723026">
        <ele>1228.08662414551</ele>
        <time>2018-08-28T12:03:09Z</time>
      </trkpt>
      <trkpt lat="43.1350241136208" lon="-4.92942717858118">
        <ele>1227.03071594238</ele>
        <time>2018-08-28T12:03:11Z</time>
      </trkpt>
      <trkpt lat="43.1350885285466" lon="-4.92943983525497">
        <ele>1227.45906066895</ele>
        <time>2018-08-28T12:03:13Z</time>
      </trkpt>
      <trkpt lat="43.1351456512167" lon="-4.92947026156348">
        <ele>1227.75556945801</ele>
        <time>2018-08-28T12:03:15Z</time>
      </trkpt>
      <trkpt lat="43.1352009717777" lon="-4.92950337008101">
        <ele>1227.02827453613</ele>
        <time>2018-08-28T12:03:17Z</time>
      </trkpt>
      <trkpt lat="43.1352636684134" lon="-4.92953882553142">
        <ele>1224.62886047363</ele>
        <time>2018-08-28T12:03:19Z</time>
      </trkpt>
      <trkpt lat="43.1353346631333" lon="-4.9295728560583">
        <ele>1222.64192199707</ele>
        <time>2018-08-28T12:03:21Z</time>
      </trkpt>
      <trkpt lat="43.135402640368" lon="-4.92960152216715">
        <ele>1221.46174621582</ele>
        <time>2018-08-28T12:03:23Z</time>
      </trkpt>
      <trkpt lat="43.135467474389" lon="-4.9296315293805">
        <ele>1221.4722442627</ele>
        <time>2018-08-28T12:03:25Z</time>
      </trkpt>
      <trkpt lat="43.1355311349436" lon="-4.92967863567633">
        <ele>1222.81074523926</ele>
        <time>2018-08-28T12:03:27Z</time>
      </trkpt>
      <trkpt lat="43.1355747627496" lon="-4.92972733453375">
        <ele>1222.60041809082</ele>
        <time>2018-08-28T12:03:29Z</time>
      </trkpt>
      <trkpt lat="43.1356006628304" lon="-4.92979212664527">
        <ele>1225.1919708252</ele>
        <time>2018-08-28T12:03:31Z</time>
      </trkpt>
      <trkpt lat="43.135630041401" lon="-4.92986513302189">
        <ele>1228.43843078613</ele>
        <time>2018-08-28T12:03:33Z</time>
      </trkpt>
      <trkpt lat="43.1356501160591" lon="-4.92993269116146">
        <ele>1229.33515930176</ele>
        <time>2018-08-28T12:03:35Z</time>
      </trkpt>
      <trkpt lat="43.1356576178625" lon="-4.93001785129768">
        <ele>1233.38276672363</ele>
        <time>2018-08-28T12:03:37Z</time>
      </trkpt>
      <trkpt lat="43.1356693525269" lon="-4.93008666672272">
        <ele>1231.28486633301</ele>
        <time>2018-08-28T12:03:39Z</time>
      </trkpt>
      <trkpt lat="43.1356985634595" lon="-4.93016277440351">
        <ele>1233.40266418457</ele>
        <time>2018-08-28T12:03:41Z</time>
      </trkpt>
      <trkpt lat="43.1357385451376" lon="-4.93023108691436">
        <ele>1232.60176086426</ele>
        <time>2018-08-28T12:03:43Z</time>
      </trkpt>
      <trkpt lat="43.1357859028905" lon="-4.93029722013039">
        <ele>1234.49421691895</ele>
        <time>2018-08-28T12:03:45Z</time>
      </trkpt>
      <trkpt lat="43.1358364038571" lon="-4.93035815656644">
        <ele>1234.4536895752</ele>
        <time>2018-08-28T12:03:47Z</time>
      </trkpt>
      <trkpt lat="43.1358879944711" lon="-4.93042194284958">
        <ele>1235.6040802002</ele>
        <time>2018-08-28T12:03:49Z</time>
      </trkpt>
      <trkpt lat="43.1359445723175" lon="-4.9304711446212">
        <ele>1235.10249328613</ele>
        <time>2018-08-28T12:03:51Z</time>
      </trkpt>
      <trkpt lat="43.1360038742825" lon="-4.9305229447828">
        <ele>1236.01863098145</ele>
        <time>2018-08-28T12:03:53Z</time>
      </trkpt>
      <trkpt lat="43.1360576022818" lon="-4.93059821427328">
        <ele>1237.34931945801</ele>
        <time>2018-08-28T12:03:55Z</time>
      </trkpt>
      <trkpt lat="43.1361047504871" lon="-4.930671472107">
        <ele>1237.14436340332</ele>
        <time>2018-08-28T12:03:57Z</time>
      </trkpt>
      <trkpt lat="43.1361475820124" lon="-4.93074313737911">
        <ele>1236.10224914551</ele>
        <time>2018-08-28T12:03:59Z</time>
      </trkpt>
      <trkpt lat="43.1361899944424" lon="-4.93082142435473">
        <ele>1235.6646270752</ele>
        <time>2018-08-28T12:04:01Z</time>
      </trkpt>
      <trkpt lat="43.1362366397336" lon="-4.93090314791066">
        <ele>1237.40400695801</ele>
        <time>2018-08-28T12:04:03Z</time>
      </trkpt>
      <trkpt lat="43.1362857157766" lon="-4.93097087368828">
        <ele>1236.58430480957</ele>
        <time>2018-08-28T12:04:05Z</time>
      </trkpt>
      <trkpt lat="43.1363387732237" lon="-4.93103734218043">
        <ele>1237.09309387207</ele>
        <time>2018-08-28T12:04:07Z</time>
      </trkpt>
      <trkpt lat="43.1363901123806" lon="-4.93109794334036">
        <ele>1237.48078918457</ele>
        <time>2018-08-28T12:04:09Z</time>
      </trkpt>
      <trkpt lat="43.1364430440992" lon="-4.93115510791999">
        <ele>1238.69160461426</ele>
        <time>2018-08-28T12:04:11Z</time>
      </trkpt>
      <trkpt lat="43.1365025556117" lon="-4.93120808154804">
        <ele>1239.26789855957</ele>
        <time>2018-08-28T12:04:13Z</time>
      </trkpt>
      <trkpt lat="43.1365684373706" lon="-4.93125644512934">
        <ele>1237.28913879395</ele>
        <time>2018-08-28T12:04:15Z</time>
      </trkpt>
      <trkpt lat="43.1366370432481" lon="-4.93129609153134">
        <ele>1236.9751739502</ele>
        <time>2018-08-28T12:04:17Z</time>
      </trkpt>
      <trkpt lat="43.1366996560647" lon="-4.93132207543117">
        <ele>1237.12812805176</ele>
        <time>2018-08-28T12:04:19Z</time>
      </trkpt>
      <trkpt lat="43.1367582455679" lon="-4.93134009652299">
        <ele>1237.73921203613</ele>
        <time>2018-08-28T12:04:21Z</time>
      </trkpt>
      <trkpt lat="43.1368172960758" lon="-4.93135375902516">
        <ele>1238.77912902832</ele>
        <time>2018-08-28T12:04:23Z</time>
      </trkpt>
      <trkpt lat="43.1368765142217" lon="-4.9313742108689">
        <ele>1239.33345031738</ele>
        <time>2018-08-28T12:04:25Z</time>
      </trkpt>
      <trkpt lat="43.1369338045298" lon="-4.93140581064385">
        <ele>1240.59187316895</ele>
        <time>2018-08-28T12:04:27Z</time>
      </trkpt>
      <trkpt lat="43.1369889155432" lon="-4.93144109845621">
        <ele>1240.96760559082</ele>
        <time>2018-08-28T12:04:29Z</time>
      </trkpt>
      <trkpt lat="43.1370418472617" lon="-4.93147336878342">
        <ele>1241.28828430176</ele>
        <time>2018-08-28T12:04:31Z</time>
      </trkpt>
      <trkpt lat="43.137094024609" lon="-4.93150337599677">
        <ele>1241.78462219238</ele>
        <time>2018-08-28T12:04:33Z</time>
      </trkpt>
      <trkpt lat="43.1371499738126" lon="-4.93154067546589">
        <ele>1242.89521789551</ele>
        <time>2018-08-28T12:04:35Z</time>
      </trkpt>
      <trkpt lat="43.1372091919585" lon="-4.93156137876672">
        <ele>1242.4634552002</ele>
        <time>2018-08-28T12:04:37Z</time>
      </trkpt>
      <trkpt lat="43.1372666499048" lon="-4.93157210760278">
        <ele>1243.14851379395</ele>
        <time>2018-08-28T12:04:39Z</time>
      </trkpt>
      <trkpt lat="43.1373234372988" lon="-4.93157059886021">
        <ele>1243.83882141113</ele>
        <time>2018-08-28T12:04:41Z</time>
      </trkpt>
      <trkpt lat="43.1373806018784" lon="-4.93155224249226">
        <ele>1244.19038391113</ele>
        <time>2018-08-28T12:04:43Z</time>
      </trkpt>
      <trkpt lat="43.1374328211352" lon="-4.93152651004953">
        <ele>1241.42939758301</ele>
        <time>2018-08-28T12:04:45Z</time>
      </trkpt>
      <trkpt lat="43.1374702044233" lon="-4.93148342706722">
        <ele>1241.69343566895</ele>
        <time>2018-08-28T12:04:47Z</time>
      </trkpt>
      <trkpt lat="43.1375112338393" lon="-4.93142718449694">
        <ele>1243.99824523926</ele>
        <time>2018-08-28T12:04:49Z</time>
      </trkpt>
      <trkpt lat="43.1375513831555" lon="-4.93136817589861">
        <ele>1244.18379211426</ele>
        <time>2018-08-28T12:04:51Z</time>
      </trkpt>
      <trkpt lat="43.1375929993048" lon="-4.931308412929">
        <ele>1244.41767883301</ele>
        <time>2018-08-28T12:04:53Z</time>
      </trkpt>
      <trkpt lat="43.1376425363525" lon="-4.93124915287358">
        <ele>1245.86689758301</ele>
        <time>2018-08-28T12:04:55Z</time>
      </trkpt>
      <trkpt lat="43.1376783270791" lon="-4.93119500577909">
        <ele>1245.43244934082</ele>
        <time>2018-08-28T12:04:57Z</time>
      </trkpt>
      <trkpt lat="43.1377181411191" lon="-4.93113834411365">
        <ele>1245.33174133301</ele>
        <time>2018-08-28T12:04:59Z</time>
      </trkpt>
      <trkpt lat="43.1377823884069" lon="-4.93105905130965">
        <ele>1244.04426574707</ele>
        <time>2018-08-28T12:05:01Z</time>
      </trkpt>
      <trkpt lat="43.1378361164063" lon="-4.93100708350998">
        <ele>1244.37922668457</ele>
        <time>2018-08-28T12:05:02Z</time>
      </trkpt>
      <trkpt lat="43.1378770620033" lon="-4.93094866164488">
        <ele>1243.54121398926</ele>
        <time>2018-08-28T12:05:03Z</time>
      </trkpt>
      <trkpt lat="43.1379431114002" lon="-4.93091555312735">
        <ele>1241.81636047363</ele>
        <time>2018-08-28T12:05:04Z</time>
      </trkpt>
      <trkpt lat="43.13797429208" lon="-4.93084045127493">
        <ele>1242.3062286377</ele>
        <time>2018-08-28T12:05:05Z</time>
      </trkpt>
      <trkpt lat="43.138011172454" lon="-4.93075336330098">
        <ele>1242.62275695801</ele>
        <time>2018-08-28T12:05:06Z</time>
      </trkpt>
      <trkpt lat="43.1380457058951" lon="-4.93068697862786">
        <ele>1239.43403625488</ele>
        <time>2018-08-28T12:05:07Z</time>
      </trkpt>
      <trkpt lat="43.1381182931765" lon="-4.93059754372102">
        <ele>1238.60810852051</ele>
        <time>2018-08-28T12:05:08Z</time>
      </trkpt>
      <trkpt lat="43.1381736975565" lon="-4.93050383404356">
        <ele>1235.9400177002</ele>
        <time>2018-08-28T12:05:09Z</time>
      </trkpt>
      <trkpt lat="43.138245069462" lon="-4.93042370304924">
        <ele>1234.71040344238</ele>
        <time>2018-08-28T12:05:10Z</time>
      </trkpt>
      <trkpt lat="43.1383234821662" lon="-4.93036444299382">
        <ele>1233.39643859863</ele>
        <time>2018-08-28T12:05:11Z</time>
      </trkpt>
      <trkpt lat="43.1384012243181" lon="-4.93029101752204">
        <ele>1231.97846984863</ele>
        <time>2018-08-28T12:05:12Z</time>
      </trkpt>
      <trkpt lat="43.1384616997495" lon="-4.930187836294">
        <ele>1232.14912414551</ele>
        <time>2018-08-28T12:05:13Z</time>
      </trkpt>
      <trkpt lat="43.1385077583074" lon="-4.9300683941738">
        <ele>1230.8130645752</ele>
        <time>2018-08-28T12:05:14Z</time>
      </trkpt>
      <trkpt lat="43.1385446386814" lon="-4.9299478624062">
        <ele>1230.66889953613</ele>
        <time>2018-08-28T12:05:15Z</time>
      </trkpt>
      <trkpt lat="43.138571335043" lon="-4.92982230149669">
        <ele>1230.10578918457</ele>
        <time>2018-08-28T12:05:16Z</time>
      </trkpt>
      <trkpt lat="43.1386104785308" lon="-4.92972934619051">
        <ele>1229.03950500488</ele>
        <time>2018-08-28T12:05:17Z</time>
      </trkpt>
      <trkpt lat="43.138638851273" lon="-4.9296177830593">
        <ele>1227.9195098877</ele>
        <time>2018-08-28T12:05:18Z</time>
      </trkpt>
      <trkpt lat="43.1386800064176" lon="-4.92950286716682">
        <ele>1227.74641418457</ele>
        <time>2018-08-28T12:05:19Z</time>
      </trkpt>
      <trkpt lat="43.1386736780807" lon="-4.929394992073">
        <ele>1225.69148254395</ele>
        <time>2018-08-28T12:05:20Z</time>
      </trkpt>
      <trkpt lat="43.1386733847141" lon="-4.92929399013978">
        <ele>1224.69258117676</ele>
        <time>2018-08-28T12:05:21Z</time>
      </trkpt>
      <trkpt lat="43.1386989076092" lon="-4.92920732126099">
        <ele>1225.05049133301</ele>
        <time>2018-08-28T12:05:22Z</time>
      </trkpt>
      <trkpt lat="43.1387219578429" lon="-4.92912693880957">
        <ele>1225.16719055176</ele>
        <time>2018-08-28T12:05:23Z</time>
      </trkpt>
      <trkpt lat="43.1387473550096" lon="-4.92902677506667">
        <ele>1221.15254211426</ele>
        <time>2018-08-28T12:05:24Z</time>
      </trkpt>
      <trkpt lat="43.1387424515962" lon="-4.9289081711368">
        <ele>1220.08491516113</ele>
        <time>2018-08-28T12:05:25Z</time>
      </trkpt>
      <trkpt lat="43.1387410685822" lon="-4.92881588638288">
        <ele>1217.10359191895</ele>
        <time>2018-08-28T12:05:26Z</time>
      </trkpt>
      <trkpt lat="43.1387402723014" lon="-4.92871991359156">
        <ele>1216.10005187988</ele>
        <time>2018-08-28T12:05:27Z</time>
      </trkpt>
      <trkpt lat="43.1386866700306" lon="-4.92864497937721">
        <ele>1213.4224395752</ele>
        <time>2018-08-28T12:05:29Z</time>
      </trkpt>
      <trkpt lat="43.1386106042593" lon="-4.92857364938122">
        <ele>1211.77766418457</ele>
        <time>2018-08-28T12:05:31Z</time>
      </trkpt>
      <trkpt lat="43.1385962712049" lon="-4.9284744914667">
        <ele>1212.29475402832</ele>
        <time>2018-08-28T12:05:33Z</time>
      </trkpt>
      <trkpt lat="43.1386244343995" lon="-4.92838136852247">
        <ele>1214.5484161377</ele>
        <time>2018-08-28T12:05:34Z</time>
      </trkpt>
      <trkpt lat="43.1386683136626" lon="-4.92829863913816">
        <ele>1212.96821594238</ele>
        <time>2018-08-28T12:05:35Z</time>
      </trkpt>
      <trkpt lat="43.1387166772439" lon="-4.9281914345966">
        <ele>1210.67036437988</ele>
        <time>2018-08-28T12:05:36Z</time>
      </trkpt>
      <trkpt lat="43.1387437507912" lon="-4.92808389477891">
        <ele>1209.8687286377</ele>
        <time>2018-08-28T12:05:37Z</time>
      </trkpt>
      <trkpt lat="43.1387926591962" lon="-4.92796386592549">
        <ele>1209.44306945801</ele>
        <time>2018-08-28T12:05:38Z</time>
      </trkpt>
      <trkpt lat="43.1388198165625" lon="-4.92785599083167">
        <ele>1208.13410949707</ele>
        <time>2018-08-28T12:05:39Z</time>
      </trkpt>
      <trkpt lat="43.138854224275" lon="-4.92777041160029">
        <ele>1206.8531036377</ele>
        <time>2018-08-28T12:05:40Z</time>
      </trkpt>
      <trkpt lat="43.1388481054857" lon="-4.9277041107462">
        <ele>1202.3911895752</ele>
        <time>2018-08-28T12:05:41Z</time>
      </trkpt>
      <trkpt lat="43.1388266897231" lon="-4.92763076909345">
        <ele>1200.21748352051</ele>
        <time>2018-08-28T12:05:42Z</time>
      </trkpt>
      <trkpt lat="43.1388113089308" lon="-4.92755876854521">
        <ele>1199.23176574707</ele>
        <time>2018-08-28T12:05:43Z</time>
      </trkpt>
      <trkpt lat="43.1387628615304" lon="-4.92746111937326">
        <ele>1194.76448059082</ele>
        <time>2018-08-28T12:05:45Z</time>
      </trkpt>
      <trkpt lat="43.1387005420803" lon="-4.92739959620398">
        <ele>1186.01643371582</ele>
        <time>2018-08-28T12:05:47Z</time>
      </trkpt>
      <trkpt lat="43.138774931471" lon="-4.92740429006976">
        <ele>1179.6284942627</ele>
        <time>2018-08-28T12:05:51Z</time>
      </trkpt>
      <trkpt lat="43.1388215348526" lon="-4.92740345187944">
        <ele>1179.6568145752</ele>
        <time>2018-08-28T12:05:52Z</time>
      </trkpt>
      <trkpt lat="43.138892571482" lon="-4.92741493508679">
        <ele>1175.53218078613</ele>
        <time>2018-08-28T12:05:55Z</time>
      </trkpt>
      <trkpt lat="43.1389740854903" lon="-4.92741015740198">
        <ele>1178.0220489502</ele>
        <time>2018-08-28T12:05:57Z</time>
      </trkpt>
      <trkpt lat="43.1390572339698" lon="-4.92739138193887">
        <ele>1176.38679504395</ele>
        <time>2018-08-28T12:05:59Z</time>
      </trkpt>
      <trkpt lat="43.1391379936069" lon="-4.92736472748679">
        <ele>1176.21760559082</ele>
        <time>2018-08-28T12:06:01Z</time>
      </trkpt>
      <trkpt lat="43.1391677912726" lon="-4.92729599588078">
        <ele>1175.2759552002</ele>
        <time>2018-08-28T12:06:02Z</time>
      </trkpt>
      <trkpt lat="43.1392245786666" lon="-4.92729348130983">
        <ele>1170.93733215332</ele>
        <time>2018-08-28T12:06:04Z</time>
      </trkpt>
      <trkpt lat="43.1392883649498" lon="-4.92730278522235">
        <ele>1171.50495910645</ele>
        <time>2018-08-28T12:06:06Z</time>
      </trkpt>
      <trkpt lat="43.1393474573671" lon="-4.9273002706514">
        <ele>1173.37959289551</ele>
        <time>2018-08-28T12:06:07Z</time>
      </trkpt>
      <trkpt lat="43.1394141773164" lon="-4.92733907886308">
        <ele>1173.19306945801</ele>
        <time>2018-08-28T12:06:09Z</time>
      </trkpt>
      <trkpt lat="43.1394585594937" lon="-4.92738174275023">
        <ele>1172.50019836426</ele>
        <time>2018-08-28T12:06:10Z</time>
      </trkpt>
      <trkpt lat="43.1394987088099" lon="-4.92746162228745">
        <ele>1173.89570617676</ele>
        <time>2018-08-28T12:06:11Z</time>
      </trkpt>
      <trkpt lat="43.1394953560486" lon="-4.92755130865139">
        <ele>1175.19441223145</ele>
        <time>2018-08-28T12:06:13Z</time>
      </trkpt>
      <trkpt lat="43.1395594776078" lon="-4.92765373550814">
        <ele>1174.24336242676</ele>
        <time>2018-08-28T12:06:15Z</time>
      </trkpt>
      <trkpt lat="43.1396070029988" lon="-4.92765247822267">
        <ele>1171.27680969238</ele>
        <time>2018-08-28T12:06:17Z</time>
      </trkpt>
      <trkpt lat="43.1396249402716" lon="-4.92771936580998">
        <ele>1171.65522766113</ele>
        <time>2018-08-28T12:06:18Z</time>
      </trkpt>
      <trkpt lat="43.1396977371007" lon="-4.92780989036423">
        <ele>1170.09443664551</ele>
        <time>2018-08-28T12:06:20Z</time>
      </trkpt>
      <trkpt lat="43.1397374254122" lon="-4.92786269635421">
        <ele>1170.89570617676</ele>
        <time>2018-08-28T12:06:21Z</time>
      </trkpt>
      <trkpt lat="43.1397894770309" lon="-4.92789169773918">
        <ele>1167.96784973145</ele>
        <time>2018-08-28T12:06:22Z</time>
      </trkpt>
      <trkpt lat="43.1398436241254" lon="-4.92792053148609">
        <ele>1167.44355773926</ele>
        <time>2018-08-28T12:06:23Z</time>
      </trkpt>
      <trkpt lat="43.1399116851791" lon="-4.9279528018133">
        <ele>1166.63618469238</ele>
        <time>2018-08-28T12:06:24Z</time>
      </trkpt>
      <trkpt lat="43.1399772316619" lon="-4.92800292559427">
        <ele>1166.26387023926</ele>
        <time>2018-08-28T12:06:25Z</time>
      </trkpt>
      <trkpt lat="43.1400280679047" lon="-4.92808305658859">
        <ele>1167.97639465332</ele>
        <time>2018-08-28T12:06:26Z</time>
      </trkpt>
      <trkpt lat="43.1400993979006" lon="-4.92815530859393">
        <ele>1167.5796661377</ele>
        <time>2018-08-28T12:06:27Z</time>
      </trkpt>
      <trkpt lat="43.1401737872913" lon="-4.92824960500461">
        <ele>1168.26997375488</ele>
        <time>2018-08-28T12:06:28Z</time>
      </trkpt>
      <trkpt lat="43.1402405072405" lon="-4.92832546122831">
        <ele>1168.26545715332</ele>
        <time>2018-08-28T12:06:29Z</time>
      </trkpt>
      <trkpt lat="43.1402821652993" lon="-4.92843274958891">
        <ele>1170.03425598145</ele>
        <time>2018-08-28T12:06:30Z</time>
      </trkpt>
      <trkpt lat="43.1403374439507" lon="-4.92852218449575">
        <ele>1170.26094055176</ele>
        <time>2018-08-28T12:06:31Z</time>
      </trkpt>
      <trkpt lat="43.1403861847177" lon="-4.92861907929641">
        <ele>1170.51106262207</ele>
        <time>2018-08-28T12:06:32Z</time>
      </trkpt>
      <trkpt lat="43.1404363084986" lon="-4.92869074456853">
        <ele>1171.08540344238</ele>
        <time>2018-08-28T12:06:33Z</time>
      </trkpt>
      <trkpt lat="43.1404783856525" lon="-4.92877062410575">
        <ele>1171.54048156738</ele>
        <time>2018-08-28T12:06:34Z</time>
      </trkpt>
      <trkpt lat="43.1405284256145" lon="-4.92884011008304">
        <ele>1169.99653625488</ele>
        <time>2018-08-28T12:06:35Z</time>
      </trkpt>
      <trkpt lat="43.1405891105934" lon="-4.92890666239423">
        <ele>1168.43293762207</ele>
        <time>2018-08-28T12:06:36Z</time>
      </trkpt>
      <trkpt lat="43.1406424614071" lon="-4.92894295603496">
        <ele>1167.51240539551</ele>
        <time>2018-08-28T12:06:37Z</time>
      </trkpt>
      <trkpt lat="43.1407066667854" lon="-4.92899542674881">
        <ele>1164.96870422363</ele>
        <time>2018-08-28T12:06:38Z</time>
      </trkpt>
      <trkpt lat="43.1407521805196" lon="-4.92902141064864">
        <ele>1163.59687805176</ele>
        <time>2018-08-28T12:06:39Z</time>
      </trkpt>
      <trkpt lat="43.1407952215924" lon="-4.92905351333779">
        <ele>1164.01594543457</ele>
        <time>2018-08-28T12:06:40Z</time>
      </trkpt>
      <trkpt lat="43.1408477342158" lon="-4.92904655635816">
        <ele>1162.25032043457</ele>
        <time>2018-08-28T12:06:41Z</time>
      </trkpt>
      <trkpt lat="43.1408965588018" lon="-4.92909961380523">
        <ele>1163.40034484863</ele>
        <time>2018-08-28T12:06:42Z</time>
      </trkpt>
      <trkpt lat="43.1409466406732" lon="-4.92911612615448">
        <ele>1162.62898254395</ele>
        <time>2018-08-28T12:06:43Z</time>
      </trkpt>
      <trkpt lat="43.1410467205971" lon="-4.92916407064062">
        <ele>1162.4605255127</ele>
        <time>2018-08-28T12:06:45Z</time>
      </trkpt>
      <trkpt lat="43.1410897197604" lon="-4.92918351665598">
        <ele>1161.2769317627</ele>
        <time>2018-08-28T12:06:46Z</time>
      </trkpt>
      <trkpt lat="43.1411760952725" lon="-4.92920765653712">
        <ele>1158.31965637207</ele>
        <time>2018-08-28T12:06:48Z</time>
      </trkpt>
      <trkpt lat="43.1412400491937" lon="-4.92922852747601">
        <ele>1158.6431427002</ele>
        <time>2018-08-28T12:06:50Z</time>
      </trkpt>
      <trkpt lat="43.1412992254301" lon="-4.92925325409037">
        <ele>1159.08320617676</ele>
        <time>2018-08-28T12:06:51Z</time>
      </trkpt>
      <trkpt lat="43.1414183322742" lon="-4.92924369872075">
        <ele>1157.53596496582</ele>
        <time>2018-08-28T12:06:53Z</time>
      </trkpt>
      <trkpt lat="43.1414700486168" lon="-4.92929608561558">
        <ele>1160.73652648926</ele>
        <time>2018-08-28T12:06:54Z</time>
      </trkpt>
      <trkpt lat="43.1415508920729" lon="-4.92935048416716">
        <ele>1161.62495422363</ele>
        <time>2018-08-28T12:06:56Z</time>
      </trkpt>
      <trkpt lat="43.1416402850702" lon="-4.92940848693711">
        <ele>1161.61750793457</ele>
        <time>2018-08-28T12:06:58Z</time>
      </trkpt>
      <trkpt lat="43.1417127885326" lon="-4.92943011224729">
        <ele>1158.7437286377</ele>
        <time>2018-08-28T12:06:59Z</time>
      </trkpt>
      <trkpt lat="43.1417777901917" lon="-4.92945626378518">
        <ele>1159.27473449707</ele>
        <time>2018-08-28T12:07:00Z</time>
      </trkpt>
      <trkpt lat="43.1418321887433" lon="-4.92949658073944">
        <ele>1158.74348449707</ele>
        <time>2018-08-28T12:07:01Z</time>
      </trkpt>
      <trkpt lat="43.1418937957316" lon="-4.92947814055246">
        <ele>1156.13679504395</ele>
        <time>2018-08-28T12:07:02Z</time>
      </trkpt>
      <trkpt lat="43.1419904809847" lon="-4.92945224047166">
        <ele>1153.97212219238</ele>
        <time>2018-08-28T12:07:03Z</time>
      </trkpt>
      <trkpt lat="43.1420795387059" lon="-4.92945215665263">
        <ele>1153.86958312988</ele>
        <time>2018-08-28T12:07:04Z</time>
      </trkpt>
      <trkpt lat="43.1421582866862" lon="-4.92944637313944">
        <ele>1153.55085754395</ele>
        <time>2018-08-28T12:07:05Z</time>
      </trkpt>
      <trkpt lat="43.1422417704418" lon="-4.92942466401023">
        <ele>1151.67292785645</ele>
        <time>2018-08-28T12:07:06Z</time>
      </trkpt>
      <trkpt lat="43.1423319178104" lon="-4.92940245196682">
        <ele>1151.04206848145</ele>
        <time>2018-08-28T12:07:07Z</time>
      </trkpt>
      <trkpt lat="43.1423734082311" lon="-4.92935157381457">
        <ele>1148.89680480957</ele>
        <time>2018-08-28T12:07:08Z</time>
      </trkpt>
      <trkpt lat="43.142457813996" lon="-4.92929097265464">
        <ele>1148.59370422363</ele>
        <time>2018-08-28T12:07:09Z</time>
      </trkpt>
      <trkpt lat="43.1425246596738" lon="-4.92923498154146">
        <ele>1147.03596496582</ele>
        <time>2018-08-28T12:07:10Z</time>
      </trkpt>
      <trkpt lat="43.1425863923907" lon="-4.92918225937051">
        <ele>1143.46614074707</ele>
        <time>2018-08-28T12:07:11Z</time>
      </trkpt>
      <trkpt lat="43.1426381506428" lon="-4.92910707369906">
        <ele>1139.22334289551</ele>
        <time>2018-08-28T12:07:12Z</time>
      </trkpt>
      <trkpt lat="43.1427012244641" lon="-4.92902627215248">
        <ele>1138.16108703613</ele>
        <time>2018-08-28T12:07:13Z</time>
      </trkpt>
      <trkpt lat="43.1427626219049" lon="-4.92894538678688">
        <ele>1136.2847442627</ele>
        <time>2018-08-28T12:07:14Z</time>
      </trkpt>
      <trkpt lat="43.142838268581" lon="-4.92885628715617">
        <ele>1135.41389465332</ele>
        <time>2018-08-28T12:07:15Z</time>
      </trkpt>
      <trkpt lat="43.1428725924745" lon="-4.92876903154415">
        <ele>1131.21675109863</ele>
        <time>2018-08-28T12:07:16Z</time>
      </trkpt>
      <trkpt lat="43.1429249793693" lon="-4.92866325192612">
        <ele>1128.76484680176</ele>
        <time>2018-08-28T12:07:17Z</time>
      </trkpt>
      <trkpt lat="43.1429674756184" lon="-4.92854724638623">
        <ele>1126.4663848877</ele>
        <time>2018-08-28T12:07:18Z</time>
      </trkpt>
      <trkpt lat="43.143018060404" lon="-4.92843274958891">
        <ele>1126.02314758301</ele>
        <time>2018-08-28T12:07:19Z</time>
      </trkpt>
      <trkpt lat="43.1430756859883" lon="-4.92832764052314">
        <ele>1124.46101379395</ele>
        <time>2018-08-28T12:07:20Z</time>
      </trkpt>
      <trkpt lat="43.1430492410838" lon="-4.92817685008508">
        <ele>1123.3648223877</ele>
        <time>2018-08-28T12:07:21Z</time>
      </trkpt>
      <trkpt lat="43.1430646637856" lon="-4.92810308933717">
        <ele>1122.76094055176</ele>
        <time>2018-08-28T12:07:22Z</time>
      </trkpt>
      <trkpt lat="43.1430644542381" lon="-4.92802865803701">
        <ele>1120.95515441895</ele>
        <time>2018-08-28T12:07:23Z</time>
      </trkpt>
      <trkpt lat="43.1430440023943" lon="-4.92792908102733">
        <ele>1119.28742980957</ele>
        <time>2018-08-28T12:07:24Z</time>
      </trkpt>
      <trkpt lat="43.1430189405038" lon="-4.92783520371181">
        <ele>1119.45515441895</ele>
        <time>2018-08-28T12:07:25Z</time>
      </trkpt>
      <trkpt lat="43.1430122349813" lon="-4.9277648795442">
        <ele>1119.88398742676</ele>
        <time>2018-08-28T12:07:26Z</time>
      </trkpt>
      <trkpt lat="43.1430075411155" lon="-4.92762557231349">
        <ele>1120.01387023926</ele>
        <time>2018-08-28T12:07:28Z</time>
      </trkpt>
      <trkpt lat="43.1430263584882" lon="-4.92751057260197">
        <ele>1119.01081848145</ele>
        <time>2018-08-28T12:07:29Z</time>
      </trkpt>
      <trkpt lat="43.1430436671182" lon="-4.92740252987009">
        <ele>1119.31623840332</ele>
        <time>2018-08-28T12:07:30Z</time>
      </trkpt>
      <trkpt lat="43.1431141589239" lon="-4.92734989151817">
        <ele>1115.36177062988</ele>
        <time>2018-08-28T12:07:31Z</time>
      </trkpt>
      <trkpt lat="43.1431808788731" lon="-4.92726707831484">
        <ele>1113.94306945801</ele>
        <time>2018-08-28T12:07:32Z</time>
      </trkpt>
      <trkpt lat="43.1432496523886" lon="-4.92722458206576">
        <ele>1113.69367980957</ele>
        <time>2018-08-28T12:07:33Z</time>
      </trkpt>
      <trkpt lat="43.1433192640945" lon="-4.92716750130516">
        <ele>1115.78535461426</ele>
        <time>2018-08-28T12:07:34Z</time>
      </trkpt>
      <trkpt lat="43.1433712318941" lon="-4.92711075582069">
        <ele>1113.86457824707</ele>
        <time>2018-08-28T12:07:35Z</time>
      </trkpt>
      <trkpt lat="43.1434473395749" lon="-4.92704738863271">
        <ele>1114.67561340332</ele>
        <time>2018-08-28T12:07:36Z</time>
      </trkpt>
      <trkpt lat="43.1434546737402" lon="-4.92696247995359">
        <ele>1111.93305969238</ele>
        <time>2018-08-28T12:07:37Z</time>
      </trkpt>
      <trkpt lat="43.1434886204481" lon="-4.92686449550551">
        <ele>1111.8325958252</ele>
        <time>2018-08-28T12:07:38Z</time>
      </trkpt>
      <trkpt lat="43.1435190886661" lon="-4.92676282302004">
        <ele>1112.33564758301</ele>
        <time>2018-08-28T12:07:39Z</time>
      </trkpt>
      <trkpt lat="43.1435220642417" lon="-4.92666953243774">
        <ele>1109.91987609863</ele>
        <time>2018-08-28T12:07:40Z</time>
      </trkpt>
      <trkpt lat="43.1435067253589" lon="-4.92659032345277">
        <ele>1107.2827911377</ele>
        <time>2018-08-28T12:07:41Z</time>
      </trkpt>
      <trkpt lat="43.1434957450658" lon="-4.92651329376262">
        <ele>1100.83271789551</ele>
        <time>2018-08-28T12:07:42Z</time>
      </trkpt>
      <trkpt lat="43.1434957450658" lon="-4.92640851997298">
        <ele>1098.29756164551</ele>
        <time>2018-08-28T12:07:43Z</time>
      </trkpt>
      <trkpt lat="43.1436138041719" lon="-4.92634087801438">
        <ele>1096.83100891113</ele>
        <time>2018-08-28T12:07:44Z</time>
      </trkpt>
      <trkpt lat="43.1437131297245" lon="-4.92625454441172">
        <ele>1094.27253723145</ele>
        <time>2018-08-28T12:07:45Z</time>
      </trkpt>
      <trkpt lat="43.1438256148651" lon="-4.92618924938601">
        <ele>1093.57270812988</ele>
        <time>2018-08-28T12:07:46Z</time>
      </trkpt>
      <trkpt lat="43.1439031474694" lon="-4.92609964684111">
        <ele>1090.98530578613</ele>
        <time>2018-08-28T12:07:47Z</time>
      </trkpt>
      <trkpt lat="43.144002556841" lon="-4.92601138540071">
        <ele>1087.01399230957</ele>
        <time>2018-08-28T12:07:48Z</time>
      </trkpt>
      <trkpt lat="43.1441078335449" lon="-4.9259548075543">
        <ele>1086.1411895752</ele>
        <time>2018-08-28T12:07:49Z</time>
      </trkpt>
      <trkpt lat="43.1441657524958" lon="-4.92583846673828">
        <ele>1087.67024230957</ele>
        <time>2018-08-28T12:07:50Z</time>
      </trkpt>
      <trkpt lat="43.1442368729442" lon="-4.92578113452059">
        <ele>1088.30049133301</ele>
        <time>2018-08-28T12:07:51Z</time>
      </trkpt>
      <trkpt lat="43.1443110946968" lon="-4.9257251434074">
        <ele>1087.67768859863</ele>
        <time>2018-08-28T12:07:52Z</time>
      </trkpt>
      <trkpt lat="43.1443812512263" lon="-4.92569027469021">
        <ele>1084.83198547363</ele>
        <time>2018-08-28T12:07:53Z</time>
      </trkpt>
      <trkpt lat="43.1444785651221" lon="-4.92563336156767">
        <ele>1085.92658996582</ele>
        <time>2018-08-28T12:07:54Z</time>
      </trkpt>
      <trkpt lat="43.1445350591495" lon="-4.92557116784614">
        <ele>1083.27253723145</ele>
        <time>2018-08-28T12:07:55Z</time>
      </trkpt>
      <trkpt lat="43.1445553852647" lon="-4.9255113210575">
        <ele>1079.0728302002</ele>
        <time>2018-08-28T12:07:56Z</time>
      </trkpt>
      <trkpt lat="43.1446179561719" lon="-4.92547075264615">
        <ele>1077.57099914551</ele>
        <time>2018-08-28T12:07:57Z</time>
      </trkpt>
      <trkpt lat="43.1446535792604" lon="-4.92536229081911">
        <ele>1077.28450012207</ele>
        <time>2018-08-28T12:07:59Z</time>
      </trkpt>
      <trkpt lat="43.1447227299615" lon="-4.92529733106953">
        <ele>1071.79035949707</ele>
        <time>2018-08-28T12:08:01Z</time>
      </trkpt>
      <trkpt lat="43.144805878441" lon="-4.9252795614348">
        <ele>1069.4400177002</ele>
        <time>2018-08-28T12:08:02Z</time>
      </trkpt>
      <trkpt lat="43.144859983626" lon="-4.92528894916635">
        <ele>1064.22566223145</ele>
        <time>2018-08-28T12:08:03Z</time>
      </trkpt>
      <trkpt lat="43.1449194113194" lon="-4.92526162416202">
        <ele>1064.71846008301</ele>
        <time>2018-08-28T12:08:04Z</time>
      </trkpt>
      <trkpt lat="43.1449800124794" lon="-4.92527176626485">
        <ele>1064.4654083252</ele>
        <time>2018-08-28T12:08:05Z</time>
      </trkpt>
      <trkpt lat="43.1450862531021" lon="-4.92527461611193">
        <ele>1050.97541809082</ele>
        <time>2018-08-28T12:08:08Z</time>
      </trkpt>
      <trkpt lat="43.145120367448" lon="-4.92516732775134">
        <ele>1047.80598449707</ele>
        <time>2018-08-28T12:08:10Z</time>
      </trkpt>
      <trkpt lat="43.1451530149608" lon="-4.92509566247922">
        <ele>1047.46430969238</ele>
        <time>2018-08-28T12:08:11Z</time>
      </trkpt>
      <trkpt lat="43.1451661326393" lon="-4.92501360364717">
        <ele>1047.7105255127</ele>
        <time>2018-08-28T12:08:12Z</time>
      </trkpt>
      <trkpt lat="43.1451741792663" lon="-4.92491746321779">
        <ele>1047.42842102051</ele>
        <time>2018-08-28T12:08:13Z</time>
      </trkpt>
      <trkpt lat="43.1451541884273" lon="-4.92481503636104">
        <ele>1047.09663391113</ele>
        <time>2018-08-28T12:08:14Z</time>
      </trkpt>
      <trkpt lat="43.1451378437161" lon="-4.92470121011597">
        <ele>1047.95051574707</ele>
        <time>2018-08-28T12:08:15Z</time>
      </trkpt>
      <trkpt lat="43.1451557809889" lon="-4.92461437359911">
        <ele>1046.4898223877</ele>
        <time>2018-08-28T12:08:16Z</time>
      </trkpt>
      <trkpt lat="43.1451800885081" lon="-4.92445847020012">
        <ele>1043.3794708252</ele>
        <time>2018-08-28T12:08:18Z</time>
      </trkpt>
      <trkpt lat="43.1452053180366" lon="-4.92434908636373">
        <ele>1043.28938293457</ele>
        <time>2018-08-28T12:08:19Z</time>
      </trkpt>
      <trkpt lat="43.1452507479518" lon="-4.92423400283318">
        <ele>1044.42622375488</ele>
        <time>2018-08-28T12:08:20Z</time>
      </trkpt>
      <trkpt lat="43.1452599680453" lon="-4.92413325235706">
        <ele>1045.6187286377</ele>
        <time>2018-08-28T12:08:21Z</time>
      </trkpt>
      <trkpt lat="43.1452715769812" lon="-4.92401121184688">
        <ele>1044.84577941895</ele>
        <time>2018-08-28T12:08:22Z</time>
      </trkpt>
      <trkpt lat="43.1452812999889" lon="-4.92390585132402">
        <ele>1044.80049133301</ele>
        <time>2018-08-28T12:08:23Z</time>
      </trkpt>
      <trkpt lat="43.1452820962697" lon="-4.92382530123454">
        <ele>1040.2388458252</ele>
        <time>2018-08-28T12:08:25Z</time>
      </trkpt>
      <trkpt lat="43.145318599458" lon="-4.92377266288262">
        <ele>1039.87446594238</ele>
        <time>2018-08-28T12:08:26Z</time>
      </trkpt>
      <trkpt lat="43.1453985628142" lon="-4.92372170091134">
        <ele>1036.79182434082</ele>
        <time>2018-08-28T12:08:27Z</time>
      </trkpt>
      <trkpt lat="43.1454509916186" lon="-4.9236771930055">
        <ele>1035.85005187988</ele>
        <time>2018-08-28T12:08:28Z</time>
      </trkpt>
      <trkpt lat="43.1455047615274" lon="-4.92362924851936">
        <ele>1035.21211242676</ele>
        <time>2018-08-28T12:08:29Z</time>
      </trkpt>
      <trkpt lat="43.1455966271862" lon="-4.9235854949848">
        <ele>1034.8550567627</ele>
        <time>2018-08-28T12:08:31Z</time>
      </trkpt>
      <trkpt lat="43.145651528652" lon="-4.92355355993372">
        <ele>1034.64192199707</ele>
        <time>2018-08-28T12:08:32Z</time>
      </trkpt>
      <trkpt lat="43.1456794403895" lon="-4.92347275838714">
        <ele>1034.90034484863</ele>
        <time>2018-08-28T12:08:34Z</time>
      </trkpt>
      <trkpt lat="43.1457351381361" lon="-4.92336899042588">
        <ele>1034.98872375488</ele>
        <time>2018-08-28T12:08:36Z</time>
      </trkpt>
      <trkpt lat="43.1457602838456" lon="-4.92330763489466">
        <ele>1035.96968078613</ele>
        <time>2018-08-28T12:08:37Z</time>
      </trkpt>
      <trkpt lat="43.1457859324693" lon="-4.92325290106695">
        <ele>1035.70161437988</ele>
        <time>2018-08-28T12:08:38Z</time>
      </trkpt>
      <trkpt lat="43.1458119163691" lon="-4.92319121025961">
        <ele>1035.21943664551</ele>
        <time>2018-08-28T12:08:39Z</time>
      </trkpt>
      <trkpt lat="43.1458267104282" lon="-4.92313211784225">
        <ele>1035.5923614502</ele>
        <time>2018-08-28T12:08:40Z</time>
      </trkpt>
      <trkpt lat="43.1458448991581" lon="-4.92306028493207">
        <ele>1035.80403137207</ele>
        <time>2018-08-28T12:08:41Z</time>
      </trkpt>
      <trkpt lat="43.1458596093982" lon="-4.9229829199658">
        <ele>1033.72944641113</ele>
        <time>2018-08-28T12:08:42Z</time>
      </trkpt>
      <trkpt lat="43.1458429713204" lon="-4.92289046757382">
        <ele>1031.51167297363</ele>
        <time>2018-08-28T12:08:43Z</time>
      </trkpt>
      <trkpt lat="43.1458372297167" lon="-4.92280866019886">
        <ele>1031.51264953613</ele>
        <time>2018-08-28T12:08:44Z</time>
      </trkpt>
      <trkpt lat="43.1458178256109" lon="-4.9227223265962">
        <ele>1031.47895812988</ele>
        <time>2018-08-28T12:08:45Z</time>
      </trkpt>
      <trkpt lat="43.1457966613054" lon="-4.92262543179553">
        <ele>1032.01765441895</ele>
        <time>2018-08-28T12:08:46Z</time>
      </trkpt>
      <trkpt lat="43.1457913807064" lon="-4.92255393416148">
        <ele>1032.50312805176</ele>
        <time>2018-08-28T12:08:47Z</time>
      </trkpt>
      <trkpt lat="43.1457844656363" lon="-4.92245418951374">
        <ele>1032.42890930176</ele>
        <time>2018-08-28T12:08:48Z</time>
      </trkpt>
      <trkpt lat="43.1457732757955" lon="-4.92235888727468">
        <ele>1032.32551574707</ele>
        <time>2018-08-28T12:08:49Z</time>
      </trkpt>
      <trkpt lat="43.1457729405194" lon="-4.92227498442393">
        <ele>1031.63496398926</ele>
        <time>2018-08-28T12:08:50Z</time>
      </trkpt>
      <trkpt lat="43.1457526144042" lon="-4.9222003854857">
        <ele>1032.42878723145</ele>
        <time>2018-08-28T12:08:51Z</time>
      </trkpt>
      <trkpt lat="43.1457225652813" lon="-4.92213131860357">
        <ele>1031.91499328613</ele>
        <time>2018-08-28T12:08:52Z</time>
      </trkpt>
      <trkpt lat="43.145680613856" lon="-4.92208555341225">
        <ele>1031.08662414551</ele>
        <time>2018-08-28T12:08:53Z</time>
      </trkpt>
      <trkpt lat="43.1456449069485" lon="-4.92203878239256">
        <ele>1030.44136047363</ele>
        <time>2018-08-28T12:08:54Z</time>
      </trkpt>
      <trkpt lat="43.145602787885" lon="-4.92198958062094">
        <ele>1030.51777648926</ele>
        <time>2018-08-28T12:08:55Z</time>
      </trkpt>
      <trkpt lat="43.1455476768717" lon="-4.92193157785099">
        <ele>1030.8697052002</ele>
        <time>2018-08-28T12:08:56Z</time>
      </trkpt>
      <trkpt lat="43.1454885844543" lon="-4.92188505828839">
        <ele>1029.8755645752</ele>
        <time>2018-08-28T12:08:57Z</time>
      </trkpt>
      <trkpt lat="43.1454433640867" lon="-4.9218325037555">
        <ele>1029.75910949707</ele>
        <time>2018-08-28T12:08:58Z</time>
      </trkpt>
      <trkpt lat="43.1454688031628" lon="-4.92170367390376">
        <ele>1030.07490539551</ele>
        <time>2018-08-28T12:09:00Z</time>
      </trkpt>
      <trkpt lat="43.1454830943077" lon="-4.92160703056019">
        <ele>1031.51631164551</ele>
        <time>2018-08-28T12:09:01Z</time>
      </trkpt>
      <trkpt lat="43.1455037976086" lon="-4.92149680853348">
        <ele>1032.78254699707</ele>
        <time>2018-08-28T12:09:02Z</time>
      </trkpt>
      <trkpt lat="43.1454999838426" lon="-4.92136261426371">
        <ele>1033.1626739502</ele>
        <time>2018-08-28T12:09:03Z</time>
      </trkpt>
      <trkpt lat="43.145502205047" lon="-4.9212492071138">
        <ele>1032.41218566895</ele>
        <time>2018-08-28T12:09:04Z</time>
      </trkpt>
      <trkpt lat="43.145510335493" lon="-4.92111710831981">
        <ele>1032.81745910645</ele>
        <time>2018-08-28T12:09:05Z</time>
      </trkpt>
      <trkpt lat="43.145495625253" lon="-4.92103211582165">
        <ele>1029.4253692627</ele>
        <time>2018-08-28T12:09:06Z</time>
      </trkpt>
      <trkpt lat="43.1454709824576" lon="-4.92092935368877">
        <ele>1029.50862121582</ele>
        <time>2018-08-28T12:09:07Z</time>
      </trkpt>
      <trkpt lat="43.1454406818777" lon="-4.92084662430447">
        <ele>1029.28804016113</ele>
        <time>2018-08-28T12:09:08Z</time>
      </trkpt>
      <trkpt lat="43.1454066932603" lon="-4.92077236064237">
        <ele>1029.00788879395</ele>
        <time>2018-08-28T12:09:09Z</time>
      </trkpt>
      <trkpt lat="43.1453960063338" lon="-4.92071025073987">
        <ele>1029.32014465332</ele>
        <time>2018-08-28T12:09:10Z</time>
      </trkpt>
      <trkpt lat="43.1454409333348" lon="-4.92063137703102">
        <ele>1029.59370422363</ele>
        <time>2018-08-28T12:09:12Z</time>
      </trkpt>
      <trkpt lat="43.1455071922793" lon="-4.92061419412952">
        <ele>1030.32539367676</ele>
        <time>2018-08-28T12:09:13Z</time>
      </trkpt>
      <trkpt lat="43.1455621356546" lon="-4.92059240118127">
        <ele>1032.0952911377</ele>
        <time>2018-08-28T12:09:14Z</time>
      </trkpt>
      <trkpt lat="43.1456320826366" lon="-4.92055292241734">
        <ele>1029.97785949707</ele>
        <time>2018-08-28T12:09:16Z</time>
      </trkpt>
      <trkpt lat="43.145678015466" lon="-4.92052911781233">
        <ele>1026.9751739502</ele>
        <time>2018-08-28T12:09:19Z</time>
      </trkpt>
      <trkpt lat="43.1457366468787" lon="-4.92050506175023">
        <ele>1026.12434387207</ele>
        <time>2018-08-28T12:09:22Z</time>
      </trkpt>
      <trkpt lat="43.1457726890623" lon="-4.92045938037794">
        <ele>1020.50019836426</ele>
        <time>2018-08-28T12:09:26Z</time>
      </trkpt>
      <trkpt lat="43.145777047652" lon="-4.92038830183905">
        <ele>1020.7710723877</ele>
        <time>2018-08-28T12:09:31Z</time>
      </trkpt>
      <trkpt lat="43.1458016904473" lon="-4.92033180781167">
        <ele>1020.67024230957</ele>
        <time>2018-08-28T12:09:34Z</time>
      </trkpt>
      <trkpt lat="43.145837900269" lon="-4.92027011700433">
        <ele>1020.13569641113</ele>
        <time>2018-08-28T12:09:38Z</time>
      </trkpt>
      <trkpt lat="43.1458801869705" lon="-4.92020775564473">
        <ele>1021.5474395752</ele>
        <time>2018-08-28T12:09:41Z</time>
      </trkpt>
      <trkpt lat="43.1459310232132" lon="-4.920160900806">
        <ele>1021.76277160645</ele>
        <time>2018-08-28T12:09:44Z</time>
      </trkpt>
      <trkpt lat="43.1459846673935" lon="-4.9201228469656">
        <ele>1021.21553039551</ele>
        <time>2018-08-28T12:09:47Z</time>
      </trkpt>
      <trkpt lat="43.1460407004162" lon="-4.92008093744975">
        <ele>1023.14680480957</ele>
        <time>2018-08-28T12:09:50Z</time>
      </trkpt>
      <trkpt lat="43.1460906146496" lon="-4.92004632018965">
        <ele>1023.12922668457</ele>
        <time>2018-08-28T12:09:53Z</time>
      </trkpt>
      <trkpt lat="43.1461470248579" lon="-4.92001153529149">
        <ele>1024.86555480957</ele>
        <time>2018-08-28T12:09:56Z</time>
      </trkpt>
      <trkpt lat="43.1461913232162" lon="-4.91999116726678">
        <ele>1026.26460266113</ele>
        <time>2018-08-28T12:09:58Z</time>
      </trkpt>
      <trkpt lat="43.1462346157461" lon="-4.9199727270798">
        <ele>1026.88899230957</ele>
        <time>2018-08-28T12:10:00Z</time>
      </trkpt>
      <trkpt lat="43.1462978572055" lon="-4.91995755583506">
        <ele>1026.61799621582</ele>
        <time>2018-08-28T12:10:03Z</time>
      </trkpt>
      <trkpt lat="43.1463603862032" lon="-4.91995487362605">
        <ele>1025.75874328613</ele>
        <time>2018-08-28T12:10:05Z</time>
      </trkpt>
      <trkpt lat="43.146435194689" lon="-4.91998152807813">
        <ele>1026.85078430176</ele>
        <time>2018-08-28T12:10:07Z</time>
      </trkpt>
      <trkpt lat="43.1464918982639" lon="-4.92005151696961">
        <ele>1026.73445129395</ele>
        <time>2018-08-28T12:10:09Z</time>
      </trkpt>
      <trkpt lat="43.1465226179391" lon="-4.92016869597595">
        <ele>1025.6060333252</ele>
        <time>2018-08-28T12:10:11Z</time>
      </trkpt>
      <trkpt lat="43.1465231208533" lon="-4.92026877589982">
        <ele>1025.50617980957</ele>
        <time>2018-08-28T12:10:12Z</time>
      </trkpt>
      <trkpt lat="43.1465812074422" lon="-4.92037254386108">
        <ele>1026.9341583252</ele>
        <time>2018-08-28T12:10:14Z</time>
      </trkpt>
      <trkpt lat="43.1466238294199" lon="-4.92040841840666">
        <ele>1026.48213195801</ele>
        <time>2018-08-28T12:10:15Z</time>
      </trkpt>
      <trkpt lat="43.146685101132" lon="-4.92042258382302">
        <ele>1026.0689239502</ele>
        <time>2018-08-28T12:10:16Z</time>
      </trkpt>
      <trkpt lat="43.1467479234963" lon="-4.92044311948579">
        <ele>1025.19355773926</ele>
        <time>2018-08-28T12:10:17Z</time>
      </trkpt>
      <trkpt lat="43.1468105782225" lon="-4.92045099847477">
        <ele>1024.47297668457</ele>
        <time>2018-08-28T12:10:18Z</time>
      </trkpt>
      <trkpt lat="43.1468783459097" lon="-4.92044462822836">
        <ele>1023.58418273926</ele>
        <time>2018-08-28T12:10:19Z</time>
      </trkpt>
      <trkpt lat="43.14695189711" lon="-4.92042342201333">
        <ele>1023.55305480957</ele>
        <time>2018-08-28T12:10:20Z</time>
      </trkpt>
      <trkpt lat="43.1470697047591" lon="-4.92039944977026">
        <ele>1023.55451965332</ele>
        <time>2018-08-28T12:10:21Z</time>
      </trkpt>
      <trkpt lat="43.1471489556536" lon="-4.92040095851284">
        <ele>1022.82002258301</ele>
        <time>2018-08-28T12:10:22Z</time>
      </trkpt>
      <trkpt lat="43.1472541066288" lon="-4.92043758742969">
        <ele>1020.28034973145</ele>
        <time>2018-08-28T12:10:23Z</time>
      </trkpt>
      <trkpt lat="43.1473369198322" lon="-4.92044286802869">
        <ele>1018.8462677002</ele>
        <time>2018-08-28T12:10:24Z</time>
      </trkpt>
      <trkpt lat="43.1473991973727" lon="-4.9204270262317">
        <ele>1018.39350891113</ele>
        <time>2018-08-28T12:10:25Z</time>
      </trkpt>
      <trkpt lat="43.1474627741083" lon="-4.92041839287143">
        <ele>1018.65437316895</ele>
        <time>2018-08-28T12:10:26Z</time>
      </trkpt>
      <trkpt lat="43.1475507421821" lon="-4.92037313059431">
        <ele>1015.82234191895</ele>
        <time>2018-08-28T12:10:28Z</time>
      </trkpt>
      <trkpt lat="43.1475917296886" lon="-4.92031236179631">
        <ele>1015.04475402832</ele>
        <time>2018-08-28T12:10:29Z</time>
      </trkpt>
      <trkpt lat="43.1476187613263" lon="-4.92024128325742">
        <ele>1015.21064758301</ele>
        <time>2018-08-28T12:10:30Z</time>
      </trkpt>
      <trkpt lat="43.1476434879407" lon="-4.92017447948914">
        <ele>1013.00593566895</ele>
        <time>2018-08-28T12:10:31Z</time>
      </trkpt>
      <trkpt lat="43.1477015326201" lon="-4.92007004097562">
        <ele>1009.55586242676</ele>
        <time>2018-08-28T12:10:32Z</time>
      </trkpt>
      <trkpt lat="43.1477199308976" lon="-4.91997834295493">
        <ele>1009.35639953613</ele>
        <time>2018-08-28T12:10:33Z</time>
      </trkpt>
      <trkpt lat="43.1477527460485" lon="-4.91991438903373">
        <ele>1008.30659484863</ele>
        <time>2018-08-28T12:10:34Z</time>
      </trkpt>
      <trkpt lat="43.147794865112" lon="-4.91988890804809">
        <ele>1005.90852355957</ele>
        <time>2018-08-28T12:10:36Z</time>
      </trkpt>
      <trkpt lat="43.1478057615861" lon="-4.91998781450551">
        <ele>1003.59541320801</ele>
        <time>2018-08-28T12:10:38Z</time>
      </trkpt>
      <trkpt lat="43.1478032051056" lon="-4.92005470209282">
        <ele>1001.64485168457</ele>
        <time>2018-08-28T12:10:39Z</time>
      </trkpt>
      <trkpt lat="43.1478034146532" lon="-4.92012871429782">
        <ele>1001.6763458252</ele>
        <time>2018-08-28T12:10:40Z</time>
      </trkpt>
      <trkpt lat="43.1478129700228" lon="-4.92024446838062">
        <ele>999.63313293457</ele>
        <time>2018-08-28T12:10:42Z</time>
      </trkpt>
      <trkpt lat="43.1478473777353" lon="-4.92031848058563">
        <ele>999.670852661133</ele>
        <time>2018-08-28T12:10:44Z</time>
      </trkpt>
      <trkpt lat="43.1479430990695" lon="-4.9203110206918">
        <ele>998.679397583008</ele>
        <time>2018-08-28T12:10:46Z</time>
      </trkpt>
      <trkpt lat="43.1480148900702" lon="-4.92028746754389">
        <ele>997.687942504883</ele>
        <time>2018-08-28T12:10:47Z</time>
      </trkpt>
      <trkpt lat="43.1480767904251" lon="-4.9202370084868">
        <ele>997.132034301758</ele>
        <time>2018-08-28T12:10:48Z</time>
      </trkpt>
      <trkpt lat="43.1481428398221" lon="-4.92013676092487">
        <ele>993.541946411133</ele>
        <time>2018-08-28T12:10:50Z</time>
      </trkpt>
      <trkpt lat="43.1481920835033" lon="-4.9200678616808">
        <ele>995.871658325195</ele>
        <time>2018-08-28T12:10:51Z</time>
      </trkpt>
      <trkpt lat="43.1482532713964" lon="-4.92000759579699">
        <ele>993.362991333008</ele>
        <time>2018-08-28T12:10:52Z</time>
      </trkpt>
      <trkpt lat="43.1483242242068" lon="-4.91995730437797">
        <ele>990.14192199707</ele>
        <time>2018-08-28T12:10:53Z</time>
      </trkpt>
      <trkpt lat="43.1483756052732" lon="-4.9199143052147">
        <ele>989.857986450195</ele>
        <time>2018-08-28T12:10:54Z</time>
      </trkpt>
      <trkpt lat="43.1485191872745" lon="-4.91999820806544">
        <ele>985.91828918457</ele>
        <time>2018-08-28T12:10:55Z</time>
      </trkpt>
      <trkpt lat="43.1486087898194" lon="-4.92002494633656">
        <ele>983.992141723633</ele>
        <time>2018-08-28T12:10:56Z</time>
      </trkpt>
      <trkpt lat="43.148717461194" lon="-4.92004632018965">
        <ele>984.136672973633</ele>
        <time>2018-08-28T12:10:57Z</time>
      </trkpt>
      <trkpt lat="43.1488060579106" lon="-4.92002754472654">
        <ele>984.467239379883</ele>
        <time>2018-08-28T12:10:58Z</time>
      </trkpt>
      <trkpt lat="43.1489012344211" lon="-4.92000633851152">
        <ele>979.969924926758</ele>
        <time>2018-08-28T12:11:00Z</time>
      </trkpt>
      <trkpt lat="43.1489629252284" lon="-4.91998496465843">
        <ele>976.78010559082</ele>
        <time>2018-08-28T12:11:01Z</time>
      </trkpt>
      <trkpt lat="43.1490461156174" lon="-4.9199486710177">
        <ele>974.097732543945</ele>
        <time>2018-08-28T12:11:02Z</time>
      </trkpt>
      <trkpt lat="43.1491173617944" lon="-4.91989578120869">
        <ele>971.086624145508</ele>
        <time>2018-08-28T12:11:03Z</time>
      </trkpt>
      <trkpt lat="43.149191667366" lon="-4.91984255612355">
        <ele>969.731399536133</ele>
        <time>2018-08-28T12:11:04Z</time>
      </trkpt>
      <trkpt lat="43.1492521847069" lon="-4.91977642290752">
        <ele>968.725784301758</ele>
        <time>2018-08-28T12:11:05Z</time>
      </trkpt>
      <trkpt lat="43.1493126182287" lon="-4.9197187554137">
        <ele>965.554763793945</ele>
        <time>2018-08-28T12:11:06Z</time>
      </trkpt>
      <trkpt lat="43.1493645441189" lon="-4.91964901797932">
        <ele>964.300857543945</ele>
        <time>2018-08-28T12:11:07Z</time>
      </trkpt>
      <trkpt lat="43.1494247680932" lon="-4.91957969964009">
        <ele>962.343948364258</ele>
        <time>2018-08-28T12:11:08Z</time>
      </trkpt>
      <trkpt lat="43.1494820164918" lon="-4.91950258613091">
        <ele>961.472610473633</ele>
        <time>2018-08-28T12:11:09Z</time>
      </trkpt>
      <trkpt lat="43.1495200703322" lon="-4.91942144930821">
        <ele>960.131912231445</ele>
        <time>2018-08-28T12:11:10Z</time>
      </trkpt>
      <trkpt lat="43.1495504966407" lon="-4.91935372353058">
        <ele>958.109085083008</ele>
        <time>2018-08-28T12:11:11Z</time>
      </trkpt>
      <trkpt lat="43.1496102177008" lon="-4.91924190894227">
        <ele>956.293167114258</ele>
        <time>2018-08-28T12:11:13Z</time>
      </trkpt>
      <trkpt lat="43.1496610539436" lon="-4.91922053508919">
        <ele>955.967727661133</ele>
        <time>2018-08-28T12:11:15Z</time>
      </trkpt>
      <trkpt lat="43.1496571563586" lon="-4.91931231692891">
        <ele>953.75715637207</ele>
        <time>2018-08-28T12:11:17Z</time>
      </trkpt>
      <trkpt lat="43.1496566115349" lon="-4.91939445958">
        <ele>953.349319458008</ele>
        <time>2018-08-28T12:11:18Z</time>
      </trkpt>
      <trkpt lat="43.1496481877222" lon="-4.91947542876463">
        <ele>953.075881958008</ele>
        <time>2018-08-28T12:11:19Z</time>
      </trkpt>
      <trkpt lat="43.1496431585803" lon="-4.91955882870119">
        <ele>952.199295043945</ele>
        <time>2018-08-28T12:11:20Z</time>
      </trkpt>
      <trkpt lat="43.1496258918598" lon="-4.91966930218499">
        <ele>951.860305786133</ele>
        <time>2018-08-28T12:11:21Z</time>
      </trkpt>
      <trkpt lat="43.1496124808147" lon="-4.91977474652689">
        <ele>952.118118286133</ele>
        <time>2018-08-28T12:11:22Z</time>
      </trkpt>
      <trkpt lat="43.14958431762" lon="-4.91987901740234">
        <ele>951.442825317383</ele>
        <time>2018-08-28T12:11:23Z</time>
      </trkpt>
      <trkpt lat="43.1495536398544" lon="-4.91998228244942">
        <ele>950.066848754883</ele>
        <time>2018-08-28T12:11:24Z</time>
      </trkpt>
      <trkpt lat="43.1495153764665" lon="-4.9200747348414">
        <ele>948.661819458008</ele>
        <time>2018-08-28T12:11:25Z</time>
      </trkpt>
      <trkpt lat="43.1494914461329" lon="-4.92016131990116">
        <ele>947.049514770508</ele>
        <time>2018-08-28T12:11:26Z</time>
      </trkpt>
      <trkpt lat="43.1494691502705" lon="-4.92023097351652">
        <ele>947.301712036133</ele>
        <time>2018-08-28T12:11:27Z</time>
      </trkpt>
      <trkpt lat="43.1494499976217" lon="-4.92029283196192">
        <ele>947.417678833008</ele>
        <time>2018-08-28T12:11:28Z</time>
      </trkpt>
      <trkpt lat="43.1494240975409" lon="-4.92034412920933">
        <ele>947.230911254883</ele>
        <time>2018-08-28T12:11:29Z</time>
      </trkpt>
      <trkpt lat="43.1494147098094" lon="-4.9204323068307">
        <ele>946.519729614258</ele>
        <time>2018-08-28T12:11:31Z</time>
      </trkpt>
      <trkpt lat="43.1494351616531" lon="-4.92052760906976">
        <ele>946.11994934082</ele>
        <time>2018-08-28T12:11:33Z</time>
      </trkpt>
      <trkpt lat="43.149491613771" lon="-4.92053900845807">
        <ele>943.226516723633</ele>
        <time>2018-08-28T12:11:35Z</time>
      </trkpt>
      <trkpt lat="43.1495504128217" lon="-4.92046876810949">
        <ele>944.432083129883</ele>
        <time>2018-08-28T12:11:37Z</time>
      </trkpt>
      <trkpt lat="43.1495916517853" lon="-4.92036600597661">
        <ele>943.197952270508</ele>
        <time>2018-08-28T12:11:39Z</time>
      </trkpt>
      <trkpt lat="43.1496177195042" lon="-4.9202594719873">
        <ele>941.74055480957</ele>
        <time>2018-08-28T12:11:41Z</time>
      </trkpt>
      <trkpt lat="43.1496443320468" lon="-4.92020691745441">
        <ele>941.152786254883</ele>
        <time>2018-08-28T12:11:42Z</time>
      </trkpt>
      <trkpt lat="43.149682050611" lon="-4.92016123608213">
        <ele>940.711624145508</ele>
        <time>2018-08-28T12:11:43Z</time>
      </trkpt>
      <trkpt lat="43.1497198110848" lon="-4.920115973805">
        <ele>940.055374145508</ele>
        <time>2018-08-28T12:11:44Z</time>
      </trkpt>
      <trkpt lat="43.149764025624" lon="-4.92005319335025">
        <ele>939.816604614258</ele>
        <time>2018-08-28T12:11:45Z</time>
      </trkpt>
      <trkpt lat="43.1498110900104" lon="-4.91998152807813">
        <ele>939.151321411133</ele>
        <time>2018-08-28T12:11:46Z</time>
      </trkpt>
      <trkpt lat="43.1498634769052" lon="-4.9199069291399">
        <ele>937.683059692383</ele>
        <time>2018-08-28T12:11:47Z</time>
      </trkpt>
      <trkpt lat="43.149915947619" lon="-4.91983325221103">
        <ele>936.181594848633</ele>
        <time>2018-08-28T12:11:48Z</time>
      </trkpt>
      <trkpt lat="43.1499696756184" lon="-4.91976686753791">
        <ele>935.608108520508</ele>
        <time>2018-08-28T12:11:49Z</time>
      </trkpt>
      <trkpt lat="43.1500237808033" lon="-4.91971045732956">
        <ele>934.976760864258</ele>
        <time>2018-08-28T12:11:50Z</time>
      </trkpt>
      <trkpt lat="43.1500724377512" lon="-4.91964876652222">
        <ele>934.398391723633</ele>
        <time>2018-08-28T12:11:51Z</time>
      </trkpt>
      <trkpt lat="43.1501220167085" lon="-4.91957793944042">
        <ele>934.813186645508</ele>
        <time>2018-08-28T12:11:52Z</time>
      </trkpt>
      <trkpt lat="43.1502039079025" lon="-4.9195099622057">
        <ele>934.639358520508</ele>
        <time>2018-08-28T12:11:53Z</time>
      </trkpt>
      <trkpt lat="43.1502442248567" lon="-4.91946310736697">
        <ele>934.933059692383</ele>
        <time>2018-08-28T12:11:54Z</time>
      </trkpt>
      <trkpt lat="43.1502760341793" lon="-4.91935129277866">
        <ele>932.169143676758</ele>
        <time>2018-08-28T12:11:56Z</time>
      </trkpt>
      <trkpt lat="43.1503131241008" lon="-4.9192699883179">
        <ele>930.385208129883</ele>
        <time>2018-08-28T12:11:57Z</time>
      </trkpt>
      <trkpt lat="43.1503388565436" lon="-4.91918608546715">
        <ele>928.634963989258</ele>
        <time>2018-08-28T12:11:58Z</time>
      </trkpt>
      <trkpt lat="43.1503680674761" lon="-4.91911358200472">
        <ele>927.115432739258</ele>
        <time>2018-08-28T12:11:59Z</time>
      </trkpt>
      <trkpt lat="43.1504041515693" lon="-4.91904870607417">
        <ele>925.168533325195</ele>
        <time>2018-08-28T12:12:00Z</time>
      </trkpt>
      <trkpt lat="43.150428668636" lon="-4.91899045184713">
        <ele>924.254348754883</ele>
        <time>2018-08-28T12:12:01Z</time>
      </trkpt>
      <trkpt lat="43.1504557840928" lon="-4.91892700084012">
        <ele>922.972366333008</ele>
        <time>2018-08-28T12:12:02Z</time>
      </trkpt>
      <trkpt lat="43.1504917424574" lon="-4.9188539944635">
        <ele>921.920852661133</ele>
        <time>2018-08-28T12:12:03Z</time>
      </trkpt>
      <trkpt lat="43.1505242642417" lon="-4.91876087151926">
        <ele>920.081008911133</ele>
        <time>2018-08-28T12:12:04Z</time>
      </trkpt>
      <trkpt lat="43.1505693169713" lon="-4.91868719459038">
        <ele>919.362503051758</ele>
        <time>2018-08-28T12:12:05Z</time>
      </trkpt>
      <trkpt lat="43.1506287446647" lon="-4.91862785071593">
        <ele>919.286209106445</ele>
        <time>2018-08-28T12:12:06Z</time>
      </trkpt>
      <trkpt lat="43.1506758509606" lon="-4.91857646964948">
        <ele>919.030838012695</ele>
        <time>2018-08-28T12:12:07Z</time>
      </trkpt>
      <trkpt lat="43.1507347757399" lon="-4.91851603612762">
        <ele>918.39192199707</ele>
        <time>2018-08-28T12:12:09Z</time>
      </trkpt>
      <trkpt lat="43.1507924432337" lon="-4.91852944717269">
        <ele>916.564163208008</ele>
        <time>2018-08-28T12:12:12Z</time>
      </trkpt>
      <trkpt lat="43.1513638375729" lon="-4.91795931011896">
        <ele>917.17170715332</ele>
        <time>2018-09-02T11:20:46Z</time>
      </trkpt>
      <trkpt lat="43.1513620773732" lon="-4.91789619438808">
        <ele>917.17170715332</ele>
        <time>2018-09-02T11:20:54Z</time>
      </trkpt>
      <trkpt lat="43.1513920426771" lon="-4.91783894598942">
        <ele>917.17170715332</ele>
        <time>2018-09-02T11:20:56Z</time>
      </trkpt>
      <trkpt lat="43.1514272885799" lon="-4.91777197458308">
        <ele>917.17170715332</ele>
        <time>2018-09-02T11:20:58Z</time>
      </trkpt>
      <trkpt lat="43.1514077587455" lon="-4.91769519635003">
        <ele>917.17170715332</ele>
        <time>2018-09-02T11:21:00Z</time>
      </trkpt>
      <trkpt lat="43.1513439305529" lon="-4.91764096543651">
        <ele>917.17170715332</ele>
        <time>2018-09-02T11:21:02Z</time>
      </trkpt>
      <trkpt lat="43.1512723490998" lon="-4.91759142838876">
        <ele>917.17170715332</ele>
        <time>2018-09-02T11:21:04Z</time>
      </trkpt>
      <trkpt lat="43.1512046233221" lon="-4.91754759103518">
        <ele>917.17170715332</ele>
        <time>2018-09-02T11:21:06Z</time>
      </trkpt>
      <trkpt lat="43.1511410046771" lon="-4.91751238704186">
        <ele>917.17170715332</ele>
        <time>2018-09-02T11:21:08Z</time>
      </trkpt>
      <trkpt lat="43.1510854745686" lon="-4.91748154163819">
        <ele>917.17170715332</ele>
        <time>2018-09-02T11:21:10Z</time>
      </trkpt>
      <trkpt lat="43.1510200957238" lon="-4.91744935513001">
        <ele>917.17170715332</ele>
        <time>2018-09-02T11:21:12Z</time>
      </trkpt>
      <trkpt lat="43.1509482209041" lon="-4.91742177866857">
        <ele>917.114212036133</ele>
        <time>2018-09-02T11:21:14Z</time>
      </trkpt>
      <trkpt lat="43.1508757174417" lon="-4.91739931516807">
        <ele>916.97053527832</ele>
        <time>2018-09-02T11:21:16Z</time>
      </trkpt>
      <trkpt lat="43.1508027110651" lon="-4.91737517528694">
        <ele>917.265823364258</ele>
        <time>2018-09-02T11:21:18Z</time>
      </trkpt>
      <trkpt lat="43.150728447403" lon="-4.91734122857909">
        <ele>917.588088989258</ele>
        <time>2018-09-02T11:21:20Z</time>
      </trkpt>
      <trkpt lat="43.1506539741933" lon="-4.91729898378711">
        <ele>917.369583129883</ele>
        <time>2018-09-02T11:21:22Z</time>
      </trkpt>
      <trkpt lat="43.1505803391739" lon="-4.9172527156816">
        <ele>917.952102661133</ele>
        <time>2018-09-02T11:21:24Z</time>
      </trkpt>
      <trkpt lat="43.1505088415399" lon="-4.91720041260581">
        <ele>917.376663208008</ele>
        <time>2018-09-02T11:21:26Z</time>
      </trkpt>
      <trkpt lat="43.1504339073255" lon="-4.91715372540515">
        <ele>917.899612426758</ele>
        <time>2018-09-02T11:21:28Z</time>
      </trkpt>
      <trkpt lat="43.1503593083873" lon="-4.91711558774572">
        <ele>918.741165161133</ele>
        <time>2018-09-02T11:21:30Z</time>
      </trkpt>
      <trkpt lat="43.150295186828" lon="-4.91707870737176">
        <ele>918.096389770508</ele>
        <time>2018-09-02T11:21:32Z</time>
      </trkpt>
      <trkpt lat="43.1502312329068" lon="-4.91703453474205">
        <ele>917.984451293945</ele>
        <time>2018-09-02T11:21:34Z</time>
      </trkpt>
      <trkpt lat="43.1501653511479" lon="-4.91698189639013">
        <ele>918.975540161133</ele>
        <time>2018-09-02T11:21:36Z</time>
      </trkpt>
      <trkpt lat="43.1501006428554" lon="-4.91692079231601">
        <ele>920.510208129883</ele>
        <time>2018-09-02T11:21:38Z</time>
      </trkpt>
      <trkpt lat="43.1500429334521" lon="-4.91685172543388">
        <ele>920.15022277832</ele>
        <time>2018-09-02T11:21:40Z</time>
      </trkpt>
      <trkpt lat="43.1499931030377" lon="-4.91677955724757">
        <ele>919.846145629883</ele>
        <time>2018-09-02T11:21:42Z</time>
      </trkpt>
      <trkpt lat="43.1499499362364" lon="-4.91669758223455">
        <ele>919.933059692383</ele>
        <time>2018-09-02T11:21:44Z</time>
      </trkpt>
      <trkpt lat="43.1499153608858" lon="-4.91660655476611">
        <ele>921.354934692383</ele>
        <time>2018-09-02T11:21:46Z</time>
      </trkpt>
      <trkpt lat="43.1498847250297" lon="-4.91651619784992">
        <ele>922.048049926758</ele>
        <time>2018-09-02T11:21:48Z</time>
      </trkpt>
      <trkpt lat="43.1498514069646" lon="-4.91642525420051">
        <ele>922.763381958008</ele>
        <time>2018-09-02T11:21:50Z</time>
      </trkpt>
      <trkpt lat="43.1498188432708" lon="-4.91634168662589">
        <ele>923.891067504883</ele>
        <time>2018-09-02T11:21:52Z</time>
      </trkpt>
      <trkpt lat="43.1498017022788" lon="-4.91625736467998">
        <ele>924.152053833008</ele>
        <time>2018-09-02T11:21:54Z</time>
      </trkpt>
      <trkpt lat="43.1497839326441" lon="-4.91617287509601">
        <ele>925.098831176758</ele>
        <time>2018-09-02T11:21:56Z</time>
      </trkpt>
      <trkpt lat="43.1497491058364" lon="-4.9160922411875">
        <ele>924.658157348633</ele>
        <time>2018-09-02T11:21:58Z</time>
      </trkpt>
      <trkpt lat="43.1497092498868" lon="-4.91601780988734">
        <ele>926.567581176758</ele>
        <time>2018-09-02T11:22:00Z</time>
      </trkpt>
      <trkpt lat="43.149668639566" lon="-4.91594153456848">
        <ele>927.456253051758</ele>
        <time>2018-09-02T11:22:02Z</time>
      </trkpt>
      <trkpt lat="43.1496262690454" lon="-4.91586484015446">
        <ele>928.00276184082</ele>
        <time>2018-09-02T11:22:04Z</time>
      </trkpt>
      <trkpt lat="43.1495869579195" lon="-4.91578864865463">
        <ele>928.687698364258</ele>
        <time>2018-09-02T11:22:06Z</time>
      </trkpt>
      <trkpt lat="43.1495478144317" lon="-4.91571614519219">
        <ele>928.902053833008</ele>
        <time>2018-09-02T11:22:08Z</time>
      </trkpt>
      <trkpt lat="43.1495120656147" lon="-4.91564950906198">
        <ele>929.489212036133</ele>
        <time>2018-09-02T11:22:10Z</time>
      </trkpt>
      <trkpt lat="43.1494701980084" lon="-4.91557943635147">
        <ele>930.510696411133</ele>
        <time>2018-09-02T11:22:12Z</time>
      </trkpt>
      <trkpt lat="43.1494277436688" lon="-4.91551749408703">
        <ele>930.877639770508</ele>
        <time>2018-09-02T11:22:14Z</time>
      </trkpt>
      <trkpt lat="43.1493849540531" lon="-4.91546175443094">
        <ele>931.182327270508</ele>
        <time>2018-09-02T11:22:16Z</time>
      </trkpt>
      <trkpt lat="43.1493387697666" lon="-4.91541121155481">
        <ele>932.248977661133</ele>
        <time>2018-09-02T11:22:18Z</time>
      </trkpt>
      <trkpt lat="43.1492852513149" lon="-4.91536485963027">
        <ele>932.674514770508</ele>
        <time>2018-09-02T11:22:20Z</time>
      </trkpt>
      <trkpt lat="43.149229930754" lon="-4.91531691514413">
        <ele>933.221145629883</ele>
        <time>2018-09-02T11:22:22Z</time>
      </trkpt>
      <trkpt lat="43.1491650967329" lon="-4.91526486352544">
        <ele>932.903030395508</ele>
        <time>2018-09-02T11:22:24Z</time>
      </trkpt>
      <trkpt lat="43.1491020229116" lon="-4.91522714496117">
        <ele>932.557327270508</ele>
        <time>2018-09-02T11:22:26Z</time>
      </trkpt>
      <trkpt lat="43.1490330398485" lon="-4.91518506780725">
        <ele>932.54963684082</ele>
        <time>2018-09-02T11:22:28Z</time>
      </trkpt>
      <trkpt lat="43.1489685411035" lon="-4.91514257155817">
        <ele>932.57893371582</ele>
        <time>2018-09-02T11:22:30Z</time>
      </trkpt>
      <trkpt lat="43.1489171181276" lon="-4.91511583328705">
        <ele>932.908645629883</ele>
        <time>2018-09-02T11:22:32Z</time>
      </trkpt>
      <trkpt lat="43.1488634739473" lon="-4.91509479471009">
        <ele>933.395706176758</ele>
        <time>2018-09-02T11:22:34Z</time>
      </trkpt>
      <trkpt lat="43.1487998553022" lon="-4.91505565122228">
        <ele>934.575637817383</ele>
        <time>2018-09-02T11:22:36Z</time>
      </trkpt>
      <trkpt lat="43.1487245439022" lon="-4.91501298733513">
        <ele>935.497024536133</ele>
        <time>2018-09-02T11:22:38Z</time>
      </trkpt>
      <trkpt lat="43.1486524176254" lon="-4.91498532705467">
        <ele>935.874954223633</ele>
        <time>2018-09-02T11:22:40Z</time>
      </trkpt>
      <trkpt lat="43.1485842727527" lon="-4.91497191600959">
        <ele>936.04182434082</ele>
        <time>2018-09-02T11:22:42Z</time>
      </trkpt>
      <trkpt lat="43.1485142838612" lon="-4.91495255381327">
        <ele>935.755325317383</ele>
        <time>2018-09-02T11:22:44Z</time>
      </trkpt>
      <trkpt lat="43.148445049341" lon="-4.91492187604766">
        <ele>935.908401489258</ele>
        <time>2018-09-02T11:22:46Z</time>
      </trkpt>
      <trkpt lat="43.1483802572295" lon="-4.91488432512145">
        <ele>936.101272583008</ele>
        <time>2018-09-02T11:22:48Z</time>
      </trkpt>
      <trkpt lat="43.1483144592896" lon="-4.91484677419524">
        <ele>935.605178833008</ele>
        <time>2018-09-02T11:22:50Z</time>
      </trkpt>
      <trkpt lat="43.1482442608505" lon="-4.91482095793347">
        <ele>935.623733520508</ele>
        <time>2018-09-02T11:22:52Z</time>
      </trkpt>
      <trkpt lat="43.1481691589981" lon="-4.91478835233014">
        <ele>935.506057739258</ele>
        <time>2018-09-02T11:22:54Z</time>
      </trkpt>
      <trkpt lat="43.1481080968335" lon="-4.9147644639061">
        <ele>936.361892700195</ele>
        <time>2018-09-02T11:22:55Z</time>
      </trkpt>
      <trkpt lat="43.1480555423006" lon="-4.91474744864266">
        <ele>937.157180786133</ele>
        <time>2018-09-02T11:22:56Z</time>
      </trkpt>
      <trkpt lat="43.1480020238488" lon="-4.9147314392076">
        <ele>937.450637817383</ele>
        <time>2018-09-02T11:22:57Z</time>
      </trkpt>
      <trkpt lat="43.1479283050104" lon="-4.91468517110209">
        <ele>939.263259887695</ele>
        <time>2018-09-02T11:22:58Z</time>
      </trkpt>
      <trkpt lat="43.1479032012104" lon="-4.91462750360827">
        <ele>939.11604309082</ele>
        <time>2018-09-02T11:22:59Z</time>
      </trkpt>
      <trkpt lat="43.1478669075697" lon="-4.91458232515018">
        <ele>939.480422973633</ele>
        <time>2018-09-02T11:23:00Z</time>
      </trkpt>
      <trkpt lat="43.147838492918" lon="-4.91453438066404">
        <ele>940.11457824707</ele>
        <time>2018-09-02T11:23:02Z</time>
      </trkpt>
      <trkpt lat="43.1477745809063" lon="-4.91448861547272">
        <ele>940.416213989258</ele>
        <time>2018-09-02T11:23:04Z</time>
      </trkpt>
      <trkpt lat="43.1477115909039" lon="-4.91442700848441">
        <ele>940.650100708008</ele>
        <time>2018-09-02T11:23:06Z</time>
      </trkpt>
      <trkpt lat="43.1476565218001" lon="-4.91440982558291">
        <ele>940.544387817383</ele>
        <time>2018-09-02T11:23:08Z</time>
      </trkpt>
      <trkpt lat="43.1476008240535" lon="-4.91437545977991">
        <ele>941.889846801758</ele>
        <time>2018-09-02T11:23:10Z</time>
      </trkpt>
      <trkpt lat="43.1475383788749" lon="-4.91430396214585">
        <ele>940.949905395508</ele>
        <time>2018-09-02T11:23:12Z</time>
      </trkpt>
      <trkpt lat="43.1474906020268" lon="-4.91426406428676">
        <ele>941.583206176758</ele>
        <time>2018-09-02T11:23:14Z</time>
      </trkpt>
      <trkpt lat="43.1474520871818" lon="-4.91421653889577">
        <ele>942.150100708008</ele>
        <time>2018-09-02T11:23:17Z</time>
      </trkpt>
      <trkpt lat="43.1474491116061" lon="-4.91414889693718">
        <ele>945.256057739258</ele>
        <time>2018-09-02T11:25:33Z</time>
      </trkpt>
      <trkpt lat="43.1474240916252" lon="-4.91408159025471">
        <ele>945.087112426758</ele>
        <time>2018-09-02T11:25:36Z</time>
      </trkpt>
      <trkpt lat="43.1473637000128" lon="-4.91399358027141">
        <ele>945.374465942383</ele>
        <time>2018-09-02T11:25:38Z</time>
      </trkpt>
      <trkpt lat="43.1473091338232" lon="-4.91389676928978">
        <ele>946.277786254883</ele>
        <time>2018-09-02T11:25:40Z</time>
      </trkpt>
      <trkpt lat="43.1472796714335" lon="-4.91378931329112">
        <ele>945.720779418945</ele>
        <time>2018-09-02T11:25:42Z</time>
      </trkpt>
      <trkpt lat="43.147259806323" lon="-4.91368428804438">
        <ele>946.002517700195</ele>
        <time>2018-09-02T11:25:44Z</time>
      </trkpt>
      <trkpt lat="43.147233487147" lon="-4.91358194500665">
        <ele>945.76203918457</ele>
        <time>2018-09-02T11:25:46Z</time>
      </trkpt>
      <trkpt lat="43.1471919548168" lon="-4.91348396055858">
        <ele>945.992752075195</ele>
        <time>2018-09-02T11:25:48Z</time>
      </trkpt>
      <trkpt lat="43.147151344496" lon="-4.9133981298701">
        <ele>945.325637817383</ele>
        <time>2018-09-02T11:25:50Z</time>
      </trkpt>
      <trkpt lat="43.147103819105" lon="-4.91331472993355">
        <ele>947.543655395508</ele>
        <time>2018-09-02T11:25:52Z</time>
      </trkpt>
      <trkpt lat="43.1470580120041" lon="-4.91322387010317">
        <ele>948.530960083008</ele>
        <time>2018-09-02T11:25:54Z</time>
      </trkpt>
      <trkpt lat="43.1470268732339" lon="-4.91314130835693">
        <ele>949.285110473633</ele>
        <time>2018-09-02T11:25:56Z</time>
      </trkpt>
      <trkpt lat="43.1470013503387" lon="-4.91303938441436">
        <ele>950.413284301758</ele>
        <time>2018-09-02T11:25:58Z</time>
      </trkpt>
      <trkpt lat="43.1469658110693" lon="-4.91294642910819">
        <ele>950.556350708008</ele>
        <time>2018-09-02T11:26:00Z</time>
      </trkpt>
      <trkpt lat="43.1469147233694" lon="-4.91286411881904">
        <ele>950.200149536133</ele>
        <time>2018-09-02T11:26:02Z</time>
      </trkpt>
      <trkpt lat="43.1468531582906" lon="-4.91278113797765">
        <ele>951.402542114258</ele>
        <time>2018-09-02T11:26:04Z</time>
      </trkpt>
      <trkpt lat="43.1468204269587" lon="-4.9127387255476">
        <ele>951.815505981445</ele>
        <time>2018-09-02T11:26:05Z</time>
      </trkpt>
      <trkpt lat="43.1467621308222" lon="-4.9126539006875">
        <ele>952.556838989258</ele>
        <time>2018-09-02T11:26:07Z</time>
      </trkpt>
      <trkpt lat="43.1467245379865" lon="-4.91258156486313">
        <ele>952.260208129883</ele>
        <time>2018-09-02T11:26:09Z</time>
      </trkpt>
      <trkpt lat="43.1466894178122" lon="-4.91249741055529">
        <ele>951.510330200195</ele>
        <time>2018-09-02T11:26:11Z</time>
      </trkpt>
      <trkpt lat="43.1466770964145" lon="-4.9123951513366">
        <ele>951.940872192383</ele>
        <time>2018-09-02T11:26:13Z</time>
      </trkpt>
      <trkpt lat="43.1466802396282" lon="-4.91227956489186">
        <ele>952.656936645508</ele>
        <time>2018-09-02T11:26:15Z</time>
      </trkpt>
      <trkpt lat="43.1467081513658" lon="-4.91217889823477">
        <ele>954.20930480957</ele>
        <time>2018-09-02T11:26:17Z</time>
      </trkpt>
      <trkpt lat="43.1467420142546" lon="-4.91208577529053">
        <ele>954.913284301758</ele>
        <time>2018-09-02T11:26:19Z</time>
      </trkpt>
      <trkpt lat="43.1467756675958" lon="-4.91200773977201">
        <ele>953.178421020508</ele>
        <time>2018-09-02T11:26:21Z</time>
      </trkpt>
      <trkpt lat="43.1467915093928" lon="-4.91191444918971">
        <ele>953.601272583008</ele>
        <time>2018-09-02T11:26:23Z</time>
      </trkpt>
      <trkpt lat="43.1467999332055" lon="-4.91182627156834">
        <ele>953.995071411133</ele>
        <time>2018-09-02T11:26:25Z</time>
      </trkpt>
      <trkpt lat="43.1468206365063" lon="-4.91173583083312">
        <ele>955.253494262695</ele>
        <time>2018-09-02T11:26:27Z</time>
      </trkpt>
      <trkpt lat="43.1468319101661" lon="-4.91165243089656">
        <ele>955.514114379883</ele>
        <time>2018-09-02T11:26:29Z</time>
      </trkpt>
      <trkpt lat="43.1468291860476" lon="-4.91156986915033">
        <ele>955.579055786133</ele>
        <time>2018-09-02T11:26:31Z</time>
      </trkpt>
      <trkpt lat="43.1468108715891" lon="-4.91147951223414">
        <ele>956.920364379883</ele>
        <time>2018-09-02T11:26:33Z</time>
      </trkpt>
      <trkpt lat="43.1467797747284" lon="-4.91138563491861">
        <ele>957.641189575195</ele>
        <time>2018-09-02T11:26:35Z</time>
      </trkpt>
      <trkpt lat="43.1467454927444" lon="-4.91129871458273">
        <ele>958.598831176758</ele>
        <time>2018-09-02T11:26:37Z</time>
      </trkpt>
      <trkpt lat="43.1467151921644" lon="-4.91121849976937">
        <ele>959.722244262695</ele>
        <time>2018-09-02T11:26:39Z</time>
      </trkpt>
      <trkpt lat="43.1466924772068" lon="-4.91115110926788">
        <ele>961.50813293457</ele>
        <time>2018-09-02T11:26:41Z</time>
      </trkpt>
      <trkpt lat="43.1466656970262" lon="-4.91108296439509">
        <ele>964.023635864258</ele>
        <time>2018-09-02T11:26:43Z</time>
      </trkpt>
      <trkpt lat="43.1466382462933" lon="-4.91100945510428">
        <ele>963.840286254883</ele>
        <time>2018-09-02T11:26:45Z</time>
      </trkpt>
      <trkpt lat="43.1466142740502" lon="-4.91094022058408">
        <ele>963.704544067383</ele>
        <time>2018-09-02T11:26:47Z</time>
      </trkpt>
      <trkpt lat="43.1465872424125" lon="-4.91086930968325">
        <ele>964.427688598633</ele>
        <time>2018-09-02T11:26:49Z</time>
      </trkpt>
      <trkpt lat="43.1465513678669" lon="-4.91079848260145">
        <ele>964.408889770508</ele>
        <time>2018-09-02T11:26:51Z</time>
      </trkpt>
      <trkpt lat="43.1465063151374" lon="-4.91072773933868">
        <ele>963.771072387695</ele>
        <time>2018-09-02T11:26:53Z</time>
      </trkpt>
      <trkpt lat="43.146452335681" lon="-4.9106556549714">
        <ele>964.15412902832</ele>
        <time>2018-09-02T11:26:55Z</time>
      </trkpt>
      <trkpt lat="43.146387753117" lon="-4.9105887673841">
        <ele>964.178787231445</ele>
        <time>2018-09-02T11:26:57Z</time>
      </trkpt>
      <trkpt lat="43.1463155430212" lon="-4.91052707657675">
        <ele>964.707107543945</ele>
        <time>2018-09-02T11:26:59Z</time>
      </trkpt>
      <trkpt lat="43.1462460151344" lon="-4.91046974435906">
        <ele>965.443069458008</ele>
        <time>2018-09-02T11:27:01Z</time>
      </trkpt>
      <trkpt lat="43.1461794209137" lon="-4.91041735746424">
        <ele>965.331253051758</ele>
        <time>2018-09-02T11:27:03Z</time>
      </trkpt>
      <trkpt lat="43.146114042069" lon="-4.91036321036975">
        <ele>966.650588989258</ele>
        <time>2018-09-02T11:27:05Z</time>
      </trkpt>
      <trkpt lat="43.1460560812085" lon="-4.91030587815206">
        <ele>968.333938598633</ele>
        <time>2018-09-02T11:27:07Z</time>
      </trkpt>
      <trkpt lat="43.1460133754119" lon="-4.91024921648662">
        <ele>968.38362121582</ele>
        <time>2018-09-02T11:27:09Z</time>
      </trkpt>
      <trkpt lat="43.1459732260957" lon="-4.91018936969797">
        <ele>969.047073364258</ele>
        <time>2018-09-02T11:27:11Z</time>
      </trkpt>
      <trkpt lat="43.1459366390883" lon="-4.91013153456609">
        <ele>970.184524536133</ele>
        <time>2018-09-02T11:27:13Z</time>
      </trkpt>
      <trkpt lat="43.1459077215224" lon="-4.91008115932803">
        <ele>971.750198364258</ele>
        <time>2018-09-02T11:27:15Z</time>
      </trkpt>
      <trkpt lat="43.1458787620469" lon="-4.91002860479514">
        <ele>973.61116027832</ele>
        <time>2018-09-02T11:27:17Z</time>
      </trkpt>
      <trkpt lat="43.1458496349334" lon="-4.90997361951034">
        <ele>975.045974731445</ele>
        <time>2018-09-02T11:27:19Z</time>
      </trkpt>
      <trkpt lat="43.1458190409868" lon="-4.90991779603521">
        <ele>975.86555480957</ele>
        <time>2018-09-02T11:27:21Z</time>
      </trkpt>
      <trkpt lat="43.1457900396019" lon="-4.90986130200784">
        <ele>976.561599731445</ele>
        <time>2018-09-02T11:27:23Z</time>
      </trkpt>
      <trkpt lat="43.1457577692747" lon="-4.90980665199916">
        <ele>978.345779418945</ele>
        <time>2018-09-02T11:27:25Z</time>
      </trkpt>
      <trkpt lat="43.1457196316152" lon="-4.90975552238981">
        <ele>978.277542114258</ele>
        <time>2018-09-02T11:27:27Z</time>
      </trkpt>
      <trkpt lat="43.1456809491321" lon="-4.90970481187562">
        <ele>978.50471496582</ele>
        <time>2018-09-02T11:27:29Z</time>
      </trkpt>
      <trkpt lat="43.1456443621247" lon="-4.90965217352371">
        <ele>980.545120239258</ele>
        <time>2018-09-02T11:27:31Z</time>
      </trkpt>
      <trkpt lat="43.1456124689832" lon="-4.90960557014207">
        <ele>981.718704223633</ele>
        <time>2018-09-02T11:27:33Z</time>
      </trkpt>
      <trkpt lat="43.1455620518356" lon="-4.90955427289466">
        <ele>980.180740356445</ele>
        <time>2018-09-02T11:27:36Z</time>
      </trkpt>
      <trkpt lat="43.1455170410156" lon="-4.90948445164124">
        <ele>981.404373168945</ele>
        <time>2018-09-02T11:27:39Z</time>
      </trkpt>
      <trkpt lat="43.1454864889785" lon="-4.90942628123323">
        <ele>981.951614379883</ele>
        <time>2018-09-02T11:27:41Z</time>
      </trkpt>
      <trkpt lat="43.1454469263955" lon="-4.90936769173006">
        <ele>980.862380981445</ele>
        <time>2018-09-02T11:27:43Z</time>
      </trkpt>
      <trkpt lat="43.1454092497408" lon="-4.9093260336713">
        <ele>980.824783325195</ele>
        <time>2018-09-02T11:27:45Z</time>
      </trkpt>
      <trkpt lat="43.1453659991204" lon="-4.9092951044486">
        <ele>981.146072387695</ele>
        <time>2018-09-02T11:27:47Z</time>
      </trkpt>
      <trkpt lat="43.1453237124189" lon="-4.90926065482656">
        <ele>982.437576293945</ele>
        <time>2018-09-02T11:27:49Z</time>
      </trkpt>
      <trkpt lat="43.1452912325441" lon="-4.90921572782556">
        <ele>983.729202270508</ele>
        <time>2018-09-02T11:27:51Z</time>
      </trkpt>
      <trkpt lat="43.1452564057365" lon="-4.90916082635979">
        <ele>984.16291809082</ele>
        <time>2018-09-02T11:27:53Z</time>
      </trkpt>
      <trkpt lat="43.1452212855622" lon="-4.90911288187365">
        <ele>985.380447387695</ele>
        <time>2018-09-02T11:27:55Z</time>
      </trkpt>
      <trkpt lat="43.1451838603645" lon="-4.90907063708166">
        <ele>985.713455200195</ele>
        <time>2018-09-02T11:27:57Z</time>
      </trkpt>
      <trkpt lat="43.1451348681405" lon="-4.90901095793108">
        <ele>985.84700012207</ele>
        <time>2018-09-02T11:28:00Z</time>
      </trkpt>
      <trkpt lat="43.1450871332019" lon="-4.90895136259953">
        <ele>986.29035949707</ele>
        <time>2018-09-02T11:28:03Z</time>
      </trkpt>
      <trkpt lat="43.1450415775582" lon="-4.90888841450672">
        <ele>986.52912902832</ele>
        <time>2018-09-02T11:28:06Z</time>
      </trkpt>
      <trkpt lat="43.1450059963792" lon="-4.90884675644795">
        <ele>987.800247192383</ele>
        <time>2018-09-02T11:28:08Z</time>
      </trkpt>
      <trkpt lat="43.1449714210286" lon="-4.90879990160922">
        <ele>988.593215942383</ele>
        <time>2018-09-02T11:28:10Z</time>
      </trkpt>
      <trkpt lat="43.1449408689916" lon="-4.90875145420889">
        <ele>989.377639770508</ele>
        <time>2018-09-02T11:28:12Z</time>
      </trkpt>
      <trkpt lat="43.1449113646924" lon="-4.90870200098018">
        <ele>989.592971801758</ele>
        <time>2018-09-02T11:28:14Z</time>
      </trkpt>
      <trkpt lat="43.1448831595882" lon="-4.90864869207601">
        <ele>990.62434387207</ele>
        <time>2018-09-02T11:28:16Z</time>
      </trkpt>
      <trkpt lat="43.1448556669458" lon="-4.90859102458219">
        <ele>991.508377075195</ele>
        <time>2018-09-02T11:28:18Z</time>
      </trkpt>
      <trkpt lat="43.1448246119946" lon="-4.90851634182493">
        <ele>993.05207824707</ele>
        <time>2018-09-02T11:28:21Z</time>
      </trkpt>
      <trkpt lat="43.1448004302039" lon="-4.90843780339221">
        <ele>994.242263793945</ele>
        <time>2018-09-02T11:28:24Z</time>
      </trkpt>
      <trkpt lat="43.144782157655" lon="-4.90835784003596">
        <ele>995.52326965332</ele>
        <time>2018-09-02T11:28:27Z</time>
      </trkpt>
      <trkpt lat="43.1447624601826" lon="-4.90827502683262">
        <ele>996.756546020508</ele>
        <time>2018-09-02T11:28:30Z</time>
      </trkpt>
      <trkpt lat="43.1447427208006" lon="-4.90818902850608">
        <ele>997.616165161133</ele>
        <time>2018-09-02T11:28:33Z</time>
      </trkpt>
      <trkpt lat="43.1447296450316" lon="-4.90812976845066">
        <ele>998.873977661133</ele>
        <time>2018-09-02T11:28:35Z</time>
      </trkpt>
      <trkpt lat="43.144721221219" lon="-4.90804301575283">
        <ele>1000.07466125488</ele>
        <time>2018-09-02T11:28:38Z</time>
      </trkpt>
      <trkpt lat="43.1447312375932" lon="-4.9079705122904">
        <ele>1000.82124328613</ele>
        <time>2018-09-02T11:28:41Z</time>
      </trkpt>
      <trkpt lat="43.1447500130563" lon="-4.907898092647">
        <ele>1003.02326965332</ele>
        <time>2018-09-02T11:28:44Z</time>
      </trkpt>
      <trkpt lat="43.1447437685385" lon="-4.90781460889141">
        <ele>1004.9605255127</ele>
        <time>2018-09-02T11:28:47Z</time>
      </trkpt>
      <trkpt lat="43.144745109643" lon="-4.90773732774417">
        <ele>1006.54194641113</ele>
        <time>2018-09-02T11:28:50Z</time>
      </trkpt>
      <trkpt lat="43.1447537010937" lon="-4.90766071714918">
        <ele>1007.73115539551</ele>
        <time>2018-09-02T11:28:53Z</time>
      </trkpt>
      <trkpt lat="43.14475835305" lon="-4.90758100525002">
        <ele>1009.42085266113</ele>
        <time>2018-09-02T11:28:56Z</time>
      </trkpt>
      <trkpt lat="43.1447593169689" lon="-4.90750162862698">
        <ele>1009.8716583252</ele>
        <time>2018-09-02T11:28:59Z</time>
      </trkpt>
      <trkpt lat="43.1447528209939" lon="-4.9074247665749">
        <ele>1011.00788879395</ele>
        <time>2018-09-02T11:29:02Z</time>
      </trkpt>
      <trkpt lat="43.1447311118647" lon="-4.90735461004535">
        <ele>1011.87409973145</ele>
        <time>2018-09-02T11:29:05Z</time>
      </trkpt>
      <trkpt lat="43.1447097380116" lon="-4.90728478879193">
        <ele>1013.47334289551</ele>
        <time>2018-09-02T11:29:08Z</time>
      </trkpt>
      <trkpt lat="43.1446829997405" lon="-4.90721379407207">
        <ele>1014.87825012207</ele>
        <time>2018-09-02T11:29:11Z</time>
      </trkpt>
      <trkpt lat="43.1446488853946" lon="-4.90715118125538">
        <ele>1015.97944641113</ele>
        <time>2018-09-02T11:29:14Z</time>
      </trkpt>
      <trkpt lat="43.1446148967772" lon="-4.90707733668844">
        <ele>1016.5337677002</ele>
        <time>2018-09-02T11:29:17Z</time>
      </trkpt>
      <trkpt lat="43.1445883261442" lon="-4.90699745715121">
        <ele>1017.81050109863</ele>
        <time>2018-09-02T11:29:20Z</time>
      </trkpt>
      <trkpt lat="43.1445604563161" lon="-4.90691984072785">
        <ele>1018.59248352051</ele>
        <time>2018-09-02T11:29:23Z</time>
      </trkpt>
      <trkpt lat="43.1445329636737" lon="-4.90684079938094">
        <ele>1018.78755187988</ele>
        <time>2018-09-02T11:29:26Z</time>
      </trkpt>
      <trkpt lat="43.1445147330343" lon="-4.90676410496692">
        <ele>1019.01960754395</ele>
        <time>2018-09-02T11:29:29Z</time>
      </trkpt>
      <trkpt lat="43.1444962090283" lon="-4.9066924396948">
        <ele>1019.99238586426</ele>
        <time>2018-09-02T11:29:32Z</time>
      </trkpt>
      <trkpt lat="43.1444724463328" lon="-4.90661926568011">
        <ele>1020.9361114502</ele>
        <time>2018-09-02T11:29:35Z</time>
      </trkpt>
      <trkpt lat="43.1444594962924" lon="-4.90654667839865">
        <ele>1022.13301086426</ele>
        <time>2018-09-02T11:29:38Z</time>
      </trkpt>
      <trkpt lat="43.1444365298777" lon="-4.90646428429047">
        <ele>1023.26826477051</ele>
        <time>2018-09-02T11:29:41Z</time>
      </trkpt>
      <trkpt lat="43.1444277707889" lon="-4.90638658404807">
        <ele>1022.57685852051</ele>
        <time>2018-09-02T11:29:44Z</time>
      </trkpt>
      <trkpt lat="43.1444147369295" lon="-4.90629983135025">
        <ele>1023.33686828613</ele>
        <time>2018-09-02T11:29:47Z</time>
      </trkpt>
      <trkpt lat="43.1443973444804" lon="-4.90623981692354">
        <ele>1024.24421691895</ele>
        <time>2018-09-02T11:29:49Z</time>
      </trkpt>
      <trkpt lat="43.1443794072076" lon="-4.90617854521135">
        <ele>1023.9048614502</ele>
        <time>2018-09-02T11:29:51Z</time>
      </trkpt>
      <trkpt lat="43.1443589972734" lon="-4.90610780194859">
        <ele>1024.39875793457</ele>
        <time>2018-09-02T11:29:53Z</time>
      </trkpt>
      <trkpt lat="43.14433418684" lon="-4.90603479557196">
        <ele>1025.07905578613</ele>
        <time>2018-09-02T11:29:55Z</time>
      </trkpt>
      <trkpt lat="43.1443074485689" lon="-4.90596321411888">
        <ele>1025.56806945801</ele>
        <time>2018-09-02T11:29:57Z</time>
      </trkpt>
      <trkpt lat="43.1442811713024" lon="-4.90590026602606">
        <ele>1027.27095031738</ele>
        <time>2018-09-02T11:29:59Z</time>
      </trkpt>
      <trkpt lat="43.1442556903168" lon="-4.90584234707514">
        <ele>1028.10676574707</ele>
        <time>2018-09-02T11:30:01Z</time>
      </trkpt>
      <trkpt lat="43.1442317599832" lon="-4.90578551777164">
        <ele>1029.24226379395</ele>
        <time>2018-09-02T11:30:03Z</time>
      </trkpt>
      <trkpt lat="43.1442063628166" lon="-4.90572650917331">
        <ele>1030.27803039551</ele>
        <time>2018-09-02T11:30:05Z</time>
      </trkpt>
      <trkpt lat="43.1441707397282" lon="-4.90564998239736">
        <ele>1031.75996398926</ele>
        <time>2018-09-02T11:30:08Z</time>
      </trkpt>
      <trkpt lat="43.1441303808644" lon="-4.90557437763075">
        <ele>1034.29988098145</ele>
        <time>2018-09-02T11:30:11Z</time>
      </trkpt>
      <trkpt lat="43.1440986972704" lon="-4.90549215116064">
        <ele>1035.38984680176</ele>
        <time>2018-09-02T11:30:14Z</time>
      </trkpt>
      <trkpt lat="43.1440750183939" lon="-4.90543616004745">
        <ele>1036.03352355957</ele>
        <time>2018-09-02T11:30:16Z</time>
      </trkpt>
      <trkpt lat="43.1440502498701" lon="-4.90537648089687">
        <ele>1036.51155090332</ele>
        <time>2018-09-02T11:30:18Z</time>
      </trkpt>
      <trkpt lat="43.144023679237" lon="-4.90531210788051">
        <ele>1038.39228820801</ele>
        <time>2018-09-02T11:30:20Z</time>
      </trkpt>
      <trkpt lat="43.1439979887038" lon="-4.90524488501708">
        <ele>1039.11909484863</ele>
        <time>2018-09-02T11:30:22Z</time>
      </trkpt>
      <trkpt lat="43.1439739745512" lon="-4.90518101491491">
        <ele>1039.61701965332</ele>
        <time>2018-09-02T11:30:24Z</time>
      </trkpt>
      <trkpt lat="43.1439558696404" lon="-4.90512435324947">
        <ele>1039.50019836426</ele>
        <time>2018-09-02T11:30:26Z</time>
      </trkpt>
      <trkpt lat="43.1439318135783" lon="-4.90504531190256">
        <ele>1040.61555480957</ele>
        <time>2018-09-02T11:30:29Z</time>
      </trkpt>
      <trkpt lat="43.1439181510761" lon="-4.9049864709423">
        <ele>1040.96382141113</ele>
        <time>2018-09-02T11:30:31Z</time>
      </trkpt>
      <trkpt lat="43.1438961904898" lon="-4.9049016460822">
        <ele>1041.74153137207</ele>
        <time>2018-09-02T11:30:34Z</time>
      </trkpt>
      <trkpt lat="43.14388231844" lon="-4.9048345070378">
        <ele>1041.70649719238</ele>
        <time>2018-09-02T11:30:36Z</time>
      </trkpt>
      <trkpt lat="43.1438640039816" lon="-4.90476736799339">
        <ele>1042.07893371582</ele>
        <time>2018-09-02T11:30:38Z</time>
      </trkpt>
      <trkpt lat="43.1438396126434" lon="-4.90469528362612">
        <ele>1043.28254699707</ele>
        <time>2018-09-02T11:30:40Z</time>
      </trkpt>
      <trkpt lat="43.1438181968808" lon="-4.90462227724949">
        <ele>1043.54182434082</ele>
        <time>2018-09-02T11:30:42Z</time>
      </trkpt>
      <trkpt lat="43.1437964877516" lon="-4.90454382263581">
        <ele>1044.13288879395</ele>
        <time>2018-09-02T11:30:44Z</time>
      </trkpt>
      <trkpt lat="43.1437758263602" lon="-4.90446654148857">
        <ele>1045.18452453613</ele>
        <time>2018-09-02T11:30:46Z</time>
      </trkpt>
      <trkpt lat="43.1437531533122" lon="-4.90438984707455">
        <ele>1045.42854309082</ele>
        <time>2018-09-02T11:30:48Z</time>
      </trkpt>
      <trkpt lat="43.1437310250878" lon="-4.90431399085084">
        <ele>1045.20100402832</ele>
        <time>2018-09-02T11:30:50Z</time>
      </trkpt>
      <trkpt lat="43.143714303191" lon="-4.9042401462839">
        <ele>1046.09077453613</ele>
        <time>2018-09-02T11:30:52Z</time>
      </trkpt>
      <trkpt lat="43.1436961982801" lon="-4.90416311659376">
        <ele>1045.19270324707</ele>
        <time>2018-09-02T11:30:54Z</time>
      </trkpt>
      <trkpt lat="43.1436753273412" lon="-4.90408675745586">
        <ele>1045.51203918457</ele>
        <time>2018-09-02T11:30:56Z</time>
      </trkpt>
      <trkpt lat="43.1436570128828" lon="-4.9040123261557">
        <ele>1046.62690734863</ele>
        <time>2018-09-02T11:30:58Z</time>
      </trkpt>
      <trkpt lat="43.1436402490764" lon="-4.90394904278675">
        <ele>1047.8872833252</ele>
        <time>2018-09-02T11:31:00Z</time>
      </trkpt>
      <trkpt lat="43.1436264608457" lon="-4.90388492122749">
        <ele>1047.6421661377</ele>
        <time>2018-09-02T11:31:02Z</time>
      </trkpt>
      <trkpt lat="43.1436169054761" lon="-4.90381870419244">
        <ele>1047.44551086426</ele>
        <time>2018-09-02T11:31:04Z</time>
      </trkpt>
      <trkpt lat="43.143608607392" lon="-4.90374569781581">
        <ele>1048.1841583252</ele>
        <time>2018-09-02T11:31:06Z</time>
      </trkpt>
      <trkpt lat="43.1436053803592" lon="-4.90367461927692">
        <ele>1048.95491027832</ele>
        <time>2018-09-02T11:31:08Z</time>
      </trkpt>
      <trkpt lat="43.1435965793609" lon="-4.90360337309996">
        <ele>1051.18196105957</ele>
        <time>2018-09-02T11:31:10Z</time>
      </trkpt>
      <trkpt lat="43.1435915083095" lon="-4.90352332592467">
        <ele>1051.4673614502</ele>
        <time>2018-09-02T11:31:12Z</time>
      </trkpt>
      <trkpt lat="43.1435929751425" lon="-4.90343397483686">
        <ele>1051.66487121582</ele>
        <time>2018-09-02T11:31:14Z</time>
      </trkpt>
      <trkpt lat="43.1435889099195" lon="-4.9033508263574">
        <ele>1052.78645324707</ele>
        <time>2018-09-02T11:31:16Z</time>
      </trkpt>
      <trkpt lat="43.1435809471115" lon="-4.90327086300114">
        <ele>1052.4429473877</ele>
        <time>2018-09-02T11:31:18Z</time>
      </trkpt>
      <trkpt lat="43.1435757503315" lon="-4.90318394266526">
        <ele>1052.86994934082</ele>
        <time>2018-09-02T11:31:20Z</time>
      </trkpt>
      <trkpt lat="43.1435616687342" lon="-4.90310112946192">
        <ele>1052.43733215332</ele>
        <time>2018-09-02T11:31:22Z</time>
      </trkpt>
      <trkpt lat="43.1435380317673" lon="-4.90301370621184">
        <ele>1051.88764953613</ele>
        <time>2018-09-02T11:31:24Z</time>
      </trkpt>
      <trkpt lat="43.1435135147005" lon="-4.90293089300851">
        <ele>1048.63374328613</ele>
        <time>2018-09-02T11:31:26Z</time>
      </trkpt>
      <trkpt lat="43.1434808671876" lon="-4.90286794491569">
        <ele>1050.78071594238</ele>
        <time>2018-09-02T11:31:28Z</time>
      </trkpt>
      <trkpt lat="43.1434406340524" lon="-4.9028156418399">
        <ele>1051.46601867676</ele>
        <time>2018-09-02T11:31:30Z</time>
      </trkpt>
      <trkpt lat="43.1434037536784" lon="-4.90275411867062">
        <ele>1050.49922180176</ele>
        <time>2018-09-02T11:31:32Z</time>
      </trkpt>
      <trkpt lat="43.1433768896788" lon="-4.90269443952004">
        <ele>1050.37055969238</ele>
        <time>2018-09-02T11:31:34Z</time>
      </trkpt>
      <trkpt lat="43.1433403864905" lon="-4.90262964740852">
        <ele>1051.6392364502</ele>
        <time>2018-09-02T11:31:36Z</time>
      </trkpt>
      <trkpt lat="43.1432997342601" lon="-4.90256452002088">
        <ele>1053.03218078613</ele>
        <time>2018-09-02T11:31:38Z</time>
      </trkpt>
      <trkpt lat="43.1432751333743" lon="-4.90249989554743">
        <ele>1050.50215148926</ele>
        <time>2018-09-02T11:31:40Z</time>
      </trkpt>
      <trkpt lat="43.1432458386227" lon="-4.90242412314275">
        <ele>1052.40803527832</ele>
        <time>2018-09-02T11:31:42Z</time>
      </trkpt>
      <trkpt lat="43.1432022527262" lon="-4.902361342688">
        <ele>1051.44465637207</ele>
        <time>2018-09-02T11:31:44Z</time>
      </trkpt>
      <trkpt lat="43.1431535538688" lon="-4.90231063217381">
        <ele>1053.41291809082</ele>
        <time>2018-09-02T11:31:46Z</time>
      </trkpt>
      <trkpt lat="43.1431065733015" lon="-4.90226260386864">
        <ele>1055.08576965332</ele>
        <time>2018-09-02T11:31:48Z</time>
      </trkpt>
      <trkpt lat="43.1430646637856" lon="-4.9022128153638">
        <ele>1054.00849914551</ele>
        <time>2018-09-02T11:31:50Z</time>
      </trkpt>
      <trkpt lat="43.1430253526598" lon="-4.90216009319285">
        <ele>1055.21186828613</ele>
        <time>2018-09-02T11:31:52Z</time>
      </trkpt>
      <trkpt lat="43.1429809704825" lon="-4.90211918950537">
        <ele>1054.68147277832</ele>
        <time>2018-09-02T11:31:54Z</time>
      </trkpt>
      <trkpt lat="43.1429245183646" lon="-4.90209572017649">
        <ele>1055.80122375488</ele>
        <time>2018-09-02T11:31:56Z</time>
      </trkpt>
      <trkpt lat="43.1428632885619" lon="-4.90206864662925">
        <ele>1056.8618927002</ele>
        <time>2018-09-02T11:31:58Z</time>
      </trkpt>
      <trkpt lat="43.1428156374424" lon="-4.90203964524428">
        <ele>1056.94648742676</ele>
        <time>2018-09-02T11:32:00Z</time>
      </trkpt>
      <trkpt lat="43.142767022404" lon="-4.90201382898251">
        <ele>1057.44013977051</ele>
        <time>2018-09-02T11:32:02Z</time>
      </trkpt>
      <trkpt lat="43.1427223887696" lon="-4.90199295804361">
        <ele>1057.58198547363</ele>
        <time>2018-09-02T11:32:04Z</time>
      </trkpt>
      <trkpt lat="43.1426655175566" lon="-4.90198206156949">
        <ele>1060.28779602051</ele>
        <time>2018-09-02T11:32:06Z</time>
      </trkpt>
      <trkpt lat="43.1426146813139" lon="-4.90197845735112">
        <ele>1061.6548614502</ele>
        <time>2018-09-02T11:32:08Z</time>
      </trkpt>
      <trkpt lat="43.142566024366" lon="-4.90197929554144">
        <ele>1063.41279602051</ele>
        <time>2018-09-02T11:32:10Z</time>
      </trkpt>
      <trkpt lat="43.1425167387753" lon="-4.90198407322625">
        <ele>1063.51448059082</ele>
        <time>2018-09-02T11:32:12Z</time>
      </trkpt>
      <trkpt lat="43.1424703449413" lon="-4.90199019201556">
        <ele>1064.16181945801</ele>
        <time>2018-09-02T11:32:14Z</time>
      </trkpt>
      <trkpt lat="43.1424249988451" lon="-4.90198977292041">
        <ele>1065.22627258301</ele>
        <time>2018-09-02T11:32:16Z</time>
      </trkpt>
      <trkpt lat="43.1423794012919" lon="-4.90198063664595">
        <ele>1066.84382629395</ele>
        <time>2018-09-02T11:32:18Z</time>
      </trkpt>
      <trkpt lat="43.1423393777042" lon="-4.90195113234678">
        <ele>1065.08332824707</ele>
        <time>2018-09-02T11:32:20Z</time>
      </trkpt>
      <trkpt lat="43.1422909303039" lon="-4.90188969299654">
        <ele>1066.64094543457</ele>
        <time>2018-09-02T11:32:23Z</time>
      </trkpt>
      <trkpt lat="43.1422561454057" lon="-4.90184778348068">
        <ele>1068.34577941895</ele>
        <time>2018-09-02T11:32:25Z</time>
      </trkpt>
      <trkpt lat="43.1422273116588" lon="-4.90179866552809">
        <ele>1068.72688293457</ele>
        <time>2018-09-02T11:32:27Z</time>
      </trkpt>
      <trkpt lat="43.1421955442458" lon="-4.90174812265197">
        <ele>1069.76924133301</ele>
        <time>2018-09-02T11:32:29Z</time>
      </trkpt>
      <trkpt lat="43.1421467615693" lon="-4.90168157034079">
        <ele>1069.20014953613</ele>
        <time>2018-09-02T11:32:32Z</time>
      </trkpt>
      <trkpt lat="43.1421100069239" lon="-4.90164075047234">
        <ele>1068.75117492676</ele>
        <time>2018-09-02T11:32:34Z</time>
      </trkpt>
      <trkpt lat="43.1420673849463" lon="-4.9015930574433">
        <ele>1069.54658508301</ele>
        <time>2018-09-02T11:32:37Z</time>
      </trkpt>
      <trkpt lat="43.1420411495894" lon="-4.90154192783395">
        <ele>1069.50862121582</ele>
        <time>2018-09-02T11:32:40Z</time>
      </trkpt>
      <trkpt lat="43.1420061132341" lon="-4.90149440244297">
        <ele>1070.36592102051</ele>
        <time>2018-09-02T11:32:43Z</time>
      </trkpt>
      <trkpt lat="43.1419588812097" lon="-4.90146456286768">
        <ele>1071.04634094238</ele>
        <time>2018-09-02T11:32:46Z</time>
      </trkpt>
      <trkpt lat="43.1418932928174" lon="-4.90146741271475">
        <ele>1071.81843566895</ele>
        <time>2018-09-02T11:32:49Z</time>
      </trkpt>
      <trkpt lat="43.1418343261286" lon="-4.90147680044631">
        <ele>1073.54573059082</ele>
        <time>2018-09-02T11:32:52Z</time>
      </trkpt>
      <trkpt lat="43.141790321137" lon="-4.90153161809305">
        <ele>1071.43208312988</ele>
        <time>2018-09-02T11:32:56Z</time>
      </trkpt>
      <trkpt lat="43.1417461485072" lon="-4.90157528780857">
        <ele>1073.28840637207</ele>
        <time>2018-09-02T11:32:59Z</time>
      </trkpt>
      <trkpt lat="43.1416897802084" lon="-4.90157872438887">
        <ele>1070.62959289551</ele>
        <time>2018-09-02T11:33:02Z</time>
      </trkpt>
      <trkpt lat="43.1416308973386" lon="-4.90156640299121">
        <ele>1072.06745910645</ele>
        <time>2018-09-02T11:33:05Z</time>
      </trkpt>
      <trkpt lat="43.14156845216" lon="-4.90155232139388">
        <ele>1072.00044250488</ele>
        <time>2018-09-02T11:33:08Z</time>
      </trkpt>
      <trkpt lat="43.1415249500825" lon="-4.90153547376851">
        <ele>1074.21821594238</ele>
        <time>2018-09-02T11:33:10Z</time>
      </trkpt>
      <trkpt lat="43.1414843816712" lon="-4.90150731057385">
        <ele>1076.00398254395</ele>
        <time>2018-09-02T11:33:12Z</time>
      </trkpt>
      <trkpt lat="43.1414438970789" lon="-4.90147487260858">
        <ele>1079.01789855957</ele>
        <time>2018-09-02T11:33:14Z</time>
      </trkpt>
      <trkpt lat="43.1414056756004" lon="-4.90143908188203">
        <ele>1080.55464172363</ele>
        <time>2018-09-02T11:33:16Z</time>
      </trkpt>
      <trkpt lat="43.1413666159316" lon="-4.90140195005098">
        <ele>1081.73286437988</ele>
        <time>2018-09-02T11:33:18Z</time>
      </trkpt>
      <trkpt lat="43.1413289392769" lon="-4.90136632696251">
        <ele>1083.13850402832</ele>
        <time>2018-09-02T11:33:20Z</time>
      </trkpt>
      <trkpt lat="43.1412905082508" lon="-4.90133112296918">
        <ele>1082.61640930176</ele>
        <time>2018-09-02T11:33:22Z</time>
      </trkpt>
      <trkpt lat="43.1412507361203" lon="-4.90129248239556">
        <ele>1083.48762512207</ele>
        <time>2018-09-02T11:33:24Z</time>
      </trkpt>
      <trkpt lat="43.1412115088134" lon="-4.90125375800291">
        <ele>1086.19660949707</ele>
        <time>2018-09-02T11:33:26Z</time>
      </trkpt>
      <trkpt lat="43.1411568168952" lon="-4.90120044909874">
        <ele>1087.46308898926</ele>
        <time>2018-09-02T11:33:29Z</time>
      </trkpt>
      <trkpt lat="43.1411027117103" lon="-4.90114387125233">
        <ele>1090.3228302002</ele>
        <time>2018-09-02T11:33:32Z</time>
      </trkpt>
      <trkpt lat="43.1410657056078" lon="-4.90110355429808">
        <ele>1090.16548156738</ele>
        <time>2018-09-02T11:33:34Z</time>
      </trkpt>
      <trkpt lat="43.141026645939" lon="-4.90105686709741">
        <ele>1089.8980255127</ele>
        <time>2018-09-02T11:33:36Z</time>
      </trkpt>
      <trkpt lat="43.1409818446665" lon="-4.90100498311678">
        <ele>1091.06648254395</ele>
        <time>2018-09-02T11:33:38Z</time>
      </trkpt>
      <trkpt lat="43.1409306731477" lon="-4.90094781853715">
        <ele>1092.67512512207</ele>
        <time>2018-09-02T11:33:40Z</time>
      </trkpt>
      <trkpt lat="43.1408704491734" lon="-4.90089367144266">
        <ele>1092.48970031738</ele>
        <time>2018-09-02T11:33:42Z</time>
      </trkpt>
      <trkpt lat="43.1407880131557" lon="-4.90084941499392">
        <ele>1091.22431945801</ele>
        <time>2018-09-02T11:33:44Z</time>
      </trkpt>
      <trkpt lat="43.1407412002265" lon="-4.900825861846">
        <ele>1091.5757598877</ele>
        <time>2018-09-02T11:33:45Z</time>
      </trkpt>
      <trkpt lat="43.1406942196592" lon="-4.90079811774651">
        <ele>1091.56050109863</ele>
        <time>2018-09-02T11:33:46Z</time>
      </trkpt>
      <trkpt lat="43.1406454788923" lon="-4.90077666007439">
        <ele>1092.04914855957</ele>
        <time>2018-09-02T11:33:47Z</time>
      </trkpt>
      <trkpt lat="43.140601180534" lon="-4.90075017326037">
        <ele>1091.63276672363</ele>
        <time>2018-09-02T11:33:48Z</time>
      </trkpt>
      <trkpt lat="43.1405529845908" lon="-4.900717483838">
        <ele>1092.2222442627</ele>
        <time>2018-09-02T11:33:49Z</time>
      </trkpt>
      <trkpt lat="43.1405119970843" lon="-4.90067549050311">
        <ele>1090.26606750488</ele>
        <time>2018-09-02T11:33:50Z</time>
      </trkpt>
      <trkpt lat="43.140425286296" lon="-4.90060902201096">
        <ele>1089.34614562988</ele>
        <time>2018-09-02T11:33:52Z</time>
      </trkpt>
      <trkpt lat="43.1403696723684" lon="-4.90059611388007">
        <ele>1089.80952453613</ele>
        <time>2018-09-02T11:33:53Z</time>
      </trkpt>
      <trkpt lat="43.1402822491183" lon="-4.9005655199335">
        <ele>1087.70942687988</ele>
        <time>2018-09-02T11:33:55Z</time>
      </trkpt>
      <trkpt lat="43.1401855638652" lon="-4.90057440475086">
        <ele>1086.00776672363</ele>
        <time>2018-09-02T11:33:57Z</time>
      </trkpt>
      <trkpt lat="43.1401315424993" lon="-4.90058219992081">
        <ele>1085.7583770752</ele>
        <time>2018-09-02T11:33:58Z</time>
      </trkpt>
      <trkpt lat="43.1400801614329" lon="-4.900582702835">
        <ele>1085.01789855957</ele>
        <time>2018-09-02T11:33:59Z</time>
      </trkpt>
      <trkpt lat="43.1400320493087" lon="-4.90057599731246">
        <ele>1085.09443664551</ele>
        <time>2018-09-02T11:34:00Z</time>
      </trkpt>
      <trkpt lat="43.1399861583888" lon="-4.90057440475086">
        <ele>1084.42036437988</ele>
        <time>2018-09-02T11:34:01Z</time>
      </trkpt>
      <trkpt lat="43.1399216596439" lon="-4.90057993680695">
        <ele>1084.65803527832</ele>
        <time>2018-09-02T11:34:03Z</time>
      </trkpt>
      <trkpt lat="43.139846515882" lon="-4.90057809278825">
        <ele>1085.08821105957</ele>
        <time>2018-09-02T11:34:05Z</time>
      </trkpt>
      <trkpt lat="43.1397973979294" lon="-4.90056384355286">
        <ele>1085.5728302002</ele>
        <time>2018-09-02T11:34:07Z</time>
      </trkpt>
      <trkpt lat="43.1397323962703" lon="-4.90054154769043">
        <ele>1085.65449523926</ele>
        <time>2018-09-02T11:34:10Z</time>
      </trkpt>
      <trkpt lat="43.1396852061554" lon="-4.90053685382465">
        <ele>1087.70771789551</ele>
        <time>2018-09-02T11:34:12Z</time>
      </trkpt>
      <trkpt lat="43.1396225933387" lon="-4.90051422268609">
        <ele>1088.25459289551</ele>
        <time>2018-09-02T11:34:15Z</time>
      </trkpt>
      <trkpt lat="43.139562495093" lon="-4.90049108863333">
        <ele>1090.4956817627</ele>
        <time>2018-09-02T11:34:18Z</time>
      </trkpt>
      <trkpt lat="43.1395178195491" lon="-4.90048136562565">
        <ele>1092.66206359863</ele>
        <time>2018-09-02T11:34:20Z</time>
      </trkpt>
      <trkpt lat="43.1394485431194" lon="-4.90048664622465">
        <ele>1095.1079864502</ele>
        <time>2018-09-02T11:34:23Z</time>
      </trkpt>
      <trkpt lat="43.139399928081" lon="-4.90050391294518">
        <ele>1095.46992492676</ele>
        <time>2018-09-02T11:34:25Z</time>
      </trkpt>
      <trkpt lat="43.1393492594763" lon="-4.90051615052382">
        <ele>1097.77619934082</ele>
        <time>2018-09-02T11:34:27Z</time>
      </trkpt>
      <trkpt lat="43.1392966630339" lon="-4.90051472560028">
        <ele>1098.96064758301</ele>
        <time>2018-09-02T11:34:29Z</time>
      </trkpt>
      <trkpt lat="43.1392468326195" lon="-4.90049913526038">
        <ele>1099.31904602051</ele>
        <time>2018-09-02T11:34:31Z</time>
      </trkpt>
      <trkpt lat="43.1392001873284" lon="-4.90047390573183">
        <ele>1101.46943664551</ele>
        <time>2018-09-02T11:34:33Z</time>
      </trkpt>
      <trkpt lat="43.1391560985177" lon="-4.90044582635621">
        <ele>1101.49201965332</ele>
        <time>2018-09-02T11:34:35Z</time>
      </trkpt>
      <trkpt lat="43.1391081540316" lon="-4.90041850135187">
        <ele>1101.48127746582</ele>
        <time>2018-09-02T11:34:37Z</time>
      </trkpt>
      <trkpt lat="43.1390563119605" lon="-4.90039142780462">
        <ele>1101.7154083252</ele>
        <time>2018-09-02T11:34:39Z</time>
      </trkpt>
      <trkpt lat="43.1390029192373" lon="-4.90035848692516">
        <ele>1101.90534973145</ele>
        <time>2018-09-02T11:34:41Z</time>
      </trkpt>
      <trkpt lat="43.1389463413908" lon="-4.90031934343735">
        <ele>1102.67561340332</ele>
        <time>2018-09-02T11:34:43Z</time>
      </trkpt>
      <trkpt lat="43.1388908531919" lon="-4.9002698063896">
        <ele>1102.7368927002</ele>
        <time>2018-09-02T11:34:45Z</time>
      </trkpt>
      <trkpt lat="43.1388402684062" lon="-4.90020166151682">
        <ele>1102.61372375488</ele>
        <time>2018-09-02T11:34:47Z</time>
      </trkpt>
      <trkpt lat="43.1387943774863" lon="-4.90011767484704">
        <ele>1101.83686828613</ele>
        <time>2018-09-02T11:34:49Z</time>
      </trkpt>
      <trkpt lat="43.1387528032466" lon="-4.90001373924771">
        <ele>1101.28242492676</ele>
        <time>2018-09-02T11:34:51Z</time>
      </trkpt>
      <trkpt lat="43.1387223769381" lon="-4.89987661131183">
        <ele>1100.81269836426</ele>
        <time>2018-09-02T11:34:53Z</time>
      </trkpt>
      <trkpt lat="43.1386943813815" lon="-4.89976119250515">
        <ele>1101.91108703613</ele>
        <time>2018-09-02T11:34:55Z</time>
      </trkpt>
      <trkpt lat="43.1386763602897" lon="-4.89970251918295">
        <ele>1102.07295227051</ele>
        <time>2018-09-02T11:34:56Z</time>
      </trkpt>
      <trkpt lat="43.1386535196036" lon="-4.89958944730917">
        <ele>1102.41780090332</ele>
        <time>2018-09-02T11:34:58Z</time>
      </trkpt>
      <trkpt lat="43.1386207463622" lon="-4.8994943965272">
        <ele>1102.8120880127</ele>
        <time>2018-09-02T11:35:00Z</time>
      </trkpt>
      <trkpt lat="43.138580764684" lon="-4.89940060303071">
        <ele>1102.85688781738</ele>
        <time>2018-09-02T11:35:02Z</time>
      </trkpt>
      <trkpt lat="43.1385334907501" lon="-4.89931879565576">
        <ele>1103.42085266113</ele>
        <time>2018-09-02T11:35:04Z</time>
      </trkpt>
      <trkpt lat="43.1384849595308" lon="-4.89924335852722">
        <ele>1104.28218078613</ele>
        <time>2018-09-02T11:35:06Z</time>
      </trkpt>
      <trkpt lat="43.1384349614784" lon="-4.89916590974191">
        <ele>1105.45576477051</ele>
        <time>2018-09-02T11:35:08Z</time>
      </trkpt>
      <trkpt lat="43.1383848376974" lon="-4.89909005351821">
        <ele>1106.5093536377</ele>
        <time>2018-09-02T11:35:10Z</time>
      </trkpt>
      <trkpt lat="43.1383387791395" lon="-4.89901805296997">
        <ele>1107.13740539551</ele>
        <time>2018-09-02T11:35:12Z</time>
      </trkpt>
      <trkpt lat="43.1382951513335" lon="-4.89894856699267">
        <ele>1107.30598449707</ele>
        <time>2018-09-02T11:35:14Z</time>
      </trkpt>
      <trkpt lat="43.1382514816179" lon="-4.89886885509351">
        <ele>1108.41706848145</ele>
        <time>2018-09-02T11:35:16Z</time>
      </trkpt>
      <trkpt lat="43.1382151041582" lon="-4.89878193475762">
        <ele>1108.14778137207</ele>
        <time>2018-09-02T11:35:18Z</time>
      </trkpt>
      <trkpt lat="43.1381819956406" lon="-4.89869006909886">
        <ele>1109.57514953613</ele>
        <time>2018-09-02T11:35:20Z</time>
      </trkpt>
      <trkpt lat="43.138152449432" lon="-4.89859191701272">
        <ele>1109.63752746582</ele>
        <time>2018-09-02T11:35:22Z</time>
      </trkpt>
      <trkpt lat="43.1381211430236" lon="-4.89848915487984">
        <ele>1109.8697052002</ele>
        <time>2018-09-02T11:35:24Z</time>
      </trkpt>
      <trkpt lat="43.1381003559037" lon="-4.8984272126154">
        <ele>1109.92658996582</ele>
        <time>2018-09-02T11:35:25Z</time>
      </trkpt>
      <trkpt lat="43.1380767189368" lon="-4.89836753346482">
        <ele>1109.41584777832</ele>
        <time>2018-09-02T11:35:26Z</time>
      </trkpt>
      <trkpt lat="43.1380551355361" lon="-4.89830416627684">
        <ele>1109.23933410645</ele>
        <time>2018-09-02T11:35:27Z</time>
      </trkpt>
      <trkpt lat="43.1380303670123" lon="-4.89824339747885">
        <ele>1108.98664855957</ele>
        <time>2018-09-02T11:35:28Z</time>
      </trkpt>
      <trkpt lat="43.1379969232186" lon="-4.89818464033762">
        <ele>1109.35456848145</ele>
        <time>2018-09-02T11:35:29Z</time>
      </trkpt>
      <trkpt lat="43.1379615934967" lon="-4.89812445827285">
        <ele>1109.23481750488</ele>
        <time>2018-09-02T11:35:30Z</time>
      </trkpt>
      <trkpt lat="43.137930664274" lon="-4.89806251600841">
        <ele>1109.93379211426</ele>
        <time>2018-09-02T11:35:31Z</time>
      </trkpt>
      <trkpt lat="43.1378980167612" lon="-4.89800635725716">
        <ele>1110.02937316895</ele>
        <time>2018-09-02T11:35:32Z</time>
      </trkpt>
      <trkpt lat="43.1378666265338" lon="-4.89795246161977">
        <ele>1110.46504211426</ele>
        <time>2018-09-02T11:35:33Z</time>
      </trkpt>
      <trkpt lat="43.1378351943969" lon="-4.89789722487787">
        <ele>1110.69673156738</ele>
        <time>2018-09-02T11:35:34Z</time>
      </trkpt>
      <trkpt lat="43.1378092524066" lon="-4.8978439159737">
        <ele>1110.9761505127</ele>
        <time>2018-09-02T11:35:35Z</time>
      </trkpt>
      <trkpt lat="43.1377883814677" lon="-4.89778297953764">
        <ele>1111.15510559082</ele>
        <time>2018-09-02T11:35:36Z</time>
      </trkpt>
      <trkpt lat="43.1377658760577" lon="-4.89771869034031">
        <ele>1111.10566711426</ele>
        <time>2018-09-02T11:35:37Z</time>
      </trkpt>
      <trkpt lat="43.1377385929629" lon="-4.89764710888723">
        <ele>1110.86555480957</ele>
        <time>2018-09-02T11:35:38Z</time>
      </trkpt>
      <trkpt lat="43.1377123156964" lon="-4.89756773226419">
        <ele>1110.84053039551</ele>
        <time>2018-09-02T11:35:39Z</time>
      </trkpt>
      <trkpt lat="43.1376830209448" lon="-4.89748190157572">
        <ele>1110.20356750488</ele>
        <time>2018-09-02T11:35:40Z</time>
      </trkpt>
      <trkpt lat="43.1376561988547" lon="-4.89739397541145">
        <ele>1109.41719055176</ele>
        <time>2018-09-02T11:35:41Z</time>
      </trkpt>
      <trkpt lat="43.1376295024931" lon="-4.8972995113627">
        <ele>1108.50556945801</ele>
        <time>2018-09-02T11:35:42Z</time>
      </trkpt>
      <trkpt lat="43.1376103079348" lon="-4.89720420912364">
        <ele>1108.56831359863</ele>
        <time>2018-09-02T11:35:43Z</time>
      </trkpt>
      <trkpt lat="43.1375860004156" lon="-4.89709968679109">
        <ele>1108.48347473145</ele>
        <time>2018-09-02T11:35:44Z</time>
      </trkpt>
      <trkpt lat="43.1375730084657" lon="-4.89699943922916">
        <ele>1107.84053039551</ele>
        <time>2018-09-02T11:35:45Z</time>
      </trkpt>
      <trkpt lat="43.137560687068" lon="-4.8968919832305">
        <ele>1108.13569641113</ele>
        <time>2018-09-02T11:35:46Z</time>
      </trkpt>
      <trkpt lat="43.1375591783255" lon="-4.89679433405855">
        <ele>1108.62129211426</ele>
        <time>2018-09-02T11:35:47Z</time>
      </trkpt>
      <trkpt lat="43.1375634530961" lon="-4.8967022169427">
        <ele>1109.18049621582</ele>
        <time>2018-09-02T11:35:48Z</time>
      </trkpt>
      <trkpt lat="43.137563201639" lon="-4.89661638625422">
        <ele>1110.01496887207</ele>
        <time>2018-09-02T11:35:49Z</time>
      </trkpt>
      <trkpt lat="43.1375668896764" lon="-4.89654363133469">
        <ele>1110.68244934082</ele>
        <time>2018-09-02T11:35:50Z</time>
      </trkpt>
      <trkpt lat="43.1375442585378" lon="-4.89647406153837">
        <ele>1111.07466125488</ele>
        <time>2018-09-02T11:35:51Z</time>
      </trkpt>
      <trkpt lat="43.1375307217642" lon="-4.89640298299947">
        <ele>1111.39302062988</ele>
        <time>2018-09-02T11:35:52Z</time>
      </trkpt>
      <trkpt lat="43.1375131197675" lon="-4.89632553421417">
        <ele>1112.16914367676</ele>
        <time>2018-09-02T11:35:53Z</time>
      </trkpt>
      <trkpt lat="43.1374948891281" lon="-4.89625512622753">
        <ele>1111.24885559082</ele>
        <time>2018-09-02T11:35:54Z</time>
      </trkpt>
      <trkpt lat="43.1374670612096" lon="-4.89617994055608">
        <ele>1110.30268859863</ele>
        <time>2018-09-02T11:35:55Z</time>
      </trkpt>
      <trkpt lat="43.1374281272694" lon="-4.89610358141819">
        <ele>1109.2906036377</ele>
        <time>2018-09-02T11:35:56Z</time>
      </trkpt>
      <trkpt lat="43.1373850442871" lon="-4.89602412097612">
        <ele>1108.19612121582</ele>
        <time>2018-09-02T11:35:57Z</time>
      </trkpt>
      <trkpt lat="43.1373344595014" lon="-4.89593585953572">
        <ele>1106.96308898926</ele>
        <time>2018-09-02T11:35:58Z</time>
      </trkpt>
      <trkpt lat="43.1372819049686" lon="-4.89583552815476">
        <ele>1106.30403137207</ele>
        <time>2018-09-02T11:35:59Z</time>
      </trkpt>
      <trkpt lat="43.1372385705292" lon="-4.89571332000652">
        <ele>1106.12983703613</ele>
        <time>2018-09-02T11:36:00Z</time>
      </trkpt>
      <trkpt lat="43.1372104073345" lon="-4.89559119567731">
        <ele>1106.4761505127</ele>
        <time>2018-09-02T11:36:01Z</time>
      </trkpt>
      <trkpt lat="43.1371757481649" lon="-4.89546957426229">
        <ele>1106.71943664551</ele>
        <time>2018-09-02T11:36:02Z</time>
      </trkpt>
      <trkpt lat="43.1371372752293" lon="-4.89535474218884">
        <ele>1107.25129699707</ele>
        <time>2018-09-02T11:36:03Z</time>
      </trkpt>
      <trkpt lat="43.1370963715419" lon="-4.89524963312307">
        <ele>1108.03779602051</ele>
        <time>2018-09-02T11:36:04Z</time>
      </trkpt>
      <trkpt lat="43.1370523246407" lon="-4.89515433088401">
        <ele>1108.70649719238</ele>
        <time>2018-09-02T11:36:05Z</time>
      </trkpt>
      <trkpt lat="43.1370036257833" lon="-4.89506782964328">
        <ele>1109.40669250488</ele>
        <time>2018-09-02T11:36:06Z</time>
      </trkpt>
      <trkpt lat="43.1369569385826" lon="-4.89497495815614">
        <ele>1109.13154602051</ele>
        <time>2018-09-02T11:36:07Z</time>
      </trkpt>
      <trkpt lat="43.1369088683679" lon="-4.89488359541157">
        <ele>1108.86543273926</ele>
        <time>2018-09-02T11:36:08Z</time>
      </trkpt>
      <trkpt lat="43.1368646119192" lon="-4.8947938252286">
        <ele>1108.71321105957</ele>
        <time>2018-09-02T11:36:09Z</time>
      </trkpt>
      <trkpt lat="43.1368169607996" lon="-4.89469684660891">
        <ele>1108.23957824707</ele>
        <time>2018-09-02T11:36:10Z</time>
      </trkpt>
      <trkpt lat="43.1367694354087" lon="-4.8946090880827">
        <ele>1107.54292297363</ele>
        <time>2018-09-02T11:36:11Z</time>
      </trkpt>
      <trkpt lat="43.136716252233" lon="-4.89451864734748">
        <ele>1107.27046203613</ele>
        <time>2018-09-02T11:36:12Z</time>
      </trkpt>
      <trkpt lat="43.1366616860434" lon="-4.89443549886802">
        <ele>1107.06916809082</ele>
        <time>2018-09-02T11:36:13Z</time>
      </trkpt>
      <trkpt lat="43.1366035994544" lon="-4.89435276948371">
        <ele>1107.34736633301</ele>
        <time>2018-09-02T11:36:14Z</time>
      </trkpt>
      <trkpt lat="43.1365612289339" lon="-4.89426576532879">
        <ele>1107.26484680176</ele>
        <time>2018-09-02T11:36:15Z</time>
      </trkpt>
      <trkpt lat="43.1365323113679" lon="-4.8941740673081">
        <ele>1107.62129211426</ele>
        <time>2018-09-02T11:36:16Z</time>
      </trkpt>
      <trkpt lat="43.136507459025" lon="-4.89408639260092">
        <ele>1108.13179016113</ele>
        <time>2018-09-02T11:36:17Z</time>
      </trkpt>
      <trkpt lat="43.1364769488975" lon="-4.89400550723532">
        <ele>1108.38508605957</ele>
        <time>2018-09-02T11:36:18Z</time>
      </trkpt>
      <trkpt lat="43.1364360871195" lon="-4.89393157884934">
        <ele>1109.03694152832</ele>
        <time>2018-09-02T11:36:19Z</time>
      </trkpt>
      <trkpt lat="43.1363931717753" lon="-4.89386368543365">
        <ele>1109.06184387207</ele>
        <time>2018-09-02T11:36:20Z</time>
      </trkpt>
      <trkpt lat="43.1363526033639" lon="-4.89379134960928">
        <ele>1109.61335754395</ele>
        <time>2018-09-02T11:36:21Z</time>
      </trkpt>
      <trkpt lat="43.1363069219916" lon="-4.89372462966004">
        <ele>1109.72053527832</ele>
        <time>2018-09-02T11:36:22Z</time>
      </trkpt>
      <trkpt lat="43.1362658087566" lon="-4.89365413785436">
        <ele>1109.26704406738</ele>
        <time>2018-09-02T11:36:23Z</time>
      </trkpt>
      <trkpt lat="43.1362242345169" lon="-4.89357836544969">
        <ele>1109.07856750488</ele>
        <time>2018-09-02T11:36:24Z</time>
      </trkpt>
      <trkpt lat="43.1361874379619" lon="-4.8935022577689">
        <ele>1108.71235656738</ele>
        <time>2018-09-02T11:36:25Z</time>
      </trkpt>
      <trkpt lat="43.1361443130701" lon="-4.89342690445938">
        <ele>1108.85090637207</ele>
        <time>2018-09-02T11:36:26Z</time>
      </trkpt>
      <trkpt lat="43.1361017749115" lon="-4.8933516349689">
        <ele>1109.03828430176</ele>
        <time>2018-09-02T11:36:27Z</time>
      </trkpt>
      <trkpt lat="43.1360628828808" lon="-4.89327494055488">
        <ele>1109.31941223145</ele>
        <time>2018-09-02T11:36:28Z</time>
      </trkpt>
      <trkpt lat="43.1360322051152" lon="-4.89320419729212">
        <ele>1109.01570129395</ele>
        <time>2018-09-02T11:36:29Z</time>
      </trkpt>
      <trkpt lat="43.1360018626257" lon="-4.89313764498093">
        <ele>1108.92707824707</ele>
        <time>2018-09-02T11:36:30Z</time>
      </trkpt>
      <trkpt lat="43.1359701371222" lon="-4.89307452925005">
        <ele>1108.8872833252</ele>
        <time>2018-09-02T11:36:31Z</time>
      </trkpt>
      <trkpt lat="43.1359434826701" lon="-4.89301912487009">
        <ele>1108.95210266113</ele>
        <time>2018-09-02T11:36:32Z</time>
      </trkpt>
      <trkpt lat="43.1359125534474" lon="-4.89296137355724">
        <ele>1109.03132629395</ele>
        <time>2018-09-02T11:36:33Z</time>
      </trkpt>
      <trkpt lat="43.1358833844244" lon="-4.89290110767343">
        <ele>1108.96479797363</ele>
        <time>2018-09-02T11:36:34Z</time>
      </trkpt>
      <trkpt lat="43.1358584482625" lon="-4.89284134470382">
        <ele>1108.75874328613</ele>
        <time>2018-09-02T11:36:35Z</time>
      </trkpt>
      <trkpt lat="43.1358366134047" lon="-4.89278476685741">
        <ele>1108.46882629395</ele>
        <time>2018-09-02T11:36:36Z</time>
      </trkpt>
      <trkpt lat="43.1358066061913" lon="-4.89272735082069">
        <ele>1109.2554473877</ele>
        <time>2018-09-02T11:36:37Z</time>
      </trkpt>
      <trkpt lat="43.1357826339483" lon="-4.89266993478396">
        <ele>1109.68232727051</ele>
        <time>2018-09-02T11:36:38Z</time>
      </trkpt>
      <trkpt lat="43.1357393414184" lon="-4.89256214350918">
        <ele>1109.8814239502</ele>
        <time>2018-09-02T11:36:40Z</time>
      </trkpt>
      <trkpt lat="43.1357093761145" lon="-4.89250313491085">
        <ele>1110.3843536377</ele>
        <time>2018-09-02T11:36:41Z</time>
      </trkpt>
      <trkpt lat="43.1356807938247" lon="-4.89244965836861">
        <ele>1109.97602844238</ele>
        <time>2018-09-02T11:36:42Z</time>
      </trkpt>
      <trkpt lat="43.1356517086207" lon="-4.89239618182638">
        <ele>1110.52558898926</ele>
        <time>2018-09-02T11:36:43Z</time>
      </trkpt>
      <trkpt lat="43.1356237130641" lon="-4.89234119654157">
        <ele>1110.79365539551</ele>
        <time>2018-09-02T11:36:44Z</time>
      </trkpt>
      <trkpt lat="43.1355974357977" lon="-4.89228202030518">
        <ele>1111.16108703613</ele>
        <time>2018-09-02T11:36:45Z</time>
      </trkpt>
      <trkpt lat="43.135573086369" lon="-4.89222544245878">
        <ele>1111.53926086426</ele>
        <time>2018-09-02T11:36:46Z</time>
      </trkpt>
      <trkpt lat="43.135550664778" lon="-4.89216886461237">
        <ele>1111.6909942627</ele>
        <time>2018-09-02T11:36:47Z</time>
      </trkpt>
      <trkpt lat="43.1355041871249" lon="-4.89205872640469">
        <ele>1111.47602844238</ele>
        <time>2018-09-02T11:36:49Z</time>
      </trkpt>
      <trkpt lat="43.1354839448287" lon="-4.89199259318867">
        <ele>1111.32429504395</ele>
        <time>2018-09-02T11:36:50Z</time>
      </trkpt>
      <trkpt lat="43.1354650436371" lon="-4.8919303156481">
        <ele>1111.31867980957</ele>
        <time>2018-09-02T11:36:51Z</time>
      </trkpt>
      <trkpt lat="43.1354466034501" lon="-4.89186703227916">
        <ele>1111.39888000488</ele>
        <time>2018-09-02T11:36:52Z</time>
      </trkpt>
      <trkpt lat="43.1354276184394" lon="-4.89180341363409">
        <ele>1111.58699035645</ele>
        <time>2018-09-02T11:36:53Z</time>
      </trkpt>
      <trkpt lat="43.1354088010668" lon="-4.89174121991255">
        <ele>1111.96064758301</ele>
        <time>2018-09-02T11:36:54Z</time>
      </trkpt>
      <trkpt lat="43.1353909057035" lon="-4.89167273976364">
        <ele>1112.58662414551</ele>
        <time>2018-09-02T11:36:55Z</time>
      </trkpt>
      <trkpt lat="43.1353760278254" lon="-4.89161188714662">
        <ele>1112.53718566895</ele>
        <time>2018-09-02T11:36:56Z</time>
      </trkpt>
      <trkpt lat="43.1353559112578" lon="-4.89154927432993">
        <ele>1112.8716583252</ele>
        <time>2018-09-02T11:36:57Z</time>
      </trkpt>
      <trkpt lat="43.1353365490615" lon="-4.89148850553193">
        <ele>1113.29206848145</ele>
        <time>2018-09-02T11:36:58Z</time>
      </trkpt>
      <trkpt lat="43.1353187375172" lon="-4.89142798819103">
        <ele>1113.59443664551</ele>
        <time>2018-09-02T11:36:59Z</time>
      </trkpt>
      <trkpt lat="43.1353052007436" lon="-4.89136780612626">
        <ele>1114.09663391113</ele>
        <time>2018-09-02T11:37:00Z</time>
      </trkpt>
      <trkpt lat="43.1352949329122" lon="-4.89130033180573">
        <ele>1114.87629699707</ele>
        <time>2018-09-02T11:37:01Z</time>
      </trkpt>
      <trkpt lat="43.1352866767376" lon="-4.89123822190323">
        <ele>1115.27082824707</ele>
        <time>2018-09-02T11:37:02Z</time>
      </trkpt>
      <trkpt lat="43.1352724694117" lon="-4.89112808369556">
        <ele>1116.21174621582</ele>
        <time>2018-09-02T11:37:04Z</time>
      </trkpt>
      <trkpt lat="43.1352683203697" lon="-4.89103051834264">
        <ele>1117.53059387207</ele>
        <time>2018-09-02T11:37:06Z</time>
      </trkpt>
      <trkpt lat="43.1352582201763" lon="-4.89094309509256">
        <ele>1118.54292297363</ele>
        <time>2018-09-02T11:37:08Z</time>
      </trkpt>
      <trkpt lat="43.1352396961703" lon="-4.89085391164281">
        <ele>1119.64631652832</ele>
        <time>2018-09-02T11:37:10Z</time>
      </trkpt>
      <trkpt lat="43.135217735584" lon="-4.89076623693564">
        <ele>1121.18061828613</ele>
        <time>2018-09-02T11:37:12Z</time>
      </trkpt>
      <trkpt lat="43.1352007622301" lon="-4.89068702795067">
        <ele>1121.53547668457</ele>
        <time>2018-09-02T11:37:14Z</time>
      </trkpt>
      <trkpt lat="43.1351927575126" lon="-4.89061427303114">
        <ele>1121.52900695801</ele>
        <time>2018-09-02T11:37:16Z</time>
      </trkpt>
      <trkpt lat="43.1351803103864" lon="-4.89053447731295">
        <ele>1123.9654083252</ele>
        <time>2018-09-02T11:37:18Z</time>
      </trkpt>
      <trkpt lat="43.1351671927079" lon="-4.89045392722347">
        <ele>1124.52546691895</ele>
        <time>2018-09-02T11:37:20Z</time>
      </trkpt>
      <trkpt lat="43.1351521891012" lon="-4.89037069492498">
        <ele>1124.55744934082</ele>
        <time>2018-09-02T11:37:22Z</time>
      </trkpt>
      <trkpt lat="43.1351311086147" lon="-4.89027748816171">
        <ele>1124.5152130127</ele>
        <time>2018-09-02T11:37:24Z</time>
      </trkpt>
      <trkpt lat="43.1351098604902" lon="-4.89017975517073">
        <ele>1125.17720031738</ele>
        <time>2018-09-02T11:37:26Z</time>
      </trkpt>
      <trkpt lat="43.1350892410084" lon="-4.89008478820779">
        <ele>1125.13972473145</ele>
        <time>2018-09-02T11:37:28Z</time>
      </trkpt>
      <trkpt lat="43.1350713456451" lon="-4.88998764195003">
        <ele>1124.90901184082</ele>
        <time>2018-09-02T11:37:30Z</time>
      </trkpt>
      <trkpt lat="43.1350589404284" lon="-4.88989720121481">
        <ele>1125.69026184082</ele>
        <time>2018-09-02T11:37:32Z</time>
      </trkpt>
      <trkpt lat="43.1350454874738" lon="-4.88978781737843">
        <ele>1124.78340148926</ele>
        <time>2018-09-02T11:37:34Z</time>
      </trkpt>
      <trkpt lat="43.1350274244725" lon="-4.88967474550464">
        <ele>1125.91047668457</ele>
        <time>2018-09-02T11:37:36Z</time>
      </trkpt>
      <trkpt lat="43.1350120855897" lon="-4.88957986236074">
        <ele>1126.31916809082</ele>
        <time>2018-09-02T11:37:38Z</time>
      </trkpt>
      <trkpt lat="43.1350024883106" lon="-4.88950450905123">
        <ele>1125.90986633301</ele>
        <time>2018-09-02T11:37:40Z</time>
      </trkpt>
      <trkpt lat="43.1349809468194" lon="-4.88942714408495">
        <ele>1127.11445617676</ele>
        <time>2018-09-02T11:37:42Z</time>
      </trkpt>
      <trkpt lat="43.134954669553" lon="-4.88935296424189">
        <ele>1128.56269836426</ele>
        <time>2018-09-02T11:37:44Z</time>
      </trkpt>
      <trkpt lat="43.134932164143" lon="-4.88928171806493">
        <ele>1130.0562286377</ele>
        <time>2018-09-02T11:37:46Z</time>
      </trkpt>
      <trkpt lat="43.134912424761" lon="-4.88921994343855">
        <ele>1131.84321594238</ele>
        <time>2018-09-02T11:37:48Z</time>
      </trkpt>
      <trkpt lat="43.1349009834632" lon="-4.88916043192603">
        <ele>1132.40864562988</ele>
        <time>2018-09-02T11:37:50Z</time>
      </trkpt>
      <trkpt lat="43.1348916795506" lon="-4.88907610998013">
        <ele>1130.56343078613</ele>
        <time>2018-09-02T11:37:53Z</time>
      </trkpt>
      <trkpt lat="43.1348968344211" lon="-4.88898818381586">
        <ele>1129.95283508301</ele>
        <time>2018-09-02T11:37:56Z</time>
      </trkpt>
      <trkpt lat="43.13489519995" lon="-4.88891819492438">
        <ele>1130.99848937988</ele>
        <time>2018-09-02T11:37:58Z</time>
      </trkpt>
      <trkpt lat="43.1348812859907" lon="-4.88885759376445">
        <ele>1132.73225402832</ele>
        <time>2018-09-02T11:38:00Z</time>
      </trkpt>
      <trkpt lat="43.1348602893233" lon="-4.88880285993674">
        <ele>1133.81269836426</ele>
        <time>2018-09-02T11:38:02Z</time>
      </trkpt>
      <trkpt lat="43.134823786135" lon="-4.88872976974108">
        <ele>1134.26374816895</ele>
        <time>2018-09-02T11:38:05Z</time>
      </trkpt>
      <trkpt lat="43.1348007778108" lon="-4.88867654465594">
        <ele>1134.83662414551</ele>
        <time>2018-09-02T11:38:07Z</time>
      </trkpt>
      <trkpt lat="43.1347723212495" lon="-4.88861921243825">
        <ele>1136.56025695801</ele>
        <time>2018-09-02T11:38:09Z</time>
      </trkpt>
      <trkpt lat="43.1347431103169" lon="-4.88856296986797">
        <ele>1137.67890930176</ele>
        <time>2018-09-02T11:38:11Z</time>
      </trkpt>
      <trkpt lat="43.134710295166" lon="-4.88851318136313">
        <ele>1138.46882629395</ele>
        <time>2018-09-02T11:38:13Z</time>
      </trkpt>
      <trkpt lat="43.1346780248388" lon="-4.88846699707665">
        <ele>1138.09663391113</ele>
        <time>2018-09-02T11:38:15Z</time>
      </trkpt>
      <trkpt lat="43.1346437428548" lon="-4.88841922022858">
        <ele>1138.06611633301</ele>
        <time>2018-09-02T11:38:17Z</time>
      </trkpt>
      <trkpt lat="43.1346048089146" lon="-4.88837026991405">
        <ele>1139.5708770752</ele>
        <time>2018-09-02T11:38:19Z</time>
      </trkpt>
      <trkpt lat="43.1345570320665" lon="-4.88832903095045">
        <ele>1140.58503723145</ele>
        <time>2018-09-02T11:38:21Z</time>
      </trkpt>
      <trkpt lat="43.1345039746194" lon="-4.88829818554678">
        <ele>1141.65608215332</ele>
        <time>2018-09-02T11:38:23Z</time>
      </trkpt>
      <trkpt lat="43.134451378177" lon="-4.88825552165963">
        <ele>1142.23457336426</ele>
        <time>2018-09-02T11:38:26Z</time>
      </trkpt>
      <trkpt lat="43.1344181858405" lon="-4.8882022965745">
        <ele>1143.46101379395</ele>
        <time>2018-09-02T11:38:28Z</time>
      </trkpt>
      <trkpt lat="43.1343848258659" lon="-4.88814773038485">
        <ele>1143.12886047363</ele>
        <time>2018-09-02T11:38:30Z</time>
      </trkpt>
      <trkpt lat="43.1343555311143" lon="-4.88808947615781">
        <ele>1145.27070617676</ele>
        <time>2018-09-02T11:38:32Z</time>
      </trkpt>
      <trkpt lat="43.1343274098291" lon="-4.88802300766566">
        <ele>1145.41181945801</ele>
        <time>2018-09-02T11:38:34Z</time>
      </trkpt>
      <trkpt lat="43.1343013840198" lon="-4.88795771263995">
        <ele>1146.09968566895</ele>
        <time>2018-09-02T11:38:36Z</time>
      </trkpt>
      <trkpt lat="43.1342767412245" lon="-4.88788981922426">
        <ele>1146.96406555176</ele>
        <time>2018-09-02T11:38:38Z</time>
      </trkpt>
      <trkpt lat="43.1342533138051" lon="-4.88782293163695">
        <ele>1148.13386535645</ele>
        <time>2018-09-02T11:38:40Z</time>
      </trkpt>
      <trkpt lat="43.1342303054809" lon="-4.88775839098253">
        <ele>1149.62544250488</ele>
        <time>2018-09-02T11:38:42Z</time>
      </trkpt>
      <trkpt lat="43.1342077581614" lon="-4.887696197261">
        <ele>1150.19111633301</ele>
        <time>2018-09-02T11:38:44Z</time>
      </trkpt>
      <trkpt lat="43.134178966324" lon="-4.88764272071876">
        <ele>1151.40840148926</ele>
        <time>2018-09-02T11:38:46Z</time>
      </trkpt>
      <trkpt lat="43.1341559999093" lon="-4.88757759333112">
        <ele>1151.80488586426</ele>
        <time>2018-09-02T11:38:49Z</time>
      </trkpt>
      <trkpt lat="43.1341907428979" lon="-4.88752185367503">
        <ele>1153.87910461426</ele>
        <time>2018-09-02T11:45:33Z</time>
      </trkpt>
      <trkpt lat="43.1341947243019" lon="-4.88742881454983">
        <ele>1154.26826477051</ele>
        <time>2018-09-02T11:45:38Z</time>
      </trkpt>
      <trkpt lat="43.1341596041276" lon="-4.8873542156116">
        <ele>1154.23445129395</ele>
        <time>2018-09-02T11:45:40Z</time>
      </trkpt>
      <trkpt lat="43.134127459529" lon="-4.88728296943464">
        <ele>1155.47834777832</ele>
        <time>2018-09-02T11:45:42Z</time>
      </trkpt>
      <trkpt lat="43.1340890704125" lon="-4.88721381873347">
        <ele>1155.94209289551</ele>
        <time>2018-09-02T11:45:44Z</time>
      </trkpt>
      <trkpt lat="43.1340525253146" lon="-4.88713268191077">
        <ele>1156.50593566895</ele>
        <time>2018-09-02T11:45:46Z</time>
      </trkpt>
      <trkpt lat="43.134024445939" lon="-4.8870365414814">
        <ele>1156.99214172363</ele>
        <time>2018-09-02T11:45:48Z</time>
      </trkpt>
      <trkpt lat="43.1339893257647" lon="-4.88694945350744">
        <ele>1156.70246887207</ele>
        <time>2018-09-02T11:45:50Z</time>
      </trkpt>
      <trkpt lat="43.1339413393691" lon="-4.88686781377055">
        <ele>1156.53523254395</ele>
        <time>2018-09-02T11:45:52Z</time>
      </trkpt>
      <trkpt lat="43.1338971248298" lon="-4.88678391091981">
        <ele>1156.53425598145</ele>
        <time>2018-09-02T11:45:54Z</time>
      </trkpt>
      <trkpt lat="43.1338573107898" lon="-4.88670210354485">
        <ele>1155.66255187988</ele>
        <time>2018-09-02T11:45:56Z</time>
      </trkpt>
      <trkpt lat="43.1338189635827" lon="-4.88662633114018">
        <ele>1155.15803527832</ele>
        <time>2018-09-02T11:45:58Z</time>
      </trkpt>
      <trkpt lat="43.1337852264225" lon="-4.88655122928776">
        <ele>1155.69209289551</ele>
        <time>2018-09-02T11:46:00Z</time>
      </trkpt>
      <trkpt lat="43.133749519515" lon="-4.88646439277091">
        <ele>1154.72456359863</ele>
        <time>2018-09-02T11:46:02Z</time>
      </trkpt>
      <trkpt lat="43.1337195961206" lon="-4.88636825234153">
        <ele>1154.94612121582</ele>
        <time>2018-09-02T11:46:04Z</time>
      </trkpt>
      <trkpt lat="43.1336964201584" lon="-4.88627219573118">
        <ele>1155.38667297363</ele>
        <time>2018-09-02T11:46:06Z</time>
      </trkpt>
      <trkpt lat="43.1336800335377" lon="-4.88617437892117">
        <ele>1155.69734191895</ele>
        <time>2018-09-02T11:46:08Z</time>
      </trkpt>
      <trkpt lat="43.1336694723397" lon="-4.88607496954956">
        <ele>1157.27644348145</ele>
        <time>2018-09-02T11:46:10Z</time>
      </trkpt>
      <trkpt lat="43.1336609227984" lon="-4.88598570228078">
        <ele>1158.31245422363</ele>
        <time>2018-09-02T11:46:12Z</time>
      </trkpt>
      <trkpt lat="43.1336506130575" lon="-4.88589727320232">
        <ele>1159.31147766113</ele>
        <time>2018-09-02T11:46:14Z</time>
      </trkpt>
      <trkpt lat="43.1336383335694" lon="-4.88580825739064">
        <ele>1160.46504211426</ele>
        <time>2018-09-02T11:46:16Z</time>
      </trkpt>
      <trkpt lat="43.1336224917724" lon="-4.88572485745408">
        <ele>1160.28437805176</ele>
        <time>2018-09-02T11:46:18Z</time>
      </trkpt>
      <trkpt lat="43.1336033810332" lon="-4.88564246334591">
        <ele>1160.77644348145</ele>
        <time>2018-09-02T11:46:20Z</time>
      </trkpt>
      <trkpt lat="43.1335822167277" lon="-4.88555881195225">
        <ele>1161.47212219238</ele>
        <time>2018-09-02T11:46:22Z</time>
      </trkpt>
      <trkpt lat="43.1335652852833" lon="-4.88547750749149">
        <ele>1161.76997375488</ele>
        <time>2018-09-02T11:46:24Z</time>
      </trkpt>
      <trkpt lat="43.1335555622756" lon="-4.8853993043349">
        <ele>1162.40217590332</ele>
        <time>2018-09-02T11:46:26Z</time>
      </trkpt>
      <trkpt lat="43.1335437857016" lon="-4.88531833515026">
        <ele>1163.06575012207</ele>
        <time>2018-09-02T11:46:28Z</time>
      </trkpt>
      <trkpt lat="43.1335393432929" lon="-4.88523686305143">
        <ele>1163.9566192627</ele>
        <time>2018-09-02T11:46:30Z</time>
      </trkpt>
      <trkpt lat="43.1335420674115" lon="-4.88516083918967">
        <ele>1164.3609161377</ele>
        <time>2018-09-02T11:46:32Z</time>
      </trkpt>
      <trkpt lat="43.1335486052959" lon="-4.88508565351822">
        <ele>1165.50654602051</ele>
        <time>2018-09-02T11:46:34Z</time>
      </trkpt>
      <trkpt lat="43.1335498625814" lon="-4.88501373678901">
        <ele>1166.91706848145</ele>
        <time>2018-09-02T11:46:36Z</time>
      </trkpt>
      <trkpt lat="43.1335489824816" lon="-4.88494425081172">
        <ele>1168.30000305176</ele>
        <time>2018-09-02T11:46:38Z</time>
      </trkpt>
      <trkpt lat="43.1335458392679" lon="-4.8848776146815">
        <ele>1168.62117004395</ele>
        <time>2018-09-02T11:46:40Z</time>
      </trkpt>
      <trkpt lat="43.13353959475" lon="-4.8848139122174">
        <ele>1168.72846984863</ele>
        <time>2018-09-02T11:46:42Z</time>
      </trkpt>
      <trkpt lat="43.1335350685223" lon="-4.88474903628685">
        <ele>1170.41426086426</ele>
        <time>2018-09-02T11:46:44Z</time>
      </trkpt>
      <trkpt lat="43.1335268123477" lon="-4.88465884700872">
        <ele>1171.20356750488</ele>
        <time>2018-09-02T11:46:47Z</time>
      </trkpt>
      <trkpt lat="43.1335251359671" lon="-4.88459464163043">
        <ele>1171.16902160645</ele>
        <time>2018-09-02T11:46:49Z</time>
      </trkpt>
      <trkpt lat="43.1335117668315" lon="-4.8845065478281">
        <ele>1172.26655578613</ele>
        <time>2018-09-02T11:46:52Z</time>
      </trkpt>
      <trkpt lat="43.1335069891467" lon="-4.88444133662142">
        <ele>1172.48139953613</ele>
        <time>2018-09-02T11:46:54Z</time>
      </trkpt>
      <trkpt lat="43.1335092522606" lon="-4.88437377848186">
        <ele>1173.80000305176</ele>
        <time>2018-09-02T11:46:56Z</time>
      </trkpt>
      <trkpt lat="43.1335128145694" lon="-4.8843112494842">
        <ele>1174.92793273926</ele>
        <time>2018-09-02T11:46:58Z</time>
      </trkpt>
      <trkpt lat="43.13351708934" lon="-4.88422064111092">
        <ele>1175.6343536377</ele>
        <time>2018-09-02T11:47:01Z</time>
      </trkpt>
      <trkpt lat="43.1335215736582" lon="-4.88415836357035">
        <ele>1176.24714660645</ele>
        <time>2018-09-02T11:47:03Z</time>
      </trkpt>
      <trkpt lat="43.1335254712432" lon="-4.88409549929656">
        <ele>1177.11140441895</ele>
        <time>2018-09-02T11:47:05Z</time>
      </trkpt>
      <trkpt lat="43.1335276924475" lon="-4.88403355703213">
        <ele>1178.24848937988</ele>
        <time>2018-09-02T11:47:07Z</time>
      </trkpt>
      <trkpt lat="43.1335241720482" lon="-4.88395074382879">
        <ele>1179.42683410645</ele>
        <time>2018-09-02T11:47:10Z</time>
      </trkpt>
      <trkpt lat="43.1335194781824" lon="-4.88386533223547">
        <ele>1180.06355285645</ele>
        <time>2018-09-02T11:47:13Z</time>
      </trkpt>
      <trkpt lat="43.1335148681357" lon="-4.88378302194633">
        <ele>1181.03889465332</ele>
        <time>2018-09-02T11:47:16Z</time>
      </trkpt>
      <trkpt lat="43.133509210351" lon="-4.88370272331395">
        <ele>1182.15547180176</ele>
        <time>2018-09-02T11:47:19Z</time>
      </trkpt>
      <trkpt lat="43.133507743518" lon="-4.88362510689058">
        <ele>1181.91230773926</ele>
        <time>2018-09-02T11:47:22Z</time>
      </trkpt>
      <trkpt lat="43.1335020857333" lon="-4.88354447298207">
        <ele>1183.95930480957</ele>
        <time>2018-09-02T11:47:25Z</time>
      </trkpt>
      <trkpt lat="43.1334960507631" lon="-4.88346409053065">
        <ele>1185.90852355957</ele>
        <time>2018-09-02T11:47:28Z</time>
      </trkpt>
      <trkpt lat="43.1335014570906" lon="-4.88337809220411">
        <ele>1186.67329406738</ele>
        <time>2018-09-02T11:47:31Z</time>
      </trkpt>
      <trkpt lat="43.1335026724666" lon="-4.88331631757774">
        <ele>1188.82563781738</ele>
        <time>2018-09-02T11:47:33Z</time>
      </trkpt>
      <trkpt lat="43.1335061090469" lon="-4.88322956487991">
        <ele>1190.59260559082</ele>
        <time>2018-09-02T11:47:36Z</time>
      </trkpt>
      <trkpt lat="43.1335097551747" lon="-4.88314256072499">
        <ele>1190.97200012207</ele>
        <time>2018-09-02T11:47:39Z</time>
      </trkpt>
      <trkpt lat="43.1335074082419" lon="-4.88306201063551">
        <ele>1193.97041320801</ele>
        <time>2018-09-02T11:47:42Z</time>
      </trkpt>
      <trkpt lat="43.1335107190936" lon="-4.88297307864286">
        <ele>1195.82160949707</ele>
        <time>2018-09-02T11:47:45Z</time>
      </trkpt>
      <trkpt lat="43.1335137365788" lon="-4.88288423046924">
        <ele>1196.26679992676</ele>
        <time>2018-09-02T11:47:48Z</time>
      </trkpt>
      <trkpt lat="43.1335060671374" lon="-4.88282044418611">
        <ele>1197.1245880127</ele>
        <time>2018-09-02T11:47:50Z</time>
      </trkpt>
      <trkpt lat="43.1334784487664" lon="-4.88276093267359">
        <ele>1197.21846008301</ele>
        <time>2018-09-02T11:47:52Z</time>
      </trkpt>
      <trkpt lat="43.133439011912" lon="-4.88270485774137">
        <ele>1197.27253723145</ele>
        <time>2018-09-02T11:47:54Z</time>
      </trkpt>
      <trkpt lat="43.1333975634008" lon="-4.88265288994171">
        <ele>1198.17500305176</ele>
        <time>2018-09-02T11:47:56Z</time>
      </trkpt>
      <trkpt lat="43.1333513372048" lon="-4.88260569982685">
        <ele>1198.2281036377</ele>
        <time>2018-09-02T11:47:58Z</time>
      </trkpt>
      <trkpt lat="43.1332967710152" lon="-4.88256680779614">
        <ele>1197.68782043457</ele>
        <time>2018-09-02T11:48:00Z</time>
      </trkpt>
      <trkpt lat="43.1332409056305" lon="-4.88253680058278">
        <ele>1198.28059387207</ele>
        <time>2018-09-02T11:48:02Z</time>
      </trkpt>
      <trkpt lat="43.1331784604519" lon="-4.88250385970332">
        <ele>1199.54768371582</ele>
        <time>2018-09-02T11:48:04Z</time>
      </trkpt>
      <trkpt lat="43.1331146322592" lon="-4.88246882334806">
        <ele>1198.67866516113</ele>
        <time>2018-09-02T11:48:06Z</time>
      </trkpt>
      <trkpt lat="43.1330508459761" lon="-4.88243546337344">
        <ele>1198.93598937988</ele>
        <time>2018-09-02T11:48:08Z</time>
      </trkpt>
      <trkpt lat="43.1329867663264" lon="-4.88240361214139">
        <ele>1198.01997375488</ele>
        <time>2018-09-02T11:48:10Z</time>
      </trkpt>
      <trkpt lat="43.1329239858716" lon="-4.88237259909965">
        <ele>1197.8472442627</ele>
        <time>2018-09-02T11:48:12Z</time>
      </trkpt>
      <trkpt lat="43.1328623788833" lon="-4.88234552555241">
        <ele>1197.7398223877</ele>
        <time>2018-09-02T11:48:14Z</time>
      </trkpt>
      <trkpt lat="43.1328021968185" lon="-4.8823166918055">
        <ele>1198.73701477051</ele>
        <time>2018-09-02T11:48:16Z</time>
      </trkpt>
      <trkpt lat="43.1327488040953" lon="-4.88227293827094">
        <ele>1198.63606262207</ele>
        <time>2018-09-02T11:48:18Z</time>
      </trkpt>
      <trkpt lat="43.1326949084579" lon="-4.88221510313906">
        <ele>1199.49189758301</ele>
        <time>2018-09-02T11:48:20Z</time>
      </trkpt>
      <trkpt lat="43.1326457905053" lon="-4.88215131685592">
        <ele>1200.34492492676</ele>
        <time>2018-09-02T11:48:22Z</time>
      </trkpt>
      <trkpt lat="43.1326012825995" lon="-4.88208007067897">
        <ele>1201.02607727051</ele>
        <time>2018-09-02T11:48:24Z</time>
      </trkpt>
      <trkpt lat="43.1325538829371" lon="-4.88200614229299">
        <ele>1201.37397766113</ele>
        <time>2018-09-02T11:48:26Z</time>
      </trkpt>
      <trkpt lat="43.1325053936272" lon="-4.88193145953573">
        <ele>1201.90425109863</ele>
        <time>2018-09-02T11:48:28Z</time>
      </trkpt>
      <trkpt lat="43.1324569881364" lon="-4.88185635768332">
        <ele>1202.04902648926</ele>
        <time>2018-09-02T11:48:30Z</time>
      </trkpt>
      <trkpt lat="43.1324092531978" lon="-4.88178167492606">
        <ele>1202.54853820801</ele>
        <time>2018-09-02T11:48:32Z</time>
      </trkpt>
      <trkpt lat="43.1323633203685" lon="-4.88170565106429">
        <ele>1202.86824035645</ele>
        <time>2018-09-02T11:48:34Z</time>
      </trkpt>
      <trkpt lat="43.1323168846249" lon="-4.8816311359451">
        <ele>1203.75044250488</ele>
        <time>2018-09-02T11:48:36Z</time>
      </trkpt>
      <trkpt lat="43.1322690239578" lon="-4.8815587163017">
        <ele>1204.34785461426</ele>
        <time>2018-09-02T11:48:38Z</time>
      </trkpt>
      <trkpt lat="43.1322197383671" lon="-4.88148654811539">
        <ele>1204.92170715332</ele>
        <time>2018-09-02T11:48:40Z</time>
      </trkpt>
      <trkpt lat="43.1321715005144" lon="-4.88141597249068">
        <ele>1205.38276672363</ele>
        <time>2018-09-02T11:48:42Z</time>
      </trkpt>
      <trkpt lat="43.132121502462" lon="-4.88134816289403">
        <ele>1205.81025695801</ele>
        <time>2018-09-02T11:48:44Z</time>
      </trkpt>
      <trkpt lat="43.1320702471241" lon="-4.88127867691673">
        <ele>1206.1743927002</ele>
        <time>2018-09-02T11:48:46Z</time>
      </trkpt>
      <trkpt lat="43.1320172315865" lon="-4.88121002912976">
        <ele>1206.37776184082</ele>
        <time>2018-09-02T11:48:48Z</time>
      </trkpt>
      <trkpt lat="43.1319642579585" lon="-4.88114976324596">
        <ele>1206.82905578613</ele>
        <time>2018-09-02T11:48:50Z</time>
      </trkpt>
      <trkpt lat="43.1319043692603" lon="-4.88109033555247">
        <ele>1207.27632141113</ele>
        <time>2018-09-02T11:48:52Z</time>
      </trkpt>
      <trkpt lat="43.1318421755388" lon="-4.88103493117251">
        <ele>1208.25080871582</ele>
        <time>2018-09-02T11:48:54Z</time>
      </trkpt>
      <trkpt lat="43.1317762099608" lon="-4.88098598085798">
        <ele>1208.63691711426</ele>
        <time>2018-09-02T11:48:56Z</time>
      </trkpt>
      <trkpt lat="43.1317058019742" lon="-4.88094122149505">
        <ele>1209.49287414551</ele>
        <time>2018-09-02T11:48:58Z</time>
      </trkpt>
      <trkpt lat="43.1316346815258" lon="-4.88089612685599">
        <ele>1210.21589660645</ele>
        <time>2018-09-02T11:49:00Z</time>
      </trkpt>
      <trkpt lat="43.1315646926343" lon="-4.88084918819822">
        <ele>1211.36311340332</ele>
        <time>2018-09-02T11:49:02Z</time>
      </trkpt>
      <trkpt lat="43.1314943265572" lon="-4.88079805858888">
        <ele>1212.38887023926</ele>
        <time>2018-09-02T11:49:04Z</time>
      </trkpt>
      <trkpt lat="43.1314268941461" lon="-4.88074751571275">
        <ele>1212.78266906738</ele>
        <time>2018-09-02T11:49:06Z</time>
      </trkpt>
      <trkpt lat="43.1313601322874" lon="-4.88070300780691">
        <ele>1214.1685333252</ele>
        <time>2018-09-02T11:49:08Z</time>
      </trkpt>
      <trkpt lat="43.1312920293241" lon="-4.88066260703363">
        <ele>1215.43757629395</ele>
        <time>2018-09-02T11:49:10Z</time>
      </trkpt>
      <trkpt lat="43.1312250579178" lon="-4.88061952405132">
        <ele>1216.02278137207</ele>
        <time>2018-09-02T11:49:12Z</time>
      </trkpt>
      <trkpt lat="43.1311605172633" lon="-4.88057300448872">
        <ele>1216.14436340332</ele>
        <time>2018-09-02T11:49:14Z</time>
      </trkpt>
      <trkpt lat="43.1310974015325" lon="-4.88052430563129">
        <ele>1216.33003234863</ele>
        <time>2018-09-02T11:49:16Z</time>
      </trkpt>
      <trkpt lat="43.1310330285161" lon="-4.88047895953514">
        <ele>1216.59284973145</ele>
        <time>2018-09-02T11:49:18Z</time>
      </trkpt>
      <trkpt lat="43.1309701223328" lon="-4.88043193705834">
        <ele>1216.71894836426</ele>
        <time>2018-09-02T11:49:20Z</time>
      </trkpt>
      <trkpt lat="43.1309082638874" lon="-4.88038541749574">
        <ele>1217.0318145752</ele>
        <time>2018-09-02T11:49:22Z</time>
      </trkpt>
      <trkpt lat="43.130847704637" lon="-4.880335880448">
        <ele>1217.02534484863</ele>
        <time>2018-09-02T11:49:24Z</time>
      </trkpt>
      <trkpt lat="43.1307848822727" lon="-4.88028785214283">
        <ele>1217.69697570801</ele>
        <time>2018-09-02T11:49:26Z</time>
      </trkpt>
      <trkpt lat="43.1307211798086" lon="-4.88024384715118">
        <ele>1218.18989562988</ele>
        <time>2018-09-02T11:49:28Z</time>
      </trkpt>
      <trkpt lat="43.1306543341308" lon="-4.88020084798791">
        <ele>1218.83821105957</ele>
        <time>2018-09-02T11:49:30Z</time>
      </trkpt>
      <trkpt lat="43.1305885361909" lon="-4.88015583716787">
        <ele>1219.20307922363</ele>
        <time>2018-09-02T11:49:32Z</time>
      </trkpt>
      <trkpt lat="43.130522654432" lon="-4.88011166453816">
        <ele>1219.68525695801</ele>
        <time>2018-09-02T11:49:34Z</time>
      </trkpt>
      <trkpt lat="43.13045270745" lon="-4.88007629290678">
        <ele>1220.83467102051</ele>
        <time>2018-09-02T11:49:36Z</time>
      </trkpt>
      <trkpt lat="43.1303821737348" lon="-4.88004234619893">
        <ele>1221.14460754395</ele>
        <time>2018-09-02T11:49:38Z</time>
      </trkpt>
      <trkpt lat="43.1303109275579" lon="-4.88000479527272">
        <ele>1221.64497375488</ele>
        <time>2018-09-02T11:49:40Z</time>
      </trkpt>
      <trkpt lat="43.1302364124387" lon="-4.87997235730745">
        <ele>1222.26045227051</ele>
        <time>2018-09-02T11:49:42Z</time>
      </trkpt>
      <trkpt lat="43.1301652919903" lon="-4.87994587049343">
        <ele>1222.52668762207</ele>
        <time>2018-09-02T11:49:44Z</time>
      </trkpt>
      <trkpt lat="43.1300980272173" lon="-4.87992005423166">
        <ele>1222.15937805176</ele>
        <time>2018-09-02T11:49:46Z</time>
      </trkpt>
      <trkpt lat="43.1300339894771" lon="-4.87989499234118">
        <ele>1219.97871398926</ele>
        <time>2018-09-02T11:49:48Z</time>
      </trkpt>
      <trkpt lat="43.1299687782704" lon="-4.8798694275365">
        <ele>1220.27742004395</ele>
        <time>2018-09-02T11:49:50Z</time>
      </trkpt>
      <trkpt lat="43.1299046567112" lon="-4.87984428182699">
        <ele>1220.79292297363</ele>
        <time>2018-09-02T11:49:52Z</time>
      </trkpt>
      <trkpt lat="43.1298387749522" lon="-4.87981645390846">
        <ele>1220.55476379395</ele>
        <time>2018-09-02T11:49:54Z</time>
      </trkpt>
      <trkpt lat="43.1297709234461" lon="-4.87978762016155">
        <ele>1222.12580871582</ele>
        <time>2018-09-02T11:49:56Z</time>
      </trkpt>
      <trkpt lat="43.1297037005826" lon="-4.87976348028041">
        <ele>1222.5542755127</ele>
        <time>2018-09-02T11:49:58Z</time>
      </trkpt>
      <trkpt lat="43.1296401657566" lon="-4.8797364905522">
        <ele>1221.7818145752</ele>
        <time>2018-09-02T11:50:00Z</time>
      </trkpt>
      <trkpt lat="43.1295745354547" lon="-4.87970916554786">
        <ele>1223.18989562988</ele>
        <time>2018-09-02T11:50:02Z</time>
      </trkpt>
      <trkpt lat="43.1295070611342" lon="-4.87968410365738">
        <ele>1223.98860168457</ele>
        <time>2018-09-02T11:50:04Z</time>
      </trkpt>
      <trkpt lat="43.1294361083239" lon="-4.87966893241264">
        <ele>1223.48054504395</ele>
        <time>2018-09-02T11:50:06Z</time>
      </trkpt>
      <trkpt lat="43.1293631019472" lon="-4.87966264598526">
        <ele>1223.99690246582</ele>
        <time>2018-09-02T11:50:08Z</time>
      </trkpt>
      <trkpt lat="43.1292903470277" lon="-4.87966650166072">
        <ele>1223.55403137207</ele>
        <time>2018-09-02T11:50:10Z</time>
      </trkpt>
      <trkpt lat="43.1292232498928" lon="-4.87968611531414">
        <ele>1223.51301574707</ele>
        <time>2018-09-02T11:50:12Z</time>
      </trkpt>
      <trkpt lat="43.1291590445145" lon="-4.87972928211547">
        <ele>1225.84590148926</ele>
        <time>2018-09-02T11:50:14Z</time>
      </trkpt>
      <trkpt lat="43.1290975632548" lon="-4.87978502177157">
        <ele>1225.97163391113</ele>
        <time>2018-09-02T11:50:16Z</time>
      </trkpt>
      <trkpt lat="43.1290481519356" lon="-4.87985266373016">
        <ele>1226.98835754395</ele>
        <time>2018-09-02T11:50:18Z</time>
      </trkpt>
      <trkpt lat="43.1290036859392" lon="-4.8799281008587">
        <ele>1226.38813781738</ele>
        <time>2018-09-02T11:50:20Z</time>
      </trkpt>
      <trkpt lat="43.1289559929102" lon="-4.87999322824635">
        <ele>1225.76533508301</ele>
        <time>2018-09-02T11:50:22Z</time>
      </trkpt>
      <trkpt lat="43.1289108563616" lon="-4.88005709834851">
        <ele>1225.61006164551</ele>
        <time>2018-09-02T11:50:24Z</time>
      </trkpt>
      <trkpt lat="43.1288606906711" lon="-4.88012197427906">
        <ele>1226.57173156738</ele>
        <time>2018-09-02T11:50:26Z</time>
      </trkpt>
      <trkpt lat="43.1288135005563" lon="-4.88018450327672">
        <ele>1226.68428039551</ele>
        <time>2018-09-02T11:50:28Z</time>
      </trkpt>
      <trkpt lat="43.1287580961763" lon="-4.88024250604667">
        <ele>1227.17292785645</ele>
        <time>2018-09-02T11:50:30Z</time>
      </trkpt>
      <trkpt lat="43.1286936393409" lon="-4.88028734922864">
        <ele>1228.42451477051</ele>
        <time>2018-09-02T11:50:32Z</time>
      </trkpt>
      <trkpt lat="43.1286269613012" lon="-4.88032263704099">
        <ele>1230.12483215332</ele>
        <time>2018-09-02T11:50:34Z</time>
      </trkpt>
      <trkpt lat="43.1285596965282" lon="-4.88034836948372">
        <ele>1231.56770324707</ele>
        <time>2018-09-02T11:50:36Z</time>
      </trkpt>
      <trkpt lat="43.1284894980892" lon="-4.88036387600459">
        <ele>1233.33442687988</ele>
        <time>2018-09-02T11:50:38Z</time>
      </trkpt>
      <trkpt lat="43.1284197187453" lon="-4.8803636245475">
        <ele>1232.05024719238</ele>
        <time>2018-09-02T11:50:40Z</time>
      </trkpt>
      <trkpt lat="43.1283520348772" lon="-4.880341161047">
        <ele>1232.46028137207</ele>
        <time>2018-09-02T11:50:42Z</time>
      </trkpt>
      <trkpt lat="43.1282874523132" lon="-4.8803049512253">
        <ele>1232.52131652832</ele>
        <time>2018-09-02T11:50:44Z</time>
      </trkpt>
      <trkpt lat="43.1282259710535" lon="-4.88025885075785">
        <ele>1233.0855255127</ele>
        <time>2018-09-02T11:50:46Z</time>
      </trkpt>
      <trkpt lat="43.1281662919029" lon="-4.88020780496754">
        <ele>1234.1792755127</ele>
        <time>2018-09-02T11:50:48Z</time>
      </trkpt>
      <trkpt lat="43.128107241395" lon="-4.88015181385435">
        <ele>1234.03303527832</ele>
        <time>2018-09-02T11:50:50Z</time>
      </trkpt>
      <trkpt lat="43.1280506216391" lon="-4.88009330817021">
        <ele>1233.93989562988</ele>
        <time>2018-09-02T11:50:52Z</time>
      </trkpt>
      <trkpt lat="43.1279922835931" lon="-4.88003329374351">
        <ele>1234.33601379395</ele>
        <time>2018-09-02T11:50:54Z</time>
      </trkpt>
      <trkpt lat="43.1279328978091" lon="-4.87997688353516">
        <ele>1233.58174133301</ele>
        <time>2018-09-02T11:50:56Z</time>
      </trkpt>
      <trkpt lat="43.1278762361436" lon="-4.87992097624101">
        <ele>1234.35908508301</ele>
        <time>2018-09-02T11:50:58Z</time>
      </trkpt>
      <trkpt lat="43.1278197421163" lon="-4.87986699678458">
        <ele>1234.41987609863</ele>
        <time>2018-09-02T11:51:00Z</time>
      </trkpt>
      <trkpt lat="43.1277717138111" lon="-4.87982014194585">
        <ele>1236.25129699707</ele>
        <time>2018-09-02T11:51:02Z</time>
      </trkpt>
      <trkpt lat="43.1277177762642" lon="-4.87977043726005">
        <ele>1238.69343566895</ele>
        <time>2018-09-02T11:51:04Z</time>
      </trkpt>
      <trkpt lat="43.1276652636408" lon="-4.8797195591078">
        <ele>1238.65827941895</ele>
        <time>2018-09-02T11:51:06Z</time>
      </trkpt>
      <trkpt lat="43.1276117032795" lon="-4.87966323271848">
        <ele>1238.28547668457</ele>
        <time>2018-09-02T11:51:08Z</time>
      </trkpt>
      <trkpt lat="43.1275577657326" lon="-4.87960489467241">
        <ele>1241.05805969238</ele>
        <time>2018-09-02T11:51:10Z</time>
      </trkpt>
      <trkpt lat="43.1275009364291" lon="-4.87954907119729">
        <ele>1240.63764953613</ele>
        <time>2018-09-02T11:51:12Z</time>
      </trkpt>
      <trkpt lat="43.127443646121" lon="-4.87949400209345">
        <ele>1239.96504211426</ele>
        <time>2018-09-02T11:51:14Z</time>
      </trkpt>
      <trkpt lat="43.1273797341093" lon="-4.8794344067619">
        <ele>1240.77937316895</ele>
        <time>2018-09-02T11:51:16Z</time>
      </trkpt>
      <trkpt lat="43.1273224857106" lon="-4.87937808037259">
        <ele>1243.19319152832</ele>
        <time>2018-09-02T11:51:18Z</time>
      </trkpt>
      <trkpt lat="43.1272678357019" lon="-4.87932217307843">
        <ele>1243.36946105957</ele>
        <time>2018-09-02T11:51:20Z</time>
      </trkpt>
      <trkpt lat="43.1272007804766" lon="-4.87926324829914">
        <ele>1240.21211242676</ele>
        <time>2018-09-02T11:51:22Z</time>
      </trkpt>
      <trkpt lat="43.1271452084585" lon="-4.87920926884271">
        <ele>1241.10127258301</ele>
        <time>2018-09-02T11:51:24Z</time>
      </trkpt>
      <trkpt lat="43.1270847749367" lon="-4.879154535015">
        <ele>1242.15669250488</ele>
        <time>2018-09-02T11:51:26Z</time>
      </trkpt>
      <trkpt lat="43.1270221202105" lon="-4.87910508178629">
        <ele>1241.84748840332</ele>
        <time>2018-09-02T11:51:28Z</time>
      </trkpt>
      <trkpt lat="43.126964075531" lon="-4.87905638292886">
        <ele>1241.1226348877</ele>
        <time>2018-09-02T11:51:30Z</time>
      </trkpt>
      <trkpt lat="43.126904689747" lon="-4.87901438959397">
        <ele>1241.35639953613</ele>
        <time>2018-09-02T11:51:32Z</time>
      </trkpt>
      <trkpt lat="43.1268455973297" lon="-4.87898421474256">
        <ele>1239.91963195801</ele>
        <time>2018-09-02T11:51:34Z</time>
      </trkpt>
      <trkpt lat="43.1267886422976" lon="-4.87896887585975">
        <ele>1239.18672180176</ele>
        <time>2018-09-02T11:51:36Z</time>
      </trkpt>
      <trkpt lat="43.126728795509" lon="-4.8789645172701">
        <ele>1238.4976348877</ele>
        <time>2018-09-02T11:51:38Z</time>
      </trkpt>
      <trkpt lat="43.1266709184676" lon="-4.87897365354456">
        <ele>1238.9907989502</ele>
        <time>2018-09-02T11:51:40Z</time>
      </trkpt>
      <trkpt lat="43.1266189925774" lon="-4.87900357693888">
        <ele>1239.11408996582</ele>
        <time>2018-09-02T11:51:42Z</time>
      </trkpt>
      <trkpt lat="43.1265692040726" lon="-4.87904950976826">
        <ele>1240.51557922363</ele>
        <time>2018-09-02T11:51:44Z</time>
      </trkpt>
      <trkpt lat="43.126521469134" lon="-4.8791130445943">
        <ele>1241.80378723145</ele>
        <time>2018-09-02T11:51:46Z</time>
      </trkpt>
      <trkpt lat="43.1264821160986" lon="-4.87917951308645">
        <ele>1242.33918762207</ele>
        <time>2018-09-02T11:51:48Z</time>
      </trkpt>
      <trkpt lat="43.1264404580399" lon="-4.87925235182501">
        <ele>1243.31782531738</ele>
        <time>2018-09-02T11:51:50Z</time>
      </trkpt>
      <trkpt lat="43.126401146914" lon="-4.87932460383035">
        <ele>1244.00752258301</ele>
        <time>2018-09-02T11:51:52Z</time>
      </trkpt>
      <trkpt lat="43.1263661105587" lon="-4.87939123996057">
        <ele>1244.50569152832</ele>
        <time>2018-09-02T11:51:54Z</time>
      </trkpt>
      <trkpt lat="43.126331116113" lon="-4.87945703790046">
        <ele>1245.75263977051</ele>
        <time>2018-09-02T11:51:56Z</time>
      </trkpt>
      <trkpt lat="43.126291385892" lon="-4.87952493131615">
        <ele>1247.42939758301</ele>
        <time>2018-09-02T11:51:58Z</time>
      </trkpt>
      <trkpt lat="43.1262534158706" lon="-4.87959424965538">
        <ele>1247.92951965332</ele>
        <time>2018-09-02T11:52:00Z</time>
      </trkpt>
      <trkpt lat="43.1262145657494" lon="-4.87966239452816">
        <ele>1249.12397766113</ele>
        <time>2018-09-02T11:52:02Z</time>
      </trkpt>
      <trkpt lat="43.1261705188482" lon="-4.87973229960062">
        <ele>1250.39924621582</ele>
        <time>2018-09-02T11:52:04Z</time>
      </trkpt>
      <trkpt lat="43.1261304114416" lon="-4.87979776226439">
        <ele>1251.0572052002</ele>
        <time>2018-09-02T11:52:06Z</time>
      </trkpt>
      <trkpt lat="43.1260876637354" lon="-4.87986003980495">
        <ele>1252.40156555176</ele>
        <time>2018-09-02T11:52:08Z</time>
      </trkpt>
      <trkpt lat="43.126039216335" lon="-4.87991494127072">
        <ele>1253.67207336426</ele>
        <time>2018-09-02T11:52:10Z</time>
      </trkpt>
      <trkpt lat="43.1259878352686" lon="-4.8799595329956">
        <ele>1254.80146789551</ele>
        <time>2018-09-02T11:52:12Z</time>
      </trkpt>
      <trkpt lat="43.1259336043551" lon="-4.87999289297022">
        <ele>1255.2310333252</ele>
        <time>2018-09-02T11:52:14Z</time>
      </trkpt>
      <trkpt lat="43.1258767750516" lon="-4.88001124933816">
        <ele>1255.5601348877</ele>
        <time>2018-09-02T11:52:16Z</time>
      </trkpt>
      <trkpt lat="43.1258174311771" lon="-4.88001787104167">
        <ele>1255.79145812988</ele>
        <time>2018-09-02T11:52:18Z</time>
      </trkpt>
      <trkpt lat="43.1257522199705" lon="-4.88001015969075">
        <ele>1255.65046691895</ele>
        <time>2018-09-02T11:52:20Z</time>
      </trkpt>
      <trkpt lat="43.12569166072" lon="-4.87998752855219">
        <ele>1255.80244445801</ele>
        <time>2018-09-02T11:52:22Z</time>
      </trkpt>
      <trkpt lat="43.1256307661935" lon="-4.87995349802531">
        <ele>1255.24555969238</ele>
        <time>2018-09-02T11:52:24Z</time>
      </trkpt>
      <trkpt lat="43.1255737692519" lon="-4.87990714610077">
        <ele>1255.77351379395</ele>
        <time>2018-09-02T11:52:26Z</time>
      </trkpt>
      <trkpt lat="43.1255438877671" lon="-4.8798572737769">
        <ele>1257.23310852051</ele>
        <time>2018-09-02T11:52:28Z</time>
      </trkpt>
      <trkpt lat="43.1255180295958" lon="-4.87978384830512">
        <ele>1258.60871887207</ele>
        <time>2018-09-02T11:52:31Z</time>
      </trkpt>
      <trkpt lat="43.1254872680112" lon="-4.87970128655888">
        <ele>1260.38301086426</ele>
        <time>2018-09-02T11:52:34Z</time>
      </trkpt>
      <trkpt lat="43.1254720967665" lon="-4.87963649444736">
        <ele>1260.75862121582</ele>
        <time>2018-09-02T11:52:36Z</time>
      </trkpt>
      <trkpt lat="43.1254635472252" lon="-4.87955024466373">
        <ele>1262.26338195801</ele>
        <time>2018-09-02T11:52:39Z</time>
      </trkpt>
      <trkpt lat="43.1254579313501" lon="-4.87946198322333">
        <ele>1262.44111633301</ele>
        <time>2018-09-02T11:52:42Z</time>
      </trkpt>
      <trkpt lat="43.1254116213351" lon="-4.87941160798527">
        <ele>1263.86738586426</ele>
        <time>2018-09-02T11:52:45Z</time>
      </trkpt>
      <trkpt lat="43.1253583124309" lon="-4.87943868153252">
        <ele>1263.10517883301</ele>
        <time>2018-09-02T11:52:47Z</time>
      </trkpt>
      <trkpt lat="43.1253342982783" lon="-4.87949953414954">
        <ele>1265.11946105957</ele>
        <time>2018-09-02T11:52:50Z</time>
      </trkpt>
      <trkpt lat="43.12530559026" lon="-4.87956969067909">
        <ele>1265.16206359863</ele>
        <time>2018-09-02T11:52:53Z</time>
      </trkpt>
      <trkpt lat="43.1252824142977" lon="-4.87963875756122">
        <ele>1267.19636535645</ele>
        <time>2018-09-02T11:52:56Z</time>
      </trkpt>
      <trkpt lat="43.1252621720015" lon="-4.87970095128275">
        <ele>1268.80708312988</ele>
        <time>2018-09-02T11:53:00Z</time>
      </trkpt>
      <trkpt lat="43.1252578972309" lon="-4.87977010198392">
        <ele>1267.49629211426</ele>
        <time>2018-09-02T11:53:03Z</time>
      </trkpt>
      <trkpt lat="43.1252635550156" lon="-4.87983925268508">
        <ele>1268.36628723145</ele>
        <time>2018-09-02T11:53:07Z</time>
      </trkpt>
      <trkpt lat="43.1252239086135" lon="-4.87989918329276">
        <ele>1267.86909484863</ele>
        <time>2018-09-02T11:53:11Z</time>
      </trkpt>
      <trkpt lat="43.1251848489448" lon="-4.87996146083333">
        <ele>1268.03266906738</ele>
        <time>2018-09-02T11:53:14Z</time>
      </trkpt>
      <trkpt lat="43.1251581106737" lon="-4.88002080470778">
        <ele>1270.0181427002</ele>
        <time>2018-09-02T11:53:17Z</time>
      </trkpt>
      <trkpt lat="43.1251348508924" lon="-4.88007679582097">
        <ele>1272.78645324707</ele>
        <time>2018-09-02T11:53:20Z</time>
      </trkpt>
      <trkpt lat="43.125097048509" lon="-4.88012515940227">
        <ele>1274.01948547363</ele>
        <time>2018-09-02T11:53:23Z</time>
      </trkpt>
      <trkpt lat="43.1250468409091" lon="-4.88016782328941">
        <ele>1274.07856750488</ele>
        <time>2018-09-02T11:53:27Z</time>
      </trkpt>
      <trkpt lat="43.12499654949" lon="-4.88020487130143">
        <ele>1277.06221008301</ele>
        <time>2018-09-02T11:53:31Z</time>
      </trkpt>
      <trkpt lat="43.1249493174656" lon="-4.88021895289876">
        <ele>1277.27180480957</ele>
        <time>2018-09-02T11:53:34Z</time>
      </trkpt>
      <trkpt lat="43.1249005347892" lon="-4.88022347912647">
        <ele>1277.88972473145</ele>
        <time>2018-09-02T11:53:37Z</time>
      </trkpt>
      <trkpt lat="43.1248317612737" lon="-4.88022347912647">
        <ele>1278.53498840332</ele>
        <time>2018-09-02T11:53:40Z</time>
      </trkpt>
      <trkpt lat="43.1247850321635" lon="-4.88021660596587">
        <ele>1278.99165344238</ele>
        <time>2018-09-02T11:53:42Z</time>
      </trkpt>
      <trkpt lat="43.1247313879832" lon="-4.88020218909241">
        <ele>1281.10078430176</ele>
        <time>2018-09-02T11:53:45Z</time>
      </trkpt>
      <trkpt lat="43.1246856647014" lon="-4.88019539975084">
        <ele>1281.90754699707</ele>
        <time>2018-09-02T11:53:47Z</time>
      </trkpt>
      <trkpt lat="43.1246395642339" lon="-4.88019112498023">
        <ele>1282.4927520752</ele>
        <time>2018-09-02T11:53:49Z</time>
      </trkpt>
      <trkpt lat="43.1245753588557" lon="-4.88020084798791">
        <ele>1284.42842102051</ele>
        <time>2018-09-02T11:53:52Z</time>
      </trkpt>
      <trkpt lat="43.1245180685475" lon="-4.88021191210009">
        <ele>1284.06575012207</ele>
        <time>2018-09-02T11:53:55Z</time>
      </trkpt>
      <trkpt lat="43.1244603172346" lon="-4.88021467812814">
        <ele>1284.06440734863</ele>
        <time>2018-09-02T11:53:58Z</time>
      </trkpt>
      <trkpt lat="43.1244133366673" lon="-4.88020193763532">
        <ele>1284.57551574707</ele>
        <time>2018-09-02T11:54:00Z</time>
      </trkpt>
      <trkpt lat="43.124367403838" lon="-4.88019246608473">
        <ele>1285.83894348145</ele>
        <time>2018-09-02T11:54:02Z</time>
      </trkpt>
      <trkpt lat="43.1243157713144" lon="-4.88019565120794">
        <ele>1286.79231262207</ele>
        <time>2018-09-02T11:54:04Z</time>
      </trkpt>
      <trkpt lat="43.1242563436209" lon="-4.88018609583832">
        <ele>1286.74775695801</ele>
        <time>2018-09-02T11:54:07Z</time>
      </trkpt>
      <trkpt lat="43.1242103269725" lon="-4.88017662428774">
        <ele>1286.38667297363</ele>
        <time>2018-09-02T11:54:09Z</time>
      </trkpt>
      <trkpt lat="43.124164058867" lon="-4.8801736068026">
        <ele>1287.80488586426</ele>
        <time>2018-09-02T11:54:12Z</time>
      </trkpt>
      <trkpt lat="43.1241159048333" lon="-4.88014854491211">
        <ele>1287.94087219238</ele>
        <time>2018-09-02T11:54:14Z</time>
      </trkpt>
      <trkpt lat="43.1240649847715" lon="-4.88011225127138">
        <ele>1287.45210266113</ele>
        <time>2018-09-02T11:54:16Z</time>
      </trkpt>
      <trkpt lat="43.1240030005976" lon="-4.88009397872247">
        <ele>1286.25813293457</ele>
        <time>2018-09-02T11:54:18Z</time>
      </trkpt>
      <trkpt lat="43.123951116617" lon="-4.88008928485669">
        <ele>1287.15364074707</ele>
        <time>2018-09-02T11:54:20Z</time>
      </trkpt>
      <trkpt lat="43.1238881685241" lon="-4.88007880747773">
        <ele>1287.73677062988</ele>
        <time>2018-09-02T11:54:23Z</time>
      </trkpt>
      <trkpt lat="43.1238325545966" lon="-4.88004804589309">
        <ele>1288.14570617676</ele>
        <time>2018-09-02T11:54:26Z</time>
      </trkpt>
      <trkpt lat="43.1237880466907" lon="-4.88002558239259">
        <ele>1289.75581359863</ele>
        <time>2018-09-02T11:54:28Z</time>
      </trkpt>
      <trkpt lat="43.1237352407008" lon="-4.87998912111379">
        <ele>1290.41401672363</ele>
        <time>2018-09-02T11:54:30Z</time>
      </trkpt>
      <trkpt lat="43.1236881344049" lon="-4.87995198928274">
        <ele>1289.70491027832</ele>
        <time>2018-09-02T11:54:32Z</time>
      </trkpt>
      <trkpt lat="43.1236409023806" lon="-4.87991569564201">
        <ele>1289.4097442627</ele>
        <time>2018-09-02T11:54:34Z</time>
      </trkpt>
      <trkpt lat="43.1235938379943" lon="-4.87988334149577">
        <ele>1289.76008605957</ele>
        <time>2018-09-02T11:54:36Z</time>
      </trkpt>
      <trkpt lat="43.1235488271742" lon="-4.87986305729009">
        <ele>1290.81782531738</ele>
        <time>2018-09-02T11:54:38Z</time>
      </trkpt>
      <trkpt lat="43.1234889384761" lon="-4.87983539700963">
        <ele>1292.05805969238</ele>
        <time>2018-09-02T11:54:40Z</time>
      </trkpt>
      <trkpt lat="43.1234403234377" lon="-4.87977026962198">
        <ele>1295.73774719238</ele>
        <time>2018-09-02T11:54:43Z</time>
      </trkpt>
      <trkpt lat="43.1234115735098" lon="-4.87972207367875">
        <ele>1295.92170715332</ele>
        <time>2018-09-02T11:54:45Z</time>
      </trkpt>
      <trkpt lat="43.1233797641873" lon="-4.87967580557324">
        <ele>1296.8023223877</ele>
        <time>2018-09-02T11:54:47Z</time>
      </trkpt>
      <trkpt lat="43.1233492540597" lon="-4.87960732542433">
        <ele>1296.93696594238</ele>
        <time>2018-09-02T11:54:50Z</time>
      </trkpt>
      <trkpt lat="43.1233291374921" lon="-4.87953155301966">
        <ele>1295.99018859863</ele>
        <time>2018-09-02T11:54:53Z</time>
      </trkpt>
      <trkpt lat="43.1232996331929" lon="-4.87945142202534">
        <ele>1294.7818145752</ele>
        <time>2018-09-02T11:54:56Z</time>
      </trkpt>
      <trkpt lat="43.1232765829592" lon="-4.87939777784504">
        <ele>1297.20051574707</ele>
        <time>2018-09-02T11:54:58Z</time>
      </trkpt>
      <trkpt lat="43.1232552091061" lon="-4.87932770513452">
        <ele>1297.4370880127</ele>
        <time>2018-09-02T11:55:01Z</time>
      </trkpt>
      <trkpt lat="43.1232196279272" lon="-4.879289316018">
        <ele>1298.59358215332</ele>
        <time>2018-09-02T11:55:04Z</time>
      </trkpt>
      <trkpt lat="43.1231680373131" lon="-4.8792459815786">
        <ele>1302.2622833252</ele>
        <time>2018-09-02T11:55:09Z</time>
      </trkpt>
      <trkpt lat="43.1231257506116" lon="-4.87921228632785">
        <ele>1301.64790344238</ele>
        <time>2018-09-02T11:55:11Z</time>
      </trkpt>
      <trkpt lat="43.1230851402908" lon="-4.87918362021901">
        <ele>1303.97407531738</ele>
        <time>2018-09-02T11:55:13Z</time>
      </trkpt>
      <trkpt lat="43.123044697608" lon="-4.87915419973887">
        <ele>1304.63606262207</ele>
        <time>2018-09-02T11:55:15Z</time>
      </trkpt>
      <trkpt lat="43.1230069371342" lon="-4.8791183251933">
        <ele>1306.0435333252</ele>
        <time>2018-09-02T11:55:18Z</time>
      </trkpt>
      <trkpt lat="43.1229752116307" lon="-4.87907272764005">
        <ele>1307.76448059082</ele>
        <time>2018-09-02T11:55:21Z</time>
      </trkpt>
      <trkpt lat="43.1229275186016" lon="-4.87903090194322">
        <ele>1308.33894348145</ele>
        <time>2018-09-02T11:55:24Z</time>
      </trkpt>
      <trkpt lat="43.1228831783339" lon="-4.87899661995925">
        <ele>1310.10383605957</ele>
        <time>2018-09-02T11:55:28Z</time>
      </trkpt>
      <trkpt lat="43.1228400953516" lon="-4.87895378843404">
        <ele>1310.33503723145</ele>
        <time>2018-09-02T11:55:31Z</time>
      </trkpt>
      <trkpt lat="43.1227950845315" lon="-4.87890115008213">
        <ele>1311.13105773926</ele>
        <time>2018-09-02T11:55:34Z</time>
      </trkpt>
      <trkpt lat="43.1227520434587" lon="-4.8788661975459">
        <ele>1311.5093536377</ele>
        <time>2018-09-02T11:55:37Z</time>
      </trkpt>
      <trkpt lat="43.1226928672224" lon="-4.87884381786443">
        <ele>1311.76472473145</ele>
        <time>2018-09-02T11:55:40Z</time>
      </trkpt>
      <trkpt lat="43.1226368341997" lon="-4.87883510068513">
        <ele>1311.88069152832</ele>
        <time>2018-09-02T11:55:43Z</time>
      </trkpt>
      <trkpt lat="43.1225831900194" lon="-4.87882982008614">
        <ele>1311.44282531738</ele>
        <time>2018-09-02T11:55:46Z</time>
      </trkpt>
      <trkpt lat="43.1225344073429" lon="-4.87881121226109">
        <ele>1311.93550109863</ele>
        <time>2018-09-02T11:55:49Z</time>
      </trkpt>
      <trkpt lat="43.1224800926103" lon="-4.87879025750317">
        <ele>1312.2866973877</ele>
        <time>2018-09-02T11:55:52Z</time>
      </trkpt>
      <trkpt lat="43.1224322319432" lon="-4.87878749147512">
        <ele>1312.1626739502</ele>
        <time>2018-09-02T11:55:55Z</time>
      </trkpt>
      <trkpt lat="43.122369409579" lon="-4.87879285589315">
        <ele>1312.59858703613</ele>
        <time>2018-09-02T11:55:58Z</time>
      </trkpt>
      <trkpt lat="43.1223073834955" lon="-4.87880744040467">
        <ele>1314.36689758301</ele>
        <time>2018-09-02T11:56:01Z</time>
      </trkpt>
      <trkpt lat="43.1222565891623" lon="-4.87882956862904">
        <ele>1314.98469543457</ele>
        <time>2018-09-02T11:56:04Z</time>
      </trkpt>
      <trkpt lat="43.1222059205576" lon="-4.87885328941502">
        <ele>1316.14717102051</ele>
        <time>2018-09-02T11:56:07Z</time>
      </trkpt>
      <trkpt lat="43.1221568864241" lon="-4.87888262607612">
        <ele>1317.60737609863</ele>
        <time>2018-09-02T11:56:10Z</time>
      </trkpt>
      <trkpt lat="43.1221058406337" lon="-4.87889654003538">
        <ele>1317.90840148926</ele>
        <time>2018-09-02T11:56:13Z</time>
      </trkpt>
      <trkpt lat="43.1220521964534" lon="-4.87890894525207">
        <ele>1318.95259094238</ele>
        <time>2018-09-02T11:56:16Z</time>
      </trkpt>
      <trkpt lat="43.121999432373" lon="-4.87891020253755">
        <ele>1319.83345031738</ele>
        <time>2018-09-02T11:56:19Z</time>
      </trkpt>
      <trkpt lat="43.1219423097029" lon="-4.87889486365475">
        <ele>1321.22798156738</ele>
        <time>2018-09-02T11:56:22Z</time>
      </trkpt>
      <trkpt lat="43.121885857585" lon="-4.87885672599532">
        <ele>1320.15083312988</ele>
        <time>2018-09-02T11:56:24Z</time>
      </trkpt>
      <trkpt lat="43.1218245020538" lon="-4.87878296524741">
        <ele>1319.24494934082</ele>
        <time>2018-09-02T11:56:26Z</time>
      </trkpt>
      <trkpt lat="43.1217919802695" lon="-4.87873611040868">
        <ele>1318.82698059082</ele>
        <time>2018-09-02T11:56:27Z</time>
      </trkpt>
      <trkpt lat="43.1217539683386" lon="-4.87867140211619">
        <ele>1317.8784942627</ele>
        <time>2018-09-02T11:56:28Z</time>
      </trkpt>
      <trkpt lat="43.1217195606261" lon="-4.87862689421035">
        <ele>1317.49800109863</ele>
        <time>2018-09-02T11:56:29Z</time>
      </trkpt>
      <trkpt lat="43.1216795789479" lon="-4.87858649343706">
        <ele>1316.93183898926</ele>
        <time>2018-09-02T11:56:30Z</time>
      </trkpt>
      <trkpt lat="43.1216458417877" lon="-4.87852983177163">
        <ele>1316.95295715332</ele>
        <time>2018-09-02T11:56:31Z</time>
      </trkpt>
      <trkpt lat="43.121584611985" lon="-4.87846797332622">
        <ele>1316.30476379395</ele>
        <time>2018-09-02T11:56:33Z</time>
      </trkpt>
      <trkpt lat="43.1215160480171" lon="-4.87848909572221">
        <ele>1316.25752258301</ele>
        <time>2018-09-02T11:56:35Z</time>
      </trkpt>
      <trkpt lat="43.1215221668064" lon="-4.87856327556528">
        <ele>1316.96479797363</ele>
        <time>2018-09-02T11:56:37Z</time>
      </trkpt>
      <trkpt lat="43.1214758567914" lon="-4.87861641683139">
        <ele>1316.85688781738</ele>
        <time>2018-09-02T11:56:39Z</time>
      </trkpt>
      <trkpt lat="43.1214195304021" lon="-4.87869143486477">
        <ele>1317.70527648926</ele>
        <time>2018-09-02T11:56:41Z</time>
      </trkpt>
      <trkpt lat="43.1213460211112" lon="-4.87873611040868">
        <ele>1318.0093536377</ele>
        <time>2018-09-02T11:56:43Z</time>
      </trkpt>
      <trkpt lat="43.121271422173" lon="-4.87878388725676">
        <ele>1317.7808380127</ele>
        <time>2018-09-02T11:56:45Z</time>
      </trkpt>
      <trkpt lat="43.1211967394158" lon="-4.87881188281335">
        <ele>1317.73664855957</ele>
        <time>2018-09-02T11:56:47Z</time>
      </trkpt>
      <trkpt lat="43.1211156025931" lon="-4.87883434631385">
        <ele>1317.92988586426</ele>
        <time>2018-09-02T11:56:49Z</time>
      </trkpt>
      <trkpt lat="43.1210712623253" lon="-4.87884775735892">
        <ele>1318.00044250488</ele>
        <time>2018-09-02T11:56:50Z</time>
      </trkpt>
      <trkpt lat="43.1209884910315" lon="-4.87885253504373">
        <ele>1317.39302062988</ele>
        <time>2018-09-02T11:56:52Z</time>
      </trkpt>
      <trkpt lat="43.1209205976158" lon="-4.87884524278797">
        <ele>1317.23335266113</ele>
        <time>2018-09-02T11:56:54Z</time>
      </trkpt>
      <trkpt lat="43.1208576076134" lon="-4.87884147093154">
        <ele>1316.53437805176</ele>
        <time>2018-09-02T11:56:56Z</time>
      </trkpt>
      <trkpt lat="43.1207791110902" lon="-4.87881246954657">
        <ele>1315.13105773926</ele>
        <time>2018-09-02T11:56:58Z</time>
      </trkpt>
      <trkpt lat="43.1206870777934" lon="-4.87879201770283">
        <ele>1314.15010070801</ele>
        <time>2018-09-02T11:57:00Z</time>
      </trkpt>
      <trkpt lat="43.1206354871794" lon="-4.87879411317862">
        <ele>1313.74409484863</ele>
        <time>2018-09-02T11:57:01Z</time>
      </trkpt>
      <trkpt lat="43.1205733772769" lon="-4.87880257890083">
        <ele>1313.40058898926</ele>
        <time>2018-09-02T11:57:02Z</time>
      </trkpt>
      <trkpt lat="43.1205152906879" lon="-4.8787972144828">
        <ele>1313.36494445801</ele>
        <time>2018-09-02T11:57:03Z</time>
      </trkpt>
      <trkpt lat="43.1204555277183" lon="-4.87879117951251">
        <ele>1313.54170227051</ele>
        <time>2018-09-02T11:57:04Z</time>
      </trkpt>
      <trkpt lat="43.1204000395193" lon="-4.87878179178096">
        <ele>1314.66377258301</ele>
        <time>2018-09-02T11:57:05Z</time>
      </trkpt>
      <trkpt lat="43.1203305954515" lon="-4.87880098633923">
        <ele>1314.19721984863</ele>
        <time>2018-09-02T11:57:06Z</time>
      </trkpt>
      <trkpt lat="43.1202654261544" lon="-4.87880903296627">
        <ele>1314.52705383301</ele>
        <time>2018-09-02T11:57:07Z</time>
      </trkpt>
      <trkpt lat="43.1202097703173" lon="-4.87882344983973">
        <ele>1314.38008117676</ele>
        <time>2018-09-02T11:57:08Z</time>
      </trkpt>
      <trkpt lat="43.1201615324646" lon="-4.87883283757128">
        <ele>1314.88166809082</ele>
        <time>2018-09-02T11:57:09Z</time>
      </trkpt>
      <trkpt lat="43.1201094808459" lon="-4.87884985283472">
        <ele>1314.80464172363</ele>
        <time>2018-09-02T11:57:10Z</time>
      </trkpt>
      <trkpt lat="43.1200301042228" lon="-4.87889838405408">
        <ele>1313.9146270752</ele>
        <time>2018-09-02T11:57:12Z</time>
      </trkpt>
      <trkpt lat="43.1199731072813" lon="-4.87891908735491">
        <ele>1314.81135559082</ele>
        <time>2018-09-02T11:57:13Z</time>
      </trkpt>
      <trkpt lat="43.1199156074255" lon="-4.87892839126743">
        <ele>1315.34101867676</ele>
        <time>2018-09-02T11:57:14Z</time>
      </trkpt>
      <trkpt lat="43.1198607059597" lon="-4.87894993275858">
        <ele>1317.07124328613</ele>
        <time>2018-09-02T11:57:15Z</time>
      </trkpt>
      <trkpt lat="43.1198034156515" lon="-4.87896510400332">
        <ele>1317.41633605957</ele>
        <time>2018-09-02T11:57:16Z</time>
      </trkpt>
      <trkpt lat="43.1197440298676" lon="-4.87897901796259">
        <ele>1318.68391418457</ele>
        <time>2018-09-02T11:57:17Z</time>
      </trkpt>
      <trkpt lat="43.1196874101117" lon="-4.87898807041801">
        <ele>1318.9126739502</ele>
        <time>2018-09-02T11:57:18Z</time>
      </trkpt>
      <trkpt lat="43.1196316704556" lon="-4.87897088751651">
        <ele>1318.77827453613</ele>
        <time>2018-09-02T11:57:19Z</time>
      </trkpt>
      <trkpt lat="43.1195778167277" lon="-4.87888111733355">
        <ele>1317.99140930176</ele>
        <time>2018-09-02T11:57:21Z</time>
      </trkpt>
      <trkpt lat="43.1195184309437" lon="-4.87885865383305">
        <ele>1319.53437805176</ele>
        <time>2018-09-02T11:57:23Z</time>
      </trkpt>
      <trkpt lat="43.1194696901768" lon="-4.87885672599532">
        <ele>1320.66535949707</ele>
        <time>2018-09-02T11:57:24Z</time>
      </trkpt>
      <trkpt lat="43.1194020901277" lon="-4.87884884700633">
        <ele>1321.63423156738</ele>
        <time>2018-09-02T11:57:26Z</time>
      </trkpt>
      <trkpt lat="43.1193436263531" lon="-4.87880366854824">
        <ele>1321.63179016113</ele>
        <time>2018-09-02T11:57:28Z</time>
      </trkpt>
      <trkpt lat="43.1192699494242" lon="-4.87875807099499">
        <ele>1322.4478302002</ele>
        <time>2018-09-02T11:57:31Z</time>
      </trkpt>
      <trkpt lat="43.119192835915" lon="-4.87871674821235">
        <ele>1323.35151672363</ele>
        <time>2018-09-02T11:57:33Z</time>
      </trkpt>
      <trkpt lat="43.1191150518536" lon="-4.87868187949516">
        <ele>1323.09602355957</ele>
        <time>2018-09-02T11:57:35Z</time>
      </trkpt>
      <trkpt lat="43.1190334959357" lon="-4.87864902243472">
        <ele>1322.7300567627</ele>
        <time>2018-09-02T11:57:37Z</time>
      </trkpt>
      <trkpt lat="43.1189562986075" lon="-4.87862421200134">
        <ele>1323.78913879395</ele>
        <time>2018-09-02T11:57:39Z</time>
      </trkpt>
      <trkpt lat="43.1188847171544" lon="-4.87860610709049">
        <ele>1323.08955383301</ele>
        <time>2018-09-02T11:57:41Z</time>
      </trkpt>
      <trkpt lat="43.1188085256546" lon="-4.87859915011085">
        <ele>1323.67976379395</ele>
        <time>2018-09-02T11:57:43Z</time>
      </trkpt>
      <trkpt lat="43.1187314121454" lon="-4.87860493362404">
        <ele>1321.65620422363</ele>
        <time>2018-09-02T11:57:45Z</time>
      </trkpt>
      <trkpt lat="43.1186560588359" lon="-4.87860661000468">
        <ele>1320.99165344238</ele>
        <time>2018-09-02T11:57:47Z</time>
      </trkpt>
      <trkpt lat="43.1185815437167" lon="-4.87857936881937">
        <ele>1321.4927520752</ele>
        <time>2018-09-02T11:57:49Z</time>
      </trkpt>
      <trkpt lat="43.1185198948189" lon="-4.87856327556528">
        <ele>1316.56050109863</ele>
        <time>2018-09-02T11:57:51Z</time>
      </trkpt>
      <trkpt lat="43.1184691843047" lon="-4.8786069452808">
        <ele>1317.78816223145</ele>
        <time>2018-09-02T11:57:53Z</time>
      </trkpt>
      <trkpt lat="43.1184325134783" lon="-4.87867819145776">
        <ele>1319.04341125488</ele>
        <time>2018-09-02T11:57:55Z</time>
      </trkpt>
      <trkpt lat="43.118405188474" lon="-4.87873845734157">
        <ele>1319.3472442627</ele>
        <time>2018-09-02T11:57:57Z</time>
      </trkpt>
      <trkpt lat="43.1183675118192" lon="-4.87881330773689">
        <ele>1320.33576965332</ele>
        <time>2018-09-02T11:58:00Z</time>
      </trkpt>
      <trkpt lat="43.118335241492" lon="-4.87886016257562">
        <ele>1320.71223449707</ele>
        <time>2018-09-02T11:58:02Z</time>
      </trkpt>
      <trkpt lat="43.1182924518763" lon="-4.87890517339565">
        <ele>1320.9654083252</ele>
        <time>2018-09-02T11:58:04Z</time>
      </trkpt>
      <trkpt lat="43.1182469800516" lon="-4.8789544589863">
        <ele>1321.53193664551</ele>
        <time>2018-09-02T11:58:06Z</time>
      </trkpt>
      <trkpt lat="43.1182058668166" lon="-4.87900324166275">
        <ele>1322.51155090332</ele>
        <time>2018-09-02T11:58:08Z</time>
      </trkpt>
      <trkpt lat="43.1181675196095" lon="-4.87904925831117">
        <ele>1322.94929504395</ele>
        <time>2018-09-02T11:58:10Z</time>
      </trkpt>
      <trkpt lat="43.1181269092887" lon="-4.87909435295023">
        <ele>1323.89472961426</ele>
        <time>2018-09-02T11:58:12Z</time>
      </trkpt>
      <trkpt lat="43.1180818565591" lon="-4.87914187834121">
        <ele>1324.24458312988</ele>
        <time>2018-09-02T11:58:14Z</time>
      </trkpt>
      <trkpt lat="43.1180441799044" lon="-4.87918864936091">
        <ele>1324.7613067627</ele>
        <time>2018-09-02T11:58:16Z</time>
      </trkpt>
      <trkpt lat="43.1180129154056" lon="-4.87926115282334">
        <ele>1326.27705383301</ele>
        <time>2018-09-02T11:58:19Z</time>
      </trkpt>
      <trkpt lat="43.1180577585875" lon="-4.8793239332781">
        <ele>1331.93745422363</ele>
        <time>2018-09-02T12:01:56Z</time>
      </trkpt>
      <trkpt lat="43.1180145079672" lon="-4.87934874371149">
        <ele>1331.99714660645</ele>
        <time>2018-09-02T12:02:00Z</time>
      </trkpt>
      <trkpt lat="43.1179693714186" lon="-4.87940423191048">
        <ele>1332.05390930176</ele>
        <time>2018-09-02T12:02:03Z</time>
      </trkpt>
      <trkpt lat="43.117929599288" lon="-4.87945091911115">
        <ele>1331.91487121582</ele>
        <time>2018-09-02T12:02:05Z</time>
      </trkpt>
      <trkpt lat="43.1178951077565" lon="-4.87949945033051">
        <ele>1331.31965637207</ele>
        <time>2018-09-02T12:02:07Z</time>
      </trkpt>
      <trkpt lat="43.1178526953264" lon="-4.87954974174954">
        <ele>1331.28974914551</ele>
        <time>2018-09-02T12:02:09Z</time>
      </trkpt>
      <trkpt lat="43.1178091513395" lon="-4.87960070372082">
        <ele>1331.27546691895</ele>
        <time>2018-09-02T12:02:11Z</time>
      </trkpt>
      <trkpt lat="43.1177712651371" lon="-4.8796468880073">
        <ele>1331.56037902832</ele>
        <time>2018-09-02T12:02:13Z</time>
      </trkpt>
      <trkpt lat="43.1177179981425" lon="-4.87969449721731">
        <ele>1331.38581848145</ele>
        <time>2018-09-02T12:02:16Z</time>
      </trkpt>
      <trkpt lat="43.1176804472163" lon="-4.87973104231514">
        <ele>1331.38716125488</ele>
        <time>2018-09-02T12:02:18Z</time>
      </trkpt>
      <trkpt lat="43.1176406750857" lon="-4.87977789715387">
        <ele>1331.34931945801</ele>
        <time>2018-09-02T12:02:20Z</time>
      </trkpt>
      <trkpt lat="43.1176009867742" lon="-4.87982483581163">
        <ele>1331.01826477051</ele>
        <time>2018-09-02T12:02:22Z</time>
      </trkpt>
      <trkpt lat="43.1175614241912" lon="-4.87986557186104">
        <ele>1330.23310852051</ele>
        <time>2018-09-02T12:02:24Z</time>
      </trkpt>
      <trkpt lat="43.1175238313555" lon="-4.87989968620695">
        <ele>1331.08979797363</ele>
        <time>2018-09-02T12:02:26Z</time>
      </trkpt>
      <trkpt lat="43.1174836820393" lon="-4.87993824296154">
        <ele>1332.89143371582</ele>
        <time>2018-09-02T12:02:28Z</time>
      </trkpt>
      <trkpt lat="43.1174347736343" lon="-4.87998467870511">
        <ele>1332.95429992676</ele>
        <time>2018-09-02T12:02:31Z</time>
      </trkpt>
      <trkpt lat="43.1173986895411" lon="-4.88005148247339">
        <ele>1330.30049133301</ele>
        <time>2018-09-02T12:02:34Z</time>
      </trkpt>
      <trkpt lat="43.1173712807178" lon="-4.88010403700627">
        <ele>1331.19514465332</ele>
        <time>2018-09-02T12:02:36Z</time>
      </trkpt>
      <trkpt lat="43.1173363281815" lon="-4.88016078249075">
        <ele>1332.16035461426</ele>
        <time>2018-09-02T12:02:38Z</time>
      </trkpt>
      <trkpt lat="43.1172970170557" lon="-4.88021744415618">
        <ele>1333.05757141113</ele>
        <time>2018-09-02T12:02:40Z</time>
      </trkpt>
      <trkpt lat="43.1172551913588" lon="-4.88026731648006">
        <ele>1332.69270324707</ele>
        <time>2018-09-02T12:02:42Z</time>
      </trkpt>
      <trkpt lat="43.1172190234467" lon="-4.88030947745301">
        <ele>1332.9536895752</ele>
        <time>2018-09-02T12:02:44Z</time>
      </trkpt>
      <trkpt lat="43.1171742221742" lon="-4.88037116826035">
        <ele>1334.1480255127</ele>
        <time>2018-09-02T12:02:47Z</time>
      </trkpt>
      <trkpt lat="43.1171335699438" lon="-4.88040335476853">
        <ele>1336.59590148926</ele>
        <time>2018-09-02T12:02:49Z</time>
      </trkpt>
      <trkpt lat="43.117091828066" lon="-4.88043168560125">
        <ele>1338.17256164551</ele>
        <time>2018-09-02T12:02:51Z</time>
      </trkpt>
      <trkpt lat="43.1170448055892" lon="-4.88046831451811">
        <ele>1339.24299621582</ele>
        <time>2018-09-02T12:02:53Z</time>
      </trkpt>
      <trkpt lat="43.1169965677365" lon="-4.88050946966268">
        <ele>1340.73469543457</ele>
        <time>2018-09-02T12:02:56Z</time>
      </trkpt>
      <trkpt lat="43.1169744395121" lon="-4.88056722097553">
        <ele>1339.59956359863</ele>
        <time>2018-09-02T12:02:59Z</time>
      </trkpt>
      <trkpt lat="43.1169675663515" lon="-4.88064777106501">
        <ele>1339.82722473145</ele>
        <time>2018-09-02T12:03:02Z</time>
      </trkpt>
      <trkpt lat="43.1169645488664" lon="-4.88072035834648">
        <ele>1341.78401184082</ele>
        <time>2018-09-02T12:03:05Z</time>
      </trkpt>
      <trkpt lat="43.1169418758183" lon="-4.88078783266701">
        <ele>1342.01753234863</ele>
        <time>2018-09-02T12:03:16Z</time>
      </trkpt>
      <trkpt lat="43.1168827834009" lon="-4.88082890399255">
        <ele>1343.57319641113</ele>
        <time>2018-09-02T12:03:19Z</time>
      </trkpt>
      <trkpt lat="43.1168385269522" lon="-4.88084826618888">
        <ele>1344.19013977051</ele>
        <time>2018-09-02T12:03:21Z</time>
      </trkpt>
      <trkpt lat="43.1167761236831" lon="-4.8808641918049">
        <ele>1346.04499816895</ele>
        <time>2018-09-02T12:03:24Z</time>
      </trkpt>
      <trkpt lat="43.1167187076463" lon="-4.88086846657552">
        <ele>1346.65632629395</ele>
        <time>2018-09-02T12:03:27Z</time>
      </trkpt>
      <trkpt lat="43.1166713918029" lon="-4.88086033612944">
        <ele>1349.06904602051</ele>
        <time>2018-09-02T12:03:30Z</time>
      </trkpt>
      <trkpt lat="43.1166277639969" lon="-4.88084055483796">
        <ele>1349.06269836426</ele>
        <time>2018-09-02T12:03:32Z</time>
      </trkpt>
      <trkpt lat="43.1165722338884" lon="-4.88080032170273">
        <ele>1349.42304992676</ele>
        <time>2018-09-02T12:03:35Z</time>
      </trkpt>
      <trkpt lat="43.1165259238734" lon="-4.88077827729739">
        <ele>1349.41975402832</ele>
        <time>2018-09-02T12:03:37Z</time>
      </trkpt>
      <trkpt lat="43.1164712319552" lon="-4.8807605914817">
        <ele>1349.96211242676</ele>
        <time>2018-09-02T12:03:39Z</time>
      </trkpt>
      <trkpt lat="43.1164182164176" lon="-4.88074600697018">
        <ele>1349.68867492676</ele>
        <time>2018-09-02T12:03:41Z</time>
      </trkpt>
      <trkpt lat="43.1163680926367" lon="-4.88074374385633">
        <ele>1350.48408508301</ele>
        <time>2018-09-02T12:03:43Z</time>
      </trkpt>
      <trkpt lat="43.1163155800133" lon="-4.8807484377221">
        <ele>1351.63203430176</ele>
        <time>2018-09-02T12:03:45Z</time>
      </trkpt>
      <trkpt lat="43.1162608042761" lon="-4.88075120375015">
        <ele>1352.44966125488</ele>
        <time>2018-09-02T12:03:47Z</time>
      </trkpt>
      <trkpt lat="43.1162116863235" lon="-4.88075011410274">
        <ele>1352.61946105957</ele>
        <time>2018-09-02T12:03:49Z</time>
      </trkpt>
      <trkpt lat="43.1161530968203" lon="-4.88074600697018">
        <ele>1352.00691223145</ele>
        <time>2018-09-02T12:03:51Z</time>
      </trkpt>
      <trkpt lat="43.1160902325465" lon="-4.88073955290474">
        <ele>1352.77864074707</ele>
        <time>2018-09-02T12:03:53Z</time>
      </trkpt>
      <trkpt lat="43.116030721034" lon="-4.88073519431509">
        <ele>1352.86750793457</ele>
        <time>2018-09-02T12:03:55Z</time>
      </trkpt>
      <trkpt lat="43.1159782503202" lon="-4.88073720597185">
        <ele>1352.67805480957</ele>
        <time>2018-09-02T12:03:57Z</time>
      </trkpt>
      <trkpt lat="43.1159156375035" lon="-4.88074466586568">
        <ele>1353.61811828613</ele>
        <time>2018-09-02T12:04:00Z</time>
      </trkpt>
      <trkpt lat="43.1158698723122" lon="-4.88074164838053">
        <ele>1354.1275177002</ele>
        <time>2018-09-02T12:04:02Z</time>
      </trkpt>
      <trkpt lat="43.1158226821973" lon="-4.88073133863963">
        <ele>1354.37507629395</ele>
        <time>2018-09-02T12:04:04Z</time>
      </trkpt>
      <trkpt lat="43.1157748215302" lon="-4.88072563894548">
        <ele>1355.05940246582</ele>
        <time>2018-09-02T12:04:06Z</time>
      </trkpt>
      <trkpt lat="43.1157182436838" lon="-4.88073511049606">
        <ele>1356.05451965332</ele>
        <time>2018-09-02T12:04:08Z</time>
      </trkpt>
      <trkpt lat="43.1156726461305" lon="-4.88075061701693">
        <ele>1356.78535461426</ele>
        <time>2018-09-02T12:04:10Z</time>
      </trkpt>
      <trkpt lat="43.1156302337005" lon="-4.88077123649873">
        <ele>1357.13117980957</ele>
        <time>2018-09-02T12:04:12Z</time>
      </trkpt>
      <trkpt lat="43.1155754160538" lon="-4.88080375828303">
        <ele>1357.33735656738</ele>
        <time>2018-09-02T12:04:15Z</time>
      </trkpt>
      <trkpt lat="43.1155224005162" lon="-4.88082228228904">
        <ele>1358.55549621582</ele>
        <time>2018-09-02T12:04:18Z</time>
      </trkpt>
      <trkpt lat="43.1154707260831" lon="-4.88084617071308">
        <ele>1359.99787902832</ele>
        <time>2018-09-02T12:04:21Z</time>
      </trkpt>
      <trkpt lat="43.1154155312508" lon="-4.88085287623562">
        <ele>1361.79585266113</ele>
        <time>2018-09-02T12:04:24Z</time>
      </trkpt>
      <trkpt lat="43.1153558101907" lon="-4.88085865974881">
        <ele>1363.1792755127</ele>
        <time>2018-09-02T12:04:27Z</time>
      </trkpt>
      <trkpt lat="43.1152983522444" lon="-4.88086310215749">
        <ele>1365.24726867676</ele>
        <time>2018-09-02T12:04:30Z</time>
      </trkpt>
      <trkpt lat="43.1152414810314" lon="-4.8808610066817">
        <ele>1366.12910461426</ele>
        <time>2018-09-02T12:04:33Z</time>
      </trkpt>
      <trkpt lat="43.1151935365453" lon="-4.88085865974881">
        <ele>1367.7954864502</ele>
        <time>2018-09-02T12:04:36Z</time>
      </trkpt>
      <trkpt lat="43.1151450472354" lon="-4.88082597032644">
        <ele>1368.49104309082</ele>
        <time>2018-09-02T12:04:40Z</time>
      </trkpt>
      <trkpt lat="43.115096432197" lon="-4.88078917377152">
        <ele>1369.78559875488</ele>
        <time>2018-09-02T12:04:44Z</time>
      </trkpt>
      <trkpt lat="43.1150564505189" lon="-4.88075321540691">
        <ele>1370.05574035645</ele>
        <time>2018-09-02T12:04:47Z</time>
      </trkpt>
      <trkpt lat="43.1150102243229" lon="-4.88073678687669">
        <ele>1369.63911437988</ele>
        <time>2018-09-02T12:04:51Z</time>
      </trkpt>
      <trkpt lat="43.1149598909943" lon="-4.88071306609072">
        <ele>1370.15071105957</ele>
        <time>2018-09-02T12:04:54Z</time>
      </trkpt>
      <trkpt lat="43.114911359775" lon="-4.88071683794715">
        <ele>1373.32319641113</ele>
        <time>2018-09-02T12:04:57Z</time>
      </trkpt>
      <trkpt lat="43.1148581346898" lon="-4.88073452376284">
        <ele>1375.43952941895</ele>
        <time>2018-09-02T12:05:00Z</time>
      </trkpt>
      <trkpt lat="43.114800467196" lon="-4.88074860536017">
        <ele>1377.23078918457</ele>
        <time>2018-09-02T12:05:03Z</time>
      </trkpt>
      <trkpt lat="43.1147500081389" lon="-4.88074944355048">
        <ele>1372.91706848145</ele>
        <time>2018-09-02T12:05:06Z</time>
      </trkpt>
      <trkpt lat="43.1147005130007" lon="-4.88075514324464">
        <ele>1373.39265441895</ele>
        <time>2018-09-02T12:05:09Z</time>
      </trkpt>
      <trkpt lat="43.1146492157533" lon="-4.88077861257352">
        <ele>1374.97651672363</ele>
        <time>2018-09-02T12:05:12Z</time>
      </trkpt>
      <trkpt lat="43.1145986309677" lon="-4.88081096671976">
        <ele>1375.61103820801</ele>
        <time>2018-09-02T12:05:15Z</time>
      </trkpt>
      <trkpt lat="43.1145530753239" lon="-4.8808472603605">
        <ele>1376.15693664551</ele>
        <time>2018-09-02T12:05:18Z</time>
      </trkpt>
      <trkpt lat="43.1145184161543" lon="-4.88088866696216">
        <ele>1376.61836242676</ele>
        <time>2018-09-02T12:05:21Z</time>
      </trkpt>
      <trkpt lat="43.1144878641172" lon="-4.88094591536082">
        <ele>1378.80488586426</ele>
        <time>2018-09-02T12:05:24Z</time>
      </trkpt>
      <trkpt lat="43.1144570606231" lon="-4.88101313822426">
        <ele>1379.32710266113</ele>
        <time>2018-09-02T12:05:28Z</time>
      </trkpt>
      <trkpt lat="43.1144177914067" lon="-4.88105362281658">
        <ele>1380.50898742676</ele>
        <time>2018-09-02T12:05:31Z</time>
      </trkpt>
      <trkpt lat="43.114364356774" lon="-4.88107617013611">
        <ele>1379.90742492676</ele>
        <time>2018-09-02T12:05:34Z</time>
      </trkpt>
      <trkpt lat="43.1143017858668" lon="-4.88108019344963">
        <ele>1381.5767364502</ele>
        <time>2018-09-02T12:05:37Z</time>
      </trkpt>
      <trkpt lat="43.1142389635026" lon="-4.88108044490673">
        <ele>1383.60774230957</ele>
        <time>2018-09-02T12:05:40Z</time>
      </trkpt>
      <trkpt lat="43.1141905999213" lon="-4.88108178601123">
        <ele>1384.02131652832</ele>
        <time>2018-09-02T12:05:42Z</time>
      </trkpt>
      <trkpt lat="43.1141285319283" lon="-4.88108421676315">
        <ele>1384.26240539551</ele>
        <time>2018-09-02T12:05:45Z</time>
      </trkpt>
      <trkpt lat="43.1140680564969" lon="-4.88106225617685">
        <ele>1383.61592102051</ele>
        <time>2018-09-02T12:05:48Z</time>
      </trkpt>
      <trkpt lat="43.1140047312184" lon="-4.88102596253611">
        <ele>1383.74299621582</ele>
        <time>2018-09-02T12:05:51Z</time>
      </trkpt>
      <trkpt lat="43.1139595946699" lon="-4.88098346628703">
        <ele>1383.89265441895</ele>
        <time>2018-09-02T12:05:53Z</time>
      </trkpt>
      <trkpt lat="43.1139175594255" lon="-4.88092965446867">
        <ele>1384.28108215332</ele>
        <time>2018-09-02T12:05:55Z</time>
      </trkpt>
      <trkpt lat="43.1138870912074" lon="-4.88087114878453">
        <ele>1384.63984680176</ele>
        <time>2018-09-02T12:05:57Z</time>
      </trkpt>
      <trkpt lat="43.1138590537413" lon="-4.88080828451075">
        <ele>1384.72077941895</ele>
        <time>2018-09-02T12:05:59Z</time>
      </trkpt>
      <trkpt lat="43.1138233049243" lon="-4.8807418160186">
        <ele>1384.92988586426</ele>
        <time>2018-09-02T12:06:01Z</time>
      </trkpt>
      <trkpt lat="43.1137792161136" lon="-4.88067710772611">
        <ele>1385.92121887207</ele>
        <time>2018-09-02T12:06:03Z</time>
      </trkpt>
      <trkpt lat="43.1137337861984" lon="-4.88061189651944">
        <ele>1386.76264953613</ele>
        <time>2018-09-02T12:06:05Z</time>
      </trkpt>
      <trkpt lat="43.1136846682458" lon="-4.88054676913179">
        <ele>1386.04792785645</ele>
        <time>2018-09-02T12:06:07Z</time>
      </trkpt>
      <trkpt lat="43.1136311078846" lon="-4.88049664535083">
        <ele>1385.4380645752</ele>
        <time>2018-09-02T12:06:09Z</time>
      </trkpt>
      <trkpt lat="43.1135696685343" lon="-4.88045783713914">
        <ele>1385.2212677002</ele>
        <time>2018-09-02T12:06:11Z</time>
      </trkpt>
      <trkpt lat="43.1135177845537" lon="-4.88043705001928">
        <ele>1385.64875793457</ele>
        <time>2018-09-02T12:06:13Z</time>
      </trkpt>
      <trkpt lat="43.1134643918305" lon="-4.88042321987905">
        <ele>1385.39875793457</ele>
        <time>2018-09-02T12:06:15Z</time>
      </trkpt>
      <trkpt lat="43.1134099513694" lon="-4.88039899617888">
        <ele>1384.36640930176</ele>
        <time>2018-09-02T12:06:17Z</time>
      </trkpt>
      <trkpt lat="43.1133611267834" lon="-4.88035817631043">
        <ele>1384.63606262207</ele>
        <time>2018-09-02T12:06:19Z</time>
      </trkpt>
      <trkpt lat="43.1133047165751" lon="-4.88030587323464">
        <ele>1384.58601379395</ele>
        <time>2018-09-02T12:06:21Z</time>
      </trkpt>
      <trkpt lat="43.1132567301794" lon="-4.88026614301361">
        <ele>1385.15351867676</ele>
        <time>2018-09-02T12:06:23Z</time>
      </trkpt>
      <trkpt lat="43.1132099172502" lon="-4.88024569116987">
        <ele>1386.1900177002</ele>
        <time>2018-09-02T12:06:25Z</time>
      </trkpt>
      <trkpt lat="43.1131436163961" lon="-4.88021400757588">
        <ele>1386.48310852051</ele>
        <time>2018-09-02T12:06:27Z</time>
      </trkpt>
      <trkpt lat="43.1130803749367" lon="-4.88018123433448">
        <ele>1384.10346984863</ele>
        <time>2018-09-02T12:06:29Z</time>
      </trkpt>
      <trkpt lat="43.1130274432182" lon="-4.8801598604814">
        <ele>1384.29731750488</ele>
        <time>2018-09-02T12:06:31Z</time>
      </trkpt>
      <trkpt lat="43.1129662972345" lon="-4.88012708724">
        <ele>1384.96113586426</ele>
        <time>2018-09-02T12:06:34Z</time>
      </trkpt>
      <trkpt lat="43.1129053188889" lon="-4.88011099398591">
        <ele>1383.87055969238</ele>
        <time>2018-09-02T12:06:36Z</time>
      </trkpt>
      <trkpt lat="43.1128411554202" lon="-4.8800887819425">
        <ele>1383.96943664551</ele>
        <time>2018-09-02T12:06:38Z</time>
      </trkpt>
      <trkpt lat="43.1127782492369" lon="-4.8800578527198">
        <ele>1386.04487609863</ele>
        <time>2018-09-02T12:06:41Z</time>
      </trkpt>
      <trkpt lat="43.112738854292" lon="-4.88002063706972">
        <ele>1386.13191223145</ele>
        <time>2018-09-02T12:06:43Z</time>
      </trkpt>
      <trkpt lat="43.1127069611504" lon="-4.87997646444">
        <ele>1387.69038391113</ele>
        <time>2018-09-02T12:06:45Z</time>
      </trkpt>
      <trkpt lat="43.1126700807764" lon="-4.87991292961396">
        <ele>1389.37080383301</ele>
        <time>2018-09-02T12:06:47Z</time>
      </trkpt>
      <trkpt lat="43.1126137124776" lon="-4.87984486856021">
        <ele>1390.41328430176</ele>
        <time>2018-09-02T12:06:49Z</time>
      </trkpt>
      <trkpt lat="43.1125445617764" lon="-4.87980497070111">
        <ele>1391.20478820801</ele>
        <time>2018-09-02T12:06:51Z</time>
      </trkpt>
      <trkpt lat="43.1124821165978" lon="-4.8797851055906">
        <ele>1391.69233703613</ele>
        <time>2018-09-02T12:06:53Z</time>
      </trkpt>
      <trkpt lat="43.1124298554315" lon="-4.8797607980714">
        <ele>1393.24555969238</ele>
        <time>2018-09-02T12:06:55Z</time>
      </trkpt>
      <trkpt lat="43.1123765884369" lon="-4.8797504883305">
        <ele>1392.0923614502</ele>
        <time>2018-09-02T12:06:57Z</time>
      </trkpt>
      <trkpt lat="43.1123238662659" lon="-4.87977437675454">
        <ele>1392.93452453613</ele>
        <time>2018-09-02T12:06:59Z</time>
      </trkpt>
      <trkpt lat="43.112284471321" lon="-4.87981452607073">
        <ele>1394.24519348145</ele>
        <time>2018-09-02T12:07:01Z</time>
      </trkpt>
      <trkpt lat="43.1122484291374" lon="-4.87985576503433">
        <ele>1396.85627746582</ele>
        <time>2018-09-02T12:07:03Z</time>
      </trkpt>
      <trkpt lat="43.1122043403267" lon="-4.87989163957991">
        <ele>1398.20942687988</ele>
        <time>2018-09-02T12:07:05Z</time>
      </trkpt>
      <trkpt lat="43.1121607544302" lon="-4.87992256880261">
        <ele>1399.12934875488</ele>
        <time>2018-09-02T12:07:07Z</time>
      </trkpt>
      <trkpt lat="43.1121027935698" lon="-4.87996263429977">
        <ele>1399.70491027832</ele>
        <time>2018-09-02T12:07:10Z</time>
      </trkpt>
      <trkpt lat="43.1120419409528" lon="-4.87998845056154">
        <ele>1401.1255645752</ele>
        <time>2018-09-02T12:07:13Z</time>
      </trkpt>
      <trkpt lat="43.1119786156743" lon="-4.87999515608408">
        <ele>1401.50593566895</ele>
        <time>2018-09-02T12:07:16Z</time>
      </trkpt>
      <trkpt lat="43.1119186012476" lon="-4.87998459488608">
        <ele>1402.06953430176</ele>
        <time>2018-09-02T12:07:19Z</time>
      </trkpt>
      <trkpt lat="43.1118652923434" lon="-4.87995467149176">
        <ele>1401.98542785645</ele>
        <time>2018-09-02T12:07:22Z</time>
      </trkpt>
      <trkpt lat="43.1118188146903" lon="-4.87993874587573">
        <ele>1403.12312316895</ele>
        <time>2018-09-02T12:07:25Z</time>
      </trkpt>
      <trkpt lat="43.111762404482" lon="-4.87991862930812">
        <ele>1404.58393859863</ele>
        <time>2018-09-02T12:07:28Z</time>
      </trkpt>
      <trkpt lat="43.1117093051254" lon="-4.87989499234118">
        <ele>1405.89106750488</ele>
        <time>2018-09-02T12:07:31Z</time>
      </trkpt>
      <trkpt lat="43.111658007878" lon="-4.87986171618558">
        <ele>1405.70918273926</ele>
        <time>2018-09-02T12:07:34Z</time>
      </trkpt>
      <trkpt lat="43.1115991250082" lon="-4.8798456229315">
        <ele>1405.79536437988</ele>
        <time>2018-09-02T12:07:37Z</time>
      </trkpt>
      <trkpt lat="43.1115523539885" lon="-4.87982341088809">
        <ele>1405.81379699707</ele>
        <time>2018-09-02T12:07:40Z</time>
      </trkpt>
      <trkpt lat="43.111509983468" lon="-4.87979759462632">
        <ele>1407.54890441895</ele>
        <time>2018-09-02T12:07:43Z</time>
      </trkpt>
      <trkpt lat="43.1114598177775" lon="-4.8797520808921">
        <ele>1408.56465148926</ele>
        <time>2018-09-02T12:07:47Z</time>
      </trkpt>
      <trkpt lat="43.1114246137842" lon="-4.87970975228108">
        <ele>1409.69453430176</ele>
        <time>2018-09-02T12:07:50Z</time>
      </trkpt>
      <trkpt lat="43.1113882782339" lon="-4.8796606343285">
        <ele>1409.99653625488</ele>
        <time>2018-09-02T12:07:53Z</time>
      </trkpt>
      <trkpt lat="43.1113424711331" lon="-4.87961537205137">
        <ele>1411.28840637207</ele>
        <time>2018-09-02T12:07:56Z</time>
      </trkpt>
      <trkpt lat="43.1112954067468" lon="-4.8795898072467">
        <ele>1413.65034484863</ele>
        <time>2018-09-02T12:07:59Z</time>
      </trkpt>
      <trkpt lat="43.1112413434713" lon="-4.87956960686006">
        <ele>1414.32698059082</ele>
        <time>2018-09-02T12:08:02Z</time>
      </trkpt>
      <trkpt lat="43.111192896071" lon="-4.87954571843602">
        <ele>1415.91059875488</ele>
        <time>2018-09-02T12:08:05Z</time>
      </trkpt>
      <trkpt lat="43.1111496873601" lon="-4.879503389825">
        <ele>1418.3579864502</ele>
        <time>2018-09-02T12:08:08Z</time>
      </trkpt>
      <trkpt lat="43.1111034611641" lon="-4.87946852110781">
        <ele>1419.17036437988</ele>
        <time>2018-09-02T12:08:11Z</time>
      </trkpt>
      <trkpt lat="43.1110541755735" lon="-4.87943532877125">
        <ele>1417.9243927002</ele>
        <time>2018-09-02T12:08:14Z</time>
      </trkpt>
      <trkpt lat="43.1110023754119" lon="-4.87942158245005">
        <ele>1417.11299133301</ele>
        <time>2018-09-02T12:08:17Z</time>
      </trkpt>
      <trkpt lat="43.1109476415842" lon="-4.87940750085272">
        <ele>1416.95942687988</ele>
        <time>2018-09-02T12:08:20Z</time>
      </trkpt>
      <trkpt lat="43.1108921952947" lon="-4.87940238789178">
        <ele>1418.12214660645</ele>
        <time>2018-09-02T12:08:23Z</time>
      </trkpt>
      <trkpt lat="43.1108335219725" lon="-4.87941412255622">
        <ele>1418.59931945801</ele>
        <time>2018-09-02T12:08:26Z</time>
      </trkpt>
      <trkpt lat="43.1107721664413" lon="-4.87941705622233">
        <ele>1419.11921691895</ele>
        <time>2018-09-02T12:08:29Z</time>
      </trkpt>
      <trkpt lat="43.1107166782423" lon="-4.8793979454831">
        <ele>1419.30354309082</ele>
        <time>2018-09-02T12:08:32Z</time>
      </trkpt>
      <trkpt lat="43.1106597651198" lon="-4.87937514670648">
        <ele>1419.1333770752</ele>
        <time>2018-09-02T12:08:35Z</time>
      </trkpt>
      <trkpt lat="43.1106018461688" lon="-4.87937581725873">
        <ele>1419.53547668457</ele>
        <time>2018-09-02T12:08:38Z</time>
      </trkpt>
      <trkpt lat="43.1105449330463" lon="-4.87936366349913">
        <ele>1422.47737121582</ele>
        <time>2018-09-02T12:08:42Z</time>
      </trkpt>
      <trkpt lat="43.1104982877552" lon="-4.87933843397058">
        <ele>1422.94819641113</ele>
        <time>2018-09-02T12:08:45Z</time>
      </trkpt>
      <trkpt lat="43.1104531931161" lon="-4.87930624746241">
        <ele>1424.04292297363</ele>
        <time>2018-09-02T12:08:48Z</time>
      </trkpt>
      <trkpt lat="43.1103984173789" lon="-4.87927489914454">
        <ele>1425.01826477051</ele>
        <time>2018-09-02T12:08:52Z</time>
      </trkpt>
      <trkpt lat="43.1103582261532" lon="-4.87924489193119">
        <ele>1424.6577911377</ele>
        <time>2018-09-02T12:08:55Z</time>
      </trkpt>
      <trkpt lat="43.1103028217732" lon="-4.87921605818428">
        <ele>1423.90986633301</ele>
        <time>2018-09-02T12:08:59Z</time>
      </trkpt>
      <trkpt lat="43.1102575594961" lon="-4.87918714061834">
        <ele>1426.78413391113</ele>
        <time>2018-09-02T12:09:03Z</time>
      </trkpt>
      <trkpt lat="43.1102161948039" lon="-4.87915989943303">
        <ele>1427.13752746582</ele>
        <time>2018-09-02T12:09:06Z</time>
      </trkpt>
      <trkpt lat="43.1101628439902" lon="-4.87911958247878">
        <ele>1427.84077453613</ele>
        <time>2018-09-02T12:09:10Z</time>
      </trkpt>
      <trkpt lat="43.1101172045275" lon="-4.87906987779297">
        <ele>1429.02815246582</ele>
        <time>2018-09-02T12:09:13Z</time>
      </trkpt>
      <trkpt lat="43.1100748759165" lon="-4.87902025692619">
        <ele>1428.12910461426</ele>
        <time>2018-09-02T12:09:17Z</time>
      </trkpt>
      <trkpt lat="43.1100337626814" lon="-4.87898052670516">
        <ele>1426.84187316895</ele>
        <time>2018-09-02T12:09:21Z</time>
      </trkpt>
      <trkpt lat="43.1099858181953" lon="-4.87893115729548">
        <ele>1426.42842102051</ele>
        <time>2018-09-02T12:09:25Z</time>
      </trkpt>
      <trkpt lat="43.1099439924984" lon="-4.87890416756727">
        <ele>1426.42756652832</ele>
        <time>2018-09-02T12:09:28Z</time>
      </trkpt>
      <trkpt lat="43.1099004066019" lon="-4.8788833804474">
        <ele>1429.53742980957</ele>
        <time>2018-09-02T12:09:31Z</time>
      </trkpt>
      <trkpt lat="43.1098566111579" lon="-4.8788542952434">
        <ele>1431.66926574707</ele>
        <time>2018-09-02T12:09:34Z</time>
      </trkpt>
      <trkpt lat="43.1098145340039" lon="-4.87881196663238">
        <ele>1430.36592102051</ele>
        <time>2018-09-02T12:09:37Z</time>
      </trkpt>
      <trkpt lat="43.1097735464974" lon="-4.87877609208681">
        <ele>1431.0230255127</ele>
        <time>2018-09-02T12:09:40Z</time>
      </trkpt>
      <trkpt lat="43.1097347801953" lon="-4.87874189392187">
        <ele>1432.70246887207</ele>
        <time>2018-09-02T12:09:43Z</time>
      </trkpt>
      <trkpt lat="43.1096949242457" lon="-4.87869948149182">
        <ele>1433.13752746582</ele>
        <time>2018-09-02T12:09:46Z</time>
      </trkpt>
      <trkpt lat="43.1096496619686" lon="-4.87864952534891">
        <ele>1433.12727355957</ele>
        <time>2018-09-02T12:09:50Z</time>
      </trkpt>
      <trkpt lat="43.1096048606961" lon="-4.87861926667847">
        <ele>1436.01753234863</ele>
        <time>2018-09-02T12:09:53Z</time>
      </trkpt>
      <trkpt lat="43.1095579639479" lon="-4.87861205824174">
        <ele>1439.66120910645</ele>
        <time>2018-09-02T12:09:56Z</time>
      </trkpt>
      <trkpt lat="43.1095115282043" lon="-4.87861717120267">
        <ele>1440.4468536377</ele>
        <time>2018-09-02T12:09:59Z</time>
      </trkpt>
      <trkpt lat="43.1094503403111" lon="-4.87860887311853">
        <ele>1440.58515930176</ele>
        <time>2018-09-02T12:10:03Z</time>
      </trkpt>
      <trkpt lat="43.1093904935225" lon="-4.87862186506845">
        <ele>1440.76838684082</ele>
        <time>2018-09-02T12:10:06Z</time>
      </trkpt>
      <trkpt lat="43.1093321554764" lon="-4.87866293639399">
        <ele>1440.10285949707</ele>
        <time>2018-09-02T12:10:09Z</time>
      </trkpt>
      <trkpt lat="43.1092820316955" lon="-4.87869260833122">
        <ele>1439.98664855957</ele>
        <time>2018-09-02T12:10:12Z</time>
      </trkpt>
      <trkpt lat="43.1092299800768" lon="-4.87872345373489">
        <ele>1440.31135559082</ele>
        <time>2018-09-02T12:10:15Z</time>
      </trkpt>
      <trkpt lat="43.1091876095562" lon="-4.87877081148781">
        <ele>1443.35908508301</ele>
        <time>2018-09-02T12:10:18Z</time>
      </trkpt>
      <trkpt lat="43.10915005863" lon="-4.8788194265262">
        <ele>1444.07221984863</ele>
        <time>2018-09-02T12:10:21Z</time>
      </trkpt>
      <trkpt lat="43.1091081491142" lon="-4.87885857001401">
        <ele>1444.03291320801</ele>
        <time>2018-09-02T12:10:24Z</time>
      </trkpt>
      <trkpt lat="43.1090671196981" lon="-4.87890257500566">
        <ele>1444.28144836426</ele>
        <time>2018-09-02T12:10:27Z</time>
      </trkpt>
      <trkpt lat="43.1090208515926" lon="-4.87893668935157">
        <ele>1445.08564758301</ele>
        <time>2018-09-02T12:10:30Z</time>
      </trkpt>
      <trkpt lat="43.108974248211" lon="-4.87894641235925">
        <ele>1445.08613586426</ele>
        <time>2018-09-02T12:10:33Z</time>
      </trkpt>
      <trkpt lat="43.1089422712504" lon="-4.87889704294957">
        <ele>1447.84053039551</ele>
        <time>2018-09-02T12:10:36Z</time>
      </trkpt>
      <trkpt lat="43.1089695962547" lon="-4.87881883979298">
        <ele>1450.43855285645</ele>
        <time>2018-09-02T12:10:39Z</time>
      </trkpt>
      <trkpt lat="43.1090094102948" lon="-4.8787451628641">
        <ele>1450.56611633301</ele>
        <time>2018-09-02T12:10:42Z</time>
      </trkpt>
      <trkpt lat="43.1090308679669" lon="-4.87868707627512">
        <ele>1451.5005645752</ele>
        <time>2018-09-02T12:10:44Z</time>
      </trkpt>
      <trkpt lat="43.1090268027439" lon="-4.87860837020434">
        <ele>1451.06172180176</ele>
        <time>2018-09-02T12:10:47Z</time>
      </trkpt>
      <trkpt lat="43.1089878688037" lon="-4.87856017426111">
        <ele>1451.19673156738</ele>
        <time>2018-09-02T12:10:50Z</time>
      </trkpt>
      <trkpt lat="43.1089256331726" lon="-4.87856662832655">
        <ele>1451.04084777832</ele>
        <time>2018-09-02T12:10:53Z</time>
      </trkpt>
      <trkpt lat="43.1088719470828" lon="-4.87861490808882">
        <ele>1450.9966583252</ele>
        <time>2018-09-02T12:10:56Z</time>
      </trkpt>
      <trkpt lat="43.1088234996825" lon="-4.8786521237389">
        <ele>1452.06025695801</ele>
        <time>2018-09-02T12:10:59Z</time>
      </trkpt>
      <trkpt lat="43.1087762257486" lon="-4.87869872712053">
        <ele>1451.93391418457</ele>
        <time>2018-09-02T12:11:02Z</time>
      </trkpt>
      <trkpt lat="43.1087259762391" lon="-4.87874994054891">
        <ele>1451.93196105957</ele>
        <time>2018-09-02T12:11:05Z</time>
      </trkpt>
      <trkpt lat="43.1086680153786" lon="-4.8787935264454">
        <ele>1450.37275695801</ele>
        <time>2018-09-02T12:11:08Z</time>
      </trkpt>
      <trkpt lat="43.1086245133012" lon="-4.87881221808948">
        <ele>1451.2593536377</ele>
        <time>2018-09-02T12:11:10Z</time>
      </trkpt>
      <trkpt lat="43.1085813464998" lon="-4.87883300520934">
        <ele>1451.37178039551</ele>
        <time>2018-09-02T12:11:12Z</time>
      </trkpt>
      <trkpt lat="43.1085375929653" lon="-4.87886217423238">
        <ele>1451.29475402832</ele>
        <time>2018-09-02T12:11:14Z</time>
      </trkpt>
      <trkpt lat="43.1084854575276" lon="-4.87890643068112">
        <ele>1451.33332824707</ele>
        <time>2018-09-02T12:11:17Z</time>
      </trkpt>
      <trkpt lat="43.1084437156498" lon="-4.87894532271184">
        <ele>1451.37019348145</ele>
        <time>2018-09-02T12:11:20Z</time>
      </trkpt>
      <trkpt lat="43.1083947653352" lon="-4.87891372293688">
        <ele>1454.13069152832</ele>
        <time>2018-09-02T12:11:24Z</time>
      </trkpt>
      <trkpt lat="43.1083883531793" lon="-4.87884314731218">
        <ele>1456.5757598877</ele>
        <time>2018-09-02T12:11:27Z</time>
      </trkpt>
      <trkpt lat="43.1083842879563" lon="-4.87876486033656">
        <ele>1460.1079864502</ele>
        <time>2018-09-02T12:11:31Z</time>
      </trkpt>
      <trkpt lat="43.1084022252291" lon="-4.87870727666177">
        <ele>1466.0962677002</ele>
        <time>2018-09-02T12:11:34Z</time>
      </trkpt>
      <trkpt lat="43.1084090983897" lon="-4.87863066606678">
        <ele>1467.27742004395</ele>
        <time>2018-09-02T12:11:38Z</time>
      </trkpt>
      <trkpt lat="43.1084184023022" lon="-4.87855422310985">
        <ele>1469.14936828613</ele>
        <time>2018-09-02T12:11:42Z</time>
      </trkpt>
      <trkpt lat="43.1084520556434" lon="-4.87848834135093">
        <ele>1471.50288391113</ele>
        <time>2018-09-02T12:11:45Z</time>
      </trkpt>
      <trkpt lat="43.1084803026571" lon="-4.87843369134225">
        <ele>1470.31098937988</ele>
        <time>2018-09-02T12:11:47Z</time>
      </trkpt>
      <trkpt lat="43.1085109385132" lon="-4.87836990505911">
        <ele>1471.52119445801</ele>
        <time>2018-09-02T12:11:50Z</time>
      </trkpt>
      <trkpt lat="43.1085287500574" lon="-4.87829304300703">
        <ele>1470.28193664551</ele>
        <time>2018-09-02T12:11:54Z</time>
      </trkpt>
      <trkpt lat="43.1085472740634" lon="-4.87822766416229">
        <ele>1470.10810852051</ele>
        <time>2018-09-02T12:11:57Z</time>
      </trkpt>
      <trkpt lat="43.1085585058137" lon="-4.87815172411956">
        <ele>1468.75373840332</ele>
        <time>2018-09-02T12:12:02Z</time>
      </trkpt>
      <trkpt lat="43.1085873395606" lon="-4.87807796337165">
        <ele>1470.38459777832</ele>
        <time>2018-09-02T12:12:06Z</time>
      </trkpt>
      <trkpt lat="43.1086231302871" lon="-4.8780165240214">
        <ele>1469.17304992676</ele>
        <time>2018-09-02T12:12:09Z</time>
      </trkpt>
      <trkpt lat="43.1086520478531" lon="-4.87796019763209">
        <ele>1471.05952453613</ele>
        <time>2018-09-02T12:12:12Z</time>
      </trkpt>
      <trkpt lat="43.1086872937559" lon="-4.87791250460304">
        <ele>1473.71430969238</ele>
        <time>2018-09-02T12:12:14Z</time>
      </trkpt>
      <trkpt lat="43.1087318854808" lon="-4.87785642967082">
        <ele>1475.77778625488</ele>
        <time>2018-09-02T12:12:17Z</time>
      </trkpt>
      <trkpt lat="43.1087704422354" lon="-4.87782072276331">
        <ele>1477.95515441895</ele>
        <time>2018-09-02T12:12:20Z</time>
      </trkpt>
      <trkpt lat="43.1088256789773" lon="-4.87779934891023">
        <ele>1477.4419708252</ele>
        <time>2018-09-02T12:12:23Z</time>
      </trkpt>
      <trkpt lat="43.1088662054791" lon="-4.8777659889356">
        <ele>1475.47236633301</ele>
        <time>2018-09-02T12:12:25Z</time>
      </trkpt>
      <trkpt lat="43.108912096399" lon="-4.87773631699837">
        <ele>1477.08601379395</ele>
        <time>2018-09-02T12:12:28Z</time>
      </trkpt>
      <trkpt lat="43.1089726975589" lon="-4.8777297791139">
        <ele>1476.42866516113</ele>
        <time>2018-09-02T12:12:31Z</time>
      </trkpt>
      <trkpt lat="43.1090238271683" lon="-4.87771536224045">
        <ele>1478.5591583252</ele>
        <time>2018-09-02T12:12:34Z</time>
      </trkpt>
      <trkpt lat="43.1090716459259" lon="-4.87770161591924">
        <ele>1476.91157531738</ele>
        <time>2018-09-02T12:12:37Z</time>
      </trkpt>
      <trkpt lat="43.1091275113105" lon="-4.87767311744846">
        <ele>1476.40461730957</ele>
        <time>2018-09-02T12:12:41Z</time>
      </trkpt>
      <trkpt lat="43.1091839634284" lon="-4.87766356207885">
        <ele>1479.03559875488</ele>
        <time>2018-09-02T12:12:44Z</time>
      </trkpt>
      <trkpt lat="43.1092366436898" lon="-4.87765149213828">
        <ele>1479.25825500488</ele>
        <time>2018-09-02T12:12:47Z</time>
      </trkpt>
      <trkpt lat="43.1092912936985" lon="-4.87764168531157">
        <ele>1479.2398223877</ele>
        <time>2018-09-02T12:12:50Z</time>
      </trkpt>
      <trkpt lat="43.1093450636073" lon="-4.8776367399887">
        <ele>1480.33772277832</ele>
        <time>2018-09-02T12:12:53Z</time>
      </trkpt>
      <trkpt lat="43.109397115226" lon="-4.87765157595731">
        <ele>1480.35346984863</ele>
        <time>2018-09-02T12:12:57Z</time>
      </trkpt>
      <trkpt lat="43.109447406645" lon="-4.87763254903711">
        <ele>1481.22407531738</ele>
        <time>2018-09-02T12:13:01Z</time>
      </trkpt>
      <trkpt lat="43.1094966084166" lon="-4.87762609497167">
        <ele>1485.29011535645</ele>
        <time>2018-09-02T12:13:04Z</time>
      </trkpt>
      <trkpt lat="43.1095417030557" lon="-4.87761109136499">
        <ele>1488.08772277832</ele>
        <time>2018-09-02T12:13:07Z</time>
      </trkpt>
      <trkpt lat="43.1096063275292" lon="-4.8776053078518">
        <ele>1489.58137512207</ele>
        <time>2018-09-02T12:13:11Z</time>
      </trkpt>
      <trkpt lat="43.1096525956347" lon="-4.87758678384579">
        <ele>1491.5728302002</ele>
        <time>2018-09-02T12:13:14Z</time>
      </trkpt>
      <trkpt lat="43.1096951337933" lon="-4.87756482325949">
        <ele>1491.86103820801</ele>
        <time>2018-09-02T12:13:17Z</time>
      </trkpt>
      <trkpt lat="43.1097401446133" lon="-4.87753012218035">
        <ele>1492.76826477051</ele>
        <time>2018-09-02T12:13:20Z</time>
      </trkpt>
      <trkpt lat="43.1097766478016" lon="-4.87748628482677">
        <ele>1495.21797180176</ele>
        <time>2018-09-02T12:13:23Z</time>
      </trkpt>
      <trkpt lat="43.1098116841569" lon="-4.87743917853094">
        <ele>1496.37202453613</ele>
        <time>2018-09-02T12:13:26Z</time>
      </trkpt>
      <trkpt lat="43.1098712794884" lon="-4.87741503864981">
        <ele>1498.16621398926</ele>
        <time>2018-09-02T12:13:30Z</time>
      </trkpt>
      <trkpt lat="43.1099240854784" lon="-4.87740741111792">
        <ele>1498.64350891113</ele>
        <time>2018-09-02T12:13:33Z</time>
      </trkpt>
      <trkpt lat="43.109982381615" lon="-4.87742476165749">
        <ele>1498.94526672363</ele>
        <time>2018-09-02T12:13:37Z</time>
      </trkpt>
      <trkpt lat="43.1100298231869" lon="-4.87745502032794">
        <ele>1503.80122375488</ele>
        <time>2018-09-02T12:13:41Z</time>
      </trkpt>
      <trkpt lat="43.1100692600413" lon="-4.87748846412159">
        <ele>1504.33882141113</ele>
        <time>2018-09-02T12:13:44Z</time>
      </trkpt>
      <trkpt lat="43.1101255864306" lon="-4.87750874832727">
        <ele>1504.71968078613</ele>
        <time>2018-09-02T12:13:47Z</time>
      </trkpt>
      <trkpt lat="43.1101851398527" lon="-4.87752710469521">
        <ele>1505.82661437988</ele>
        <time>2018-09-02T12:13:50Z</time>
      </trkpt>
      <trkpt lat="43.1102358922764" lon="-4.87752618268586">
        <ele>1506.04096984863</ele>
        <time>2018-09-02T12:13:53Z</time>
      </trkpt>
      <trkpt lat="43.1102953199699" lon="-4.87751654349722">
        <ele>1506.26387023926</ele>
        <time>2018-09-02T12:13:56Z</time>
      </trkpt>
      <trkpt lat="43.1103430968179" lon="-4.87749407999672">
        <ele>1507.34516906738</ele>
        <time>2018-09-02T12:13:59Z</time>
      </trkpt>
      <trkpt lat="43.1104039075255" lon="-4.87747823819972">
        <ele>1506.39302062988</ele>
        <time>2018-09-02T12:14:03Z</time>
      </trkpt>
      <trkpt lat="43.1104539055779" lon="-4.87746692263044">
        <ele>1505.99678039551</ele>
        <time>2018-09-02T12:14:06Z</time>
      </trkpt>
      <trkpt lat="43.1105105253338" lon="-4.8774395976261">
        <ele>1505.98359680176</ele>
        <time>2018-09-02T12:14:10Z</time>
      </trkpt>
      <trkpt lat="43.1105566258012" lon="-4.87740447745181">
        <ele>1506.28755187988</ele>
        <time>2018-09-02T12:14:13Z</time>
      </trkpt>
      <trkpt lat="43.1106092222436" lon="-4.8773584608034">
        <ele>1505.90327453613</ele>
        <time>2018-09-02T12:14:17Z</time>
      </trkpt>
      <trkpt lat="43.1106581725582" lon="-4.87732719630457">
        <ele>1508.19917297363</ele>
        <time>2018-09-02T12:14:20Z</time>
      </trkpt>
      <trkpt lat="43.1107051112159" lon="-4.87729593180574">
        <ele>1507.43110656738</ele>
        <time>2018-09-02T12:14:23Z</time>
      </trkpt>
      <trkpt lat="43.1107426202326" lon="-4.87725192681409">
        <ele>1508.01875305176</ele>
        <time>2018-09-02T12:14:26Z</time>
      </trkpt>
      <trkpt lat="43.110785870853" lon="-4.87721764483012">
        <ele>1509.66596984863</ele>
        <time>2018-09-02T12:14:29Z</time>
      </trkpt>
      <trkpt lat="43.1108254753455" lon="-4.87718638033129">
        <ele>1508.38911437988</ele>
        <time>2018-09-02T12:14:32Z</time>
      </trkpt>
      <trkpt lat="43.1108787004306" lon="-4.87717808224715">
        <ele>1511.58320617676</ele>
        <time>2018-09-02T12:14:36Z</time>
      </trkpt>
      <trkpt lat="43.1109306263208" lon="-4.87716676667787">
        <ele>1515.26704406738</ele>
        <time>2018-09-02T12:14:40Z</time>
      </trkpt>
      <trkpt lat="43.1109820073872" lon="-4.87714958377637">
        <ele>1517.51533508301</ele>
        <time>2018-09-02T12:14:43Z</time>
      </trkpt>
      <trkpt lat="43.1110348552867" lon="-4.87711672671593">
        <ele>1518.42329406738</ele>
        <time>2018-09-02T12:14:46Z</time>
      </trkpt>
      <trkpt lat="43.1110774772643" lon="-4.87709459849156">
        <ele>1517.58393859863</ele>
        <time>2018-09-02T12:14:48Z</time>
      </trkpt>
      <trkpt lat="43.1111219851702" lon="-4.87706433982111">
        <ele>1517.33955383301</ele>
        <time>2018-09-02T12:14:50Z</time>
      </trkpt>
      <trkpt lat="43.111163894686" lon="-4.87703802064515">
        <ele>1517.51631164551</ele>
        <time>2018-09-02T12:14:52Z</time>
      </trkpt>
      <trkpt lat="43.1112076901301" lon="-4.8770130425737">
        <ele>1518.32417297363</ele>
        <time>2018-09-02T12:14:54Z</time>
      </trkpt>
      <trkpt lat="43.1112501863792" lon="-4.87698127516068">
        <ele>1519.05561828613</ele>
        <time>2018-09-02T12:14:56Z</time>
      </trkpt>
      <trkpt lat="43.1112882821291" lon="-4.87694389187254">
        <ele>1519.89668273926</ele>
        <time>2018-09-02T12:14:58Z</time>
      </trkpt>
      <trkpt lat="43.1113283476262" lon="-4.87690139562346">
        <ele>1520.70478820801</ele>
        <time>2018-09-02T12:15:00Z</time>
      </trkpt>
      <trkpt lat="43.1113623781531" lon="-4.87685906701244">
        <ele>1520.70893859863</ele>
        <time>2018-09-02T12:15:02Z</time>
      </trkpt>
      <trkpt lat="43.1113984203368" lon="-4.87679293379642">
        <ele>1519.48725891113</ele>
        <time>2018-09-02T12:15:05Z</time>
      </trkpt>
      <trkpt lat="43.1114252005174" lon="-4.87673878670193">
        <ele>1519.48872375488</ele>
        <time>2018-09-02T12:15:07Z</time>
      </trkpt>
      <trkpt lat="43.1114576803922" lon="-4.87669025548257">
        <ele>1518.84468078613</ele>
        <time>2018-09-02T12:15:09Z</time>
      </trkpt>
      <trkpt lat="43.1115056667878" lon="-4.8766295705036">
        <ele>1518.20918273926</ele>
        <time>2018-09-02T12:15:12Z</time>
      </trkpt>
      <trkpt lat="43.111550929065" lon="-4.87659243867255">
        <ele>1519.71479797363</ele>
        <time>2018-09-02T12:15:14Z</time>
      </trkpt>
      <trkpt lat="43.1115808105498" lon="-4.87654424272932">
        <ele>1520.37739562988</ele>
        <time>2018-09-02T12:15:16Z</time>
      </trkpt>
      <trkpt lat="43.1116154697194" lon="-4.87648305483617">
        <ele>1521.91694641113</ele>
        <time>2018-09-02T12:15:19Z</time>
      </trkpt>
      <trkpt lat="43.1116546551167" lon="-4.87642404623784">
        <ele>1521.25141906738</ele>
        <time>2018-09-02T12:15:23Z</time>
      </trkpt>
      <trkpt lat="43.1116943434282" lon="-4.87637232989527">
        <ele>1523.45161437988</ele>
        <time>2018-09-02T12:15:26Z</time>
      </trkpt>
      <trkpt lat="43.1117079221114" lon="-4.8763031791941">
        <ele>1526.98384094238</ele>
        <time>2018-09-02T12:15:30Z</time>
      </trkpt>
      <trkpt lat="43.1116489973321" lon="-4.87632145174302">
        <ele>1527.39643859863</ele>
        <time>2018-09-02T12:15:33Z</time>
      </trkpt>
      <trkpt lat="43.1116083031922" lon="-4.87635581754602">
        <ele>1527.22163391113</ele>
        <time>2018-09-02T12:15:35Z</time>
      </trkpt>
      <trkpt lat="43.1115532340883" lon="-4.8763861600355">
        <ele>1528.22846984863</ele>
        <time>2018-09-02T12:15:37Z</time>
      </trkpt>
      <trkpt lat="43.1114943512186" lon="-4.87641189247824">
        <ele>1528.63960266113</ele>
        <time>2018-09-02T12:15:39Z</time>
      </trkpt>
      <trkpt lat="43.111433372873" lon="-4.87643502653099">
        <ele>1529.42744445801</ele>
        <time>2018-09-02T12:15:41Z</time>
      </trkpt>
      <trkpt lat="43.1113713467895" lon="-4.87645346671797">
        <ele>1530.13056945801</ele>
        <time>2018-09-02T12:15:43Z</time>
      </trkpt>
      <trkpt lat="43.1113088597014" lon="-4.87647668458975">
        <ele>1530.93574523926</ele>
        <time>2018-09-02T12:15:45Z</time>
      </trkpt>
      <trkpt lat="43.1112477137177" lon="-4.87649898045219">
        <ele>1531.24897766113</ele>
        <time>2018-09-02T12:15:47Z</time>
      </trkpt>
      <trkpt lat="43.1111892080336" lon="-4.87651364878274">
        <ele>1531.27534484863</ele>
        <time>2018-09-02T12:15:49Z</time>
      </trkpt>
      <trkpt lat="43.1111335941061" lon="-4.87652211450494">
        <ele>1531.66108703613</ele>
        <time>2018-09-02T12:15:51Z</time>
      </trkpt>
      <trkpt lat="43.1110748369648" lon="-4.87652454525686">
        <ele>1532.99433898926</ele>
        <time>2018-09-02T12:15:53Z</time>
      </trkpt>
      <trkpt lat="43.1110154511808" lon="-4.87653904594935">
        <ele>1533.37324523926</ele>
        <time>2018-09-02T12:15:55Z</time>
      </trkpt>
      <trkpt lat="43.1109633157431" lon="-4.87654231489159">
        <ele>1533.37886047363</ele>
        <time>2018-09-02T12:15:57Z</time>
      </trkpt>
      <trkpt lat="43.1109082885488" lon="-4.8765227850572">
        <ele>1533.55366516113</ele>
        <time>2018-09-02T12:15:59Z</time>
      </trkpt>
      <trkpt lat="43.1108464301034" lon="-4.87651105039276">
        <ele>1533.53266906738</ele>
        <time>2018-09-02T12:16:01Z</time>
      </trkpt>
      <trkpt lat="43.1107823504536" lon="-4.87650576979376">
        <ele>1534.75532531738</ele>
        <time>2018-09-02T12:16:03Z</time>
      </trkpt>
      <trkpt lat="43.1107239704981" lon="-4.87648389302648">
        <ele>1535.27729797363</ele>
        <time>2018-09-02T12:16:05Z</time>
      </trkpt>
      <trkpt lat="43.1106593460246" lon="-4.87646344118274">
        <ele>1534.73286437988</ele>
        <time>2018-09-02T12:16:07Z</time>
      </trkpt>
      <trkpt lat="43.1105923327087" lon="-4.87645413727022">
        <ele>1535.56831359863</ele>
        <time>2018-09-02T12:16:09Z</time>
      </trkpt>
      <trkpt lat="43.1105254032119" lon="-4.87644835375704">
        <ele>1535.75923156738</ele>
        <time>2018-09-02T12:16:11Z</time>
      </trkpt>
      <trkpt lat="43.1104559591441" lon="-4.87643041648425">
        <ele>1535.36811828613</ele>
        <time>2018-09-02T12:16:13Z</time>
      </trkpt>
      <trkpt lat="43.110396070446" lon="-4.87639253028191">
        <ele>1535.96528625488</ele>
        <time>2018-09-02T12:16:15Z</time>
      </trkpt>
      <trkpt lat="43.1103479583218" lon="-4.8763481061951">
        <ele>1536.12886047363</ele>
        <time>2018-09-02T12:16:17Z</time>
      </trkpt>
      <trkpt lat="43.1102870218857" lon="-4.87630116753734">
        <ele>1536.72187805176</ele>
        <time>2018-09-02T12:16:19Z</time>
      </trkpt>
      <trkpt lat="43.1102264626353" lon="-4.8762585036502">
        <ele>1537.95454406738</ele>
        <time>2018-09-02T12:16:21Z</time>
      </trkpt>
      <trkpt lat="43.1101643527328" lon="-4.87621667795337">
        <ele>1538.23432922363</ele>
        <time>2018-09-02T12:16:23Z</time>
      </trkpt>
      <trkpt lat="43.110105469863" lon="-4.87617803737975">
        <ele>1539.72969055176</ele>
        <time>2018-09-02T12:16:25Z</time>
      </trkpt>
      <trkpt lat="43.1100481795549" lon="-4.87614258192934">
        <ele>1540.55097961426</ele>
        <time>2018-09-02T12:16:27Z</time>
      </trkpt>
      <trkpt lat="43.1099911826133" lon="-4.87610855140246">
        <ele>1539.50923156738</ele>
        <time>2018-09-02T12:16:29Z</time>
      </trkpt>
      <trkpt lat="43.1099387957185" lon="-4.87607267685689">
        <ele>1539.80024719238</ele>
        <time>2018-09-02T12:16:31Z</time>
      </trkpt>
      <trkpt lat="43.1098851515382" lon="-4.87603277899779">
        <ele>1539.34956359863</ele>
        <time>2018-09-02T12:16:33Z</time>
      </trkpt>
      <trkpt lat="43.1098316749959" lon="-4.8760010954038">
        <ele>1539.36177062988</ele>
        <time>2018-09-02T12:16:35Z</time>
      </trkpt>
      <trkpt lat="43.1097719958453" lon="-4.87597670406557">
        <ele>1540.96138000488</ele>
        <time>2018-09-02T12:16:37Z</time>
      </trkpt>
      <trkpt lat="43.109709089662" lon="-4.87595281564153">
        <ele>1539.13081359863</ele>
        <time>2018-09-02T12:16:39Z</time>
      </trkpt>
      <trkpt lat="43.1096424535318" lon="-4.8759284243033">
        <ele>1540.75190734863</ele>
        <time>2018-09-02T12:16:41Z</time>
      </trkpt>
      <trkpt lat="43.1095760269492" lon="-4.87590135075606">
        <ele>1541.72309875488</ele>
        <time>2018-09-02T12:16:43Z</time>
      </trkpt>
      <trkpt lat="43.1095114443853" lon="-4.87587637268461">
        <ele>1539.31391906738</ele>
        <time>2018-09-02T12:16:45Z</time>
      </trkpt>
      <trkpt lat="43.1094529387011" lon="-4.87585592084087">
        <ele>1539.75996398926</ele>
        <time>2018-09-02T12:16:47Z</time>
      </trkpt>
      <trkpt lat="43.1093847100093" lon="-4.87583714537777">
        <ele>1540.47456359863</ele>
        <time>2018-09-02T12:16:49Z</time>
      </trkpt>
      <trkpt lat="43.1093063811242" lon="-4.87581166439212">
        <ele>1540.59126281738</ele>
        <time>2018-09-02T12:16:51Z</time>
      </trkpt>
      <trkpt lat="43.1092321593716" lon="-4.87580127083219">
        <ele>1542.37397766113</ele>
        <time>2018-09-02T12:16:53Z</time>
      </trkpt>
      <trkpt lat="43.109156554605" lon="-4.87581468187727">
        <ele>1542.01802062988</ele>
        <time>2018-09-02T12:16:55Z</time>
      </trkpt>
      <trkpt lat="43.1090861466183" lon="-4.87583639100648">
        <ele>1543.13838195801</ele>
        <time>2018-09-02T12:16:57Z</time>
      </trkpt>
      <trkpt lat="43.109029820229" lon="-4.87586321309663">
        <ele>1543.05854797363</ele>
        <time>2018-09-02T12:16:59Z</time>
      </trkpt>
      <trkpt lat="43.1089765951439" lon="-4.87590579316474">
        <ele>1544.26704406738</ele>
        <time>2018-09-02T12:17:01Z</time>
      </trkpt>
      <trkpt lat="43.1089289021148" lon="-4.87595482729829">
        <ele>1547.66011047363</ele>
        <time>2018-09-02T12:17:03Z</time>
      </trkpt>
      <trkpt lat="43.1088885013416" lon="-4.87600025721348">
        <ele>1547.06684875488</ele>
        <time>2018-09-02T12:17:05Z</time>
      </trkpt>
      <trkpt lat="43.1088359887182" lon="-4.87605121918477">
        <ele>1549.44087219238</ele>
        <time>2018-09-02T12:17:07Z</time>
      </trkpt>
      <trkpt lat="43.10877869841" lon="-4.87609907985188">
        <ele>1549.82173156738</ele>
        <time>2018-09-02T12:17:09Z</time>
      </trkpt>
      <trkpt lat="43.1087201089068" lon="-4.8761461861477">
        <ele>1550.99922180176</ele>
        <time>2018-09-02T12:17:11Z</time>
      </trkpt>
      <trkpt lat="43.1086601782992" lon="-4.87618574873067">
        <ele>1551.32514953613</ele>
        <time>2018-09-02T12:17:13Z</time>
      </trkpt>
      <trkpt lat="43.1085951766401" lon="-4.87622237764753">
        <ele>1552.00752258301</ele>
        <time>2018-09-02T12:17:15Z</time>
      </trkpt>
      <trkpt lat="43.1085306359856" lon="-4.87625909038342">
        <ele>1553.45649719238</ele>
        <time>2018-09-02T12:17:17Z</time>
      </trkpt>
      <trkpt lat="43.1084645446791" lon="-4.87628800794936">
        <ele>1553.58930969238</ele>
        <time>2018-09-02T12:17:19Z</time>
      </trkpt>
      <trkpt lat="43.1084049493476" lon="-4.87630988471664">
        <ele>1553.38789367676</ele>
        <time>2018-09-02T12:17:21Z</time>
      </trkpt>
      <trkpt lat="43.1083422108023" lon="-4.87632991746522">
        <ele>1555.13545227051</ele>
        <time>2018-09-02T12:17:23Z</time>
      </trkpt>
      <trkpt lat="43.1082779635145" lon="-4.87635070458509">
        <ele>1554.87959289551</ele>
        <time>2018-09-02T12:17:25Z</time>
      </trkpt>
      <trkpt lat="43.1082119141175" lon="-4.87636495382048">
        <ele>1555.33930969238</ele>
        <time>2018-09-02T12:17:27Z</time>
      </trkpt>
      <trkpt lat="43.1081452779873" lon="-4.87636445090629">
        <ele>1555.74800109863</ele>
        <time>2018-09-02T12:17:29Z</time>
      </trkpt>
      <trkpt lat="43.1080772169336" lon="-4.8763568233744">
        <ele>1556.02119445801</ele>
        <time>2018-09-02T12:17:31Z</time>
      </trkpt>
      <trkpt lat="43.1080076052277" lon="-4.87634324469126">
        <ele>1555.81831359863</ele>
        <time>2018-09-02T12:17:33Z</time>
      </trkpt>
      <trkpt lat="43.1079371553316" lon="-4.87632463686622">
        <ele>1554.42524719238</ele>
        <time>2018-09-02T12:17:35Z</time>
      </trkpt>
      <trkpt lat="43.1078706030204" lon="-4.87631122582115">
        <ele>1553.87983703613</ele>
        <time>2018-09-02T12:17:37Z</time>
      </trkpt>
      <trkpt lat="43.1078078644752" lon="-4.87630116753734">
        <ele>1554.23530578613</ele>
        <time>2018-09-02T12:17:39Z</time>
      </trkpt>
      <trkpt lat="43.1077465089439" lon="-4.87629069015838">
        <ele>1555.90278625488</ele>
        <time>2018-09-02T12:17:41Z</time>
      </trkpt>
      <trkpt lat="43.1076861592411" lon="-4.87628247589327">
        <ele>1556.46528625488</ele>
        <time>2018-09-02T12:17:43Z</time>
      </trkpt>
      <trkpt lat="43.1076259352668" lon="-4.87628968433">
        <ele>1556.51387023926</ele>
        <time>2018-09-02T12:17:45Z</time>
      </trkpt>
      <trkpt lat="43.1075630290835" lon="-4.87629622221447">
        <ele>1555.80683898926</ele>
        <time>2018-09-02T12:17:47Z</time>
      </trkpt>
      <trkpt lat="43.107495638582" lon="-4.87631256692566">
        <ele>1555.69380187988</ele>
        <time>2018-09-02T12:17:49Z</time>
      </trkpt>
      <trkpt lat="43.1074528908758" lon="-4.87633905373968">
        <ele>1556.53950500488</ele>
        <time>2018-09-02T12:17:51Z</time>
      </trkpt>
      <trkpt lat="43.1074274517997" lon="-4.87640208565153">
        <ele>1554.97944641113</ele>
        <time>2018-09-02T12:17:54Z</time>
      </trkpt>
      <trkpt lat="43.1074450118869" lon="-4.87646763213433">
        <ele>1555.32759094238</ele>
        <time>2018-09-02T12:17:57Z</time>
      </trkpt>
      <trkpt lat="43.1074981950625" lon="-4.87649495713867">
        <ele>1557.67134094238</ele>
        <time>2018-09-02T12:18:00Z</time>
      </trkpt>
      <trkpt lat="43.1075540185376" lon="-4.87652353942848">
        <ele>1559.03852844238</ele>
        <time>2018-09-02T12:18:03Z</time>
      </trkpt>
      <trkpt lat="43.1075882167026" lon="-4.87657148391463">
        <ele>1559.41645812988</ele>
        <time>2018-09-02T12:18:06Z</time>
      </trkpt>
      <trkpt lat="43.1075429544254" lon="-4.87656754442013">
        <ele>1559.25801086426</ele>
        <time>2018-09-02T12:20:15Z</time>
      </trkpt>
      <trkpt lat="43.1075025117426" lon="-4.87653183751262">
        <ele>1559.36470031738</ele>
        <time>2018-09-02T12:20:17Z</time>
      </trkpt>
      <trkpt lat="43.1074436288728" lon="-4.8764831386552">
        <ele>1558.29829406738</ele>
        <time>2018-09-02T12:20:19Z</time>
      </trkpt>
      <trkpt lat="43.1073989114194" lon="-4.87647274509526">
        <ele>1557.62055969238</ele>
        <time>2018-09-02T12:20:20Z</time>
      </trkpt>
      <trkpt lat="43.1073474884435" lon="-4.87647542730428">
        <ele>1557.47016906738</ele>
        <time>2018-09-02T12:20:21Z</time>
      </trkpt>
      <trkpt lat="43.1072976161196" lon="-4.87648732960678">
        <ele>1557.73066711426</ele>
        <time>2018-09-02T12:20:22Z</time>
      </trkpt>
      <trkpt lat="43.1072556646942" lon="-4.87653887831129">
        <ele>1558.42573547363</ele>
        <time>2018-09-02T12:20:23Z</time>
      </trkpt>
      <trkpt lat="43.1072196644201" lon="-4.87657735124685">
        <ele>1558.39472961426</ele>
        <time>2018-09-02T12:20:24Z</time>
      </trkpt>
      <trkpt lat="43.1071801856562" lon="-4.87661884166754">
        <ele>1558.66450500488</ele>
        <time>2018-09-02T12:20:25Z</time>
      </trkpt>
      <trkpt lat="43.1070969533577" lon="-4.87668212503649">
        <ele>1559.18330383301</ele>
        <time>2018-09-02T12:20:27Z</time>
      </trkpt>
      <trkpt lat="43.1070161937206" lon="-4.87673576921679">
        <ele>1558.64497375488</ele>
        <time>2018-09-02T12:20:29Z</time>
      </trkpt>
      <trkpt lat="43.1069666566729" lon="-4.87673811614968">
        <ele>1559.13862609863</ele>
        <time>2018-09-02T12:20:30Z</time>
      </trkpt>
      <trkpt lat="43.1069117552071" lon="-4.87672051415301">
        <ele>1559.45991516113</ele>
        <time>2018-09-02T12:20:31Z</time>
      </trkpt>
      <trkpt lat="43.1068594940408" lon="-4.87669813447155">
        <ele>1559.39692687988</ele>
        <time>2018-09-02T12:20:32Z</time>
      </trkpt>
      <trkpt lat="43.1068066880508" lon="-4.87667231820978">
        <ele>1559.57710266113</ele>
        <time>2018-09-02T12:20:33Z</time>
      </trkpt>
      <trkpt lat="43.106754133518" lon="-4.87664105371095">
        <ele>1559.81294250488</ele>
        <time>2018-09-02T12:20:34Z</time>
      </trkpt>
      <trkpt lat="43.1067030458181" lon="-4.87660911865987">
        <ele>1560.05708312988</ele>
        <time>2018-09-02T12:20:35Z</time>
      </trkpt>
      <trkpt lat="43.1066517485707" lon="-4.87657927908457">
        <ele>1559.81636047363</ele>
        <time>2018-09-02T12:20:36Z</time>
      </trkpt>
      <trkpt lat="43.1066019600659" lon="-4.87654910423316">
        <ele>1559.46333312988</ele>
        <time>2018-09-02T12:20:37Z</time>
      </trkpt>
      <trkpt lat="43.1065502437233" lon="-4.87651800737239">
        <ele>1559.20820617676</ele>
        <time>2018-09-02T12:20:38Z</time>
      </trkpt>
      <trkpt lat="43.10649513271" lon="-4.87647718750395">
        <ele>1558.89009094238</ele>
        <time>2018-09-02T12:20:39Z</time>
      </trkpt>
      <trkpt lat="43.1064442126482" lon="-4.87644189969159">
        <ele>1558.47456359863</ele>
        <time>2018-09-02T12:20:40Z</time>
      </trkpt>
      <trkpt lat="43.1063914066582" lon="-4.87640292384185">
        <ele>1558.35981750488</ele>
        <time>2018-09-02T12:20:41Z</time>
      </trkpt>
      <trkpt lat="43.1063384749397" lon="-4.8763655405537">
        <ele>1558.56684875488</ele>
        <time>2018-09-02T12:20:42Z</time>
      </trkpt>
      <trkpt lat="43.1062847888499" lon="-4.87632631324686">
        <ele>1558.68013000488</ele>
        <time>2018-09-02T12:20:43Z</time>
      </trkpt>
      <trkpt lat="43.1062272051751" lon="-4.87628482282616">
        <ele>1558.41645812988</ele>
        <time>2018-09-02T12:20:44Z</time>
      </trkpt>
      <trkpt lat="43.1061707530572" lon="-4.87624802627124">
        <ele>1557.83491516113</ele>
        <time>2018-09-02T12:20:45Z</time>
      </trkpt>
      <trkpt lat="43.1061115768208" lon="-4.87621483393468">
        <ele>1557.73921203613</ele>
        <time>2018-09-02T12:20:46Z</time>
      </trkpt>
      <trkpt lat="43.1060541607841" lon="-4.87617501989461">
        <ele>1557.34516906738</ele>
        <time>2018-09-02T12:20:47Z</time>
      </trkpt>
      <trkpt lat="43.1059959065571" lon="-4.87613939680613">
        <ele>1556.84761047363</ele>
        <time>2018-09-02T12:20:48Z</time>
      </trkpt>
      <trkpt lat="43.1059339642926" lon="-4.87610067241348">
        <ele>1556.02534484863</ele>
        <time>2018-09-02T12:20:49Z</time>
      </trkpt>
      <trkpt lat="43.1058733212232" lon="-4.87606136128761">
        <ele>1555.39497375488</ele>
        <time>2018-09-02T12:20:50Z</time>
      </trkpt>
      <trkpt lat="43.1058134744345" lon="-4.87600184977509">
        <ele>1554.86250305176</ele>
        <time>2018-09-02T12:20:51Z</time>
      </trkpt>
      <trkpt lat="43.1057558488502" lon="-4.87593730912067">
        <ele>1554.67475891113</ele>
        <time>2018-09-02T12:20:52Z</time>
      </trkpt>
      <trkpt lat="43.1056941580429" lon="-4.8758649732963">
        <ele>1554.32466125488</ele>
        <time>2018-09-02T12:20:53Z</time>
      </trkpt>
      <trkpt lat="43.1056318805023" lon="-4.87579221837677">
        <ele>1553.66255187988</ele>
        <time>2018-09-02T12:20:54Z</time>
      </trkpt>
      <trkpt lat="43.1055690162285" lon="-4.87571191974438">
        <ele>1553.24678039551</ele>
        <time>2018-09-02T12:20:55Z</time>
      </trkpt>
      <trkpt lat="43.1055024639173" lon="-4.87563204020716">
        <ele>1552.80830383301</ele>
        <time>2018-09-02T12:20:56Z</time>
      </trkpt>
      <trkpt lat="43.1054345285921" lon="-4.87554118037678">
        <ele>1552.14106750488</ele>
        <time>2018-09-02T12:20:57Z</time>
      </trkpt>
      <trkpt lat="43.1053643720626" lon="-4.87544696778513">
        <ele>1551.50971984863</ele>
        <time>2018-09-02T12:20:58Z</time>
      </trkpt>
      <trkpt lat="43.1052892283007" lon="-4.87535560504056">
        <ele>1550.87348937988</ele>
        <time>2018-09-02T12:20:59Z</time>
      </trkpt>
      <trkpt lat="43.105209558311" lon="-4.8752639908389">
        <ele>1550.03266906738</ele>
        <time>2018-09-02T12:21:00Z</time>
      </trkpt>
      <trkpt lat="43.1051329896255" lon="-4.87517011352337">
        <ele>1549.65693664551</ele>
        <time>2018-09-02T12:21:01Z</time>
      </trkpt>
      <trkpt lat="43.105048374313" lon="-4.87507405691303">
        <ele>1548.46382141113</ele>
        <time>2018-09-02T12:21:02Z</time>
      </trkpt>
      <trkpt lat="43.1049664412095" lon="-4.87497347407497">
        <ele>1547.59175109863</ele>
        <time>2018-09-02T12:21:03Z</time>
      </trkpt>
      <trkpt lat="43.1048832927301" lon="-4.8748665209905">
        <ele>1547.01313781738</ele>
        <time>2018-09-02T12:21:04Z</time>
      </trkpt>
      <trkpt lat="43.1047983002319" lon="-4.87475956790603">
        <ele>1546.36860656738</ele>
        <time>2018-09-02T12:21:05Z</time>
      </trkpt>
      <trkpt lat="43.104713978286" lon="-4.87464976497448">
        <ele>1545.60786437988</ele>
        <time>2018-09-02T12:21:06Z</time>
      </trkpt>
      <trkpt lat="43.1046399241715" lon="-4.8745229467795">
        <ele>1544.41548156738</ele>
        <time>2018-09-02T12:21:07Z</time>
      </trkpt>
      <trkpt lat="43.1045927759661" lon="-4.87437609583593">
        <ele>1544.06831359863</ele>
        <time>2018-09-02T12:21:08Z</time>
      </trkpt>
      <trkpt lat="43.1045574881538" lon="-4.87422161736048">
        <ele>1543.46675109863</ele>
        <time>2018-09-02T12:21:09Z</time>
      </trkpt>
      <trkpt lat="43.1045344798296" lon="-4.87406403758086">
        <ele>1543.07319641113</ele>
        <time>2018-09-02T12:21:10Z</time>
      </trkpt>
      <trkpt lat="43.1045501539885" lon="-4.8739013448403">
        <ele>1542.08198547363</ele>
        <time>2018-09-02T12:21:11Z</time>
      </trkpt>
      <trkpt lat="43.1046059355541" lon="-4.87375767901994">
        <ele>1541.20698547363</ele>
        <time>2018-09-02T12:21:12Z</time>
      </trkpt>
      <trkpt lat="43.1046872400149" lon="-4.87363069318689">
        <ele>1540.17866516113</ele>
        <time>2018-09-02T12:21:13Z</time>
      </trkpt>
      <trkpt lat="43.1047652755334" lon="-4.87350194715417">
        <ele>1539.29731750488</ele>
        <time>2018-09-02T12:21:14Z</time>
      </trkpt>
      <trkpt lat="43.1048158184095" lon="-4.8733450379268">
        <ele>1538.60249328613</ele>
        <time>2018-09-02T12:21:15Z</time>
      </trkpt>
      <trkpt lat="43.1048293970927" lon="-4.87317664549209">
        <ele>1537.77143859863</ele>
        <time>2018-09-02T12:21:16Z</time>
      </trkpt>
      <trkpt lat="43.1048274273454" lon="-4.8730085883335">
        <ele>1536.83979797363</ele>
        <time>2018-09-02T12:21:17Z</time>
      </trkpt>
      <trkpt lat="43.1048257090553" lon="-4.87284438685036">
        <ele>1536.20259094238</ele>
        <time>2018-09-02T12:21:18Z</time>
      </trkpt>
      <trkpt lat="43.1048298580973" lon="-4.87267775461531">
        <ele>1535.19697570801</ele>
        <time>2018-09-02T12:21:19Z</time>
      </trkpt>
      <trkpt lat="43.10482097328" lon="-4.87251271494187">
        <ele>1534.40400695801</ele>
        <time>2018-09-02T12:21:20Z</time>
      </trkpt>
      <trkpt lat="43.1047959113895" lon="-4.87235069275356">
        <ele>1533.33930969238</ele>
        <time>2018-09-02T12:21:21Z</time>
      </trkpt>
      <trkpt lat="43.1047492660984" lon="-4.87219730392552">
        <ele>1532.81660461426</ele>
        <time>2018-09-02T12:21:22Z</time>
      </trkpt>
      <trkpt lat="43.1046878267481" lon="-4.87205221318162">
        <ele>1532.22529602051</ele>
        <time>2018-09-02T12:21:23Z</time>
      </trkpt>
      <trkpt lat="43.1046133954479" lon="-4.87191810273088">
        <ele>1531.26753234863</ele>
        <time>2018-09-02T12:21:24Z</time>
      </trkpt>
      <trkpt lat="43.1045234576269" lon="-4.87181014381803">
        <ele>1530.40864562988</ele>
        <time>2018-09-02T12:21:25Z</time>
      </trkpt>
      <trkpt lat="43.1044132356002" lon="-4.87173755653656">
        <ele>1529.60639953613</ele>
        <time>2018-09-02T12:21:26Z</time>
      </trkpt>
      <trkpt lat="43.1042904826283" lon="-4.87170830369449">
        <ele>1529.15815734863</ele>
        <time>2018-09-02T12:21:27Z</time>
      </trkpt>
      <trkpt lat="43.1041722139745" lon="-4.87170235254324">
        <ele>1528.76460266113</ele>
        <time>2018-09-02T12:21:28Z</time>
      </trkpt>
      <trkpt lat="43.1040568789869" lon="-4.87168265507079">
        <ele>1528.41841125488</ele>
        <time>2018-09-02T12:21:29Z</time>
      </trkpt>
      <trkpt lat="43.1039470341458" lon="-4.8716493789152">
        <ele>1527.69819641113</ele>
        <time>2018-09-02T12:21:30Z</time>
      </trkpt>
      <trkpt lat="43.1038352195575" lon="-4.87160562538064">
        <ele>1527.23750305176</ele>
        <time>2018-09-02T12:21:31Z</time>
      </trkpt>
      <trkpt lat="43.1037205132126" lon="-4.87156178802705">
        <ele>1526.09223937988</ele>
        <time>2018-09-02T12:21:32Z</time>
      </trkpt>
      <trkpt lat="43.1036101654573" lon="-4.87150353380001">
        <ele>1525.73481750488</ele>
        <time>2018-09-02T12:21:33Z</time>
      </trkpt>
      <trkpt lat="43.1035075709625" lon="-4.87143438309885">
        <ele>1525.26313781738</ele>
        <time>2018-09-02T12:21:34Z</time>
      </trkpt>
      <trkpt lat="43.1034127716376" lon="-4.87135324627615">
        <ele>1524.10835266113</ele>
        <time>2018-09-02T12:21:35Z</time>
      </trkpt>
      <trkpt lat="43.1033196906029" lon="-4.87124947831488">
        <ele>1523.50630187988</ele>
        <time>2018-09-02T12:21:36Z</time>
      </trkpt>
      <trkpt lat="43.1032222928881" lon="-4.87115928903676">
        <ele>1522.46919250488</ele>
        <time>2018-09-02T12:21:37Z</time>
      </trkpt>
      <trkpt lat="43.1031093048333" lon="-4.87109189853526">
        <ele>1521.75825500488</ele>
        <time>2018-09-02T12:21:38Z</time>
      </trkpt>
      <trkpt lat="43.1029970292403" lon="-4.87104546279169">
        <ele>1521.30317687988</ele>
        <time>2018-09-02T12:21:39Z</time>
      </trkpt>
      <trkpt lat="43.1028907467081" lon="-4.87099651247717">
        <ele>1521.00093078613</ele>
        <time>2018-09-02T12:21:40Z</time>
      </trkpt>
      <trkpt lat="43.1027883617609" lon="-4.87092752941406">
        <ele>1520.58491516113</ele>
        <time>2018-09-02T12:21:41Z</time>
      </trkpt>
      <trkpt lat="43.1026939815312" lon="-4.87083977088786">
        <ele>1519.57441711426</ele>
        <time>2018-09-02T12:21:42Z</time>
      </trkpt>
      <trkpt lat="43.1026053848146" lon="-4.87074228935397">
        <ele>1518.53315734863</ele>
        <time>2018-09-02T12:21:43Z</time>
      </trkpt>
      <trkpt lat="43.1025200151308" lon="-4.87063248642243">
        <ele>1517.94575500488</ele>
        <time>2018-09-02T12:21:44Z</time>
      </trkpt>
      <trkpt lat="43.1024362799182" lon="-4.87052201293862">
        <ele>1517.67524719238</ele>
        <time>2018-09-02T12:21:45Z</time>
      </trkpt>
      <trkpt lat="43.1023514131485" lon="-4.87041044980741">
        <ele>1517.33930969238</ele>
        <time>2018-09-02T12:21:46Z</time>
      </trkpt>
      <trkpt lat="43.102263947989" lon="-4.87029553391493">
        <ele>1516.62104797363</ele>
        <time>2018-09-02T12:21:47Z</time>
      </trkpt>
      <trkpt lat="43.1021747226297" lon="-4.87018992193497">
        <ele>1516.06758117676</ele>
        <time>2018-09-02T12:21:48Z</time>
      </trkpt>
      <trkpt lat="43.1020795461192" lon="-4.87008783035434">
        <ele>1515.54194641113</ele>
        <time>2018-09-02T12:21:49Z</time>
      </trkpt>
      <trkpt lat="43.1019794242858" lon="-4.86999755725718">
        <ele>1515.09565734863</ele>
        <time>2018-09-02T12:21:50Z</time>
      </trkpt>
      <trkpt lat="43.1018758239626" lon="-4.86991977319575">
        <ele>1515.00288391113</ele>
        <time>2018-09-02T12:21:51Z</time>
      </trkpt>
      <trkpt lat="43.1017682841449" lon="-4.86984165385819">
        <ele>1514.33930969238</ele>
        <time>2018-09-02T12:21:52Z</time>
      </trkpt>
      <trkpt lat="43.1016622530698" lon="-4.86976487562514">
        <ele>1513.56782531738</ele>
        <time>2018-09-02T12:21:53Z</time>
      </trkpt>
      <trkpt lat="43.1015585689276" lon="-4.86968709156371">
        <ele>1512.80244445801</ele>
        <time>2018-09-02T12:21:54Z</time>
      </trkpt>
      <trkpt lat="43.1014527054905" lon="-4.86960821785486">
        <ele>1512.56440734863</ele>
        <time>2018-09-02T12:21:55Z</time>
      </trkpt>
      <trkpt lat="43.1013446627586" lon="-4.86953420564986">
        <ele>1511.79731750488</ele>
        <time>2018-09-02T12:21:56Z</time>
      </trkpt>
      <trkpt lat="43.101242487359" lon="-4.86945860088325">
        <ele>1512.20625305176</ele>
        <time>2018-09-02T12:21:57Z</time>
      </trkpt>
      <trkpt lat="43.1011405215069" lon="-4.86938567832566">
        <ele>1511.72456359863</ele>
        <time>2018-09-02T12:21:58Z</time>
      </trkpt>
      <trkpt lat="43.1010400224878" lon="-4.86930370331264">
        <ele>1511.71211242676</ele>
        <time>2018-09-02T12:21:59Z</time>
      </trkpt>
      <trkpt lat="43.1009471090912" lon="-4.86921820790029">
        <ele>1511.65791320801</ele>
        <time>2018-09-02T12:22:00Z</time>
      </trkpt>
      <trkpt lat="43.1008588057413" lon="-4.86912894063151">
        <ele>1511.63301086426</ele>
        <time>2018-09-02T12:22:01Z</time>
      </trkpt>
      <trkpt lat="43.1007839972555" lon="-4.86902324483252">
        <ele>1511.23970031738</ele>
        <time>2018-09-02T12:22:02Z</time>
      </trkpt>
      <trkpt lat="43.1007132120832" lon="-4.86891017295874">
        <ele>1510.91572570801</ele>
        <time>2018-09-02T12:22:03Z</time>
      </trkpt>
      <trkpt lat="43.1006388646021" lon="-4.86879131757176">
        <ele>1510.42427062988</ele>
        <time>2018-09-02T12:22:04Z</time>
      </trkpt>
      <trkpt lat="43.1005709711864" lon="-4.86867346801317">
        <ele>1509.83271789551</ele>
        <time>2018-09-02T12:22:05Z</time>
      </trkpt>
      <trkpt lat="43.100502616766" lon="-4.86855419353104">
        <ele>1509.36811828613</ele>
        <time>2018-09-02T12:22:06Z</time>
      </trkpt>
      <trkpt lat="43.1004405068635" lon="-4.86842963844991">
        <ele>1508.99433898926</ele>
        <time>2018-09-02T12:22:07Z</time>
      </trkpt>
      <trkpt lat="43.1003865274071" lon="-4.86829510890401">
        <ele>1508.08467102051</ele>
        <time>2018-09-02T12:22:08Z</time>
      </trkpt>
      <trkpt lat="43.1003379542782" lon="-4.86815437674976">
        <ele>1507.33271789551</ele>
        <time>2018-09-02T12:22:09Z</time>
      </trkpt>
      <trkpt lat="43.1002875371306" lon="-4.86800685525394">
        <ele>1506.33393859863</ele>
        <time>2018-09-02T12:22:10Z</time>
      </trkpt>
      <trkpt lat="43.1002400536492" lon="-4.86786670983291">
        <ele>1505.43721008301</ele>
        <time>2018-09-02T12:22:11Z</time>
      </trkpt>
      <trkpt lat="43.1001939112722" lon="-4.86771700904227">
        <ele>1504.89741516113</ele>
        <time>2018-09-02T12:22:12Z</time>
      </trkpt>
      <trkpt lat="43.1001460086956" lon="-4.86756462604261">
        <ele>1504.08564758301</ele>
        <time>2018-09-02T12:22:13Z</time>
      </trkpt>
      <trkpt lat="43.1000927836104" lon="-4.86741333269036">
        <ele>1503.45722961426</ele>
        <time>2018-09-02T12:22:14Z</time>
      </trkpt>
      <trkpt lat="43.100042869377" lon="-4.86726908013678">
        <ele>1502.58100891113</ele>
        <time>2018-09-02T12:22:15Z</time>
      </trkpt>
      <trkpt lat="43.0999935837864" lon="-4.86711996607936">
        <ele>1501.47944641113</ele>
        <time>2018-09-02T12:22:16Z</time>
      </trkpt>
      <trkpt lat="43.0999348685547" lon="-4.86696884036517">
        <ele>1500.71626281738</ele>
        <time>2018-09-02T12:22:17Z</time>
      </trkpt>
      <trkpt lat="43.0998533964558" lon="-4.86683405936218">
        <ele>1499.88179016113</ele>
        <time>2018-09-02T12:22:18Z</time>
      </trkpt>
      <trkpt lat="43.0997645063727" lon="-4.86671495251811">
        <ele>1499.27388000488</ele>
        <time>2018-09-02T12:22:19Z</time>
      </trkpt>
      <trkpt lat="43.0996724311664" lon="-4.8666065745101">
        <ele>1498.93061828613</ele>
        <time>2018-09-02T12:22:20Z</time>
      </trkpt>
      <trkpt lat="43.0995702138572" lon="-4.86651269719458">
        <ele>1498.93696594238</ele>
        <time>2018-09-02T12:22:21Z</time>
      </trkpt>
      <trkpt lat="43.0994726904138" lon="-4.86641689204133">
        <ele>1498.38740539551</ele>
        <time>2018-09-02T12:22:22Z</time>
      </trkpt>
      <trkpt lat="43.0993785197317" lon="-4.86632075161195">
        <ele>1497.59223937988</ele>
        <time>2018-09-02T12:22:23Z</time>
      </trkpt>
      <trkpt lat="43.0992768053367" lon="-4.8662318196193">
        <ele>1497.10566711426</ele>
        <time>2018-09-02T12:22:24Z</time>
      </trkpt>
      <trkpt lat="43.0991814611881" lon="-4.86613442190445">
        <ele>1496.64546203613</ele>
        <time>2018-09-02T12:22:25Z</time>
      </trkpt>
      <trkpt lat="43.0990875838726" lon="-4.86603794619894">
        <ele>1496.02729797363</ele>
        <time>2018-09-02T12:22:26Z</time>
      </trkpt>
      <trkpt lat="43.098994921933" lon="-4.86594096757925">
        <ele>1495.34565734863</ele>
        <time>2018-09-02T12:22:27Z</time>
      </trkpt>
      <trkpt lat="43.0989074986829" lon="-4.86583267339027">
        <ele>1494.72114562988</ele>
        <time>2018-09-02T12:22:28Z</time>
      </trkpt>
      <trkpt lat="43.0988280801504" lon="-4.86571415327943">
        <ele>1494.01753234863</ele>
        <time>2018-09-02T12:22:29Z</time>
      </trkpt>
      <trkpt lat="43.0987544032215" lon="-4.86558306031382">
        <ele>1492.90791320801</ele>
        <time>2018-09-02T12:22:30Z</time>
      </trkpt>
      <trkpt lat="43.0986806005641" lon="-4.86544249579764">
        <ele>1492.17073059082</ele>
        <time>2018-09-02T12:22:31Z</time>
      </trkpt>
      <trkpt lat="43.0986051634355" lon="-4.86531006172752">
        <ele>1491.44538879395</ele>
        <time>2018-09-02T12:22:32Z</time>
      </trkpt>
      <trkpt lat="43.0985299358546" lon="-4.86517720856226">
        <ele>1490.39497375488</ele>
        <time>2018-09-02T12:22:33Z</time>
      </trkpt>
      <trkpt lat="43.0984538700833" lon="-4.86504611559665">
        <ele>1489.49678039551</ele>
        <time>2018-09-02T12:22:34Z</time>
      </trkpt>
      <trkpt lat="43.0983753316506" lon="-4.86491259187913">
        <ele>1488.73078918457</ele>
        <time>2018-09-02T12:22:35Z</time>
      </trkpt>
      <trkpt lat="43.098291847895" lon="-4.86478468403673">
        <ele>1487.5474395752</ele>
        <time>2018-09-02T12:22:36Z</time>
      </trkpt>
      <trkpt lat="43.0981986830412" lon="-4.86467136070585">
        <ele>1486.63117980957</ele>
        <time>2018-09-02T12:22:37Z</time>
      </trkpt>
      <trkpt lat="43.0980996927648" lon="-4.86456776038265">
        <ele>1486.34736633301</ele>
        <time>2018-09-02T12:22:38Z</time>
      </trkpt>
      <trkpt lat="43.0980029656022" lon="-4.8644653335259">
        <ele>1485.65412902832</ele>
        <time>2018-09-02T12:22:39Z</time>
      </trkpt>
      <trkpt lat="43.0979076633631" lon="-4.86435770988917">
        <ele>1485.09858703613</ele>
        <time>2018-09-02T12:22:40Z</time>
      </trkpt>
      <trkpt lat="43.0978186056419" lon="-4.86423969269252">
        <ele>1484.22651672363</ele>
        <time>2018-09-02T12:22:41Z</time>
      </trkpt>
      <trkpt lat="43.0977389356523" lon="-4.86410558224177">
        <ele>1483.14228820801</ele>
        <time>2018-09-02T12:22:42Z</time>
      </trkpt>
      <trkpt lat="43.0976739339932" lon="-4.86395814456499">
        <ele>1482.39375305176</ele>
        <time>2018-09-02T12:22:43Z</time>
      </trkpt>
      <trkpt lat="43.0976196192606" lon="-4.86380944960272">
        <ele>1481.5435333252</ele>
        <time>2018-09-02T12:22:44Z</time>
      </trkpt>
      <trkpt lat="43.0975631671428" lon="-4.8636571504221">
        <ele>1480.80500793457</ele>
        <time>2018-09-02T12:22:45Z</time>
      </trkpt>
      <trkpt lat="43.0975142168283" lon="-4.86349613406217">
        <ele>1480.13606262207</ele>
        <time>2018-09-02T12:22:46Z</time>
      </trkpt>
      <trkpt lat="43.0974754086166" lon="-4.86332966946518">
        <ele>1479.1831817627</ele>
        <time>2018-09-02T12:22:47Z</time>
      </trkpt>
      <trkpt lat="43.0974306492536" lon="-4.8631645459727">
        <ele>1478.7447052002</ele>
        <time>2018-09-02T12:22:48Z</time>
      </trkpt>
      <trkpt lat="43.0973692518129" lon="-4.86301249824917">
        <ele>1477.95381164551</ele>
        <time>2018-09-02T12:22:49Z</time>
      </trkpt>
      <trkpt lat="43.0973003525688" lon="-4.8628714308188">
        <ele>1476.21723937988</ele>
        <time>2018-09-02T12:22:50Z</time>
      </trkpt>
      <trkpt lat="43.0972265918209" lon="-4.86272877082682">
        <ele>1474.85139465332</ele>
        <time>2018-09-02T12:22:51Z</time>
      </trkpt>
      <trkpt lat="43.0971368635475" lon="-4.86260103062248">
        <ele>1474.89533996582</ele>
        <time>2018-09-02T12:22:52Z</time>
      </trkpt>
      <trkpt lat="43.0970466742693" lon="-4.86248502508259">
        <ele>1475.03584289551</ele>
        <time>2018-09-02T12:22:53Z</time>
      </trkpt>
      <trkpt lat="43.0969421100273" lon="-4.86238888465321">
        <ele>1473.48542785645</ele>
        <time>2018-09-02T12:22:54Z</time>
      </trkpt>
      <trkpt lat="43.0968382163375" lon="-4.86230179667926">
        <ele>1473.28828430176</ele>
        <time>2018-09-02T12:22:55Z</time>
      </trkpt>
      <trkpt lat="43.0967322271719" lon="-4.86221537925756">
        <ele>1472.56428527832</ele>
        <time>2018-09-02T12:22:56Z</time>
      </trkpt>
      <trkpt lat="43.0966269085585" lon="-4.86212963238811">
        <ele>1472.58882141113</ele>
        <time>2018-09-02T12:22:57Z</time>
      </trkpt>
      <trkpt lat="43.0965253198921" lon="-4.86203483306324">
        <ele>1472.25532531738</ele>
        <time>2018-09-02T12:22:58Z</time>
      </trkpt>
      <trkpt lat="43.0964200431882" lon="-4.86193651333904">
        <ele>1471.60591125488</ele>
        <time>2018-09-02T12:22:59Z</time>
      </trkpt>
      <trkpt lat="43.0963140540226" lon="-4.86184959300315">
        <ele>1471.2007598877</ele>
        <time>2018-09-02T12:23:00Z</time>
      </trkpt>
      <trkpt lat="43.0962112080707" lon="-4.8617606610105">
        <ele>1470.81416320801</ele>
        <time>2018-09-02T12:23:01Z</time>
      </trkpt>
      <trkpt lat="43.0961045483529" lon="-4.86167591996944">
        <ele>1470.11103820801</ele>
        <time>2018-09-02T12:23:02Z</time>
      </trkpt>
      <trkpt lat="43.0959980143635" lon="-4.8615917656616">
        <ele>1469.76179504395</ele>
        <time>2018-09-02T12:23:03Z</time>
      </trkpt>
      <trkpt lat="43.0958911031886" lon="-4.86150241457379">
        <ele>1468.85188293457</ele>
        <time>2018-09-02T12:23:04Z</time>
      </trkpt>
      <trkpt lat="43.0957873352273" lon="-4.86140820198214">
        <ele>1468.60664367676</ele>
        <time>2018-09-02T12:23:05Z</time>
      </trkpt>
      <trkpt lat="43.0956806336" lon="-4.86132773571169">
        <ele>1468.2154083252</ele>
        <time>2018-09-02T12:23:06Z</time>
      </trkpt>
      <trkpt lat="43.0955775361909" lon="-4.86124257557547">
        <ele>1468.42402648926</ele>
        <time>2018-09-02T12:23:07Z</time>
      </trkpt>
      <trkpt lat="43.0954780849098" lon="-4.86114878207898">
        <ele>1467.94941711426</ele>
        <time>2018-09-02T12:23:08Z</time>
      </trkpt>
      <trkpt lat="43.0953960260778" lon="-4.8610285855875">
        <ele>1467.16133117676</ele>
        <time>2018-09-02T12:23:09Z</time>
      </trkpt>
      <trkpt lat="43.0953283003001" lon="-4.86088802107131">
        <ele>1466.73933410645</ele>
        <time>2018-09-02T12:23:10Z</time>
      </trkpt>
      <trkpt lat="43.0952773383289" lon="-4.8607384040997">
        <ele>1466.03852844238</ele>
        <time>2018-09-02T12:23:11Z</time>
      </trkpt>
      <trkpt lat="43.0952244904294" lon="-4.86058157869136">
        <ele>1465.54731750488</ele>
        <time>2018-09-02T12:23:12Z</time>
      </trkpt>
      <trkpt lat="43.0951699661492" lon="-4.86043053679621">
        <ele>1464.50849914551</ele>
        <time>2018-09-02T12:23:13Z</time>
      </trkpt>
      <trkpt lat="43.0951089039846" lon="-4.86028234474814">
        <ele>1463.73799133301</ele>
        <time>2018-09-02T12:23:14Z</time>
      </trkpt>
      <trkpt lat="43.0950529128714" lon="-4.8601323925004">
        <ele>1463.1890411377</ele>
        <time>2018-09-02T12:23:15Z</time>
      </trkpt>
      <trkpt lat="43.0950034177332" lon="-4.85998244025266">
        <ele>1462.91621398926</ele>
        <time>2018-09-02T12:23:16Z</time>
      </trkpt>
      <trkpt lat="43.0949534615903" lon="-4.85983399674749">
        <ele>1461.86506652832</ele>
        <time>2018-09-02T12:23:17Z</time>
      </trkpt>
      <trkpt lat="43.0948854843556" lon="-4.85969292931711">
        <ele>1460.82429504395</ele>
        <time>2018-09-02T12:23:18Z</time>
      </trkpt>
      <trkpt lat="43.0947911879449" lon="-4.85958497040426">
        <ele>1460.08076477051</ele>
        <time>2018-09-02T12:23:19Z</time>
      </trkpt>
      <trkpt lat="43.0946826422988" lon="-4.8595089465425">
        <ele>1459.42646789551</ele>
        <time>2018-09-02T12:23:20Z</time>
      </trkpt>
      <trkpt lat="43.0945803411706" lon="-4.85944524407839">
        <ele>1458.75764465332</ele>
        <time>2018-09-02T12:23:21Z</time>
      </trkpt>
      <trkpt lat="43.0944805546134" lon="-4.85935924575185">
        <ele>1458.29890441895</ele>
        <time>2018-09-02T12:23:22Z</time>
      </trkpt>
      <trkpt lat="43.0943927541776" lon="-4.85925170593416">
        <ele>1457.2466583252</ele>
        <time>2018-09-02T12:23:23Z</time>
      </trkpt>
      <trkpt lat="43.0943122040882" lon="-4.85912740231013">
        <ele>1456.26338195801</ele>
        <time>2018-09-02T12:23:24Z</time>
      </trkpt>
      <trkpt lat="43.0942379823356" lon="-4.85899161547875">
        <ele>1455.81965637207</ele>
        <time>2018-09-02T12:23:25Z</time>
      </trkpt>
      <trkpt lat="43.0941618746548" lon="-4.85885918140864">
        <ele>1455.07795715332</ele>
        <time>2018-09-02T12:23:26Z</time>
      </trkpt>
      <trkpt lat="43.0940867308929" lon="-4.8587197903589">
        <ele>1454.70710754395</ele>
        <time>2018-09-02T12:23:27Z</time>
      </trkpt>
      <trkpt lat="43.0940049235179" lon="-4.85858341679429">
        <ele>1454.07978820801</ele>
        <time>2018-09-02T12:23:28Z</time>
      </trkpt>
      <trkpt lat="43.0939293606608" lon="-4.85843698494589">
        <ele>1453.88496398926</ele>
        <time>2018-09-02T12:23:29Z</time>
      </trkpt>
      <trkpt lat="43.0938524986087" lon="-4.85830312595224">
        <ele>1452.86653137207</ele>
        <time>2018-09-02T12:23:30Z</time>
      </trkpt>
      <trkpt lat="43.0937741278141" lon="-4.85815853812253">
        <ele>1452.64619445801</ele>
        <time>2018-09-02T12:23:31Z</time>
      </trkpt>
      <trkpt lat="43.093711892183" lon="-4.85800908878898">
        <ele>1451.60078430176</ele>
        <time>2018-09-02T12:23:32Z</time>
      </trkpt>
      <trkpt lat="43.0936716171383" lon="-4.85784983262872">
        <ele>1450.33369445801</ele>
        <time>2018-09-02T12:23:33Z</time>
      </trkpt>
      <trkpt lat="43.0936517520278" lon="-4.85767733306145">
        <ele>1449.18562316895</ele>
        <time>2018-09-02T12:23:34Z</time>
      </trkpt>
      <trkpt lat="43.0936387600779" lon="-4.8574967030481">
        <ele>1447.30342102051</ele>
        <time>2018-09-02T12:23:35Z</time>
      </trkpt>
      <trkpt lat="43.0936442502244" lon="-4.85731841996764">
        <ele>1446.37141418457</ele>
        <time>2018-09-02T12:23:36Z</time>
      </trkpt>
      <trkpt lat="43.0936533445894" lon="-4.85713904723977">
        <ele>1445.3140411377</ele>
        <time>2018-09-02T12:23:37Z</time>
      </trkpt>
      <trkpt lat="43.0936657917156" lon="-4.85695774667417">
        <ele>1444.12226867676</ele>
        <time>2018-09-02T12:23:38Z</time>
      </trkpt>
      <trkpt lat="43.0936953798338" lon="-4.85678348690724">
        <ele>1443.6411895752</ele>
        <time>2018-09-02T12:23:39Z</time>
      </trkpt>
      <trkpt lat="43.0937524186849" lon="-4.85662238672828">
        <ele>1443.00532531738</ele>
        <time>2018-09-02T12:23:40Z</time>
      </trkpt>
      <trkpt lat="43.0938139837637" lon="-4.85646354966318">
        <ele>1442.22041320801</ele>
        <time>2018-09-02T12:23:41Z</time>
      </trkpt>
      <trkpt lat="43.0938784825086" lon="-4.8563050478742">
        <ele>1441.83772277832</ele>
        <time>2018-09-02T12:23:42Z</time>
      </trkpt>
      <trkpt lat="43.0939174583583" lon="-4.85613875091528">
        <ele>1440.72663879395</ele>
        <time>2018-09-02T12:23:43Z</time>
      </trkpt>
      <trkpt lat="43.09396146335" lon="-4.85596549697673">
        <ele>1439.71003723145</ele>
        <time>2018-09-02T12:23:44Z</time>
      </trkpt>
      <trkpt lat="43.0940107489406" lon="-4.85579995438909">
        <ele>1438.58125305176</ele>
        <time>2018-09-02T12:23:45Z</time>
      </trkpt>
      <trkpt lat="43.0940620042785" lon="-4.85563483089661">
        <ele>1438.08540344238</ele>
        <time>2018-09-02T12:23:46Z</time>
      </trkpt>
      <trkpt lat="43.0941232340812" lon="-4.85547909513568">
        <ele>1437.37983703613</ele>
        <time>2018-09-02T12:23:47Z</time>
      </trkpt>
      <trkpt lat="43.0941951089009" lon="-4.85533467494403">
        <ele>1436.08540344238</ele>
        <time>2018-09-02T12:23:48Z</time>
      </trkpt>
      <trkpt lat="43.0942674028157" lon="-4.85519193113302">
        <ele>1435.21723937988</ele>
        <time>2018-09-02T12:23:49Z</time>
      </trkpt>
      <trkpt lat="43.0943432171299" lon="-4.85505170189296">
        <ele>1433.61811828613</ele>
        <time>2018-09-02T12:23:50Z</time>
      </trkpt>
      <trkpt lat="43.0944122421025" lon="-4.85489873216008">
        <ele>1433.26301574707</ele>
        <time>2018-09-02T12:23:51Z</time>
      </trkpt>
      <trkpt lat="43.0944647128164" lon="-4.85473612323855">
        <ele>1432.34394836426</ele>
        <time>2018-09-02T12:23:52Z</time>
      </trkpt>
      <trkpt lat="43.0945169320731" lon="-4.85457225703155">
        <ele>1431.2456817627</ele>
        <time>2018-09-02T12:23:53Z</time>
      </trkpt>
      <trkpt lat="43.0945646251022" lon="-4.85441216268097">
        <ele>1430.60871887207</ele>
        <time>2018-09-02T12:23:54Z</time>
      </trkpt>
      <trkpt lat="43.0946048582374" lon="-4.85424712300753">
        <ele>1429.86946105957</ele>
        <time>2018-09-02T12:23:55Z</time>
      </trkpt>
      <trkpt lat="43.0946439598157" lon="-4.8540876992092">
        <ele>1429.02754211426</ele>
        <time>2018-09-02T12:23:56Z</time>
      </trkpt>
      <trkpt lat="43.0946855340554" lon="-4.85392877832507">
        <ele>1428.53596496582</ele>
        <time>2018-09-02T12:23:57Z</time>
      </trkpt>
      <trkpt lat="43.0947269825666" lon="-4.85377916135346">
        <ele>1428.45344543457</ele>
        <time>2018-09-02T12:23:58Z</time>
      </trkpt>
      <trkpt lat="43.0947718257486" lon="-4.85362954438185">
        <ele>1428.35652160645</ele>
        <time>2018-09-02T12:23:59Z</time>
      </trkpt>
      <trkpt lat="43.094819225411" lon="-4.85347573645865">
        <ele>1427.86018371582</ele>
        <time>2018-09-02T12:24:00Z</time>
      </trkpt>
      <trkpt lat="43.0948652001499" lon="-4.85332980752443">
        <ele>1427.87629699707</ele>
        <time>2018-09-02T12:24:01Z</time>
      </trkpt>
      <trkpt lat="43.0949111748888" lon="-4.85319167376017">
        <ele>1427.42060852051</ele>
        <time>2018-09-02T12:24:02Z</time>
      </trkpt>
      <trkpt lat="43.0949595384701" lon="-4.85305555165266">
        <ele>1427.19355773926</ele>
        <time>2018-09-02T12:24:03Z</time>
      </trkpt>
      <trkpt lat="43.0950062256708" lon="-4.85291867517387">
        <ele>1426.91377258301</ele>
        <time>2018-09-02T12:24:04Z</time>
      </trkpt>
      <trkpt lat="43.0950487638294" lon="-4.85278355889474">
        <ele>1426.6284942627</ele>
        <time>2018-09-02T12:24:05Z</time>
      </trkpt>
      <trkpt lat="43.0950936489209" lon="-4.85265347175752">
        <ele>1426.24043273926</ele>
        <time>2018-09-02T12:24:06Z</time>
      </trkpt>
      <trkpt lat="43.0951371929078" lon="-4.85252388753449">
        <ele>1425.7554473877</ele>
        <time>2018-09-02T12:24:07Z</time>
      </trkpt>
      <trkpt lat="43.0951831257372" lon="-4.85239715315853">
        <ele>1425.31245422363</ele>
        <time>2018-09-02T12:24:08Z</time>
      </trkpt>
      <trkpt lat="43.0952333333372" lon="-4.85227494501029">
        <ele>1425.33564758301</ele>
        <time>2018-09-02T12:24:09Z</time>
      </trkpt>
      <trkpt lat="43.0952789728" lon="-4.85214586370145">
        <ele>1425.07392883301</ele>
        <time>2018-09-02T12:24:10Z</time>
      </trkpt>
      <trkpt lat="43.0953281326621" lon="-4.85202273354386">
        <ele>1424.53816223145</ele>
        <time>2018-09-02T12:24:11Z</time>
      </trkpt>
      <trkpt lat="43.0953793460905" lon="-4.851896250625">
        <ele>1423.95613098145</ele>
        <time>2018-09-02T12:24:12Z</time>
      </trkpt>
      <trkpt lat="43.0954182381212" lon="-4.851761469622">
        <ele>1423.46662902832</ele>
        <time>2018-09-02T12:24:13Z</time>
      </trkpt>
      <trkpt lat="43.0954510113626" lon="-4.85162040219163">
        <ele>1423.0923614502</ele>
        <time>2018-09-02T12:24:14Z</time>
      </trkpt>
      <trkpt lat="43.0954748997866" lon="-4.85147480853354">
        <ele>1422.35481262207</ele>
        <time>2018-09-02T12:24:15Z</time>
      </trkpt>
      <trkpt lat="43.0954837426945" lon="-4.85133198090349">
        <ele>1421.71113586426</ele>
        <time>2018-09-02T12:24:16Z</time>
      </trkpt>
      <trkpt lat="43.0954586388945" lon="-4.85118932091151">
        <ele>1421.45149230957</ele>
        <time>2018-09-02T12:24:17Z</time>
      </trkpt>
      <trkpt lat="43.095401977229" lon="-4.85106795095359">
        <ele>1421.54731750488</ele>
        <time>2018-09-02T12:24:18Z</time>
      </trkpt>
      <trkpt lat="43.0953241512581" lon="-4.85097826458965">
        <ele>1421.66975402832</ele>
        <time>2018-09-02T12:24:19Z</time>
      </trkpt>
      <trkpt lat="43.0952370632841" lon="-4.85092571005677">
        <ele>1420.92695617676</ele>
        <time>2018-09-02T12:24:20Z</time>
      </trkpt>
      <trkpt lat="43.0951396655693" lon="-4.85091288574492">
        <ele>1420.9722442627</ele>
        <time>2018-09-02T12:24:21Z</time>
      </trkpt>
      <trkpt lat="43.0950503144815" lon="-4.85094758682405">
        <ele>1420.86054992676</ele>
        <time>2018-09-02T12:24:22Z</time>
      </trkpt>
      <trkpt lat="43.0949752964481" lon="-4.8510103672788">
        <ele>1420.68623352051</ele>
        <time>2018-09-02T12:24:23Z</time>
      </trkpt>
      <trkpt lat="43.0949157849356" lon="-4.85108873807346">
        <ele>1420.79524230957</ele>
        <time>2018-09-02T12:24:24Z</time>
      </trkpt>
      <trkpt lat="43.0948744621529" lon="-4.85117364675258">
        <ele>1420.01802062988</ele>
        <time>2018-09-02T12:24:25Z</time>
      </trkpt>
      <trkpt lat="43.0948357796698" lon="-4.85125101171886">
        <ele>1419.94270324707</ele>
        <time>2018-09-02T12:24:26Z</time>
      </trkpt>
      <trkpt lat="43.0948096281319" lon="-4.85131404363071">
        <ele>1419.69990539551</ele>
        <time>2018-09-02T12:24:27Z</time>
      </trkpt>
      <trkpt lat="43.0947793275519" lon="-4.85139316879665">
        <ele>1418.81367492676</ele>
        <time>2018-09-02T12:24:29Z</time>
      </trkpt>
      <trkpt lat="43.0947598815366" lon="-4.85145536251818">
        <ele>1418.43977355957</ele>
        <time>2018-09-02T12:24:31Z</time>
      </trkpt>
      <trkpt lat="43.0947370408504" lon="-4.85151856206809">
        <ele>1417.61689758301</ele>
        <time>2018-09-02T12:24:33Z</time>
      </trkpt>
      <trkpt lat="43.0947029265045" lon="-4.85158184543704">
        <ele>1417.78999328613</ele>
        <time>2018-09-02T12:24:35Z</time>
      </trkpt>
      <trkpt lat="43.0946648726641" lon="-4.85164999030982">
        <ele>1418.4956817627</ele>
        <time>2018-09-02T12:24:37Z</time>
      </trkpt>
      <trkpt lat="43.0946287466614" lon="-4.85172282904838">
        <ele>1417.50776672363</ele>
        <time>2018-09-02T12:24:39Z</time>
      </trkpt>
      <trkpt lat="43.0946025951235" lon="-4.85177496448611">
        <ele>1417.57405090332</ele>
        <time>2018-09-02T12:24:41Z</time>
      </trkpt>
      <trkpt lat="43.0945683550491" lon="-4.85183103941833">
        <ele>1417.19697570801</ele>
        <time>2018-09-02T12:24:43Z</time>
      </trkpt>
      <trkpt lat="43.0945287924661" lon="-4.85191971995388">
        <ele>1416.09712219238</ele>
        <time>2018-09-02T12:24:45Z</time>
      </trkpt>
      <trkpt lat="43.0945081729843" lon="-4.85199096613084">
        <ele>1416.30390930176</ele>
        <time>2018-09-02T12:24:46Z</time>
      </trkpt>
      <trkpt lat="43.0944815604417" lon="-4.85205651261364">
        <ele>1416.14717102051</ele>
        <time>2018-09-02T12:24:47Z</time>
      </trkpt>
      <trkpt lat="43.0944619048788" lon="-4.85212381929611">
        <ele>1416.08210754395</ele>
        <time>2018-09-02T12:24:48Z</time>
      </trkpt>
      <trkpt lat="43.0944357114314" lon="-4.85219112597858">
        <ele>1416.15815734863</ele>
        <time>2018-09-02T12:24:49Z</time>
      </trkpt>
      <trkpt lat="43.0944089731603" lon="-4.85225843266105">
        <ele>1415.95747375488</ele>
        <time>2018-09-02T12:24:50Z</time>
      </trkpt>
      <trkpt lat="43.0943816062464" lon="-4.85233227722799">
        <ele>1415.91670227051</ele>
        <time>2018-09-02T12:24:51Z</time>
      </trkpt>
      <trkpt lat="43.0943521019473" lon="-4.85240335576688">
        <ele>1415.77217102051</ele>
        <time>2018-09-02T12:24:52Z</time>
      </trkpt>
      <trkpt lat="43.0943208374484" lon="-4.85247552395319">
        <ele>1415.8804473877</ele>
        <time>2018-09-02T12:24:53Z</time>
      </trkpt>
      <trkpt lat="43.0942872260167" lon="-4.85254551284467">
        <ele>1415.82502746582</ele>
        <time>2018-09-02T12:24:54Z</time>
      </trkpt>
      <trkpt lat="43.0942530697613" lon="-4.85261248425101">
        <ele>1416.17182922363</ele>
        <time>2018-09-02T12:24:55Z</time>
      </trkpt>
      <trkpt lat="43.0942118727072" lon="-4.85267920420026">
        <ele>1415.73542785645</ele>
        <time>2018-09-02T12:24:56Z</time>
      </trkpt>
      <trkpt lat="43.0941725615813" lon="-4.8527461756066">
        <ele>1415.90657043457</ele>
        <time>2018-09-02T12:24:57Z</time>
      </trkpt>
      <trkpt lat="43.0941302748798" lon="-4.85280702822362">
        <ele>1415.9820098877</ele>
        <time>2018-09-02T12:24:58Z</time>
      </trkpt>
      <trkpt lat="43.0940840067743" lon="-4.85286788084065">
        <ele>1415.99726867676</ele>
        <time>2018-09-02T12:24:59Z</time>
      </trkpt>
      <trkpt lat="43.0940359784692" lon="-4.85292353667771">
        <ele>1416.04658508301</ele>
        <time>2018-09-02T12:25:00Z</time>
      </trkpt>
      <trkpt lat="43.0939856032311" lon="-4.85297793522929">
        <ele>1416.17585754395</ele>
        <time>2018-09-02T12:25:01Z</time>
      </trkpt>
      <trkpt lat="43.0939373653783" lon="-4.85304054804598">
        <ele>1416.16426086426</ele>
        <time>2018-09-02T12:25:02Z</time>
      </trkpt>
      <trkpt lat="43.0938882893353" lon="-4.85310098156785">
        <ele>1416.11592102051</ele>
        <time>2018-09-02T12:25:03Z</time>
      </trkpt>
      <trkpt lat="43.0938451644435" lon="-4.85316820443129">
        <ele>1415.85749816895</ele>
        <time>2018-09-02T12:25:04Z</time>
      </trkpt>
      <trkpt lat="43.0938071106031" lon="-4.85324322246467">
        <ele>1415.21357727051</ele>
        <time>2018-09-02T12:25:05Z</time>
      </trkpt>
      <trkpt lat="43.0937714875146" lon="-4.85331790522193">
        <ele>1415.39436340332</ele>
        <time>2018-09-02T12:25:06Z</time>
      </trkpt>
      <trkpt lat="43.0937387561827" lon="-4.85339929350172">
        <ele>1415.50581359863</ele>
        <time>2018-09-02T12:25:07Z</time>
      </trkpt>
      <trkpt lat="43.093713275197" lon="-4.85347582027768">
        <ele>1415.40791320801</ele>
        <time>2018-09-02T12:25:08Z</time>
      </trkpt>
      <trkpt lat="43.0936865369259" lon="-4.85355167650138">
        <ele>1415.67304992676</ele>
        <time>2018-09-02T12:25:09Z</time>
      </trkpt>
      <trkpt lat="43.0936605530261" lon="-4.85362979583894">
        <ele>1415.76863098145</ele>
        <time>2018-09-02T12:25:10Z</time>
      </trkpt>
      <trkpt lat="43.0936314259126" lon="-4.8537079151765">
        <ele>1415.4390411377</ele>
        <time>2018-09-02T12:25:11Z</time>
      </trkpt>
      <trkpt lat="43.0936033884465" lon="-4.85378528014277">
        <ele>1415.59443664551</ele>
        <time>2018-09-02T12:25:12Z</time>
      </trkpt>
      <trkpt lat="43.0935745966091" lon="-4.85386465676581">
        <ele>1415.5191192627</ele>
        <time>2018-09-02T12:25:13Z</time>
      </trkpt>
      <trkpt lat="43.0935444636672" lon="-4.85393992625629">
        <ele>1415.30683898926</ele>
        <time>2018-09-02T12:25:14Z</time>
      </trkpt>
      <trkpt lat="43.0935192760481" lon="-4.85401879996513">
        <ele>1415.20454406738</ele>
        <time>2018-09-02T12:25:15Z</time>
      </trkpt>
      <trkpt lat="43.0934916576772" lon="-4.85409499146496">
        <ele>1415.76765441895</ele>
        <time>2018-09-02T12:25:16Z</time>
      </trkpt>
      <trkpt lat="43.0934695713623" lon="-4.85416741110837">
        <ele>1416.20088195801</ele>
        <time>2018-09-02T12:25:17Z</time>
      </trkpt>
      <trkpt lat="43.0934497481613" lon="-4.85423312522923">
        <ele>1416.5904083252</ele>
        <time>2018-09-02T12:25:18Z</time>
      </trkpt>
      <trkpt lat="43.0934288772224" lon="-4.85429573804592">
        <ele>1416.6831817627</ele>
        <time>2018-09-02T12:25:19Z</time>
      </trkpt>
      <trkpt lat="43.0934100179403" lon="-4.85436379909967">
        <ele>1415.82124328613</ele>
        <time>2018-09-02T12:25:21Z</time>
      </trkpt>
      <trkpt lat="43.093364336568" lon="-4.85441819765126">
        <ele>1414.59907531738</ele>
        <time>2018-09-02T12:25:24Z</time>
      </trkpt>
      <trkpt lat="43.0933494167804" lon="-4.85449413769399">
        <ele>1413.5493927002</ele>
        <time>2018-09-02T12:25:26Z</time>
      </trkpt>
      <trkpt lat="43.0933455611049" lon="-4.85458105802988">
        <ele>1413.94233703613</ele>
        <time>2018-09-02T12:25:28Z</time>
      </trkpt>
      <trkpt lat="43.0933265341847" lon="-4.85468004830634">
        <ele>1413.40657043457</ele>
        <time>2018-09-02T12:25:30Z</time>
      </trkpt>
      <trkpt lat="43.0932975327997" lon="-4.8548028431878">
        <ele>1412.04804992676</ele>
        <time>2018-09-02T12:25:32Z</time>
      </trkpt>
      <trkpt lat="43.0932790926128" lon="-4.85487258062219">
        <ele>1410.99787902832</ele>
        <time>2018-09-02T12:25:33Z</time>
      </trkpt>
      <trkpt lat="43.0932578444882" lon="-4.85493879765724">
        <ele>1411.75471496582</ele>
        <time>2018-09-02T12:25:34Z</time>
      </trkpt>
      <trkpt lat="43.0932259094371" lon="-4.85500887036776">
        <ele>1411.5113067627</ele>
        <time>2018-09-02T12:25:35Z</time>
      </trkpt>
      <trkpt lat="43.0931830360024" lon="-4.85507726669764">
        <ele>1411.04023742676</ele>
        <time>2018-09-02T12:25:36Z</time>
      </trkpt>
      <trkpt lat="43.093126458156" lon="-4.85513711348628">
        <ele>1410.89167785645</ele>
        <time>2018-09-02T12:25:37Z</time>
      </trkpt>
      <trkpt lat="43.0930576008215" lon="-4.85517935827827">
        <ele>1410.32649230957</ele>
        <time>2018-09-02T12:25:38Z</time>
      </trkpt>
      <trkpt lat="43.0929804034932" lon="-4.85519746318912">
        <ele>1409.62434387207</ele>
        <time>2018-09-02T12:25:39Z</time>
      </trkpt>
      <trkpt lat="43.0929026613413" lon="-4.8552003130362">
        <ele>1409.01362609863</ele>
        <time>2018-09-02T12:25:40Z</time>
      </trkpt>
      <trkpt lat="43.0928217759757" lon="-4.85520609654938">
        <ele>1407.8394317627</ele>
        <time>2018-09-02T12:25:41Z</time>
      </trkpt>
      <trkpt lat="43.0927411839767" lon="-4.85521640629028">
        <ele>1407.06074523926</ele>
        <time>2018-09-02T12:25:42Z</time>
      </trkpt>
      <trkpt lat="43.0926593346923" lon="-4.85523300245856">
        <ele>1406.73872375488</ele>
        <time>2018-09-02T12:25:43Z</time>
      </trkpt>
      <trkpt lat="43.0925755994796" lon="-4.8552674520806">
        <ele>1406.56636047363</ele>
        <time>2018-09-02T12:25:44Z</time>
      </trkpt>
      <trkpt lat="43.0924979830562" lon="-4.85531941988026">
        <ele>1406.00764465332</ele>
        <time>2018-09-02T12:25:45Z</time>
      </trkpt>
      <trkpt lat="43.0924184387951" lon="-4.85538194887792">
        <ele>1405.67256164551</ele>
        <time>2018-09-02T12:25:46Z</time>
      </trkpt>
      <trkpt lat="43.0923416186525" lon="-4.85545713454937">
        <ele>1405.13691711426</ele>
        <time>2018-09-02T12:25:47Z</time>
      </trkpt>
      <trkpt lat="43.0922665587096" lon="-4.85552561469828">
        <ele>1405.03315734863</ele>
        <time>2018-09-02T12:25:48Z</time>
      </trkpt>
      <trkpt lat="43.0921905348479" lon="-4.85559350811397">
        <ele>1404.75849914551</ele>
        <time>2018-09-02T12:25:49Z</time>
      </trkpt>
      <trkpt lat="43.0921063386305" lon="-4.85565964133">
        <ele>1405.23091125488</ele>
        <time>2018-09-02T12:25:50Z</time>
      </trkpt>
      <trkpt lat="43.0920299375831" lon="-4.85571898520445">
        <ele>1404.89668273926</ele>
        <time>2018-09-02T12:25:51Z</time>
      </trkpt>
      <trkpt lat="43.0919509800552" lon="-4.85578101128792">
        <ele>1404.98908996582</ele>
        <time>2018-09-02T12:25:52Z</time>
      </trkpt>
      <trkpt lat="43.0918792309641" lon="-4.85584110953366">
        <ele>1404.89167785645</ele>
        <time>2018-09-02T12:25:53Z</time>
      </trkpt>
      <trkpt lat="43.0918014049931" lon="-4.85589483753299">
        <ele>1404.72187805176</ele>
        <time>2018-09-02T12:25:54Z</time>
      </trkpt>
      <trkpt lat="43.0917169573187" lon="-4.85594009981012">
        <ele>1404.72016906738</ele>
        <time>2018-09-02T12:25:55Z</time>
      </trkpt>
      <trkpt lat="43.0916339764773" lon="-4.85598594882046">
        <ele>1404.18782043457</ele>
        <time>2018-09-02T12:25:56Z</time>
      </trkpt>
      <trkpt lat="43.0915442062943" lon="-4.85603020526921">
        <ele>1403.20893859863</ele>
        <time>2018-09-02T12:25:57Z</time>
      </trkpt>
      <trkpt lat="43.0914528435497" lon="-4.85607169568991">
        <ele>1402.67170715332</ele>
        <time>2018-09-02T12:25:58Z</time>
      </trkpt>
      <trkpt lat="43.0913640372856" lon="-4.85611192882513">
        <ele>1402.26545715332</ele>
        <time>2018-09-02T12:25:59Z</time>
      </trkpt>
      <trkpt lat="43.0912705371558" lon="-4.85615291633164">
        <ele>1401.84797668457</ele>
        <time>2018-09-02T12:26:00Z</time>
      </trkpt>
      <trkpt lat="43.091174773912" lon="-4.85619943589424">
        <ele>1401.31538391113</ele>
        <time>2018-09-02T12:26:01Z</time>
      </trkpt>
      <trkpt lat="43.091080770868" lon="-4.85624763183748">
        <ele>1400.39326477051</ele>
        <time>2018-09-02T12:26:02Z</time>
      </trkpt>
      <trkpt lat="43.0909787631064" lon="-4.85629264265751">
        <ele>1400.44673156738</ele>
        <time>2018-09-02T12:26:03Z</time>
      </trkpt>
      <trkpt lat="43.0908705108269" lon="-4.8563261702702">
        <ele>1399.68037414551</ele>
        <time>2018-09-02T12:26:04Z</time>
      </trkpt>
      <trkpt lat="43.0907572294055" lon="-4.85632834956502">
        <ele>1399.45613098145</ele>
        <time>2018-09-02T12:26:05Z</time>
      </trkpt>
      <trkpt lat="43.0906419363274" lon="-4.85630228184616">
        <ele>1398.90815734863</ele>
        <time>2018-09-02T12:26:06Z</time>
      </trkpt>
      <trkpt lat="43.0905281519919" lon="-4.85626976006185">
        <ele>1397.7574005127</ele>
        <time>2018-09-02T12:26:07Z</time>
      </trkpt>
      <trkpt lat="43.0904132360994" lon="-4.85623388551628">
        <ele>1396.78205871582</ele>
        <time>2018-09-02T12:26:08Z</time>
      </trkpt>
      <trkpt lat="43.0902960990026" lon="-4.85619968735134">
        <ele>1396.11616516113</ele>
        <time>2018-09-02T12:26:09Z</time>
      </trkpt>
      <trkpt lat="43.0901746871351" lon="-4.85617026687121">
        <ele>1395.53974914551</ele>
        <time>2018-09-02T12:26:10Z</time>
      </trkpt>
      <trkpt lat="43.0900572985812" lon="-4.85613363795435">
        <ele>1394.99617004395</ele>
        <time>2018-09-02T12:26:11Z</time>
      </trkpt>
      <trkpt lat="43.0899370182707" lon="-4.85609667376136">
        <ele>1394.37763977051</ele>
        <time>2018-09-02T12:26:12Z</time>
      </trkpt>
      <trkpt lat="43.0898104934423" lon="-4.85605853610193">
        <ele>1393.03877258301</ele>
        <time>2018-09-02T12:26:13Z</time>
      </trkpt>
      <trkpt lat="43.0896839686139" lon="-4.85602207482313">
        <ele>1392.08540344238</ele>
        <time>2018-09-02T12:26:14Z</time>
      </trkpt>
      <trkpt lat="43.0895566475048" lon="-4.85599047504818">
        <ele>1391.17378234863</ele>
        <time>2018-09-02T12:26:15Z</time>
      </trkpt>
      <trkpt lat="43.0894310027762" lon="-4.85595912673032">
        <ele>1390.39375305176</ele>
        <time>2018-09-02T12:26:16Z</time>
      </trkpt>
      <trkpt lat="43.0892989458918" lon="-4.8559358250395">
        <ele>1389.47602844238</ele>
        <time>2018-09-02T12:26:17Z</time>
      </trkpt>
      <trkpt lat="43.0891607283085" lon="-4.85591378063416">
        <ele>1388.27815246582</ele>
        <time>2018-09-02T12:26:18Z</time>
      </trkpt>
      <trkpt lat="43.0890228460013" lon="-4.85589844175135">
        <ele>1387.0230255127</ele>
        <time>2018-09-02T12:26:19Z</time>
      </trkpt>
      <trkpt lat="43.0888851313322" lon="-4.85588192940211">
        <ele>1386.06904602051</ele>
        <time>2018-09-02T12:26:20Z</time>
      </trkpt>
      <trkpt lat="43.0887438543542" lon="-4.85586558469092">
        <ele>1385.00996398926</ele>
        <time>2018-09-02T12:26:21Z</time>
      </trkpt>
      <trkpt lat="43.0886021582811" lon="-4.85582727939343">
        <ele>1383.84272766113</ele>
        <time>2018-09-02T12:26:22Z</time>
      </trkpt>
      <trkpt lat="43.088469640392" lon="-4.85576190054869">
        <ele>1382.90962219238</ele>
        <time>2018-09-02T12:26:23Z</time>
      </trkpt>
      <trkpt lat="43.0883378349646" lon="-4.85566760413801">
        <ele>1381.67292785645</ele>
        <time>2018-09-02T12:26:24Z</time>
      </trkpt>
      <trkpt lat="43.0882061133562" lon="-4.85555956140613">
        <ele>1380.51777648926</ele>
        <time>2018-09-02T12:26:25Z</time>
      </trkpt>
      <trkpt lat="43.088076026219" lon="-4.85546534881448">
        <ele>1379.39619445801</ele>
        <time>2018-09-02T12:26:26Z</time>
      </trkpt>
      <trkpt lat="43.0879388982831" lon="-4.85538966022884">
        <ele>1378.59748840332</ele>
        <time>2018-09-02T12:26:27Z</time>
      </trkpt>
      <trkpt lat="43.0878021894424" lon="-4.85532511957442">
        <ele>1377.71992492676</ele>
        <time>2018-09-02T12:26:28Z</time>
      </trkpt>
      <trkpt lat="43.0876635527639" lon="-4.85528605990564">
        <ele>1377.0601348877</ele>
        <time>2018-09-02T12:26:29Z</time>
      </trkpt>
      <trkpt lat="43.0875212280481" lon="-4.85527373850798">
        <ele>1376.04621887207</ele>
        <time>2018-09-02T12:26:30Z</time>
      </trkpt>
      <trkpt lat="43.0873843934788" lon="-4.85528614372467">
        <ele>1375.63581848145</ele>
        <time>2018-09-02T12:26:31Z</time>
      </trkpt>
      <trkpt lat="43.0872455472528" lon="-4.85529167578076">
        <ele>1375.02473449707</ele>
        <time>2018-09-02T12:26:32Z</time>
      </trkpt>
      <trkpt lat="43.0871094251453" lon="-4.85528044403052">
        <ele>1374.5191192627</ele>
        <time>2018-09-02T12:26:33Z</time>
      </trkpt>
      <trkpt lat="43.0869718362047" lon="-4.8552537057594">
        <ele>1373.73957824707</ele>
        <time>2018-09-02T12:26:34Z</time>
      </trkpt>
      <trkpt lat="43.0868308945029" lon="-4.85522353090798">
        <ele>1372.93086242676</ele>
        <time>2018-09-02T12:26:35Z</time>
      </trkpt>
      <trkpt lat="43.086695065762" lon="-4.85518690199112">
        <ele>1372.6724395752</ele>
        <time>2018-09-02T12:26:36Z</time>
      </trkpt>
      <trkpt lat="43.0865561357169" lon="-4.85514591448461">
        <ele>1371.7827911377</ele>
        <time>2018-09-02T12:26:37Z</time>
      </trkpt>
      <trkpt lat="43.0864179600431" lon="-4.85510224476909">
        <ele>1370.90071105957</ele>
        <time>2018-09-02T12:26:38Z</time>
      </trkpt>
      <trkpt lat="43.0862834304972" lon="-4.8550293222115">
        <ele>1369.87202453613</ele>
        <time>2018-09-02T12:26:39Z</time>
      </trkpt>
      <trkpt lat="43.0861579114972" lon="-4.85494055785691">
        <ele>1368.72798156738</ele>
        <time>2018-09-02T12:26:40Z</time>
      </trkpt>
      <trkpt lat="43.0860312609403" lon="-4.85485782847261">
        <ele>1368.00007629395</ele>
        <time>2018-09-02T12:26:41Z</time>
      </trkpt>
      <trkpt lat="43.0859070830448" lon="-4.85476386733805">
        <ele>1367.18843078613</ele>
        <time>2018-09-02T12:26:42Z</time>
      </trkpt>
      <trkpt lat="43.0857790494739" lon="-4.85468197614407">
        <ele>1366.52729797363</ele>
        <time>2018-09-02T12:26:43Z</time>
      </trkpt>
      <trkpt lat="43.0856567575066" lon="-4.85459002666627">
        <ele>1365.57148742676</ele>
        <time>2018-09-02T12:26:44Z</time>
      </trkpt>
      <trkpt lat="43.0855344655393" lon="-4.85450218432104">
        <ele>1364.48262023926</ele>
        <time>2018-09-02T12:26:45Z</time>
      </trkpt>
      <trkpt lat="43.0853938591136" lon="-4.85445574857747">
        <ele>1363.55793762207</ele>
        <time>2018-09-02T12:26:46Z</time>
      </trkpt>
      <trkpt lat="43.0852568988158" lon="-4.85444334336077">
        <ele>1362.68916320801</ele>
        <time>2018-09-02T12:26:47Z</time>
      </trkpt>
      <trkpt lat="43.0851176334946" lon="-4.85445088707363">
        <ele>1362.00117492676</ele>
        <time>2018-09-02T12:26:48Z</time>
      </trkpt>
      <trkpt lat="43.084981176111" lon="-4.85446027480518">
        <ele>1361.40254211426</ele>
        <time>2018-09-02T12:26:49Z</time>
      </trkpt>
      <trkpt lat="43.0848434195324" lon="-4.85446983017479">
        <ele>1360.74629211426</ele>
        <time>2018-09-02T12:26:50Z</time>
      </trkpt>
      <trkpt lat="43.0847088061674" lon="-4.85448206775343">
        <ele>1360.08015441895</ele>
        <time>2018-09-02T12:26:51Z</time>
      </trkpt>
      <trkpt lat="43.0845765816449" lon="-4.854483576496">
        <ele>1359.31391906738</ele>
        <time>2018-09-02T12:26:52Z</time>
      </trkpt>
      <trkpt lat="43.0844449438556" lon="-4.85447268002187">
        <ele>1358.0796661377</ele>
        <time>2018-09-02T12:26:53Z</time>
      </trkpt>
      <trkpt lat="43.0843158625468" lon="-4.85446287319516">
        <ele>1356.97993469238</ele>
        <time>2018-09-02T12:26:54Z</time>
      </trkpt>
      <trkpt lat="43.0841833865671" lon="-4.85443990678047">
        <ele>1356.45906066895</ele>
        <time>2018-09-02T12:26:55Z</time>
      </trkpt>
      <trkpt lat="43.0840500304877" lon="-4.85441744327997">
        <ele>1355.29731750488</ele>
        <time>2018-09-02T12:26:56Z</time>
      </trkpt>
      <trkpt lat="43.0839193985267" lon="-4.85439808108365">
        <ele>1355.21565246582</ele>
        <time>2018-09-02T12:26:57Z</time>
      </trkpt>
      <trkpt lat="43.0837961845501" lon="-4.85437192954575">
        <ele>1354.26643371582</ele>
        <time>2018-09-02T12:26:58Z</time>
      </trkpt>
      <trkpt lat="43.0836691987171" lon="-4.85436053015744">
        <ele>1353.15791320801</ele>
        <time>2018-09-02T12:26:59Z</time>
      </trkpt>
      <trkpt lat="43.0835448531835" lon="-4.85439472832238">
        <ele>1352.68635559082</ele>
        <time>2018-09-02T12:27:00Z</time>
      </trkpt>
      <trkpt lat="43.0834349245234" lon="-4.85447066836511">
        <ele>1352.37702941895</ele>
        <time>2018-09-02T12:27:01Z</time>
      </trkpt>
      <trkpt lat="43.0833649775415" lon="-4.85459354706561">
        <ele>1352.12202453613</ele>
        <time>2018-09-02T12:27:02Z</time>
      </trkpt>
      <trkpt lat="43.0833134707465" lon="-4.85474190675174">
        <ele>1352.95771789551</ele>
        <time>2018-09-02T12:27:03Z</time>
      </trkpt>
      <trkpt lat="43.0833470402687" lon="-4.85490225255942">
        <ele>1351.98371887207</ele>
        <time>2018-09-02T12:27:04Z</time>
      </trkpt>
      <trkpt lat="43.0833824119001" lon="-4.8550361953721">
        <ele>1350.60469055176</ele>
        <time>2018-09-02T12:27:05Z</time>
      </trkpt>
      <trkpt lat="43.0833900813415" lon="-4.85518279485857">
        <ele>1350.13362121582</ele>
        <time>2018-09-02T12:27:06Z</time>
      </trkpt>
      <trkpt lat="43.0833745748206" lon="-4.85532679595505">
        <ele>1349.75129699707</ele>
        <time>2018-09-02T12:27:07Z</time>
      </trkpt>
      <trkpt lat="43.0833537457912" lon="-4.85546601936673">
        <ele>1349.21113586426</ele>
        <time>2018-09-02T12:27:08Z</time>
      </trkpt>
      <trkpt lat="43.0833310308336" lon="-4.85561270267223">
        <ele>1348.96296691895</ele>
        <time>2018-09-02T12:27:09Z</time>
      </trkpt>
      <trkpt lat="43.0833140993892" lon="-4.85575578175937">
        <ele>1348.36225891113</ele>
        <time>2018-09-02T12:27:10Z</time>
      </trkpt>
      <trkpt lat="43.08329239026" lon="-4.85589324497139">
        <ele>1348.01533508301</ele>
        <time>2018-09-02T12:27:11Z</time>
      </trkpt>
      <trkpt lat="43.083264771889" lon="-4.85603456385886">
        <ele>1347.79377746582</ele>
        <time>2018-09-02T12:27:12Z</time>
      </trkpt>
      <trkpt lat="43.0832228204637" lon="-4.856167081748">
        <ele>1347.36445617676</ele>
        <time>2018-09-02T12:27:13Z</time>
      </trkpt>
      <trkpt lat="43.0831659911602" lon="-4.85629247501945">
        <ele>1347.48078918457</ele>
        <time>2018-09-02T12:27:14Z</time>
      </trkpt>
      <trkpt lat="43.0831037136196" lon="-4.85640957020675">
        <ele>1347.15986633301</ele>
        <time>2018-09-02T12:27:15Z</time>
      </trkpt>
      <trkpt lat="43.0830395920603" lon="-4.85652188770925">
        <ele>1346.3286895752</ele>
        <time>2018-09-02T12:27:16Z</time>
      </trkpt>
      <trkpt lat="43.0829728721111" lon="-4.85663085245048">
        <ele>1345.65547180176</ele>
        <time>2018-09-02T12:27:17Z</time>
      </trkpt>
      <trkpt lat="43.0828965548827" lon="-4.85673009418403">
        <ele>1345.15522766113</ele>
        <time>2018-09-02T12:27:18Z</time>
      </trkpt>
      <trkpt lat="43.0828025518386" lon="-4.85681240447318">
        <ele>1344.13984680176</ele>
        <time>2018-09-02T12:27:19Z</time>
      </trkpt>
      <trkpt lat="43.0827023880957" lon="-4.85688599758303">
        <ele>1342.76728820801</ele>
        <time>2018-09-02T12:27:20Z</time>
      </trkpt>
      <trkpt lat="43.0826003803341" lon="-4.85695959069287">
        <ele>1341.94209289551</ele>
        <time>2018-09-02T12:27:21Z</time>
      </trkpt>
      <trkpt lat="43.0824987078487" lon="-4.8570376262114">
        <ele>1341.56916809082</ele>
        <time>2018-09-02T12:27:22Z</time>
      </trkpt>
      <trkpt lat="43.0823984183772" lon="-4.85710711218869">
        <ele>1341.04536437988</ele>
        <time>2018-09-02T12:27:23Z</time>
      </trkpt>
      <trkpt lat="43.0822927644878" lon="-4.85716142692124">
        <ele>1340.1958770752</ele>
        <time>2018-09-02T12:27:24Z</time>
      </trkpt>
      <trkpt lat="43.0821783515095" lon="-4.85716695897734">
        <ele>1339.03852844238</ele>
        <time>2018-09-02T12:27:25Z</time>
      </trkpt>
      <trkpt lat="43.0820682133018" lon="-4.85712555237567">
        <ele>1338.13642883301</ele>
        <time>2018-09-02T12:27:26Z</time>
      </trkpt>
      <trkpt lat="43.0819667084544" lon="-4.85705003142809">
        <ele>1337.27876281738</ele>
        <time>2018-09-02T12:27:27Z</time>
      </trkpt>
      <trkpt lat="43.0818797881185" lon="-4.85694710165715">
        <ele>1337.17268371582</ele>
        <time>2018-09-02T12:27:28Z</time>
      </trkpt>
      <trkpt lat="43.0817889282881" lon="-4.85683444887852">
        <ele>1336.14753723145</ele>
        <time>2018-09-02T12:27:29Z</time>
      </trkpt>
      <trkpt lat="43.0816927878587" lon="-4.85671157017802">
        <ele>1334.57881164551</ele>
        <time>2018-09-02T12:27:30Z</time>
      </trkpt>
      <trkpt lat="43.0815939233108" lon="-4.85659833066618">
        <ele>1333.75105285645</ele>
        <time>2018-09-02T12:27:31Z</time>
      </trkpt>
      <trkpt lat="43.0814799294277" lon="-4.85648852773463">
        <ele>1330.9683380127</ele>
        <time>2018-09-02T12:27:32Z</time>
      </trkpt>
      <trkpt lat="43.0813907878875" lon="-4.85636958852863">
        <ele>1330.62800598145</ele>
        <time>2018-09-02T12:27:33Z</time>
      </trkpt>
      <trkpt lat="43.0812793504848" lon="-4.85625215806519">
        <ele>1329.44441223145</ele>
        <time>2018-09-02T12:27:34Z</time>
      </trkpt>
      <trkpt lat="43.0811633449449" lon="-4.85615232959842">
        <ele>1328.41767883301</ele>
        <time>2018-09-02T12:27:35Z</time>
      </trkpt>
      <trkpt lat="43.0810506083472" lon="-4.85608058050727">
        <ele>1328.03840637207</ele>
        <time>2018-09-02T12:27:36Z</time>
      </trkpt>
      <trkpt lat="43.0809260951756" lon="-4.85602408647989">
        <ele>1327.59858703613</ele>
        <time>2018-09-02T12:27:37Z</time>
      </trkpt>
      <trkpt lat="43.0808047671272" lon="-4.8559839371637">
        <ele>1326.96772766113</ele>
        <time>2018-09-02T12:27:38Z</time>
      </trkpt>
      <trkpt lat="43.0806810083269" lon="-4.85594571568524">
        <ele>1325.68000793457</ele>
        <time>2018-09-02T12:27:39Z</time>
      </trkpt>
      <trkpt lat="43.0805562856077" lon="-4.85590984113967">
        <ele>1324.58222961426</ele>
        <time>2018-09-02T12:27:40Z</time>
      </trkpt>
      <trkpt lat="43.0804309761553" lon="-4.85588804819142">
        <ele>1324.30683898926</ele>
        <time>2018-09-02T12:27:41Z</time>
      </trkpt>
      <trkpt lat="43.0803078459977" lon="-4.85586038791095">
        <ele>1323.88508605957</ele>
        <time>2018-09-02T12:27:42Z</time>
      </trkpt>
      <trkpt lat="43.0801886553346" lon="-4.85582015477573">
        <ele>1323.11042785645</ele>
        <time>2018-09-02T12:27:43Z</time>
      </trkpt>
      <trkpt lat="43.0800701352237" lon="-4.85577916726922">
        <ele>1321.9517364502</ele>
        <time>2018-09-02T12:27:44Z</time>
      </trkpt>
      <trkpt lat="43.0799518246605" lon="-4.85576089472031">
        <ele>1321.69026184082</ele>
        <time>2018-09-02T12:27:45Z</time>
      </trkpt>
      <trkpt lat="43.0798357772111" lon="-4.8557473998562">
        <ele>1320.91340637207</ele>
        <time>2018-09-02T12:27:46Z</time>
      </trkpt>
      <trkpt lat="43.079719352576" lon="-4.85574731603717">
        <ele>1319.87117004395</ele>
        <time>2018-09-02T12:27:47Z</time>
      </trkpt>
      <trkpt lat="43.0796074122592" lon="-4.85578511842047">
        <ele>1320.29072570801</ele>
        <time>2018-09-02T12:27:48Z</time>
      </trkpt>
      <trkpt lat="43.0795006268128" lon="-4.85583021305954">
        <ele>1320.93550109863</ele>
        <time>2018-09-02T12:27:49Z</time>
      </trkpt>
      <trkpt lat="43.0793922488048" lon="-4.855863153939">
        <ele>1320.62336730957</ele>
        <time>2018-09-02T12:27:50Z</time>
      </trkpt>
      <trkpt lat="43.0792826973303" lon="-4.85588385723984">
        <ele>1320.2974395752</ele>
        <time>2018-09-02T12:27:51Z</time>
      </trkpt>
      <trkpt lat="43.0791699188231" lon="-4.85589659773266">
        <ele>1319.02229309082</ele>
        <time>2018-09-02T12:27:52Z</time>
      </trkpt>
      <trkpt lat="43.0790588586061" lon="-4.85590682365453">
        <ele>1318.15400695801</ele>
        <time>2018-09-02T12:27:53Z</time>
      </trkpt>
      <trkpt lat="43.0789511092408" lon="-4.85592316836571">
        <ele>1317.82197570801</ele>
        <time>2018-09-02T12:27:54Z</time>
      </trkpt>
      <trkpt lat="43.0788400909333" lon="-4.8559289518789">
        <ele>1317.79682922363</ele>
        <time>2018-09-02T12:27:55Z</time>
      </trkpt>
      <trkpt lat="43.0787310004635" lon="-4.85593674704885">
        <ele>1317.81062316895</ele>
        <time>2018-09-02T12:27:56Z</time>
      </trkpt>
      <trkpt lat="43.0786277354165" lon="-4.85594127327656">
        <ele>1317.34883117676</ele>
        <time>2018-09-02T12:27:57Z</time>
      </trkpt>
      <trkpt lat="43.0785231711744" lon="-4.85594144091462">
        <ele>1317.15803527832</ele>
        <time>2018-09-02T12:27:58Z</time>
      </trkpt>
      <trkpt lat="43.0784187745704" lon="-4.8559458833233">
        <ele>1317.12080383301</ele>
        <time>2018-09-02T12:27:59Z</time>
      </trkpt>
      <trkpt lat="43.0783132045" lon="-4.85595736653065">
        <ele>1316.83906555176</ele>
        <time>2018-09-02T12:28:00Z</time>
      </trkpt>
      <trkpt lat="43.0782093108102" lon="-4.85596616752898">
        <ele>1316.59407043457</ele>
        <time>2018-09-02T12:28:01Z</time>
      </trkpt>
      <trkpt lat="43.0781066324963" lon="-4.85598888248657">
        <ele>1316.26435852051</ele>
        <time>2018-09-02T12:28:02Z</time>
      </trkpt>
      <trkpt lat="43.0780059239297" lon="-4.85602500848924">
        <ele>1316.04243469238</ele>
        <time>2018-09-02T12:28:03Z</time>
      </trkpt>
      <trkpt lat="43.077910244505" lon="-4.8560841009066">
        <ele>1316.11299133301</ele>
        <time>2018-09-02T12:28:04Z</time>
      </trkpt>
      <trkpt lat="43.0778114637761" lon="-4.85614771955168">
        <ele>1315.92366027832</ele>
        <time>2018-09-02T12:28:05Z</time>
      </trkpt>
      <trkpt lat="43.0777124315901" lon="-4.85620689578807">
        <ele>1315.9253692627</ele>
        <time>2018-09-02T12:28:06Z</time>
      </trkpt>
      <trkpt lat="43.0776193924649" lon="-4.85626850277638">
        <ele>1315.87019348145</ele>
        <time>2018-09-02T12:28:07Z</time>
      </trkpt>
      <trkpt lat="43.0775211984693" lon="-4.8563243262515">
        <ele>1315.58088684082</ele>
        <time>2018-09-02T12:28:08Z</time>
      </trkpt>
      <trkpt lat="43.0774233816593" lon="-4.85638274811661">
        <ele>1315.56733703613</ele>
        <time>2018-09-02T12:28:09Z</time>
      </trkpt>
      <trkpt lat="43.0773271993204" lon="-4.8564451094762">
        <ele>1315.38374328613</ele>
        <time>2018-09-02T12:28:10Z</time>
      </trkpt>
      <trkpt lat="43.0772267841204" lon="-4.8565090633974">
        <ele>1315.14936828613</ele>
        <time>2018-09-02T12:28:11Z</time>
      </trkpt>
      <trkpt lat="43.0771202501311" lon="-4.85656949691927">
        <ele>1314.87141418457</ele>
        <time>2018-09-02T12:28:12Z</time>
      </trkpt>
      <trkpt lat="43.0770156439795" lon="-4.85663395375466">
        <ele>1314.90815734863</ele>
        <time>2018-09-02T12:28:13Z</time>
      </trkpt>
      <trkpt lat="43.0769098643615" lon="-4.85669690184747">
        <ele>1314.4683380127</ele>
        <time>2018-09-02T12:28:14Z</time>
      </trkpt>
      <trkpt lat="43.0768065154954" lon="-4.85676454380607">
        <ele>1314.02571105957</ele>
        <time>2018-09-02T12:28:15Z</time>
      </trkpt>
      <trkpt lat="43.0767106265231" lon="-4.85682749189889">
        <ele>1313.63069152832</ele>
        <time>2018-09-02T12:28:16Z</time>
      </trkpt>
      <trkpt lat="43.0766095826803" lon="-4.85688976943945">
        <ele>1313.67500305176</ele>
        <time>2018-09-02T12:28:17Z</time>
      </trkpt>
      <trkpt lat="43.0765109695895" lon="-4.85694391653394">
        <ele>1313.5943145752</ele>
        <time>2018-09-02T12:28:18Z</time>
      </trkpt>
      <trkpt lat="43.0764099257468" lon="-4.85698373057401">
        <ele>1313.58992004395</ele>
        <time>2018-09-02T12:28:19Z</time>
      </trkpt>
      <trkpt lat="43.0763029307528" lon="-4.85701021738803">
        <ele>1312.98506164551</ele>
        <time>2018-09-02T12:28:20Z</time>
      </trkpt>
      <trkpt lat="43.0762012163578" lon="-4.85703536309754">
        <ele>1313.31867980957</ele>
        <time>2018-09-02T12:28:21Z</time>
      </trkpt>
      <trkpt lat="43.0760993762343" lon="-4.85705908388352">
        <ele>1313.23347473145</ele>
        <time>2018-09-02T12:28:22Z</time>
      </trkpt>
      <trkpt lat="43.0760023976146" lon="-4.85707676969921">
        <ele>1313.43074035645</ele>
        <time>2018-09-02T12:28:23Z</time>
      </trkpt>
      <trkpt lat="43.0759054609044" lon="-4.85709588043844">
        <ele>1312.96577453613</ele>
        <time>2018-09-02T12:28:24Z</time>
      </trkpt>
      <trkpt lat="43.0758060096233" lon="-4.85711214133059">
        <ele>1312.60139465332</ele>
        <time>2018-09-02T12:28:25Z</time>
      </trkpt>
      <trkpt lat="43.0757037504046" lon="-4.85713183880305">
        <ele>1312.65119934082</ele>
        <time>2018-09-02T12:28:26Z</time>
      </trkpt>
      <trkpt lat="43.0756012397288" lon="-4.85714701004779">
        <ele>1312.39045715332</ele>
        <time>2018-09-02T12:28:27Z</time>
      </trkpt>
      <trkpt lat="43.0754991062387" lon="-4.85716352239703">
        <ele>1312.05903625488</ele>
        <time>2018-09-02T12:28:28Z</time>
      </trkpt>
      <trkpt lat="43.075399529229" lon="-4.85719545744812">
        <ele>1311.66230773926</ele>
        <time>2018-09-02T12:28:29Z</time>
      </trkpt>
      <trkpt lat="43.0753030535235" lon="-4.85723745078301">
        <ele>1311.82173156738</ele>
        <time>2018-09-02T12:28:30Z</time>
      </trkpt>
      <trkpt lat="43.0752113135933" lon="-4.85729654320037">
        <ele>1311.59809875488</ele>
        <time>2018-09-02T12:28:31Z</time>
      </trkpt>
      <trkpt lat="43.0751155503495" lon="-4.85734876245713">
        <ele>1311.31440734863</ele>
        <time>2018-09-02T12:28:32Z</time>
      </trkpt>
      <trkpt lat="43.0750144226878" lon="-4.85739402473425">
        <ele>1310.22871398926</ele>
        <time>2018-09-02T12:28:33Z</time>
      </trkpt>
      <trkpt lat="43.0749188689916" lon="-4.85744196922039">
        <ele>1309.77632141113</ele>
        <time>2018-09-02T12:28:34Z</time>
      </trkpt>
      <trkpt lat="43.0748191662534" lon="-4.857488488783">
        <ele>1309.13252258301</ele>
        <time>2018-09-02T12:28:35Z</time>
      </trkpt>
      <trkpt lat="43.0747153982921" lon="-4.85753668472623">
        <ele>1308.32075500488</ele>
        <time>2018-09-02T12:28:36Z</time>
      </trkpt>
      <trkpt lat="43.0746151926397" lon="-4.85758387484109">
        <ele>1307.61909484863</ele>
        <time>2018-09-02T12:28:37Z</time>
      </trkpt>
      <trkpt lat="43.0745105864881" lon="-4.8576330766127">
        <ele>1306.8667755127</ele>
        <time>2018-09-02T12:28:38Z</time>
      </trkpt>
      <trkpt lat="43.0744041363179" lon="-4.85769124702071">
        <ele>1306.34553527832</ele>
        <time>2018-09-02T12:28:39Z</time>
      </trkpt>
      <trkpt lat="43.0742900167062" lon="-4.85774044879233">
        <ele>1305.08345031738</ele>
        <time>2018-09-02T12:28:40Z</time>
      </trkpt>
      <trkpt lat="43.0741848238214" lon="-4.85779803246712">
        <ele>1304.16499328613</ele>
        <time>2018-09-02T12:28:41Z</time>
      </trkpt>
      <trkpt lat="43.0740761943563" lon="-4.8578577116177">
        <ele>1303.29890441895</ele>
        <time>2018-09-02T12:28:42Z</time>
      </trkpt>
      <trkpt lat="43.0739699537336" lon="-4.85792040825343">
        <ele>1302.88777160645</ele>
        <time>2018-09-02T12:28:43Z</time>
      </trkpt>
      <trkpt lat="43.0738613242685" lon="-4.85797665082371">
        <ele>1302.18672180176</ele>
        <time>2018-09-02T12:28:44Z</time>
      </trkpt>
      <trkpt lat="43.0737539101793" lon="-4.85802819952821">
        <ele>1301.51509094238</ele>
        <time>2018-09-02T12:28:45Z</time>
      </trkpt>
      <trkpt lat="43.0736414669483" lon="-4.8580773174808">
        <ele>1300.79206848145</ele>
        <time>2018-09-02T12:28:46Z</time>
      </trkpt>
      <trkpt lat="43.0735381599917" lon="-4.85813087784206">
        <ele>1300.84455871582</ele>
        <time>2018-09-02T12:28:47Z</time>
      </trkpt>
      <trkpt lat="43.0734329251974" lon="-4.85817614011919">
        <ele>1301.00422668457</ele>
        <time>2018-09-02T12:28:48Z</time>
      </trkpt>
      <trkpt lat="43.0733333900972" lon="-4.85822324641501">
        <ele>1300.78974914551</ele>
        <time>2018-09-02T12:28:49Z</time>
      </trkpt>
      <trkpt lat="43.0732358666538" lon="-4.85827831551885">
        <ele>1300.83113098145</ele>
        <time>2018-09-02T12:28:50Z</time>
      </trkpt>
      <trkpt lat="43.0731377145677" lon="-4.85832936130917">
        <ele>1300.90119934082</ele>
        <time>2018-09-02T12:28:51Z</time>
      </trkpt>
      <trkpt lat="43.0730456812708" lon="-4.85838593915557">
        <ele>1301.30561828613</ele>
        <time>2018-09-02T12:28:52Z</time>
      </trkpt>
      <trkpt lat="43.0729532707884" lon="-4.85843790695524">
        <ele>1301.26728820801</ele>
        <time>2018-09-02T12:28:53Z</time>
      </trkpt>
      <trkpt lat="43.0728602316632" lon="-4.85848886892652">
        <ele>1300.94111633301</ele>
        <time>2018-09-02T12:28:54Z</time>
      </trkpt>
      <trkpt lat="43.0727730179607" lon="-4.85853991471683">
        <ele>1300.50373840332</ele>
        <time>2018-09-02T12:28:55Z</time>
      </trkpt>
      <trkpt lat="43.0726831639587" lon="-4.85859012231683">
        <ele>1300.45832824707</ele>
        <time>2018-09-02T12:28:56Z</time>
      </trkpt>
      <trkpt lat="43.072592932771" lon="-4.85863219947075">
        <ele>1300.08772277832</ele>
        <time>2018-09-02T12:28:57Z</time>
      </trkpt>
      <trkpt lat="43.0725054676114" lon="-4.85867536627209">
        <ele>1299.55610656738</ele>
        <time>2018-09-02T12:28:58Z</time>
      </trkpt>
      <trkpt lat="43.0724139791383" lon="-4.85871819779729">
        <ele>1299.47102355957</ele>
        <time>2018-09-02T12:28:59Z</time>
      </trkpt>
      <trkpt lat="43.0723238317697" lon="-4.85876354389345">
        <ele>1299.54902648926</ele>
        <time>2018-09-02T12:29:00Z</time>
      </trkpt>
      <trkpt lat="43.0722304573684" lon="-4.85880997963702">
        <ele>1298.98750305176</ele>
        <time>2018-09-02T12:29:01Z</time>
      </trkpt>
      <trkpt lat="43.0721369572385" lon="-4.85885096714353">
        <ele>1298.91548156738</ele>
        <time>2018-09-02T12:29:02Z</time>
      </trkpt>
      <trkpt lat="43.0720428284659" lon="-4.85888843425071">
        <ele>1298.92317199707</ele>
        <time>2018-09-02T12:29:03Z</time>
      </trkpt>
      <trkpt lat="43.0719453050225" lon="-4.85892095603501">
        <ele>1298.7056427002</ele>
        <time>2018-09-02T12:29:04Z</time>
      </trkpt>
      <trkpt lat="43.071844931732" lon="-4.85894719139194">
        <ele>1298.75971984863</ele>
        <time>2018-09-02T12:29:05Z</time>
      </trkpt>
      <trkpt lat="43.0717475759267" lon="-4.85896378756022">
        <ele>1298.69343566895</ele>
        <time>2018-09-02T12:29:06Z</time>
      </trkpt>
      <trkpt lat="43.0716460291697" lon="-4.85896722414052">
        <ele>1298.40705871582</ele>
        <time>2018-09-02T12:29:07Z</time>
      </trkpt>
      <trkpt lat="43.0715452786936" lon="-4.85895833932316">
        <ele>1298.30268859863</ele>
        <time>2018-09-02T12:29:08Z</time>
      </trkpt>
      <trkpt lat="43.0714451987697" lon="-4.85894182697391">
        <ele>1298.02131652832</ele>
        <time>2018-09-02T12:29:09Z</time>
      </trkpt>
      <trkpt lat="43.0713436520128" lon="-4.85892573371982">
        <ele>1297.71199035645</ele>
        <time>2018-09-02T12:29:10Z</time>
      </trkpt>
      <trkpt lat="43.071242356713" lon="-4.85891173594152">
        <ele>1297.34944152832</ele>
        <time>2018-09-02T12:29:11Z</time>
      </trkpt>
      <trkpt lat="43.0711408518656" lon="-4.85889321193552">
        <ele>1297.1284942627</ele>
        <time>2018-09-02T12:29:12Z</time>
      </trkpt>
      <trkpt lat="43.0710370419948" lon="-4.8588905297265">
        <ele>1296.94648742676</ele>
        <time>2018-09-02T12:29:13Z</time>
      </trkpt>
      <trkpt lat="43.0709301308199" lon="-4.85890645534253">
        <ele>1296.33027648926</ele>
        <time>2018-09-02T12:29:14Z</time>
      </trkpt>
      <trkpt lat="43.070828751701" lon="-4.85894442536389">
        <ele>1295.80476379395</ele>
        <time>2018-09-02T12:29:15Z</time>
      </trkpt>
      <trkpt lat="43.0707338266476" lon="-4.85900117084836">
        <ele>1295.5962677002</ele>
        <time>2018-09-02T12:29:16Z</time>
      </trkpt>
      <trkpt lat="43.070647744502" lon="-4.85908079892849">
        <ele>1295.49873352051</ele>
        <time>2018-09-02T12:29:17Z</time>
      </trkpt>
      <trkpt lat="43.070563171099" lon="-4.85917149112081">
        <ele>1295.4282989502</ele>
        <time>2018-09-02T12:29:18Z</time>
      </trkpt>
      <trkpt lat="43.0704790587007" lon="-4.85926453024601">
        <ele>1294.86201477051</ele>
        <time>2018-09-02T12:29:19Z</time>
      </trkpt>
      <trkpt lat="43.0703951977594" lon="-4.85935756937122">
        <ele>1294.36470031738</ele>
        <time>2018-09-02T12:29:20Z</time>
      </trkpt>
      <trkpt lat="43.0703066429524" lon="-4.85945111141061">
        <ele>1294.22151184082</ele>
        <time>2018-09-02T12:29:21Z</time>
      </trkpt>
      <trkpt lat="43.0702216504543" lon="-4.85953954048907">
        <ele>1294.46858215332</ele>
        <time>2018-09-02T12:29:22Z</time>
      </trkpt>
      <trkpt lat="43.0701430282025" lon="-4.85963383689975">
        <ele>1294.49201965332</ele>
        <time>2018-09-02T12:29:23Z</time>
      </trkpt>
      <trkpt lat="43.0700673396169" lon="-4.85973374918556">
        <ele>1294.84419250488</ele>
        <time>2018-09-02T12:29:24Z</time>
      </trkpt>
      <trkpt lat="43.0700061936333" lon="-4.85984288156485">
        <ele>1294.92219543457</ele>
        <time>2018-09-02T12:29:25Z</time>
      </trkpt>
      <trkpt lat="43.0699416529788" lon="-4.85994958319223">
        <ele>1294.66584777832</ele>
        <time>2018-09-02T12:29:26Z</time>
      </trkpt>
      <trkpt lat="43.069874639663" lon="-4.86005192622995">
        <ele>1294.90119934082</ele>
        <time>2018-09-02T12:29:27Z</time>
      </trkpt>
      <trkpt lat="43.0698108952894" lon="-4.86014898866868">
        <ele>1295.11909484863</ele>
        <time>2018-09-02T12:29:28Z</time>
      </trkpt>
      <trkpt lat="43.0697381403698" lon="-4.86023548990941">
        <ele>1295.07783508301</ele>
        <time>2018-09-02T12:29:29Z</time>
      </trkpt>
      <trkpt lat="43.0696622841461" lon="-4.86031386070406">
        <ele>1294.92573547363</ele>
        <time>2018-09-02T12:29:30Z</time>
      </trkpt>
      <trkpt lat="43.0695767887338" lon="-4.86038259231007">
        <ele>1295.01142883301</ele>
        <time>2018-09-02T12:29:31Z</time>
      </trkpt>
      <trkpt lat="43.0694912514119" lon="-4.86043464392876">
        <ele>1294.86018371582</ele>
        <time>2018-09-02T12:29:32Z</time>
      </trkpt>
      <trkpt lat="43.0693980446486" lon="-4.86046741717016">
        <ele>1294.72541809082</ele>
        <time>2018-09-02T12:29:33Z</time>
      </trkpt>
      <trkpt lat="43.0693092802941" lon="-4.86047822982525">
        <ele>1295.29475402832</ele>
        <time>2018-09-02T12:29:34Z</time>
      </trkpt>
      <trkpt lat="43.069220725487" lon="-4.86047102138853">
        <ele>1294.8111114502</ele>
        <time>2018-09-02T12:29:35Z</time>
      </trkpt>
      <trkpt lat="43.069137451279" lon="-4.86043665558552">
        <ele>1295.21797180176</ele>
        <time>2018-09-02T12:29:36Z</time>
      </trkpt>
      <trkpt lat="43.0690617207839" lon="-4.86038032919621">
        <ele>1295.29011535645</ele>
        <time>2018-09-02T12:29:37Z</time>
      </trkpt>
      <trkpt lat="43.0689879181265" lon="-4.86031218432343">
        <ele>1295.34175109863</ele>
        <time>2018-09-02T12:29:38Z</time>
      </trkpt>
      <trkpt lat="43.0689148279308" lon="-4.86023121513879">
        <ele>1295.04426574707</ele>
        <time>2018-09-02T12:29:39Z</time>
      </trkpt>
      <trkpt lat="43.068838804069" lon="-4.86015846021926">
        <ele>1294.82624816895</ele>
        <time>2018-09-02T12:29:40Z</time>
      </trkpt>
      <trkpt lat="43.068759427446" lon="-4.86007941887235">
        <ele>1294.42073059082</ele>
        <time>2018-09-02T12:29:41Z</time>
      </trkpt>
      <trkpt lat="43.068680134642" lon="-4.86000942998087">
        <ele>1293.84870910645</ele>
        <time>2018-09-02T12:29:42Z</time>
      </trkpt>
      <trkpt lat="43.0685945135011" lon="-4.85992829315817">
        <ele>1293.76533508301</ele>
        <time>2018-09-02T12:29:43Z</time>
      </trkpt>
      <trkpt lat="43.068510987836" lon="-4.85984950326836">
        <ele>1292.41511535645</ele>
        <time>2018-09-02T12:29:44Z</time>
      </trkpt>
      <trkpt lat="43.0684319045796" lon="-4.8597780056343">
        <ele>1291.48017883301</ele>
        <time>2018-09-02T12:29:45Z</time>
      </trkpt>
      <trkpt lat="43.0683449842437" lon="-4.85970751382863">
        <ele>1291.63093566895</ele>
        <time>2018-09-02T12:29:46Z</time>
      </trkpt>
      <trkpt lat="43.0682575190841" lon="-4.85964012332713">
        <ele>1290.81867980957</ele>
        <time>2018-09-02T12:29:47Z</time>
      </trkpt>
      <trkpt lat="43.0681711435719" lon="-4.85957885161495">
        <ele>1290.59211730957</ele>
        <time>2018-09-02T12:29:48Z</time>
      </trkpt>
      <trkpt lat="43.0680755479662" lon="-4.85951062292313">
        <ele>1290.02546691895</ele>
        <time>2018-09-02T12:29:49Z</time>
      </trkpt>
      <trkpt lat="43.067986322607" lon="-4.85944532789742">
        <ele>1289.73127746582</ele>
        <time>2018-09-02T12:29:50Z</time>
      </trkpt>
      <trkpt lat="43.0678945826768" lon="-4.85938011669075">
        <ele>1288.82466125488</ele>
        <time>2018-09-02T12:29:51Z</time>
      </trkpt>
      <trkpt lat="43.0678049382223" lon="-4.8593136481986">
        <ele>1288.47212219238</ele>
        <time>2018-09-02T12:29:52Z</time>
      </trkpt>
      <trkpt lat="43.0677178502484" lon="-4.85923653468942">
        <ele>1288.10615539551</ele>
        <time>2018-09-02T12:29:53Z</time>
      </trkpt>
      <trkpt lat="43.0676361266925" lon="-4.85915531404769">
        <ele>1287.92207336426</ele>
        <time>2018-09-02T12:29:54Z</time>
      </trkpt>
      <trkpt lat="43.0675564567028" lon="-4.85907074064469">
        <ele>1287.02546691895</ele>
        <time>2018-09-02T12:29:55Z</time>
      </trkpt>
      <trkpt lat="43.0674698297335" lon="-4.85897392966306">
        <ele>1286.33723449707</ele>
        <time>2018-09-02T12:29:56Z</time>
      </trkpt>
      <trkpt lat="43.0673886929108" lon="-4.85886789858794">
        <ele>1285.38972473145</ele>
        <time>2018-09-02T12:29:57Z</time>
      </trkpt>
      <trkpt lat="43.067303239408" lon="-4.85876061022734">
        <ele>1284.36567687988</ele>
        <time>2018-09-02T12:29:58Z</time>
      </trkpt>
      <trkpt lat="43.0672260420798" lon="-4.85866866074955">
        <ele>1284.49311828613</ele>
        <time>2018-09-02T12:29:59Z</time>
      </trkpt>
      <trkpt lat="43.0671408400341" lon="-4.85856774263536">
        <ele>1283.6070098877</ele>
        <time>2018-09-02T12:30:00Z</time>
      </trkpt>
      <trkpt lat="43.0670633493392" lon="-4.85847562551951">
        <ele>1283.84443664551</ele>
        <time>2018-09-02T12:30:01Z</time>
      </trkpt>
      <trkpt lat="43.066986152011" lon="-4.85838015564238">
        <ele>1283.51240539551</ele>
        <time>2018-09-02T12:30:02Z</time>
      </trkpt>
      <trkpt lat="43.0669029616221" lon="-4.85829105601167">
        <ele>1282.80073547363</ele>
        <time>2018-09-02T12:30:03Z</time>
      </trkpt>
      <trkpt lat="43.0668179272144" lon="-4.85819860361969">
        <ele>1282.23640441895</ele>
        <time>2018-09-02T12:30:04Z</time>
      </trkpt>
      <trkpt lat="43.0667378381296" lon="-4.85811067745542">
        <ele>1282.04231262207</ele>
        <time>2018-09-02T12:30:05Z</time>
      </trkpt>
      <trkpt lat="43.066656952764" lon="-4.85802836716628">
        <ele>1282.02180480957</ele>
        <time>2018-09-02T12:30:06Z</time>
      </trkpt>
      <trkpt lat="43.066580342169" lon="-4.85794178210651">
        <ele>1281.62092590332</ele>
        <time>2018-09-02T12:30:07Z</time>
      </trkpt>
      <trkpt lat="43.0664989538892" lon="-4.85786492005443">
        <ele>1281.31526184082</ele>
        <time>2018-09-02T12:30:08Z</time>
      </trkpt>
      <trkpt lat="43.0664188228949" lon="-4.85781270079767">
        <ele>1282.30256652832</ele>
        <time>2018-09-02T12:30:09Z</time>
      </trkpt>
      <trkpt lat="43.0663384404435" lon="-4.8577662650541">
        <ele>1283.3189239502</ele>
        <time>2018-09-02T12:30:10Z</time>
      </trkpt>
      <trkpt lat="43.0662551243259" lon="-4.85772578046178">
        <ele>1283.58955383301</ele>
        <time>2018-09-02T12:30:11Z</time>
      </trkpt>
      <trkpt lat="43.0661702156468" lon="-4.85768102109885">
        <ele>1283.77925109863</ele>
        <time>2018-09-02T12:30:12Z</time>
      </trkpt>
      <trkpt lat="43.0660845945059" lon="-4.85763961449718">
        <ele>1283.60530090332</ele>
        <time>2018-09-02T12:30:13Z</time>
      </trkpt>
      <trkpt lat="43.0660026194929" lon="-4.85760533251321">
        <ele>1283.6197052002</ele>
        <time>2018-09-02T12:30:14Z</time>
      </trkpt>
      <trkpt lat="43.065918381366" lon="-4.85758538358366">
        <ele>1284.26985168457</ele>
        <time>2018-09-02T12:30:15Z</time>
      </trkpt>
      <trkpt lat="43.0658388790144" lon="-4.85757499002373">
        <ele>1284.38398742676</ele>
        <time>2018-09-02T12:30:16Z</time>
      </trkpt>
      <trkpt lat="43.0657524196832" lon="-4.85756887123441">
        <ele>1284.1480255127</ele>
        <time>2018-09-02T12:30:17Z</time>
      </trkpt>
      <trkpt lat="43.0656677205517" lon="-4.85756920651054">
        <ele>1284.10725402832</ele>
        <time>2018-09-02T12:30:18Z</time>
      </trkpt>
      <trkpt lat="43.0655819317727" lon="-4.85756652430152">
        <ele>1283.89741516113</ele>
        <time>2018-09-02T12:30:19Z</time>
      </trkpt>
      <trkpt lat="43.0654935446038" lon="-4.85756887123441">
        <ele>1283.8101348877</ele>
        <time>2018-09-02T12:30:20Z</time>
      </trkpt>
      <trkpt lat="43.065402894321" lon="-4.85757146962439">
        <ele>1283.54194641113</ele>
        <time>2018-09-02T12:30:21Z</time>
      </trkpt>
      <trkpt lat="43.0653170636325" lon="-4.8575746547476">
        <ele>1283.36506652832</ele>
        <time>2018-09-02T12:30:22Z</time>
      </trkpt>
      <trkpt lat="43.065225952345" lon="-4.85758119263207">
        <ele>1283.00312805176</ele>
        <time>2018-09-02T12:30:23Z</time>
      </trkpt>
      <trkpt lat="43.0651383195473" lon="-4.85759963281905">
        <ele>1283.01387023926</ele>
        <time>2018-09-02T12:30:24Z</time>
      </trkpt>
      <trkpt lat="43.0650519440352" lon="-4.8576211743102">
        <ele>1282.17024230957</ele>
        <time>2018-09-02T12:30:25Z</time>
      </trkpt>
      <trkpt lat="43.0649668258085" lon="-4.85763617791688">
        <ele>1280.67878723145</ele>
        <time>2018-09-02T12:30:26Z</time>
      </trkpt>
      <trkpt lat="43.0648791511013" lon="-4.85766576603507">
        <ele>1280.16474914551</ele>
        <time>2018-09-02T12:30:27Z</time>
      </trkpt>
      <trkpt lat="43.0647929013176" lon="-4.85770331696128">
        <ele>1279.93855285645</ele>
        <time>2018-09-02T12:30:28Z</time>
      </trkpt>
      <trkpt lat="43.0647055618866" lon="-4.85774572939133">
        <ele>1280.21699523926</ele>
        <time>2018-09-02T12:30:29Z</time>
      </trkpt>
      <trkpt lat="43.0646212818502" lon="-4.85779794864809">
        <ele>1279.97297668457</ele>
        <time>2018-09-02T12:30:30Z</time>
      </trkpt>
      <trkpt lat="43.0645484012021" lon="-4.85785653815126">
        <ele>1280.20918273926</ele>
        <time>2018-09-02T12:30:31Z</time>
      </trkpt>
      <trkpt lat="43.0644691503076" lon="-4.85789341852521">
        <ele>1279.99714660645</ele>
        <time>2018-09-02T12:30:32Z</time>
      </trkpt>
      <trkpt lat="43.0643761950015" lon="-4.8579131998167">
        <ele>1280.48677062988</ele>
        <time>2018-09-02T12:30:33Z</time>
      </trkpt>
      <trkpt lat="43.0642935913457" lon="-4.85789769329583">
        <ele>1280.00032043457</ele>
        <time>2018-09-02T12:30:34Z</time>
      </trkpt>
      <trkpt lat="43.0642143823607" lon="-4.85786148347413">
        <ele>1280.27754211426</ele>
        <time>2018-09-02T12:30:35Z</time>
      </trkpt>
      <trkpt lat="43.0641347123711" lon="-4.85781437717831">
        <ele>1280.32795715332</ele>
        <time>2018-09-02T12:30:36Z</time>
      </trkpt>
      <trkpt lat="43.064056551124" lon="-4.85776199028348">
        <ele>1280.12312316895</ele>
        <time>2018-09-02T12:30:37Z</time>
      </trkpt>
      <trkpt lat="43.0639757076679" lon="-4.85771270469283">
        <ele>1280.38301086426</ele>
        <time>2018-09-02T12:30:38Z</time>
      </trkpt>
      <trkpt lat="43.0639018211915" lon="-4.85766719095861">
        <ele>1280.87934875488</ele>
        <time>2018-09-02T12:30:39Z</time>
      </trkpt>
      <trkpt lat="43.0638265097915" lon="-4.85760550015127">
        <ele>1280.94514465332</ele>
        <time>2018-09-02T12:30:40Z</time>
      </trkpt>
      <trkpt lat="43.0637546768813" lon="-4.85754238442039">
        <ele>1280.34101867676</ele>
        <time>2018-09-02T12:30:41Z</time>
      </trkpt>
      <trkpt lat="43.0636864481895" lon="-4.85746158287381">
        <ele>1278.70710754395</ele>
        <time>2018-09-02T12:30:42Z</time>
      </trkpt>
      <trkpt lat="43.0636088736756" lon="-4.85738941468751">
        <ele>1277.96211242676</ele>
        <time>2018-09-02T12:30:43Z</time>
      </trkpt>
      <trkpt lat="43.0635338137327" lon="-4.85731665976798">
        <ele>1277.29988098145</ele>
        <time>2018-09-02T12:30:44Z</time>
      </trkpt>
      <trkpt lat="43.0634542694716" lon="-4.8572411388204">
        <ele>1276.82954406738</ele>
        <time>2018-09-02T12:30:45Z</time>
      </trkpt>
      <trkpt lat="43.0633683130546" lon="-4.85717475414728">
        <ele>1276.71223449707</ele>
        <time>2018-09-02T12:30:46Z</time>
      </trkpt>
      <trkpt lat="43.0632809736236" lon="-4.85712069087183">
        <ele>1276.56916809082</ele>
        <time>2018-09-02T12:30:47Z</time>
      </trkpt>
      <trkpt lat="43.0631914548977" lon="-4.85706637613928">
        <ele>1276.62886047363</ele>
        <time>2018-09-02T12:30:48Z</time>
      </trkpt>
      <trkpt lat="43.0630905367835" lon="-4.857028657575">
        <ele>1277.02241516113</ele>
        <time>2018-09-02T12:30:49Z</time>
      </trkpt>
      <trkpt lat="43.0629898282169" lon="-4.8569945432291">
        <ele>1276.87275695801</ele>
        <time>2018-09-02T12:30:50Z</time>
      </trkpt>
      <trkpt lat="43.0628904607548" lon="-4.85695892014062">
        <ele>1276.31562805176</ele>
        <time>2018-09-02T12:30:51Z</time>
      </trkpt>
      <trkpt lat="43.0627925601258" lon="-4.8569200281099">
        <ele>1275.92488098145</ele>
        <time>2018-09-02T12:30:52Z</time>
      </trkpt>
      <trkpt lat="43.0626949528633" lon="-4.85688717104947">
        <ele>1275.91377258301</ele>
        <time>2018-09-02T12:30:53Z</time>
      </trkpt>
      <trkpt lat="43.062593699473" lon="-4.85685070977067">
        <ele>1275.53779602051</ele>
        <time>2018-09-02T12:30:54Z</time>
      </trkpt>
      <trkpt lat="43.0624962179391" lon="-4.85682070255732">
        <ele>1275.26533508301</ele>
        <time>2018-09-02T12:30:55Z</time>
      </trkpt>
      <trkpt lat="43.0623996584146" lon="-4.85678457655465">
        <ele>1275.40205383301</ele>
        <time>2018-09-02T12:30:56Z</time>
      </trkpt>
      <trkpt lat="43.0623090919508" lon="-4.8567421641246">
        <ele>1275.41572570801</ele>
        <time>2018-09-02T12:30:57Z</time>
      </trkpt>
      <trkpt lat="43.0622147955401" lon="-4.85669329762911">
        <ele>1275.0620880127</ele>
        <time>2018-09-02T12:30:58Z</time>
      </trkpt>
      <trkpt lat="43.0621205829485" lon="-4.85663445666885">
        <ele>1273.94831848145</ele>
        <time>2018-09-02T12:30:59Z</time>
      </trkpt>
      <trkpt lat="43.0620369315548" lon="-4.85656882636701">
        <ele>1273.79975891113</ele>
        <time>2018-09-02T12:31:00Z</time>
      </trkpt>
      <trkpt lat="43.0619464489101" lon="-4.85650143586551">
        <ele>1273.74433898926</ele>
        <time>2018-09-02T12:31:01Z</time>
      </trkpt>
      <trkpt lat="43.0618573911889" lon="-4.85642348416602">
        <ele>1272.32991027832</ele>
        <time>2018-09-02T12:31:02Z</time>
      </trkpt>
      <trkpt lat="43.0617748713522" lon="-4.85634109005784">
        <ele>1272.49348449707</ele>
        <time>2018-09-02T12:31:03Z</time>
      </trkpt>
      <trkpt lat="43.0617061397462" lon="-4.85622826964115">
        <ele>1272.96687316895</ele>
        <time>2018-09-02T12:31:04Z</time>
      </trkpt>
      <trkpt lat="43.0616601230978" lon="-4.85609893687522">
        <ele>1273.14155578613</ele>
        <time>2018-09-02T12:31:05Z</time>
      </trkpt>
      <trkpt lat="43.0616090773075" lon="-4.85597211868023">
        <ele>1273.72554016113</ele>
        <time>2018-09-02T12:31:06Z</time>
      </trkpt>
      <trkpt lat="43.061558995436" lon="-4.85584286973333">
        <ele>1274.42988586426</ele>
        <time>2018-09-02T12:31:07Z</time>
      </trkpt>
      <trkpt lat="43.0614913115679" lon="-4.85573038459276">
        <ele>1274.15168762207</ele>
        <time>2018-09-02T12:31:08Z</time>
      </trkpt>
      <trkpt lat="43.0614155810727" lon="-4.85563474707758">
        <ele>1274.2984161377</ele>
        <time>2018-09-02T12:31:09Z</time>
      </trkpt>
      <trkpt lat="43.0613370845495" lon="-4.85553056002115">
        <ele>1273.67671203613</ele>
        <time>2018-09-02T12:31:10Z</time>
      </trkpt>
      <trkpt lat="43.0612594262167" lon="-4.85544070601915">
        <ele>1273.05830383301</ele>
        <time>2018-09-02T12:31:11Z</time>
      </trkpt>
      <trkpt lat="43.0611894373252" lon="-4.85534062609529">
        <ele>1272.58015441895</ele>
        <time>2018-09-02T12:31:12Z</time>
      </trkpt>
      <trkpt lat="43.0611292552604" lon="-4.85523501411533">
        <ele>1272.2359161377</ele>
        <time>2018-09-02T12:31:13Z</time>
      </trkpt>
      <trkpt lat="43.0610604398354" lon="-4.85513619147693">
        <ele>1272.65473937988</ele>
        <time>2018-09-02T12:31:14Z</time>
      </trkpt>
      <trkpt lat="43.0609963182761" lon="-4.85504524782752">
        <ele>1273.49153137207</ele>
        <time>2018-09-02T12:31:15Z</time>
      </trkpt>
      <trkpt lat="43.0609282153128" lon="-4.85495799221551">
        <ele>1273.79243469238</ele>
        <time>2018-09-02T12:31:16Z</time>
      </trkpt>
      <trkpt lat="43.0608482100471" lon="-4.85486403108095">
        <ele>1273.46296691895</ele>
        <time>2018-09-02T12:31:17Z</time>
      </trkpt>
      <trkpt lat="43.0607728567375" lon="-4.85479219817077">
        <ele>1273.4839630127</ele>
        <time>2018-09-02T12:31:18Z</time>
      </trkpt>
      <trkpt lat="43.0606905464484" lon="-4.85472891480183">
        <ele>1273.07856750488</ele>
        <time>2018-09-02T12:31:19Z</time>
      </trkpt>
      <trkpt lat="43.0606084876163" lon="-4.85467552207862">
        <ele>1272.97480773926</ele>
        <time>2018-09-02T12:31:20Z</time>
      </trkpt>
      <trkpt lat="43.0605239142133" lon="-4.85464098863756">
        <ele>1273.11238098145</ele>
        <time>2018-09-02T12:31:21Z</time>
      </trkpt>
      <trkpt lat="43.0604322581022" lon="-4.85463084653472">
        <ele>1272.72151184082</ele>
        <time>2018-09-02T12:31:22Z</time>
      </trkpt>
      <trkpt lat="43.0603543064027" lon="-4.85466529615675">
        <ele>1271.40559387207</ele>
        <time>2018-09-02T12:31:23Z</time>
      </trkpt>
      <trkpt lat="43.060275851789" lon="-4.85471064225291">
        <ele>1271.13203430176</ele>
        <time>2018-09-02T12:31:24Z</time>
      </trkpt>
      <trkpt lat="43.0601946730568" lon="-4.85475397669231">
        <ele>1270.96430969238</ele>
        <time>2018-09-02T12:31:25Z</time>
      </trkpt>
      <trkpt lat="43.0601155059813" lon="-4.85480108298813">
        <ele>1270.55146789551</ele>
        <time>2018-09-02T12:31:26Z</time>
      </trkpt>
      <trkpt lat="43.0600451399042" lon="-4.85487082042252">
        <ele>1270.18830871582</ele>
        <time>2018-09-02T12:31:27Z</time>
      </trkpt>
      <trkpt lat="43.0599862570344" lon="-4.85495606437778">
        <ele>1269.36604309082</ele>
        <time>2018-09-02T12:31:28Z</time>
      </trkpt>
      <trkpt lat="43.0599304335593" lon="-4.85504516400849">
        <ele>1269.48933410645</ele>
        <time>2018-09-02T12:31:29Z</time>
      </trkpt>
      <trkpt lat="43.0598734785272" lon="-4.85513200052535">
        <ele>1269.41694641113</ele>
        <time>2018-09-02T12:31:30Z</time>
      </trkpt>
      <trkpt lat="43.0598131288244" lon="-4.85520819202518">
        <ele>1270.21821594238</ele>
        <time>2018-09-02T12:31:31Z</time>
      </trkpt>
      <trkpt lat="43.0597384460671" lon="-4.85527491197442">
        <ele>1270.07356262207</ele>
        <time>2018-09-02T12:31:32Z</time>
      </trkpt>
      <trkpt lat="43.0596654816" lon="-4.85533475876307">
        <ele>1269.84541320801</ele>
        <time>2018-09-02T12:31:33Z</time>
      </trkpt>
      <trkpt lat="43.0595845543249" lon="-4.85538790002917">
        <ele>1269.5181427002</ele>
        <time>2018-09-02T12:31:34Z</time>
      </trkpt>
      <trkpt lat="43.0595052196114" lon="-4.85543483868693">
        <ele>1267.9722442627</ele>
        <time>2018-09-02T12:31:35Z</time>
      </trkpt>
      <trkpt lat="43.0594293214782" lon="-4.85548580065822">
        <ele>1267.64497375488</ele>
        <time>2018-09-02T12:31:36Z</time>
      </trkpt>
      <trkpt lat="43.0593552673637" lon="-4.85553391278242">
        <ele>1268.2115020752</ele>
        <time>2018-09-02T12:31:37Z</time>
      </trkpt>
      <trkpt lat="43.0592790758638" lon="-4.85558621585821">
        <ele>1268.36006164551</ele>
        <time>2018-09-02T12:31:38Z</time>
      </trkpt>
      <trkpt lat="43.0592158763139" lon="-4.85564497299945">
        <ele>1268.92036437988</ele>
        <time>2018-09-02T12:31:39Z</time>
      </trkpt>
      <trkpt lat="43.059150162193" lon="-4.8557093460158">
        <ele>1268.86018371582</ele>
        <time>2018-09-02T12:31:40Z</time>
      </trkpt>
      <trkpt lat="43.059086627367" lon="-4.85577866435503">
        <ele>1267.84797668457</ele>
        <time>2018-09-02T12:31:41Z</time>
      </trkpt>
      <trkpt lat="43.0590274930401" lon="-4.8558510001794">
        <ele>1267.67268371582</ele>
        <time>2018-09-02T12:31:42Z</time>
      </trkpt>
      <trkpt lat="43.0589710409223" lon="-4.85592358746087">
        <ele>1268.30366516113</ele>
        <time>2018-09-02T12:31:43Z</time>
      </trkpt>
      <trkpt lat="43.0589111103146" lon="-4.85599827021813">
        <ele>1268.31159973145</ele>
        <time>2018-09-02T12:31:44Z</time>
      </trkpt>
      <trkpt lat="43.0588502157881" lon="-4.85607597046053">
        <ele>1268.11518859863</ele>
        <time>2018-09-02T12:31:45Z</time>
      </trkpt>
      <trkpt lat="43.0587930931179" lon="-4.8561464622662">
        <ele>1267.19172668457</ele>
        <time>2018-09-02T12:31:46Z</time>
      </trkpt>
      <trkpt lat="43.0587372696428" lon="-4.85622550361311">
        <ele>1265.49409484863</ele>
        <time>2018-09-02T12:31:47Z</time>
      </trkpt>
      <trkpt lat="43.0586804822488" lon="-4.85629909672295">
        <ele>1265.67768859863</ele>
        <time>2018-09-02T12:31:48Z</time>
      </trkpt>
      <trkpt lat="43.058612169738" lon="-4.85637411475634">
        <ele>1265.35371398926</ele>
        <time>2018-09-02T12:31:49Z</time>
      </trkpt>
      <trkpt lat="43.058540755923" lon="-4.85644469038104">
        <ele>1265.05805969238</ele>
        <time>2018-09-02T12:31:50Z</time>
      </trkpt>
      <trkpt lat="43.0584648158802" lon="-4.85650269315099">
        <ele>1265.0532989502</ele>
        <time>2018-09-02T12:31:51Z</time>
      </trkpt>
      <trkpt lat="43.0583747942402" lon="-4.85655751079773">
        <ele>1264.64765930176</ele>
        <time>2018-09-02T12:31:52Z</time>
      </trkpt>
      <trkpt lat="43.0582848983287" lon="-4.85659472644781">
        <ele>1264.60346984863</ele>
        <time>2018-09-02T12:31:53Z</time>
      </trkpt>
      <trkpt lat="43.058191901113" lon="-4.85662263818537">
        <ele>1264.0835723877</ele>
        <time>2018-09-02T12:31:54Z</time>
      </trkpt>
      <trkpt lat="43.0580929946555" lon="-4.8566385638014">
        <ele>1264.03999328613</ele>
        <time>2018-09-02T12:31:55Z</time>
      </trkpt>
      <trkpt lat="43.0579956807597" lon="-4.8566470295236">
        <ele>1263.71858215332</ele>
        <time>2018-09-02T12:31:56Z</time>
      </trkpt>
      <trkpt lat="43.0579004204302" lon="-4.85665247776067">
        <ele>1262.88581848145</ele>
        <time>2018-09-02T12:31:57Z</time>
      </trkpt>
      <trkpt lat="43.0578051181911" lon="-4.85665432177936">
        <ele>1262.46626281738</ele>
        <time>2018-09-02T12:31:58Z</time>
      </trkpt>
      <trkpt lat="43.0577045772626" lon="-4.85667360015666">
        <ele>1262.11201477051</ele>
        <time>2018-09-02T12:31:59Z</time>
      </trkpt>
      <trkpt lat="43.0576023180439" lon="-4.8567178566054">
        <ele>1261.60054016113</ele>
        <time>2018-09-02T12:32:00Z</time>
      </trkpt>
      <trkpt lat="43.0575005198299" lon="-4.8567646276251">
        <ele>1261.11933898926</ele>
        <time>2018-09-02T12:32:01Z</time>
      </trkpt>
      <trkpt lat="43.057404505129" lon="-4.85682682134663">
        <ele>1260.60737609863</ele>
        <time>2018-09-02T12:32:02Z</time>
      </trkpt>
      <trkpt lat="43.0573063530429" lon="-4.8568854108498">
        <ele>1260.2827911377</ele>
        <time>2018-09-02T12:32:03Z</time>
      </trkpt>
      <trkpt lat="43.057218133512" lon="-4.85694056377267">
        <ele>1259.40522766113</ele>
        <time>2018-09-02T12:32:04Z</time>
      </trkpt>
      <trkpt lat="43.0571215739875" lon="-4.85698842443978">
        <ele>1259.33796691895</ele>
        <time>2018-09-02T12:32:05Z</time>
      </trkpt>
      <trkpt lat="43.0570247630058" lon="-4.85703963786816">
        <ele>1259.80928039551</ele>
        <time>2018-09-02T12:32:06Z</time>
      </trkpt>
      <trkpt lat="43.0569237191631" lon="-4.85706528649186">
        <ele>1259.94526672363</ele>
        <time>2018-09-02T12:32:07Z</time>
      </trkpt>
      <trkpt lat="43.0568250641628" lon="-4.85706629232025">
        <ele>1259.64656066895</ele>
        <time>2018-09-02T12:32:08Z</time>
      </trkpt>
      <trkpt lat="43.0567326955898" lon="-4.85706017353093">
        <ele>1259.03645324707</ele>
        <time>2018-09-02T12:32:09Z</time>
      </trkpt>
      <trkpt lat="43.0566401174693" lon="-4.85705405474161">
        <ele>1258.87593078613</ele>
        <time>2018-09-02T12:32:10Z</time>
      </trkpt>
      <trkpt lat="43.0565471621631" lon="-4.8570408113346">
        <ele>1258.54048156738</ele>
        <time>2018-09-02T12:32:11Z</time>
      </trkpt>
      <trkpt lat="43.0564577272563" lon="-4.85702413134729">
        <ele>1258.47456359863</ele>
        <time>2018-09-02T12:32:12Z</time>
      </trkpt>
      <trkpt lat="43.0563719384773" lon="-4.85699043609654">
        <ele>1257.79292297363</ele>
        <time>2018-09-02T12:32:13Z</time>
      </trkpt>
      <trkpt lat="43.0563007342099" lon="-4.85694509000038">
        <ele>1257.69136047363</ele>
        <time>2018-09-02T12:32:14Z</time>
      </trkpt>
      <trkpt lat="43.0562247941671" lon="-4.85689488240039">
        <ele>1258.45906066895</ele>
        <time>2018-09-02T12:32:15Z</time>
      </trkpt>
      <trkpt lat="43.0561514944239" lon="-4.85683863983011">
        <ele>1258.32905578613</ele>
        <time>2018-09-02T12:32:16Z</time>
      </trkpt>
      <trkpt lat="43.056081798899" lon="-4.85678851604914">
        <ele>1259.16816711426</ele>
        <time>2018-09-02T12:32:17Z</time>
      </trkpt>
      <trkpt lat="43.0560159171401" lon="-4.85673193820273">
        <ele>1259.6841583252</ele>
        <time>2018-09-02T12:32:18Z</time>
      </trkpt>
      <trkpt lat="43.0559452996059" lon="-4.85668139532661">
        <ele>1259.9947052002</ele>
        <time>2018-09-02T12:32:19Z</time>
      </trkpt>
      <trkpt lat="43.0558859557314" lon="-4.85661098733997">
        <ele>1259.97163391113</ele>
        <time>2018-09-02T12:32:20Z</time>
      </trkpt>
      <trkpt lat="43.0558283720566" lon="-4.85654158518171">
        <ele>1260.21772766113</ele>
        <time>2018-09-02T12:32:21Z</time>
      </trkpt>
      <trkpt lat="43.0557652982353" lon="-4.85647436231827">
        <ele>1260.1284942627</ele>
        <time>2018-09-02T12:32:22Z</time>
      </trkpt>
      <trkpt lat="43.0557171861111" lon="-4.85639892518973">
        <ele>1258.36531066895</ele>
        <time>2018-09-02T12:32:23Z</time>
      </trkpt>
      <trkpt lat="43.0556683615251" lon="-4.85631200485384">
        <ele>1258.73799133301</ele>
        <time>2018-09-02T12:32:24Z</time>
      </trkpt>
      <trkpt lat="43.0556311039655" lon="-4.85621779226219">
        <ele>1258.06416320801</ele>
        <time>2018-09-02T12:32:25Z</time>
      </trkpt>
      <trkpt lat="43.0555920023872" lon="-4.85613598488723">
        <ele>1255.24153137207</ele>
        <time>2018-09-02T12:32:26Z</time>
      </trkpt>
      <trkpt lat="43.0555430939822" lon="-4.85603640787756">
        <ele>1255.52424621582</ele>
        <time>2018-09-02T12:32:27Z</time>
      </trkpt>
      <trkpt lat="43.0554974964289" lon="-4.85593356192564">
        <ele>1254.79389953613</ele>
        <time>2018-09-02T12:32:28Z</time>
      </trkpt>
      <trkpt lat="43.0554680759488" lon="-4.85581856221413">
        <ele>1254.97895812988</ele>
        <time>2018-09-02T12:32:29Z</time>
      </trkpt>
      <trkpt lat="43.0554304831131" lon="-4.8557075019971">
        <ele>1256.25080871582</ele>
        <time>2018-09-02T12:32:30Z</time>
      </trkpt>
      <trkpt lat="43.055399931076" lon="-4.85559736378943">
        <ele>1256.53852844238</ele>
        <time>2018-09-02T12:32:31Z</time>
      </trkpt>
      <trkpt lat="43.0553571833699" lon="-4.85548689030563">
        <ele>1255.75508117676</ele>
        <time>2018-09-02T12:32:32Z</time>
      </trkpt>
      <trkpt lat="43.0553133460163" lon="-4.8553898278669">
        <ele>1255.88154602051</ele>
        <time>2018-09-02T12:32:33Z</time>
      </trkpt>
      <trkpt lat="43.0552635156019" lon="-4.85528664663886">
        <ele>1255.27754211426</ele>
        <time>2018-09-02T12:32:34Z</time>
      </trkpt>
      <trkpt lat="43.0552170798583" lon="-4.85518078320181">
        <ele>1255.6353302002</ele>
        <time>2018-09-02T12:32:35Z</time>
      </trkpt>
      <trkpt lat="43.0551746674283" lon="-4.85508162528729">
        <ele>1255.28694152832</ele>
        <time>2018-09-02T12:32:36Z</time>
      </trkpt>
      <trkpt lat="43.0551333027361" lon="-4.85498649068629">
        <ele>1255.24726867676</ele>
        <time>2018-09-02T12:32:37Z</time>
      </trkpt>
      <trkpt lat="43.0550885014637" lon="-4.85487777740215">
        <ele>1255.5669708252</ele>
        <time>2018-09-02T12:32:38Z</time>
      </trkpt>
      <trkpt lat="43.0550458375766" lon="-4.85476420261418">
        <ele>1255.90608215332</ele>
        <time>2018-09-02T12:32:39Z</time>
      </trkpt>
      <trkpt lat="43.0549963843478" lon="-4.85464794561719">
        <ele>1256.07344055176</ele>
        <time>2018-09-02T12:32:40Z</time>
      </trkpt>
      <trkpt lat="43.054950493428" lon="-4.85452925786828">
        <ele>1255.68782043457</ele>
        <time>2018-09-02T12:32:41Z</time>
      </trkpt>
      <trkpt lat="43.054905650246" lon="-4.85441241413807">
        <ele>1255.32136535645</ele>
        <time>2018-09-02T12:32:42Z</time>
      </trkpt>
      <trkpt lat="43.0548591306834" lon="-4.85429875553106">
        <ele>1255.32246398926</ele>
        <time>2018-09-02T12:32:43Z</time>
      </trkpt>
      <trkpt lat="43.0548107671021" lon="-4.85419540666496">
        <ele>1254.31318664551</ele>
        <time>2018-09-02T12:32:44Z</time>
      </trkpt>
      <trkpt lat="43.0547730485378" lon="-4.85409054905628">
        <ele>1253.57258605957</ele>
        <time>2018-09-02T12:32:45Z</time>
      </trkpt>
      <trkpt lat="43.0547244334994" lon="-4.85398787074243">
        <ele>1253.5347442627</ele>
        <time>2018-09-02T12:32:46Z</time>
      </trkpt>
      <trkpt lat="43.0546781653939" lon="-4.85386926681255">
        <ele>1253.35762023926</ele>
        <time>2018-09-02T12:32:47Z</time>
      </trkpt>
      <trkpt lat="43.0546364654257" lon="-4.85376206227099">
        <ele>1251.91340637207</ele>
        <time>2018-09-02T12:32:48Z</time>
      </trkpt>
      <trkpt lat="43.0545919994293" lon="-4.85365133733009">
        <ele>1251.34370422363</ele>
        <time>2018-09-02T12:32:49Z</time>
      </trkpt>
      <trkpt lat="43.0545362597732" lon="-4.85354245640789">
        <ele>1251.13154602051</ele>
        <time>2018-09-02T12:32:50Z</time>
      </trkpt>
      <trkpt lat="43.0544769578083" lon="-4.85343667678987">
        <ele>1251.76679992676</ele>
        <time>2018-09-02T12:32:51Z</time>
      </trkpt>
      <trkpt lat="43.0544344196497" lon="-4.85330482945298">
        <ele>1252.60615539551</ele>
        <time>2018-09-02T12:32:52Z</time>
      </trkpt>
      <trkpt lat="43.0543778837128" lon="-4.85318941064631">
        <ele>1251.3179473877</ele>
        <time>2018-09-02T12:32:53Z</time>
      </trkpt>
      <trkpt lat="43.0543249100848" lon="-4.85306032933747">
        <ele>1250.34321594238</ele>
        <time>2018-09-02T12:32:54Z</time>
      </trkpt>
      <trkpt lat="43.0542664882197" lon="-4.8529496882156">
        <ele>1249.00422668457</ele>
        <time>2018-09-02T12:32:55Z</time>
      </trkpt>
      <trkpt lat="43.0542120477586" lon="-4.85282521695351">
        <ele>1249.21113586426</ele>
        <time>2018-09-02T12:32:56Z</time>
      </trkpt>
      <trkpt lat="43.0541585712163" lon="-4.85270116478657">
        <ele>1249.89094543457</ele>
        <time>2018-09-02T12:32:57Z</time>
      </trkpt>
      <trkpt lat="43.054103460203" lon="-4.85258406959926">
        <ele>1249.10066223145</ele>
        <time>2018-09-02T12:32:58Z</time>
      </trkpt>
      <trkpt lat="43.0540508218511" lon="-4.85246253200327">
        <ele>1247.5894317627</ele>
        <time>2018-09-02T12:32:59Z</time>
      </trkpt>
      <trkpt lat="43.0539981415896" lon="-4.8523521423385">
        <ele>1246.99678039551</ele>
        <time>2018-09-02T12:33:00Z</time>
      </trkpt>
      <trkpt lat="43.0539407255529" lon="-4.85224233940696">
        <ele>1247.32563781738</ele>
        <time>2018-09-02T12:33:01Z</time>
      </trkpt>
      <trkpt lat="43.0538755981653" lon="-4.85214611515855">
        <ele>1246.06343078613</ele>
        <time>2018-09-02T12:33:02Z</time>
      </trkpt>
      <trkpt lat="43.0537947127997" lon="-4.85206958838259">
        <ele>1246.48249816895</ele>
        <time>2018-09-02T12:33:03Z</time>
      </trkpt>
      <trkpt lat="43.0537133245199" lon="-4.85200957395588">
        <ele>1247.21467590332</ele>
        <time>2018-09-02T12:33:04Z</time>
      </trkpt>
      <trkpt lat="43.0536323972447" lon="-4.85195559449946">
        <ele>1247.90071105957</ele>
        <time>2018-09-02T12:33:05Z</time>
      </trkpt>
      <trkpt lat="43.0535490811272" lon="-4.85192969441866">
        <ele>1248.30097961426</ele>
        <time>2018-09-02T12:33:06Z</time>
      </trkpt>
      <trkpt lat="43.0534539884357" lon="-4.85191326588844">
        <ele>1248.74531555176</ele>
        <time>2018-09-02T12:33:07Z</time>
      </trkpt>
      <trkpt lat="43.0533643020718" lon="-4.85190966167008">
        <ele>1248.25666809082</ele>
        <time>2018-09-02T12:33:08Z</time>
      </trkpt>
      <trkpt lat="43.0532616656675" lon="-4.85190421343302">
        <ele>1248.41328430176</ele>
        <time>2018-09-02T12:33:09Z</time>
      </trkpt>
      <trkpt lat="43.0531618372007" lon="-4.85191066749846">
        <ele>1247.86665344238</ele>
        <time>2018-09-02T12:33:10Z</time>
      </trkpt>
      <trkpt lat="43.0530646071239" lon="-4.85192734748577">
        <ele>1248.13911437988</ele>
        <time>2018-09-02T12:33:11Z</time>
      </trkpt>
      <trkpt lat="43.0529717356368" lon="-4.85195299610947">
        <ele>1248.13447570801</ele>
        <time>2018-09-02T12:33:12Z</time>
      </trkpt>
      <trkpt lat="43.0528804567112" lon="-4.85197730362867">
        <ele>1248.00105285645</ele>
        <time>2018-09-02T12:33:13Z</time>
      </trkpt>
      <trkpt lat="43.0527893035142" lon="-4.85200303607141">
        <ele>1248.41450500488</ele>
        <time>2018-09-02T12:33:14Z</time>
      </trkpt>
      <trkpt lat="43.0527022574498" lon="-4.85204787925338">
        <ele>1248.6099395752</ele>
        <time>2018-09-02T12:33:15Z</time>
      </trkpt>
      <trkpt lat="43.0526160914852" lon="-4.85209004022633">
        <ele>1248.7447052002</ele>
        <time>2018-09-02T12:33:16Z</time>
      </trkpt>
      <trkpt lat="43.0525294645159" lon="-4.85212331638192">
        <ele>1248.64485168457</ele>
        <time>2018-09-02T12:33:17Z</time>
      </trkpt>
      <trkpt lat="43.0524434242799" lon="-4.85216338187908">
        <ele>1248.76069641113</ele>
        <time>2018-09-02T12:33:18Z</time>
      </trkpt>
      <trkpt lat="43.0523671070515" lon="-4.85219162889277">
        <ele>1248.13850402832</ele>
        <time>2018-09-02T12:33:19Z</time>
      </trkpt>
      <trkpt lat="43.0522858864097" lon="-4.85223529860829">
        <ele>1248.38862609863</ele>
        <time>2018-09-02T12:33:20Z</time>
      </trkpt>
      <trkpt lat="43.0521977087884" lon="-4.85227737576221">
        <ele>1247.73738098145</ele>
        <time>2018-09-02T12:33:21Z</time>
      </trkpt>
      <trkpt lat="43.0521088606148" lon="-4.85232557170545">
        <ele>1247.43843078613</ele>
        <time>2018-09-02T12:33:22Z</time>
      </trkpt>
      <trkpt lat="43.052024873945" lon="-4.85237393528675">
        <ele>1247.3931427002</ele>
        <time>2018-09-02T12:33:23Z</time>
      </trkpt>
      <trkpt lat="43.0519367801426" lon="-4.85242632218157">
        <ele>1247.08235168457</ele>
        <time>2018-09-02T12:33:24Z</time>
      </trkpt>
      <trkpt lat="43.0518516619159" lon="-4.85246655531679">
        <ele>1246.87580871582</ele>
        <time>2018-09-02T12:33:25Z</time>
      </trkpt>
      <trkpt lat="43.0517679267033" lon="-4.85251332633649">
        <ele>1246.24702453613</ele>
        <time>2018-09-02T12:33:26Z</time>
      </trkpt>
      <trkpt lat="43.0516879214375" lon="-4.85257267021095">
        <ele>1246.34980773926</ele>
        <time>2018-09-02T12:33:27Z</time>
      </trkpt>
      <trkpt lat="43.0515919486462" lon="-4.85262111761128">
        <ele>1246.3804473877</ele>
        <time>2018-09-02T12:33:28Z</time>
      </trkpt>
      <trkpt lat="43.0514973169594" lon="-4.85266445205067">
        <ele>1246.58406066895</ele>
        <time>2018-09-02T12:33:29Z</time>
      </trkpt>
      <trkpt lat="43.051409223157" lon="-4.85269697383498">
        <ele>1246.97456359863</ele>
        <time>2018-09-02T12:33:30Z</time>
      </trkpt>
      <trkpt lat="43.051308640319" lon="-4.85270108096753">
        <ele>1247.00703430176</ele>
        <time>2018-09-02T12:33:31Z</time>
      </trkpt>
      <trkpt lat="43.0512092309474" lon="-4.85267266631578">
        <ele>1247.71479797363</ele>
        <time>2018-09-02T12:33:32Z</time>
      </trkpt>
      <trkpt lat="43.051111791323" lon="-4.85263922252213">
        <ele>1246.72016906738</ele>
        <time>2018-09-02T12:33:33Z</time>
      </trkpt>
      <trkpt lat="43.0510067241667" lon="-4.85261474736487">
        <ele>1246.7954864502</ele>
        <time>2018-09-02T12:33:34Z</time>
      </trkpt>
      <trkpt lat="43.0509062251477" lon="-4.85258147120928">
        <ele>1246.81709289551</ele>
        <time>2018-09-02T12:33:35Z</time>
      </trkpt>
      <trkpt lat="43.0508130183844" lon="-4.85255481675719">
        <ele>1246.3833770752</ele>
        <time>2018-09-02T12:33:36Z</time>
      </trkpt>
      <trkpt lat="43.0507131060986" lon="-4.85252480954384">
        <ele>1246.62287902832</ele>
        <time>2018-09-02T12:33:37Z</time>
      </trkpt>
      <trkpt lat="43.0506089190422" lon="-4.85249371268307">
        <ele>1246.17878723145</ele>
        <time>2018-09-02T12:33:38Z</time>
      </trkpt>
      <trkpt lat="43.0505071627377" lon="-4.85246504657422">
        <ele>1246.02900695801</ele>
        <time>2018-09-02T12:33:39Z</time>
      </trkpt>
      <trkpt lat="43.0504064960806" lon="-4.8524351231799">
        <ele>1246.01155090332</ele>
        <time>2018-09-02T12:33:40Z</time>
      </trkpt>
      <trkpt lat="43.0503061646996" lon="-4.85241157003199">
        <ele>1245.72041320801</ele>
        <time>2018-09-02T12:33:41Z</time>
      </trkpt>
      <trkpt lat="43.0502156820549" lon="-4.85237284563934">
        <ele>1246.61714172363</ele>
        <time>2018-09-02T12:33:42Z</time>
      </trkpt>
      <trkpt lat="43.0501205055444" lon="-4.85234132968341">
        <ele>1246.50788879395</ele>
        <time>2018-09-02T12:33:43Z</time>
      </trkpt>
      <trkpt lat="43.0500330822943" lon="-4.85231425613617">
        <ele>1247.11311340332</ele>
        <time>2018-09-02T12:33:44Z</time>
      </trkpt>
      <trkpt lat="43.0499389954312" lon="-4.85227754340028">
        <ele>1247.46321105957</ele>
        <time>2018-09-02T12:33:45Z</time>
      </trkpt>
      <trkpt lat="43.0498456629394" lon="-4.85223881900762">
        <ele>1247.32221984863</ele>
        <time>2018-09-02T12:33:46Z</time>
      </trkpt>
      <trkpt lat="43.0497535458235" lon="-4.85220277682399">
        <ele>1246.36982727051</ele>
        <time>2018-09-02T12:33:47Z</time>
      </trkpt>
      <trkpt lat="43.0496652005641" lon="-4.85215810128008">
        <ele>1246.60285949707</ele>
        <time>2018-09-02T12:33:48Z</time>
      </trkpt>
      <trkpt lat="43.0495782383187" lon="-4.85210051760529">
        <ele>1246.47041320801</ele>
        <time>2018-09-02T12:33:49Z</time>
      </trkpt>
      <trkpt lat="43.0494950060202" lon="-4.85202960670446">
        <ele>1246.17695617676</ele>
        <time>2018-09-02T12:33:50Z</time>
      </trkpt>
      <trkpt lat="43.0494051939277" lon="-4.8519467096821">
        <ele>1245.47663879395</ele>
        <time>2018-09-02T12:33:51Z</time>
      </trkpt>
      <trkpt lat="43.049319991882" lon="-4.8518634773836">
        <ele>1245.8032989502</ele>
        <time>2018-09-02T12:33:52Z</time>
      </trkpt>
      <trkpt lat="43.0492520984663" lon="-4.85176121816491">
        <ele>1245.21260070801</ele>
        <time>2018-09-02T12:33:53Z</time>
      </trkpt>
      <trkpt lat="43.0491675250633" lon="-4.85163766891216">
        <ele>1243.61531066895</ele>
        <time>2018-09-02T12:33:54Z</time>
      </trkpt>
      <trkpt lat="43.0491028167708" lon="-4.85152216628646">
        <ele>1243.2388458252</ele>
        <time>2018-09-02T12:33:55Z</time>
      </trkpt>
      <trkpt lat="43.0490457360102" lon="-4.85141370445942">
        <ele>1241.22456359863</ele>
        <time>2018-09-02T12:33:56Z</time>
      </trkpt>
      <trkpt lat="43.0489869369595" lon="-4.85129585490083">
        <ele>1240.59834289551</ele>
        <time>2018-09-02T12:33:57Z</time>
      </trkpt>
      <trkpt lat="43.0489280959992" lon="-4.8511678632394">
        <ele>1240.17488098145</ele>
        <time>2018-09-02T12:33:58Z</time>
      </trkpt>
      <trkpt lat="43.0488551315321" lon="-4.85104959458564">
        <ele>1238.84651184082</ele>
        <time>2018-09-02T12:33:59Z</time>
      </trkpt>
      <trkpt lat="43.0487675825535" lon="-4.85093987547313">
        <ele>1238.30012512207</ele>
        <time>2018-09-02T12:34:00Z</time>
      </trkpt>
      <trkpt lat="43.0486655328824" lon="-4.85085697845076">
        <ele>1237.83186340332</ele>
        <time>2018-09-02T12:34:01Z</time>
      </trkpt>
      <trkpt lat="43.0485532572894" lon="-4.85080584884142">
        <ele>1237.08235168457</ele>
        <time>2018-09-02T12:34:02Z</time>
      </trkpt>
      <trkpt lat="43.0484455498336" lon="-4.85076410696362">
        <ele>1236.68696594238</ele>
        <time>2018-09-02T12:34:03Z</time>
      </trkpt>
      <trkpt lat="43.0483353278069" lon="-4.85072714277064">
        <ele>1236.15132141113</ele>
        <time>2018-09-02T12:34:04Z</time>
      </trkpt>
      <trkpt lat="43.0482200766383" lon="-4.85071264207815">
        <ele>1236.61030578613</ele>
        <time>2018-09-02T12:34:05Z</time>
      </trkpt>
      <trkpt lat="43.0481054541124" lon="-4.85070342198466">
        <ele>1236.47944641113</ele>
        <time>2018-09-02T12:34:06Z</time>
      </trkpt>
      <trkpt lat="43.0479953578143" lon="-4.85071188770686">
        <ele>1236.16828918457</ele>
        <time>2018-09-02T12:34:07Z</time>
      </trkpt>
      <trkpt lat="43.047879561822" lon="-4.85071926378165">
        <ele>1236.53559875488</ele>
        <time>2018-09-02T12:34:08Z</time>
      </trkpt>
      <trkpt lat="43.0477759195893" lon="-4.85071767122005">
        <ele>1236.72456359863</ele>
        <time>2018-09-02T12:34:09Z</time>
      </trkpt>
      <trkpt lat="43.0476711038901" lon="-4.85072596930419">
        <ele>1237.00910949707</ele>
        <time>2018-09-02T12:34:10Z</time>
      </trkpt>
      <trkpt lat="43.047566455829" lon="-4.85071725212489">
        <ele>1237.84089660645</ele>
        <time>2018-09-02T12:34:11Z</time>
      </trkpt>
      <trkpt lat="43.0474675912811" lon="-4.85069646500503">
        <ele>1237.98603820801</ele>
        <time>2018-09-02T12:34:12Z</time>
      </trkpt>
      <trkpt lat="43.0473717023088" lon="-4.8506443295673">
        <ele>1236.74531555176</ele>
        <time>2018-09-02T12:34:13Z</time>
      </trkpt>
      <trkpt lat="43.0472726701228" lon="-4.85058666207348">
        <ele>1236.41792297363</ele>
        <time>2018-09-02T12:34:14Z</time>
      </trkpt>
      <trkpt lat="43.0471840734063" lon="-4.85052773729418">
        <ele>1235.44502258301</ele>
        <time>2018-09-02T12:34:15Z</time>
      </trkpt>
      <trkpt lat="43.0470945546804" lon="-4.85046638176297">
        <ele>1235.22175598145</ele>
        <time>2018-09-02T12:34:16Z</time>
      </trkpt>
      <trkpt lat="43.0470079696207" lon="-4.85040661879336">
        <ele>1234.10176086426</ele>
        <time>2018-09-02T12:34:17Z</time>
      </trkpt>
      <trkpt lat="43.0469274195312" lon="-4.85034358688151">
        <ele>1235.53974914551</ele>
        <time>2018-09-02T12:34:18Z</time>
      </trkpt>
      <trkpt lat="43.0468438100471" lon="-4.85026513226782">
        <ele>1236.04487609863</ele>
        <time>2018-09-02T12:34:19Z</time>
      </trkpt>
      <trkpt lat="43.046760368201" lon="-4.85018106177901">
        <ele>1235.59785461426</ele>
        <time>2018-09-02T12:34:20Z</time>
      </trkpt>
      <trkpt lat="43.0466802791162" lon="-4.85009020194863">
        <ele>1235.98115539551</ele>
        <time>2018-09-02T12:34:21Z</time>
      </trkpt>
      <trkpt lat="43.0465959990798" lon="-4.85000453889822">
        <ele>1234.58906555176</ele>
        <time>2018-09-02T12:34:22Z</time>
      </trkpt>
      <trkpt lat="43.0465131439669" lon="-4.84990362078403">
        <ele>1232.53462219238</ele>
        <time>2018-09-02T12:34:23Z</time>
      </trkpt>
      <trkpt lat="43.0464522494404" lon="-4.84978971071993">
        <ele>1232.02510070801</ele>
        <time>2018-09-02T12:34:24Z</time>
      </trkpt>
      <trkpt lat="43.046438084024" lon="-4.84963783063446">
        <ele>1232.19709777832</ele>
        <time>2018-09-02T12:34:25Z</time>
      </trkpt>
      <trkpt lat="43.0464212783082" lon="-4.84950170852696">
        <ele>1233.06379699707</ele>
        <time>2018-09-02T12:34:26Z</time>
      </trkpt>
      <trkpt lat="43.0463976832508" lon="-4.84936927445685">
        <ele>1232.96296691895</ele>
        <time>2018-09-02T12:34:27Z</time>
      </trkpt>
      <trkpt lat="43.0463641556381" lon="-4.8492388520435">
        <ele>1232.88496398926</ele>
        <time>2018-09-02T12:34:28Z</time>
      </trkpt>
      <trkpt lat="43.0463274429022" lon="-4.84911790118073">
        <ele>1232.27070617676</ele>
        <time>2018-09-02T12:34:29Z</time>
      </trkpt>
      <trkpt lat="43.0462867068528" lon="-4.84900080599342">
        <ele>1231.8804473877</ele>
        <time>2018-09-02T12:34:30Z</time>
      </trkpt>
      <trkpt lat="43.046238469" lon="-4.84889016487156">
        <ele>1231.39045715332</ele>
        <time>2018-09-02T12:34:31Z</time>
      </trkpt>
      <trkpt lat="43.0461592181055" lon="-4.84881581739043">
        <ele>1231.16499328613</ele>
        <time>2018-09-02T12:34:32Z</time>
      </trkpt>
      <trkpt lat="43.0460700765653" lon="-4.84880098142181">
        <ele>1230.46577453613</ele>
        <time>2018-09-02T12:34:33Z</time>
      </trkpt>
      <trkpt lat="43.0459858803479" lon="-4.8488257918552">
        <ele>1229.74006652832</ele>
        <time>2018-09-02T12:34:34Z</time>
      </trkpt>
      <trkpt lat="43.0459020194067" lon="-4.84884775244151">
        <ele>1230.26509094238</ele>
        <time>2018-09-02T12:34:35Z</time>
      </trkpt>
      <trkpt lat="43.0458220560505" lon="-4.8488640971527">
        <ele>1230.30451965332</ele>
        <time>2018-09-02T12:34:36Z</time>
      </trkpt>
      <trkpt lat="43.0457389494805" lon="-4.8488606605724">
        <ele>1230.23664855957</ele>
        <time>2018-09-02T12:34:37Z</time>
      </trkpt>
      <trkpt lat="43.0456561362772" lon="-4.84883098863517">
        <ele>1230.59541320801</ele>
        <time>2018-09-02T12:34:38Z</time>
      </trkpt>
      <trkpt lat="43.0455822078912" lon="-4.84877935611163">
        <ele>1230.83027648926</ele>
        <time>2018-09-02T12:34:39Z</time>
      </trkpt>
      <trkpt lat="43.0455299886344" lon="-4.8487013205931">
        <ele>1230.03889465332</ele>
        <time>2018-09-02T12:34:40Z</time>
      </trkpt>
      <trkpt lat="43.0454592872812" lon="-4.84863962978576">
        <ele>1229.48127746582</ele>
        <time>2018-09-02T12:34:41Z</time>
      </trkpt>
      <trkpt lat="43.0454017455159" lon="-4.84857676551198">
        <ele>1228.48579406738</ele>
        <time>2018-09-02T12:34:42Z</time>
      </trkpt>
      <trkpt lat="43.0453296611486" lon="-4.84852354042684">
        <ele>1227.24909973145</ele>
        <time>2018-09-02T12:34:43Z</time>
      </trkpt>
      <trkpt lat="43.0452450039266" lon="-4.8484893422619">
        <ele>1226.18562316895</ele>
        <time>2018-09-02T12:34:44Z</time>
      </trkpt>
      <trkpt lat="43.0451551080151" lon="-4.84849470667993">
        <ele>1226.8316192627</ele>
        <time>2018-09-02T12:34:45Z</time>
      </trkpt>
      <trkpt lat="43.0450659664749" lon="-4.84851968475138">
        <ele>1226.8745880127</ele>
        <time>2018-09-02T12:34:46Z</time>
      </trkpt>
      <trkpt lat="43.0449866317613" lon="-4.84856578521882">
        <ele>1227.54402160645</ele>
        <time>2018-09-02T12:34:47Z</time>
      </trkpt>
      <trkpt lat="43.044906416948" lon="-4.84862672165488">
        <ele>1226.55293273926</ele>
        <time>2018-09-02T12:34:48Z</time>
      </trkpt>
      <trkpt lat="43.0448396969987" lon="-4.84871380962883">
        <ele>1225.9331817627</ele>
        <time>2018-09-02T12:34:49Z</time>
      </trkpt>
      <trkpt lat="43.044774318154" lon="-4.84881422482882">
        <ele>1226.54170227051</ele>
        <time>2018-09-02T12:34:50Z</time>
      </trkpt>
      <trkpt lat="43.0447153095557" lon="-4.84891053289627">
        <ele>1226.30903625488</ele>
        <time>2018-09-02T12:34:51Z</time>
      </trkpt>
      <trkpt lat="43.0446578096999" lon="-4.84900583513533">
        <ele>1226.81880187988</ele>
        <time>2018-09-02T12:34:52Z</time>
      </trkpt>
      <trkpt lat="43.0445975438161" lon="-4.84910960309659">
        <ele>1226.72444152832</ele>
        <time>2018-09-02T12:34:53Z</time>
      </trkpt>
      <trkpt lat="43.0445310334145" lon="-4.84920624644016">
        <ele>1226.13667297363</ele>
        <time>2018-09-02T12:34:54Z</time>
      </trkpt>
      <trkpt lat="43.0444770120485" lon="-4.84930247068857">
        <ele>1225.33100891113</ele>
        <time>2018-09-02T12:34:55Z</time>
      </trkpt>
      <trkpt lat="43.0444136867701" lon="-4.84939970076536">
        <ele>1225.10957336426</ele>
        <time>2018-09-02T12:34:56Z</time>
      </trkpt>
      <trkpt lat="43.0443492718442" lon="-4.84948955476736">
        <ele>1225.0337677002</ele>
        <time>2018-09-02T12:34:57Z</time>
      </trkpt>
      <trkpt lat="43.0442809174238" lon="-4.84958158806418">
        <ele>1225.77217102051</ele>
        <time>2018-09-02T12:34:58Z</time>
      </trkpt>
      <trkpt lat="43.0442155385791" lon="-4.84966188669656">
        <ele>1225.6304473877</ele>
        <time>2018-09-02T12:34:59Z</time>
      </trkpt>
      <trkpt lat="43.0441437894879" lon="-4.84973187558805">
        <ele>1225.38911437988</ele>
        <time>2018-09-02T12:35:00Z</time>
      </trkpt>
      <trkpt lat="43.044064748141" lon="-4.84979012981509">
        <ele>1225.15534973145</ele>
        <time>2018-09-02T12:35:01Z</time>
      </trkpt>
      <trkpt lat="43.0439838208659" lon="-4.84984000213896">
        <ele>1225.25300598145</ele>
        <time>2018-09-02T12:35:02Z</time>
      </trkpt>
      <trkpt lat="43.0439093476562" lon="-4.8498895391867">
        <ele>1225.01496887207</ele>
        <time>2018-09-02T12:35:03Z</time>
      </trkpt>
      <trkpt lat="43.0438391911267" lon="-4.84995047562276">
        <ele>1224.94734191895</ele>
        <time>2018-09-02T12:35:04Z</time>
      </trkpt>
      <trkpt lat="43.0437720101728" lon="-4.85001610592459">
        <ele>1224.75581359863</ele>
        <time>2018-09-02T12:35:05Z</time>
      </trkpt>
      <trkpt lat="43.0437033204763" lon="-4.85008726828252">
        <ele>1224.86750793457</ele>
        <time>2018-09-02T12:35:06Z</time>
      </trkpt>
      <trkpt lat="43.043632702942" lon="-4.85015918501173">
        <ele>1223.53559875488</ele>
        <time>2018-09-02T12:35:07Z</time>
      </trkpt>
      <trkpt lat="43.0435683718352" lon="-4.85023478977834">
        <ele>1222.81489562988</ele>
        <time>2018-09-02T12:35:08Z</time>
      </trkpt>
      <trkpt lat="43.0434967484726" lon="-4.85031014308785">
        <ele>1222.16413879395</ele>
        <time>2018-09-02T12:35:09Z</time>
      </trkpt>
      <trkpt lat="43.0434281845047" lon="-4.85038993880604">
        <ele>1222.10261535645</ele>
        <time>2018-09-02T12:35:10Z</time>
      </trkpt>
      <trkpt lat="43.0433607101841" lon="-4.85046814196263">
        <ele>1221.44221496582</ele>
        <time>2018-09-02T12:35:11Z</time>
      </trkpt>
      <trkpt lat="43.0432884581788" lon="-4.85054642893826">
        <ele>1221.45747375488</ele>
        <time>2018-09-02T12:35:12Z</time>
      </trkpt>
      <trkpt lat="43.0432153260736" lon="-4.85062262043809">
        <ele>1221.53816223145</ele>
        <time>2018-09-02T12:35:13Z</time>
      </trkpt>
      <trkpt lat="43.0431497795908" lon="-4.85070358962272">
        <ele>1221.60932922363</ele>
        <time>2018-09-02T12:35:14Z</time>
      </trkpt>
      <trkpt lat="43.0430845264746" lon="-4.85077718273257">
        <ele>1221.96418762207</ele>
        <time>2018-09-02T12:35:15Z</time>
      </trkpt>
      <trkpt lat="43.0430192314489" lon="-4.85084574670051">
        <ele>1222.23506164551</ele>
        <time>2018-09-02T12:35:16Z</time>
      </trkpt>
      <trkpt lat="43.0429559061705" lon="-4.85091540031587">
        <ele>1222.21968078613</ele>
        <time>2018-09-02T12:35:17Z</time>
      </trkpt>
      <trkpt lat="43.042891281697" lon="-4.85098320991253">
        <ele>1222.05854797363</ele>
        <time>2018-09-02T12:35:18Z</time>
      </trkpt>
      <trkpt lat="43.0428355420409" lon="-4.85104649328147">
        <ele>1221.83967590332</ele>
        <time>2018-09-02T12:35:19Z</time>
      </trkpt>
      <trkpt lat="43.0427778745471" lon="-4.85111095011686">
        <ele>1222.23677062988</ele>
        <time>2018-09-02T12:35:20Z</time>
      </trkpt>
      <trkpt lat="43.0427193269534" lon="-4.85116912052487">
        <ele>1221.93721008301</ele>
        <time>2018-09-02T12:35:21Z</time>
      </trkpt>
      <trkpt lat="43.0426769145234" lon="-4.85123290680801">
        <ele>1221.15242004395</ele>
        <time>2018-09-02T12:35:22Z</time>
      </trkpt>
      <trkpt lat="43.0426312331511" lon="-4.85130130313789">
        <ele>1221.22944641113</ele>
        <time>2018-09-02T12:35:23Z</time>
      </trkpt>
      <trkpt lat="43.0425889045401" lon="-4.85136148520266">
        <ele>1221.55549621582</ele>
        <time>2018-09-02T12:35:24Z</time>
      </trkpt>
      <trkpt lat="43.0425458634673" lon="-4.85141990706776">
        <ele>1222.3921661377</ele>
        <time>2018-09-02T12:35:25Z</time>
      </trkpt>
      <trkpt lat="43.0425034091277" lon="-4.85146391205941">
        <ele>1222.39888000488</ele>
        <time>2018-09-02T12:35:26Z</time>
      </trkpt>
      <trkpt lat="43.0424569733842" lon="-4.85150079243337">
        <ele>1222.31050109863</ele>
        <time>2018-09-02T12:35:27Z</time>
      </trkpt>
      <trkpt lat="43.0424060114129" lon="-4.85154085793053">
        <ele>1222.18794250488</ele>
        <time>2018-09-02T12:35:28Z</time>
      </trkpt>
      <trkpt lat="43.0423594499408" lon="-4.85157304443871">
        <ele>1221.81636047363</ele>
        <time>2018-09-02T12:35:29Z</time>
      </trkpt>
      <trkpt lat="43.0423103319882" lon="-4.85160958953654">
        <ele>1221.76264953613</ele>
        <time>2018-09-02T12:35:30Z</time>
      </trkpt>
      <trkpt lat="43.0422487249999" lon="-4.85162635334288">
        <ele>1221.23652648926</ele>
        <time>2018-09-02T12:35:31Z</time>
      </trkpt>
      <trkpt lat="43.0421930691628" lon="-4.85164705664371">
        <ele>1221.29072570801</ele>
        <time>2018-09-02T12:35:32Z</time>
      </trkpt>
      <trkpt lat="43.0421364913164" lon="-4.85164898448144">
        <ele>1222.41206359863</ele>
        <time>2018-09-02T12:35:33Z</time>
      </trkpt>
      <trkpt lat="43.0420863675354" lon="-4.85164957121466">
        <ele>1223.22920227051</ele>
        <time>2018-09-02T12:35:34Z</time>
      </trkpt>
      <trkpt lat="43.0420356989308" lon="-4.85162903555189">
        <ele>1222.47004699707</ele>
        <time>2018-09-02T12:35:35Z</time>
      </trkpt>
      <trkpt lat="43.0419763969658" lon="-4.85161880963002">
        <ele>1221.74299621582</ele>
        <time>2018-09-02T12:35:36Z</time>
      </trkpt>
      <trkpt lat="43.0419559870316" lon="-4.85153214075123">
        <ele>1223.33491516113</ele>
        <time>2018-09-02T12:35:37Z</time>
      </trkpt>
      <trkpt lat="43.0419313442363" lon="-4.85147505999063">
        <ele>1224.0708770752</ele>
        <time>2018-09-02T12:35:38Z</time>
      </trkpt>
      <trkpt lat="43.0418956792383" lon="-4.85141529702102">
        <ele>1223.80061340332</ele>
        <time>2018-09-02T12:35:39Z</time>
      </trkpt>
      <trkpt lat="43.0418733833759" lon="-4.85135553405141">
        <ele>1223.21089172363</ele>
        <time>2018-09-02T12:35:40Z</time>
      </trkpt>
      <trkpt lat="43.0418227566807" lon="-4.8513124510691">
        <ele>1223.33442687988</ele>
        <time>2018-09-02T12:35:41Z</time>
      </trkpt>
      <trkpt lat="43.0417440925194" lon="-4.85129090957795">
        <ele>1221.85139465332</ele>
        <time>2018-09-02T12:35:43Z</time>
      </trkpt>
      <trkpt lat="43.0416695774002" lon="-4.85130666755592">
        <ele>1224.28205871582</ele>
        <time>2018-09-02T12:35:45Z</time>
      </trkpt>
      <trkpt lat="43.0416001333325" lon="-4.85133399256026">
        <ele>1226.64778137207</ele>
        <time>2018-09-02T12:35:47Z</time>
      </trkpt>
      <trkpt lat="43.0415550806029" lon="-4.85132334754323">
        <ele>1226.61152648926</ele>
        <time>2018-09-02T12:35:48Z</time>
      </trkpt>
      <trkpt lat="43.0415062560169" lon="-4.85129795037662">
        <ele>1227.43391418457</ele>
        <time>2018-09-02T12:35:49Z</time>
      </trkpt>
      <trkpt lat="43.0414581858022" lon="-4.85128621571218">
        <ele>1227.44551086426</ele>
        <time>2018-09-02T12:35:50Z</time>
      </trkpt>
      <trkpt lat="43.0413814913882" lon="-4.85126576386844">
        <ele>1228.8052520752</ele>
        <time>2018-09-02T12:35:52Z</time>
      </trkpt>
      <trkpt lat="43.0413141008867" lon="-4.85122594982837">
        <ele>1229.45783996582</ele>
        <time>2018-09-02T12:35:54Z</time>
      </trkpt>
      <trkpt lat="43.0412649829341" lon="-4.85120876692687">
        <ele>1229.77119445801</ele>
        <time>2018-09-02T12:35:55Z</time>
      </trkpt>
      <trkpt lat="43.0412046751408" lon="-4.85118169337963">
        <ele>1230.5298614502</ele>
        <time>2018-09-02T12:35:56Z</time>
      </trkpt>
      <trkpt lat="43.0411527911602" lon="-4.85116023570751">
        <ele>1230.53364562988</ele>
        <time>2018-09-02T12:35:57Z</time>
      </trkpt>
      <trkpt lat="43.0410986440657" lon="-4.85114573501502">
        <ele>1230.61665344238</ele>
        <time>2018-09-02T12:35:58Z</time>
      </trkpt>
      <trkpt lat="43.0410455027996" lon="-4.85113559291219">
        <ele>1231.01985168457</ele>
        <time>2018-09-02T12:35:59Z</time>
      </trkpt>
      <trkpt lat="43.0409930320857" lon="-4.85111002810751">
        <ele>1231.32136535645</ele>
        <time>2018-09-02T12:36:00Z</time>
      </trkpt>
      <trkpt lat="43.0409433273999" lon="-4.85107423738097">
        <ele>1230.01960754395</ele>
        <time>2018-09-02T12:36:01Z</time>
      </trkpt>
      <trkpt lat="43.0409026751696" lon="-4.85104238614892">
        <ele>1229.40644836426</ele>
        <time>2018-09-02T12:36:02Z</time>
      </trkpt>
      <trkpt lat="43.0408531800313" lon="-4.85103492625509">
        <ele>1229.7827911377</ele>
        <time>2018-09-02T12:36:03Z</time>
      </trkpt>
      <trkpt lat="43.0407794192834" lon="-4.85097658820902">
        <ele>1229.46308898926</ele>
        <time>2018-09-02T12:36:05Z</time>
      </trkpt>
      <trkpt lat="43.0407382222293" lon="-4.85095077194725">
        <ele>1230.49555969238</ele>
        <time>2018-09-02T12:36:06Z</time>
      </trkpt>
      <trkpt lat="43.0406943848757" lon="-4.85092378221904">
        <ele>1230.24751281738</ele>
        <time>2018-09-02T12:36:07Z</time>
      </trkpt>
      <trkpt lat="43.0406479072227" lon="-4.85089913942372">
        <ele>1229.98860168457</ele>
        <time>2018-09-02T12:36:08Z</time>
      </trkpt>
      <trkpt lat="43.0406065425305" lon="-4.85086217523073">
        <ele>1229.0366973877</ele>
        <time>2018-09-02T12:36:09Z</time>
      </trkpt>
      <trkpt lat="43.0405675247712" lon="-4.85082143918132">
        <ele>1227.87702941895</ele>
        <time>2018-09-02T12:36:10Z</time>
      </trkpt>
      <trkpt lat="43.0404940992995" lon="-4.85077123158132">
        <ele>1226.46626281738</ele>
        <time>2018-09-02T12:36:12Z</time>
      </trkpt>
      <trkpt lat="43.0404177401616" lon="-4.8507045954511">
        <ele>1226.73091125488</ele>
        <time>2018-09-02T12:36:14Z</time>
      </trkpt>
      <trkpt lat="43.0403728969796" lon="-4.85067173839067">
        <ele>1226.24348449707</ele>
        <time>2018-09-02T12:36:15Z</time>
      </trkpt>
      <trkpt lat="43.0403280537976" lon="-4.85065497458433">
        <ele>1226.1343536377</ele>
        <time>2018-09-02T12:36:16Z</time>
      </trkpt>
      <trkpt lat="43.0402505211933" lon="-4.85059219412957">
        <ele>1227.0064239502</ele>
        <time>2018-09-02T12:36:18Z</time>
      </trkpt>
      <trkpt lat="43.0402086954965" lon="-4.85055690631722">
        <ele>1227.55281066895</ele>
        <time>2018-09-02T12:36:19Z</time>
      </trkpt>
      <trkpt lat="43.0401701806514" lon="-4.85052321106647">
        <ele>1227.66120910645</ele>
        <time>2018-09-02T12:36:20Z</time>
      </trkpt>
      <trkpt lat="43.0401297379686" lon="-4.85048876144444">
        <ele>1227.50788879395</ele>
        <time>2018-09-02T12:36:21Z</time>
      </trkpt>
      <trkpt lat="43.0400928995042" lon="-4.85045338981305">
        <ele>1227.98408508301</ele>
        <time>2018-09-02T12:36:22Z</time>
      </trkpt>
      <trkpt lat="43.040058114606" lon="-4.85040728934561">
        <ele>1227.03950500488</ele>
        <time>2018-09-02T12:36:23Z</time>
      </trkpt>
      <trkpt lat="43.0400048057018" lon="-4.85031240620171">
        <ele>1226.78559875488</ele>
        <time>2018-09-02T12:36:25Z</time>
      </trkpt>
      <trkpt lat="43.0399394268571" lon="-4.85023789108251">
        <ele>1225.49263000488</ele>
        <time>2018-09-02T12:36:27Z</time>
      </trkpt>
      <trkpt lat="43.039865247014" lon="-4.85016572289621">
        <ele>1225.95381164551</ele>
        <time>2018-09-02T12:36:29Z</time>
      </trkpt>
      <trkpt lat="43.0398092139913" lon="-4.85010378063177">
        <ele>1225.72151184082</ele>
        <time>2018-09-02T12:36:31Z</time>
      </trkpt>
      <trkpt lat="43.03976864558" lon="-4.85006019473528">
        <ele>1225.21919250488</ele>
        <time>2018-09-02T12:36:33Z</time>
      </trkpt>
      <trkpt lat="43.0397082958771" lon="-4.85004108399604">
        <ele>1224.84126281738</ele>
        <time>2018-09-02T12:36:35Z</time>
      </trkpt>
      <trkpt lat="43.0396308470918" lon="-4.85004913062309">
        <ele>1224.06526184082</ele>
        <time>2018-09-02T12:36:37Z</time>
      </trkpt>
      <trkpt lat="43.0395787954731" lon="-4.85004737042342">
        <ele>1223.32637023926</ele>
        <time>2018-09-02T12:36:38Z</time>
      </trkpt>
      <trkpt lat="43.0395291326968" lon="-4.85003697686349">
        <ele>1223.2906036377</ele>
        <time>2018-09-02T12:36:39Z</time>
      </trkpt>
      <trkpt lat="43.039477961178" lon="-4.85002784058903">
        <ele>1223.35786437988</ele>
        <time>2018-09-02T12:36:40Z</time>
      </trkpt>
      <trkpt lat="43.0394218862458" lon="-4.85001652501975">
        <ele>1223.06159973145</ele>
        <time>2018-09-02T12:36:41Z</time>
      </trkpt>
      <trkpt lat="43.0393715948267" lon="-4.85001040623044">
        <ele>1221.73847961426</ele>
        <time>2018-09-02T12:36:42Z</time>
      </trkpt>
      <trkpt lat="43.0393133825092" lon="-4.85000579618369">
        <ele>1221.58625793457</ele>
        <time>2018-09-02T12:36:43Z</time>
      </trkpt>
      <trkpt lat="43.0392581876768" lon="-4.85001392662977">
        <ele>1220.89167785645</ele>
        <time>2018-09-02T12:36:44Z</time>
      </trkpt>
      <trkpt lat="43.0392025737493" lon="-4.8500243201897">
        <ele>1220.74299621582</ele>
        <time>2018-09-02T12:36:45Z</time>
      </trkpt>
      <trkpt lat="43.0391496839403" lon="-4.85004435293828">
        <ele>1219.97505187988</ele>
        <time>2018-09-02T12:36:46Z</time>
      </trkpt>
      <trkpt lat="43.0390935670985" lon="-4.85006975010489">
        <ele>1219.36054992676</ele>
        <time>2018-09-02T12:36:47Z</time>
      </trkpt>
      <trkpt lat="43.0390420603035" lon="-4.85011476092492">
        <ele>1219.65766906738</ele>
        <time>2018-09-02T12:36:48Z</time>
      </trkpt>
      <trkpt lat="43.0390037130965" lon="-4.85017603263711">
        <ele>1219.04292297363</ele>
        <time>2018-09-02T12:36:49Z</time>
      </trkpt>
      <trkpt lat="43.0389653658895" lon="-4.85023269430255">
        <ele>1218.93452453613</ele>
        <time>2018-09-02T12:36:50Z</time>
      </trkpt>
      <trkpt lat="43.0389352748571" lon="-4.85030645505046">
        <ele>1217.52473449707</ele>
        <time>2018-09-02T12:36:51Z</time>
      </trkpt>
      <trkpt lat="43.0389062315626" lon="-4.85038038343643">
        <ele>1217.99201965332</ele>
        <time>2018-09-02T12:36:52Z</time>
      </trkpt>
      <trkpt lat="43.0388759728922" lon="-4.85045146197532">
        <ele>1218.08882141113</ele>
        <time>2018-09-02T12:36:53Z</time>
      </trkpt>
      <trkpt lat="43.0388696864648" lon="-4.8505476024047">
        <ele>1217.2622833252</ele>
        <time>2018-09-02T12:36:54Z</time>
      </trkpt>
      <trkpt lat="43.0388667947082" lon="-4.85063645057832">
        <ele>1217.68562316895</ele>
        <time>2018-09-02T12:36:55Z</time>
      </trkpt>
      <trkpt lat="43.0388670042558" lon="-4.8507273104087">
        <ele>1217.90913391113</ele>
        <time>2018-09-02T12:36:56Z</time>
      </trkpt>
      <trkpt lat="43.0388654536037" lon="-4.85081590712522">
        <ele>1217.97395324707</ele>
        <time>2018-09-02T12:36:57Z</time>
      </trkpt>
      <trkpt lat="43.0388681358127" lon="-4.85090978444074">
        <ele>1218.51826477051</ele>
        <time>2018-09-02T12:36:58Z</time>
      </trkpt>
      <trkpt lat="43.0388628133042" lon="-4.85100600868915">
        <ele>1218.15827941895</ele>
        <time>2018-09-02T12:36:59Z</time>
      </trkpt>
      <trkpt lat="43.0388618912949" lon="-4.85110055655693">
        <ele>1218.29792785645</ele>
        <time>2018-09-02T12:37:00Z</time>
      </trkpt>
      <trkpt lat="43.0388594605429" lon="-4.85119661316727">
        <ele>1217.54512023926</ele>
        <time>2018-09-02T12:37:01Z</time>
      </trkpt>
      <trkpt lat="43.038860843557" lon="-4.85129292123472">
        <ele>1217.9634552002</ele>
        <time>2018-09-02T12:37:02Z</time>
      </trkpt>
      <trkpt lat="43.038858412805" lon="-4.85137959011351">
        <ele>1217.6431427002</ele>
        <time>2018-09-02T12:37:03Z</time>
      </trkpt>
      <trkpt lat="43.038855562958" lon="-4.85146860592519">
        <ele>1217.6900177002</ele>
        <time>2018-09-02T12:37:04Z</time>
      </trkpt>
      <trkpt lat="43.0388538865773" lon="-4.85155468807076">
        <ele>1217.75801086426</ele>
        <time>2018-09-02T12:37:05Z</time>
      </trkpt>
      <trkpt lat="43.0388465943216" lon="-4.8516422789589">
        <ele>1217.64753723145</ele>
        <time>2018-09-02T12:37:06Z</time>
      </trkpt>
      <trkpt lat="43.0388421938224" lon="-4.85172727145706">
        <ele>1217.30171203613</ele>
        <time>2018-09-02T12:37:07Z</time>
      </trkpt>
      <trkpt lat="43.0388245918258" lon="-4.85181218013619">
        <ele>1216.92756652832</ele>
        <time>2018-09-02T12:37:08Z</time>
      </trkpt>
      <trkpt lat="43.038800158578" lon="-4.85189055093085">
        <ele>1216.82527160645</ele>
        <time>2018-09-02T12:37:09Z</time>
      </trkpt>
      <trkpt lat="43.0387551896675" lon="-4.8519604560033">
        <ele>1216.83906555176</ele>
        <time>2018-09-02T12:37:10Z</time>
      </trkpt>
      <trkpt lat="43.0387033895059" lon="-4.85200563446139">
        <ele>1216.49946594238</ele>
        <time>2018-09-02T12:37:11Z</time>
      </trkpt>
      <trkpt lat="43.0386378430231" lon="-4.8520431853876">
        <ele>1217.09199523926</ele>
        <time>2018-09-02T12:37:12Z</time>
      </trkpt>
      <trkpt lat="43.0385725060879" lon="-4.85207268968676">
        <ele>1217.38423156738</ele>
        <time>2018-09-02T12:37:13Z</time>
      </trkpt>
      <trkpt lat="43.0385198258264" lon="-4.85209825449144">
        <ele>1216.4234161377</ele>
        <time>2018-09-02T12:37:14Z</time>
      </trkpt>
      <trkpt lat="43.0384613201423" lon="-4.85212348401998">
        <ele>1216.46467590332</ele>
        <time>2018-09-02T12:37:15Z</time>
      </trkpt>
      <trkpt lat="43.0384002160682" lon="-4.85215248540496">
        <ele>1216.79292297363</ele>
        <time>2018-09-02T12:37:16Z</time>
      </trkpt>
      <trkpt lat="43.038338944356" lon="-4.8521917127118">
        <ele>1216.58491516113</ele>
        <time>2018-09-02T12:37:17Z</time>
      </trkpt>
      <trkpt lat="43.038288820575" lon="-4.85223630443667">
        <ele>1217.04963684082</ele>
        <time>2018-09-02T12:37:18Z</time>
      </trkpt>
      <trkpt lat="43.038247874978" lon="-4.85229615122532">
        <ele>1217.26264953613</ele>
        <time>2018-09-02T12:37:19Z</time>
      </trkpt>
      <trkpt lat="43.0382326199143" lon="-4.85237770714318">
        <ele>1216.65119934082</ele>
        <time>2018-09-02T12:37:20Z</time>
      </trkpt>
      <trkpt lat="43.0382244475587" lon="-4.85246278346037">
        <ele>1217.24201965332</ele>
        <time>2018-09-02T12:37:21Z</time>
      </trkpt>
      <trkpt lat="43.0382330809189" lon="-4.85255355947172">
        <ele>1217.44111633301</ele>
        <time>2018-09-02T12:37:22Z</time>
      </trkpt>
      <trkpt lat="43.0382476654305" lon="-4.85263486393248">
        <ele>1216.41535949707</ele>
        <time>2018-09-02T12:37:23Z</time>
      </trkpt>
      <trkpt lat="43.0382651416986" lon="-4.85270258971011">
        <ele>1216.17207336426</ele>
        <time>2018-09-02T12:37:24Z</time>
      </trkpt>
      <trkpt lat="43.038278259377" lon="-4.85279437154983">
        <ele>1215.65937805176</ele>
        <time>2018-09-02T12:37:25Z</time>
      </trkpt>
      <trkpt lat="43.0382948555453" lon="-4.85287735239123">
        <ele>1215.12519836426</ele>
        <time>2018-09-02T12:37:26Z</time>
      </trkpt>
      <trkpt lat="43.0383070093049" lon="-4.85295765102362">
        <ele>1214.12800598145</ele>
        <time>2018-09-02T12:37:27Z</time>
      </trkpt>
      <trkpt lat="43.0383287603436" lon="-4.85304800793981">
        <ele>1213.05110168457</ele>
        <time>2018-09-02T12:37:28Z</time>
      </trkpt>
      <trkpt lat="43.0383495474635" lon="-4.85313383862828">
        <ele>1213.04512023926</ele>
        <time>2018-09-02T12:37:29Z</time>
      </trkpt>
      <trkpt lat="43.0383806862338" lon="-4.85321103595649">
        <ele>1213.08699035645</ele>
        <time>2018-09-02T12:37:30Z</time>
      </trkpt>
      <trkpt lat="43.0384044489293" lon="-4.85329636373078">
        <ele>1213.5210723877</ele>
        <time>2018-09-02T12:37:31Z</time>
      </trkpt>
      <trkpt lat="43.0384158902271" lon="-4.85339191742693">
        <ele>1212.43684387207</ele>
        <time>2018-09-02T12:37:32Z</time>
      </trkpt>
      <trkpt lat="43.038434078957" lon="-4.85347213224029">
        <ele>1213.65376281738</ele>
        <time>2018-09-02T12:37:33Z</time>
      </trkpt>
      <trkpt lat="43.038447406183" lon="-4.85354891047334">
        <ele>1213.28828430176</ele>
        <time>2018-09-02T12:37:34Z</time>
      </trkpt>
      <trkpt lat="43.0384609010471" lon="-4.85363834538018">
        <ele>1213.69233703613</ele>
        <time>2018-09-02T12:37:35Z</time>
      </trkpt>
      <trkpt lat="43.0384678161173" lon="-4.85371856019353">
        <ele>1213.14924621582</ele>
        <time>2018-09-02T12:37:36Z</time>
      </trkpt>
      <trkpt lat="43.0384693667693" lon="-4.85380908474778">
        <ele>1212.00947570801</ele>
        <time>2018-09-02T12:37:37Z</time>
      </trkpt>
      <trkpt lat="43.0384664331032" lon="-4.85390237533008">
        <ele>1211.45295715332</ele>
        <time>2018-09-02T12:37:38Z</time>
      </trkpt>
      <trkpt lat="43.0384613620518" lon="-4.85400077887332">
        <ele>1210.8550567627</ele>
        <time>2018-09-02T12:37:39Z</time>
      </trkpt>
      <trkpt lat="43.0384505074872" lon="-4.85409733839785">
        <ele>1211.3511505127</ele>
        <time>2018-09-02T12:37:40Z</time>
      </trkpt>
      <trkpt lat="43.0384314386575" lon="-4.85419549048399">
        <ele>1211.33015441895</ele>
        <time>2018-09-02T12:37:41Z</time>
      </trkpt>
      <trkpt lat="43.0384123279183" lon="-4.85429196618949">
        <ele>1211.91584777832</ele>
        <time>2018-09-02T12:37:42Z</time>
      </trkpt>
      <trkpt lat="43.0383922113506" lon="-4.85438785516178">
        <ele>1212.12178039551</ele>
        <time>2018-09-02T12:37:43Z</time>
      </trkpt>
      <trkpt lat="43.0383729329734" lon="-4.85448651016211">
        <ele>1211.25532531738</ele>
        <time>2018-09-02T12:37:44Z</time>
      </trkpt>
      <trkpt lat="43.0383541994198" lon="-4.85458256677245">
        <ele>1211.16291809082</ele>
        <time>2018-09-02T12:37:45Z</time>
      </trkpt>
      <trkpt lat="43.0383292213483" lon="-4.85467912629699">
        <ele>1211.89082336426</ele>
        <time>2018-09-02T12:37:46Z</time>
      </trkpt>
      <trkpt lat="43.0383083923189" lon="-4.85477308743154">
        <ele>1211.99507141113</ele>
        <time>2018-09-02T12:37:47Z</time>
      </trkpt>
      <trkpt lat="43.0383009743346" lon="-4.85486579128062">
        <ele>1213.10395812988</ele>
        <time>2018-09-02T12:37:48Z</time>
      </trkpt>
      <trkpt lat="43.0382905807747" lon="-4.85494843684589">
        <ele>1213.57991027832</ele>
        <time>2018-09-02T12:37:49Z</time>
      </trkpt>
      <trkpt lat="43.0382759543537" lon="-4.85504742712235">
        <ele>1213.23371887207</ele>
        <time>2018-09-02T12:37:50Z</time>
      </trkpt>
      <trkpt lat="43.0382637586845" lon="-4.85514909960782">
        <ele>1213.77412414551</ele>
        <time>2018-09-02T12:37:51Z</time>
      </trkpt>
      <trkpt lat="43.0382411694555" lon="-4.85525362194037">
        <ele>1213.20539855957</ele>
        <time>2018-09-02T12:37:52Z</time>
      </trkpt>
      <trkpt lat="43.0382193345977" lon="-4.85535370186423">
        <ele>1213.42744445801</ele>
        <time>2018-09-02T12:37:53Z</time>
      </trkpt>
      <trkpt lat="43.0381951108976" lon="-4.85545101576006">
        <ele>1213.4810333252</ele>
        <time>2018-09-02T12:37:54Z</time>
      </trkpt>
      <trkpt lat="43.0381695880024" lon="-4.85554556362783">
        <ele>1213.30854797363</ele>
        <time>2018-09-02T12:37:55Z</time>
      </trkpt>
      <trkpt lat="43.0381254153727" lon="-4.85564447008526">
        <ele>1212.9087677002</ele>
        <time>2018-09-02T12:37:56Z</time>
      </trkpt>
      <trkpt lat="43.0380890798224" lon="-4.85573926941013">
        <ele>1213.0435333252</ele>
        <time>2018-09-02T12:37:57Z</time>
      </trkpt>
      <trkpt lat="43.0380477989493" lon="-4.85582903959309">
        <ele>1212.61750793457</ele>
        <time>2018-09-02T12:37:58Z</time>
      </trkpt>
      <trkpt lat="43.038017959374" lon="-4.85591721721446">
        <ele>1212.09614562988</ele>
        <time>2018-09-02T12:37:59Z</time>
      </trkpt>
      <trkpt lat="43.0379866110562" lon="-4.85600430518841">
        <ele>1211.5464630127</ele>
        <time>2018-09-02T12:38:00Z</time>
      </trkpt>
      <trkpt lat="43.037947844754" lon="-4.85609709285652">
        <ele>1211.72309875488</ele>
        <time>2018-09-02T12:38:01Z</time>
      </trkpt>
      <trkpt lat="43.0379030853911" lon="-4.85618845560109">
        <ele>1210.6421661377</ele>
        <time>2018-09-02T12:38:02Z</time>
      </trkpt>
      <trkpt lat="43.0378623074321" lon="-4.85627545975601">
        <ele>1210.2700958252</ele>
        <time>2018-09-02T12:38:03Z</time>
      </trkpt>
      <trkpt lat="43.0378189729927" lon="-4.85635559075033">
        <ele>1209.42842102051</ele>
        <time>2018-09-02T12:38:04Z</time>
      </trkpt>
      <trkpt lat="43.0377767701103" lon="-4.85643253662144">
        <ele>1209.03193664551</ele>
        <time>2018-09-02T12:38:05Z</time>
      </trkpt>
      <trkpt lat="43.0377252633153" lon="-4.85652104951894">
        <ele>1207.35932922363</ele>
        <time>2018-09-02T12:38:06Z</time>
      </trkpt>
      <trkpt lat="43.0376727506919" lon="-4.85659682192361">
        <ele>1207.04219055176</ele>
        <time>2018-09-02T12:38:07Z</time>
      </trkpt>
      <trkpt lat="43.0376287037908" lon="-4.85667217523312">
        <ele>1207.68135070801</ele>
        <time>2018-09-02T12:38:08Z</time>
      </trkpt>
      <trkpt lat="43.0375795439287" lon="-4.85675733536934">
        <ele>1207.12544250488</ele>
        <time>2018-09-02T12:38:09Z</time>
      </trkpt>
      <trkpt lat="43.0375299230619" lon="-4.85683662817334">
        <ele>1207.30110168457</ele>
        <time>2018-09-02T12:38:10Z</time>
      </trkpt>
      <trkpt lat="43.0374864628939" lon="-4.85691416077768">
        <ele>1207.32002258301</ele>
        <time>2018-09-02T12:38:11Z</time>
      </trkpt>
      <trkpt lat="43.037446900311" lon="-4.85699420795297">
        <ele>1207.80097961426</ele>
        <time>2018-09-02T12:38:12Z</time>
      </trkpt>
      <trkpt lat="43.0374147557123" lon="-4.85707291402375">
        <ele>1207.44953918457</ele>
        <time>2018-09-02T12:38:13Z</time>
      </trkpt>
      <trkpt lat="43.0373756122245" lon="-4.85715639777934">
        <ele>1209.29267883301</ele>
        <time>2018-09-02T12:38:14Z</time>
      </trkpt>
      <trkpt lat="43.0373382289363" lon="-4.85724708997166">
        <ele>1208.7525177002</ele>
        <time>2018-09-02T12:38:15Z</time>
      </trkpt>
      <trkpt lat="43.0372933857544" lon="-4.85732604749953">
        <ele>1210.27217102051</ele>
        <time>2018-09-02T12:38:16Z</time>
      </trkpt>
      <trkpt lat="43.0372583493991" lon="-4.85740508884644">
        <ele>1210.51094055176</ele>
        <time>2018-09-02T12:38:17Z</time>
      </trkpt>
      <trkpt lat="43.0372174876212" lon="-4.8574850522027">
        <ele>1209.98799133301</ele>
        <time>2018-09-02T12:38:18Z</time>
      </trkpt>
      <trkpt lat="43.0371775478525" lon="-4.85756266862606">
        <ele>1210.79035949707</ele>
        <time>2018-09-02T12:38:19Z</time>
      </trkpt>
      <trkpt lat="43.0371496780245" lon="-4.85765118152356">
        <ele>1211.01484680176</ele>
        <time>2018-09-02T12:38:20Z</time>
      </trkpt>
      <trkpt lat="43.0371057987614" lon="-4.85772963613724">
        <ele>1211.18843078613</ele>
        <time>2018-09-02T12:38:21Z</time>
      </trkpt>
      <trkpt lat="43.0370720616011" lon="-4.85781027004575">
        <ele>1210.82356262207</ele>
        <time>2018-09-02T12:38:22Z</time>
      </trkpt>
      <trkpt lat="43.0370444851397" lon="-4.85788822174525">
        <ele>1211.59028625488</ele>
        <time>2018-09-02T12:38:23Z</time>
      </trkpt>
      <trkpt lat="43.0370088620512" lon="-4.85796784982538">
        <ele>1211.91548156738</ele>
        <time>2018-09-02T12:38:24Z</time>
      </trkpt>
      <trkpt lat="43.0369757535337" lon="-4.85804127529716">
        <ele>1211.65754699707</ele>
        <time>2018-09-02T12:38:25Z</time>
      </trkpt>
      <trkpt lat="43.0369364843173" lon="-4.85811972991084">
        <ele>1212.67036437988</ele>
        <time>2018-09-02T12:38:26Z</time>
      </trkpt>
      <trkpt lat="43.0368983466579" lon="-4.85817798413789">
        <ele>1213.03157043457</ele>
        <time>2018-09-02T12:38:27Z</time>
      </trkpt>
      <trkpt lat="43.0368644837691" lon="-4.85822659917628">
        <ele>1214.27461242676</ele>
        <time>2018-09-02T12:38:28Z</time>
      </trkpt>
      <trkpt lat="43.0368074030085" lon="-4.85827789642369">
        <ele>1214.11347961426</ele>
        <time>2018-09-02T12:38:29Z</time>
      </trkpt>
      <trkpt lat="43.0367633980168" lon="-4.85830404796159">
        <ele>1214.5913848877</ele>
        <time>2018-09-02T12:38:30Z</time>
      </trkpt>
      <trkpt lat="43.0367138190596" lon="-4.85832458362436">
        <ele>1214.87202453613</ele>
        <time>2018-09-02T12:38:31Z</time>
      </trkpt>
      <trkpt lat="43.0366565287514" lon="-4.85834947787678">
        <ele>1214.78010559082</ele>
        <time>2018-09-02T12:38:32Z</time>
      </trkpt>
      <trkpt lat="43.0366046447708" lon="-4.85836506821668">
        <ele>1214.94892883301</ele>
        <time>2018-09-02T12:38:33Z</time>
      </trkpt>
      <trkpt lat="43.0365503719477" lon="-4.85837588087177">
        <ele>1214.79402160645</ele>
        <time>2018-09-02T12:38:34Z</time>
      </trkpt>
      <trkpt lat="43.03649563812" lon="-4.8583881184504">
        <ele>1214.51850891113</ele>
        <time>2018-09-02T12:38:35Z</time>
      </trkpt>
      <trkpt lat="43.0364393955497" lon="-4.85839700326776">
        <ele>1214.67024230957</ele>
        <time>2018-09-02T12:38:36Z</time>
      </trkpt>
      <trkpt lat="43.0363864638312" lon="-4.85840488225674">
        <ele>1214.35530090332</ele>
        <time>2018-09-02T12:38:37Z</time>
      </trkpt>
      <trkpt lat="43.0363315204559" lon="-4.85841452144539">
        <ele>1214.78511047363</ele>
        <time>2018-09-02T12:38:38Z</time>
      </trkpt>
      <trkpt lat="43.0362738110526" lon="-4.85842265189146">
        <ele>1214.0044708252</ele>
        <time>2018-09-02T12:38:39Z</time>
      </trkpt>
      <trkpt lat="43.036216646473" lon="-4.85843229108011">
        <ele>1213.8101348877</ele>
        <time>2018-09-02T12:38:40Z</time>
      </trkpt>
      <trkpt lat="43.0361541593848" lon="-4.85844209790682">
        <ele>1213.27973937988</ele>
        <time>2018-09-02T12:38:41Z</time>
      </trkpt>
      <trkpt lat="43.036092594306" lon="-4.85845131800031">
        <ele>1212.68086242676</ele>
        <time>2018-09-02T12:38:42Z</time>
      </trkpt>
      <trkpt lat="43.0360293947561" lon="-4.85846011899864">
        <ele>1212.69160461426</ele>
        <time>2018-09-02T12:38:43Z</time>
      </trkpt>
      <trkpt lat="43.0359624652593" lon="-4.85846389085507">
        <ele>1212.71662902832</ele>
        <time>2018-09-02T12:38:44Z</time>
      </trkpt>
      <trkpt lat="43.0358910514443" lon="-4.85845861025607">
        <ele>1212.22041320801</ele>
        <time>2018-09-02T12:38:45Z</time>
      </trkpt>
      <trkpt lat="43.0358208949147" lon="-4.85843455419397">
        <ele>1211.96382141113</ele>
        <time>2018-09-02T12:38:46Z</time>
      </trkpt>
      <trkpt lat="43.0357563961698" lon="-4.85838367604172">
        <ele>1211.64765930176</ele>
        <time>2018-09-02T12:38:47Z</time>
      </trkpt>
      <trkpt lat="43.0356942024483" lon="-4.85832374543404">
        <ele>1210.40498352051</ele>
        <time>2018-09-02T12:38:48Z</time>
      </trkpt>
      <trkpt lat="43.0356379179685" lon="-4.85825157724773">
        <ele>1209.64033508301</ele>
        <time>2018-09-02T12:38:49Z</time>
      </trkpt>
      <trkpt lat="43.0355888000159" lon="-4.85817479901468">
        <ele>1209.78608703613</ele>
        <time>2018-09-02T12:38:50Z</time>
      </trkpt>
      <trkpt lat="43.0355439987434" lon="-4.85808704048848">
        <ele>1209.24885559082</ele>
        <time>2018-09-02T12:38:51Z</time>
      </trkpt>
      <trkpt lat="43.0355116026877" lon="-4.85797581263339">
        <ele>1208.27290344238</ele>
        <time>2018-09-02T12:38:52Z</time>
      </trkpt>
      <trkpt lat="43.0354823498456" lon="-4.85785754397964">
        <ele>1207.86640930176</ele>
        <time>2018-09-02T12:38:53Z</time>
      </trkpt>
      <trkpt lat="43.035462233278" lon="-4.85773894004976">
        <ele>1208.00617980957</ele>
        <time>2018-09-02T12:38:54Z</time>
      </trkpt>
      <trkpt lat="43.0354497442423" lon="-4.85761480406379">
        <ele>1207.56843566895</ele>
        <time>2018-09-02T12:38:55Z</time>
      </trkpt>
      <trkpt lat="43.0354514625324" lon="-4.85748211853659">
        <ele>1208.12251281738</ele>
        <time>2018-09-02T12:38:56Z</time>
      </trkpt>
      <trkpt lat="43.0354488641424" lon="-4.85734700225746">
        <ele>1207.20124816895</ele>
        <time>2018-09-02T12:38:57Z</time>
      </trkpt>
      <trkpt lat="43.0354509177087" lon="-4.85721783712959">
        <ele>1206.69367980957</ele>
        <time>2018-09-02T12:38:58Z</time>
      </trkpt>
      <trkpt lat="43.0354523007227" lon="-4.85709177330589">
        <ele>1204.68757629395</ele>
        <time>2018-09-02T12:38:59Z</time>
      </trkpt>
      <trkpt lat="43.0354552762984" lon="-4.85695037059938">
        <ele>1204.1001739502</ele>
        <time>2018-09-02T12:39:00Z</time>
      </trkpt>
      <trkpt lat="43.0354573717742" lon="-4.85681039281642">
        <ele>1202.37239074707</ele>
        <time>2018-09-02T12:39:01Z</time>
      </trkpt>
      <trkpt lat="43.0354553182079" lon="-4.85667527653729">
        <ele>1201.26960754395</ele>
        <time>2018-09-02T12:39:02Z</time>
      </trkpt>
      <trkpt lat="43.0354611855401" lon="-4.85653714277302">
        <ele>1202.47077941895</ele>
        <time>2018-09-02T12:39:03Z</time>
      </trkpt>
      <trkpt lat="43.0354628619207" lon="-4.85641728155767">
        <ele>1202.16767883301</ele>
        <time>2018-09-02T12:39:04Z</time>
      </trkpt>
      <trkpt lat="43.035463616292" lon="-4.85628987662946">
        <ele>1202.40132141113</ele>
        <time>2018-09-02T12:39:05Z</time>
      </trkpt>
      <trkpt lat="43.0354667595057" lon="-4.8561638966248">
        <ele>1203.03144836426</ele>
        <time>2018-09-02T12:39:06Z</time>
      </trkpt>
      <trkpt lat="43.0354823498456" lon="-4.85603079200243">
        <ele>1202.90962219238</ele>
        <time>2018-09-02T12:39:07Z</time>
      </trkpt>
      <trkpt lat="43.0354864150687" lon="-4.85591562465286">
        <ele>1202.5943145752</ele>
        <time>2018-09-02T12:39:08Z</time>
      </trkpt>
      <trkpt lat="43.0354948807909" lon="-4.85579978675102">
        <ele>1202.27534484863</ele>
        <time>2018-09-02T12:39:09Z</time>
      </trkpt>
      <trkpt lat="43.0354985688283" lon="-4.85569191165721">
        <ele>1201.39656066895</ele>
        <time>2018-09-02T12:39:10Z</time>
      </trkpt>
      <trkpt lat="43.035500496666" lon="-4.85558177344953">
        <ele>1201.91743469238</ele>
        <time>2018-09-02T12:39:11Z</time>
      </trkpt>
      <trkpt lat="43.0355079146503" lon="-4.85548077151631">
        <ele>1204.30476379395</ele>
        <time>2018-09-02T12:39:12Z</time>
      </trkpt>
      <trkpt lat="43.0354941264196" lon="-4.85538437962984">
        <ele>1204.28340148926</ele>
        <time>2018-09-02T12:39:13Z</time>
      </trkpt>
      <trkpt lat="43.03545946725" lon="-4.85529477708494">
        <ele>1204.72431945801</ele>
        <time>2018-09-02T12:39:14Z</time>
      </trkpt>
      <trkpt lat="43.0354062840743" lon="-4.85523660667693">
        <ele>1204.81037902832</ele>
        <time>2018-09-02T12:39:15Z</time>
      </trkpt>
      <trkpt lat="43.0353463953762" lon="-4.85519922338878">
        <ele>1204.87055969238</ele>
        <time>2018-09-02T12:39:16Z</time>
      </trkpt>
      <trkpt lat="43.0352818128122" lon="-4.85519226640915">
        <ele>1204.1841583252</ele>
        <time>2018-09-02T12:39:17Z</time>
      </trkpt>
      <trkpt lat="43.0352172302483" lon="-4.85521841794705">
        <ele>1204.11531066895</ele>
        <time>2018-09-02T12:39:18Z</time>
      </trkpt>
      <trkpt lat="43.0351495882897" lon="-4.85527415760314">
        <ele>1202.32746887207</ele>
        <time>2018-09-02T12:39:19Z</time>
      </trkpt>
      <trkpt lat="43.0351115344493" lon="-4.85533978790497">
        <ele>1202.6529083252</ele>
        <time>2018-09-02T12:39:20Z</time>
      </trkpt>
      <trkpt lat="43.0350709660379" lon="-4.85540650785422">
        <ele>1203.14595031738</ele>
        <time>2018-09-02T12:39:21Z</time>
      </trkpt>
      <trkpt lat="43.0350107420637" lon="-4.85548211262082">
        <ele>1201.42683410645</ele>
        <time>2018-09-02T12:39:22Z</time>
      </trkpt>
      <trkpt lat="43.0349810282169" lon="-4.85554992221748">
        <ele>1202.13667297363</ele>
        <time>2018-09-02T12:39:23Z</time>
      </trkpt>
      <trkpt lat="43.0349625880299" lon="-4.85561773181414">
        <ele>1204.06477355957</ele>
        <time>2018-09-02T12:39:24Z</time>
      </trkpt>
      <trkpt lat="43.0349291023268" lon="-4.85567766242181">
        <ele>1205.20246887207</ele>
        <time>2018-09-02T12:39:25Z</time>
      </trkpt>
      <trkpt lat="43.03487428468" lon="-4.85575787723517">
        <ele>1204.23347473145</ele>
        <time>2018-09-02T12:39:26Z</time>
      </trkpt>
      <trkpt lat="43.0348334229021" lon="-4.85582769848858">
        <ele>1203.40278625488</ele>
        <time>2018-09-02T12:39:27Z</time>
      </trkpt>
      <trkpt lat="43.0347869871585" lon="-4.85590263270294">
        <ele>1203.45161437988</ele>
        <time>2018-09-02T12:39:28Z</time>
      </trkpt>
      <trkpt lat="43.034740719053" lon="-4.85598410480177">
        <ele>1203.34248352051</ele>
        <time>2018-09-02T12:39:29Z</time>
      </trkpt>
      <trkpt lat="43.0346898409007" lon="-4.85606457107221">
        <ele>1202.95063781738</ele>
        <time>2018-09-02T12:39:30Z</time>
      </trkpt>
      <trkpt lat="43.0346332630543" lon="-4.85615434125518">
        <ele>1202.15864562988</ele>
        <time>2018-09-02T12:39:31Z</time>
      </trkpt>
      <trkpt lat="43.0345699796854" lon="-4.85624260269558">
        <ele>1200.69941711426</ele>
        <time>2018-09-02T12:39:32Z</time>
      </trkpt>
      <trkpt lat="43.0345086660637" lon="-4.85632030293798">
        <ele>1200.49775695801</ele>
        <time>2018-09-02T12:39:33Z</time>
      </trkpt>
      <trkpt lat="43.0344392639054" lon="-4.85638744198238">
        <ele>1200.64326477051</ele>
        <time>2018-09-02T12:39:34Z</time>
      </trkpt>
      <trkpt lat="43.0343630304961" lon="-4.85645231791293">
        <ele>1200.13398742676</ele>
        <time>2018-09-02T12:39:35Z</time>
      </trkpt>
      <trkpt lat="43.034278289455" lon="-4.85650487244581">
        <ele>1199.98713684082</ele>
        <time>2018-09-02T12:39:36Z</time>
      </trkpt>
      <trkpt lat="43.0341890640958" lon="-4.85654921271359">
        <ele>1199.59870910645</ele>
        <time>2018-09-02T12:39:37Z</time>
      </trkpt>
      <trkpt lat="43.0341031495882" lon="-4.85659380443846">
        <ele>1199.07942199707</ele>
        <time>2018-09-02T12:39:38Z</time>
      </trkpt>
      <trkpt lat="43.0340116611151" lon="-4.85662716441309">
        <ele>1199.21357727051</ele>
        <time>2018-09-02T12:39:39Z</time>
      </trkpt>
      <trkpt lat="43.0339114135532" lon="-4.85663068481242">
        <ele>1198.90962219238</ele>
        <time>2018-09-02T12:39:40Z</time>
      </trkpt>
      <trkpt lat="43.0338134710146" lon="-4.85663739033496">
        <ele>1198.97651672363</ele>
        <time>2018-09-02T12:39:41Z</time>
      </trkpt>
      <trkpt lat="43.0337076913966" lon="-4.85662288964247">
        <ele>1198.57197570801</ele>
        <time>2018-09-02T12:39:42Z</time>
      </trkpt>
      <trkpt lat="43.0336027918784" lon="-4.85659430735265">
        <ele>1198.52864074707</ele>
        <time>2018-09-02T12:39:43Z</time>
      </trkpt>
      <trkpt lat="43.0335062742634" lon="-4.85655843280708">
        <ele>1198.48274230957</ele>
        <time>2018-09-02T12:39:44Z</time>
      </trkpt>
      <trkpt lat="43.0334077449916" lon="-4.85651853494798">
        <ele>1197.52912902832</ele>
        <time>2018-09-02T12:39:45Z</time>
      </trkpt>
      <trkpt lat="43.0333157536043" lon="-4.85646447167253">
        <ele>1197.30342102051</ele>
        <time>2018-09-02T12:39:46Z</time>
      </trkpt>
      <trkpt lat="43.0332233850314" lon="-4.8564073070929">
        <ele>1196.74458312988</ele>
        <time>2018-09-02T12:39:47Z</time>
      </trkpt>
      <trkpt lat="43.0331323994724" lon="-4.85634796321844">
        <ele>1197.00373840332</ele>
        <time>2018-09-02T12:39:48Z</time>
      </trkpt>
      <trkpt lat="43.0330502987309" lon="-4.85629959963714">
        <ele>1196.50788879395</ele>
        <time>2018-09-02T12:39:49Z</time>
      </trkpt>
      <trkpt lat="43.0329663539706" lon="-4.85623179004049">
        <ele>1196.86604309082</ele>
        <time>2018-09-02T12:39:50Z</time>
      </trkpt>
      <trkpt lat="43.032896029803" lon="-4.85617345199441">
        <ele>1198.79475402832</ele>
        <time>2018-09-02T12:39:51Z</time>
      </trkpt>
      <trkpt lat="43.032826082821" lon="-4.85610371456002">
        <ele>1199.49543762207</ele>
        <time>2018-09-02T12:39:52Z</time>
      </trkpt>
      <trkpt lat="43.0327590275957" lon="-4.8560275230602">
        <ele>1198.84980773926</ele>
        <time>2018-09-02T12:39:53Z</time>
      </trkpt>
      <trkpt lat="43.03269373257" lon="-4.85595208593165">
        <ele>1198.0171661377</ele>
        <time>2018-09-02T12:39:54Z</time>
      </trkpt>
      <trkpt lat="43.0326283956347" lon="-4.85587581061279">
        <ele>1198.9907989502</ele>
        <time>2018-09-02T12:39:55Z</time>
      </trkpt>
      <trkpt lat="43.0325628072424" lon="-4.85580582172131">
        <ele>1198.3755645752</ele>
        <time>2018-09-02T12:39:56Z</time>
      </trkpt>
      <trkpt lat="43.0324975122167" lon="-4.85572954640245">
        <ele>1199.78523254395</ele>
        <time>2018-09-02T12:39:57Z</time>
      </trkpt>
      <trkpt lat="43.032422871369" lon="-4.85563910566723">
        <ele>1199.14204406738</ele>
        <time>2018-09-02T12:39:58Z</time>
      </trkpt>
      <trkpt lat="43.032348859164" lon="-4.85556861386155">
        <ele>1198.4234161377</ele>
        <time>2018-09-02T12:39:59Z</time>
      </trkpt>
      <trkpt lat="43.032288090366" lon="-4.8554987087891">
        <ele>1199.74385070801</ele>
        <time>2018-09-02T12:40:00Z</time>
      </trkpt>
      <trkpt lat="43.032206282991" lon="-4.85542478040313">
        <ele>1199.07661437988</ele>
        <time>2018-09-02T12:40:01Z</time>
      </trkpt>
      <trkpt lat="43.032134785357" lon="-4.8553449008659">
        <ele>1199.00923156738</ele>
        <time>2018-09-02T12:40:02Z</time>
      </trkpt>
      <trkpt lat="43.0320659280224" lon="-4.85527541488861">
        <ele>1200.53132629395</ele>
        <time>2018-09-02T12:40:03Z</time>
      </trkpt>
      <trkpt lat="43.0319808097957" lon="-4.85522705130731">
        <ele>1200.13484191895</ele>
        <time>2018-09-02T12:40:04Z</time>
      </trkpt>
      <trkpt lat="43.0319038639246" lon="-4.85519511625623">
        <ele>1198.52339172363</ele>
        <time>2018-09-02T12:40:05Z</time>
      </trkpt>
      <trkpt lat="43.0318220146401" lon="-4.85517726280247">
        <ele>1197.25593566895</ele>
        <time>2018-09-02T12:40:06Z</time>
      </trkpt>
      <trkpt lat="43.0317378184228" lon="-4.85515454784488">
        <ele>1196.43586730957</ele>
        <time>2018-09-02T12:40:07Z</time>
      </trkpt>
      <trkpt lat="43.0316625070228" lon="-4.85517717898344">
        <ele>1196.41474914551</ele>
        <time>2018-09-02T12:40:08Z</time>
      </trkpt>
      <trkpt lat="43.031595828983" lon="-4.85521925613736">
        <ele>1196.3775177002</ele>
        <time>2018-09-02T12:40:09Z</time>
      </trkpt>
      <trkpt lat="43.0315359402849" lon="-4.85529829748427">
        <ele>1196.41194152832</ele>
        <time>2018-09-02T12:40:10Z</time>
      </trkpt>
      <trkpt lat="43.0314916419266" lon="-4.85539242625689">
        <ele>1196.06318664551</ele>
        <time>2018-09-02T12:40:11Z</time>
      </trkpt>
      <trkpt lat="43.0314494390441" lon="-4.85548362136339">
        <ele>1195.7886505127</ele>
        <time>2018-09-02T12:40:12Z</time>
      </trkpt>
      <trkpt lat="43.0314287776528" lon="-4.85560121946489">
        <ele>1196.26301574707</ele>
        <time>2018-09-02T12:40:13Z</time>
      </trkpt>
      <trkpt lat="43.0314064398809" lon="-4.85571722500478">
        <ele>1195.90315246582</ele>
        <time>2018-09-02T12:40:14Z</time>
      </trkpt>
      <trkpt lat="43.031379072967" lon="-4.85582451336538">
        <ele>1195.65254211426</ele>
        <time>2018-09-02T12:40:15Z</time>
      </trkpt>
      <trkpt lat="43.0313544301717" lon="-4.8559255152986">
        <ele>1194.61421203613</ele>
        <time>2018-09-02T12:40:16Z</time>
      </trkpt>
      <trkpt lat="43.0313367862655" lon="-4.85603984445786">
        <ele>1194.47383117676</ele>
        <time>2018-09-02T12:40:17Z</time>
      </trkpt>
      <trkpt lat="43.0313161248742" lon="-4.85614914447521">
        <ele>1195.03901672363</ele>
        <time>2018-09-02T12:40:18Z</time>
      </trkpt>
      <trkpt lat="43.031301079358" lon="-4.85625157133197">
        <ele>1195.36421203613</ele>
        <time>2018-09-02T12:40:19Z</time>
      </trkpt>
      <trkpt lat="43.0312919430835" lon="-4.8563518188939">
        <ele>1195.46479797363</ele>
        <time>2018-09-02T12:40:20Z</time>
      </trkpt>
      <trkpt lat="43.0312830163567" lon="-4.85644435510492">
        <ele>1195.70674133301</ele>
        <time>2018-09-02T12:40:21Z</time>
      </trkpt>
      <trkpt lat="43.031269479583" lon="-4.85652985051727">
        <ele>1196.36909484863</ele>
        <time>2018-09-02T12:40:22Z</time>
      </trkpt>
      <trkpt lat="43.0312642828031" lon="-4.85661677085315">
        <ele>1195.71504211426</ele>
        <time>2018-09-02T12:40:23Z</time>
      </trkpt>
      <trkpt lat="43.0312542664288" lon="-4.8567128274635">
        <ele>1195.25337219238</ele>
        <time>2018-09-02T12:40:24Z</time>
      </trkpt>
      <trkpt lat="43.0312487762822" lon="-4.85680460930323">
        <ele>1195.4361114502</ele>
        <time>2018-09-02T12:40:25Z</time>
      </trkpt>
      <trkpt lat="43.0312450044258" lon="-4.8568854108498">
        <ele>1196.09944152832</ele>
        <time>2018-09-02T12:40:26Z</time>
      </trkpt>
      <trkpt lat="43.031237544532" lon="-4.85697031952893">
        <ele>1196.70600891113</ele>
        <time>2018-09-02T12:40:27Z</time>
      </trkpt>
      <trkpt lat="43.0312263127817" lon="-4.85705673695063">
        <ele>1196.58686828613</ele>
        <time>2018-09-02T12:40:28Z</time>
      </trkpt>
      <trkpt lat="43.0312193558021" lon="-4.85714147799169">
        <ele>1195.94343566895</ele>
        <time>2018-09-02T12:40:29Z</time>
      </trkpt>
      <trkpt lat="43.0312032206385" lon="-4.8572395462588">
        <ele>1193.7212677002</ele>
        <time>2018-09-02T12:40:30Z</time>
      </trkpt>
      <trkpt lat="43.0312048132001" lon="-4.85731850378668">
        <ele>1194.89765930176</ele>
        <time>2018-09-02T12:40:31Z</time>
      </trkpt>
      <trkpt lat="43.0311980238585" lon="-4.85741246492123">
        <ele>1194.14656066895</ele>
        <time>2018-09-02T12:40:32Z</time>
      </trkpt>
      <trkpt lat="43.0311975628538" lon="-4.85751153901672">
        <ele>1193.48896789551</ele>
        <time>2018-09-02T12:40:33Z</time>
      </trkpt>
      <trkpt lat="43.0311696511163" lon="-4.85761757009184">
        <ele>1193.87287902832</ele>
        <time>2018-09-02T12:40:34Z</time>
      </trkpt>
      <trkpt lat="43.0311305914475" lon="-4.85771756619667">
        <ele>1193.92366027832</ele>
        <time>2018-09-02T12:40:35Z</time>
      </trkpt>
      <trkpt lat="43.0310884723841" lon="-4.85781161115026">
        <ele>1193.78266906738</ele>
        <time>2018-09-02T12:40:36Z</time>
      </trkpt>
      <trkpt lat="43.0310385162412" lon="-4.85791395418798">
        <ele>1194.23774719238</ele>
        <time>2018-09-02T12:40:37Z</time>
      </trkpt>
      <trkpt lat="43.030979926738" lon="-4.85801110044574">
        <ele>1194.82405090332</ele>
        <time>2018-09-02T12:40:38Z</time>
      </trkpt>
      <trkpt lat="43.0309094768418" lon="-4.85810950398898">
        <ele>1195.03230285645</ele>
        <time>2018-09-02T12:40:39Z</time>
      </trkpt>
      <trkpt lat="43.0308541981904" lon="-4.85819382593488">
        <ele>1194.71577453613</ele>
        <time>2018-09-02T12:40:40Z</time>
      </trkpt>
      <trkpt lat="43.0307898670836" lon="-4.85829181038296">
        <ele>1193.91963195801</ele>
        <time>2018-09-02T12:40:41Z</time>
      </trkpt>
      <trkpt lat="43.0307253264291" lon="-4.85838702880299">
        <ele>1194.24140930176</ele>
        <time>2018-09-02T12:40:42Z</time>
      </trkpt>
      <trkpt lat="43.030658941756" lon="-4.85848191194689">
        <ele>1193.76777648926</ele>
        <time>2018-09-02T12:40:43Z</time>
      </trkpt>
      <trkpt lat="43.0306015257193" lon="-4.85857184976792">
        <ele>1194.17280578613</ele>
        <time>2018-09-02T12:40:44Z</time>
      </trkpt>
      <trkpt lat="43.0305423913924" lon="-4.85865851864671">
        <ele>1193.77961730957</ele>
        <time>2018-09-02T12:40:45Z</time>
      </trkpt>
      <trkpt lat="43.0304812454088" lon="-4.858743846421">
        <ele>1192.87629699707</ele>
        <time>2018-09-02T12:40:46Z</time>
      </trkpt>
      <trkpt lat="43.0304206023393" lon="-4.85883495770847">
        <ele>1192.37226867676</ele>
        <time>2018-09-02T12:40:47Z</time>
      </trkpt>
      <trkpt lat="43.0303632701217" lon="-4.8589180223689">
        <ele>1191.37239074707</ele>
        <time>2018-09-02T12:40:48Z</time>
      </trkpt>
      <trkpt lat="43.0303098773985" lon="-4.85899765044903">
        <ele>1189.84565734863</ele>
        <time>2018-09-02T12:40:49Z</time>
      </trkpt>
      <trkpt lat="43.0302485637768" lon="-4.85907509923434">
        <ele>1190.38752746582</ele>
        <time>2018-09-02T12:40:50Z</time>
      </trkpt>
      <trkpt lat="43.0301843583985" lon="-4.85914140008842">
        <ele>1190.83564758301</ele>
        <time>2018-09-02T12:40:51Z</time>
      </trkpt>
      <trkpt lat="43.0301151657878" lon="-4.85918976366972">
        <ele>1191.30097961426</ele>
        <time>2018-09-02T12:40:52Z</time>
      </trkpt>
      <trkpt lat="43.0300437938823" lon="-4.85922756605303">
        <ele>1191.00410461426</ele>
        <time>2018-09-02T12:40:53Z</time>
      </trkpt>
      <trkpt lat="43.0299713323294" lon="-4.85924726352548">
        <ele>1190.76924133301</ele>
        <time>2018-09-02T12:40:54Z</time>
      </trkpt>
      <trkpt lat="43.0298903212352" lon="-4.85926327296054">
        <ele>1191.03779602051</ele>
        <time>2018-09-02T12:40:55Z</time>
      </trkpt>
      <trkpt lat="43.029815806116" lon="-4.85927911475753">
        <ele>1191.1773223877</ele>
        <time>2018-09-02T12:40:56Z</time>
      </trkpt>
      <trkpt lat="43.0297401175304" lon="-4.85928481445169">
        <ele>1191.08723449707</ele>
        <time>2018-09-02T12:40:57Z</time>
      </trkpt>
      <trkpt lat="43.0296680750726" lon="-4.85929554328775">
        <ele>1190.31184387207</ele>
        <time>2018-09-02T12:40:58Z</time>
      </trkpt>
      <trkpt lat="43.0295983795477" lon="-4.85929956660127">
        <ele>1190.64619445801</ele>
        <time>2018-09-02T12:40:59Z</time>
      </trkpt>
      <trkpt lat="43.0295253731711" lon="-4.85930526629543">
        <ele>1191.46601867676</ele>
        <time>2018-09-02T12:41:00Z</time>
      </trkpt>
      <trkpt lat="43.0294573121174" lon="-4.85931088217055">
        <ele>1190.08406066895</ele>
        <time>2018-09-02T12:41:01Z</time>
      </trkpt>
      <trkpt lat="43.029385060112" lon="-4.8593170847789">
        <ele>1188.81196594238</ele>
        <time>2018-09-02T12:41:02Z</time>
      </trkpt>
      <trkpt lat="43.0293112993641" lon="-4.8593154922173">
        <ele>1188.06379699707</ele>
        <time>2018-09-02T12:41:03Z</time>
      </trkpt>
      <trkpt lat="43.0292481417237" lon="-4.8593118041799">
        <ele>1189.17060852051</ele>
        <time>2018-09-02T12:41:04Z</time>
      </trkpt>
      <trkpt lat="43.0291768117277" lon="-4.85930291936254">
        <ele>1188.85786437988</ele>
        <time>2018-09-02T12:41:05Z</time>
      </trkpt>
      <trkpt lat="43.0291040148987" lon="-4.85928464681363">
        <ele>1189.18843078613</ele>
        <time>2018-09-02T12:41:06Z</time>
      </trkpt>
      <trkpt lat="43.0290339002786" lon="-4.85925514251446">
        <ele>1189.09407043457</ele>
        <time>2018-09-02T12:41:07Z</time>
      </trkpt>
      <trkpt lat="43.0289738858519" lon="-4.85920786858058">
        <ele>1189.16999816895</ele>
        <time>2018-09-02T12:41:08Z</time>
      </trkpt>
      <trkpt lat="43.028919948305" lon="-4.85914559104001">
        <ele>1189.26789855957</ele>
        <time>2018-09-02T12:41:09Z</time>
      </trkpt>
      <trkpt lat="43.0288653821154" lon="-4.85909471288776">
        <ele>1188.32136535645</ele>
        <time>2018-09-02T12:41:10Z</time>
      </trkpt>
      <trkpt lat="43.0288196588336" lon="-4.85901952721631">
        <ele>1188.3413848877</ele>
        <time>2018-09-02T12:41:11Z</time>
      </trkpt>
      <trkpt lat="43.0287821498169" lon="-4.85892523080563">
        <ele>1188.03791809082</ele>
        <time>2018-09-02T12:41:12Z</time>
      </trkpt>
      <trkpt lat="43.0287396535678" lon="-4.85884602182066">
        <ele>1186.3218536377</ele>
        <time>2018-09-02T12:41:13Z</time>
      </trkpt>
      <trkpt lat="43.0287021445511" lon="-4.85875876620864">
        <ele>1186.16230773926</ele>
        <time>2018-09-02T12:41:14Z</time>
      </trkpt>
      <trkpt lat="43.0286616180493" lon="-4.8586679901973">
        <ele>1187.63093566895</ele>
        <time>2018-09-02T12:41:15Z</time>
      </trkpt>
      <trkpt lat="43.0286306888266" lon="-4.85856615007376">
        <ele>1186.60652160645</ele>
        <time>2018-09-02T12:41:16Z</time>
      </trkpt>
      <trkpt lat="43.0285943113668" lon="-4.85847897828078">
        <ele>1185.86311340332</ele>
        <time>2018-09-02T12:41:17Z</time>
      </trkpt>
      <trkpt lat="43.028557766269" lon="-4.85839004628813">
        <ele>1186.1958770752</ele>
        <time>2018-09-02T12:41:18Z</time>
      </trkpt>
      <trkpt lat="43.0285197124286" lon="-4.85829566605842">
        <ele>1186.21516418457</ele>
        <time>2018-09-02T12:41:19Z</time>
      </trkpt>
      <trkpt lat="43.0284741567849" lon="-4.85820581205642">
        <ele>1186.30696105957</ele>
        <time>2018-09-02T12:41:20Z</time>
      </trkpt>
      <trkpt lat="43.0284166569291" lon="-4.85812308267211">
        <ele>1186.17622375488</ele>
        <time>2018-09-02T12:41:21Z</time>
      </trkpt>
      <trkpt lat="43.0283694668142" lon="-4.85802828334724">
        <ele>1186.6177520752</ele>
        <time>2018-09-02T12:41:22Z</time>
      </trkpt>
      <trkpt lat="43.0283109611301" lon="-4.8579441290394">
        <ele>1186.58174133301</ele>
        <time>2018-09-02T12:41:23Z</time>
      </trkpt>
      <trkpt lat="43.0282477615802" lon="-4.85787648708081">
        <ele>1185.98384094238</ele>
        <time>2018-09-02T12:41:24Z</time>
      </trkpt>
      <trkpt lat="43.0281670019431" lon="-4.85785528086578">
        <ele>1185.41438293457</ele>
        <time>2018-09-02T12:41:25Z</time>
      </trkpt>
      <trkpt lat="43.0280893017007" lon="-4.85787481070017">
        <ele>1185.32514953613</ele>
        <time>2018-09-02T12:41:26Z</time>
      </trkpt>
      <trkpt lat="43.0280388845532" lon="-4.85792401247179">
        <ele>1184.30561828613</ele>
        <time>2018-09-02T12:41:27Z</time>
      </trkpt>
      <trkpt lat="43.0279866233869" lon="-4.8580131121025">
        <ele>1184.37092590332</ele>
        <time>2018-09-02T12:41:28Z</time>
      </trkpt>
      <trkpt lat="43.0279329372971" lon="-4.85810615122771">
        <ele>1184.28096008301</ele>
        <time>2018-09-02T12:41:29Z</time>
      </trkpt>
      <trkpt lat="43.0278769042744" lon="-4.85819634050583">
        <ele>1184.78315734863</ele>
        <time>2018-09-02T12:41:30Z</time>
      </trkpt>
      <trkpt lat="43.0278214998944" lon="-4.85829633661067">
        <ele>1184.15144348145</ele>
        <time>2018-09-02T12:41:31Z</time>
      </trkpt>
      <trkpt lat="43.0277650896861" lon="-4.85839063302135">
        <ele>1184.57405090332</ele>
        <time>2018-09-02T12:41:32Z</time>
      </trkpt>
      <trkpt lat="43.0277065420924" lon="-4.85849951394355">
        <ele>1183.80244445801</ele>
        <time>2018-09-02T12:41:33Z</time>
      </trkpt>
      <trkpt lat="43.0276465276657" lon="-4.8586161900357">
        <ele>1182.67097473145</ele>
        <time>2018-09-02T12:41:34Z</time>
      </trkpt>
      <trkpt lat="43.0275896145432" lon="-4.85871316865539">
        <ele>1184.59956359863</ele>
        <time>2018-09-02T12:41:35Z</time>
      </trkpt>
      <trkpt lat="43.0275249481602" lon="-4.8588181100831">
        <ele>1184.24067687988</ele>
        <time>2018-09-02T12:41:36Z</time>
      </trkpt>
      <trkpt lat="43.0274552526353" lon="-4.85891819000697">
        <ele>1182.39765930176</ele>
        <time>2018-09-02T12:41:37Z</time>
      </trkpt>
      <trkpt lat="43.0274008959932" lon="-4.85901877284503">
        <ele>1182.20967102051</ele>
        <time>2018-09-02T12:41:38Z</time>
      </trkpt>
      <trkpt lat="43.0273468746273" lon="-4.85911139287507">
        <ele>1182.20246887207</ele>
        <time>2018-09-02T12:41:39Z</time>
      </trkpt>
      <trkpt lat="43.0272993911458" lon="-4.85919755883967">
        <ele>1183.07698059082</ele>
        <time>2018-09-02T12:41:40Z</time>
      </trkpt>
      <trkpt lat="43.0272516562073" lon="-4.85928975977456">
        <ele>1183.85371398926</ele>
        <time>2018-09-02T12:41:41Z</time>
      </trkpt>
      <trkpt lat="43.0272065615682" lon="-4.8593842238233">
        <ele>1184.24739074707</ele>
        <time>2018-09-02T12:41:42Z</time>
      </trkpt>
      <trkpt lat="43.0271683819993" lon="-4.8594899196223">
        <ele>1185.14241027832</ele>
        <time>2018-09-02T12:41:43Z</time>
      </trkpt>
      <trkpt lat="43.027128148864" lon="-4.85961640254116">
        <ele>1184.6031036377</ele>
        <time>2018-09-02T12:41:44Z</time>
      </trkpt>
      <trkpt lat="43.0271133967145" lon="-4.85971966758823">
        <ele>1184.95869445801</ele>
        <time>2018-09-02T12:41:45Z</time>
      </trkpt>
      <trkpt lat="43.0270926934136" lon="-4.85982578248238">
        <ele>1185.62348937988</ele>
        <time>2018-09-02T12:41:46Z</time>
      </trkpt>
      <trkpt lat="43.0270643625809" lon="-4.85992292874014">
        <ele>1185.46272277832</ele>
        <time>2018-09-02T12:41:47Z</time>
      </trkpt>
      <trkpt lat="43.027021070051" lon="-4.86000381410575">
        <ele>1185.29988098145</ele>
        <time>2018-09-02T12:41:48Z</time>
      </trkpt>
      <trkpt lat="43.0269719101889" lon="-4.8600819334433">
        <ele>1185.18489074707</ele>
        <time>2018-09-02T12:41:49Z</time>
      </trkpt>
      <trkpt lat="43.0269105546577" lon="-4.86014161259389">
        <ele>1186.15998840332</ele>
        <time>2018-09-02T12:41:50Z</time>
      </trkpt>
      <trkpt lat="43.0268498277692" lon="-4.86019676551675">
        <ele>1186.45625305176</ele>
        <time>2018-09-02T12:41:51Z</time>
      </trkpt>
      <trkpt lat="43.0267948843939" lon="-4.86025753431475">
        <ele>1188.23481750488</ele>
        <time>2018-09-02T12:41:52Z</time>
      </trkpt>
      <trkpt lat="43.026738264638" lon="-4.86031260341858">
        <ele>1188.29756164551</ele>
        <time>2018-09-02T12:41:53Z</time>
      </trkpt>
      <trkpt lat="43.0266741011692" lon="-4.86035920680022">
        <ele>1187.85383605957</ele>
        <time>2018-09-02T12:41:54Z</time>
      </trkpt>
      <trkpt lat="43.0266154697566" lon="-4.86041595228469">
        <ele>1187.49299621582</ele>
        <time>2018-09-02T12:41:55Z</time>
      </trkpt>
      <trkpt lat="43.0265521025686" lon="-4.86046850681758">
        <ele>1187.29878234863</ele>
        <time>2018-09-02T12:41:56Z</time>
      </trkpt>
      <trkpt lat="43.0264892382948" lon="-4.86050597392475">
        <ele>1186.66902160645</ele>
        <time>2018-09-02T12:41:57Z</time>
      </trkpt>
      <trkpt lat="43.0264269607542" lon="-4.8605431057558">
        <ele>1186.04219055176</ele>
        <time>2018-09-02T12:41:58Z</time>
      </trkpt>
      <trkpt lat="43.0263591930671" lon="-4.86057152040755">
        <ele>1186.43623352051</ele>
        <time>2018-09-02T12:41:59Z</time>
      </trkpt>
      <trkpt lat="43.0262776790587" lon="-4.86057621427333">
        <ele>1186.69062805176</ele>
        <time>2018-09-02T12:42:00Z</time>
      </trkpt>
      <trkpt lat="43.0262001464544" lon="-4.86056330614245">
        <ele>1186.27156066895</ele>
        <time>2018-09-02T12:42:01Z</time>
      </trkpt>
      <trkpt lat="43.0261250026925" lon="-4.86054184847033">
        <ele>1186.27632141113</ele>
        <time>2018-09-02T12:42:02Z</time>
      </trkpt>
      <trkpt lat="43.0260509066684" lon="-4.86051737331307">
        <ele>1186.12422180176</ele>
        <time>2018-09-02T12:42:03Z</time>
      </trkpt>
      <trkpt lat="43.0259716976835" lon="-4.86048937775647">
        <ele>1186.91938781738</ele>
        <time>2018-09-02T12:42:04Z</time>
      </trkpt>
      <trkpt lat="43.0259048100962" lon="-4.86046615988469">
        <ele>1186.97065734863</ele>
        <time>2018-09-02T12:42:05Z</time>
      </trkpt>
      <trkpt lat="43.0258366652234" lon="-4.86044009216582">
        <ele>1187.96504211426</ele>
        <time>2018-09-02T12:42:06Z</time>
      </trkpt>
      <trkpt lat="43.0257608089997" lon="-4.86041536555147">
        <ele>1188.71076965332</ele>
        <time>2018-09-02T12:42:07Z</time>
      </trkpt>
      <trkpt lat="43.0256941309599" lon="-4.86039524898386">
        <ele>1189.38301086426</ele>
        <time>2018-09-02T12:42:08Z</time>
      </trkpt>
      <trkpt lat="43.0256287102057" lon="-4.86036725342726">
        <ele>1189.45210266113</ele>
        <time>2018-09-02T12:42:09Z</time>
      </trkpt>
      <trkpt lat="43.0255731800972" lon="-4.86037169583594">
        <ele>1190.00996398926</ele>
        <time>2018-09-02T12:42:10Z</time>
      </trkpt>
      <trkpt lat="43.0255156802414" lon="-4.86036675051307">
        <ele>1190.29731750488</ele>
        <time>2018-09-02T12:42:11Z</time>
      </trkpt>
      <trkpt lat="43.0254559172718" lon="-4.86034210771775">
        <ele>1189.99140930176</ele>
        <time>2018-09-02T12:42:12Z</time>
      </trkpt>
      <trkpt lat="43.0254077213286" lon="-4.86034227535581">
        <ele>1192.36164855957</ele>
        <time>2018-09-02T12:42:13Z</time>
      </trkpt>
      <trkpt lat="43.0253503891109" lon="-4.86036767252242">
        <ele>1192.65034484863</ele>
        <time>2018-09-02T12:42:14Z</time>
      </trkpt>
      <trkpt lat="43.0253009777917" lon="-4.86040161923027">
        <ele>1192.47383117676</ele>
        <time>2018-09-02T12:42:15Z</time>
      </trkpt>
      <trkpt lat="43.0252604512898" lon="-4.86045056954479">
        <ele>1192.80366516113</ele>
        <time>2018-09-02T12:42:16Z</time>
      </trkpt>
      <trkpt lat="43.0252292287005" lon="-4.8605103325144">
        <ele>1192.89533996582</ele>
        <time>2018-09-02T12:42:17Z</time>
      </trkpt>
      <trkpt lat="43.0251967069162" lon="-4.86056406051373">
        <ele>1193.4878692627</ele>
        <time>2018-09-02T12:42:18Z</time>
      </trkpt>
      <trkpt lat="43.0251457868545" lon="-4.86067185178852">
        <ele>1193.70967102051</ele>
        <time>2018-09-02T12:42:20Z</time>
      </trkpt>
      <trkpt lat="43.025122191797" lon="-4.86073329113877">
        <ele>1194.35908508301</ele>
        <time>2018-09-02T12:42:21Z</time>
      </trkpt>
      <trkpt lat="43.0251130555226" lon="-4.86079766415512">
        <ele>1195.63447570801</ele>
        <time>2018-09-02T12:42:22Z</time>
      </trkpt>
      <trkpt lat="43.0251064338191" lon="-4.86086329445696">
        <ele>1196.74153137207</ele>
        <time>2018-09-02T12:42:23Z</time>
      </trkpt>
      <trkpt lat="43.0250755884154" lon="-4.86092942767298">
        <ele>1197.47407531738</ele>
        <time>2018-09-02T12:42:24Z</time>
      </trkpt>
      <trkpt lat="43.0250578187807" lon="-4.86099011265194">
        <ele>1197.96614074707</ele>
        <time>2018-09-02T12:42:25Z</time>
      </trkpt>
      <trkpt lat="43.0250492692394" lon="-4.86105171964025">
        <ele>1197.45295715332</ele>
        <time>2018-09-02T12:42:26Z</time>
      </trkpt>
      <trkpt lat="43.0250465870304" lon="-4.86111768521821">
        <ele>1196.29267883301</ele>
        <time>2018-09-02T12:42:27Z</time>
      </trkpt>
      <trkpt lat="43.0250496045156" lon="-4.86123126000619">
        <ele>1197.51533508301</ele>
        <time>2018-09-02T12:42:29Z</time>
      </trkpt>
      <trkpt lat="43.0250501074298" lon="-4.86130267382121">
        <ele>1197.3726348877</ele>
        <time>2018-09-02T12:42:30Z</time>
      </trkpt>
      <trkpt lat="43.02504143216" lon="-4.86137492582655">
        <ele>1197.90510559082</ele>
        <time>2018-09-02T12:42:31Z</time>
      </trkpt>
      <trkpt lat="43.0250264704628" lon="-4.86145421863055">
        <ele>1197.1792755127</ele>
        <time>2018-09-02T12:42:32Z</time>
      </trkpt>
      <trkpt lat="43.0250214832304" lon="-4.86153736711001">
        <ele>1195.92988586426</ele>
        <time>2018-09-02T12:42:33Z</time>
      </trkpt>
      <trkpt lat="43.0250170408217" lon="-4.86161649227595">
        <ele>1195.18135070801</ele>
        <time>2018-09-02T12:42:34Z</time>
      </trkpt>
      <trkpt lat="43.0250116764037" lon="-4.86169980839348">
        <ele>1195.4947052002</ele>
        <time>2018-09-02T12:42:35Z</time>
      </trkpt>
      <trkpt lat="43.0250055576144" lon="-4.86177658662653">
        <ele>1195.45979309082</ele>
        <time>2018-09-02T12:42:36Z</time>
      </trkpt>
      <trkpt lat="43.0250068987189" lon="-4.86185059883153">
        <ele>1194.87409973145</ele>
        <time>2018-09-02T12:42:37Z</time>
      </trkpt>
      <trkpt lat="43.0250067310808" lon="-4.86192519776976">
        <ele>1194.22358703613</ele>
        <time>2018-09-02T12:42:38Z</time>
      </trkpt>
      <trkpt lat="43.0249734549253" lon="-4.86203357577777">
        <ele>1192.0513458252</ele>
        <time>2018-09-02T12:42:39Z</time>
      </trkpt>
      <trkpt lat="43.0249709403543" lon="-4.86213005148327">
        <ele>1190.98701477051</ele>
        <time>2018-09-02T12:42:40Z</time>
      </trkpt>
      <trkpt lat="43.024967587593" lon="-4.86221948639011">
        <ele>1191.33515930176</ele>
        <time>2018-09-02T12:42:41Z</time>
      </trkpt>
      <trkpt lat="43.0249465071066" lon="-4.86232224852299">
        <ele>1191.14033508301</ele>
        <time>2018-09-02T12:42:42Z</time>
      </trkpt>
      <trkpt lat="43.0249469681112" lon="-4.86242065206623">
        <ele>1190.62178039551</ele>
        <time>2018-09-02T12:42:43Z</time>
      </trkpt>
      <trkpt lat="43.0249397596745" lon="-4.86252182163751">
        <ele>1190.98738098145</ele>
        <time>2018-09-02T12:42:44Z</time>
      </trkpt>
      <trkpt lat="43.0249177571787" lon="-4.86263958737707">
        <ele>1190.7300567627</ele>
        <time>2018-09-02T12:42:45Z</time>
      </trkpt>
      <trkpt lat="43.0249008676438" lon="-4.86274545081413">
        <ele>1189.92231750488</ele>
        <time>2018-09-02T12:42:46Z</time>
      </trkpt>
      <trkpt lat="43.0248900968982" lon="-4.86284226179576">
        <ele>1188.95808410645</ele>
        <time>2018-09-02T12:42:47Z</time>
      </trkpt>
      <trkpt lat="43.0248590838565" lon="-4.86295013688958">
        <ele>1188.87580871582</ele>
        <time>2018-09-02T12:42:48Z</time>
      </trkpt>
      <trkpt lat="43.0248201080067" lon="-4.86305147409892">
        <ele>1187.1890411377</ele>
        <time>2018-09-02T12:42:49Z</time>
      </trkpt>
      <trkpt lat="43.0247735884441" lon="-4.86314971000409">
        <ele>1186.9282989502</ele>
        <time>2018-09-02T12:42:50Z</time>
      </trkpt>
      <trkpt lat="43.0247289129002" lon="-4.86324819736636">
        <ele>1187.16670227051</ele>
        <time>2018-09-02T12:42:51Z</time>
      </trkpt>
      <trkpt lat="43.0246717902301" lon="-4.8633392248348">
        <ele>1186.65498352051</ele>
        <time>2018-09-02T12:42:52Z</time>
      </trkpt>
      <trkpt lat="43.0246057827426" lon="-4.86342782155132">
        <ele>1186.38960266113</ele>
        <time>2018-09-02T12:42:53Z</time>
      </trkpt>
      <trkpt lat="43.024527495767" lon="-4.86349177547252">
        <ele>1185.16572570801</ele>
        <time>2018-09-02T12:42:54Z</time>
      </trkpt>
      <trkpt lat="43.0244449759303" lon="-4.86354391091025">
        <ele>1184.79524230957</ele>
        <time>2018-09-02T12:42:55Z</time>
      </trkpt>
      <trkpt lat="43.0243641324742" lon="-4.86358858645415">
        <ele>1185.17085266113</ele>
        <time>2018-09-02T12:42:56Z</time>
      </trkpt>
      <trkpt lat="43.0242937244876" lon="-4.86362873577034">
        <ele>1182.94673156738</ele>
        <time>2018-09-02T12:42:57Z</time>
      </trkpt>
      <trkpt lat="43.0242019007383" lon="-4.86366385594463">
        <ele>1182.30244445801</ele>
        <time>2018-09-02T12:42:58Z</time>
      </trkpt>
      <trkpt lat="43.0241051735757" lon="-4.86369889229989">
        <ele>1181.03523254395</ele>
        <time>2018-09-02T12:42:59Z</time>
      </trkpt>
      <trkpt lat="43.0240158224879" lon="-4.86372663639939">
        <ele>1180.78291320801</ele>
        <time>2018-09-02T12:43:00Z</time>
      </trkpt>
      <trkpt lat="43.023932715918" lon="-4.86374541186249">
        <ele>1180.82099914551</ele>
        <time>2018-09-02T12:43:01Z</time>
      </trkpt>
      <trkpt lat="43.0238354439317" lon="-4.86373879015899">
        <ele>1180.82588195801</ele>
        <time>2018-09-02T12:43:02Z</time>
      </trkpt>
      <trkpt lat="43.0237393035023" lon="-4.86372093670523">
        <ele>1180.41499328613</ele>
        <time>2018-09-02T12:43:03Z</time>
      </trkpt>
      <trkpt lat="43.023647395934" lon="-4.86369403079605">
        <ele>1179.96394348145</ele>
        <time>2018-09-02T12:43:04Z</time>
      </trkpt>
      <trkpt lat="43.0235635349928" lon="-4.86368346959805">
        <ele>1178.11079406738</ele>
        <time>2018-09-02T12:43:05Z</time>
      </trkpt>
      <trkpt lat="43.0234684842108" lon="-4.86366461031592">
        <ele>1176.97138977051</ele>
        <time>2018-09-02T12:43:06Z</time>
      </trkpt>
      <trkpt lat="43.0233682366489" lon="-4.86366150901175">
        <ele>1174.38032531738</ele>
        <time>2018-09-02T12:43:07Z</time>
      </trkpt>
      <trkpt lat="43.0232836213364" lon="-4.86366243102109">
        <ele>1174.09394836426</ele>
        <time>2018-09-02T12:43:08Z</time>
      </trkpt>
      <trkpt lat="43.023200640495" lon="-4.86366821453428">
        <ele>1173.96882629395</ele>
        <time>2018-09-02T12:43:09Z</time>
      </trkpt>
      <trkpt lat="43.0231183302058" lon="-4.86366704106784">
        <ele>1173.59651184082</ele>
        <time>2018-09-02T12:43:10Z</time>
      </trkpt>
      <trkpt lat="43.0230493471427" lon="-4.86368170939839">
        <ele>1174.97248840332</ele>
        <time>2018-09-02T12:43:11Z</time>
      </trkpt>
      <trkpt lat="43.0229722336335" lon="-4.8637105431453">
        <ele>1173.96064758301</ele>
        <time>2018-09-02T12:43:12Z</time>
      </trkpt>
      <trkpt lat="43.022914021316" lon="-4.8637417238251">
        <ele>1174.57392883301</ele>
        <time>2018-09-02T12:43:13Z</time>
      </trkpt>
      <trkpt lat="43.0228721537097" lon="-4.8637948650912">
        <ele>1174.83186340332</ele>
        <time>2018-09-02T12:43:14Z</time>
      </trkpt>
      <trkpt lat="43.0228347704215" lon="-4.86385303549921">
        <ele>1175.64277648926</ele>
        <time>2018-09-02T12:43:15Z</time>
      </trkpt>
      <trkpt lat="43.0227977224095" lon="-4.86391447484946">
        <ele>1175.64302062988</ele>
        <time>2018-09-02T12:43:16Z</time>
      </trkpt>
      <trkpt lat="43.0227776058419" lon="-4.86400013789988">
        <ele>1176.27925109863</ele>
        <time>2018-09-02T12:43:17Z</time>
      </trkpt>
      <trkpt lat="43.0227701040385" lon="-4.86409585923409">
        <ele>1175.81575012207</ele>
        <time>2018-09-02T12:43:18Z</time>
      </trkpt>
      <trkpt lat="43.0227519991277" lon="-4.86419065855896">
        <ele>1175.13850402832</ele>
        <time>2018-09-02T12:43:19Z</time>
      </trkpt>
      <trkpt lat="43.0227452097861" lon="-4.86428814009285">
        <ele>1175.52046203613</ele>
        <time>2018-09-02T12:43:20Z</time>
      </trkpt>
      <trkpt lat="43.022743659134" lon="-4.86438939348316">
        <ele>1175.80293273926</ele>
        <time>2018-09-02T12:43:21Z</time>
      </trkpt>
      <trkpt lat="43.0227468861668" lon="-4.86448863521671">
        <ele>1176.3540802002</ele>
        <time>2018-09-02T12:43:22Z</time>
      </trkpt>
      <trkpt lat="43.022740976925" lon="-4.86459533684409">
        <ele>1176.51484680176</ele>
        <time>2018-09-02T12:43:23Z</time>
      </trkpt>
      <trkpt lat="43.0227379175304" lon="-4.86468938179767">
        <ele>1176.7427520752</ele>
        <time>2018-09-02T12:43:24Z</time>
      </trkpt>
      <trkpt lat="43.0227172980486" lon="-4.86479046754992">
        <ele>1176.81233215332</ele>
        <time>2018-09-02T12:43:25Z</time>
      </trkpt>
      <trkpt lat="43.0226932419865" lon="-4.86489172094023">
        <ele>1176.9536895752</ele>
        <time>2018-09-02T12:43:26Z</time>
      </trkpt>
      <trkpt lat="43.0226595467357" lon="-4.86499230377829">
        <ele>1175.52473449707</ele>
        <time>2018-09-02T12:43:27Z</time>
      </trkpt>
      <trkpt lat="43.0226245103805" lon="-4.86507687718129">
        <ele>1174.77388000488</ele>
        <time>2018-09-02T12:43:28Z</time>
      </trkpt>
      <trkpt lat="43.0225832714169" lon="-4.8651746939913">
        <ele>1174.59992980957</ele>
        <time>2018-09-02T12:43:29Z</time>
      </trkpt>
      <trkpt lat="43.0225431221007" lon="-4.86526681110716">
        <ele>1174.61994934082</ele>
        <time>2018-09-02T12:43:30Z</time>
      </trkpt>
      <trkpt lat="43.0225114385067" lon="-4.86536244862235">
        <ele>1174.51704406738</ele>
        <time>2018-09-02T12:43:31Z</time>
      </trkpt>
      <trkpt lat="43.0224770727037" lon="-4.8654564097569">
        <ele>1174.73896789551</ele>
        <time>2018-09-02T12:43:32Z</time>
      </trkpt>
      <trkpt lat="43.0224442575528" lon="-4.86555808224237">
        <ele>1174.18757629395</ele>
        <time>2018-09-02T12:43:33Z</time>
      </trkpt>
      <trkpt lat="43.0224259011848" lon="-4.86564793624437">
        <ele>1173.97724914551</ele>
        <time>2018-09-02T12:43:34Z</time>
      </trkpt>
      <trkpt lat="43.0223838240309" lon="-4.86574516632116">
        <ele>1173.27912902832</ele>
        <time>2018-09-02T12:43:35Z</time>
      </trkpt>
      <trkpt lat="43.0223221751331" lon="-4.86583024263835">
        <ele>1173.11543273926</ele>
        <time>2018-09-02T12:43:36Z</time>
      </trkpt>
      <trkpt lat="43.0222709197952" lon="-4.86588933505571">
        <ele>1173.00007629395</ele>
        <time>2018-09-02T12:43:37Z</time>
      </trkpt>
      <trkpt lat="43.022210947278" lon="-4.86593778245604">
        <ele>1172.80598449707</ele>
        <time>2018-09-02T12:43:38Z</time>
      </trkpt>
      <trkpt lat="43.0221479572756" lon="-4.86599033698893">
        <ele>1172.92976379395</ele>
        <time>2018-09-02T12:43:39Z</time>
      </trkpt>
      <trkpt lat="43.0220786808459" lon="-4.86604054458892">
        <ele>1174.38008117676</ele>
        <time>2018-09-02T12:43:40Z</time>
      </trkpt>
      <trkpt lat="43.0220196303381" lon="-4.86609494314051">
        <ele>1176.02839660645</ele>
        <time>2018-09-02T12:43:41Z</time>
      </trkpt>
      <trkpt lat="43.0219521979271" lon="-4.86614607274985">
        <ele>1176.5855255127</ele>
        <time>2018-09-02T12:43:42Z</time>
      </trkpt>
      <trkpt lat="43.0218931474192" lon="-4.86620441079593">
        <ele>1176.32490539551</ele>
        <time>2018-09-02T12:43:43Z</time>
      </trkpt>
      <trkpt lat="43.0218428560002" lon="-4.86626434140361">
        <ele>1176.58222961426</ele>
        <time>2018-09-02T12:43:44Z</time>
      </trkpt>
      <trkpt lat="43.0217917683004" lon="-4.86633332446671">
        <ele>1177.02326965332</ele>
        <time>2018-09-02T12:43:45Z</time>
      </trkpt>
      <trkpt lat="43.0217483500419" lon="-4.86640239134884">
        <ele>1178.49971008301</ele>
        <time>2018-09-02T12:43:46Z</time>
      </trkpt>
      <trkpt lat="43.021704889874" lon="-4.86648587510443">
        <ele>1177.92683410645</ele>
        <time>2018-09-02T12:43:47Z</time>
      </trkpt>
      <trkpt lat="43.0216712365328" lon="-4.86656642519391">
        <ele>1178.10188293457</ele>
        <time>2018-09-02T12:43:48Z</time>
      </trkpt>
      <trkpt lat="43.0216430314286" lon="-4.86665569246269">
        <ele>1178.30647277832</ele>
        <time>2018-09-02T12:43:49Z</time>
      </trkpt>
      <trkpt lat="43.0216068216069" lon="-4.86673967913246">
        <ele>1177.06074523926</ele>
        <time>2018-09-02T12:43:50Z</time>
      </trkpt>
      <trkpt lat="43.0215742998226" lon="-4.86682316288805">
        <ele>1176.81221008301</ele>
        <time>2018-09-02T12:43:51Z</time>
      </trkpt>
      <trkpt lat="43.0215403531147" lon="-4.86690698191977">
        <ele>1177.12507629395</ele>
        <time>2018-09-02T12:43:52Z</time>
      </trkpt>
      <trkpt lat="43.0215030955551" lon="-4.8669897951231">
        <ele>1177.80513000488</ele>
        <time>2018-09-02T12:43:53Z</time>
      </trkpt>
      <trkpt lat="43.0214814283354" lon="-4.86706883647001">
        <ele>1177.00032043457</ele>
        <time>2018-09-02T12:43:54Z</time>
      </trkpt>
      <trkpt lat="43.0214530136837" lon="-4.86715558916784">
        <ele>1177.20893859863</ele>
        <time>2018-09-02T12:43:55Z</time>
      </trkpt>
      <trkpt lat="43.0214116909011" lon="-4.86724158749438">
        <ele>1177.48176574707</ele>
        <time>2018-09-02T12:43:56Z</time>
      </trkpt>
      <trkpt lat="43.0213788757501" lon="-4.86733010039187">
        <ele>1177.62629699707</ele>
        <time>2018-09-02T12:43:57Z</time>
      </trkpt>
      <trkpt lat="43.0213393550767" lon="-4.86742121167934">
        <ele>1177.76606750488</ele>
        <time>2018-09-02T12:43:58Z</time>
      </trkpt>
      <trkpt lat="43.0213158019288" lon="-4.86749874428368">
        <ele>1177.50617980957</ele>
        <time>2018-09-02T12:43:59Z</time>
      </trkpt>
      <trkpt lat="43.0212711682944" lon="-4.8675875924573">
        <ele>1176.31904602051</ele>
        <time>2018-09-02T12:44:00Z</time>
      </trkpt>
      <trkpt lat="43.0212420830904" lon="-4.86767065711773">
        <ele>1178.02192687988</ele>
        <time>2018-09-02T12:44:01Z</time>
      </trkpt>
      <trkpt lat="43.0212109443201" lon="-4.86775950529135">
        <ele>1177.54011535645</ele>
        <time>2018-09-02T12:44:02Z</time>
      </trkpt>
      <trkpt lat="43.021180308464" lon="-4.867837876086">
        <ele>1177.95576477051</ele>
        <time>2018-09-02T12:44:03Z</time>
      </trkpt>
      <trkpt lat="43.0211396562336" lon="-4.86792320386029">
        <ele>1177.5611114502</ele>
        <time>2018-09-02T12:44:04Z</time>
      </trkpt>
      <trkpt lat="43.0211041588737" lon="-4.86800953746295">
        <ele>1177.76301574707</ele>
        <time>2018-09-02T12:44:05Z</time>
      </trkpt>
      <trkpt lat="43.0210700026183" lon="-4.86809302121854">
        <ele>1177.64399719238</ele>
        <time>2018-09-02T12:44:06Z</time>
      </trkpt>
      <trkpt lat="43.0210345052583" lon="-4.8681851383344">
        <ele>1176.53926086426</ele>
        <time>2018-09-02T12:44:07Z</time>
      </trkpt>
      <trkpt lat="43.0210033245785" lon="-4.86826996319449">
        <ele>1176.08979797363</ele>
        <time>2018-09-02T12:44:08Z</time>
      </trkpt>
      <trkpt lat="43.0209707608847" lon="-4.8683577217207">
        <ele>1176.73384094238</ele>
        <time>2018-09-02T12:44:09Z</time>
      </trkpt>
      <trkpt lat="43.0209421366854" lon="-4.86843508668697">
        <ele>1177.17500305176</ele>
        <time>2018-09-02T12:44:10Z</time>
      </trkpt>
      <trkpt lat="43.0209064716874" lon="-4.86852644943154">
        <ele>1176.97724914551</ele>
        <time>2018-09-02T12:44:11Z</time>
      </trkpt>
      <trkpt lat="43.0208738660841" lon="-4.86859543249464">
        <ele>1176.6089630127</ele>
        <time>2018-09-02T12:44:12Z</time>
      </trkpt>
      <trkpt lat="43.0208480917318" lon="-4.86867112108028">
        <ele>1177.16938781738</ele>
        <time>2018-09-02T12:44:13Z</time>
      </trkpt>
      <trkpt lat="43.020818210247" lon="-4.86876692623353">
        <ele>1177.04914855957</ele>
        <time>2018-09-02T12:44:14Z</time>
      </trkpt>
      <trkpt lat="43.0207774322881" lon="-4.86885225400782">
        <ele>1176.63935852051</ele>
        <time>2018-09-02T12:44:15Z</time>
      </trkpt>
      <trkpt lat="43.0207443656801" lon="-4.86894328147626">
        <ele>1176.5884552002</ele>
        <time>2018-09-02T12:44:16Z</time>
      </trkpt>
      <trkpt lat="43.0207248358457" lon="-4.86902416684187">
        <ele>1177.75019836426</ele>
        <time>2018-09-02T12:44:17Z</time>
      </trkpt>
      <trkpt lat="43.0206827586917" lon="-4.86910991371131">
        <ele>1177.61518859863</ele>
        <time>2018-09-02T12:44:18Z</time>
      </trkpt>
      <trkpt lat="43.02064654887" lon="-4.86919607967592">
        <ele>1177.90229797363</ele>
        <time>2018-09-02T12:44:19Z</time>
      </trkpt>
      <trkpt lat="43.0206126021622" lon="-4.86928283237374">
        <ele>1179.50752258301</ele>
        <time>2018-09-02T12:44:20Z</time>
      </trkpt>
      <trkpt lat="43.0205836007772" lon="-4.86936246045387">
        <ele>1180.50984191895</ele>
        <time>2018-09-02T12:44:21Z</time>
      </trkpt>
      <trkpt lat="43.0205530487402" lon="-4.86944619566656">
        <ele>1180.52607727051</ele>
        <time>2018-09-02T12:44:22Z</time>
      </trkpt>
      <trkpt lat="43.020519563037" lon="-4.86952029169059">
        <ele>1180.14472961426</ele>
        <time>2018-09-02T12:44:23Z</time>
      </trkpt>
      <trkpt lat="43.0204896396427" lon="-4.86959547736204">
        <ele>1180.1157989502</ele>
        <time>2018-09-02T12:44:24Z</time>
      </trkpt>
      <trkpt lat="43.0204597162483" lon="-4.86966890283382">
        <ele>1180.26545715332</ele>
        <time>2018-09-02T12:44:25Z</time>
      </trkpt>
      <trkpt lat="43.0204250989882" lon="-4.86973964609659">
        <ele>1181.05989074707</ele>
        <time>2018-09-02T12:44:26Z</time>
      </trkpt>
      <trkpt lat="43.0203910684614" lon="-4.8698202800051">
        <ele>1181.00361633301</ele>
        <time>2018-09-02T12:44:27Z</time>
      </trkpt>
      <trkpt lat="43.0203667190327" lon="-4.8698789533273">
        <ele>1181.20100402832</ele>
        <time>2018-09-02T12:44:28Z</time>
      </trkpt>
      <trkpt lat="43.0203392263903" lon="-4.86994827166653">
        <ele>1181.66035461426</ele>
        <time>2018-09-02T12:44:29Z</time>
      </trkpt>
      <trkpt lat="43.0203033099352" lon="-4.87001440488256">
        <ele>1181.35322570801</ele>
        <time>2018-09-02T12:44:30Z</time>
      </trkpt>
      <trkpt lat="43.0202673515706" lon="-4.87007735297537">
        <ele>1181.31623840332</ele>
        <time>2018-09-02T12:44:31Z</time>
      </trkpt>
      <trkpt lat="43.0202294653682" lon="-4.8701363615737">
        <ele>1181.13850402832</ele>
        <time>2018-09-02T12:44:32Z</time>
      </trkpt>
      <trkpt lat="43.0201889807759" lon="-4.87020132132328">
        <ele>1180.86018371582</ele>
        <time>2018-09-02T12:44:33Z</time>
      </trkpt>
      <trkpt lat="43.02014707126" lon="-4.87026066519774">
        <ele>1181.55415344238</ele>
        <time>2018-09-02T12:44:34Z</time>
      </trkpt>
      <trkpt lat="43.0201020185305" lon="-4.87031514756835">
        <ele>1181.11360168457</ele>
        <time>2018-09-02T12:44:35Z</time>
      </trkpt>
      <trkpt lat="43.020041375461" lon="-4.87038647756434">
        <ele>1179.91682434082</ele>
        <time>2018-09-02T12:44:36Z</time>
      </trkpt>
      <trkpt lat="43.0199923413275" lon="-4.87044288777269">
        <ele>1179.19831848145</ele>
        <time>2018-09-02T12:44:37Z</time>
      </trkpt>
      <trkpt lat="43.0199359311192" lon="-4.87050374038971">
        <ele>1178.51557922363</ele>
        <time>2018-09-02T12:44:38Z</time>
      </trkpt>
      <trkpt lat="43.0198753299592" lon="-4.87056165934063">
        <ele>1177.8657989502</ele>
        <time>2018-09-02T12:44:39Z</time>
      </trkpt>
      <trkpt lat="43.0198094482003" lon="-4.87062569708086">
        <ele>1177.57490539551</ele>
        <time>2018-09-02T12:44:40Z</time>
      </trkpt>
      <trkpt lat="43.0197431892557" lon="-4.87069535069621">
        <ele>1177.94062805176</ele>
        <time>2018-09-02T12:44:41Z</time>
      </trkpt>
      <trkpt lat="43.0196737451879" lon="-4.8707669321493">
        <ele>1177.95259094238</ele>
        <time>2018-09-02T12:44:42Z</time>
      </trkpt>
      <trkpt lat="43.0195978470547" lon="-4.87083792686916">
        <ele>1177.69441223145</ele>
        <time>2018-09-02T12:44:43Z</time>
      </trkpt>
      <trkpt lat="43.0195296602724" lon="-4.87091663293994">
        <ele>1177.48225402832</ele>
        <time>2018-09-02T12:44:44Z</time>
      </trkpt>
      <trkpt lat="43.019458623643" lon="-4.87099408172525">
        <ele>1177.05354309082</ele>
        <time>2018-09-02T12:44:45Z</time>
      </trkpt>
      <trkpt lat="43.0193846952571" lon="-4.87107153051055">
        <ele>1177.58515930176</ele>
        <time>2018-09-02T12:44:46Z</time>
      </trkpt>
      <trkpt lat="43.0193130718945" lon="-4.87114042975462">
        <ele>1177.40010070801</ele>
        <time>2018-09-02T12:44:47Z</time>
      </trkpt>
      <trkpt lat="43.0192274088441" lon="-4.8712122626648">
        <ele>1176.40168762207</ele>
        <time>2018-09-02T12:44:48Z</time>
      </trkpt>
      <trkpt lat="43.0191441765456" lon="-4.8712846823082">
        <ele>1175.0982208252</ele>
        <time>2018-09-02T12:44:49Z</time>
      </trkpt>
      <trkpt lat="43.0190761993108" lon="-4.8713472951249">
        <ele>1174.88691711426</ele>
        <time>2018-09-02T12:44:50Z</time>
      </trkpt>
      <trkpt lat="43.0189896142511" lon="-4.87141736783541">
        <ele>1173.73933410645</ele>
        <time>2018-09-02T12:44:51Z</time>
      </trkpt>
      <trkpt lat="43.0189104890851" lon="-4.87147646025277">
        <ele>1173.39131164551</ele>
        <time>2018-09-02T12:44:52Z</time>
      </trkpt>
      <trkpt lat="43.0188267119629" lon="-4.8715283442334">
        <ele>1173.49043273926</ele>
        <time>2018-09-02T12:44:53Z</time>
      </trkpt>
      <trkpt lat="43.0187379476084" lon="-4.87156606279767">
        <ele>1173.31916809082</ele>
        <time>2018-09-02T12:44:54Z</time>
      </trkpt>
      <trkpt lat="43.0186647316842" lon="-4.87161300145543">
        <ele>1174.10981750488</ele>
        <time>2018-09-02T12:44:55Z</time>
      </trkpt>
      <trkpt lat="43.0185941560595" lon="-4.87166371196962">
        <ele>1174.52290344238</ele>
        <time>2018-09-02T12:44:56Z</time>
      </trkpt>
      <trkpt lat="43.018514905165" lon="-4.87170930952287">
        <ele>1174.89692687988</ele>
        <time>2018-09-02T12:44:57Z</time>
      </trkpt>
      <trkpt lat="43.0184397194935" lon="-4.87175549380935">
        <ele>1174.53352355957</ele>
        <time>2018-09-02T12:44:58Z</time>
      </trkpt>
      <trkpt lat="43.0183603428705" lon="-4.87179639749683">
        <ele>1174.42597961426</ele>
        <time>2018-09-02T12:44:59Z</time>
      </trkpt>
      <trkpt lat="43.0182873784034" lon="-4.87183964811719">
        <ele>1174.46662902832</ele>
        <time>2018-09-02T12:45:00Z</time>
      </trkpt>
      <trkpt lat="43.0182145815743" lon="-4.87189547159231">
        <ele>1174.1851348877</ele>
        <time>2018-09-02T12:45:01Z</time>
      </trkpt>
      <trkpt lat="43.0181459337874" lon="-4.87195665948547">
        <ele>1174.00910949707</ele>
        <time>2018-09-02T12:45:02Z</time>
      </trkpt>
      <trkpt lat="43.0180855840845" lon="-4.87202136777795">
        <ele>1173.1021270752</ele>
        <time>2018-09-02T12:45:03Z</time>
      </trkpt>
      <trkpt lat="43.0180274136765" lon="-4.87209118903137">
        <ele>1173.55000305176</ele>
        <time>2018-09-02T12:45:04Z</time>
      </trkpt>
      <trkpt lat="43.0179643817647" lon="-4.87216226757026">
        <ele>1172.29890441895</ele>
        <time>2018-09-02T12:45:05Z</time>
      </trkpt>
      <trkpt lat="43.0179104023082" lon="-4.87221105024672">
        <ele>1172.79402160645</ele>
        <time>2018-09-02T12:45:06Z</time>
      </trkpt>
      <trkpt lat="43.0178390304027" lon="-4.87225413322903">
        <ele>1173.29475402832</ele>
        <time>2018-09-02T12:45:07Z</time>
      </trkpt>
      <trkpt lat="43.0177731067343" lon="-4.87229721621133">
        <ele>1172.07832336426</ele>
        <time>2018-09-02T12:45:08Z</time>
      </trkpt>
      <trkpt lat="43.0176950293062" lon="-4.87233535387076">
        <ele>1172.17109680176</ele>
        <time>2018-09-02T12:45:09Z</time>
      </trkpt>
      <trkpt lat="43.0176197598158" lon="-4.87238774076558">
        <ele>1171.74226379395</ele>
        <time>2018-09-02T12:45:10Z</time>
      </trkpt>
      <trkpt lat="43.0175445322348" lon="-4.87244163640297">
        <ele>1171.60920715332</ele>
        <time>2018-09-02T12:45:11Z</time>
      </trkpt>
      <trkpt lat="43.0174707295774" lon="-4.87250098027743">
        <ele>1171.60957336426</ele>
        <time>2018-09-02T12:45:12Z</time>
      </trkpt>
      <trkpt lat="43.01738913175" lon="-4.87255261280096">
        <ele>1171.13362121582</ele>
        <time>2018-09-02T12:45:13Z</time>
      </trkpt>
      <trkpt lat="43.0173077434702" lon="-4.8726005572871">
        <ele>1170.54817199707</ele>
        <time>2018-09-02T12:45:14Z</time>
      </trkpt>
      <trkpt lat="43.0172281153901" lon="-4.87264808267809">
        <ele>1170.25288391113</ele>
        <time>2018-09-02T12:45:15Z</time>
      </trkpt>
      <trkpt lat="43.0171399377687" lon="-4.87269426696456">
        <ele>1169.65119934082</ele>
        <time>2018-09-02T12:45:16Z</time>
      </trkpt>
      <trkpt lat="43.0170554900943" lon="-4.87274849787808">
        <ele>1168.4644317627</ele>
        <time>2018-09-02T12:45:17Z</time>
      </trkpt>
      <trkpt lat="43.0169679830251" lon="-4.87280314788676">
        <ele>1168.03047180176</ele>
        <time>2018-09-02T12:45:18Z</time>
      </trkpt>
      <trkpt lat="43.0168860080121" lon="-4.87285436131514">
        <ele>1167.83967590332</ele>
        <time>2018-09-02T12:45:19Z</time>
      </trkpt>
      <trkpt lat="43.0168038234515" lon="-4.8729028925345">
        <ele>1166.95576477051</ele>
        <time>2018-09-02T12:45:20Z</time>
      </trkpt>
      <trkpt lat="43.0167187471343" lon="-4.87294823863066">
        <ele>1166.3501739502</ele>
        <time>2018-09-02T12:45:21Z</time>
      </trkpt>
      <trkpt lat="43.0166394962398" lon="-4.8730017151729">
        <ele>1167.07820129395</ele>
        <time>2018-09-02T12:45:22Z</time>
      </trkpt>
      <trkpt lat="43.0165571021317" lon="-4.87305192277289">
        <ele>1166.46614074707</ele>
        <time>2018-09-02T12:45:23Z</time>
      </trkpt>
      <trkpt lat="43.0164783541514" lon="-4.87309852615453">
        <ele>1165.63117980957</ele>
        <time>2018-09-02T12:45:24Z</time>
      </trkpt>
      <trkpt lat="43.0164010310946" lon="-4.87314303406037">
        <ele>1165.38679504395</ele>
        <time>2018-09-02T12:45:25Z</time>
      </trkpt>
      <trkpt lat="43.0163281923561" lon="-4.8731983546213">
        <ele>1164.93208312988</ele>
        <time>2018-09-02T12:45:26Z</time>
      </trkpt>
      <trkpt lat="43.0162648251681" lon="-4.87325032242096">
        <ele>1165.27937316895</ele>
        <time>2018-09-02T12:45:27Z</time>
      </trkpt>
      <trkpt lat="43.0161913996963" lon="-4.87330145203031">
        <ele>1165.64350891113</ele>
        <time>2018-09-02T12:45:28Z</time>
      </trkpt>
      <trkpt lat="43.0161247216566" lon="-4.87334026024199">
        <ele>1165.71589660645</ele>
        <time>2018-09-02T12:45:29Z</time>
      </trkpt>
      <trkpt lat="43.0160684371768" lon="-4.87339608371712">
        <ele>1166.01008605957</ele>
        <time>2018-09-02T12:45:30Z</time>
      </trkpt>
      <trkpt lat="43.0160048604412" lon="-4.87345039844967">
        <ele>1165.88227844238</ele>
        <time>2018-09-02T12:45:31Z</time>
      </trkpt>
      <trkpt lat="43.015960729721" lon="-4.87351921387471">
        <ele>1166.91670227051</ele>
        <time>2018-09-02T12:45:32Z</time>
      </trkpt>
      <trkpt lat="43.0159234721614" lon="-4.87359657884098">
        <ele>1167.16743469238</ele>
        <time>2018-09-02T12:45:33Z</time>
      </trkpt>
      <trkpt lat="43.0158975301711" lon="-4.87368098460592">
        <ele>1167.98603820801</ele>
        <time>2018-09-02T12:45:34Z</time>
      </trkpt>
      <trkpt lat="43.0158792157127" lon="-4.87376891077019">
        <ele>1168.60823059082</ele>
        <time>2018-09-02T12:45:35Z</time>
      </trkpt>
      <trkpt lat="43.0158609431638" lon="-4.87385449000157">
        <ele>1169.26277160645</ele>
        <time>2018-09-02T12:45:36Z</time>
      </trkpt>
      <trkpt lat="43.0158398207678" lon="-4.87393738702393">
        <ele>1168.88777160645</ele>
        <time>2018-09-02T12:45:37Z</time>
      </trkpt>
      <trkpt lat="43.0158320675073" lon="-4.8740271572069">
        <ele>1168.28266906738</ele>
        <time>2018-09-02T12:45:38Z</time>
      </trkpt>
      <trkpt lat="43.0158148007868" lon="-4.87411826849438">
        <ele>1167.9116973877</ele>
        <time>2018-09-02T12:45:39Z</time>
      </trkpt>
      <trkpt lat="43.0157992104469" lon="-4.87419353798486">
        <ele>1167.46089172363</ele>
        <time>2018-09-02T12:45:40Z</time>
      </trkpt>
      <trkpt lat="43.0157828657357" lon="-4.87427534535981">
        <ele>1167.90632629395</ele>
        <time>2018-09-02T12:45:41Z</time>
      </trkpt>
      <trkpt lat="43.0157803930743" lon="-4.87435866147734">
        <ele>1169.77937316895</ele>
        <time>2018-09-02T12:45:42Z</time>
      </trkpt>
      <trkpt lat="43.0157586420355" lon="-4.87445706502057">
        <ele>1170.07331848145</ele>
        <time>2018-09-02T12:45:43Z</time>
      </trkpt>
      <trkpt lat="43.0157459434522" lon="-4.87455437891639">
        <ele>1170.16816711426</ele>
        <time>2018-09-02T12:45:44Z</time>
      </trkpt>
      <trkpt lat="43.0157251144229" lon="-4.87463861704327">
        <ele>1169.88972473145</ele>
        <time>2018-09-02T12:45:45Z</time>
      </trkpt>
      <trkpt lat="43.0157042853935" lon="-4.87472964451171">
        <ele>1169.02961730957</ele>
        <time>2018-09-02T12:45:46Z</time>
      </trkpt>
      <trkpt lat="43.0156836659117" lon="-4.87481597811438">
        <ele>1168.79866027832</ele>
        <time>2018-09-02T12:45:47Z</time>
      </trkpt>
      <trkpt lat="43.0156681174813" lon="-4.87490306608833">
        <ele>1168.45515441895</ele>
        <time>2018-09-02T12:45:48Z</time>
      </trkpt>
      <trkpt lat="43.0156505573942" lon="-4.87499727867998">
        <ele>1167.84736633301</ele>
        <time>2018-09-02T12:45:49Z</time>
      </trkpt>
      <trkpt lat="43.0156310694693" lon="-4.87509601749934">
        <ele>1167.35078430176</ele>
        <time>2018-09-02T12:45:50Z</time>
      </trkpt>
      <trkpt lat="43.0156090669735" lon="-4.87519592978514">
        <ele>1168.23628234863</ele>
        <time>2018-09-02T12:45:51Z</time>
      </trkpt>
      <trkpt lat="43.0155868968396" lon="-4.87529642880417">
        <ele>1168.48481750488</ele>
        <time>2018-09-02T12:45:52Z</time>
      </trkpt>
      <trkpt lat="43.0155649781628" lon="-4.87539726309932">
        <ele>1168.73091125488</ele>
        <time>2018-09-02T12:45:53Z</time>
      </trkpt>
      <trkpt lat="43.0155438557668" lon="-4.87549558282353">
        <ele>1168.71418762207</ele>
        <time>2018-09-02T12:45:54Z</time>
      </trkpt>
      <trkpt lat="43.015529899898" lon="-4.8756020329938">
        <ele>1168.37959289551</ele>
        <time>2018-09-02T12:45:55Z</time>
      </trkpt>
      <trkpt lat="43.0155065982072" lon="-4.87571183592535">
        <ele>1168.21308898926</ele>
        <time>2018-09-02T12:45:56Z</time>
      </trkpt>
      <trkpt lat="43.0154892476676" lon="-4.87582080066658">
        <ele>1168.09565734863</ele>
        <time>2018-09-02T12:45:57Z</time>
      </trkpt>
      <trkpt lat="43.0154654849721" lon="-4.87592834048427">
        <ele>1168.10432434082</ele>
        <time>2018-09-02T12:45:58Z</time>
      </trkpt>
      <trkpt lat="43.0154457036806" lon="-4.87604250200547">
        <ele>1168.0308380127</ele>
        <time>2018-09-02T12:45:59Z</time>
      </trkpt>
      <trkpt lat="43.0154205160616" lon="-4.87615406513668">
        <ele>1167.68391418457</ele>
        <time>2018-09-02T12:46:00Z</time>
      </trkpt>
      <trkpt lat="43.0153973400993" lon="-4.87626772374369">
        <ele>1168.03266906738</ele>
        <time>2018-09-02T12:46:01Z</time>
      </trkpt>
      <trkpt lat="43.0153738707705" lon="-4.87635665573634">
        <ele>1169.75813293457</ele>
        <time>2018-09-02T12:46:02Z</time>
      </trkpt>
      <trkpt lat="43.0153522454603" lon="-4.87644676119543">
        <ele>1170.28047180176</ele>
        <time>2018-09-02T12:46:03Z</time>
      </trkpt>
      <trkpt lat="43.0153194303094" lon="-4.87653376535035">
        <ele>1170.15559387207</ele>
        <time>2018-09-02T12:46:04Z</time>
      </trkpt>
      <trkpt lat="43.0152772693364" lon="-4.87661414780177">
        <ele>1169.10383605957</ele>
        <time>2018-09-02T12:46:05Z</time>
      </trkpt>
      <trkpt lat="43.015226055908" lon="-4.87668044865586">
        <ele>1169.35859680176</ele>
        <time>2018-09-02T12:46:06Z</time>
      </trkpt>
      <trkpt lat="43.0151741719274" lon="-4.87673149444617">
        <ele>1170.02937316895</ele>
        <time>2018-09-02T12:46:07Z</time>
      </trkpt>
      <trkpt lat="43.0151121877534" lon="-4.87677759491361">
        <ele>1169.5386505127</ele>
        <time>2018-09-02T12:46:08Z</time>
      </trkpt>
      <trkpt lat="43.0150483176513" lon="-4.87681556493498">
        <ele>1169.9634552002</ele>
        <time>2018-09-02T12:46:09Z</time>
      </trkpt>
      <trkpt lat="43.0149852438299" lon="-4.87685747445084">
        <ele>1169.5904083252</ele>
        <time>2018-09-02T12:46:10Z</time>
      </trkpt>
      <trkpt lat="43.0149233853845" lon="-4.87689217552997">
        <ele>1169.84016418457</ele>
        <time>2018-09-02T12:46:11Z</time>
      </trkpt>
      <trkpt lat="43.0148630356817" lon="-4.87692796625651">
        <ele>1170.23640441895</ele>
        <time>2018-09-02T12:46:12Z</time>
      </trkpt>
      <trkpt lat="43.0148032308025" lon="-4.87697138451494">
        <ele>1169.64363098145</ele>
        <time>2018-09-02T12:46:13Z</time>
      </trkpt>
      <trkpt lat="43.0147624947531" lon="-4.87701924518205">
        <ele>1168.87678527832</ele>
        <time>2018-09-02T12:46:14Z</time>
      </trkpt>
      <trkpt lat="43.0147217587037" lon="-4.87709158100642">
        <ele>1169.76594543457</ele>
        <time>2018-09-02T12:46:15Z</time>
      </trkpt>
      <trkpt lat="43.0146901589288" lon="-4.87717313692428">
        <ele>1169.49385070801</ele>
        <time>2018-09-02T12:46:16Z</time>
      </trkpt>
      <trkpt lat="43.0146662705047" lon="-4.87725201063312">
        <ele>1169.49934387207</ele>
        <time>2018-09-02T12:46:17Z</time>
      </trkpt>
      <trkpt lat="43.0146424658997" lon="-4.87733088434197">
        <ele>1169.00898742676</ele>
        <time>2018-09-02T12:46:18Z</time>
      </trkpt>
      <trkpt lat="43.0146197928516" lon="-4.87741361372627">
        <ele>1167.92500305176</ele>
        <time>2018-09-02T12:46:19Z</time>
      </trkpt>
      <trkpt lat="43.0146021070359" lon="-4.87747656181909">
        <ele>1168.96760559082</ele>
        <time>2018-09-02T12:46:20Z</time>
      </trkpt>
      <trkpt lat="43.0145792663498" lon="-4.87754680216767">
        <ele>1169.11006164551</ele>
        <time>2018-09-02T12:46:21Z</time>
      </trkpt>
      <trkpt lat="43.0145654362096" lon="-4.87761888653494">
        <ele>1168.8560333252</ele>
        <time>2018-09-02T12:46:22Z</time>
      </trkpt>
      <trkpt lat="43.0145265022693" lon="-4.87770136446215">
        <ele>1167.5777130127</ele>
        <time>2018-09-02T12:46:23Z</time>
      </trkpt>
      <trkpt lat="43.0144977104319" lon="-4.87779004499771">
        <ele>1167.02851867676</ele>
        <time>2018-09-02T12:46:24Z</time>
      </trkpt>
      <trkpt lat="43.0144629674433" lon="-4.87787897699036">
        <ele>1166.10041809082</ele>
        <time>2018-09-02T12:46:25Z</time>
      </trkpt>
      <trkpt lat="43.0144416774092" lon="-4.87795667723276">
        <ele>1165.97395324707</ele>
        <time>2018-09-02T12:46:26Z</time>
      </trkpt>
      <trkpt lat="43.0144168669758" lon="-4.87804493867315">
        <ele>1166.10066223145</ele>
        <time>2018-09-02T12:46:27Z</time>
      </trkpt>
      <trkpt lat="43.0143781425832" lon="-4.8781388998077">
        <ele>1165.82807922363</ele>
        <time>2018-09-02T12:46:28Z</time>
      </trkpt>
      <trkpt lat="43.0143461656226" lon="-4.87823227420904">
        <ele>1164.91596984863</ele>
        <time>2018-09-02T12:46:29Z</time>
      </trkpt>
      <trkpt lat="43.0143174576042" lon="-4.87833344378032">
        <ele>1164.32002258301</ele>
        <time>2018-09-02T12:46:30Z</time>
      </trkpt>
      <trkpt lat="43.0142867379291" lon="-4.8784327693329">
        <ele>1164.38362121582</ele>
        <time>2018-09-02T12:46:31Z</time>
      </trkpt>
      <trkpt lat="43.0142637296049" lon="-4.87853175960935">
        <ele>1163.67610168457</ele>
        <time>2018-09-02T12:46:32Z</time>
      </trkpt>
      <trkpt lat="43.0142338900296" lon="-4.87863083370484">
        <ele>1163.18757629395</ele>
        <time>2018-09-02T12:46:33Z</time>
      </trkpt>
      <trkpt lat="43.0142033799021" lon="-4.87873284146644">
        <ele>1163.44575500488</ele>
        <time>2018-09-02T12:46:34Z</time>
      </trkpt>
      <trkpt lat="43.0141800363017" lon="-4.87883166410483">
        <ele>1162.90620422363</ele>
        <time>2018-09-02T12:46:35Z</time>
      </trkpt>
      <trkpt lat="43.0141546810446" lon="-4.878935180609">
        <ele>1161.69599914551</ele>
        <time>2018-09-02T12:46:36Z</time>
      </trkpt>
      <trkpt lat="43.0141259730263" lon="-4.87903266214289">
        <ele>1161.34858703613</ele>
        <time>2018-09-02T12:46:37Z</time>
      </trkpt>
      <trkpt lat="43.0140955886273" lon="-4.87913399935223">
        <ele>1160.77644348145</ele>
        <time>2018-09-02T12:46:38Z</time>
      </trkpt>
      <trkpt lat="43.0140670063375" lon="-4.87922687083937">
        <ele>1160.47846984863</ele>
        <time>2018-09-02T12:46:39Z</time>
      </trkpt>
      <trkpt lat="43.014044542837" lon="-4.87932225689746">
        <ele>1162.06513977051</ele>
        <time>2018-09-02T12:46:40Z</time>
      </trkpt>
      <trkpt lat="43.0140066147251" lon="-4.87942309119262">
        <ele>1162.13752746582</ele>
        <time>2018-09-02T12:46:41Z</time>
      </trkpt>
      <trkpt lat="43.0139761465071" lon="-4.87951814197458">
        <ele>1161.68013000488</ele>
        <time>2018-09-02T12:46:42Z</time>
      </trkpt>
      <trkpt lat="43.0139486119552" lon="-4.87961118109979">
        <ele>1161.84101867676</ele>
        <time>2018-09-02T12:46:43Z</time>
      </trkpt>
      <trkpt lat="43.0139184790133" lon="-4.87970681861497">
        <ele>1161.75654602051</ele>
        <time>2018-09-02T12:46:44Z</time>
      </trkpt>
      <trkpt lat="43.0138875078811" lon="-4.87979264930345">
        <ele>1161.65596008301</ele>
        <time>2018-09-02T12:46:45Z</time>
      </trkpt>
      <trkpt lat="43.0138630327238" lon="-4.87988367677189">
        <ele>1161.64302062988</ele>
        <time>2018-09-02T12:46:46Z</time>
      </trkpt>
      <trkpt lat="43.0138348695291" lon="-4.8799698427365">
        <ele>1162.03242492676</ele>
        <time>2018-09-02T12:46:47Z</time>
      </trkpt>
      <trkpt lat="43.0138104781909" lon="-4.88006170839526">
        <ele>1162.13545227051</ele>
        <time>2018-09-02T12:46:48Z</time>
      </trkpt>
      <trkpt lat="43.0137797166063" lon="-4.88014510833181">
        <ele>1162.40718078613</ele>
        <time>2018-09-02T12:46:49Z</time>
      </trkpt>
      <trkpt lat="43.0137487035645" lon="-4.88023261540093">
        <ele>1162.03999328613</ele>
        <time>2018-09-02T12:46:50Z</time>
      </trkpt>
      <trkpt lat="43.0137157626851" lon="-4.88030956127204">
        <ele>1162.43269348145</ele>
        <time>2018-09-02T12:46:51Z</time>
      </trkpt>
      <trkpt lat="43.0136763258306" lon="-4.8803789634303">
        <ele>1162.6197052002</ele>
        <time>2018-09-02T12:46:52Z</time>
      </trkpt>
      <trkpt lat="43.0136329075722" lon="-4.88044417463697">
        <ele>1163.38459777832</ele>
        <time>2018-09-02T12:46:53Z</time>
      </trkpt>
      <trkpt lat="43.0135829514293" lon="-4.88049991429307">
        <ele>1163.06465148926</ele>
        <time>2018-09-02T12:46:54Z</time>
      </trkpt>
      <trkpt lat="43.0135281756921" lon="-4.88053629175283">
        <ele>1163.63227844238</ele>
        <time>2018-09-02T12:46:55Z</time>
      </trkpt>
      <trkpt lat="43.0134661496086" lon="-4.88056688569941">
        <ele>1165.2134552002</ele>
        <time>2018-09-02T12:46:56Z</time>
      </trkpt>
      <trkpt lat="43.0134060094534" lon="-4.88060183823563">
        <ele>1165.2447052002</ele>
        <time>2018-09-02T12:46:57Z</time>
      </trkpt>
      <trkpt lat="43.0133466236694" lon="-4.88062715158321">
        <ele>1164.79475402832</ele>
        <time>2018-09-02T12:46:58Z</time>
      </trkpt>
      <trkpt lat="43.0132733658357" lon="-4.88066168502428">
        <ele>1163.8589630127</ele>
        <time>2018-09-02T12:46:59Z</time>
      </trkpt>
      <trkpt lat="43.0132062687008" lon="-4.88068062812544">
        <ele>1163.96260070801</ele>
        <time>2018-09-02T12:47:00Z</time>
      </trkpt>
      <trkpt lat="43.0131434463365" lon="-4.88070267253079">
        <ele>1162.80183410645</ele>
        <time>2018-09-02T12:47:01Z</time>
      </trkpt>
      <trkpt lat="43.0130839767335" lon="-4.88073175773479">
        <ele>1162.29902648926</ele>
        <time>2018-09-02T12:47:02Z</time>
      </trkpt>
      <trkpt lat="43.0130248424066" lon="-4.88075019792177">
        <ele>1162.68525695801</ele>
        <time>2018-09-02T12:47:03Z</time>
      </trkpt>
      <trkpt lat="43.0129706114931" lon="-4.88076788373746">
        <ele>1163.53877258301</ele>
        <time>2018-09-02T12:47:04Z</time>
      </trkpt>
      <trkpt lat="43.0129056517435" lon="-4.88077668473579">
        <ele>1163.96076965332</ele>
        <time>2018-09-02T12:47:05Z</time>
      </trkpt>
      <trkpt lat="43.0128411529986" lon="-4.88079160452344">
        <ele>1163.79707336426</ele>
        <time>2018-09-02T12:47:06Z</time>
      </trkpt>
      <trkpt lat="43.0127833597763" lon="-4.88081515767135">
        <ele>1164.27082824707</ele>
        <time>2018-09-02T12:47:07Z</time>
      </trkpt>
      <trkpt lat="43.0127347028284" lon="-4.88084223121859">
        <ele>1164.62495422363</ele>
        <time>2018-09-02T12:47:08Z</time>
      </trkpt>
      <trkpt lat="43.0126855010567" lon="-4.88088673912443">
        <ele>1165.55891418457</ele>
        <time>2018-09-02T12:47:09Z</time>
      </trkpt>
      <trkpt lat="43.012641244608" lon="-4.88093493506767">
        <ele>1165.79219055176</ele>
        <time>2018-09-02T12:47:10Z</time>
      </trkpt>
      <trkpt lat="43.0126022687582" lon="-4.88100014627434">
        <ele>1165.43635559082</ele>
        <time>2018-09-02T12:47:11Z</time>
      </trkpt>
      <trkpt lat="43.0125649692891" lon="-4.88106770441391">
        <ele>1165.98127746582</ele>
        <time>2018-09-02T12:47:12Z</time>
      </trkpt>
      <trkpt lat="43.0125233531399" lon="-4.88113677129604">
        <ele>1165.67097473145</ele>
        <time>2018-09-02T12:47:13Z</time>
      </trkpt>
      <trkpt lat="43.012488107237" lon="-4.8812008928553">
        <ele>1165.72309875488</ele>
        <time>2018-09-02T12:47:14Z</time>
      </trkpt>
      <trkpt lat="43.0124493828444" lon="-4.88127607852675">
        <ele>1165.97358703613</ele>
        <time>2018-09-02T12:47:15Z</time>
      </trkpt>
      <trkpt lat="43.0124076828761" lon="-4.88133584149636">
        <ele>1167.04890441895</ele>
        <time>2018-09-02T12:47:16Z</time>
      </trkpt>
      <trkpt lat="43.0123669887362" lon="-4.8814046569214">
        <ele>1167.48274230957</ele>
        <time>2018-09-02T12:47:17Z</time>
      </trkpt>
      <trkpt lat="43.0123224808304" lon="-4.88147313707031">
        <ele>1166.95625305176</ele>
        <time>2018-09-02T12:47:18Z</time>
      </trkpt>
      <trkpt lat="43.012271183583" lon="-4.88154488616146">
        <ele>1166.50984191895</ele>
        <time>2018-09-02T12:47:19Z</time>
      </trkpt>
      <trkpt lat="43.0122309085382" lon="-4.88161998801388">
        <ele>1166.05769348145</ele>
        <time>2018-09-02T12:47:20Z</time>
      </trkpt>
      <trkpt lat="43.0121869035466" lon="-4.88169936463691">
        <ele>1165.73701477051</ele>
        <time>2018-09-02T12:47:21Z</time>
      </trkpt>
      <trkpt lat="43.012135271023" lon="-4.88178377040185">
        <ele>1165.51545715332</ele>
        <time>2018-09-02T12:47:22Z</time>
      </trkpt>
      <trkpt lat="43.012083680409" lon="-4.88186683506228">
        <ele>1165.82429504395</ele>
        <time>2018-09-02T12:47:23Z</time>
      </trkpt>
      <trkpt lat="43.012041435617" lon="-4.88193791360118">
        <ele>1166.66682434082</ele>
        <time>2018-09-02T12:47:24Z</time>
      </trkpt>
      <trkpt lat="43.0119967181636" lon="-4.88202072680451">
        <ele>1166.42842102051</ele>
        <time>2018-09-02T12:47:25Z</time>
      </trkpt>
      <trkpt lat="43.0119478516681" lon="-4.88210563548364">
        <ele>1166.65498352051</ele>
        <time>2018-09-02T12:47:26Z</time>
      </trkpt>
      <trkpt lat="43.0119035952194" lon="-4.88218752667763">
        <ele>1167.35005187988</ele>
        <time>2018-09-02T12:47:27Z</time>
      </trkpt>
      <trkpt lat="43.0118538905336" lon="-4.88227067515709">
        <ele>1167.40754699707</ele>
        <time>2018-09-02T12:47:28Z</time>
      </trkpt>
      <trkpt lat="43.011796893592" lon="-4.88235541619815">
        <ele>1167.42280578613</ele>
        <time>2018-09-02T12:47:29Z</time>
      </trkpt>
      <trkpt lat="43.0117393099172" lon="-4.88243881613471">
        <ele>1168.18550109863</ele>
        <time>2018-09-02T12:47:30Z</time>
      </trkpt>
      <trkpt lat="43.011688431765" lon="-4.88252003677644">
        <ele>1168.7720489502</ele>
        <time>2018-09-02T12:47:31Z</time>
      </trkpt>
      <trkpt lat="43.0116319796471" lon="-4.88261223771133">
        <ele>1168.05610656738</ele>
        <time>2018-09-02T12:47:32Z</time>
      </trkpt>
      <trkpt lat="43.0115752341626" lon="-4.88269580528595">
        <ele>1167.63179016113</ele>
        <time>2018-09-02T12:47:33Z</time>
      </trkpt>
      <trkpt lat="43.0115323607279" lon="-4.88277878612735">
        <ele>1167.26753234863</ele>
        <time>2018-09-02T12:47:34Z</time>
      </trkpt>
      <trkpt lat="43.0114787165476" lon="-4.88286528736808">
        <ele>1166.96296691895</ele>
        <time>2018-09-02T12:47:35Z</time>
      </trkpt>
      <trkpt lat="43.0114210909633" lon="-4.88294944167592">
        <ele>1167.22273254395</ele>
        <time>2018-09-02T12:47:36Z</time>
      </trkpt>
      <trkpt lat="43.0113583524181" lon="-4.8830400500492">
        <ele>1165.19990539551</ele>
        <time>2018-09-02T12:47:37Z</time>
      </trkpt>
      <trkpt lat="43.0112906266404" lon="-4.88312638365187">
        <ele>1164.46675109863</ele>
        <time>2018-09-02T12:47:38Z</time>
      </trkpt>
      <trkpt lat="43.0112228589533" lon="-4.88321204670228">
        <ele>1162.71919250488</ele>
        <time>2018-09-02T12:47:39Z</time>
      </trkpt>
      <trkpt lat="43.0111543368949" lon="-4.88328144886054">
        <ele>1161.69416809082</ele>
        <time>2018-09-02T12:47:40Z</time>
      </trkpt>
      <trkpt lat="43.0110858986555" lon="-4.88334682770528">
        <ele>1159.96064758301</ele>
        <time>2018-09-02T12:47:41Z</time>
      </trkpt>
      <trkpt lat="43.0110100424318" lon="-4.88338823430695">
        <ele>1160.11958312988</ele>
        <time>2018-09-02T12:47:42Z</time>
      </trkpt>
      <trkpt lat="43.0109328870131" lon="-4.8834272101567">
        <ele>1159.35493469238</ele>
        <time>2018-09-02T12:47:43Z</time>
      </trkpt>
      <trkpt lat="43.010857324156" lon="-4.88346417434968">
        <ele>1159.73518371582</ele>
        <time>2018-09-02T12:47:44Z</time>
      </trkpt>
      <trkpt lat="43.0107887182785" lon="-4.88349451683917">
        <ele>1160.55085754395</ele>
        <time>2018-09-02T12:47:45Z</time>
      </trkpt>
      <trkpt lat="43.0107170530064" lon="-4.88353617489793">
        <ele>1161.09687805176</ele>
        <time>2018-09-02T12:47:46Z</time>
      </trkpt>
      <trkpt lat="43.0106306774942" lon="-4.88357163034834">
        <ele>1161.87007141113</ele>
        <time>2018-09-02T12:47:47Z</time>
      </trkpt>
      <trkpt lat="43.0105535220755" lon="-4.88360909745552">
        <ele>1161.65242004395</ele>
        <time>2018-09-02T12:47:48Z</time>
      </trkpt>
      <trkpt lat="43.0104971537767" lon="-4.88367648795702">
        <ele>1160.78132629395</ele>
        <time>2018-09-02T12:47:49Z</time>
      </trkpt>
      <trkpt lat="43.0104513466759" lon="-4.88374404609658">
        <ele>1160.38874816895</ele>
        <time>2018-09-02T12:47:50Z</time>
      </trkpt>
      <trkpt lat="43.010398959781" lon="-4.8838188964919">
        <ele>1159.00337219238</ele>
        <time>2018-09-02T12:47:51Z</time>
      </trkpt>
      <trkpt lat="43.0103491712762" lon="-4.88389131613531">
        <ele>1159.33564758301</ele>
        <time>2018-09-02T12:47:52Z</time>
      </trkpt>
      <trkpt lat="43.0103013525186" lon="-4.88396708853998">
        <ele>1158.60481262207</ele>
        <time>2018-09-02T12:47:53Z</time>
      </trkpt>
      <trkpt lat="43.0102571379794" lon="-4.88404227421143">
        <ele>1159.59480285645</ele>
        <time>2018-09-02T12:47:54Z</time>
      </trkpt>
      <trkpt lat="43.0102066789223" lon="-4.88411293365516">
        <ele>1159.97090148926</ele>
        <time>2018-09-02T12:47:55Z</time>
      </trkpt>
      <trkpt lat="43.0101586506171" lon="-4.88418401219406">
        <ele>1159.98420715332</ele>
        <time>2018-09-02T12:47:56Z</time>
      </trkpt>
      <trkpt lat="43.0101175792916" lon="-4.88424855284848">
        <ele>1161.44148254395</ele>
        <time>2018-09-02T12:47:57Z</time>
      </trkpt>
      <trkpt lat="43.0100708501814" lon="-4.88431401551225">
        <ele>1160.12483215332</ele>
        <time>2018-09-02T12:47:58Z</time>
      </trkpt>
      <trkpt lat="43.0100175412772" lon="-4.8843839205847">
        <ele>1158.8638458252</ele>
        <time>2018-09-02T12:47:59Z</time>
      </trkpt>
      <trkpt lat="43.0099572753934" lon="-4.88444158807852">
        <ele>1158.26362609863</ele>
        <time>2018-09-02T12:48:00Z</time>
      </trkpt>
      <trkpt lat="43.0099035893036" lon="-4.88449531607785">
        <ele>1160.04463195801</ele>
        <time>2018-09-02T12:48:01Z</time>
      </trkpt>
      <trkpt lat="43.0098421918629" lon="-4.88455030136265">
        <ele>1160.82148742676</ele>
        <time>2018-09-02T12:48:02Z</time>
      </trkpt>
      <trkpt lat="43.0097823031647" lon="-4.88460168242909">
        <ele>1160.14656066895</ele>
        <time>2018-09-02T12:48:03Z</time>
      </trkpt>
      <trkpt lat="43.0097166728629" lon="-4.88464032300272">
        <ele>1160.41914367676</ele>
        <time>2018-09-02T12:48:04Z</time>
      </trkpt>
      <trkpt lat="43.0096502043707" lon="-4.88467737101473">
        <ele>1160.28596496582</ele>
        <time>2018-09-02T12:48:05Z</time>
      </trkpt>
      <trkpt lat="43.0096160481153" lon="-4.88472439349153">
        <ele>1162.00959777832</ele>
        <time>2018-09-02T12:48:06Z</time>
      </trkpt>
      <trkpt lat="43.0095576681597" lon="-4.88477493636765">
        <ele>1161.4546661377</ele>
        <time>2018-09-02T12:48:07Z</time>
      </trkpt>
      <trkpt lat="43.0095141241727" lon="-4.88482430577733">
        <ele>1161.80061340332</ele>
        <time>2018-09-02T12:48:08Z</time>
      </trkpt>
      <trkpt lat="43.0094585102452" lon="-4.88487501629152">
        <ele>1161.99348449707</ele>
        <time>2018-09-02T12:48:09Z</time>
      </trkpt>
      <trkpt lat="43.0094137508823" lon="-4.88493570127048">
        <ele>1162.02827453613</ele>
        <time>2018-09-02T12:48:10Z</time>
      </trkpt>
      <trkpt lat="43.0093772896035" lon="-4.88500962965645">
        <ele>1161.87983703613</ele>
        <time>2018-09-02T12:48:11Z</time>
      </trkpt>
      <trkpt lat="43.0093560414789" lon="-4.88508372568049">
        <ele>1161.57075500488</ele>
        <time>2018-09-02T12:48:12Z</time>
      </trkpt>
      <trkpt lat="43.0093319435073" lon="-4.88515530713357">
        <ele>1160.71943664551</ele>
        <time>2018-09-02T12:48:13Z</time>
      </trkpt>
      <trkpt lat="43.0093073426215" lon="-4.88523225300469">
        <ele>1160.92878723145</ele>
        <time>2018-09-02T12:48:14Z</time>
      </trkpt>
      <trkpt lat="43.009286262135" lon="-4.88530467264809">
        <ele>1160.98042297363</ele>
        <time>2018-09-02T12:48:15Z</time>
      </trkpt>
      <trkpt lat="43.0092559615551" lon="-4.88537583500602">
        <ele>1160.55500793457</ele>
        <time>2018-09-02T12:48:16Z</time>
      </trkpt>
      <trkpt lat="43.0092214700235" lon="-4.88545655273356">
        <ele>1160.04536437988</ele>
        <time>2018-09-02T12:48:17Z</time>
      </trkpt>
      <trkpt lat="43.0091848830162" lon="-4.88553131930985">
        <ele>1159.1460723877</ele>
        <time>2018-09-02T12:48:18Z</time>
      </trkpt>
      <trkpt lat="43.0091473739995" lon="-4.88562217914023">
        <ele>1159.00679016113</ele>
        <time>2018-09-02T12:48:19Z</time>
      </trkpt>
      <trkpt lat="43.0091191269858" lon="-4.88570884801902">
        <ele>1158.74458312988</ele>
        <time>2018-09-02T12:48:20Z</time>
      </trkpt>
      <trkpt lat="43.009086563292" lon="-4.88579208031752">
        <ele>1157.59455871582</ele>
        <time>2018-09-02T12:48:21Z</time>
      </trkpt>
      <trkpt lat="43.0090551311551" lon="-4.885867349808">
        <ele>1157.98823547363</ele>
        <time>2018-09-02T12:48:22Z</time>
      </trkpt>
      <trkpt lat="43.0090161133958" lon="-4.88594815135457">
        <ele>1158.88801574707</ele>
        <time>2018-09-02T12:48:23Z</time>
      </trkpt>
      <trkpt lat="43.0089708930282" lon="-4.88602291793086">
        <ele>1158.88056945801</ele>
        <time>2018-09-02T12:48:24Z</time>
      </trkpt>
      <trkpt lat="43.0089468788756" lon="-4.88611126319029">
        <ele>1156.85847473145</ele>
        <time>2018-09-02T12:48:25Z</time>
      </trkpt>
      <trkpt lat="43.0089032510696" lon="-4.88618871197559">
        <ele>1157.44111633301</ele>
        <time>2018-09-02T12:48:26Z</time>
      </trkpt>
      <trkpt lat="43.0088636465771" lon="-4.88627353683569">
        <ele>1157.82356262207</ele>
        <time>2018-09-02T12:48:27Z</time>
      </trkpt>
      <trkpt lat="43.0088231200753" lon="-4.88635894842901">
        <ele>1158.03742980957</ele>
        <time>2018-09-02T12:48:28Z</time>
      </trkpt>
      <trkpt lat="43.0087820068402" lon="-4.88644754514553">
        <ele>1157.86531066895</ele>
        <time>2018-09-02T12:48:29Z</time>
      </trkpt>
      <trkpt lat="43.0087463837517" lon="-4.8865270055876">
        <ele>1158.97334289551</ele>
        <time>2018-09-02T12:48:30Z</time>
      </trkpt>
      <trkpt lat="43.0086898478149" lon="-4.88660663366773">
        <ele>1156.04817199707</ele>
        <time>2018-09-02T12:48:31Z</time>
      </trkpt>
      <trkpt lat="43.0086457590042" lon="-4.88668533973851">
        <ele>1154.38264465332</ele>
        <time>2018-09-02T12:48:32Z</time>
      </trkpt>
      <trkpt lat="43.0086129019437" lon="-4.88676060922899">
        <ele>1155.19380187988</ele>
        <time>2018-09-02T12:48:33Z</time>
      </trkpt>
      <trkpt lat="43.0085865408583" lon="-4.88683478907206">
        <ele>1154.56147766113</ele>
        <time>2018-09-02T12:48:34Z</time>
      </trkpt>
      <trkpt lat="43.0085520493267" lon="-4.88691492006638">
        <ele>1154.19819641113</ele>
        <time>2018-09-02T12:48:35Z</time>
      </trkpt>
      <trkpt lat="43.0085262330649" lon="-4.88699563779392">
        <ele>1156.51179504395</ele>
        <time>2018-09-02T12:48:36Z</time>
      </trkpt>
      <trkpt lat="43.008472211699" lon="-4.88707836717822">
        <ele>1155.11616516113</ele>
        <time>2018-09-02T12:48:37Z</time>
      </trkpt>
      <trkpt lat="43.0084280390693" lon="-4.88715581596353">
        <ele>1155.22236633301</ele>
        <time>2018-09-02T12:48:38Z</time>
      </trkpt>
      <trkpt lat="43.0083946371852" lon="-4.88722764887371">
        <ele>1155.12507629395</ele>
        <time>2018-09-02T12:48:39Z</time>
      </trkpt>
      <trkpt lat="43.0083662644429" lon="-4.88730241545">
        <ele>1155.58833312988</ele>
        <time>2018-09-02T12:48:40Z</time>
      </trkpt>
      <trkpt lat="43.0083437590329" lon="-4.88738254644432">
        <ele>1156.42976379395</ele>
        <time>2018-09-02T12:48:41Z</time>
      </trkpt>
      <trkpt lat="43.0083142128242" lon="-4.8874665331141">
        <ele>1156.66572570801</ele>
        <time>2018-09-02T12:48:42Z</time>
      </trkpt>
      <trkpt lat="43.0082933837948" lon="-4.88754716702261">
        <ele>1157.1822052002</ele>
        <time>2018-09-02T12:48:43Z</time>
      </trkpt>
      <trkpt lat="43.008260736282" lon="-4.88762754947402">
        <ele>1156.81831359863</ele>
        <time>2018-09-02T12:48:44Z</time>
      </trkpt>
      <trkpt lat="43.0082345847441" lon="-4.88771120086767">
        <ele>1157.06001281738</ele>
        <time>2018-09-02T12:48:45Z</time>
      </trkpt>
      <trkpt lat="43.0082134204386" lon="-4.8877857998059">
        <ele>1156.30854797363</ele>
        <time>2018-09-02T12:48:46Z</time>
      </trkpt>
      <trkpt lat="43.0081869755341" lon="-4.88786014728703">
        <ele>1155.52803039551</ele>
        <time>2018-09-02T12:48:47Z</time>
      </trkpt>
      <trkpt lat="43.0081472872226" lon="-4.88792845979788">
        <ele>1156.16304016113</ele>
        <time>2018-09-02T12:48:48Z</time>
      </trkpt>
      <trkpt lat="43.0081049586115" lon="-4.88798889331975">
        <ele>1156.44026184082</ele>
        <time>2018-09-02T12:48:49Z</time>
      </trkpt>
      <trkpt lat="43.0080525717167" lon="-4.88804153167167">
        <ele>1156.64533996582</ele>
        <time>2018-09-02T12:48:50Z</time>
      </trkpt>
      <trkpt lat="43.0079996819077" lon="-4.88808712922492">
        <ele>1156.5308380127</ele>
        <time>2018-09-02T12:48:51Z</time>
      </trkpt>
      <trkpt lat="43.0079422239615" lon="-4.88812602125563">
        <ele>1156.64570617676</ele>
        <time>2018-09-02T12:48:52Z</time>
      </trkpt>
      <trkpt lat="43.0078792758687" lon="-4.88817161880889">
        <ele>1156.75032043457</ele>
        <time>2018-09-02T12:48:53Z</time>
      </trkpt>
      <trkpt lat="43.007820644456" lon="-4.88822400570371">
        <ele>1158.13325500488</ele>
        <time>2018-09-02T12:48:54Z</time>
      </trkpt>
      <trkpt lat="43.0077598337485" lon="-4.88827362657049">
        <ele>1158.97480773926</ele>
        <time>2018-09-02T12:48:55Z</time>
      </trkpt>
      <trkpt lat="43.0077038426353" lon="-4.88832249306598">
        <ele>1158.9888458252</ele>
        <time>2018-09-02T12:48:56Z</time>
      </trkpt>
      <trkpt lat="43.0076501146359" lon="-4.88835970871606">
        <ele>1158.57905578613</ele>
        <time>2018-09-02T12:48:57Z</time>
      </trkpt>
      <trkpt lat="43.0075930338753" lon="-4.88839600235679">
        <ele>1158.8784942627</ele>
        <time>2018-09-02T12:48:58Z</time>
      </trkpt>
      <trkpt lat="43.0075372104002" lon="-4.88844604231872">
        <ele>1159.00422668457</ele>
        <time>2018-09-02T12:48:59Z</time>
      </trkpt>
      <trkpt lat="43.0074845720483" lon="-4.88850010559418">
        <ele>1159.7534942627</ele>
        <time>2018-09-02T12:49:00Z</time>
      </trkpt>
      <trkpt lat="43.0074312631441" lon="-4.88854444586196">
        <ele>1159.32905578613</ele>
        <time>2018-09-02T12:49:01Z</time>
      </trkpt>
      <trkpt lat="43.0073784152446" lon="-4.88858400844493">
        <ele>1158.64241027832</ele>
        <time>2018-09-02T12:49:02Z</time>
      </trkpt>
      <trkpt lat="43.0073244357882" lon="-4.88863346167364">
        <ele>1157.78132629395</ele>
        <time>2018-09-02T12:49:03Z</time>
      </trkpt>
      <trkpt lat="43.0072701629652" lon="-4.88868735731103">
        <ele>1157.91828918457</ele>
        <time>2018-09-02T12:49:04Z</time>
      </trkpt>
      <trkpt lat="43.0072338693244" lon="-4.88874577917614">
        <ele>1159.25752258301</ele>
        <time>2018-09-02T12:49:05Z</time>
      </trkpt>
      <trkpt lat="43.0071756150974" lon="-4.88878609613039">
        <ele>1158.28547668457</ele>
        <time>2018-09-02T12:49:06Z</time>
      </trkpt>
      <trkpt lat="43.0071295565395" lon="-4.88884166814842">
        <ele>1157.82002258301</ele>
        <time>2018-09-02T12:49:07Z</time>
      </trkpt>
      <trkpt lat="43.0070629623188" lon="-4.88889061846294">
        <ele>1156.40315246582</ele>
        <time>2018-09-02T12:49:08Z</time>
      </trkpt>
      <trkpt lat="43.007017322856" lon="-4.88893680274942">
        <ele>1156.66938781738</ele>
        <time>2018-09-02T12:49:09Z</time>
      </trkpt>
      <trkpt lat="43.0069674505321" lon="-4.88899296150067">
        <ele>1156.97200012207</ele>
        <time>2018-09-02T12:49:10Z</time>
      </trkpt>
      <trkpt lat="43.0069120880617" lon="-4.88904434256711">
        <ele>1156.96955871582</ele>
        <time>2018-09-02T12:49:11Z</time>
      </trkpt>
      <trkpt lat="43.0068711843742" lon="-4.88910335116544">
        <ele>1158.36567687988</ele>
        <time>2018-09-02T12:49:12Z</time>
      </trkpt>
      <trkpt lat="43.0068161152704" lon="-4.8891658801631">
        <ele>1157.83308410645</ele>
        <time>2018-09-02T12:49:13Z</time>
      </trkpt>
      <trkpt lat="43.0067698471649" lon="-4.88921784796276">
        <ele>1156.73127746582</ele>
        <time>2018-09-02T12:49:14Z</time>
      </trkpt>
      <trkpt lat="43.0067230761452" lon="-4.88927283324757">
        <ele>1157.20088195801</ele>
        <time>2018-09-02T12:49:15Z</time>
      </trkpt>
      <trkpt lat="43.0066640675468" lon="-4.88932639360883">
        <ele>1156.6089630127</ele>
        <time>2018-09-02T12:49:16Z</time>
      </trkpt>
      <trkpt lat="43.0066097947238" lon="-4.88937031478145">
        <ele>1156.17158508301</ele>
        <time>2018-09-02T12:49:17Z</time>
      </trkpt>
      <trkpt lat="43.0065639038039" lon="-4.88942714408495">
        <ele>1157.2759552002</ele>
        <time>2018-09-02T12:49:18Z</time>
      </trkpt>
      <trkpt lat="43.0065118102757" lon="-4.88947785459914">
        <ele>1157.7515411377</ele>
        <time>2018-09-02T12:49:19Z</time>
      </trkpt>
      <trkpt lat="43.0064550647913" lon="-4.88952521235206">
        <ele>1157.25727844238</ele>
        <time>2018-09-02T12:49:20Z</time>
      </trkpt>
      <trkpt lat="43.0064053181959" lon="-4.88958070055106">
        <ele>1157.06074523926</ele>
        <time>2018-09-02T12:49:21Z</time>
      </trkpt>
      <trkpt lat="43.006348530802" lon="-4.88962596282818">
        <ele>1156.88789367676</ele>
        <time>2018-09-02T12:49:22Z</time>
      </trkpt>
      <trkpt lat="43.0062926235078" lon="-4.88966695033469">
        <ele>1157.22492980957</ele>
        <time>2018-09-02T12:49:23Z</time>
      </trkpt>
      <trkpt lat="43.0062369257612" lon="-4.8897063452796">
        <ele>1158.47395324707</ele>
        <time>2018-09-02T12:49:24Z</time>
      </trkpt>
      <trkpt lat="43.0061722593783" lon="-4.88973702304521">
        <ele>1159.36933898926</ele>
        <time>2018-09-02T12:49:25Z</time>
      </trkpt>
      <trkpt lat="43.0061080120904" lon="-4.88977155648627">
        <ele>1159.0972442627</ele>
        <time>2018-09-02T12:49:26Z</time>
      </trkpt>
      <trkpt lat="43.006047369021" lon="-4.88979678601482">
        <ele>1159.52326965332</ele>
        <time>2018-09-02T12:49:27Z</time>
      </trkpt>
      <trkpt lat="43.0059780506818" lon="-4.88982436247625">
        <ele>1159.91145324707</ele>
        <time>2018-09-02T12:49:28Z</time>
      </trkpt>
      <trkpt lat="43.0059145996748" lon="-4.88984372467258">
        <ele>1160.27644348145</ele>
        <time>2018-09-02T12:49:29Z</time>
      </trkpt>
      <trkpt lat="43.00584922083" lon="-4.88987247460046">
        <ele>1159.73017883301</ele>
        <time>2018-09-02T12:49:30Z</time>
      </trkpt>
      <trkpt lat="43.0057825008808" lon="-4.88989032805421">
        <ele>1159.29573059082</ele>
        <time>2018-09-02T12:49:31Z</time>
      </trkpt>
      <trkpt lat="43.0057221092684" lon="-4.88992108963885">
        <ele>1159.7476348877</ele>
        <time>2018-09-02T12:49:32Z</time>
      </trkpt>
      <trkpt lat="43.0056646094127" lon="-4.88994120620646">
        <ele>1161.15242004395</ele>
        <time>2018-09-02T12:49:33Z</time>
      </trkpt>
      <trkpt lat="43.0056010326771" lon="-4.8899685312108">
        <ele>1161.03779602051</ele>
        <time>2018-09-02T12:49:34Z</time>
      </trkpt>
      <trkpt lat="43.0055317562474" lon="-4.88999292254903">
        <ele>1161.8706817627</ele>
        <time>2018-09-02T12:49:35Z</time>
      </trkpt>
      <trkpt lat="43.0054614320798" lon="-4.89001580514469">
        <ele>1161.66706848145</ele>
        <time>2018-09-02T12:49:36Z</time>
      </trkpt>
      <trkpt lat="43.0053962208731" lon="-4.89005226642349">
        <ele>1161.44172668457</ele>
        <time>2018-09-02T12:49:37Z</time>
      </trkpt>
      <trkpt lat="43.0053192330925" lon="-4.89008763805487">
        <ele>1160.7056427002</ele>
        <time>2018-09-02T12:49:38Z</time>
      </trkpt>
      <trkpt lat="43.0052386410935" lon="-4.89010909572699">
        <ele>1160.95918273926</ele>
        <time>2018-09-02T12:49:39Z</time>
      </trkpt>
      <trkpt lat="43.0051606474845" lon="-4.89012753591397">
        <ele>1161.66084289551</ele>
        <time>2018-09-02T12:49:40Z</time>
      </trkpt>
      <trkpt lat="43.0050701648397" lon="-4.89012351260045">
        <ele>1161.29243469238</ele>
        <time>2018-09-02T12:49:41Z</time>
      </trkpt>
      <trkpt lat="43.0049856752558" lon="-4.89010582678475">
        <ele>1161.46882629395</ele>
        <time>2018-09-02T12:49:42Z</time>
      </trkpt>
      <trkpt lat="43.0049134232504" lon="-4.89007858559945">
        <ele>1160.65901184082</ele>
        <time>2018-09-02T12:49:43Z</time>
      </trkpt>
      <trkpt lat="43.004834339994" lon="-4.89004639909127">
        <ele>1160.43586730957</ele>
        <time>2018-09-02T12:49:44Z</time>
      </trkpt>
      <trkpt lat="43.0047546280948" lon="-4.89000633359411">
        <ele>1159.8589630127</ele>
        <time>2018-09-02T12:49:45Z</time>
      </trkpt>
      <trkpt lat="43.0046697613252" lon="-4.88996081985989">
        <ele>1159.4097442627</ele>
        <time>2018-09-02T12:49:46Z</time>
      </trkpt>
      <trkpt lat="43.0045878282217" lon="-4.88991715014436">
        <ele>1159.01667785645</ele>
        <time>2018-09-02T12:49:47Z</time>
      </trkpt>
      <trkpt lat="43.0045067752181" lon="-4.88988219760814">
        <ele>1158.98127746582</ele>
        <time>2018-09-02T12:49:48Z</time>
      </trkpt>
      <trkpt lat="43.0044248840241" lon="-4.88983794115939">
        <ele>1158.67390441895</ele>
        <time>2018-09-02T12:49:49Z</time>
      </trkpt>
      <trkpt lat="43.0043468904151" lon="-4.889789326121">
        <ele>1158.38691711426</ele>
        <time>2018-09-02T12:49:50Z</time>
      </trkpt>
      <trkpt lat="43.0042709503723" lon="-4.88975211047091">
        <ele>1157.13349914551</ele>
        <time>2018-09-02T12:49:51Z</time>
      </trkpt>
      <trkpt lat="43.0041929567633" lon="-4.88971212879279">
        <ele>1156.17012023926</ele>
        <time>2018-09-02T12:49:52Z</time>
      </trkpt>
      <trkpt lat="43.0041138735069" lon="-4.88966527395406">
        <ele>1155.85273742676</ele>
        <time>2018-09-02T12:49:53Z</time>
      </trkpt>
      <trkpt lat="43.0040377658261" lon="-4.88961867057242">
        <ele>1155.72505187988</ele>
        <time>2018-09-02T12:49:54Z</time>
      </trkpt>
      <trkpt lat="43.0039571319176" lon="-4.88957910798945">
        <ele>1156.18452453613</ele>
        <time>2018-09-02T12:49:55Z</time>
      </trkpt>
      <trkpt lat="43.003877713385" lon="-4.8895406350539">
        <ele>1156.20454406738</ele>
        <time>2018-09-02T12:49:56Z</time>
      </trkpt>
      <trkpt lat="43.0037925532488" lon="-4.88949428312936">
        <ele>1155.65010070801</ele>
        <time>2018-09-02T12:49:57Z</time>
      </trkpt>
      <trkpt lat="43.0037088599456" lon="-4.8894576542125">
        <ele>1155.31648254395</ele>
        <time>2018-09-02T12:49:58Z</time>
      </trkpt>
      <trkpt lat="43.0036286032228" lon="-4.8894180078105">
        <ele>1154.73616027832</ele>
        <time>2018-09-02T12:49:59Z</time>
      </trkpt>
      <trkpt lat="43.0035442393674" lon="-4.88937593065658">
        <ele>1154.66596984863</ele>
        <time>2018-09-02T12:50:00Z</time>
      </trkpt>
      <trkpt lat="43.0034566484792" lon="-4.88933695480683">
        <ele>1153.88667297363</ele>
        <time>2018-09-02T12:50:01Z</time>
      </trkpt>
      <trkpt lat="43.003370105329" lon="-4.88928347826459">
        <ele>1153.23481750488</ele>
        <time>2018-09-02T12:50:02Z</time>
      </trkpt>
      <trkpt lat="43.0032818438886" lon="-4.8892367072449">
        <ele>1153.38215637207</ele>
        <time>2018-09-02T12:50:03Z</time>
      </trkpt>
      <trkpt lat="43.0031921156151" lon="-4.88918792456844">
        <ele>1152.32099914551</ele>
        <time>2018-09-02T12:50:04Z</time>
      </trkpt>
      <trkpt lat="43.0031160079343" lon="-4.88914291374841">
        <ele>1152.19477844238</ele>
        <time>2018-09-02T12:50:05Z</time>
      </trkpt>
      <trkpt lat="43.003033194731" lon="-4.88908767700651">
        <ele>1152.31684875488</ele>
        <time>2018-09-02T12:50:06Z</time>
      </trkpt>
      <trkpt lat="43.0029544886602" lon="-4.88904585130968">
        <ele>1152.23970031738</ele>
        <time>2018-09-02T12:50:07Z</time>
      </trkpt>
      <trkpt lat="43.0028665205864" lon="-4.88900964148798">
        <ele>1150.72151184082</ele>
        <time>2018-09-02T12:50:08Z</time>
      </trkpt>
      <trkpt lat="43.0027854675828" lon="-4.88896781579115">
        <ele>1150.02742004395</ele>
        <time>2018-09-02T12:50:09Z</time>
      </trkpt>
      <trkpt lat="43.0027115811063" lon="-4.88893495873072">
        <ele>1149.78535461426</ele>
        <time>2018-09-02T12:50:10Z</time>
      </trkpt>
      <trkpt lat="43.0026293546362" lon="-4.88890285604157">
        <ele>1149.93696594238</ele>
        <time>2018-09-02T12:50:11Z</time>
      </trkpt>
      <trkpt lat="43.0025484692706" lon="-4.88888106309333">
        <ele>1150.41084289551</ele>
        <time>2018-09-02T12:50:12Z</time>
      </trkpt>
      <trkpt lat="43.0024760915367" lon="-4.8888550791935">
        <ele>1150.74067687988</ele>
        <time>2018-09-02T12:50:13Z</time>
      </trkpt>
      <trkpt lat="43.0024061445547" lon="-4.88883781247296">
        <ele>1151.19746398926</ele>
        <time>2018-09-02T12:50:14Z</time>
      </trkpt>
      <trkpt lat="43.0023358622966" lon="-4.88881501369634">
        <ele>1151.26924133301</ele>
        <time>2018-09-02T12:50:15Z</time>
      </trkpt>
      <trkpt lat="43.002261640544" lon="-4.88879229873874">
        <ele>1151.00971984863</ele>
        <time>2018-09-02T12:50:16Z</time>
      </trkpt>
      <trkpt lat="43.0021866225107" lon="-4.88877830096044">
        <ele>1150.11360168457</ele>
        <time>2018-09-02T12:50:17Z</time>
      </trkpt>
      <trkpt lat="43.0021140771387" lon="-4.88875600509801">
        <ele>1149.89631652832</ele>
        <time>2018-09-02T12:50:18Z</time>
      </trkpt>
      <trkpt lat="43.0020378018199" lon="-4.88874544390001">
        <ele>1149.89753723145</ele>
        <time>2018-09-02T12:50:19Z</time>
      </trkpt>
      <trkpt lat="43.0019625323294" lon="-4.88872918300786">
        <ele>1149.66584777832</ele>
        <time>2018-09-02T12:50:20Z</time>
      </trkpt>
      <trkpt lat="43.0018804734973" lon="-4.88872314803758">
        <ele>1149.02278137207</ele>
        <time>2018-09-02T12:50:21Z</time>
      </trkpt>
      <trkpt lat="43.0017986242129" lon="-4.88871443085828">
        <ele>1148.44551086426</ele>
        <time>2018-09-02T12:50:22Z</time>
      </trkpt>
      <trkpt lat="43.0017370172245" lon="-4.88872071728566">
        <ele>1149.07978820801</ele>
        <time>2018-09-02T12:50:23Z</time>
      </trkpt>
      <trkpt lat="43.0016601551725" lon="-4.88873161375978">
        <ele>1150.04866027832</ele>
        <time>2018-09-02T12:50:24Z</time>
      </trkpt>
      <trkpt lat="43.0015842989488" lon="-4.88873538561621">
        <ele>1149.77937316895</ele>
        <time>2018-09-02T12:50:25Z</time>
      </trkpt>
      <trkpt lat="43.0015072692586" lon="-4.88873857073941">
        <ele>1150.28828430176</ele>
        <time>2018-09-02T12:50:26Z</time>
      </trkpt>
      <trkpt lat="43.0014323350443" lon="-4.88874980248966">
        <ele>1150.60346984863</ele>
        <time>2018-09-02T12:50:27Z</time>
      </trkpt>
      <trkpt lat="43.0013620946957" lon="-4.88876581192472">
        <ele>1151.15022277832</ele>
        <time>2018-09-02T12:50:28Z</time>
      </trkpt>
      <trkpt lat="43.0012954166559" lon="-4.888771846895">
        <ele>1151.43977355957</ele>
        <time>2018-09-02T12:50:29Z</time>
      </trkpt>
      <trkpt lat="43.001226936507" lon="-4.88877628930368">
        <ele>1150.94258117676</ele>
        <time>2018-09-02T12:50:30Z</time>
      </trkpt>
      <trkpt lat="43.0011604261054" lon="-4.88877763040819">
        <ele>1151.28681945801</ele>
        <time>2018-09-02T12:50:31Z</time>
      </trkpt>
      <trkpt lat="43.0010860367147" lon="-4.88878785633006">
        <ele>1151.44245910645</ele>
        <time>2018-09-02T12:50:32Z</time>
      </trkpt>
      <trkpt lat="43.0010139104379" lon="-4.88879598677614">
        <ele>1151.8950958252</ele>
        <time>2018-09-02T12:50:33Z</time>
      </trkpt>
      <trkpt lat="43.0009380123047" lon="-4.88880101591804">
        <ele>1151.3843536377</ele>
        <time>2018-09-02T12:50:34Z</time>
      </trkpt>
      <trkpt lat="43.0008632876379" lon="-4.88881568424859">
        <ele>1150.34016418457</ele>
        <time>2018-09-02T12:50:35Z</time>
      </trkpt>
      <trkpt lat="43.0007847072957" lon="-4.88882155158081">
        <ele>1149.59272766113</ele>
        <time>2018-09-02T12:50:36Z</time>
      </trkpt>
      <trkpt lat="43.0007105693622" lon="-4.88883345388331">
        <ele>1150.1919708252</ele>
        <time>2018-09-02T12:50:37Z</time>
      </trkpt>
      <trkpt lat="43.0006448971508" lon="-4.88884309307196">
        <ele>1150.1031036377</ele>
        <time>2018-09-02T12:50:38Z</time>
      </trkpt>
      <trkpt lat="43.0005761655448" lon="-4.88886186853506">
        <ele>1150.5269317627</ele>
        <time>2018-09-02T12:50:39Z</time>
      </trkpt>
      <trkpt lat="43.0004995549498" lon="-4.88886555657246">
        <ele>1150.64387512207</ele>
        <time>2018-09-02T12:50:40Z</time>
      </trkpt>
      <trkpt lat="43.00041556828" lon="-4.88886823878148">
        <ele>1149.8921661377</ele>
        <time>2018-09-02T12:50:41Z</time>
      </trkpt>
      <trkpt lat="43.0003393767802" lon="-4.88887628540852">
        <ele>1150.30439758301</ele>
        <time>2018-09-02T12:50:42Z</time>
      </trkpt>
      <trkpt lat="43.0002680886937" lon="-4.8888841643975">
        <ele>1150.36604309082</ele>
        <time>2018-09-02T12:50:43Z</time>
      </trkpt>
      <trkpt lat="43.0001900112657" lon="-4.8888944741384">
        <ele>1149.82539367676</ele>
        <time>2018-09-02T12:50:44Z</time>
      </trkpt>
      <trkpt lat="43.0001211958406" lon="-4.88890511915543">
        <ele>1151.34504699707</ele>
        <time>2018-09-02T12:50:45Z</time>
      </trkpt>
      <trkpt lat="43.0000497401161" lon="-4.88890537061252">
        <ele>1151.01643371582</ele>
        <time>2018-09-02T12:50:46Z</time>
      </trkpt>
      <trkpt lat="42.9999823915241" lon="-4.88891836256244">
        <ele>1150.80122375488</ele>
        <time>2018-09-02T12:50:47Z</time>
      </trkpt>
      <trkpt lat="42.9999111453472" lon="-4.88892775029399">
        <ele>1150.23506164551</ele>
        <time>2018-09-02T12:50:48Z</time>
      </trkpt>
      <trkpt lat="42.999838097061" lon="-4.88894090988197">
        <ele>1149.44477844238</ele>
        <time>2018-09-02T12:50:49Z</time>
      </trkpt>
      <trkpt lat="42.9997633304847" lon="-4.88894359209099">
        <ele>1149.08784484863</ele>
        <time>2018-09-02T12:50:50Z</time>
      </trkpt>
      <trkpt lat="42.9996884381799" lon="-4.88895775750735">
        <ele>1148.83137512207</ele>
        <time>2018-09-02T12:50:51Z</time>
      </trkpt>
      <trkpt lat="42.9996103188423" lon="-4.88896362483957">
        <ele>1148.22358703613</ele>
        <time>2018-09-02T12:50:52Z</time>
      </trkpt>
      <trkpt lat="42.9995376896514" lon="-4.88896739669599">
        <ele>1147.45332336426</ele>
        <time>2018-09-02T12:50:53Z</time>
      </trkpt>
      <trkpt lat="42.9994629230751" lon="-4.88898064010301">
        <ele>1147.56050109863</ele>
        <time>2018-09-02T12:50:54Z</time>
      </trkpt>
      <trkpt lat="42.9993889108701" lon="-4.88898332231202">
        <ele>1148.3081817627</ele>
        <time>2018-09-02T12:50:55Z</time>
      </trkpt>
      <trkpt lat="42.9993151501222" lon="-4.88899455406227">
        <ele>1148.50227355957</ele>
        <time>2018-09-02T12:50:56Z</time>
      </trkpt>
      <trkpt lat="42.9992447421355" lon="-4.88900888711669">
        <ele>1149.0894317627</ele>
        <time>2018-09-02T12:50:57Z</time>
      </trkpt>
      <trkpt lat="42.9991752561582" lon="-4.88901282661118">
        <ele>1149.46174621582</ele>
        <time>2018-09-02T12:50:58Z</time>
      </trkpt>
      <trkpt lat="42.9990966339065" lon="-4.88902900368431">
        <ele>1149.6275177002</ele>
        <time>2018-09-02T12:50:59Z</time>
      </trkpt>
      <trkpt lat="42.9990187241165" lon="-4.88903671503522">
        <ele>1149.86799621582</ele>
        <time>2018-09-02T12:51:00Z</time>
      </trkpt>
      <trkpt lat="42.9989398504077" lon="-4.88904492930033">
        <ele>1150.11164855957</ele>
        <time>2018-09-02T12:51:01Z</time>
      </trkpt>
      <trkpt lat="42.9988640360935" lon="-4.88905716687896">
        <ele>1149.94526672363</ele>
        <time>2018-09-02T12:51:02Z</time>
      </trkpt>
      <trkpt lat="42.9987886408744" lon="-4.88906445913472">
        <ele>1149.78169250488</ele>
        <time>2018-09-02T12:51:03Z</time>
      </trkpt>
      <trkpt lat="42.9987127427412" lon="-4.88907669671335">
        <ele>1149.8657989502</ele>
        <time>2018-09-02T12:51:04Z</time>
      </trkpt>
      <trkpt lat="42.9986353358654" lon="-4.88908650354006">
        <ele>1149.85383605957</ele>
        <time>2018-09-02T12:51:05Z</time>
      </trkpt>
      <trkpt lat="42.9985592700941" lon="-4.88909672946193">
        <ele>1149.96394348145</ele>
        <time>2018-09-02T12:51:06Z</time>
      </trkpt>
      <trkpt lat="42.9984818632184" lon="-4.88910796121218">
        <ele>1149.93916320801</ele>
        <time>2018-09-02T12:51:07Z</time>
      </trkpt>
      <trkpt lat="42.9984052945329" lon="-4.88911684602954">
        <ele>1149.73774719238</ele>
        <time>2018-09-02T12:51:08Z</time>
      </trkpt>
      <trkpt lat="42.9983267141907" lon="-4.88912556320884">
        <ele>1149.40046691895</ele>
        <time>2018-09-02T12:51:09Z</time>
      </trkpt>
      <trkpt lat="42.9982468346534" lon="-4.88913687877812">
        <ele>1149.05952453613</ele>
        <time>2018-09-02T12:51:10Z</time>
      </trkpt>
      <trkpt lat="42.998166452202" lon="-4.8891468532429">
        <ele>1148.49934387207</ele>
        <time>2018-09-02T12:51:11Z</time>
      </trkpt>
      <trkpt lat="42.9980840580938" lon="-4.88916068338313">
        <ele>1148.35884094238</ele>
        <time>2018-09-02T12:51:12Z</time>
      </trkpt>
      <trkpt lat="42.9980029631807" lon="-4.88916998729565">
        <ele>1147.9634552002</ele>
        <time>2018-09-02T12:51:13Z</time>
      </trkpt>
      <trkpt lat="42.9979240056528" lon="-4.88917945884623">
        <ele>1147.40571594238</ele>
        <time>2018-09-02T12:51:14Z</time>
      </trkpt>
      <trkpt lat="42.9978432041062" lon="-4.88919027150133">
        <ele>1147.00617980957</ele>
        <time>2018-09-02T12:51:15Z</time>
      </trkpt>
      <trkpt lat="42.9977631150214" lon="-4.88920309581318">
        <ele>1146.73249816895</ele>
        <time>2018-09-02T12:51:16Z</time>
      </trkpt>
      <trkpt lat="42.9976800922705" lon="-4.88921189681151">
        <ele>1146.16804504395</ele>
        <time>2018-09-02T12:51:17Z</time>
      </trkpt>
      <trkpt lat="42.9975960217817" lon="-4.88922522403755">
        <ele>1146.21028137207</ele>
        <time>2018-09-02T12:51:18Z</time>
      </trkpt>
      <trkpt lat="42.997516267973" lon="-4.88923025317945">
        <ele>1146.14485168457</ele>
        <time>2018-09-02T12:51:19Z</time>
      </trkpt>
      <trkpt lat="42.9974348796932" lon="-4.8892417363868">
        <ele>1145.69709777832</ele>
        <time>2018-09-02T12:51:20Z</time>
      </trkpt>
      <trkpt lat="42.9973521503089" lon="-4.88924768753805">
        <ele>1145.59638977051</ele>
        <time>2018-09-02T12:51:21Z</time>
      </trkpt>
      <trkpt lat="42.9972689180104" lon="-4.88925665617445">
        <ele>1145.67817687988</ele>
        <time>2018-09-02T12:51:22Z</time>
      </trkpt>
      <trkpt lat="42.997188535559" lon="-4.88926621154406">
        <ele>1145.68147277832</ele>
        <time>2018-09-02T12:51:23Z</time>
      </trkpt>
      <trkpt lat="42.9971066024555" lon="-4.88927233033338">
        <ele>1145.20332336426</ele>
        <time>2018-09-02T12:51:24Z</time>
      </trkpt>
      <trkpt lat="42.9970294470368" lon="-4.88928230479815">
        <ele>1145.11421203613</ele>
        <time>2018-09-02T12:51:25Z</time>
      </trkpt>
      <trkpt lat="42.9969501542328" lon="-4.88929437473872">
        <ele>1144.76948547363</ele>
        <time>2018-09-02T12:51:26Z</time>
      </trkpt>
      <trkpt lat="42.9968753876565" lon="-4.88929940388062">
        <ele>1144.86628723145</ele>
        <time>2018-09-02T12:51:27Z</time>
      </trkpt>
      <trkpt lat="42.996802716556" lon="-4.88930183463254">
        <ele>1144.7935333252</ele>
        <time>2018-09-02T12:51:28Z</time>
      </trkpt>
      <trkpt lat="42.9967343621356" lon="-4.88930158317544">
        <ele>1144.2681427002</ele>
        <time>2018-09-02T12:51:29Z</time>
      </trkpt>
      <trkpt lat="42.9966756469039" lon="-4.8893088754312">
        <ele>1143.60835266113</ele>
        <time>2018-09-02T12:51:30Z</time>
      </trkpt>
      <trkpt lat="42.9966133274538" lon="-4.88929454237678">
        <ele>1143.56575012207</ele>
        <time>2018-09-02T12:51:31Z</time>
      </trkpt>
      <trkpt lat="42.996538518968" lon="-4.88930585794606">
        <ele>1144.26057434082</ele>
        <time>2018-09-02T12:51:32Z</time>
      </trkpt>
      <trkpt lat="42.9964652192248" lon="-4.88930795342185">
        <ele>1143.90205383301</ele>
        <time>2018-09-02T12:51:33Z</time>
      </trkpt>
      <trkpt lat="42.9963964876188" lon="-4.8893212806479">
        <ele>1144.13496398926</ele>
        <time>2018-09-02T12:51:34Z</time>
      </trkpt>
      <trkpt lat="42.9963214276759" lon="-4.88933326676943">
        <ele>1142.7876739502</ele>
        <time>2018-09-02T12:51:35Z</time>
      </trkpt>
      <trkpt lat="42.9962574318452" lon="-4.88933628425457">
        <ele>1142.5532989502</ele>
        <time>2018-09-02T12:51:36Z</time>
      </trkpt>
      <trkpt lat="42.9961885326011" lon="-4.88934248686292">
        <ele>1143.38948059082</ele>
        <time>2018-09-02T12:51:37Z</time>
      </trkpt>
      <trkpt lat="42.9961144365771" lon="-4.88935790956476">
        <ele>1142.23762512207</ele>
        <time>2018-09-02T12:51:38Z</time>
      </trkpt>
      <trkpt lat="42.9960459983377" lon="-4.88937408663788">
        <ele>1142.98616027832</ele>
        <time>2018-09-02T12:51:39Z</time>
      </trkpt>
      <trkpt lat="42.9959846428065" lon="-4.88938129507461">
        <ele>1143.23664855957</ele>
        <time>2018-09-02T12:51:40Z</time>
      </trkpt>
      <trkpt lat="42.9959201859711" lon="-4.88939336501517">
        <ele>1143.1031036377</ele>
        <time>2018-09-02T12:51:41Z</time>
      </trkpt>
      <trkpt lat="42.9958492331607" lon="-4.8894042614893">
        <ele>1143.49592590332</ele>
        <time>2018-09-02T12:51:42Z</time>
      </trkpt>
      <trkpt lat="42.9957798310025" lon="-4.88940845244088">
        <ele>1142.7007598877</ele>
        <time>2018-09-02T12:51:43Z</time>
      </trkpt>
      <trkpt lat="42.9957088781921" lon="-4.88941867836275">
        <ele>1143.3277130127</ele>
        <time>2018-09-02T12:51:44Z</time>
      </trkpt>
      <trkpt lat="42.9956399370385" lon="-4.88943074830332">
        <ele>1143.65510559082</ele>
        <time>2018-09-02T12:51:45Z</time>
      </trkpt>
      <trkpt lat="42.995573929551" lon="-4.88943812437811">
        <ele>1143.77973937988</ele>
        <time>2018-09-02T12:51:46Z</time>
      </trkpt>
      <trkpt lat="42.9955095984442" lon="-4.88945505582252">
        <ele>1143.77339172363</ele>
        <time>2018-09-02T12:51:47Z</time>
      </trkpt>
      <trkpt lat="42.9954556608973" lon="-4.88948103972235">
        <ele>1145.23664855957</ele>
        <time>2018-09-02T12:51:48Z</time>
      </trkpt>
      <trkpt lat="42.9954067105828" lon="-4.88949906081417">
        <ele>1145.56428527832</ele>
        <time>2018-09-02T12:51:49Z</time>
      </trkpt>
      <trkpt lat="42.9953611968486" lon="-4.88953568973103">
        <ele>1144.95210266113</ele>
        <time>2018-09-02T12:51:50Z</time>
      </trkpt>
      <trkpt lat="42.9953205446182" lon="-4.88958179019847">
        <ele>1144.69612121582</ele>
        <time>2018-09-02T12:51:51Z</time>
      </trkpt>
      <trkpt lat="42.9952746536983" lon="-4.88962646574237">
        <ele>1145.38410949707</ele>
        <time>2018-09-02T12:51:52Z</time>
      </trkpt>
      <trkpt lat="42.9952324089063" lon="-4.88968270831265">
        <ele>1145.5669708252</ele>
        <time>2018-09-02T12:51:53Z</time>
      </trkpt>
      <trkpt lat="42.9952037427975" lon="-4.88974724896708">
        <ele>1146.35945129395</ele>
        <time>2018-09-02T12:51:54Z</time>
      </trkpt>
      <trkpt lat="42.9951719334749" lon="-4.88981120288827">
        <ele>1146.45588684082</ele>
        <time>2018-09-02T12:51:55Z</time>
      </trkpt>
      <trkpt lat="42.9951394116906" lon="-4.88986794837275">
        <ele>1147.11689758301</ele>
        <time>2018-09-02T12:51:56Z</time>
      </trkpt>
      <trkpt lat="42.9951167386426" lon="-4.88992536440947">
        <ele>1147.13789367676</ele>
        <time>2018-09-02T12:51:57Z</time>
      </trkpt>
      <trkpt lat="42.9950866057007" lon="-4.88998143934169">
        <ele>1148.32063293457</ele>
        <time>2018-09-02T12:51:58Z</time>
      </trkpt>
      <trkpt lat="42.9950558860255" lon="-4.89004044794002">
        <ele>1149.3990020752</ele>
        <time>2018-09-02T12:51:59Z</time>
      </trkpt>
      <trkpt lat="42.9950180836422" lon="-4.89010180347123">
        <ele>1148.43647766113</ele>
        <time>2018-09-02T12:52:00Z</time>
      </trkpt>
      <trkpt lat="42.9949939856706" lon="-4.8901603929744">
        <ele>1149.39375305176</ele>
        <time>2018-09-02T12:52:01Z</time>
      </trkpt>
      <trkpt lat="42.9949547583638" lon="-4.89023088478007">
        <ele>1147.75495910645</ele>
        <time>2018-09-02T12:52:02Z</time>
      </trkpt>
      <trkpt lat="42.9949357733531" lon="-4.89028679207423">
        <ele>1148.36238098145</ele>
        <time>2018-09-02T12:52:03Z</time>
      </trkpt>
      <trkpt lat="42.9949016590072" lon="-4.89034613594868">
        <ele>1147.8765411377</ele>
        <time>2018-09-02T12:52:04Z</time>
      </trkpt>
      <trkpt lat="42.9948705621464" lon="-4.8904072400228">
        <ele>1147.82514953613</ele>
        <time>2018-09-02T12:52:05Z</time>
      </trkpt>
      <trkpt lat="42.9948336398629" lon="-4.89047035575368">
        <ele>1146.6245880127</ele>
        <time>2018-09-02T12:52:06Z</time>
      </trkpt>
      <trkpt lat="42.9948053928493" lon="-4.89052726887622">
        <ele>1148.19221496582</ele>
        <time>2018-09-02T12:52:07Z</time>
      </trkpt>
      <trkpt lat="42.9947674228279" lon="-4.89059289917805">
        <ele>1148.33088684082</ele>
        <time>2018-09-02T12:52:08Z</time>
      </trkpt>
      <trkpt lat="42.9947145749284" lon="-4.89067914896169">
        <ele>1146.1587677002</ele>
        <time>2018-09-02T12:52:09Z</time>
      </trkpt>
      <trkpt lat="42.9946849029912" lon="-4.89076539874532">
        <ele>1144.83564758301</ele>
        <time>2018-09-02T12:52:10Z</time>
      </trkpt>
      <trkpt lat="42.9946441669417" lon="-4.89084117114999">
        <ele>1143.87043762207</ele>
        <time>2018-09-02T12:52:11Z</time>
      </trkpt>
      <trkpt lat="42.9946051491825" lon="-4.89091694355466">
        <ele>1142.02742004395</ele>
        <time>2018-09-02T12:52:12Z</time>
      </trkpt>
      <trkpt lat="42.9945575399725" lon="-4.89099548198738">
        <ele>1140.81929016113</ele>
        <time>2018-09-02T12:52:13Z</time>
      </trkpt>
      <trkpt lat="42.9945221683411" lon="-4.89107502624848">
        <ele>1138.98994445801</ele>
        <time>2018-09-02T12:52:14Z</time>
      </trkpt>
      <trkpt lat="42.994486168067" lon="-4.89115088247218">
        <ele>1139.14851379395</ele>
        <time>2018-09-02T12:52:15Z</time>
      </trkpt>
      <trkpt lat="42.9944462702079" lon="-4.89123009145715">
        <ele>1138.34675598145</ele>
        <time>2018-09-02T12:52:16Z</time>
      </trkpt>
      <trkpt lat="42.9944041092349" lon="-4.89131089300373">
        <ele>1139.06086730957</ele>
        <time>2018-09-02T12:52:17Z</time>
      </trkpt>
      <trkpt lat="42.9943748144833" lon="-4.89139806479671">
        <ele>1139.51240539551</ele>
        <time>2018-09-02T12:52:18Z</time>
      </trkpt>
      <trkpt lat="42.9943563742964" lon="-4.89148464985647">
        <ele>1140.46382141113</ele>
        <time>2018-09-02T12:52:19Z</time>
      </trkpt>
      <trkpt lat="42.9943419993324" lon="-4.89157567732492">
        <ele>1140.54780578613</ele>
        <time>2018-09-02T12:52:20Z</time>
      </trkpt>
      <trkpt lat="42.9943298874823" lon="-4.89166896790722">
        <ele>1140.80403137207</ele>
        <time>2018-09-02T12:52:21Z</time>
      </trkpt>
      <trkpt lat="42.9943231400503" lon="-4.89176049828985">
        <ele>1141.48152160645</ele>
        <time>2018-09-02T12:52:22Z</time>
      </trkpt>
      <trkpt lat="42.9943232238693" lon="-4.89184582606414">
        <ele>1141.88679504395</ele>
        <time>2018-09-02T12:52:23Z</time>
      </trkpt>
      <trkpt lat="42.9943238944216" lon="-4.8919340036855">
        <ele>1141.7124786377</ele>
        <time>2018-09-02T12:52:24Z</time>
      </trkpt>
      <trkpt lat="42.9943200387461" lon="-4.8920291382865">
        <ele>1142.69148254395</ele>
        <time>2018-09-02T12:52:25Z</time>
      </trkpt>
      <trkpt lat="42.9943189910082" lon="-4.89212301560202">
        <ele>1142.77424621582</ele>
        <time>2018-09-02T12:52:26Z</time>
      </trkpt>
      <trkpt lat="42.9943137523187" lon="-4.89221965894559">
        <ele>1142.63264465332</ele>
        <time>2018-09-02T12:52:27Z</time>
      </trkpt>
      <trkpt lat="42.9943043645872" lon="-4.89231269807079">
        <ele>1142.84492492676</ele>
        <time>2018-09-02T12:52:28Z</time>
      </trkpt>
      <trkpt lat="42.994297281879" lon="-4.89239953458765">
        <ele>1142.4663848877</ele>
        <time>2018-09-02T12:52:29Z</time>
      </trkpt>
      <trkpt lat="42.9942904925374" lon="-4.89248041995325">
        <ele>1143.07441711426</ele>
        <time>2018-09-02T12:52:30Z</time>
      </trkpt>
      <trkpt lat="42.9942651791898" lon="-4.89255066030183">
        <ele>1143.80830383301</ele>
        <time>2018-09-02T12:52:31Z</time>
      </trkpt>
      <trkpt lat="42.9942454398079" lon="-4.89262517542103">
        <ele>1145.22273254395</ele>
        <time>2018-09-02T12:52:32Z</time>
      </trkpt>
      <trkpt lat="42.9942258261545" lon="-4.89270036109247">
        <ele>1145.37629699707</ele>
        <time>2018-09-02T12:52:33Z</time>
      </trkpt>
      <trkpt lat="42.9942081822483" lon="-4.89276724867978">
        <ele>1145.85090637207</ele>
        <time>2018-09-02T12:52:34Z</time>
      </trkpt>
      <trkpt lat="42.994150724302" lon="-4.8928476311312">
        <ele>1145.23481750488</ele>
        <time>2018-09-02T12:52:36Z</time>
      </trkpt>
      <trkpt lat="42.9941907059802" lon="-4.89280991256693">
        <ele>1142.87519836426</ele>
        <time>2018-09-02T12:52:59Z</time>
      </trkpt>
      <trkpt lat="42.9942122893808" lon="-4.89274478517928">
        <ele>1143.63789367676</ele>
        <time>2018-09-02T12:53:01Z</time>
      </trkpt>
      <trkpt lat="42.9942216771124" lon="-4.89263297059098">
        <ele>1145.71174621582</ele>
        <time>2018-09-02T12:53:03Z</time>
      </trkpt>
      <trkpt lat="42.9941933881892" lon="-4.89255761728146">
        <ele>1146.28205871582</ele>
        <time>2018-09-02T12:53:05Z</time>
      </trkpt>
      <trkpt lat="42.994108311872" lon="-4.89251730032721">
        <ele>1146.70381164551</ele>
        <time>2018-09-02T12:53:07Z</time>
      </trkpt>
      <trkpt lat="42.9940608283905" lon="-4.89250464365342">
        <ele>1146.50300598145</ele>
        <time>2018-09-02T12:53:08Z</time>
      </trkpt>
      <trkpt lat="42.994011878076" lon="-4.89249089733222">
        <ele>1145.88313293457</ele>
        <time>2018-09-02T12:53:09Z</time>
      </trkpt>
      <trkpt lat="42.9939641012279" lon="-4.89247656427779">
        <ele>1143.02607727051</ele>
        <time>2018-09-02T12:53:10Z</time>
      </trkpt>
      <trkpt lat="42.9938869458092" lon="-4.89247907884875">
        <ele>1143.47883605957</ele>
        <time>2018-09-02T12:53:11Z</time>
      </trkpt>
      <trkpt lat="42.9938029172299" lon="-4.89244806580701">
        <ele>1142.77717590332</ele>
        <time>2018-09-02T12:53:13Z</time>
      </trkpt>
      <trkpt lat="42.993752877268" lon="-4.89242568612554">
        <ele>1143.24421691895</ele>
        <time>2018-09-02T12:53:14Z</time>
      </trkpt>
      <trkpt lat="42.993709333281" lon="-4.89239995368281">
        <ele>1144.12348937988</ele>
        <time>2018-09-02T12:53:15Z</time>
      </trkpt>
      <trkpt lat="42.9936651187418" lon="-4.89236986265042">
        <ele>1144.09223937988</ele>
        <time>2018-09-02T12:53:16Z</time>
      </trkpt>
      <trkpt lat="42.9936237540496" lon="-4.8923349101142">
        <ele>1143.7935333252</ele>
        <time>2018-09-02T12:53:17Z</time>
      </trkpt>
      <trkpt lat="42.9935791623248" lon="-4.89230708219567">
        <ele>1143.80500793457</ele>
        <time>2018-09-02T12:53:18Z</time>
      </trkpt>
      <trkpt lat="42.9935370013518" lon="-4.89227288403073">
        <ele>1143.41157531738</ele>
        <time>2018-09-02T12:53:19Z</time>
      </trkpt>
      <trkpt lat="42.9934562417148" lon="-4.89220306277731">
        <ele>1144.14765930176</ele>
        <time>2018-09-02T12:53:21Z</time>
      </trkpt>
      <trkpt lat="42.9934151284797" lon="-4.89217590541103">
        <ele>1144.57612609863</ele>
        <time>2018-09-02T12:53:22Z</time>
      </trkpt>
      <trkpt lat="42.9933562456099" lon="-4.89211882465043">
        <ele>1144.53230285645</ele>
        <time>2018-09-02T12:53:24Z</time>
      </trkpt>
      <trkpt lat="42.9933049483625" lon="-4.89210382104376">
        <ele>1143.19172668457</ele>
        <time>2018-09-02T12:53:32Z</time>
      </trkpt>
      <trkpt lat="42.9932285054056" lon="-4.89212159067848">
        <ele>1142.48579406738</ele>
        <time>2018-09-02T12:53:35Z</time>
      </trkpt>
      <trkpt lat="42.9931557085765" lon="-4.89216316491821">
        <ele>1142.24787902832</ele>
        <time>2018-09-02T12:53:37Z</time>
      </trkpt>
      <trkpt lat="42.9931150144366" lon="-4.89219266921737">
        <ele>1142.96919250488</ele>
        <time>2018-09-02T12:53:38Z</time>
      </trkpt>
      <trkpt lat="42.9930758290393" lon="-4.89222334698298">
        <ele>1143.86311340332</ele>
        <time>2018-09-02T12:53:39Z</time>
      </trkpt>
      <trkpt lat="42.9930094024567" lon="-4.89230071194926">
        <ele>1143.80513000488</ele>
        <time>2018-09-02T12:53:41Z</time>
      </trkpt>
      <trkpt lat="42.9929780960483" lon="-4.89234890789249">
        <ele>1144.15693664551</ele>
        <time>2018-09-02T12:53:42Z</time>
      </trkpt>
      <trkpt lat="42.9929479631064" lon="-4.89240095951119">
        <ele>1144.50202941895</ele>
        <time>2018-09-02T12:53:43Z</time>
      </trkpt>
      <trkpt lat="42.9929166147886" lon="-4.89244915545442">
        <ele>1144.50862121582</ele>
        <time>2018-09-02T12:53:44Z</time>
      </trkpt>
      <trkpt lat="42.9928581091044" lon="-4.89253272302904">
        <ele>1143.24348449707</ele>
        <time>2018-09-02T12:53:46Z</time>
      </trkpt>
      <trkpt lat="42.9927945742784" lon="-4.89258100279131">
        <ele>1143.40083312988</ele>
        <time>2018-09-02T12:53:48Z</time>
      </trkpt>
      <trkpt lat="42.9927133536367" lon="-4.89254906774023">
        <ele>1143.59346008301</ele>
        <time>2018-09-02T12:53:50Z</time>
      </trkpt>
      <trkpt lat="42.9926499864487" lon="-4.89247438498297">
        <ele>1144.21504211426</ele>
        <time>2018-09-02T12:53:52Z</time>
      </trkpt>
      <trkpt lat="42.9925933247833" lon="-4.89239383489349">
        <ele>1143.56452941895</ele>
        <time>2018-09-02T12:53:54Z</time>
      </trkpt>
      <trkpt lat="42.9925426142691" lon="-4.89230699837663">
        <ele>1144.61006164551</ele>
        <time>2018-09-02T12:53:56Z</time>
      </trkpt>
      <trkpt lat="42.9924769001482" lon="-4.89224019460836">
        <ele>1142.77070617676</ele>
        <time>2018-09-02T12:53:58Z</time>
      </trkpt>
      <trkpt lat="42.9923953442303" lon="-4.8922051582531">
        <ele>1145.29463195801</ele>
        <time>2018-09-02T12:54:00Z</time>
      </trkpt>
      <trkpt lat="42.9923169734357" lon="-4.89219476469317">
        <ele>1144.2144317627</ele>
        <time>2018-09-02T12:54:02Z</time>
      </trkpt>
      <trkpt lat="42.9922463559015" lon="-4.89222292788782">
        <ele>1146.21943664551</ele>
        <time>2018-09-02T12:54:04Z</time>
      </trkpt>
      <trkpt lat="42.9921861738367" lon="-4.892305321996">
        <ele>1147.18281555176</ele>
        <time>2018-09-02T12:54:06Z</time>
      </trkpt>
      <trkpt lat="42.9921651771692" lon="-4.89236030728081">
        <ele>1147.68843078613</ele>
        <time>2018-09-02T12:54:07Z</time>
      </trkpt>
      <trkpt lat="42.9921609023986" lon="-4.89246139303305">
        <ele>1146.50532531738</ele>
        <time>2018-09-02T12:54:08Z</time>
      </trkpt>
      <trkpt lat="42.9921304760901" lon="-4.89251336083272">
        <ele>1145.71333312988</ele>
        <time>2018-09-02T12:54:09Z</time>
      </trkpt>
      <trkpt lat="42.9921060428424" lon="-4.89257220179298">
        <ele>1145.33882141113</ele>
        <time>2018-09-02T12:54:10Z</time>
      </trkpt>
      <trkpt lat="42.9920790950237" lon="-4.89263556898096">
        <ele>1145.4234161377</ele>
        <time>2018-09-02T12:54:11Z</time>
      </trkpt>
      <trkpt lat="42.9920549970521" lon="-4.89270614460566">
        <ele>1144.05671691895</ele>
        <time>2018-09-02T12:54:12Z</time>
      </trkpt>
      <trkpt lat="42.9920400353549" lon="-4.89278099500098">
        <ele>1143.63276672363</ele>
        <time>2018-09-02T12:54:13Z</time>
      </trkpt>
      <trkpt lat="42.9920169013021" lon="-4.89285215735891">
        <ele>1144.22456359863</ele>
        <time>2018-09-02T12:54:14Z</time>
      </trkpt>
      <trkpt lat="42.9920004727719" lon="-4.89291812293687">
        <ele>1144.13935852051</ele>
        <time>2018-09-02T12:54:15Z</time>
      </trkpt>
      <trkpt lat="42.9919749079673" lon="-4.8929787240968">
        <ele>1144.01289367676</ele>
        <time>2018-09-02T12:54:16Z</time>
      </trkpt>
      <trkpt lat="42.9919606587319" lon="-4.89304301329413">
        <ele>1143.84614562988</ele>
        <time>2018-09-02T12:54:17Z</time>
      </trkpt>
      <trkpt lat="42.9919366445793" lon="-4.89311316982367">
        <ele>1143.86360168457</ele>
        <time>2018-09-02T12:54:18Z</time>
      </trkpt>
      <trkpt lat="42.9919072660087" lon="-4.89318223670581">
        <ele>1143.64558410645</ele>
        <time>2018-09-02T12:54:19Z</time>
      </trkpt>
      <trkpt lat="42.9918863950698" lon="-4.89325415343502">
        <ele>1143.52619934082</ele>
        <time>2018-09-02T12:54:20Z</time>
      </trkpt>
      <trkpt lat="42.9918576032324" lon="-4.8933222983078">
        <ele>1143.58149719238</ele>
        <time>2018-09-02T12:54:21Z</time>
      </trkpt>
      <trkpt lat="42.9918263387335" lon="-4.89339354448476">
        <ele>1142.38813781738</ele>
        <time>2018-09-02T12:54:22Z</time>
      </trkpt>
      <trkpt lat="42.9918092815606" lon="-4.89346588030913">
        <ele>1142.85298156738</ele>
        <time>2018-09-02T12:54:23Z</time>
      </trkpt>
      <trkpt lat="42.9917824175609" lon="-4.89351684228042">
        <ele>1142.92329406738</ele>
        <time>2018-09-02T12:54:24Z</time>
      </trkpt>
      <trkpt lat="42.9917565593896" lon="-4.89360267296889">
        <ele>1142.08772277832</ele>
        <time>2018-09-02T12:54:26Z</time>
      </trkpt>
      <trkpt lat="42.9917327547846" lon="-4.89366595633784">
        <ele>1142.12983703613</ele>
        <time>2018-09-02T12:54:28Z</time>
      </trkpt>
      <trkpt lat="42.9917081119893" lon="-4.89374273457089">
        <ele>1143.48872375488</ele>
        <time>2018-09-02T12:54:30Z</time>
      </trkpt>
      <trkpt lat="42.9916961258678" lon="-4.89380300045469">
        <ele>1144.84309387207</ele>
        <time>2018-09-02T12:54:32Z</time>
      </trkpt>
      <trkpt lat="42.9916779790474" lon="-4.89387600683132">
        <ele>1141.83332824707</ele>
        <time>2018-09-02T12:54:34Z</time>
      </trkpt>
      <trkpt lat="42.9916599579556" lon="-4.89393375814417">
        <ele>1142.41903305054</ele>
        <time>2018-09-02T12:55:25Z</time>
      </trkpt>
      <trkpt lat="42.9916320881275" lon="-4.89401942119458">
        <ele>1142.23592758179</ele>
        <time>2018-09-02T12:55:29Z</time>
      </trkpt>
      <trkpt lat="42.9915970098628" lon="-4.8941098619298">
        <ele>1140.83102035522</ele>
        <time>2018-09-02T12:55:31Z</time>
      </trkpt>
      <trkpt lat="42.9915749654574" lon="-4.89416736178556">
        <ele>1139.88985824585</ele>
        <time>2018-09-02T12:55:32Z</time>
      </trkpt>
      <trkpt lat="42.9915503645716" lon="-4.89423056133547">
        <ele>1139.93575668335</ele>
        <time>2018-09-02T12:55:33Z</time>
      </trkpt>
      <trkpt lat="42.9915211536391" lon="-4.89429895766535">
        <ele>1139.83431625366</ele>
        <time>2018-09-02T12:55:34Z</time>
      </trkpt>
      <trkpt lat="42.991490601602" lon="-4.89437045529941">
        <ele>1139.50057601929</ele>
        <time>2018-09-02T12:55:35Z</time>
      </trkpt>
      <trkpt lat="42.9914536793185" lon="-4.89444513805666">
        <ele>1138.72713851929</ele>
        <time>2018-09-02T12:55:36Z</time>
      </trkpt>
      <trkpt lat="42.9914217442674" lon="-4.89449794404664">
        <ele>1139.06820297241</ele>
        <time>2018-09-02T12:55:37Z</time>
      </trkpt>
      <trkpt lat="42.9913853668077" lon="-4.89455745555916">
        <ele>1138.83065414429</ele>
        <time>2018-09-02T12:55:38Z</time>
      </trkpt>
      <trkpt lat="42.991353054571" lon="-4.89461889490941">
        <ele>1138.23934555054</ele>
        <time>2018-09-02T12:55:39Z</time>
      </trkpt>
      <trkpt lat="42.9913187306775" lon="-4.89468662068704">
        <ele>1138.26107406616</ele>
        <time>2018-09-02T12:55:40Z</time>
      </trkpt>
      <trkpt lat="42.9912887234641" lon="-4.89474403672376">
        <ele>1137.86898422241</ele>
        <time>2018-09-02T12:55:41Z</time>
      </trkpt>
      <trkpt lat="42.9912692774488" lon="-4.89480421878853">
        <ele>1137.86349105835</ele>
        <time>2018-09-02T12:55:42Z</time>
      </trkpt>
      <trkpt lat="42.9912371747596" lon="-4.89487303421357">
        <ele>1138.15267562866</ele>
        <time>2018-09-02T12:55:43Z</time>
      </trkpt>
      <trkpt lat="42.9912056588037" lon="-4.89492198452809">
        <ele>1138.44320297241</ele>
        <time>2018-09-02T12:55:44Z</time>
      </trkpt>
      <trkpt lat="42.9911658028541" lon="-4.89499683492342">
        <ele>1138.29647445679</ele>
        <time>2018-09-02T12:55:45Z</time>
      </trkpt>
      <trkpt lat="42.9911277490137" lon="-4.8950684163765">
        <ele>1137.2282371521</ele>
        <time>2018-09-02T12:55:46Z</time>
      </trkpt>
      <trkpt lat="42.9910868034167" lon="-4.89513639361122">
        <ele>1138.34774398804</ele>
        <time>2018-09-02T12:55:47Z</time>
      </trkpt>
      <trkpt lat="42.9910558322845" lon="-4.89520395175078">
        <ele>1138.46773910522</ele>
        <time>2018-09-02T12:55:48Z</time>
      </trkpt>
      <trkpt lat="42.9910225561289" lon="-4.89527796395579">
        <ele>1138.72115707397</ele>
        <time>2018-09-02T12:55:49Z</time>
      </trkpt>
      <trkpt lat="42.9909798503322" lon="-4.89535273053208">
        <ele>1138.95638656616</ele>
        <time>2018-09-02T12:55:50Z</time>
      </trkpt>
      <trkpt lat="42.9909457359863" lon="-4.89541919902423">
        <ele>1139.66158676147</ele>
        <time>2018-09-02T12:55:51Z</time>
      </trkpt>
      <trkpt lat="42.9909083526982" lon="-4.89548273385027">
        <ele>1139.44649887085</ele>
        <time>2018-09-02T12:55:52Z</time>
      </trkpt>
      <trkpt lat="42.990861707407" lon="-4.89554936998048">
        <ele>1139.17367172241</ele>
        <time>2018-09-02T12:55:53Z</time>
      </trkpt>
      <trkpt lat="42.9908319097413" lon="-4.89560401998916">
        <ele>1139.78426742554</ele>
        <time>2018-09-02T12:55:54Z</time>
      </trkpt>
      <trkpt lat="42.9907916346965" lon="-4.89567476325193">
        <ele>1138.86849594116</ele>
        <time>2018-09-02T12:55:55Z</time>
      </trkpt>
      <trkpt lat="42.9907406308157" lon="-4.89573159255543">
        <ele>1139.50289535522</ele>
        <time>2018-09-02T12:55:56Z</time>
      </trkpt>
      <trkpt lat="42.9906852683453" lon="-4.89578523673573">
        <ele>1140.09041976929</ele>
        <time>2018-09-02T12:55:57Z</time>
      </trkpt>
      <trkpt lat="42.9906281875847" lon="-4.8958491068379">
        <ele>1138.24349594116</ele>
        <time>2018-09-02T12:55:58Z</time>
      </trkpt>
      <trkpt lat="42.9905271856515" lon="-4.89590040408531">
        <ele>1138.04134750366</ele>
        <time>2018-09-02T12:56:00Z</time>
      </trkpt>
      <trkpt lat="42.9904672131343" lon="-4.89594675600985">
        <ele>1138.32906723022</ele>
        <time>2018-09-02T12:56:01Z</time>
      </trkpt>
      <trkpt lat="42.9904047679556" lon="-4.89597181790033">
        <ele>1138.59603500366</ele>
        <time>2018-09-02T12:56:02Z</time>
      </trkpt>
      <trkpt lat="42.9903326835884" lon="-4.89599998109499">
        <ele>1137.00728988647</ele>
        <time>2018-09-02T12:56:03Z</time>
      </trkpt>
      <trkpt lat="42.9902675142912" lon="-4.89604063332537">
        <ele>1137.29146957397</ele>
        <time>2018-09-02T12:56:04Z</time>
      </trkpt>
      <trkpt lat="42.9902123613683" lon="-4.89608899690667">
        <ele>1137.84261703491</ele>
        <time>2018-09-02T12:56:05Z</time>
      </trkpt>
      <trkpt lat="42.990157250355" lon="-4.89612788893738">
        <ele>1137.74813461304</ele>
        <time>2018-09-02T12:56:06Z</time>
      </trkpt>
      <trkpt lat="42.9901062883837" lon="-4.89617306739548">
        <ele>1139.30184555054</ele>
        <time>2018-09-02T12:56:07Z</time>
      </trkpt>
      <trkpt lat="42.9900578828929" lon="-4.89623559639314">
        <ele>1139.73568344116</ele>
        <time>2018-09-02T12:56:08Z</time>
      </trkpt>
      <trkpt lat="42.9900122015206" lon="-4.89629108459213">
        <ele>1139.53255844116</ele>
        <time>2018-09-02T12:56:09Z</time>
      </trkpt>
      <trkpt lat="42.9899670230625" lon="-4.89635135047594">
        <ele>1139.03829574585</ele>
        <time>2018-09-02T12:56:10Z</time>
      </trkpt>
      <trkpt lat="42.9899258260084" lon="-4.89641807042518">
        <ele>1139.0827293396</ele>
        <time>2018-09-02T12:56:11Z</time>
      </trkpt>
      <trkpt lat="42.9898836650355" lon="-4.89647774957576">
        <ele>1139.32406234741</ele>
        <time>2018-09-02T12:56:12Z</time>
      </trkpt>
      <trkpt lat="42.989843976724" lon="-4.89653457887927">
        <ele>1139.70113754272</ele>
        <time>2018-09-02T12:56:13Z</time>
      </trkpt>
      <trkpt lat="42.9898042884124" lon="-4.89660901017943">
        <ele>1138.79867172241</ele>
        <time>2018-09-02T12:56:14Z</time>
      </trkpt>
      <trkpt lat="42.9897772567747" lon="-4.8966744728432">
        <ele>1139.84261703491</ele>
        <time>2018-09-02T12:56:15Z</time>
      </trkpt>
      <trkpt lat="42.9897573078452" lon="-4.89675477147558">
        <ele>1138.54696273804</ele>
        <time>2018-09-02T12:56:16Z</time>
      </trkpt>
      <trkpt lat="42.9897445254428" lon="-4.89684470929661">
        <ele>1138.71895980835</ele>
        <time>2018-09-02T12:56:17Z</time>
      </trkpt>
      <trkpt lat="42.9897275101794" lon="-4.89693766460279">
        <ele>1138.21993637085</ele>
        <time>2018-09-02T12:56:18Z</time>
      </trkpt>
      <trkpt lat="42.9897036636649" lon="-4.89700564183751">
        <ele>1138.58517074585</ele>
        <time>2018-09-02T12:56:19Z</time>
      </trkpt>
      <trkpt lat="42.9896770511223" lon="-4.89706079476038">
        <ele>1138.53634262085</ele>
        <time>2018-09-02T12:56:20Z</time>
      </trkpt>
      <trkpt lat="42.9896390391914" lon="-4.89710672758976">
        <ele>1138.5485496521</ele>
        <time>2018-09-02T12:56:21Z</time>
      </trkpt>
      <trkpt lat="42.9895998957036" lon="-4.89715911448458">
        <ele>1138.23958969116</ele>
        <time>2018-09-02T12:56:22Z</time>
      </trkpt>
      <trkpt lat="42.9895552620692" lon="-4.89721451886454">
        <ele>1138.31075668335</ele>
        <time>2018-09-02T12:56:23Z</time>
      </trkpt>
      <trkpt lat="42.9895094968779" lon="-4.8972722701774">
        <ele>1138.83456039429</ele>
        <time>2018-09-02T12:56:24Z</time>
      </trkpt>
      <trkpt lat="42.9894755920796" lon="-4.89733982831696">
        <ele>1138.5329246521</ele>
        <time>2018-09-02T12:56:25Z</time>
      </trkpt>
      <trkpt lat="42.9894355684919" lon="-4.89739523269692">
        <ele>1138.68099594116</ele>
        <time>2018-09-02T12:56:26Z</time>
      </trkpt>
      <trkpt lat="42.989397556561" lon="-4.89746446721712">
        <ele>1136.35873031616</ele>
        <time>2018-09-02T12:56:27Z</time>
      </trkpt>
      <trkpt lat="42.9893700220091" lon="-4.89751484245518">
        <ele>1136.48031234741</ele>
        <time>2018-09-02T12:56:28Z</time>
      </trkpt>
      <trkpt lat="42.9893386736913" lon="-4.89757343195835">
        <ele>1136.29000473022</ele>
        <time>2018-09-02T12:56:29Z</time>
      </trkpt>
      <trkpt lat="42.989303637336" lon="-4.89762850106219">
        <ele>1135.96822738647</ele>
        <time>2018-09-02T12:56:30Z</time>
      </trkpt>
      <trkpt lat="42.9892693972615" lon="-4.89769932814399">
        <ele>1134.57894515991</ele>
        <time>2018-09-02T12:56:31Z</time>
      </trkpt>
      <trkpt lat="42.9892347800014" lon="-4.89777250215867">
        <ele>1134.03915023804</ele>
        <time>2018-09-02T12:56:32Z</time>
      </trkpt>
      <trkpt lat="42.9891954688756" lon="-4.89784324542144">
        <ele>1134.00228500366</ele>
        <time>2018-09-02T12:56:33Z</time>
      </trkpt>
      <trkpt lat="42.9891556548355" lon="-4.89789160900274">
        <ele>1133.91683578491</ele>
        <time>2018-09-02T12:56:34Z</time>
      </trkpt>
      <trkpt lat="42.9891114822058" lon="-4.89793259650925">
        <ele>1134.74142074585</ele>
        <time>2018-09-02T12:56:35Z</time>
      </trkpt>
      <trkpt lat="42.9890665132953" lon="-4.89795908332327">
        <ele>1135.6081199646</ele>
        <time>2018-09-02T12:56:36Z</time>
      </trkpt>
      <trkpt lat="42.9890046548499" lon="-4.8979784455196">
        <ele>1135.01583480835</ele>
        <time>2018-09-02T12:56:37Z</time>
      </trkpt>
      <trkpt lat="42.9889497533841" lon="-4.89799303003112">
        <ele>1133.87801742554</ele>
        <time>2018-09-02T12:56:38Z</time>
      </trkpt>
      <trkpt lat="42.988894013728" lon="-4.89800727926651">
        <ele>1134.22164535522</ele>
        <time>2018-09-02T12:56:39Z</time>
      </trkpt>
      <trkpt lat="42.9888376035197" lon="-4.89801188931325">
        <ele>1134.3688621521</ele>
        <time>2018-09-02T12:56:40Z</time>
      </trkpt>
      <trkpt lat="42.9887828696919" lon="-4.89801608026484">
        <ele>1134.41353988647</ele>
        <time>2018-09-02T12:56:41Z</time>
      </trkpt>
      <trkpt lat="42.988686519715" lon="-4.89803519100407">
        <ele>1135.2731590271</ele>
        <time>2018-09-02T12:56:43Z</time>
      </trkpt>
      <trkpt lat="42.9886288522212" lon="-4.89805446938136">
        <ele>1135.30562973022</ele>
        <time>2018-09-02T12:56:44Z</time>
      </trkpt>
      <trkpt lat="42.9885845119534" lon="-4.8980662040458">
        <ele>1134.49557113647</ele>
        <time>2018-09-02T12:56:45Z</time>
      </trkpt>
      <trkpt lat="42.9885354359103" lon="-4.89811716601709">
        <ele>1133.0485496521</ele>
        <time>2018-09-02T12:56:46Z</time>
      </trkpt>
      <trkpt lat="42.9884920595614" lon="-4.89815874025682">
        <ele>1133.54867172241</ele>
        <time>2018-09-02T12:56:47Z</time>
      </trkpt>
      <trkpt lat="42.9884783132402" lon="-4.89824239165047">
        <ele>1133.0622215271</ele>
        <time>2018-09-02T12:56:48Z</time>
      </trkpt>
      <trkpt lat="42.9884521197928" lon="-4.89831841551224">
        <ele>1134.9948387146</ele>
        <time>2018-09-02T12:56:49Z</time>
      </trkpt>
      <trkpt lat="42.9884277284546" lon="-4.89838161506215">
        <ele>1133.63827133179</ele>
        <time>2018-09-02T12:56:50Z</time>
      </trkpt>
      <trkpt lat="42.9883918119995" lon="-4.8984512686775">
        <ele>1133.43575668335</ele>
        <time>2018-09-02T12:56:51Z</time>
      </trkpt>
      <trkpt lat="42.9883344797818" lon="-4.89852000028351">
        <ele>1133.01168441772</ele>
        <time>2018-09-02T12:56:52Z</time>
      </trkpt>
      <trkpt lat="42.9882930731801" lon="-4.89856249653259">
        <ele>1133.6188621521</ele>
        <time>2018-09-02T12:56:53Z</time>
      </trkpt>
      <trkpt lat="42.9882343998579" lon="-4.89860499278167">
        <ele>1133.55697250366</ele>
        <time>2018-09-02T12:56:54Z</time>
      </trkpt>
      <trkpt lat="42.9881683504609" lon="-4.89866098389486">
        <ele>1134.41048812866</ele>
        <time>2018-09-02T12:56:55Z</time>
      </trkpt>
      <trkpt lat="42.9881072882963" lon="-4.89871999249318">
        <ele>1135.30038070679</ele>
        <time>2018-09-02T12:56:56Z</time>
      </trkpt>
      <trkpt lat="42.9880606430052" lon="-4.8987501673446">
        <ele>1136.23385238647</ele>
        <time>2018-09-02T12:56:57Z</time>
      </trkpt>
      <trkpt lat="42.9880037298826" lon="-4.8988003749446">
        <ele>1136.85433578491</ele>
        <time>2018-09-02T12:56:58Z</time>
      </trkpt>
      <trkpt lat="42.9879494989691" lon="-4.89885427058199">
        <ele>1136.10177230835</ele>
        <time>2018-09-02T12:56:59Z</time>
      </trkpt>
      <trkpt lat="42.9879125347761" lon="-4.89891151898065">
        <ele>1135.32418441772</ele>
        <time>2018-09-02T12:57:00Z</time>
      </trkpt>
      <trkpt lat="42.9878588486863" lon="-4.89896273240903">
        <ele>1135.3883934021</ele>
        <time>2018-09-02T12:57:01Z</time>
      </trkpt>
      <trkpt lat="42.9878061684249" lon="-4.89901402965644">
        <ele>1134.98275375366</ele>
        <time>2018-09-02T12:57:02Z</time>
      </trkpt>
      <trkpt lat="42.9877611576049" lon="-4.89905543625811">
        <ele>1135.3962059021</ele>
        <time>2018-09-02T12:57:03Z</time>
      </trkpt>
      <trkpt lat="42.987714051309" lon="-4.89908234216729">
        <ele>1135.70040512085</ele>
        <time>2018-09-02T12:57:04Z</time>
      </trkpt>
      <trkpt lat="42.9876644723518" lon="-4.89911427721837">
        <ele>1136.12459945679</ele>
        <time>2018-09-02T12:57:05Z</time>
      </trkpt>
      <trkpt lat="42.987620132084" lon="-4.8991457931743">
        <ele>1135.81441879272</ele>
        <time>2018-09-02T12:57:06Z</time>
      </trkpt>
      <trkpt lat="42.9875712655885" lon="-4.89917496219734">
        <ele>1136.04769515991</ele>
        <time>2018-09-02T12:57:07Z</time>
      </trkpt>
      <trkpt lat="42.9875014024256" lon="-4.89926146343807">
        <ele>1136.50936508179</ele>
        <time>2018-09-02T12:57:09Z</time>
      </trkpt>
      <trkpt lat="42.9874664917989" lon="-4.89930605516294">
        <ele>1137.05038070679</ele>
        <time>2018-09-02T12:57:10Z</time>
      </trkpt>
      <trkpt lat="42.9874319164483" lon="-4.89936154336193">
        <ele>1138.04781723022</ele>
        <time>2018-09-02T12:57:11Z</time>
      </trkpt>
      <trkpt lat="42.9873927729605" lon="-4.89940789528647">
        <ele>1138.92025375366</ele>
        <time>2018-09-02T12:57:12Z</time>
      </trkpt>
      <trkpt lat="42.9873560183151" lon="-4.8994653113232">
        <ele>1139.70199203491</ele>
        <time>2018-09-02T12:57:13Z</time>
      </trkpt>
      <trkpt lat="42.9873211495979" lon="-4.89952105097929">
        <ele>1140.47933578491</ele>
        <time>2018-09-02T12:57:14Z</time>
      </trkpt>
      <trkpt lat="42.9872931121318" lon="-4.89959196188012">
        <ele>1139.99728012085</ele>
        <time>2018-09-02T12:57:15Z</time>
      </trkpt>
      <trkpt lat="42.9872649908466" lon="-4.89965398796359">
        <ele>1140.15145492554</ele>
        <time>2018-09-02T12:57:16Z</time>
      </trkpt>
      <trkpt lat="42.9872113466663" lon="-4.89972942509213">
        <ele>1138.70418930054</ele>
        <time>2018-09-02T12:57:17Z</time>
      </trkpt>
      <trkpt lat="42.9871697305171" lon="-4.89978834987143">
        <ele>1139.46725082397</ele>
        <time>2018-09-02T12:57:18Z</time>
      </trkpt>
      <trkpt lat="42.9871409805892" lon="-4.89985372871617">
        <ele>1139.37630844116</ele>
        <time>2018-09-02T12:57:19Z</time>
      </trkpt>
      <trkpt lat="42.9871136974944" lon="-4.89992866293052">
        <ele>1138.18368148804</ele>
        <time>2018-09-02T12:57:20Z</time>
      </trkpt>
      <trkpt lat="42.9870859114854" lon="-4.90000150166908">
        <ele>1136.97835922241</ele>
        <time>2018-09-02T12:57:21Z</time>
      </trkpt>
      <trkpt lat="42.9870624421565" lon="-4.90005875006774">
        <ele>1136.73983383179</ele>
        <time>2018-09-02T12:57:22Z</time>
      </trkpt>
      <trkpt lat="42.9870211193738" lon="-4.90013083443502">
        <ele>1135.80379867554</ele>
        <time>2018-09-02T12:57:23Z</time>
      </trkpt>
      <trkpt lat="42.9869847000046" lon="-4.90020660683969">
        <ele>1135.47506332397</ele>
        <time>2018-09-02T12:57:24Z</time>
      </trkpt>
      <trkpt lat="42.9869453888787" lon="-4.90027366206506">
        <ele>1134.90633773804</ele>
        <time>2018-09-02T12:57:25Z</time>
      </trkpt>
      <trkpt lat="42.9868965223832" lon="-4.90030291490713">
        <ele>1133.56270980835</ele>
        <time>2018-09-02T12:57:26Z</time>
      </trkpt>
      <trkpt lat="42.9868271621344" lon="-4.90036988631347">
        <ele>1131.63851547241</ele>
        <time>2018-09-02T12:57:28Z</time>
      </trkpt>
      <trkpt lat="42.986807464662" lon="-4.900432080035">
        <ele>1131.10201644897</ele>
        <time>2018-09-02T12:57:29Z</time>
      </trkpt>
      <trkpt lat="42.9867813550336" lon="-4.90048538893918">
        <ele>1130.99630355835</ele>
        <time>2018-09-02T12:57:30Z</time>
      </trkpt>
      <trkpt lat="42.9867622442944" lon="-4.90054691210845">
        <ele>1131.36422348022</ele>
        <time>2018-09-02T12:57:31Z</time>
      </trkpt>
      <trkpt lat="42.9867377272276" lon="-4.90061136894384">
        <ele>1132.5583152771</ele>
        <time>2018-09-02T12:57:32Z</time>
      </trkpt>
      <trkpt lat="42.9867238132683" lon="-4.90069200285236">
        <ele>1131.80025863647</ele>
        <time>2018-09-02T12:57:33Z</time>
      </trkpt>
      <trkpt lat="42.9866975360019" lon="-4.90075402893582">
        <ele>1131.49642562866</ele>
        <time>2018-09-02T12:57:34Z</time>
      </trkpt>
      <trkpt lat="42.986666187684" lon="-4.90087137558023">
        <ele>1133.36227035522</ele>
        <time>2018-09-02T12:57:36Z</time>
      </trkpt>
      <trkpt lat="42.9866588535188" lon="-4.90093197674016">
        <ele>1132.73055648804</ele>
        <time>2018-09-02T12:57:37Z</time>
      </trkpt>
      <trkpt lat="42.9866320733381" lon="-4.90104479715685">
        <ele>1134.77145004272</ele>
        <time>2018-09-02T12:57:39Z</time>
      </trkpt>
      <trkpt lat="42.9865910439221" lon="-4.90110447630743">
        <ele>1134.3639793396</ele>
        <time>2018-09-02T12:57:40Z</time>
      </trkpt>
      <trkpt lat="42.9865432251645" lon="-4.90113247186402">
        <ele>1134.46517562866</ele>
        <time>2018-09-02T12:57:41Z</time>
      </trkpt>
      <trkpt lat="42.9865027405722" lon="-4.90116943605701">
        <ele>1135.5758934021</ele>
        <time>2018-09-02T12:57:42Z</time>
      </trkpt>
      <trkpt lat="42.9864716856209" lon="-4.90121821873346">
        <ele>1135.60287094116</ele>
        <time>2018-09-02T12:57:43Z</time>
      </trkpt>
      <trkpt lat="42.9864194663642" lon="-4.90127219818989">
        <ele>1134.71114730835</ele>
        <time>2018-09-02T12:57:44Z</time>
      </trkpt>
      <trkpt lat="42.9863755451916" lon="-4.90134210326234">
        <ele>1132.91915512085</ele>
        <time>2018-09-02T12:57:45Z</time>
      </trkpt>
      <trkpt lat="42.9863338452233" lon="-4.90140924230674">
        <ele>1132.79647445679</ele>
        <time>2018-09-02T12:57:46Z</time>
      </trkpt>
      <trkpt lat="42.986299940425" lon="-4.90147981793145">
        <ele>1131.73141098022</ele>
        <time>2018-09-02T12:57:47Z</time>
      </trkpt>
      <trkpt lat="42.9862649040697" lon="-4.90154142491976">
        <ele>1132.12105941772</ele>
        <time>2018-09-02T12:57:48Z</time>
      </trkpt>
      <trkpt lat="42.9862235393775" lon="-4.90161258727769">
        <ele>1132.29586410522</ele>
        <time>2018-09-02T12:57:49Z</time>
      </trkpt>
      <trkpt lat="42.9861816298617" lon="-4.90167251788536">
        <ele>1131.25118637085</ele>
        <time>2018-09-02T12:57:50Z</time>
      </trkpt>
      <trkpt lat="42.9861423187358" lon="-4.90173965692977">
        <ele>1130.79842758179</ele>
        <time>2018-09-02T12:57:51Z</time>
      </trkpt>
      <trkpt lat="42.9860999482153" lon="-4.90180470049838">
        <ele>1130.89571762085</ele>
        <time>2018-09-02T12:57:52Z</time>
      </trkpt>
      <trkpt lat="42.9860652471362" lon="-4.90187234245697">
        <ele>1131.7282371521</ele>
        <time>2018-09-02T12:57:53Z</time>
      </trkpt>
      <trkpt lat="42.9860209487779" lon="-4.90193428472141">
        <ele>1131.7887840271</ele>
        <time>2018-09-02T12:57:54Z</time>
      </trkpt>
      <trkpt lat="42.9859831463946" lon="-4.90200318396548">
        <ele>1132.51449203491</ele>
        <time>2018-09-02T12:57:55Z</time>
      </trkpt>
      <trkpt lat="42.985941823612" lon="-4.90206537768701">
        <ele>1133.87337875366</ele>
        <time>2018-09-02T12:57:56Z</time>
      </trkpt>
      <trkpt lat="42.9859019257529" lon="-4.90212891251305">
        <ele>1134.58236312866</ele>
        <time>2018-09-02T12:57:57Z</time>
      </trkpt>
      <trkpt lat="42.9858614830701" lon="-4.90220485255579">
        <ele>1132.76253890991</ele>
        <time>2018-09-02T12:57:58Z</time>
      </trkpt>
      <trkpt lat="42.9858196992827" lon="-4.90226855501989">
        <ele>1133.48153305054</ele>
        <time>2018-09-02T12:57:59Z</time>
      </trkpt>
      <trkpt lat="42.9857804300664" lon="-4.90233183838884">
        <ele>1133.35213851929</ele>
        <time>2018-09-02T12:58:00Z</time>
      </trkpt>
      <trkpt lat="42.9857386881886" lon="-4.9023872427688">
        <ele>1133.43014144897</ele>
        <time>2018-09-02T12:58:01Z</time>
      </trkpt>
      <trkpt lat="42.9856999637959" lon="-4.90244625136713">
        <ele>1132.61812973022</ele>
        <time>2018-09-02T12:58:02Z</time>
      </trkpt>
      <trkpt lat="42.9856650950787" lon="-4.90250601433674">
        <ele>1132.50338363647</ele>
        <time>2018-09-02T12:58:03Z</time>
      </trkpt>
      <trkpt lat="42.9856201680777" lon="-4.90256284364024">
        <ele>1132.31283187866</ele>
        <time>2018-09-02T12:58:04Z</time>
      </trkpt>
      <trkpt lat="42.9855845030797" lon="-4.90262025967697">
        <ele>1132.16854476929</ele>
        <time>2018-09-02T12:58:05Z</time>
      </trkpt>
      <trkpt lat="42.9855397856263" lon="-4.90272427909533">
        <ele>1133.9909324646</ele>
        <time>2018-09-02T12:58:07Z</time>
      </trkpt>
      <trkpt lat="42.9855177831305" lon="-4.90278194658915">
        <ele>1133.2204246521</ele>
        <time>2018-09-02T12:58:08Z</time>
      </trkpt>
      <trkpt lat="42.9854998458577" lon="-4.90284204483489">
        <ele>1133.91610336304</ele>
        <time>2018-09-02T12:58:09Z</time>
      </trkpt>
      <trkpt lat="42.9854669887973" lon="-4.90294757299582">
        <ele>1134.01375961304</ele>
        <time>2018-09-02T12:58:11Z</time>
      </trkpt>
      <trkpt lat="42.9854308627946" lon="-4.9030365888075">
        <ele>1134.73873519897</ele>
        <time>2018-09-02T12:58:13Z</time>
      </trkpt>
      <trkpt lat="42.9854234448103" lon="-4.90309752524356">
        <ele>1133.79708480835</ele>
        <time>2018-09-02T12:58:14Z</time>
      </trkpt>
      <trkpt lat="42.9853889113692" lon="-4.90320288576642">
        <ele>1134.61117172241</ele>
        <time>2018-09-02T12:58:16Z</time>
      </trkpt>
      <trkpt lat="42.9853554675756" lon="-4.9032543506519">
        <ele>1135.20150375366</ele>
        <time>2018-09-02T12:58:17Z</time>
      </trkpt>
      <trkpt lat="42.9853220237819" lon="-4.90330740809897">
        <ele>1135.67440414429</ele>
        <time>2018-09-02T12:58:18Z</time>
      </trkpt>
      <trkpt lat="42.9852780606998" lon="-4.90336507559279">
        <ele>1134.2428855896</ele>
        <time>2018-09-02T12:58:19Z</time>
      </trkpt>
      <trkpt lat="42.9852348100794" lon="-4.9034219048963">
        <ele>1133.8932762146</ele>
        <time>2018-09-02T12:58:20Z</time>
      </trkpt>
      <trkpt lat="42.9851879133312" lon="-4.90348124877075">
        <ele>1133.89645004272</ele>
        <time>2018-09-02T12:58:21Z</time>
      </trkpt>
      <trkpt lat="42.9851368256314" lon="-4.90354562178711">
        <ele>1132.85238265991</ele>
        <time>2018-09-02T12:58:22Z</time>
      </trkpt>
      <trkpt lat="42.9850879591359" lon="-4.90360303782383">
        <ele>1132.81759262085</ele>
        <time>2018-09-02T12:58:23Z</time>
      </trkpt>
      <trkpt lat="42.9850397212831" lon="-4.90366296843151">
        <ele>1133.23958969116</ele>
        <time>2018-09-02T12:58:24Z</time>
      </trkpt>
      <trkpt lat="42.9849791620327" lon="-4.90372910164753">
        <ele>1131.51485824585</ele>
        <time>2018-09-02T12:58:25Z</time>
      </trkpt>
      <trkpt lat="42.9849376297025" lon="-4.90379791707257">
        <ele>1131.17477035522</ele>
        <time>2018-09-02T12:58:26Z</time>
      </trkpt>
      <trkpt lat="42.9848950915439" lon="-4.90387486294369">
        <ele>1130.3239402771</ele>
        <time>2018-09-02T12:58:27Z</time>
      </trkpt>
      <trkpt lat="42.9848448839439" lon="-4.90394770168225">
        <ele>1129.22750473022</ele>
        <time>2018-09-02T12:58:28Z</time>
      </trkpt>
      <trkpt lat="42.9847966460911" lon="-4.90401676856438">
        <ele>1128.87520980835</ele>
        <time>2018-09-02T12:58:29Z</time>
      </trkpt>
      <trkpt lat="42.9847429600013" lon="-4.90408684127489">
        <ele>1128.7233543396</ele>
        <time>2018-09-02T12:58:30Z</time>
      </trkpt>
      <trkpt lat="42.9846834065793" lon="-4.90414618514935">
        <ele>1128.6647605896</ele>
        <time>2018-09-02T12:58:31Z</time>
      </trkpt>
      <trkpt lat="42.9846384376688" lon="-4.90420008078674">
        <ele>1129.85750961304</ele>
        <time>2018-09-02T12:58:32Z</time>
      </trkpt>
      <trkpt lat="42.9845922952918" lon="-4.90427115932564">
        <ele>1129.88973617554</ele>
        <time>2018-09-02T12:58:33Z</time>
      </trkpt>
      <trkpt lat="42.9845448956294" lon="-4.9043455906258">
        <ele>1128.78573226929</ele>
        <time>2018-09-02T12:58:34Z</time>
      </trkpt>
      <trkpt lat="42.9845032794801" lon="-4.90441784263114">
        <ele>1128.87545394897</ele>
        <time>2018-09-02T12:58:35Z</time>
      </trkpt>
      <trkpt lat="42.9844599450407" lon="-4.90449847653965">
        <ele>1128.35152816772</ele>
        <time>2018-09-02T12:58:36Z</time>
      </trkpt>
      <trkpt lat="42.9844187060771" lon="-4.90456377156536">
        <ele>1129.24435043335</ele>
        <time>2018-09-02T12:58:37Z</time>
      </trkpt>
      <trkpt lat="42.9843824962554" lon="-4.9046252109156">
        <ele>1129.71310043335</ele>
        <time>2018-09-02T12:58:38Z</time>
      </trkpt>
      <trkpt lat="42.9843218112765" lon="-4.90473501384715">
        <ele>1130.37093734741</ele>
        <time>2018-09-02T12:58:40Z</time>
      </trkpt>
      <trkpt lat="42.9842777643753" lon="-4.90479008295099">
        <ele>1129.67281723022</ele>
        <time>2018-09-02T12:58:41Z</time>
      </trkpt>
      <trkpt lat="42.9842409259109" lon="-4.90484431386451">
        <ele>1129.89266586304</ele>
        <time>2018-09-02T12:58:42Z</time>
      </trkpt>
      <trkpt lat="42.9842076916648" lon="-4.90488781594197">
        <ele>1131.29879379272</ele>
        <time>2018-09-02T12:58:43Z</time>
      </trkpt>
      <trkpt lat="42.9841623874782" lon="-4.90494003519873">
        <ele>1131.64901351929</ele>
        <time>2018-09-02T12:58:44Z</time>
      </trkpt>
      <trkpt lat="42.9840831365837" lon="-4.90501781926016">
        <ele>1130.95858383179</ele>
        <time>2018-09-02T12:58:46Z</time>
      </trkpt>
      <trkpt lat="42.9840351082785" lon="-4.90506358445147">
        <ele>1131.17757797241</ele>
        <time>2018-09-02T12:58:47Z</time>
      </trkpt>
      <trkpt lat="42.9839864094211" lon="-4.90511261858503">
        <ele>1130.78853988647</ele>
        <time>2018-09-02T12:58:48Z</time>
      </trkpt>
      <trkpt lat="42.9839406023202" lon="-4.90515368991057">
        <ele>1131.13485336304</ele>
        <time>2018-09-02T12:58:49Z</time>
      </trkpt>
      <trkpt lat="42.983898902352" lon="-4.90521370433728">
        <ele>1130.27975082397</ele>
        <time>2018-09-02T12:58:50Z</time>
      </trkpt>
      <trkpt lat="42.9838404804868" lon="-4.90526592359404">
        <ele>1128.30953598022</ele>
        <time>2018-09-02T12:58:51Z</time>
      </trkpt>
      <trkpt lat="42.9837884288682" lon="-4.90532543510655">
        <ele>1126.81466293335</ele>
        <time>2018-09-02T12:58:52Z</time>
      </trkpt>
      <trkpt lat="42.9837356647877" lon="-4.90538570099036">
        <ele>1125.27962875366</ele>
        <time>2018-09-02T12:58:53Z</time>
      </trkpt>
      <trkpt lat="42.9836833198024" lon="-4.90544822998802">
        <ele>1124.72469711304</ele>
        <time>2018-09-02T12:58:54Z</time>
      </trkpt>
      <trkpt lat="42.9836284183366" lon="-4.90550899878601">
        <ele>1124.85970687866</ele>
        <time>2018-09-02T12:58:55Z</time>
      </trkpt>
      <trkpt lat="42.9835702479286" lon="-4.9055597093002">
        <ele>1123.55807113647</ele>
        <time>2018-09-02T12:58:56Z</time>
      </trkpt>
      <trkpt lat="42.983506587374" lon="-4.9056181311653">
        <ele>1123.57931137085</ele>
        <time>2018-09-02T12:58:57Z</time>
      </trkpt>
      <trkpt lat="42.9834447289286" lon="-4.90567504428784">
        <ele>1124.08285140991</ele>
        <time>2018-09-02T12:58:58Z</time>
      </trkpt>
      <trkpt lat="42.9833707167236" lon="-4.90572399460236">
        <ele>1122.75667953491</ele>
        <time>2018-09-02T12:58:59Z</time>
      </trkpt>
      <trkpt lat="42.9833083134545" lon="-4.90577428602139">
        <ele>1122.37386703491</ele>
        <time>2018-09-02T12:59:00Z</time>
      </trkpt>
      <trkpt lat="42.9832436470715" lon="-4.90582734346847">
        <ele>1121.4499168396</ele>
        <time>2018-09-02T12:59:01Z</time>
      </trkpt>
      <trkpt lat="42.9831885779677" lon="-4.90586640313725">
        <ele>1122.53426742554</ele>
        <time>2018-09-02T12:59:02Z</time>
      </trkpt>
      <trkpt lat="42.9831255879653" lon="-4.90591241978566">
        <ele>1121.79378890991</ele>
        <time>2018-09-02T12:59:03Z</time>
      </trkpt>
      <trkpt lat="42.9830673337383" lon="-4.90596623160402">
        <ele>1121.6852684021</ele>
        <time>2018-09-02T12:59:04Z</time>
      </trkpt>
      <trkpt lat="42.9830045532835" lon="-4.90601275116662">
        <ele>1122.18148422241</ele>
        <time>2018-09-02T12:59:05Z</time>
      </trkpt>
      <trkpt lat="42.9829525016649" lon="-4.90604728460769">
        <ele>1121.74056625366</ele>
        <time>2018-09-02T12:59:06Z</time>
      </trkpt>
      <trkpt lat="42.9828965105517" lon="-4.90609581582705">
        <ele>1121.77596664429</ele>
        <time>2018-09-02T12:59:07Z</time>
      </trkpt>
      <trkpt lat="42.9828559421403" lon="-4.90613839589516">
        <ele>1124.70016098022</ele>
        <time>2018-09-02T12:59:08Z</time>
      </trkpt>
      <trkpt lat="42.9827973526371" lon="-4.90619396791319">
        <ele>1124.98202133179</ele>
        <time>2018-09-02T12:59:09Z</time>
      </trkpt>
      <trkpt lat="42.9827300040452" lon="-4.90624635480801">
        <ele>1123.97249984741</ele>
        <time>2018-09-02T12:59:10Z</time>
      </trkpt>
      <trkpt lat="42.9826623620866" lon="-4.90633394569615">
        <ele>1118.94747543335</ele>
        <time>2018-09-02T12:59:11Z</time>
      </trkpt>
      <trkpt lat="42.9826183570949" lon="-4.9063853267626">
        <ele>1118.85067367554</ele>
        <time>2018-09-02T12:59:12Z</time>
      </trkpt>
      <trkpt lat="42.98255645674" lon="-4.90642958321134">
        <ele>1119.46737289429</ele>
        <time>2018-09-02T12:59:13Z</time>
      </trkpt>
      <trkpt lat="42.9824925866378" lon="-4.90648046136359">
        <ele>1119.56869125366</ele>
        <time>2018-09-02T12:59:14Z</time>
      </trkpt>
      <trkpt lat="42.9824471148131" lon="-4.90652245469848">
        <ele>1119.70992660522</ele>
        <time>2018-09-02T12:59:15Z</time>
      </trkpt>
      <trkpt lat="42.9823866812913" lon="-4.90655807778696">
        <ele>1119.97542953491</ele>
        <time>2018-09-02T12:59:16Z</time>
      </trkpt>
      <trkpt lat="42.9823326180158" lon="-4.90660384297828">
        <ele>1120.10103988647</ele>
        <time>2018-09-02T12:59:17Z</time>
      </trkpt>
      <trkpt lat="42.9822697956515" lon="-4.90664868616025">
        <ele>1120.43099594116</ele>
        <time>2018-09-02T12:59:18Z</time>
      </trkpt>
      <trkpt lat="42.9821990104792" lon="-4.90668841638128">
        <ele>1119.43282699585</ele>
        <time>2018-09-02T12:59:19Z</time>
      </trkpt>
      <trkpt lat="42.9821364395721" lon="-4.90673351102034">
        <ele>1118.52877426147</ele>
        <time>2018-09-02T12:59:20Z</time>
      </trkpt>
      <trkpt lat="42.9820771795167" lon="-4.90678665228645">
        <ele>1118.28353500366</ele>
        <time>2018-09-02T12:59:21Z</time>
      </trkpt>
      <trkpt lat="42.9820314981444" lon="-4.90683057345907">
        <ele>1119.03377914429</ele>
        <time>2018-09-02T12:59:22Z</time>
      </trkpt>
      <trkpt lat="42.9819794046162" lon="-4.90687516518394">
        <ele>1119.62679672241</ele>
        <time>2018-09-02T12:59:23Z</time>
      </trkpt>
      <trkpt lat="42.9819342261581" lon="-4.90691841580431">
        <ele>1120.19576644897</ele>
        <time>2018-09-02T12:59:24Z</time>
      </trkpt>
      <trkpt lat="42.9818784026829" lon="-4.90696552210013">
        <ele>1120.68502426147</ele>
        <time>2018-09-02T12:59:25Z</time>
      </trkpt>
      <trkpt lat="42.9818209866462" lon="-4.90700424649278">
        <ele>1120.70248031616</ele>
        <time>2018-09-02T12:59:26Z</time>
      </trkpt>
      <trkpt lat="42.981754434335" lon="-4.90704665892283">
        <ele>1120.53890609741</ele>
        <time>2018-09-02T12:59:27Z</time>
      </trkpt>
      <trkpt lat="42.9816945875464" lon="-4.90708974190513">
        <ele>1118.75094223022</ele>
        <time>2018-09-02T12:59:28Z</time>
      </trkpt>
      <trkpt lat="42.981640859547" lon="-4.90715151653151">
        <ele>1118.75594711304</ele>
        <time>2018-09-02T12:59:29Z</time>
      </trkpt>
      <trkpt lat="42.98158000693" lon="-4.90720918402533">
        <ele>1118.14608383179</ele>
        <time>2018-09-02T12:59:30Z</time>
      </trkpt>
      <trkpt lat="42.9815182742132" lon="-4.90727364086072">
        <ele>1117.8669090271</ele>
        <time>2018-09-02T12:59:31Z</time>
      </trkpt>
      <trkpt lat="42.9814620735524" lon="-4.90733876824836">
        <ele>1118.16427230835</ele>
        <time>2018-09-02T12:59:32Z</time>
      </trkpt>
      <trkpt lat="42.9814085551006" lon="-4.90740213543634">
        <ele>1117.83749008179</ele>
        <time>2018-09-02T12:59:33Z</time>
      </trkpt>
      <trkpt lat="42.9813542822776" lon="-4.9074818473355">
        <ele>1114.05257797241</ele>
        <time>2018-09-02T12:59:34Z</time>
      </trkpt>
      <trkpt lat="42.981297285336" lon="-4.90753088146905">
        <ele>1114.77791976929</ele>
        <time>2018-09-02T12:59:35Z</time>
      </trkpt>
      <trkpt lat="42.9812319484008" lon="-4.90757413208942">
        <ele>1115.31954574585</ele>
        <time>2018-09-02T12:59:36Z</time>
      </trkpt>
      <trkpt lat="42.9811682878462" lon="-4.90761034191112">
        <ele>1115.75118637085</ele>
        <time>2018-09-02T12:59:37Z</time>
      </trkpt>
      <trkpt lat="42.9810944851888" lon="-4.90762894973616">
        <ele>1115.57748031616</ele>
        <time>2018-09-02T12:59:38Z</time>
      </trkpt>
      <trkpt lat="42.9810216883598" lon="-4.90764504299025">
        <ele>1115.57918930054</ele>
        <time>2018-09-02T12:59:39Z</time>
      </trkpt>
      <trkpt lat="42.9809525795681" lon="-4.90765149705569">
        <ele>1115.94979476929</ele>
        <time>2018-09-02T12:59:40Z</time>
      </trkpt>
      <trkpt lat="42.9808820877624" lon="-4.9076665844814">
        <ele>1115.79415512085</ele>
        <time>2018-09-02T12:59:41Z</time>
      </trkpt>
      <trkpt lat="42.9808084108336" lon="-4.90767790005068">
        <ele>1115.89840316772</ele>
        <time>2018-09-02T12:59:42Z</time>
      </trkpt>
      <trkpt lat="42.9807328479765" lon="-4.90769675933282">
        <ele>1115.51681137085</ele>
        <time>2018-09-02T12:59:43Z</time>
      </trkpt>
      <trkpt lat="42.9806606378807" lon="-4.90771419369141">
        <ele>1115.7907371521</ele>
        <time>2018-09-02T12:59:44Z</time>
      </trkpt>
      <trkpt lat="42.9805940017504" lon="-4.9077390041248">
        <ele>1116.10348129272</ele>
        <time>2018-09-02T12:59:45Z</time>
      </trkpt>
      <trkpt lat="42.9805224622069" lon="-4.90776264109174">
        <ele>1116.77926254272</ele>
        <time>2018-09-02T12:59:46Z</time>
      </trkpt>
      <trkpt lat="42.9804516351251" lon="-4.90780035965602">
        <ele>1116.10238265991</ele>
        <time>2018-09-02T12:59:47Z</time>
      </trkpt>
      <trkpt lat="42.9803804308576" lon="-4.90784729831378">
        <ele>1115.61751937866</ele>
        <time>2018-09-02T12:59:48Z</time>
      </trkpt>
      <trkpt lat="42.9803249426586" lon="-4.9079081509308">
        <ele>1116.04403305054</ele>
        <time>2018-09-02T12:59:49Z</time>
      </trkpt>
      <trkpt lat="42.980267778079" lon="-4.90797067992846">
        <ele>1115.13204574585</ele>
        <time>2018-09-02T12:59:50Z</time>
      </trkpt>
      <trkpt lat="42.9802125832466" lon="-4.90803371184031">
        <ele>1115.68062973022</ele>
        <time>2018-09-02T12:59:51Z</time>
      </trkpt>
      <trkpt lat="42.9801636748416" lon="-4.90811107680659">
        <ele>1115.69234848022</ele>
        <time>2018-09-02T12:59:52Z</time>
      </trkpt>
      <trkpt lat="42.9801254533632" lon="-4.90818751976351">
        <ele>1115.56991195679</ele>
        <time>2018-09-02T12:59:53Z</time>
      </trkpt>
      <trkpt lat="42.9800933925835" lon="-4.90827226080457">
        <ele>1116.12423324585</ele>
        <time>2018-09-02T12:59:54Z</time>
      </trkpt>
      <trkpt lat="42.9800673667742" lon="-4.90835792385499">
        <ele>1117.83285140991</ele>
        <time>2018-09-02T12:59:55Z</time>
      </trkpt>
      <trkpt lat="42.9800508544249" lon="-4.908445179467">
        <ele>1118.49728012085</ele>
        <time>2018-09-02T12:59:56Z</time>
      </trkpt>
      <trkpt lat="42.9800301092146" lon="-4.90851776674847">
        <ele>1118.63778305054</ele>
        <time>2018-09-02T12:59:57Z</time>
      </trkpt>
      <trkpt lat="42.9800015269248" lon="-4.90859806538085">
        <ele>1118.35445785522</ele>
        <time>2018-09-02T12:59:58Z</time>
      </trkpt>
      <trkpt lat="42.9799622577084" lon="-4.90866872482459">
        <ele>1118.45846176147</ele>
        <time>2018-09-02T12:59:59Z</time>
      </trkpt>
      <trkpt lat="42.9799173307074" lon="-4.90873762406866">
        <ele>1118.49764633179</ele>
        <time>2018-09-02T13:00:00Z</time>
      </trkpt>
      <trkpt lat="42.9798714816971" lon="-4.90879495628635">
        <ele>1118.06051254272</ele>
        <time>2018-09-02T13:00:01Z</time>
      </trkpt>
      <trkpt lat="42.9798141075698" lon="-4.90884994157116">
        <ele>1117.59005355835</ele>
        <time>2018-09-02T13:00:02Z</time>
      </trkpt>
      <trkpt lat="42.9797603795705" lon="-4.90891037509302">
        <ele>1117.34566879272</ele>
        <time>2018-09-02T13:00:03Z</time>
      </trkpt>
      <trkpt lat="42.9797048075525" lon="-4.90897416137616">
        <ele>1117.18307113647</ele>
        <time>2018-09-02T13:00:04Z</time>
      </trkpt>
      <trkpt lat="42.9796416080026" lon="-4.90903828293542">
        <ele>1116.05318832397</ele>
        <time>2018-09-02T13:00:05Z</time>
      </trkpt>
      <trkpt lat="42.9795807972951" lon="-4.90909486078183">
        <ele>1116.27987289429</ele>
        <time>2018-09-02T13:00:06Z</time>
      </trkpt>
      <trkpt lat="42.979533020447" lon="-4.90915822796981">
        <ele>1116.3210105896</ele>
        <time>2018-09-02T13:00:07Z</time>
      </trkpt>
      <trkpt lat="42.9794874648032" lon="-4.90922536701421">
        <ele>1116.79830551147</ele>
        <time>2018-09-02T13:00:08Z</time>
      </trkpt>
      <trkpt lat="42.9794407356931" lon="-4.90930340253274">
        <ele>1116.01095199585</ele>
        <time>2018-09-02T13:00:09Z</time>
      </trkpt>
      <trkpt lat="42.9793979460774" lon="-4.90938831121187">
        <ele>1115.97018051147</ele>
        <time>2018-09-02T13:00:10Z</time>
      </trkpt>
      <trkpt lat="42.9793604370607" lon="-4.90947338752906">
        <ele>1116.08553695679</ele>
        <time>2018-09-02T13:00:11Z</time>
      </trkpt>
      <trkpt lat="42.9793318966804" lon="-4.90956332535009">
        <ele>1116.62679672241</ele>
        <time>2018-09-02T13:00:12Z</time>
      </trkpt>
      <trkpt lat="42.979300422634" lon="-4.90965108387629">
        <ele>1116.38387680054</ele>
        <time>2018-09-02T13:00:13Z</time>
      </trkpt>
      <trkpt lat="42.979271421249" lon="-4.90974353626828">
        <ele>1117.69356918335</ele>
        <time>2018-09-02T13:00:14Z</time>
      </trkpt>
      <trkpt lat="42.9792438028781" lon="-4.9098390061454">
        <ele>1117.09530258179</ele>
        <time>2018-09-02T13:00:15Z</time>
      </trkpt>
      <trkpt lat="42.9792125802887" lon="-4.90992693230967">
        <ele>1116.51205062866</ele>
        <time>2018-09-02T13:00:16Z</time>
      </trkpt>
      <trkpt lat="42.9791809805138" lon="-4.91001661867361">
        <ele>1116.16170883179</ele>
        <time>2018-09-02T13:00:17Z</time>
      </trkpt>
      <trkpt lat="42.9791412502927" lon="-4.91010110825757">
        <ele>1115.29305648804</ele>
        <time>2018-09-02T13:00:18Z</time>
      </trkpt>
      <trkpt lat="42.9791052919281" lon="-4.91018517874639">
        <ele>1115.84188461304</ele>
        <time>2018-09-02T13:00:19Z</time>
      </trkpt>
      <trkpt lat="42.9790702555729" lon="-4.91026656702618">
        <ele>1116.03365707397</ele>
        <time>2018-09-02T13:00:20Z</time>
      </trkpt>
      <trkpt lat="42.9790350934891" lon="-4.91035373881917">
        <ele>1115.70931625366</ele>
        <time>2018-09-02T13:00:21Z</time>
      </trkpt>
      <trkpt lat="42.9789936868874" lon="-4.91043194197576">
        <ele>1115.46468734741</ele>
        <time>2018-09-02T13:00:22Z</time>
      </trkpt>
      <trkpt lat="42.9789542081235" lon="-4.91050670855205">
        <ele>1115.5026512146</ele>
        <time>2018-09-02T13:00:23Z</time>
      </trkpt>
      <trkpt lat="42.9789116280554" lon="-4.91058181040446">
        <ele>1115.67037582397</ele>
        <time>2018-09-02T13:00:24Z</time>
      </trkpt>
      <trkpt lat="42.9788736999435" lon="-4.91065372713367">
        <ele>1115.33773422241</ele>
        <time>2018-09-02T13:00:25Z</time>
      </trkpt>
      <trkpt lat="42.9788363166554" lon="-4.91073427722315">
        <ele>1115.41793441772</ele>
        <time>2018-09-02T13:00:26Z</time>
      </trkpt>
      <trkpt lat="42.9787925631208" lon="-4.91080644540946">
        <ele>1115.51876449585</ele>
        <time>2018-09-02T13:00:27Z</time>
      </trkpt>
      <trkpt lat="42.9787357338173" lon="-4.91086168215136">
        <ele>1116.01363754272</ele>
        <time>2018-09-02T13:00:28Z</time>
      </trkpt>
      <trkpt lat="42.9786690976871" lon="-4.91089177318375">
        <ele>1115.91952133179</ele>
        <time>2018-09-02T13:00:29Z</time>
      </trkpt>
      <trkpt lat="42.9786032578377" lon="-4.91089981981079">
        <ele>1115.37582015991</ele>
        <time>2018-09-02T13:00:30Z</time>
      </trkpt>
      <trkpt lat="42.978534065227" lon="-4.91089261137406">
        <ele>1115.05367660522</ele>
        <time>2018-09-02T13:00:31Z</time>
      </trkpt>
      <trkpt lat="42.9784669261826" lon="-4.91087953560512">
        <ele>1114.24020004272</ele>
        <time>2018-09-02T13:00:32Z</time>
      </trkpt>
      <trkpt lat="42.978401798795" lon="-4.91087266244452">
        <ele>1114.86642074585</ele>
        <time>2018-09-02T13:00:33Z</time>
      </trkpt>
      <trkpt lat="42.9783355398504" lon="-4.91086000577073">
        <ele>1114.83932113647</ele>
        <time>2018-09-02T13:00:34Z</time>
      </trkpt>
      <trkpt lat="42.9782653414113" lon="-4.9108559824572">
        <ele>1114.26803207397</ele>
        <time>2018-09-02T13:00:35Z</time>
      </trkpt>
      <trkpt lat="42.9781976994527" lon="-4.91085656919043">
        <ele>1114.06539535522</ele>
        <time>2018-09-02T13:00:36Z</time>
      </trkpt>
      <trkpt lat="42.978136385831" lon="-4.91087123752098">
        <ele>1114.02596664429</ele>
        <time>2018-09-02T13:00:37Z</time>
      </trkpt>
      <trkpt lat="42.9780732281906" lon="-4.91088967770795">
        <ele>1114.2174949646</ele>
        <time>2018-09-02T13:00:38Z</time>
      </trkpt>
      <trkpt lat="42.9780140938638" lon="-4.91091423668425">
        <ele>1113.47066879272</ele>
        <time>2018-09-02T13:00:39Z</time>
      </trkpt>
      <trkpt lat="42.9779531574277" lon="-4.91094340570728">
        <ele>1112.96517562866</ele>
        <time>2018-09-02T13:00:40Z</time>
      </trkpt>
      <trkpt lat="42.9778923048107" lon="-4.91096762940745">
        <ele>1113.11727523804</ele>
        <time>2018-09-02T13:00:41Z</time>
      </trkpt>
      <trkpt lat="42.9778352659596" lon="-4.91100534797172">
        <ele>1113.09078598022</ele>
        <time>2018-09-02T13:00:42Z</time>
      </trkpt>
      <trkpt lat="42.9777797358511" lon="-4.91103074513833">
        <ele>1113.39413070679</ele>
        <time>2018-09-02T13:00:43Z</time>
      </trkpt>
      <trkpt lat="42.9777237447379" lon="-4.9110512808011">
        <ele>1112.90291976929</ele>
        <time>2018-09-02T13:00:44Z</time>
      </trkpt>
      <trkpt lat="42.9776743334187" lon="-4.91108288057606">
        <ele>1112.7770652771</ele>
        <time>2018-09-02T13:00:45Z</time>
      </trkpt>
      <trkpt lat="42.9776200186861" lon="-4.91111062467556">
        <ele>1112.94930648804</ele>
        <time>2018-09-02T13:00:46Z</time>
      </trkpt>
      <trkpt lat="42.9775665421439" lon="-4.91113778204183">
        <ele>1112.78939437866</ele>
        <time>2018-09-02T13:00:47Z</time>
      </trkpt>
      <trkpt lat="42.9775207769526" lon="-4.91119159386019">
        <ele>1112.22750473022</ele>
        <time>2018-09-02T13:00:48Z</time>
      </trkpt>
      <trkpt lat="42.9774663364915" lon="-4.911230737348">
        <ele>1112.76815414429</ele>
        <time>2018-09-02T13:00:49Z</time>
      </trkpt>
      <trkpt lat="42.9774144944204" lon="-4.91127206013064">
        <ele>1113.11568832397</ele>
        <time>2018-09-02T13:00:50Z</time>
      </trkpt>
      <trkpt lat="42.9773730039997" lon="-4.9113089405046">
        <ele>1113.80758285522</ele>
        <time>2018-09-02T13:00:51Z</time>
      </trkpt>
      <trkpt lat="42.9773200722812" lon="-4.91135973483781">
        <ele>1113.97225570679</ele>
        <time>2018-09-02T13:00:52Z</time>
      </trkpt>
      <trkpt lat="42.9772756481943" lon="-4.91139343008856">
        <ele>1113.8903465271</ele>
        <time>2018-09-02T13:00:53Z</time>
      </trkpt>
      <trkpt lat="42.9772330262167" lon="-4.91143056191961">
        <ele>1114.6012840271</ele>
        <time>2018-09-02T13:00:54Z</time>
      </trkpt>
      <trkpt lat="42.9771896917773" lon="-4.91146744229357">
        <ele>1114.7985496521</ele>
        <time>2018-09-02T13:00:55Z</time>
      </trkpt>
      <trkpt lat="42.9771425016625" lon="-4.91149937734465">
        <ele>1114.49691390991</ele>
        <time>2018-09-02T13:00:56Z</time>
      </trkpt>
      <trkpt lat="42.9770912044151" lon="-4.91153215058605">
        <ele>1114.42892074585</ele>
        <time>2018-09-02T13:00:57Z</time>
      </trkpt>
      <trkpt lat="42.9770482890708" lon="-4.91156634875099">
        <ele>1114.46224594116</ele>
        <time>2018-09-02T13:00:58Z</time>
      </trkpt>
      <trkpt lat="42.9770067567406" lon="-4.91159635596435">
        <ele>1114.94259262085</ele>
        <time>2018-09-02T13:00:59Z</time>
      </trkpt>
      <trkpt lat="42.9769636737583" lon="-4.91163943894665">
        <ele>1114.80660629272</ele>
        <time>2018-09-02T13:01:00Z</time>
      </trkpt>
      <trkpt lat="42.9768936848668" lon="-4.91171420552294">
        <ele>1115.94320297241</ele>
        <time>2018-09-02T13:01:02Z</time>
      </trkpt>
      <trkpt lat="42.9768581036879" lon="-4.91175678559105">
        <ele>1115.53414535522</ele>
        <time>2018-09-02T13:01:03Z</time>
      </trkpt>
      <trkpt lat="42.9768207203997" lon="-4.91179509088854">
        <ele>1115.87936019897</ele>
        <time>2018-09-02T13:01:04Z</time>
      </trkpt>
      <trkpt lat="42.9767739912895" lon="-4.91183063015799">
        <ele>1116.24862289429</ele>
        <time>2018-09-02T13:01:05Z</time>
      </trkpt>
      <trkpt lat="42.9767283099172" lon="-4.91186365485649">
        <ele>1116.11288070679</ele>
        <time>2018-09-02T13:01:06Z</time>
      </trkpt>
      <trkpt lat="42.9766910523576" lon="-4.91189877503078">
        <ele>1116.33517074585</ele>
        <time>2018-09-02T13:01:07Z</time>
      </trkpt>
      <trkpt lat="42.9766447004331" lon="-4.91192014888386">
        <ele>1116.20113754272</ele>
        <time>2018-09-02T13:01:08Z</time>
      </trkpt>
      <trkpt lat="42.9765897989673" lon="-4.91193481721441">
        <ele>1116.30184555054</ele>
        <time>2018-09-02T13:01:09Z</time>
      </trkpt>
      <trkpt lat="42.9765374958915" lon="-4.9119421932892">
        <ele>1118.82137680054</ele>
        <time>2018-09-02T13:01:10Z</time>
      </trkpt>
      <trkpt lat="42.9764866596488" lon="-4.91197169758837">
        <ele>1119.01009750366</ele>
        <time>2018-09-02T13:01:11Z</time>
      </trkpt>
      <trkpt lat="42.9764391761673" lon="-4.91200773977201">
        <ele>1117.80550765991</ele>
        <time>2018-09-02T13:01:12Z</time>
      </trkpt>
      <trkpt lat="42.9763876693724" lon="-4.91203431040506">
        <ele>1117.84225082397</ele>
        <time>2018-09-02T13:01:13Z</time>
      </trkpt>
      <trkpt lat="42.9763361625774" lon="-4.91206758656065">
        <ele>1117.54146957397</ele>
        <time>2018-09-02T13:01:14Z</time>
      </trkpt>
      <trkpt lat="42.9762781178979" lon="-4.9120907206134">
        <ele>1117.75448226929</ele>
        <time>2018-09-02T13:01:15Z</time>
      </trkpt>
      <trkpt lat="42.9762217915086" lon="-4.91213472560506">
        <ele>1118.49850082397</ele>
        <time>2018-09-02T13:01:16Z</time>
      </trkpt>
      <trkpt lat="42.9761593882395" lon="-4.91218074225347">
        <ele>1119.72347640991</ele>
        <time>2018-09-02T13:01:17Z</time>
      </trkpt>
      <trkpt lat="42.9761037324024" lon="-4.91220815107684">
        <ele>1118.58846664429</ele>
        <time>2018-09-02T13:01:18Z</time>
      </trkpt>
      <trkpt lat="42.9760476574702" lon="-4.91223815829019">
        <ele>1117.64889144897</ele>
        <time>2018-09-02T13:01:19Z</time>
      </trkpt>
      <trkpt lat="42.9759965697704" lon="-4.91227990016799">
        <ele>1118.24850082397</ele>
        <time>2018-09-02T13:01:20Z</time>
      </trkpt>
      <trkpt lat="42.9759404110191" lon="-4.91231828928451">
        <ele>1118.49239730835</ele>
        <time>2018-09-02T13:01:21Z</time>
      </trkpt>
      <trkpt lat="42.9758842941774" lon="-4.91235190071623">
        <ele>1118.13607406616</ele>
        <time>2018-09-02T13:01:22Z</time>
      </trkpt>
      <trkpt lat="42.975822435732" lon="-4.91238182411055">
        <ele>1117.76168441772</ele>
        <time>2018-09-02T13:01:23Z</time>
      </trkpt>
      <trkpt lat="42.975763049948" lon="-4.9124102387623">
        <ele>1117.56173324585</ele>
        <time>2018-09-02T13:01:24Z</time>
      </trkpt>
      <trkpt lat="42.9757066816492" lon="-4.91244569421272">
        <ele>1117.13619613647</ele>
        <time>2018-09-02T13:01:25Z</time>
      </trkpt>
      <trkpt lat="42.9756548814876" lon="-4.91248056292991">
        <ele>1117.04732894897</ele>
        <time>2018-09-02T13:01:26Z</time>
      </trkpt>
      <trkpt lat="42.9756107926769" lon="-4.91252230480771">
        <ele>1117.11629867554</ele>
        <time>2018-09-02T13:01:27Z</time>
      </trkpt>
      <trkpt lat="42.9755682126088" lon="-4.91257133894126">
        <ele>1117.07625961304</ele>
        <time>2018-09-02T13:01:28Z</time>
      </trkpt>
      <trkpt lat="42.9755289853019" lon="-4.91262414493124">
        <ele>1116.55624008179</ele>
        <time>2018-09-02T13:01:29Z</time>
      </trkpt>
      <trkpt lat="42.9754980979888" lon="-4.91268156096797">
        <ele>1116.73617172241</ele>
        <time>2018-09-02T13:01:30Z</time>
      </trkpt>
      <trkpt lat="42.9754626844479" lon="-4.91274098866145">
        <ele>1115.95016098022</ele>
        <time>2018-09-02T13:01:31Z</time>
      </trkpt>
      <trkpt lat="42.9754330963297" lon="-4.9128024280117">
        <ele>1116.26803207397</ele>
        <time>2018-09-02T13:01:32Z</time>
      </trkpt>
      <trkpt lat="42.9754034243924" lon="-4.91285858676295">
        <ele>1116.31002426147</ele>
        <time>2018-09-02T13:01:33Z</time>
      </trkpt>
      <trkpt lat="42.9753749259216" lon="-4.91292295977931">
        <ele>1115.93746566772</ele>
        <time>2018-09-02T13:01:34Z</time>
      </trkpt>
      <trkpt lat="42.9753433680562" lon="-4.9129942897753">
        <ele>1115.05086898804</ele>
        <time>2018-09-02T13:01:35Z</time>
      </trkpt>
      <trkpt lat="42.9753126902906" lon="-4.91306587122838">
        <ele>1114.40902328491</ele>
        <time>2018-09-02T13:01:36Z</time>
      </trkpt>
      <trkpt lat="42.9752789531303" lon="-4.91313602775793">
        <ele>1114.63863754272</ele>
        <time>2018-09-02T13:01:37Z</time>
      </trkpt>
      <trkpt lat="42.9752476886315" lon="-4.9131998978601">
        <ele>1114.9889793396</ele>
        <time>2018-09-02T13:01:38Z</time>
      </trkpt>
      <trkpt lat="42.9752154183043" lon="-4.91326502524774">
        <ele>1114.65389633179</ele>
        <time>2018-09-02T13:01:39Z</time>
      </trkpt>
      <trkpt lat="42.975175017531" lon="-4.91333342157762">
        <ele>1114.39852523804</ele>
        <time>2018-09-02T13:01:40Z</time>
      </trkpt>
      <trkpt lat="42.9751458065985" lon="-4.91339989006977">
        <ele>1113.99520492554</ele>
        <time>2018-09-02T13:01:41Z</time>
      </trkpt>
      <trkpt lat="42.9751079203961" lon="-4.91346141323905">
        <ele>1113.87801742554</ele>
        <time>2018-09-02T13:01:42Z</time>
      </trkpt>
      <trkpt lat="42.975037638138" lon="-4.91355059668879">
        <ele>1115.22848129272</ele>
        <time>2018-09-02T13:01:44Z</time>
      </trkpt>
      <trkpt lat="42.9749854188813" lon="-4.91359812207978">
        <ele>1115.44710922241</ele>
        <time>2018-09-02T13:01:45Z</time>
      </trkpt>
      <trkpt lat="42.9749350017337" lon="-4.91364162415724">
        <ele>1115.37874984741</ele>
        <time>2018-09-02T13:01:46Z</time>
      </trkpt>
      <trkpt lat="42.9748826986579" lon="-4.91368277930181">
        <ele>1114.86251449585</ele>
        <time>2018-09-02T13:01:47Z</time>
      </trkpt>
      <trkpt lat="42.9748409986896" lon="-4.91372066550414">
        <ele>1114.01583480835</ele>
        <time>2018-09-02T13:01:48Z</time>
      </trkpt>
      <trkpt lat="42.974802274297" lon="-4.91377171129446">
        <ele>1113.7223777771</ele>
        <time>2018-09-02T13:01:49Z</time>
      </trkpt>
      <trkpt lat="42.9747540783537" lon="-4.91382711567442">
        <ele>1112.84811019897</ele>
        <time>2018-09-02T13:01:50Z</time>
      </trkpt>
      <trkpt lat="42.974705840501" lon="-4.91386944428544">
        <ele>1113.20394515991</ele>
        <time>2018-09-02T13:01:51Z</time>
      </trkpt>
      <trkpt lat="42.9746577283768" lon="-4.91392015479963">
        <ele>1112.82259750366</ele>
        <time>2018-09-02T13:01:52Z</time>
      </trkpt>
      <trkpt lat="42.9746036231918" lon="-4.91397899575989">
        <ele>1111.8102684021</ele>
        <time>2018-09-02T13:01:53Z</time>
      </trkpt>
      <trkpt lat="42.9745504400162" lon="-4.91402719170313">
        <ele>1110.9870262146</ele>
        <time>2018-09-02T13:01:54Z</time>
      </trkpt>
      <trkpt lat="42.9745005257828" lon="-4.91407756694119">
        <ele>1110.74142074585</ele>
        <time>2018-09-02T13:01:55Z</time>
      </trkpt>
      <trkpt lat="42.9744550539581" lon="-4.91412098519962">
        <ele>1111.15865707397</ele>
        <time>2018-09-02T13:01:56Z</time>
      </trkpt>
      <trkpt lat="42.9744136054469" lon="-4.91416934878092">
        <ele>1111.61812973022</ele>
        <time>2018-09-02T13:01:57Z</time>
      </trkpt>
      <trkpt lat="42.9743666248796" lon="-4.91421536542933">
        <ele>1112.11141586304</ele>
        <time>2018-09-02T13:01:58Z</time>
      </trkpt>
      <trkpt lat="42.9742950434265" lon="-4.91427353583734">
        <ele>1112.76205062866</ele>
        <time>2018-09-02T13:02:00Z</time>
      </trkpt>
      <trkpt lat="42.9742525471775" lon="-4.91429993883233">
        <ele>1112.96151351929</ele>
        <time>2018-09-02T13:02:01Z</time>
      </trkpt>
      <trkpt lat="42.9741994897304" lon="-4.91432952695053">
        <ele>1111.65584945679</ele>
        <time>2018-09-02T13:02:02Z</time>
      </trkpt>
      <trkpt lat="42.9741580831287" lon="-4.91436146200161">
        <ele>1111.62191390991</ele>
        <time>2018-09-02T13:02:03Z</time>
      </trkpt>
      <trkpt lat="42.9741132399467" lon="-4.91439926438491">
        <ele>1110.23690414429</ele>
        <time>2018-09-02T13:02:04Z</time>
      </trkpt>
      <trkpt lat="42.9740724619878" lon="-4.91442952305536">
        <ele>1108.91830062866</ele>
        <time>2018-09-02T13:02:05Z</time>
      </trkpt>
      <trkpt lat="42.9740352044282" lon="-4.91446950473349">
        <ele>1108.94930648804</ele>
        <time>2018-09-02T13:02:06Z</time>
      </trkpt>
      <trkpt lat="42.973994971293" lon="-4.91451141424935">
        <ele>1109.63143539429</ele>
        <time>2018-09-02T13:02:07Z</time>
      </trkpt>
      <trkpt lat="42.9739351245044" lon="-4.91458844393949">
        <ele>1110.51656723022</ele>
        <time>2018-09-02T13:02:09Z</time>
      </trkpt>
      <trkpt lat="42.9739057459337" lon="-4.91463881917756">
        <ele>1110.78402328491</ele>
        <time>2018-09-02T13:02:10Z</time>
      </trkpt>
      <trkpt lat="42.9738717573164" lon="-4.91469120607238">
        <ele>1110.57259750366</ele>
        <time>2018-09-02T13:02:11Z</time>
      </trkpt>
      <trkpt lat="42.9738425463838" lon="-4.91474166512947">
        <ele>1111.14571762085</ele>
        <time>2018-09-02T13:02:12Z</time>
      </trkpt>
      <trkpt lat="42.9738251539347" lon="-4.91479866207104">
        <ele>1112.00545883179</ele>
        <time>2018-09-02T13:02:13Z</time>
      </trkpt>
      <trkpt lat="42.9737805622099" lon="-4.91490729153614">
        <ele>1110.94454574585</ele>
        <time>2018-09-02T13:02:15Z</time>
      </trkpt>
      <trkpt lat="42.9737386107845" lon="-4.91502354853313">
        <ele>1111.52547836304</ele>
        <time>2018-09-02T13:02:17Z</time>
      </trkpt>
      <trkpt lat="42.9737213021544" lon="-4.91508155130308">
        <ele>1112.37142562866</ele>
        <time>2018-09-02T13:02:18Z</time>
      </trkpt>
      <trkpt lat="42.9737122077895" lon="-4.91514273919623">
        <ele>1113.60006332397</ele>
        <time>2018-09-02T13:02:19Z</time>
      </trkpt>
      <trkpt lat="42.9737000121204" lon="-4.91520644166033">
        <ele>1114.35433578491</ele>
        <time>2018-09-02T13:02:20Z</time>
      </trkpt>
      <trkpt lat="42.9736799374623" lon="-4.91527140140991">
        <ele>1114.53377914429</ele>
        <time>2018-09-02T13:02:21Z</time>
      </trkpt>
      <trkpt lat="42.9736550013004" lon="-4.91533074528437">
        <ele>1114.04195785522</ele>
        <time>2018-09-02T13:02:22Z</time>
      </trkpt>
      <trkpt lat="42.9736375250322" lon="-4.91539218463461">
        <ele>1115.10384750366</ele>
        <time>2018-09-02T13:02:23Z</time>
      </trkpt>
      <trkpt lat="42.9736224376065" lon="-4.91545538418453">
        <ele>1115.28609848022</ele>
        <time>2018-09-02T13:02:24Z</time>
      </trkpt>
      <trkpt lat="42.9735933524025" lon="-4.9155620858119">
        <ele>1115.36141586304</ele>
        <time>2018-09-02T13:02:26Z</time>
      </trkpt>
      <trkpt lat="42.9735837551234" lon="-4.91569586098652">
        <ele>1115.77938461304</ele>
        <time>2018-09-02T13:02:28Z</time>
      </trkpt>
      <trkpt lat="42.9735764209581" lon="-4.91576559842091">
        <ele>1115.14071273804</ele>
        <time>2018-09-02T13:02:29Z</time>
      </trkpt>
      <trkpt lat="42.9735621298132" lon="-4.91583860479753">
        <ele>1115.34798812866</ele>
        <time>2018-09-02T13:02:30Z</time>
      </trkpt>
      <trkpt lat="42.973555047105" lon="-4.91591261700253">
        <ele>1115.73360824585</ele>
        <time>2018-09-02T13:02:31Z</time>
      </trkpt>
      <trkpt lat="42.9735469585685" lon="-4.91598805413108">
        <ele>1115.81820297241</ele>
        <time>2018-09-02T13:02:32Z</time>
      </trkpt>
      <trkpt lat="42.9735369002847" lon="-4.91606399417381">
        <ele>1116.12191390991</ele>
        <time>2018-09-02T13:02:33Z</time>
      </trkpt>
      <trkpt lat="42.9735254170773" lon="-4.91613674909334">
        <ele>1116.01034164429</ele>
        <time>2018-09-02T13:02:34Z</time>
      </trkpt>
      <trkpt lat="42.9735058872429" lon="-4.91621880792539">
        <ele>1114.72555160522</ele>
        <time>2018-09-02T13:02:35Z</time>
      </trkpt>
      <trkpt lat="42.9734923923788" lon="-4.9163063149945">
        <ele>1114.66231918335</ele>
        <time>2018-09-02T13:02:36Z</time>
      </trkpt>
      <trkpt lat="42.9734740360109" lon="-4.91638284177046">
        <ele>1113.92440414429</ele>
        <time>2018-09-02T13:02:37Z</time>
      </trkpt>
      <trkpt lat="42.9734543804479" lon="-4.91645542905192">
        <ele>1114.60348129272</ele>
        <time>2018-09-02T13:02:38Z</time>
      </trkpt>
      <trkpt lat="42.9734354373468" lon="-4.91653371602755">
        <ele>1115.24142074585</ele>
        <time>2018-09-02T13:02:39Z</time>
      </trkpt>
      <trkpt lat="42.9734084476186" lon="-4.91660454310935">
        <ele>1115.16915512085</ele>
        <time>2018-09-02T13:02:40Z</time>
      </trkpt>
      <trkpt lat="42.9733782308576" lon="-4.91666405462186">
        <ele>1115.52853012085</ele>
        <time>2018-09-02T13:02:41Z</time>
      </trkpt>
      <trkpt lat="42.9733446194259" lon="-4.91670613177579">
        <ele>1116.47311019897</ele>
        <time>2018-09-02T13:02:42Z</time>
      </trkpt>
      <trkpt lat="42.9732848145468" lon="-4.91674963385325">
        <ele>1115.78841781616</ele>
        <time>2018-09-02T13:02:43Z</time>
      </trkpt>
      <trkpt lat="42.9732452100543" lon="-4.91679933853905">
        <ele>1110.1032371521</ele>
        <time>2018-09-02T13:02:44Z</time>
      </trkpt>
      <trkpt lat="42.9731989000393" lon="-4.91679271683555">
        <ele>1107.67489242554</ele>
        <time>2018-09-02T13:02:45Z</time>
      </trkpt>
      <trkpt lat="42.9731354909418" lon="-4.91676740348797">
        <ele>1107.98275375366</ele>
        <time>2018-09-02T13:02:46Z</time>
      </trkpt>
      <trkpt lat="42.9730735067678" lon="-4.91674778983455">
        <ele>1108.08041000366</ele>
        <time>2018-09-02T13:02:47Z</time>
      </trkpt>
      <trkpt lat="42.9730205750493" lon="-4.91673069075208">
        <ele>1107.8327293396</ele>
        <time>2018-09-02T13:02:48Z</time>
      </trkpt>
      <trkpt lat="42.972968313883" lon="-4.91671577096443">
        <ele>1106.2604637146</ele>
        <time>2018-09-02T13:02:49Z</time>
      </trkpt>
      <trkpt lat="42.972908760461" lon="-4.91673949175041">
        <ele>1104.83358383179</ele>
        <time>2018-09-02T13:02:51Z</time>
      </trkpt>
      <trkpt lat="42.9728566669328" lon="-4.91678969935041">
        <ele>1105.22408676147</ele>
        <time>2018-09-02T13:02:53Z</time>
      </trkpt>
      <trkpt lat="42.9728461476443" lon="-4.91688785143655">
        <ele>1106.66610336304</ele>
        <time>2018-09-02T13:02:55Z</time>
      </trkpt>
      <trkpt lat="42.9728855425892" lon="-4.91698508151334">
        <ele>1108.34225082397</ele>
        <time>2018-09-02T13:02:57Z</time>
      </trkpt>
      <trkpt lat="42.9729113169415" lon="-4.91704777814906">
        <ele>1110.16622543335</ele>
        <time>2018-09-02T13:02:58Z</time>
      </trkpt>
      <trkpt lat="42.9729521368099" lon="-4.91708708927493">
        <ele>1114.22640609741</ele>
        <time>2018-09-02T13:02:59Z</time>
      </trkpt>
      <trkpt lat="42.9729828145755" lon="-4.91714199074071">
        <ele>1115.53084945679</ele>
        <time>2018-09-02T13:03:00Z</time>
      </trkpt>
      <trkpt lat="42.9730199044971" lon="-4.91721583530765">
        <ele>1112.28951644897</ele>
        <time>2018-09-02T13:03:01Z</time>
      </trkpt>
      <trkpt lat="42.9730481096012" lon="-4.91728104651432">
        <ele>1110.24618148804</ele>
        <time>2018-09-02T13:03:02Z</time>
      </trkpt>
      <trkpt lat="42.9730593413515" lon="-4.917414989327">
        <ele>1112.72262191772</ele>
        <time>2018-09-02T13:03:04Z</time>
      </trkpt>
      <trkpt lat="42.9730270291147" lon="-4.91754465736907">
        <ele>1111.07369613647</ele>
        <time>2018-09-02T13:03:06Z</time>
      </trkpt>
      <trkpt lat="42.973011774051" lon="-4.91761255078476">
        <ele>1112.38570785522</ele>
        <time>2018-09-02T13:03:07Z</time>
      </trkpt>
      <trkpt lat="42.9729948426066" lon="-4.91769117303651">
        <ele>1111.3512840271</ele>
        <time>2018-09-02T13:03:08Z</time>
      </trkpt>
      <trkpt lat="42.9729727143822" lon="-4.91776493378442">
        <ele>1110.81234359741</ele>
        <time>2018-09-02T13:03:09Z</time>
      </trkpt>
      <trkpt lat="42.9729601415274" lon="-4.91783383302849">
        <ele>1111.23238754272</ele>
        <time>2018-09-02T13:03:10Z</time>
      </trkpt>
      <trkpt lat="42.9729510471625" lon="-4.91790776141446">
        <ele>1111.94222640991</ele>
        <time>2018-09-02T13:03:11Z</time>
      </trkpt>
      <trkpt lat="42.9729262367291" lon="-4.91800985299509">
        <ele>1115.26424789429</ele>
        <time>2018-09-02T13:03:13Z</time>
      </trkpt>
      <trkpt lat="42.9728985764486" lon="-4.91807271726887">
        <ele>1116.03744125366</ele>
        <time>2018-09-02T13:03:14Z</time>
      </trkpt>
      <trkpt lat="42.9728748975722" lon="-4.91814195178907">
        <ele>1114.85360336304</ele>
        <time>2018-09-02T13:03:15Z</time>
      </trkpt>
      <trkpt lat="42.9728388972981" lon="-4.91819157265585">
        <ele>1114.02535629272</ele>
        <time>2018-09-02T13:03:16Z</time>
      </trkpt>
      <trkpt lat="42.9728070041565" lon="-4.9182577896909">
        <ele>1113.5192527771</ele>
        <time>2018-09-02T13:03:17Z</time>
      </trkpt>
      <trkpt lat="42.9727675253926" lon="-4.91831562482279">
        <ele>1113.15963363647</ele>
        <time>2018-09-02T13:03:18Z</time>
      </trkpt>
      <trkpt lat="42.9727299744663" lon="-4.91836524568956">
        <ele>1113.36019515991</ele>
        <time>2018-09-02T13:03:19Z</time>
      </trkpt>
      <trkpt lat="42.9726939741922" lon="-4.9184200633363">
        <ele>1114.50875473022</ele>
        <time>2018-09-02T13:03:20Z</time>
      </trkpt>
      <trkpt lat="42.9726525675906" lon="-4.91847915575366">
        <ele>1114.74691390991</ele>
        <time>2018-09-02T13:03:21Z</time>
      </trkpt>
      <trkpt lat="42.9726132564647" lon="-4.91853036918204">
        <ele>1115.28438949585</ele>
        <time>2018-09-02T13:03:22Z</time>
      </trkpt>
      <trkpt lat="42.9725806927709" lon="-4.91857831366818">
        <ele>1116.12118148804</ele>
        <time>2018-09-02T13:03:23Z</time>
      </trkpt>
      <trkpt lat="42.9725294793425" lon="-4.91866439581375">
        <ele>1116.97994613647</ele>
        <time>2018-09-02T13:03:25Z</time>
      </trkpt>
      <trkpt lat="42.9724889947502" lon="-4.91870915517669">
        <ele>1116.06234359741</ele>
        <time>2018-09-02T13:03:26Z</time>
      </trkpt>
      <trkpt lat="42.9724337999178" lon="-4.91879113018971">
        <ele>1116.75728988647</ele>
        <time>2018-09-02T13:03:28Z</time>
      </trkpt>
      <trkpt lat="42.9723836342273" lon="-4.91887469776433">
        <ele>1118.54000473022</ele>
        <time>2018-09-02T13:03:30Z</time>
      </trkpt>
      <trkpt lat="42.9723640624834" lon="-4.91893186234396">
        <ele>1117.91939926147</ele>
        <time>2018-09-02T13:03:31Z</time>
      </trkpt>
      <trkpt lat="42.9723206023154" lon="-4.91904200055163">
        <ele>1117.23653793335</ele>
        <time>2018-09-02T13:03:33Z</time>
      </trkpt>
      <trkpt lat="42.9722983483625" lon="-4.91914727725547">
        <ele>1119.98006820679</ele>
        <time>2018-09-02T13:03:35Z</time>
      </trkpt>
      <trkpt lat="42.9722739989338" lon="-4.91926202550989">
        <ele>1122.3063621521</ele>
        <time>2018-09-02T13:03:37Z</time>
      </trkpt>
      <trkpt lat="42.9722554749278" lon="-4.91937241517465">
        <ele>1124.04476547241</ele>
        <time>2018-09-02T13:03:39Z</time>
      </trkpt>
      <trkpt lat="42.972242734435" lon="-4.91944064386647">
        <ele>1123.97445297241</ele>
        <time>2018-09-02T13:03:40Z</time>
      </trkpt>
      <trkpt lat="42.9722187621919" lon="-4.91954826750319">
        <ele>1124.8083152771</ele>
        <time>2018-09-02T13:03:42Z</time>
      </trkpt>
      <trkpt lat="42.972212350036" lon="-4.91961741820436">
        <ele>1124.37325668335</ele>
        <time>2018-09-02T13:03:43Z</time>
      </trkpt>
      <trkpt lat="42.9721888807071" lon="-4.91973820142906">
        <ele>1124.61153793335</ele>
        <time>2018-09-02T13:03:45Z</time>
      </trkpt>
      <trkpt lat="42.972167506854" lon="-4.91981137544375">
        <ele>1123.85763168335</ele>
        <time>2018-09-02T13:03:46Z</time>
      </trkpt>
      <trkpt lat="42.9721453786296" lon="-4.91987792775493">
        <ele>1122.87752914429</ele>
        <time>2018-09-02T13:03:47Z</time>
      </trkpt>
      <trkpt lat="42.9721250106049" lon="-4.91995193995994">
        <ele>1121.47249984741</ele>
        <time>2018-09-02T13:03:48Z</time>
      </trkpt>
      <trkpt lat="42.9721135273976" lon="-4.92004095577162">
        <ele>1120.70125961304</ele>
        <time>2018-09-02T13:03:49Z</time>
      </trkpt>
      <trkpt lat="42.9720937461061" lon="-4.92013122886878">
        <ele>1119.1256980896</ele>
        <time>2018-09-02T13:03:50Z</time>
      </trkpt>
      <trkpt lat="42.9720719950674" lon="-4.92019937374156">
        <ele>1119.78902816772</ele>
        <time>2018-09-02T13:03:51Z</time>
      </trkpt>
      <trkpt lat="42.9720469750864" lon="-4.92025041953187">
        <ele>1118.35848617554</ele>
        <time>2018-09-02T13:03:52Z</time>
      </trkpt>
      <trkpt lat="42.9720227932958" lon="-4.92032392882269">
        <ele>1118.73080062866</ele>
        <time>2018-09-02T13:03:53Z</time>
      </trkpt>
      <trkpt lat="42.9720239667622" lon="-4.92041009478729">
        <ele>1119.4538230896</ele>
        <time>2018-09-02T13:03:54Z</time>
      </trkpt>
      <trkpt lat="42.971986499655" lon="-4.92049466819029">
        <ele>1119.35348129272</ele>
        <time>2018-09-02T13:03:55Z</time>
      </trkpt>
      <trkpt lat="42.9719938338203" lon="-4.92060514167409">
        <ele>1119.47811508179</ele>
        <time>2018-09-02T13:03:56Z</time>
      </trkpt>
      <trkpt lat="42.9719951749248" lon="-4.92071226239663">
        <ele>1121.5075340271</ele>
        <time>2018-09-02T13:03:58Z</time>
      </trkpt>
      <trkpt lat="42.9719931213585" lon="-4.92077730596524">
        <ele>1122.77376937866</ele>
        <time>2018-09-02T13:03:59Z</time>
      </trkpt>
      <trkpt lat="42.9719515471188" lon="-4.92085626349311">
        <ele>1122.93770980835</ele>
        <time>2018-09-02T13:04:01Z</time>
      </trkpt>
      <trkpt lat="42.9719146667449" lon="-4.92094418965738">
        <ele>1123.96224594116</ele>
        <time>2018-09-02T13:04:03Z</time>
      </trkpt>
      <trkpt lat="42.9718874674691" lon="-4.92099875584703">
        <ele>1124.06100082397</ele>
        <time>2018-09-02T13:04:04Z</time>
      </trkpt>
      <trkpt lat="42.9718585079936" lon="-4.92105474696022">
        <ele>1123.6296043396</ele>
        <time>2018-09-02T13:04:05Z</time>
      </trkpt>
      <trkpt lat="42.9718155088303" lon="-4.92112850770813">
        <ele>1120.28915023804</ele>
        <time>2018-09-02T13:04:07Z</time>
      </trkpt>
      <trkpt lat="42.9717625771118" lon="-4.92118282244068">
        <ele>1119.15316390991</ele>
        <time>2018-09-02T13:04:09Z</time>
      </trkpt>
      <trkpt lat="42.971701095852" lon="-4.92126865312915">
        <ele>1119.38399887085</ele>
        <time>2018-09-02T13:04:11Z</time>
      </trkpt>
      <trkpt lat="42.971640075597" lon="-4.92134945467573">
        <ele>1121.73299789429</ele>
        <time>2018-09-02T13:04:13Z</time>
      </trkpt>
      <trkpt lat="42.971596615429" lon="-4.92142849602264">
        <ele>1123.67953109741</ele>
        <time>2018-09-02T13:04:15Z</time>
      </trkpt>
      <trkpt lat="42.971547707024" lon="-4.92152941413682">
        <ele>1121.6940574646</ele>
        <time>2018-09-02T13:04:17Z</time>
      </trkpt>
      <trkpt lat="42.9715232737763" lon="-4.92160049267572">
        <ele>1122.09579086304</ele>
        <time>2018-09-02T13:04:18Z</time>
      </trkpt>
      <trkpt lat="42.9714969965098" lon="-4.92166126147371">
        <ele>1123.52376937866</ele>
        <time>2018-09-02T13:04:19Z</time>
      </trkpt>
      <trkpt lat="42.9714645585445" lon="-4.92172781378489">
        <ele>1123.12557601929</ele>
        <time>2018-09-02T13:04:20Z</time>
      </trkpt>
      <trkpt lat="42.9714199668197" lon="-4.92180626839858">
        <ele>1122.1530418396</ele>
        <time>2018-09-02T13:04:21Z</time>
      </trkpt>
      <trkpt lat="42.9713776382087" lon="-4.92189151235383">
        <ele>1119.38998031616</ele>
        <time>2018-09-02T13:04:22Z</time>
      </trkpt>
      <trkpt lat="42.9713276820657" lon="-4.92198530585032">
        <ele>1118.81478500366</ele>
        <time>2018-09-02T13:04:23Z</time>
      </trkpt>
      <trkpt lat="42.9712799471272" lon="-4.92208245210808">
        <ele>1118.44381332397</ele>
        <time>2018-09-02T13:04:24Z</time>
      </trkpt>
      <trkpt lat="42.9712338466597" lon="-4.92216627113979">
        <ele>1115.95394515991</ele>
        <time>2018-09-02T13:04:25Z</time>
      </trkpt>
      <trkpt lat="42.9711786518274" lon="-4.92225796916049">
        <ele>1115.58578109741</ele>
        <time>2018-09-02T13:04:26Z</time>
      </trkpt>
      <trkpt lat="42.9711335990978" lon="-4.92231421173077">
        <ele>1114.1051902771</ele>
        <time>2018-09-02T13:04:27Z</time>
      </trkpt>
      <trkpt lat="42.9710605089022" lon="-4.9223298858897">
        <ele>1113.06917953491</ele>
        <time>2018-09-02T13:04:28Z</time>
      </trkpt>
      <trkpt lat="42.9709826829312" lon="-4.9223510082857">
        <ele>1111.29391098022</ele>
        <time>2018-09-02T13:04:29Z</time>
      </trkpt>
      <trkpt lat="42.9709004564611" lon="-4.9223610665695">
        <ele>1108.62508773804</ele>
        <time>2018-09-02T13:04:30Z</time>
      </trkpt>
      <trkpt lat="42.9707992449803" lon="-4.92238948122125">
        <ele>1107.3493309021</ele>
        <time>2018-09-02T13:04:31Z</time>
      </trkpt>
      <trkpt lat="42.9706984525947" lon="-4.92243122309905">
        <ele>1105.55196762085</ele>
        <time>2018-09-02T13:04:32Z</time>
      </trkpt>
      <trkpt lat="42.9706089757783" lon="-4.92249735631507">
        <ele>1104.3971824646</ele>
        <time>2018-09-02T13:04:33Z</time>
      </trkpt>
      <trkpt lat="42.9705391545249" lon="-4.92257346399587">
        <ele>1104.10543441772</ele>
        <time>2018-09-02T13:04:34Z</time>
      </trkpt>
      <trkpt lat="42.970503908622" lon="-4.92266734131139">
        <ele>1102.96737289429</ele>
        <time>2018-09-02T13:04:35Z</time>
      </trkpt>
      <trkpt lat="42.9704790981887" lon="-4.92279239930671">
        <ele>1104.14596176147</ele>
        <time>2018-09-02T13:04:36Z</time>
      </trkpt>
      <trkpt lat="42.9704681178955" lon="-4.92289189249736">
        <ele>1104.5436668396</ele>
        <time>2018-09-02T13:04:37Z</time>
      </trkpt>
      <trkpt lat="42.9704568442357" lon="-4.92297973484259">
        <ele>1105.04049301147</ele>
        <time>2018-09-02T13:04:38Z</time>
      </trkpt>
      <trkpt lat="42.97046426222" lon="-4.9230762105481">
        <ele>1103.53829574585</ele>
        <time>2018-09-02T13:04:39Z</time>
      </trkpt>
      <trkpt lat="42.9704982927469" lon="-4.92314117029768">
        <ele>1103.96920394897</ele>
        <time>2018-09-02T13:04:40Z</time>
      </trkpt>
      <trkpt lat="42.9705406632675" lon="-4.92318006232839">
        <ele>1104.7526512146</ele>
        <time>2018-09-02T13:04:41Z</time>
      </trkpt>
      <trkpt lat="42.9705893202154" lon="-4.92321250029367">
        <ele>1105.48678207397</ele>
        <time>2018-09-02T13:04:42Z</time>
      </trkpt>
      <trkpt lat="42.9706401145486" lon="-4.92325558327597">
        <ele>1105.5270652771</ele>
        <time>2018-09-02T13:04:43Z</time>
      </trkpt>
      <trkpt lat="42.9706933815432" lon="-4.92330176756244">
        <ele>1106.15438461304</ele>
        <time>2018-09-02T13:04:44Z</time>
      </trkpt>
      <trkpt lat="42.9707325250311" lon="-4.92333755828899">
        <ele>1106.0505027771</ele>
        <time>2018-09-02T13:04:45Z</time>
      </trkpt>
      <trkpt lat="42.970783864188" lon="-4.92337661795777">
        <ele>1107.38985824585</ele>
        <time>2018-09-02T13:04:46Z</time>
      </trkpt>
      <trkpt lat="42.9708335688738" lon="-4.92341810837847">
        <ele>1107.4489402771</ele>
        <time>2018-09-02T13:04:47Z</time>
      </trkpt>
      <trkpt lat="42.9708862910447" lon="-4.92346429266494">
        <ele>1108.11959457397</ele>
        <time>2018-09-02T13:04:48Z</time>
      </trkpt>
      <trkpt lat="42.9709362052781" lon="-4.92350268178147">
        <ele>1108.58626937866</ele>
        <time>2018-09-02T13:04:49Z</time>
      </trkpt>
      <trkpt lat="42.9709954653335" lon="-4.92353159934741">
        <ele>1109.02865219116</ele>
        <time>2018-09-02T13:04:50Z</time>
      </trkpt>
      <trkpt lat="42.9710497381566" lon="-4.9235733412252">
        <ele>1108.95663070679</ele>
        <time>2018-09-02T13:04:51Z</time>
      </trkpt>
      <trkpt lat="42.971103717613" lon="-4.92361458018881">
        <ele>1109.04940414429</ele>
        <time>2018-09-02T13:04:52Z</time>
      </trkpt>
      <trkpt lat="42.9711610498307" lon="-4.92365942337077">
        <ele>1108.77193832397</ele>
        <time>2018-09-02T13:04:53Z</time>
      </trkpt>
      <trkpt lat="42.9712158674774" lon="-4.92369387299281">
        <ele>1109.11617660522</ele>
        <time>2018-09-02T13:04:54Z</time>
      </trkpt>
      <trkpt lat="42.9712802404938" lon="-4.92373921908897">
        <ele>1107.83504867554</ele>
        <time>2018-09-02T13:04:55Z</time>
      </trkpt>
      <trkpt lat="42.9713444458721" lon="-4.92378716357511">
        <ele>1106.23983383179</ele>
        <time>2018-09-02T13:04:56Z</time>
      </trkpt>
      <trkpt lat="42.9714016104517" lon="-4.92382940836709">
        <ele>1106.44564437866</ele>
        <time>2018-09-02T13:04:57Z</time>
      </trkpt>
      <trkpt lat="42.9714615410594" lon="-4.92387902923387">
        <ele>1106.37240219116</ele>
        <time>2018-09-02T13:04:58Z</time>
      </trkpt>
      <trkpt lat="42.9715267103566" lon="-4.92392026819747">
        <ele>1106.03475570679</ele>
        <time>2018-09-02T13:04:59Z</time>
      </trkpt>
      <trkpt lat="42.9715980822621" lon="-4.92395220324856">
        <ele>1106.32650375366</ele>
        <time>2018-09-02T13:05:00Z</time>
      </trkpt>
      <trkpt lat="42.9716737708477" lon="-4.92397206835907">
        <ele>1106.52462387085</ele>
        <time>2018-09-02T13:05:01Z</time>
      </trkpt>
      <trkpt lat="42.9717365093929" lon="-4.92400266230565">
        <ele>1106.47262191772</ele>
        <time>2018-09-02T13:05:02Z</time>
      </trkpt>
      <trkpt lat="42.971805408637" lon="-4.92403644137543">
        <ele>1107.06466293335</ele>
        <time>2018-09-02T13:05:03Z</time>
      </trkpt>
      <trkpt lat="42.971874056424" lon="-4.92405982688528">
        <ele>1107.45174789429</ele>
        <time>2018-09-02T13:05:04Z</time>
      </trkpt>
      <trkpt lat="42.971941405016" lon="-4.92408706807059">
        <ele>1107.4059715271</ele>
        <time>2018-09-02T13:05:05Z</time>
      </trkpt>
      <trkpt lat="42.9720042273802" lon="-4.92410961539012">
        <ele>1108.80916976929</ele>
        <time>2018-09-02T13:05:06Z</time>
      </trkpt>
      <trkpt lat="42.9720740067241" lon="-4.92412294261616">
        <ele>1109.12838363647</ele>
        <time>2018-09-02T13:05:07Z</time>
      </trkpt>
      <trkpt lat="42.9721380444644" lon="-4.92413861677509">
        <ele>1108.07711410522</ele>
        <time>2018-09-02T13:05:08Z</time>
      </trkpt>
      <trkpt lat="42.972199106629" lon="-4.92414297536474">
        <ele>1107.92806625366</ele>
        <time>2018-09-02T13:05:09Z</time>
      </trkpt>
      <trkpt lat="42.9722529603569" lon="-4.92414565757376">
        <ele>1108.2253074646</ele>
        <time>2018-09-02T13:05:10Z</time>
      </trkpt>
      <trkpt lat="42.9723137291548" lon="-4.9241502676205">
        <ele>1109.34884262085</ele>
        <time>2018-09-02T13:05:11Z</time>
      </trkpt>
      <trkpt lat="42.9723681277064" lon="-4.92416292429429">
        <ele>1109.94881820679</ele>
        <time>2018-09-02T13:05:12Z</time>
      </trkpt>
      <trkpt lat="42.9724200955061" lon="-4.92417281494003">
        <ele>1109.36544418335</ele>
        <time>2018-09-02T13:05:13Z</time>
      </trkpt>
      <trkpt lat="42.9724774696333" lon="-4.92417843081516">
        <ele>1109.71627426147</ele>
        <time>2018-09-02T13:05:14Z</time>
      </trkpt>
      <trkpt lat="42.9725398309929" lon="-4.92420726456207">
        <ele>1109.85799789429</ele>
        <time>2018-09-02T13:05:15Z</time>
      </trkpt>
      <trkpt lat="42.9725918407021" lon="-4.92425001226824">
        <ele>1110.53792953491</ele>
        <time>2018-09-02T13:05:16Z</time>
      </trkpt>
      <trkpt lat="42.9726402461929" lon="-4.92430943996173">
        <ele>1109.95785140991</ele>
        <time>2018-09-02T13:05:17Z</time>
      </trkpt>
      <trkpt lat="42.9726782581238" lon="-4.92436124012333">
        <ele>1109.65682601929</ele>
        <time>2018-09-02T13:05:18Z</time>
      </trkpt>
      <trkpt lat="42.9727278789906" lon="-4.92442527786356">
        <ele>1108.35726547241</ele>
        <time>2018-09-02T13:05:19Z</time>
      </trkpt>
      <trkpt lat="42.972771381068" lon="-4.92448914796573">
        <ele>1107.62508773804</ele>
        <time>2018-09-02T13:05:20Z</time>
      </trkpt>
      <trkpt lat="42.9728166014356" lon="-4.92454262450796">
        <ele>1107.42428207397</ele>
        <time>2018-09-02T13:05:21Z</time>
      </trkpt>
      <trkpt lat="42.9728561640186" lon="-4.92460364476305">
        <ele>1107.51253890991</ele>
        <time>2018-09-02T13:05:22Z</time>
      </trkpt>
      <trkpt lat="42.9728996241865" lon="-4.92467019707423">
        <ele>1106.51876449585</ele>
        <time>2018-09-02T13:05:23Z</time>
      </trkpt>
      <trkpt lat="42.9729276616526" lon="-4.92472551763516">
        <ele>1105.62984848022</ele>
        <time>2018-09-02T13:05:24Z</time>
      </trkpt>
      <trkpt lat="42.972978875081" lon="-4.92477488704484">
        <ele>1105.23104476929</ele>
        <time>2018-09-02T13:05:25Z</time>
      </trkpt>
      <trkpt lat="42.9730348661942" lon="-4.92481813766521">
        <ele>1105.68758773804</ele>
        <time>2018-09-02T13:05:26Z</time>
      </trkpt>
      <trkpt lat="42.9730921145929" lon="-4.92485594004851">
        <ele>1106.4587059021</ele>
        <time>2018-09-02T13:05:27Z</time>
      </trkpt>
      <trkpt lat="42.9731680546356" lon="-4.92489759810728">
        <ele>1106.00680160522</ele>
        <time>2018-09-02T13:05:28Z</time>
      </trkpt>
      <trkpt lat="42.9732173402263" lon="-4.92493565194767">
        <ele>1106.6159324646</ele>
        <time>2018-09-02T13:05:29Z</time>
      </trkpt>
      <trkpt lat="42.9732916457979" lon="-4.92496792227488">
        <ele>1104.42928695679</ele>
        <time>2018-09-02T13:05:30Z</time>
      </trkpt>
      <trkpt lat="42.973352666053" lon="-4.92499952204984">
        <ele>1104.29684066772</ele>
        <time>2018-09-02T13:05:31Z</time>
      </trkpt>
      <trkpt lat="42.973402957472" lon="-4.92502475157839">
        <ele>1102.91170883179</ele>
        <time>2018-09-02T13:05:32Z</time>
      </trkpt>
      <trkpt lat="42.9734534165291" lon="-4.92503749207121">
        <ele>1102.45992660522</ele>
        <time>2018-09-02T13:05:33Z</time>
      </trkpt>
      <trkpt lat="42.9735138081414" lon="-4.92506322451394">
        <ele>1102.46017074585</ele>
        <time>2018-09-02T13:05:34Z</time>
      </trkpt>
      <trkpt lat="42.9735665722219" lon="-4.92508124560576">
        <ele>1102.97750473022</ele>
        <time>2018-09-02T13:05:35Z</time>
      </trkpt>
      <trkpt lat="42.9736190010262" lon="-4.92511158809524">
        <ele>1102.40426254272</ele>
        <time>2018-09-02T13:05:36Z</time>
      </trkpt>
      <trkpt lat="42.9736669455124" lon="-4.92514620535534">
        <ele>1103.17293930054</ele>
        <time>2018-09-02T13:05:37Z</time>
      </trkpt>
      <trkpt lat="42.9737111181421" lon="-4.92516556755167">
        <ele>1103.9264793396</ele>
        <time>2018-09-02T13:05:38Z</time>
      </trkpt>
      <trkpt lat="42.9737839568807" lon="-4.92517889477771">
        <ele>1105.64510726929</ele>
        <time>2018-09-02T13:05:40Z</time>
      </trkpt>
      <trkpt lat="42.9738270817725" lon="-4.92522063665551">
        <ele>1105.81307601929</ele>
        <time>2018-09-02T13:05:42Z</time>
      </trkpt>
      <trkpt lat="42.9738456057785" lon="-4.92532515898806">
        <ele>1106.1237449646</ele>
        <time>2018-09-02T13:05:44Z</time>
      </trkpt>
      <trkpt lat="42.9738551192386" lon="-4.92539640516501">
        <ele>1103.81917953491</ele>
        <time>2018-09-02T13:05:45Z</time>
      </trkpt>
      <trkpt lat="42.9738263274012" lon="-4.92551316507619">
        <ele>1104.07821273804</ele>
        <time>2018-09-02T13:05:47Z</time>
      </trkpt>
      <trkpt lat="42.9738146765558" lon="-4.92558080703479">
        <ele>1103.00472640991</ele>
        <time>2018-09-02T13:05:48Z</time>
      </trkpt>
      <trkpt lat="42.9737997567681" lon="-4.925647443165">
        <ele>1103.24374008179</ele>
        <time>2018-09-02T13:05:49Z</time>
      </trkpt>
      <trkpt lat="42.9737851722566" lon="-4.92571542039972">
        <ele>1104.31380844116</ele>
        <time>2018-09-02T13:05:50Z</time>
      </trkpt>
      <trkpt lat="42.973775616887" lon="-4.92578239180606">
        <ele>1104.34200668335</ele>
        <time>2018-09-02T13:05:51Z</time>
      </trkpt>
      <trkpt lat="42.9737498425347" lon="-4.92591465823811">
        <ele>1104.74996566772</ele>
        <time>2018-09-02T13:05:53Z</time>
      </trkpt>
      <trkpt lat="42.9737329949094" lon="-4.92598531768185">
        <ele>1104.85201644897</ele>
        <time>2018-09-02T13:05:54Z</time>
      </trkpt>
      <trkpt lat="42.9737147223605" lon="-4.92606125772458">
        <ele>1104.41292953491</ele>
        <time>2018-09-02T13:05:55Z</time>
      </trkpt>
      <trkpt lat="42.9736945219738" lon="-4.92612848058802">
        <ele>1104.24923324585</ele>
        <time>2018-09-02T13:05:56Z</time>
      </trkpt>
      <trkpt lat="42.9736802727384" lon="-4.92619955912691">
        <ele>1103.44002914429</ele>
        <time>2018-09-02T13:05:57Z</time>
      </trkpt>
      <trkpt lat="42.9736731481207" lon="-4.9262656085239">
        <ele>1103.73458480835</ele>
        <time>2018-09-02T13:05:58Z</time>
      </trkpt>
      <trkpt lat="42.9736636765701" lon="-4.92632880807382">
        <ele>1104.01131820679</ele>
        <time>2018-09-02T13:05:59Z</time>
      </trkpt>
      <trkpt lat="42.9736601561708" lon="-4.92640516721171">
        <ele>1103.03902816772</ele>
        <time>2018-09-02T13:06:00Z</time>
      </trkpt>
      <trkpt lat="42.9736483376873" lon="-4.92646828294259">
        <ele>1103.39388656616</ele>
        <time>2018-09-02T13:06:01Z</time>
      </trkpt>
      <trkpt lat="42.9736337112663" lon="-4.92653709836763">
        <ele>1103.31527328491</ele>
        <time>2018-09-02T13:06:02Z</time>
      </trkpt>
      <trkpt lat="42.9736227309731" lon="-4.92660884745878">
        <ele>1103.58907699585</ele>
        <time>2018-09-02T13:06:03Z</time>
      </trkpt>
      <trkpt lat="42.9736065119905" lon="-4.92667908780736">
        <ele>1103.61812973022</ele>
        <time>2018-09-02T13:06:04Z</time>
      </trkpt>
      <trkpt lat="42.973595908883" lon="-4.92674387991887">
        <ele>1103.23177719116</ele>
        <time>2018-09-02T13:06:05Z</time>
      </trkpt>
      <trkpt lat="42.9735835036663" lon="-4.92681202479166">
        <ele>1103.17611312866</ele>
        <time>2018-09-02T13:06:06Z</time>
      </trkpt>
      <trkpt lat="42.9735695477975" lon="-4.92688779719633">
        <ele>1102.46993637085</ele>
        <time>2018-09-02T13:06:07Z</time>
      </trkpt>
      <trkpt lat="42.9735585255949" lon="-4.926953008403">
        <ele>1102.3981590271</ele>
        <time>2018-09-02T13:06:08Z</time>
      </trkpt>
      <trkpt lat="42.9735449469117" lon="-4.92701863870484">
        <ele>1102.85873031616</ele>
        <time>2018-09-02T13:06:09Z</time>
      </trkpt>
      <trkpt lat="42.9735321225999" lon="-4.92707957514089">
        <ele>1102.75423812866</ele>
        <time>2018-09-02T13:06:10Z</time>
      </trkpt>
      <trkpt lat="42.9735147720603" lon="-4.92720471695524">
        <ele>1101.42892074585</ele>
        <time>2018-09-02T13:06:12Z</time>
      </trkpt>
      <trkpt lat="42.9735084856329" lon="-4.92729507387143">
        <ele>1102.64449691772</ele>
        <time>2018-09-02T13:06:14Z</time>
      </trkpt>
      <trkpt lat="42.9734597867755" lon="-4.92730949074489">
        <ele>1102.80807113647</ele>
        <time>2018-09-02T13:06:17Z</time>
      </trkpt>
      <trkpt lat="42.9734766763104" lon="-4.92722148076159">
        <ele>1102.65572738647</ele>
        <time>2018-09-02T13:06:19Z</time>
      </trkpt>
      <trkpt lat="42.9735058034239" lon="-4.92708971724373">
        <ele>1103.47469711304</ele>
        <time>2018-09-02T13:06:21Z</time>
      </trkpt>
      <trkpt lat="42.9735486768586" lon="-4.92699055932921">
        <ele>1102.0319480896</ele>
        <time>2018-09-02T13:06:23Z</time>
      </trkpt>
      <trkpt lat="42.9735631775511" lon="-4.92692124098998">
        <ele>1100.5368309021</ele>
        <time>2018-09-02T13:06:24Z</time>
      </trkpt>
      <trkpt lat="42.9735687096072" lon="-4.92685569450718">
        <ele>1100.94088363647</ele>
        <time>2018-09-02T13:06:25Z</time>
      </trkpt>
      <trkpt lat="42.9735822044713" lon="-4.92678092793089">
        <ele>1101.31466293335</ele>
        <time>2018-09-02T13:06:26Z</time>
      </trkpt>
      <trkpt lat="42.9736034525959" lon="-4.92664849386078">
        <ele>1102.64950180054</ele>
        <time>2018-09-02T13:06:28Z</time>
      </trkpt>
      <trkpt lat="42.9736247426299" lon="-4.9265837855683">
        <ele>1102.61214828491</ele>
        <time>2018-09-02T13:06:29Z</time>
      </trkpt>
      <trkpt lat="42.9736376926703" lon="-4.9265161436097">
        <ele>1102.93453598022</ele>
        <time>2018-09-02T13:06:30Z</time>
      </trkpt>
      <trkpt lat="42.973658060695" lon="-4.92644087411922">
        <ele>1102.58968734741</ele>
        <time>2018-09-02T13:06:31Z</time>
      </trkpt>
      <trkpt lat="42.9736841703234" lon="-4.92631673813325">
        <ele>1099.51351547241</ele>
        <time>2018-09-02T13:06:33Z</time>
      </trkpt>
      <trkpt lat="42.9736933904169" lon="-4.92625085637432">
        <ele>1100.07748031616</ele>
        <time>2018-09-02T13:06:34Z</time>
      </trkpt>
      <trkpt lat="42.9737058794526" lon="-4.9261826276825">
        <ele>1100.19552230835</ele>
        <time>2018-09-02T13:06:35Z</time>
      </trkpt>
      <trkpt lat="42.973713465075" lon="-4.92610970512491">
        <ele>1099.9235496521</ele>
        <time>2018-09-02T13:06:36Z</time>
      </trkpt>
      <trkpt lat="42.9737224337114" lon="-4.92603083141607">
        <ele>1100.15133285522</ele>
        <time>2018-09-02T13:06:37Z</time>
      </trkpt>
      <trkpt lat="42.9737273790342" lon="-4.92596260272425">
        <ele>1099.16024398804</ele>
        <time>2018-09-02T13:06:38Z</time>
      </trkpt>
      <trkpt lat="42.9737417539982" lon="-4.92587668821674">
        <ele>1098.97811508179</ele>
        <time>2018-09-02T13:06:39Z</time>
      </trkpt>
      <trkpt lat="42.9737586016236" lon="-4.92580317892593">
        <ele>1100.09493637085</ele>
        <time>2018-09-02T13:06:40Z</time>
      </trkpt>
      <trkpt lat="42.9737668158887" lon="-4.92572137155098">
        <ele>1100.39046859741</ele>
        <time>2018-09-02T13:06:41Z</time>
      </trkpt>
      <trkpt lat="42.9737772094486" lon="-4.92564308457535">
        <ele>1101.1589012146</ele>
        <time>2018-09-02T13:06:42Z</time>
      </trkpt>
      <trkpt lat="42.9737893632082" lon="-4.92556496523779">
        <ele>1101.35262680054</ele>
        <time>2018-09-02T13:06:43Z</time>
      </trkpt>
      <trkpt lat="42.973796823102" lon="-4.92548642680508">
        <ele>1101.10482406616</ele>
        <time>2018-09-02T13:06:44Z</time>
      </trkpt>
      <trkpt lat="42.9738078033952" lon="-4.92540713400107">
        <ele>1100.79793930054</ele>
        <time>2018-09-02T13:06:45Z</time>
      </trkpt>
      <trkpt lat="42.9738011816917" lon="-4.92533303797704">
        <ele>1100.5446434021</ele>
        <time>2018-09-02T13:06:46Z</time>
      </trkpt>
      <trkpt lat="42.9737889860226" lon="-4.9252676591323">
        <ele>1101.21029281616</ele>
        <time>2018-09-02T13:06:47Z</time>
      </trkpt>
      <trkpt lat="42.9737428017361" lon="-4.92521669716102">
        <ele>1100.28670883179</ele>
        <time>2018-09-02T13:06:48Z</time>
      </trkpt>
      <trkpt lat="42.9736922169504" lon="-4.92517788894933">
        <ele>1099.92342758179</ele>
        <time>2018-09-02T13:06:49Z</time>
      </trkpt>
      <trkpt lat="42.9736334178997" lon="-4.92514704354566">
        <ele>1100.57125473022</ele>
        <time>2018-09-02T13:06:50Z</time>
      </trkpt>
      <trkpt lat="42.9735745350299" lon="-4.92512173019808">
        <ele>1101.05672836304</ele>
        <time>2018-09-02T13:06:51Z</time>
      </trkpt>
      <trkpt lat="42.9735102039231" lon="-4.9250879511283">
        <ele>1100.15145492554</ele>
        <time>2018-09-02T13:06:52Z</time>
      </trkpt>
      <trkpt lat="42.9734513210533" lon="-4.92505987175268">
        <ele>1100.09823226929</ele>
        <time>2018-09-02T13:06:53Z</time>
      </trkpt>
      <trkpt lat="42.9733916419027" lon="-4.92502408102613">
        <ele>1100.46883773804</ele>
        <time>2018-09-02T13:06:54Z</time>
      </trkpt>
      <trkpt lat="42.973326346877" lon="-4.92500480264884">
        <ele>1101.21224594116</ele>
        <time>2018-09-02T13:06:55Z</time>
      </trkpt>
      <trkpt lat="42.9732631054176" lon="-4.92497286759776">
        <ele>1101.71004867554</ele>
        <time>2018-09-02T13:06:56Z</time>
      </trkpt>
      <trkpt lat="42.9732008697865" lon="-4.9249378312425">
        <ele>1101.86654281616</ele>
        <time>2018-09-02T13:06:57Z</time>
      </trkpt>
      <trkpt lat="42.9731406877218" lon="-4.92490799166721">
        <ele>1101.60470199585</ele>
        <time>2018-09-02T13:06:58Z</time>
      </trkpt>
      <trkpt lat="42.9730829783184" lon="-4.92488477379542">
        <ele>1100.94100570679</ele>
        <time>2018-09-02T13:06:59Z</time>
      </trkpt>
      <trkpt lat="42.9730205750493" lon="-4.92485049181145">
        <ele>1100.43343734741</ele>
        <time>2018-09-02T13:07:00Z</time>
      </trkpt>
      <trkpt lat="42.972968146245" lon="-4.92480363697272">
        <ele>1100.68709945679</ele>
        <time>2018-09-02T13:07:01Z</time>
      </trkpt>
      <trkpt lat="42.9729279550193" lon="-4.92474311963182">
        <ele>1100.3034324646</ele>
        <time>2018-09-02T13:07:02Z</time>
      </trkpt>
      <trkpt lat="42.9728861712319" lon="-4.92468997836572">
        <ele>1101.97298812866</ele>
        <time>2018-09-02T13:07:03Z</time>
      </trkpt>
      <trkpt lat="42.9728417471451" lon="-4.92462426424485">
        <ele>1102.58248519897</ele>
        <time>2018-09-02T13:07:04Z</time>
      </trkpt>
      <trkpt lat="42.9728041123999" lon="-4.92455628701013">
        <ele>1103.50716781616</ele>
        <time>2018-09-02T13:07:05Z</time>
      </trkpt>
      <trkpt lat="42.9727596044941" lon="-4.92448923178476">
        <ele>1104.64986801147</ele>
        <time>2018-09-02T13:07:06Z</time>
      </trkpt>
      <trkpt lat="42.9727176111592" lon="-4.9244333244906">
        <ele>1104.66488265991</ele>
        <time>2018-09-02T13:07:07Z</time>
      </trkpt>
      <trkpt lat="42.972672181244" lon="-4.92437900975805">
        <ele>1104.16427230835</ele>
        <time>2018-09-02T13:07:08Z</time>
      </trkpt>
      <trkpt lat="42.9726310260994" lon="-4.92431220598977">
        <ele>1104.12997055054</ele>
        <time>2018-09-02T13:07:09Z</time>
      </trkpt>
      <trkpt lat="42.9725765437288" lon="-4.92425462231499">
        <ele>1104.04549789429</ele>
        <time>2018-09-02T13:07:10Z</time>
      </trkpt>
      <trkpt lat="42.9725208040727" lon="-4.92419997230631">
        <ele>1103.8835105896</ele>
        <time>2018-09-02T13:07:11Z</time>
      </trkpt>
      <trkpt lat="42.9724481748817" lon="-4.92417440750163">
        <ele>1104.17928695679</ele>
        <time>2018-09-02T13:07:12Z</time>
      </trkpt>
      <trkpt lat="42.9723863583458" lon="-4.92418111302417">
        <ele>1103.16756820679</ele>
        <time>2018-09-02T13:07:13Z</time>
      </trkpt>
      <trkpt lat="42.9723167885495" lon="-4.92418983020347">
        <ele>1103.24422836304</ele>
        <time>2018-09-02T13:07:14Z</time>
      </trkpt>
      <trkpt lat="42.972242650616" lon="-4.92419125512701">
        <ele>1103.41512680054</ele>
        <time>2018-09-02T13:07:15Z</time>
      </trkpt>
      <trkpt lat="42.9721730808196" lon="-4.92418538779479">
        <ele>1103.58810043335</ele>
        <time>2018-09-02T13:07:16Z</time>
      </trkpt>
      <trkpt lat="42.9721087916223" lon="-4.92416778579813">
        <ele>1103.75252914429</ele>
        <time>2018-09-02T13:07:17Z</time>
      </trkpt>
      <trkpt lat="42.9720429936824" lon="-4.9241608288185">
        <ele>1104.33724594116</ele>
        <time>2018-09-02T13:07:18Z</time>
      </trkpt>
      <trkpt lat="42.9719670955492" lon="-4.92414758541149">
        <ele>1105.29842758179</ele>
        <time>2018-09-02T13:07:19Z</time>
      </trkpt>
      <trkpt lat="42.9718927480681" lon="-4.9241124652372">
        <ele>1104.77425765991</ele>
        <time>2018-09-02T13:07:20Z</time>
      </trkpt>
      <trkpt lat="42.9718259023903" lon="-4.92409234866958">
        <ele>1105.37496566772</ele>
        <time>2018-09-02T13:07:21Z</time>
      </trkpt>
      <trkpt lat="42.9717527702851" lon="-4.92407751270097">
        <ele>1104.89876937866</ele>
        <time>2018-09-02T13:07:22Z</time>
      </trkpt>
      <trkpt lat="42.9716895707352" lon="-4.92406426929396">
        <ele>1104.16939926147</ele>
        <time>2018-09-02T13:07:23Z</time>
      </trkpt>
      <trkpt lat="42.9716188693819" lon="-4.92403526790899">
        <ele>1105.21505355835</ele>
        <time>2018-09-02T13:07:24Z</time>
      </trkpt>
      <trkpt lat="42.9715513950614" lon="-4.92400718853336">
        <ele>1105.33321762085</ele>
        <time>2018-09-02T13:07:25Z</time>
      </trkpt>
      <trkpt lat="42.9714838788314" lon="-4.92399972863954">
        <ele>1103.02499008179</ele>
        <time>2018-09-02T13:07:26Z</time>
      </trkpt>
      <trkpt lat="42.9714201344577" lon="-4.92396201007527">
        <ele>1104.33492660522</ele>
        <time>2018-09-02T13:07:27Z</time>
      </trkpt>
      <trkpt lat="42.9713590303836" lon="-4.92391926236909">
        <ele>1104.89767074585</ele>
        <time>2018-09-02T13:07:28Z</time>
      </trkpt>
      <trkpt lat="42.9712986806808" lon="-4.92388607003253">
        <ele>1105.04903793335</ele>
        <time>2018-09-02T13:07:29Z</time>
      </trkpt>
      <trkpt lat="42.9712431086627" lon="-4.92384181358379">
        <ele>1104.75350570679</ele>
        <time>2018-09-02T13:07:30Z</time>
      </trkpt>
      <trkpt lat="42.9711931944294" lon="-4.92379780859214">
        <ele>1104.65279769897</ele>
        <time>2018-09-02T13:07:31Z</time>
      </trkpt>
      <trkpt lat="42.9711425677342" lon="-4.92376201786559">
        <ele>1103.72469711304</ele>
        <time>2018-09-02T13:07:32Z</time>
      </trkpt>
      <trkpt lat="42.9710969282714" lon="-4.92372295819681">
        <ele>1104.18294906616</ele>
        <time>2018-09-02T13:07:33Z</time>
      </trkpt>
      <trkpt lat="42.9710531328274" lon="-4.92368767038446">
        <ele>1104.19051742554</ele>
        <time>2018-09-02T13:07:34Z</time>
      </trkpt>
      <trkpt lat="42.9710123548684" lon="-4.92365322076243">
        <ele>1104.37398910522</ele>
        <time>2018-09-02T13:07:35Z</time>
      </trkpt>
      <trkpt lat="42.970971535" lon="-4.9236166756646">
        <ele>1104.81014633179</ele>
        <time>2018-09-02T13:07:36Z</time>
      </trkpt>
      <trkpt lat="42.9709283681987" lon="-4.92358457297545">
        <ele>1105.1774559021</ele>
        <time>2018-09-02T13:07:37Z</time>
      </trkpt>
      <trkpt lat="42.9708848242117" lon="-4.92354861461085">
        <ele>1104.75436019897</ele>
        <time>2018-09-02T13:07:38Z</time>
      </trkpt>
      <trkpt lat="42.9708441300718" lon="-4.92351131514173">
        <ele>1105.57992172241</ele>
        <time>2018-09-02T13:07:39Z</time>
      </trkpt>
      <trkpt lat="42.9708023462845" lon="-4.9234747700439">
        <ele>1106.11996078491</ele>
        <time>2018-09-02T13:07:40Z</time>
      </trkpt>
      <trkpt lat="42.9707526415987" lon="-4.92343571037513">
        <ele>1105.97835922241</ele>
        <time>2018-09-02T13:07:41Z</time>
      </trkpt>
      <trkpt lat="42.9707031464604" lon="-4.923395728697">
        <ele>1107.0895652771</ele>
        <time>2018-09-02T13:07:42Z</time>
      </trkpt>
      <trkpt lat="42.9706555372504" lon="-4.92335616611403">
        <ele>1107.21810531616</ele>
        <time>2018-09-02T13:07:43Z</time>
      </trkpt>
      <trkpt lat="42.9706083052261" lon="-4.92331107147496">
        <ele>1107.62240219116</ele>
        <time>2018-09-02T13:07:44Z</time>
      </trkpt>
      <trkpt lat="42.9705655156104" lon="-4.92327092215877">
        <ele>1107.47848129272</ele>
        <time>2018-09-02T13:07:45Z</time>
      </trkpt>
      <trkpt lat="42.970522181171" lon="-4.92322281003457">
        <ele>1107.26327133179</ele>
        <time>2018-09-02T13:07:46Z</time>
      </trkpt>
      <trkpt lat="42.970485384616" lon="-4.92316371761721">
        <ele>1107.1755027771</ele>
        <time>2018-09-02T13:07:47Z</time>
      </trkpt>
      <trkpt lat="42.9704513540892" lon="-4.92311066017013">
        <ele>1106.14925765991</ele>
        <time>2018-09-02T13:07:48Z</time>
      </trkpt>
      <trkpt lat="42.9704524437366" lon="-4.92302876897615">
        <ele>1106.6217918396</ele>
        <time>2018-09-02T13:07:49Z</time>
      </trkpt>
      <trkpt lat="42.9704611190064" lon="-4.92296297103625">
        <ele>1106.00728988647</ele>
        <time>2018-09-02T13:07:50Z</time>
      </trkpt>
      <trkpt lat="42.9704695847286" lon="-4.92289407179218">
        <ele>1106.14779281616</ele>
        <time>2018-09-02T13:07:51Z</time>
      </trkpt>
      <trkpt lat="42.9704803973837" lon="-4.92282458581489">
        <ele>1106.00887680054</ele>
        <time>2018-09-02T13:07:52Z</time>
      </trkpt>
      <trkpt lat="42.9704952752618" lon="-4.92275350727599">
        <ele>1106.65047836304</ele>
        <time>2018-09-02T13:07:53Z</time>
      </trkpt>
      <trkpt lat="42.9705200856952" lon="-4.92268921807867">
        <ele>1106.84603500366</ele>
        <time>2018-09-02T13:07:54Z</time>
      </trkpt>
      <trkpt lat="42.9705479555232" lon="-4.9226356577174">
        <ele>1107.3092918396</ele>
        <time>2018-09-02T13:07:55Z</time>
      </trkpt>
      <trkpt lat="42.970610903616" lon="-4.92254932411473">
        <ele>1108.25106430054</ele>
        <time>2018-09-02T13:07:57Z</time>
      </trkpt>
      <trkpt lat="42.9706697026668" lon="-4.92250196636182">
        <ele>1109.68087387085</ele>
        <time>2018-09-02T13:07:59Z</time>
      </trkpt>
      <trkpt lat="42.9707261966942" lon="-4.92247648537617">
        <ele>1109.70589828491</ele>
        <time>2018-09-02T13:08:01Z</time>
      </trkpt>
      <trkpt lat="42.970786546397" lon="-4.92244941182893">
        <ele>1110.26351547241</ele>
        <time>2018-09-02T13:08:03Z</time>
      </trkpt>
      <trkpt lat="42.970847399014" lon="-4.92242887616616">
        <ele>1110.5846824646</ele>
        <time>2018-09-02T13:08:05Z</time>
      </trkpt>
      <trkpt lat="42.9708955949573" lon="-4.92241353728336">
        <ele>1112.42489242554</ele>
        <time>2018-09-02T13:08:07Z</time>
      </trkpt>
      <trkpt lat="42.9709382169349" lon="-4.92239207961124">
        <ele>1113.20797348022</ele>
        <time>2018-09-02T13:08:09Z</time>
      </trkpt>
      <trkpt lat="42.970998105633" lon="-4.92238277569872">
        <ele>1113.5465965271</ele>
        <time>2018-09-02T13:08:11Z</time>
      </trkpt>
      <trkpt lat="42.9710622691018" lon="-4.92236156948369">
        <ele>1113.59823226929</ele>
        <time>2018-09-02T13:08:13Z</time>
      </trkpt>
      <trkpt lat="42.971112895797" lon="-4.92233055644196">
        <ele>1112.3727684021</ele>
        <time>2018-09-02T13:08:15Z</time>
      </trkpt>
      <trkpt lat="42.9711517878277" lon="-4.92228378542226">
        <ele>1112.37142562866</ele>
        <time>2018-09-02T13:08:17Z</time>
      </trkpt>
      <trkpt lat="42.9711845191596" lon="-4.92222695611876">
        <ele>1113.3171043396</ele>
        <time>2018-09-02T13:08:19Z</time>
      </trkpt>
      <trkpt lat="42.9712224053619" lon="-4.92215931416016">
        <ele>1112.89278793335</ele>
        <time>2018-09-02T13:08:21Z</time>
      </trkpt>
      <trkpt lat="42.9712633090494" lon="-4.92207440548103">
        <ele>1111.14022445679</ele>
        <time>2018-09-02T13:08:23Z</time>
      </trkpt>
      <trkpt lat="42.9712962080193" lon="-4.92200257257085">
        <ele>1110.85885238647</ele>
        <time>2018-09-02T13:08:25Z</time>
      </trkpt>
      <trkpt lat="42.9713344714073" lon="-4.92195119150441">
        <ele>1112.4831199646</ele>
        <time>2018-09-02T13:08:27Z</time>
      </trkpt>
      <trkpt lat="42.9713715613289" lon="-4.92190475576084">
        <ele>1112.23629379272</ele>
        <time>2018-09-02T13:08:29Z</time>
      </trkpt>
      <trkpt lat="42.9714037897465" lon="-4.92184356786769">
        <ele>1114.55648422241</ele>
        <time>2018-09-02T13:08:31Z</time>
      </trkpt>
      <trkpt lat="42.9714270914374" lon="-4.92178833112579">
        <ele>1115.8786277771</ele>
        <time>2018-09-02T13:08:33Z</time>
      </trkpt>
      <trkpt lat="42.9714548355369" lon="-4.92173200473648">
        <ele>1119.4030418396</ele>
        <time>2018-09-02T13:08:35Z</time>
      </trkpt>
      <trkpt lat="42.9714813223509" lon="-4.92167777382296">
        <ele>1120.37130355835</ele>
        <time>2018-09-02T13:08:37Z</time>
      </trkpt>
      <trkpt lat="42.9714973736955" lon="-4.9216168373869">
        <ele>1120.83749008179</ele>
        <time>2018-09-02T13:08:39Z</time>
      </trkpt>
      <trkpt lat="42.9714962421385" lon="-4.92154709995251">
        <ele>1118.64596176147</ele>
        <time>2018-09-02T13:08:41Z</time>
      </trkpt>
      <trkpt lat="42.9714977089716" lon="-4.92148239166003">
        <ele>1118.62325668335</ele>
        <time>2018-09-02T13:08:43Z</time>
      </trkpt>
      <trkpt lat="42.9715269618137" lon="-4.92140921764534">
        <ele>1120.4792137146</ele>
        <time>2018-09-02T13:08:45Z</time>
      </trkpt>
      <trkpt lat="42.9715673206774" lon="-4.92132950574618">
        <ele>1120.88668441772</ele>
        <time>2018-09-02T13:08:47Z</time>
      </trkpt>
      <trkpt lat="42.9716043267799" lon="-4.9212436750577">
        <ele>1120.85409164429</ele>
        <time>2018-09-02T13:08:49Z</time>
      </trkpt>
      <trkpt lat="42.9716730583859" lon="-4.92116882466238">
        <ele>1118.39547348022</ele>
        <time>2018-09-02T13:08:51Z</time>
      </trkpt>
      <trkpt lat="42.9717013473091" lon="-4.92111350410145">
        <ele>1117.90450668335</ele>
        <time>2018-09-02T13:08:52Z</time>
      </trkpt>
      <trkpt lat="42.9717439692868" lon="-4.92107503116589">
        <ele>1117.5378074646</ele>
        <time>2018-09-02T13:08:53Z</time>
      </trkpt>
      <trkpt lat="42.9717834480507" lon="-4.92100847885471">
        <ele>1118.30709457397</ele>
        <time>2018-09-02T13:08:54Z</time>
      </trkpt>
      <trkpt lat="42.9718273692233" lon="-4.92094125599127">
        <ele>1117.88607406616</ele>
        <time>2018-09-02T13:08:55Z</time>
      </trkpt>
      <trkpt lat="42.971870158839" lon="-4.92086095735889">
        <ele>1118.76388168335</ele>
        <time>2018-09-02T13:08:56Z</time>
      </trkpt>
      <trkpt lat="42.971901758614" lon="-4.92077319883268">
        <ele>1118.69088363647</ele>
        <time>2018-09-02T13:08:57Z</time>
      </trkpt>
      <trkpt lat="42.9719255213095" lon="-4.92068376392584">
        <ele>1119.31307601929</ele>
        <time>2018-09-02T13:08:58Z</time>
      </trkpt>
      <trkpt lat="42.9719297960801" lon="-4.92058418691617">
        <ele>1118.06368637085</ele>
        <time>2018-09-02T13:08:59Z</time>
      </trkpt>
      <trkpt lat="42.971941405016" lon="-4.92049374618094">
        <ele>1118.85641098022</ele>
        <time>2018-09-02T13:09:00Z</time>
      </trkpt>
      <trkpt lat="42.9719425784824" lon="-4.92040162906509">
        <ele>1119.00179672241</ele>
        <time>2018-09-02T13:09:01Z</time>
      </trkpt>
      <trkpt lat="42.9719819315178" lon="-4.92031143978696">
        <ele>1118.57516098022</ele>
        <time>2018-09-02T13:09:02Z</time>
      </trkpt>
      <trkpt lat="42.9719988629622" lon="-4.92021027021568">
        <ele>1118.71493148804</ele>
        <time>2018-09-02T13:09:03Z</time>
      </trkpt>
      <trkpt lat="42.9720147466687" lon="-4.92011245340567">
        <ele>1119.24825668335</ele>
        <time>2018-09-02T13:09:04Z</time>
      </trkpt>
      <trkpt lat="42.9720236314861" lon="-4.92001840845209">
        <ele>1119.23226547241</ele>
        <time>2018-09-02T13:09:05Z</time>
      </trkpt>
      <trkpt lat="42.9720676783872" lon="-4.91994431242805">
        <ele>1119.45699691772</ele>
        <time>2018-09-02T13:09:06Z</time>
      </trkpt>
      <trkpt lat="42.9720955063058" lon="-4.91987331770819">
        <ele>1118.9176902771</ele>
        <time>2018-09-02T13:09:07Z</time>
      </trkpt>
      <trkpt lat="42.9721124796597" lon="-4.91979938932221">
        <ele>1118.67171859741</ele>
        <time>2018-09-02T13:09:08Z</time>
      </trkpt>
      <trkpt lat="42.9721288662804" lon="-4.91972353309851">
        <ele>1119.37447738647</ele>
        <time>2018-09-02T13:09:09Z</time>
      </trkpt>
      <trkpt lat="42.9721524194283" lon="-4.91964298300903">
        <ele>1120.24618148804</ele>
        <time>2018-09-02T13:09:10Z</time>
      </trkpt>
      <trkpt lat="42.972170189063" lon="-4.91956000216763">
        <ele>1120.71664047241</ele>
        <time>2018-09-02T13:09:11Z</time>
      </trkpt>
      <trkpt lat="42.9721789900614" lon="-4.91947861388784">
        <ele>1121.10250473022</ele>
        <time>2018-09-02T13:09:12Z</time>
      </trkpt>
      <trkpt lat="42.972189844626" lon="-4.91939412430387">
        <ele>1121.9997215271</ele>
        <time>2018-09-02T13:09:13Z</time>
      </trkpt>
      <trkpt lat="42.972224378067" lon="-4.91930544376831">
        <ele>1122.28536605835</ele>
        <time>2018-09-02T13:09:14Z</time>
      </trkpt>
      <trkpt lat="42.9722431116206" lon="-4.91921592504244">
        <ele>1122.6706199646</ele>
        <time>2018-09-02T13:09:15Z</time>
      </trkpt>
      <trkpt lat="42.9722635215549" lon="-4.91912632249754">
        <ele>1123.16537094116</ele>
        <time>2018-09-02T13:09:16Z</time>
      </trkpt>
      <trkpt lat="42.9722887510834" lon="-4.91905314848285">
        <ele>1120.76876449585</ele>
        <time>2018-09-02T13:09:17Z</time>
      </trkpt>
      <trkpt lat="42.9723084485559" lon="-4.91897167638402">
        <ele>1120.62752914429</ele>
        <time>2018-09-02T13:09:18Z</time>
      </trkpt>
      <trkpt lat="42.9723395035071" lon="-4.91889732890289">
        <ele>1121.34115219116</ele>
        <time>2018-09-02T13:09:19Z</time>
      </trkpt>
      <trkpt lat="42.9723820416657" lon="-4.91881200112861">
        <ele>1121.94515609741</ele>
        <time>2018-09-02T13:09:20Z</time>
      </trkpt>
      <trkpt lat="42.9724273039428" lon="-4.9187329597817">
        <ele>1122.23690414429</ele>
        <time>2018-09-02T13:09:21Z</time>
      </trkpt>
      <trkpt lat="42.9724795231996" lon="-4.91865995340507">
        <ele>1119.80746078491</ele>
        <time>2018-09-02T13:09:22Z</time>
      </trkpt>
      <trkpt lat="42.9725448601348" lon="-4.91857722402077">
        <ele>1120.94906234741</ele>
        <time>2018-09-02T13:09:23Z</time>
      </trkpt>
      <trkpt lat="42.9726040363712" lon="-4.91849969141643">
        <ele>1118.67293930054</ele>
        <time>2018-09-02T13:09:24Z</time>
      </trkpt>
      <trkpt lat="42.9726727679772" lon="-4.91840187460642">
        <ele>1118.9313621521</ele>
        <time>2018-09-02T13:09:25Z</time>
      </trkpt>
      <trkpt lat="42.9727340815989" lon="-4.91830372252028">
        <ele>1118.64876937866</ele>
        <time>2018-09-02T13:09:26Z</time>
      </trkpt>
      <trkpt lat="42.9727946408493" lon="-4.91821571253698">
        <ele>1119.19478988647</ele>
        <time>2018-09-02T13:09:27Z</time>
      </trkpt>
      <trkpt lat="42.9728475306583" lon="-4.91811932065051">
        <ele>1119.95492172241</ele>
        <time>2018-09-02T13:09:28Z</time>
      </trkpt>
      <trkpt lat="42.9728821898279" lon="-4.91802703589659">
        <ele>1119.48763656616</ele>
        <time>2018-09-02T13:09:29Z</time>
      </trkpt>
      <trkpt lat="42.9728988279057" lon="-4.9179213400976">
        <ele>1118.31637191772</ele>
        <time>2018-09-02T13:09:30Z</time>
      </trkpt>
      <trkpt lat="42.9729204532159" lon="-4.91780818440478">
        <ele>1117.07613754272</ele>
        <time>2018-09-02T13:09:31Z</time>
      </trkpt>
      <trkpt lat="42.9729468562109" lon="-4.91768572479944">
        <ele>1116.59395980835</ele>
        <time>2018-09-02T13:09:32Z</time>
      </trkpt>
      <trkpt lat="42.9729798809094" lon="-4.91755982861381">
        <ele>1116.61483383179</ele>
        <time>2018-09-02T13:09:33Z</time>
      </trkpt>
      <trkpt lat="42.973007960285" lon="-4.91745564155739">
        <ele>1115.84408187866</ele>
        <time>2018-09-02T13:09:34Z</time>
      </trkpt>
      <trkpt lat="42.9730151687218" lon="-4.91736335680347">
        <ele>1114.40548324585</ele>
        <time>2018-09-02T13:09:35Z</time>
      </trkpt>
      <trkpt lat="42.9729868797986" lon="-4.91726495326023">
        <ele>1112.29232406616</ele>
        <time>2018-09-02T13:09:36Z</time>
      </trkpt>
      <trkpt lat="42.9729551962046" lon="-4.91717258468728">
        <ele>1111.76070785522</ele>
        <time>2018-09-02T13:09:37Z</time>
      </trkpt>
      <trkpt lat="42.9729097662894" lon="-4.91708960384588">
        <ele>1111.86251449585</ele>
        <time>2018-09-02T13:09:38Z</time>
      </trkpt>
      <trkpt lat="42.9728811839996" lon="-4.91699807346325">
        <ele>1111.04110336304</ele>
        <time>2018-09-02T13:09:39Z</time>
      </trkpt>
      <trkpt lat="42.972851973067" lon="-4.91691014729898">
        <ele>1111.19906234741</ele>
        <time>2018-09-02T13:09:40Z</time>
      </trkpt>
      <trkpt lat="42.9728458542777" lon="-4.91683412343721">
        <ele>1111.39388656616</ele>
        <time>2018-09-02T13:09:41Z</time>
      </trkpt>
      <trkpt lat="42.9728687368734" lon="-4.91674552672069">
        <ele>1112.4889793396</ele>
        <time>2018-09-02T13:09:43Z</time>
      </trkpt>
      <trkpt lat="42.9729197826637" lon="-4.91669649258714">
        <ele>1111.19173812866</ele>
        <time>2018-09-02T13:09:46Z</time>
      </trkpt>
      <trkpt lat="42.9729734687535" lon="-4.91669288836877">
        <ele>1109.59408187866</ele>
        <time>2018-09-02T13:09:48Z</time>
      </trkpt>
      <trkpt lat="42.9730205750493" lon="-4.91670093499582">
        <ele>1109.86227035522</ele>
        <time>2018-09-02T13:09:49Z</time>
      </trkpt>
      <trkpt lat="42.9731089622182" lon="-4.91672012955408">
        <ele>1109.91585922241</ele>
        <time>2018-09-02T13:09:51Z</time>
      </trkpt>
      <trkpt lat="42.9731547274096" lon="-4.91674074903588">
        <ele>1108.45174789429</ele>
        <time>2018-09-02T13:09:52Z</time>
      </trkpt>
      <trkpt lat="42.9732332658423" lon="-4.91674778983455">
        <ele>1109.52291488647</ele>
        <time>2018-09-02T13:09:54Z</time>
      </trkpt>
      <trkpt lat="42.9733296996383" lon="-4.91672012955408">
        <ele>1111.70064926147</ele>
        <time>2018-09-02T13:09:56Z</time>
      </trkpt>
      <trkpt lat="42.97336331107" lon="-4.91667696275275">
        <ele>1113.57357406616</ele>
        <time>2018-09-02T13:09:57Z</time>
      </trkpt>
      <trkpt lat="42.9734306177525" lon="-4.91658492945592">
        <ele>1114.97396469116</ele>
        <time>2018-09-02T13:09:59Z</time>
      </trkpt>
      <trkpt lat="42.9734614631561" lon="-4.91646305658381">
        <ele>1113.73971176147</ele>
        <time>2018-09-02T13:10:01Z</time>
      </trkpt>
      <trkpt lat="42.9734775145007" lon="-4.91639424115877">
        <ele>1114.36446762085</ele>
        <time>2018-09-02T13:10:02Z</time>
      </trkpt>
      <trkpt lat="42.97349142846" lon="-4.91632676683824">
        <ele>1114.36568832397</ele>
        <time>2018-09-02T13:10:03Z</time>
      </trkpt>
      <trkpt lat="42.9734995169965" lon="-4.91626147181254">
        <ele>1114.16012191772</ele>
        <time>2018-09-02T13:10:04Z</time>
      </trkpt>
      <trkpt lat="42.9735058453334" lon="-4.9161960929678">
        <ele>1114.9030418396</ele>
        <time>2018-09-02T13:10:05Z</time>
      </trkpt>
      <trkpt lat="42.9735136824129" lon="-4.91612048820119">
        <ele>1115.41561508179</ele>
        <time>2018-09-02T13:10:06Z</time>
      </trkpt>
      <trkpt lat="42.9735171609027" lon="-4.91604764946263">
        <ele>1115.79476547241</ele>
        <time>2018-09-02T13:10:07Z</time>
      </trkpt>
      <trkpt lat="42.9735243274299" lon="-4.915985204284">
        <ele>1115.68465805054</ele>
        <time>2018-09-02T13:10:08Z</time>
      </trkpt>
      <trkpt lat="42.9735597828803" lon="-4.91587917320888">
        <ele>1115.79720687866</ele>
        <time>2018-09-02T13:10:10Z</time>
      </trkpt>
      <trkpt lat="42.9735911311982" lon="-4.9157674424396">
        <ele>1115.78133773804</ele>
        <time>2018-09-02T13:10:12Z</time>
      </trkpt>
      <trkpt lat="42.9735982977254" lon="-4.91569778882425">
        <ele>1115.28939437866</ele>
        <time>2018-09-02T13:10:13Z</time>
      </trkpt>
      <trkpt lat="42.9735871497942" lon="-4.91560768336515">
        <ele>1118.21493148804</ele>
        <time>2018-09-02T13:10:15Z</time>
      </trkpt>
      <trkpt lat="42.973524662706" lon="-4.91562059149604">
        <ele>1119.06246566772</ele>
        <time>2018-09-02T13:10:18Z</time>
      </trkpt>
      <trkpt lat="42.9734825017331" lon="-4.91566266864996">
        <ele>1119.82625961304</ele>
        <time>2018-09-02T13:10:20Z</time>
      </trkpt>
      <trkpt lat="42.973425379063" lon="-4.91571312770705">
        <ele>1117.90353012085</ele>
        <time>2018-09-02T13:10:22Z</time>
      </trkpt>
      <trkpt lat="42.9733641492603" lon="-4.9157280474947">
        <ele>1119.39217758179</ele>
        <time>2018-09-02T13:10:24Z</time>
      </trkpt>
      <trkpt lat="42.9732970940349" lon="-4.91572553292375">
        <ele>1119.97982406616</ele>
        <time>2018-09-02T13:10:26Z</time>
      </trkpt>
      <trkpt lat="42.9732341040326" lon="-4.91568705998819">
        <ele>1123.0241355896</ele>
        <time>2018-09-02T13:10:28Z</time>
      </trkpt>
      <trkpt lat="42.973175640258" lon="-4.91562687792342">
        <ele>1122.3385887146</ele>
        <time>2018-09-02T13:10:30Z</time>
      </trkpt>
      <trkpt lat="42.9731151229171" lon="-4.91556149907868">
        <ele>1122.32894515991</ele>
        <time>2018-09-02T13:10:32Z</time>
      </trkpt>
      <trkpt lat="42.9730538092954" lon="-4.91550508887033">
        <ele>1121.26327133179</ele>
        <time>2018-09-02T13:10:34Z</time>
      </trkpt>
      <trkpt lat="42.9729911126597" lon="-4.91545278579454">
        <ele>1121.17281723022</ele>
        <time>2018-09-02T13:10:36Z</time>
      </trkpt>
      <trkpt lat="42.9729235964296" lon="-4.91540132090907">
        <ele>1120.92123031616</ele>
        <time>2018-09-02T13:10:38Z</time>
      </trkpt>
      <trkpt lat="42.9728526855288" lon="-4.91535471752744">
        <ele>1119.7419090271</ele>
        <time>2018-09-02T13:10:40Z</time>
      </trkpt>
      <trkpt lat="42.9727816069899" lon="-4.91531859152477">
        <ele>1121.04867172241</ele>
        <time>2018-09-02T13:10:42Z</time>
      </trkpt>
      <trkpt lat="42.9727093549845" lon="-4.9153049290226">
        <ele>1121.57601547241</ele>
        <time>2018-09-02T13:10:44Z</time>
      </trkpt>
      <trkpt lat="42.9726351751415" lon="-4.91532906890373">
        <ele>1122.38558578491</ele>
        <time>2018-09-02T13:10:46Z</time>
      </trkpt>
      <trkpt lat="42.9725633422313" lon="-4.91538254544597">
        <ele>1122.66439437866</ele>
        <time>2018-09-02T13:10:48Z</time>
      </trkpt>
      <trkpt lat="42.9724799842043" lon="-4.9154518637852">
        <ele>1122.01778793335</ele>
        <time>2018-09-02T13:10:50Z</time>
      </trkpt>
      <trkpt lat="42.9723858973412" lon="-4.91548262536983">
        <ele>1122.58065414429</ele>
        <time>2018-09-02T13:10:52Z</time>
      </trkpt>
      <trkpt lat="42.9723371984837" lon="-4.91548832506399">
        <ele>1122.14852523804</ele>
        <time>2018-09-02T13:10:53Z</time>
      </trkpt>
      <trkpt lat="42.9722439917205" lon="-4.91550089791875">
        <ele>1122.17977523804</ele>
        <time>2018-09-02T13:10:55Z</time>
      </trkpt>
      <trkpt lat="42.9721895093498" lon="-4.91549612023394">
        <ele>1121.68392562866</ele>
        <time>2018-09-02T13:10:56Z</time>
      </trkpt>
      <trkpt lat="42.9721443728013" lon="-4.91547692567568">
        <ele>1121.65560531616</ele>
        <time>2018-09-02T13:10:57Z</time>
      </trkpt>
      <trkpt lat="42.9720966797722" lon="-4.91546024568837">
        <ele>1119.44613265991</ele>
        <time>2018-09-02T13:10:59Z</time>
      </trkpt>
      <trkpt lat="42.972069606225" lon="-4.91539369337718">
        <ele>1124.61837387085</ele>
        <time>2018-09-02T13:11:10Z</time>
      </trkpt>
      <trkpt lat="42.9720317200226" lon="-4.91535211913745">
        <ele>1124.70235824585</ele>
        <time>2018-09-02T13:11:12Z</time>
      </trkpt>
      <trkpt lat="42.9719732143385" lon="-4.91528984159689">
        <ele>1123.66231918335</ele>
        <time>2018-09-02T13:11:14Z</time>
      </trkpt>
      <trkpt lat="42.9719009623332" lon="-4.91524424404364">
        <ele>1123.87411117554</ele>
        <time>2018-09-02T13:11:16Z</time>
      </trkpt>
      <trkpt lat="42.9718327755509" lon="-4.91519219242494">
        <ele>1124.84725570679</ele>
        <time>2018-09-02T13:11:18Z</time>
      </trkpt>
      <trkpt lat="42.9717635829402" lon="-4.91513854824464">
        <ele>1125.20614242554</ele>
        <time>2018-09-02T13:11:20Z</time>
      </trkpt>
      <trkpt lat="42.9716946836961" lon="-4.91507719271343">
        <ele>1126.63802719116</ele>
        <time>2018-09-02T13:11:22Z</time>
      </trkpt>
      <trkpt lat="42.9716296401275" lon="-4.91502170451443">
        <ele>1127.29586410522</ele>
        <time>2018-09-02T13:11:24Z</time>
      </trkpt>
      <trkpt lat="42.9715688713295" lon="-4.91495397873681">
        <ele>1128.97542953491</ele>
        <time>2018-09-02T13:11:26Z</time>
      </trkpt>
      <trkpt lat="42.9715158977015" lon="-4.91487921216051">
        <ele>1129.74044418335</ele>
        <time>2018-09-02T13:11:28Z</time>
      </trkpt>
      <trkpt lat="42.9714709707005" lon="-4.91479530930977">
        <ele>1129.61947250366</ele>
        <time>2018-09-02T13:11:30Z</time>
      </trkpt>
      <trkpt lat="42.971427552442" lon="-4.91470939480226">
        <ele>1130.35653305054</ele>
        <time>2018-09-02T13:11:32Z</time>
      </trkpt>
      <trkpt lat="42.9713826673506" lon="-4.91462373175185">
        <ele>1131.7575340271</ele>
        <time>2018-09-02T13:11:34Z</time>
      </trkpt>
      <trkpt lat="42.9713490978284" lon="-4.91452733986537">
        <ele>1132.58883285522</ele>
        <time>2018-09-02T13:11:36Z</time>
      </trkpt>
      <trkpt lat="42.9713157797632" lon="-4.91442742757957">
        <ele>1132.80135726929</ele>
        <time>2018-09-02T13:11:38Z</time>
      </trkpt>
      <trkpt lat="42.9712757142661" lon="-4.91433195770245">
        <ele>1133.20113754272</ele>
        <time>2018-09-02T13:11:40Z</time>
      </trkpt>
      <trkpt lat="42.9712321283696" lon="-4.91424554028075">
        <ele>1133.07870101929</ele>
        <time>2018-09-02T13:11:42Z</time>
      </trkpt>
      <trkpt lat="42.9711853154404" lon="-4.91416012868743">
        <ele>1133.0729637146</ele>
        <time>2018-09-02T13:11:44Z</time>
      </trkpt>
      <trkpt lat="42.9711339343739" lon="-4.91407790221732">
        <ele>1132.62325668335</ele>
        <time>2018-09-02T13:11:46Z</time>
      </trkpt>
      <trkpt lat="42.9710784461749" lon="-4.91400732659261">
        <ele>1132.02523422241</ele>
        <time>2018-09-02T13:11:48Z</time>
      </trkpt>
      <trkpt lat="42.9710193118481" lon="-4.91393691860597">
        <ele>1133.59579086304</ele>
        <time>2018-09-02T13:11:50Z</time>
      </trkpt>
      <trkpt lat="42.9709644522918" lon="-4.91386332549612">
        <ele>1133.16341781616</ele>
        <time>2018-09-02T13:11:52Z</time>
      </trkpt>
      <trkpt lat="42.9709145799679" lon="-4.91379090585272">
        <ele>1131.85079574585</ele>
        <time>2018-09-02T13:11:54Z</time>
      </trkpt>
      <trkpt lat="42.9708639951823" lon="-4.91372552700798">
        <ele>1131.97115707397</ele>
        <time>2018-09-02T13:11:56Z</time>
      </trkpt>
      <trkpt lat="42.9708085069833" lon="-4.91366048343937">
        <ele>1132.0036277771</ele>
        <time>2018-09-02T13:11:58Z</time>
      </trkpt>
      <trkpt lat="42.9707578802881" lon="-4.91359426640432">
        <ele>1132.84371566772</ele>
        <time>2018-09-02T13:12:00Z</time>
      </trkpt>
      <trkpt lat="42.9707035655556" lon="-4.91353115067344">
        <ele>1133.39547348022</ele>
        <time>2018-09-02T13:12:02Z</time>
      </trkpt>
      <trkpt lat="42.9706468200711" lon="-4.91346535273354">
        <ele>1133.37838363647</ele>
        <time>2018-09-02T13:12:04Z</time>
      </trkpt>
      <trkpt lat="42.9705956904618" lon="-4.91339737549882">
        <ele>1133.69149398804</ele>
        <time>2018-09-02T13:12:06Z</time>
      </trkpt>
      <trkpt lat="42.9705505120037" lon="-4.91332839243572">
        <ele>1133.27364730835</ele>
        <time>2018-09-02T13:12:08Z</time>
      </trkpt>
      <trkpt lat="42.9705055430932" lon="-4.91325479932587">
        <ele>1132.97909164429</ele>
        <time>2018-09-02T13:12:10Z</time>
      </trkpt>
      <trkpt lat="42.970460280816" lon="-4.91317047737996">
        <ele>1134.39742660522</ele>
        <time>2018-09-02T13:12:12Z</time>
      </trkpt>
      <trkpt lat="42.9704133840678" lon="-4.91308003664474">
        <ele>1135.44161605835</ele>
        <time>2018-09-02T13:12:14Z</time>
      </trkpt>
      <trkpt lat="42.9703774676127" lon="-4.91298515350084">
        <ele>1136.41488265991</ele>
        <time>2018-09-02T13:12:16Z</time>
      </trkpt>
      <trkpt lat="42.9703526571793" lon="-4.91288390011053">
        <ele>1136.23653793335</ele>
        <time>2018-09-02T13:12:18Z</time>
      </trkpt>
      <trkpt lat="42.9703327501593" lon="-4.91278239526312">
        <ele>1136.58553695679</ele>
        <time>2018-09-02T13:12:20Z</time>
      </trkpt>
      <trkpt lat="42.9703118792204" lon="-4.91267804056864">
        <ele>1136.77523422241</ele>
        <time>2018-09-02T13:12:22Z</time>
      </trkpt>
      <trkpt lat="42.9702890804438" lon="-4.91256572306614">
        <ele>1137.99764633179</ele>
        <time>2018-09-02T13:12:24Z</time>
      </trkpt>
      <trkpt lat="42.9702657787529" lon="-4.91246405058067">
        <ele>1139.18575668335</ele>
        <time>2018-09-02T13:12:26Z</time>
      </trkpt>
      <trkpt lat="42.9702422675145" lon="-4.91236346774261">
        <ele>1139.79012680054</ele>
        <time>2018-09-02T13:12:28Z</time>
      </trkpt>
      <trkpt lat="42.970209158997" lon="-4.91227394901674">
        <ele>1141.53512191772</ele>
        <time>2018-09-02T13:12:30Z</time>
      </trkpt>
      <trkpt lat="42.9701729910848" lon="-4.9121913872705">
        <ele>1142.50252914429</ele>
        <time>2018-09-02T13:12:32Z</time>
      </trkpt>
      <trkpt lat="42.9701289441837" lon="-4.91211460903744">
        <ele>1144.16146469116</ele>
        <time>2018-09-02T13:12:34Z</time>
      </trkpt>
      <trkpt lat="42.970083556178" lon="-4.9120423570321">
        <ele>1143.92086410522</ele>
        <time>2018-09-02T13:12:36Z</time>
      </trkpt>
      <trkpt lat="42.9700396350054" lon="-4.91197287105481">
        <ele>1144.61617660522</ele>
        <time>2018-09-02T13:12:38Z</time>
      </trkpt>
      <trkpt lat="42.9699955042852" lon="-4.91190296598236">
        <ele>1145.69955062866</ele>
        <time>2018-09-02T13:12:40Z</time>
      </trkpt>
      <trkpt lat="42.9699504934651" lon="-4.91183750331859">
        <ele>1144.56490707397</ele>
        <time>2018-09-02T13:12:42Z</time>
      </trkpt>
      <trkpt lat="42.9699033452598" lon="-4.91176474839906">
        <ele>1143.3092918396</ele>
        <time>2018-09-02T13:12:44Z</time>
      </trkpt>
      <trkpt lat="42.9698515870077" lon="-4.91169325076501">
        <ele>1143.2839012146</ele>
        <time>2018-09-02T13:12:46Z</time>
      </trkpt>
      <trkpt lat="42.9697938776044" lon="-4.91163776256601">
        <ele>1144.92660140991</ele>
        <time>2018-09-02T13:12:48Z</time>
      </trkpt>
      <trkpt lat="42.9697246011747" lon="-4.91158789024214">
        <ele>1145.75728988647</ele>
        <time>2018-09-02T13:12:50Z</time>
      </trkpt>
      <trkpt lat="42.969661988358" lon="-4.91154497489791">
        <ele>1146.4255027771</ele>
        <time>2018-09-02T13:12:52Z</time>
      </trkpt>
      <trkpt lat="42.9696111102057" lon="-4.911516141151">
        <ele>1145.96102523804</ele>
        <time>2018-09-02T13:12:54Z</time>
      </trkpt>
      <trkpt lat="42.9695593100441" lon="-4.91148102097671">
        <ele>1144.99105453491</ele>
        <time>2018-09-02T13:12:56Z</time>
      </trkpt>
      <trkpt lat="42.9695006367219" lon="-4.91143835708956">
        <ele>1145.50692367554</ele>
        <time>2018-09-02T13:12:58Z</time>
      </trkpt>
      <trkpt lat="42.9694423405854" lon="-4.91138446145217">
        <ele>1141.20150375366</ele>
        <time>2018-09-02T13:13:00Z</time>
      </trkpt>
      <trkpt lat="42.9693883611289" lon="-4.91132897325318">
        <ele>1142.2194480896</ele>
        <time>2018-09-02T13:13:02Z</time>
      </trkpt>
      <trkpt lat="42.9693350941343" lon="-4.91127331741612">
        <ele>1140.79903793335</ele>
        <time>2018-09-02T13:13:04Z</time>
      </trkpt>
      <trkpt lat="42.9692718945844" lon="-4.91121799685518">
        <ele>1141.07137680054</ele>
        <time>2018-09-02T13:13:06Z</time>
      </trkpt>
      <trkpt lat="42.9692107486007" lon="-4.9111638497607">
        <ele>1142.48958969116</ele>
        <time>2018-09-02T13:13:08Z</time>
      </trkpt>
      <trkpt lat="42.9691515304548" lon="-4.91110257804851">
        <ele>1142.20162582397</ele>
        <time>2018-09-02T13:13:10Z</time>
      </trkpt>
      <trkpt lat="42.9690975509984" lon="-4.91103015840511">
        <ele>1142.94918441772</ele>
        <time>2018-09-02T13:13:12Z</time>
      </trkpt>
      <trkpt lat="42.9690470919413" lon="-4.9109511170582">
        <ele>1143.27987289429</ele>
        <time>2018-09-02T13:13:14Z</time>
      </trkpt>
      <trkpt lat="42.9690041346876" lon="-4.91086553782682">
        <ele>1144.7340965271</ele>
        <time>2018-09-02T13:13:16Z</time>
      </trkpt>
      <trkpt lat="42.9689638177333" lon="-4.91077291779677">
        <ele>1143.47518539429</ele>
        <time>2018-09-02T13:13:18Z</time>
      </trkpt>
      <trkpt lat="42.9689282784639" lon="-4.91067828610997">
        <ele>1144.07345199585</ele>
        <time>2018-09-02T13:13:20Z</time>
      </trkpt>
      <trkpt lat="42.9688910209043" lon="-4.91058952175538">
        <ele>1144.60494613647</ele>
        <time>2018-09-02T13:13:22Z</time>
      </trkpt>
      <trkpt lat="42.9688451299844" lon="-4.91051651537876">
        <ele>1146.5964012146</ele>
        <time>2018-09-02T13:13:24Z</time>
      </trkpt>
      <trkpt lat="42.9688000772549" lon="-4.91044359282116">
        <ele>1149.14352035522</ele>
        <time>2018-09-02T13:13:26Z</time>
      </trkpt>
      <trkpt lat="42.968754102516" lon="-4.91036555730264">
        <ele>1149.62337875366</ele>
        <time>2018-09-02T13:13:28Z</time>
      </trkpt>
      <trkpt lat="42.9687088402388" lon="-4.91029120982151">
        <ele>1149.7526512146</ele>
        <time>2018-09-02T13:13:30Z</time>
      </trkpt>
      <trkpt lat="42.9686687747417" lon="-4.91020931862752">
        <ele>1148.8532371521</ele>
        <time>2018-09-02T13:13:32Z</time>
      </trkpt>
      <trkpt lat="42.9686303437156" lon="-4.91012298502485">
        <ele>1149.67037582397</ele>
        <time>2018-09-02T13:13:34Z</time>
      </trkpt>
      <trkpt lat="42.9685964389173" lon="-4.91002491675775">
        <ele>1149.80318832397</ele>
        <time>2018-09-02T13:13:36Z</time>
      </trkpt>
      <trkpt lat="42.9685709160221" lon="-4.90991863422553">
        <ele>1149.98812484741</ele>
        <time>2018-09-02T13:13:38Z</time>
      </trkpt>
      <trkpt lat="42.9685488297073" lon="-4.90980950184624">
        <ele>1149.74801254272</ele>
        <time>2018-09-02T13:13:40Z</time>
      </trkpt>
      <trkpt lat="42.9685284616826" lon="-4.9096976034389">
        <ele>1149.72396469116</ele>
        <time>2018-09-02T13:13:42Z</time>
      </trkpt>
      <trkpt lat="42.9685098957671" lon="-4.90959165618281">
        <ele>1150.56759262085</ele>
        <time>2018-09-02T13:13:44Z</time>
      </trkpt>
      <trkpt lat="42.9684916232181" lon="-4.90948051214675">
        <ele>1150.9215965271</ele>
        <time>2018-09-02T13:13:46Z</time>
      </trkpt>
      <trkpt lat="42.9684704589126" lon="-4.90936509334008">
        <ele>1152.0104637146</ele>
        <time>2018-09-02T13:13:48Z</time>
      </trkpt>
      <trkpt lat="42.9684413737086" lon="-4.90925168619017">
        <ele>1153.02279281616</ele>
        <time>2018-09-02T13:13:50Z</time>
      </trkpt>
      <trkpt lat="42.9684069240866" lon="-4.9091463256673">
        <ele>1151.68807601929</ele>
        <time>2018-09-02T13:13:52Z</time>
      </trkpt>
      <trkpt lat="42.9683645116565" lon="-4.90904565901021">
        <ele>1153.21236801147</ele>
        <time>2018-09-02T13:13:54Z</time>
      </trkpt>
      <trkpt lat="42.9683216801313" lon="-4.90894834511439">
        <ele>1153.34701156616</ele>
        <time>2018-09-02T13:13:56Z</time>
      </trkpt>
      <trkpt lat="42.9682759568495" lon="-4.90884742700021">
        <ele>1153.97249984741</ele>
        <time>2018-09-02T13:13:58Z</time>
      </trkpt>
      <trkpt lat="42.9682038305727" lon="-4.90875958465497">
        <ele>1154.36422348022</ele>
        <time>2018-09-02T13:14:00Z</time>
      </trkpt>
      <trkpt lat="42.9681680398462" lon="-4.90871482529203">
        <ele>1154.30074691772</ele>
        <time>2018-09-02T13:14:01Z</time>
      </trkpt>
      <trkpt lat="42.9681326263053" lon="-4.90867266431908">
        <ele>1154.09029769897</ele>
        <time>2018-09-02T13:14:02Z</time>
      </trkpt>
      <trkpt lat="42.9680928960843" lon="-4.90863243118386">
        <ele>1153.99203109741</ele>
        <time>2018-09-02T13:14:03Z</time>
      </trkpt>
      <trkpt lat="42.9680572729958" lon="-4.90859010257284">
        <ele>1154.03426742554</ele>
        <time>2018-09-02T13:14:04Z</time>
      </trkpt>
      <trkpt lat="42.9680211050836" lon="-4.90855070762793">
        <ele>1154.7155418396</ele>
        <time>2018-09-02T13:14:05Z</time>
      </trkpt>
      <trkpt lat="42.9679840570716" lon="-4.90851558745365">
        <ele>1154.43160629272</ele>
        <time>2018-09-02T13:14:06Z</time>
      </trkpt>
      <trkpt lat="42.9679393396182" lon="-4.90847786888937">
        <ele>1154.44723129272</ele>
        <time>2018-09-02T13:14:07Z</time>
      </trkpt>
      <trkpt lat="42.9678973462833" lon="-4.90843285806934">
        <ele>1153.93380355835</ele>
        <time>2018-09-02T13:14:08Z</time>
      </trkpt>
      <trkpt lat="42.9678550595818" lon="-4.9083933793054">
        <ele>1152.8073387146</ele>
        <time>2018-09-02T13:14:09Z</time>
      </trkpt>
      <trkpt lat="42.9678105516759" lon="-4.90833797492544">
        <ele>1153.7311668396</ele>
        <time>2018-09-02T13:14:10Z</time>
      </trkpt>
      <trkpt lat="42.9677604698045" lon="-4.9082881864206">
        <ele>1153.63619613647</ele>
        <time>2018-09-02T13:14:11Z</time>
      </trkpt>
      <trkpt lat="42.9677091306476" lon="-4.90823261440257">
        <ele>1153.60165023804</ele>
        <time>2018-09-02T13:14:12Z</time>
      </trkpt>
      <trkpt lat="42.9676522594345" lon="-4.90818425082127">
        <ele>1152.53133773804</ele>
        <time>2018-09-02T13:14:13Z</time>
      </trkpt>
      <trkpt lat="42.9675911972699" lon="-4.90813354030709">
        <ele>1151.56930160522</ele>
        <time>2018-09-02T13:14:14Z</time>
      </trkpt>
      <trkpt lat="42.9675254831491" lon="-4.90809112787704">
        <ele>1150.9596824646</ele>
        <time>2018-09-02T13:14:15Z</time>
      </trkpt>
      <trkpt lat="42.9674694501264" lon="-4.90804167464833">
        <ele>1150.29793930054</ele>
        <time>2018-09-02T13:14:16Z</time>
      </trkpt>
      <trkpt lat="42.9674021015344" lon="-4.90799733438055">
        <ele>1150.02364730835</ele>
        <time>2018-09-02T13:14:17Z</time>
      </trkpt>
      <trkpt lat="42.9673355911327" lon="-4.90794327110509">
        <ele>1149.89962387085</ele>
        <time>2018-09-02T13:14:18Z</time>
      </trkpt>
      <trkpt lat="42.9672747804252" lon="-4.90789901465635">
        <ele>1149.83822250366</ele>
        <time>2018-09-02T13:14:19Z</time>
      </trkpt>
      <trkpt lat="42.9672189988596" lon="-4.9078510701702">
        <ele>1150.04146957397</ele>
        <time>2018-09-02T13:14:20Z</time>
      </trkpt>
      <trkpt lat="42.9671596968947" lon="-4.90781301632981">
        <ele>1149.06246566772</ele>
        <time>2018-09-02T13:14:21Z</time>
      </trkpt>
      <trkpt lat="42.9670998081965" lon="-4.90775652230243">
        <ele>1149.38241195679</ele>
        <time>2018-09-02T13:14:22Z</time>
      </trkpt>
      <trkpt lat="42.9670428531645" lon="-4.90770790726403">
        <ele>1150.02132797241</ele>
        <time>2018-09-02T13:14:23Z</time>
      </trkpt>
      <trkpt lat="42.9669857724039" lon="-4.90766172297756">
        <ele>1150.18929672241</ele>
        <time>2018-09-02T13:14:24Z</time>
      </trkpt>
      <trkpt lat="42.9669435695214" lon="-4.90760480985502">
        <ele>1150.24996566772</ele>
        <time>2018-09-02T13:14:25Z</time>
      </trkpt>
      <trkpt lat="42.9668878717748" lon="-4.90756843239526">
        <ele>1150.53536605835</ele>
        <time>2018-09-02T13:14:26Z</time>
      </trkpt>
      <trkpt lat="42.9668313358379" lon="-4.90753725171546">
        <ele>1150.75008773804</ele>
        <time>2018-09-02T13:14:27Z</time>
      </trkpt>
      <trkpt lat="42.9667779012052" lon="-4.90749961697022">
        <ele>1150.89083480835</ele>
        <time>2018-09-02T13:14:28Z</time>
      </trkpt>
      <trkpt lat="42.9667276936052" lon="-4.9074781592981">
        <ele>1150.51961898804</ele>
        <time>2018-09-02T13:14:29Z</time>
      </trkpt>
      <trkpt lat="42.9666843591658" lon="-4.90743809380094">
        <ele>1150.89693832397</ele>
        <time>2018-09-02T13:14:30Z</time>
      </trkpt>
      <trkpt lat="42.9666290805144" lon="-4.90741336718659">
        <ele>1150.58553695679</ele>
        <time>2018-09-02T13:14:31Z</time>
      </trkpt>
      <trkpt lat="42.9665734246773" lon="-4.90738889202933">
        <ele>1149.87850570679</ele>
        <time>2018-09-02T13:14:32Z</time>
      </trkpt>
      <trkpt lat="42.9665237199915" lon="-4.90735301748375">
        <ele>1149.75777816772</ele>
        <time>2018-09-02T13:14:33Z</time>
      </trkpt>
      <trkpt lat="42.9664694471685" lon="-4.90733549930612">
        <ele>1149.78634262085</ele>
        <time>2018-09-02T13:14:34Z</time>
      </trkpt>
      <trkpt lat="42.9664129112316" lon="-4.90731035359661">
        <ele>1151.39449691772</ele>
        <time>2018-09-02T13:14:35Z</time>
      </trkpt>
      <trkpt lat="42.9663639190076" lon="-4.90728537552516">
        <ele>1152.12777328491</ele>
        <time>2018-09-02T13:14:36Z</time>
      </trkpt>
      <trkpt lat="42.9663204588396" lon="-4.90725997835855">
        <ele>1152.21541976929</ele>
        <time>2018-09-02T13:14:37Z</time>
      </trkpt>
      <trkpt lat="42.9662714666156" lon="-4.90724111907641">
        <ele>1152.41146469116</ele>
        <time>2018-09-02T13:14:38Z</time>
      </trkpt>
      <trkpt lat="42.9661964904917" lon="-4.90718236193518">
        <ele>1152.2214012146</ele>
        <time>2018-09-02T13:14:40Z</time>
      </trkpt>
      <trkpt lat="42.9661371047077" lon="-4.9071293044881">
        <ele>1150.73189926147</ele>
        <time>2018-09-02T13:14:42Z</time>
      </trkpt>
      <trkpt lat="42.9660570156229" lon="-4.90708739497224">
        <ele>1150.96419906616</ele>
        <time>2018-09-02T13:14:44Z</time>
      </trkpt>
      <trkpt lat="42.9659788962854" lon="-4.90703861229579">
        <ele>1151.4450340271</ele>
        <time>2018-09-02T13:14:46Z</time>
      </trkpt>
      <trkpt lat="42.9658904672069" lon="-4.90700642578761">
        <ele>1151.56991195679</ele>
        <time>2018-09-02T13:14:48Z</time>
      </trkpt>
      <trkpt lat="42.9658081569178" lon="-4.90697273053686">
        <ele>1151.78084945679</ele>
        <time>2018-09-02T13:14:50Z</time>
      </trkpt>
      <trkpt lat="42.965716291259" lon="-4.90695412271182">
        <ele>1153.17855453491</ele>
        <time>2018-09-02T13:14:52Z</time>
      </trkpt>
      <trkpt lat="42.9656671313969" lon="-4.90695571527342">
        <ele>1153.78561019897</ele>
        <time>2018-09-02T13:14:53Z</time>
      </trkpt>
      <trkpt lat="42.9656230006767" lon="-4.90693886764805">
        <ele>1154.2565574646</ele>
        <time>2018-09-02T13:14:54Z</time>
      </trkpt>
      <trkpt lat="42.9655342782316" lon="-4.90692185238461">
        <ele>1154.82369613647</ele>
        <time>2018-09-02T13:14:56Z</time>
      </trkpt>
      <trkpt lat="42.9654885549498" lon="-4.90691355430047">
        <ele>1154.71041488647</ele>
        <time>2018-09-02T13:14:57Z</time>
      </trkpt>
      <trkpt lat="42.9654054064704" lon="-4.90691967308978">
        <ele>1152.84103012085</ele>
        <time>2018-09-02T13:14:59Z</time>
      </trkpt>
      <trkpt lat="42.9653186956821" lon="-4.90693987347643">
        <ele>1154.69723129272</ele>
        <time>2018-09-02T13:15:01Z</time>
      </trkpt>
      <trkpt lat="42.9652400734303" lon="-4.90695940331082">
        <ele>1153.60238265991</ele>
        <time>2018-09-02T13:15:03Z</time>
      </trkpt>
      <trkpt lat="42.9651938472343" lon="-4.9069392867432">
        <ele>1151.7292137146</ele>
        <time>2018-09-02T13:15:04Z</time>
      </trkpt>
      <trkpt lat="42.9651073459936" lon="-4.90696820430915">
        <ele>1152.32442855835</ele>
        <time>2018-09-02T13:15:06Z</time>
      </trkpt>
      <trkpt lat="42.9650232755048" lon="-4.90698010661165">
        <ele>1152.0876121521</ele>
        <time>2018-09-02T13:15:08Z</time>
      </trkpt>
      <trkpt lat="42.9649770493088" lon="-4.90697566420297">
        <ele>1152.43221664429</ele>
        <time>2018-09-02T13:15:09Z</time>
      </trkpt>
      <trkpt lat="42.9648960382146" lon="-4.90695999004404">
        <ele>1152.91390609741</ele>
        <time>2018-09-02T13:15:11Z</time>
      </trkpt>
      <trkpt lat="42.9648137279255" lon="-4.90695529617826">
        <ele>1153.54964828491</ele>
        <time>2018-09-02T13:15:13Z</time>
      </trkpt>
      <trkpt lat="42.9647291545225" lon="-4.90696267225305">
        <ele>1153.7497215271</ele>
        <time>2018-09-02T13:15:15Z</time>
      </trkpt>
      <trkpt lat="42.9646445811195" lon="-4.9069775920407">
        <ele>1153.12874984741</ele>
        <time>2018-09-02T13:15:17Z</time>
      </trkpt>
      <trkpt lat="42.964560133445" lon="-4.90699100308577">
        <ele>1153.59408187866</ele>
        <time>2018-09-02T13:15:19Z</time>
      </trkpt>
      <trkpt lat="42.9644757276801" lon="-4.90699603222768">
        <ele>1152.46432113647</ele>
        <time>2018-09-02T13:15:21Z</time>
      </trkpt>
      <trkpt lat="42.9643932916624" lon="-4.90698706359128">
        <ele>1153.83199691772</ele>
        <time>2018-09-02T13:15:23Z</time>
      </trkpt>
      <trkpt lat="42.9643074190644" lon="-4.90696770139496">
        <ele>1154.19942855835</ele>
        <time>2018-09-02T13:15:25Z</time>
      </trkpt>
      <trkpt lat="42.9642556189028" lon="-4.90694523789446">
        <ele>1153.9460105896</ele>
        <time>2018-09-02T13:15:26Z</time>
      </trkpt>
      <trkpt lat="42.9642015137178" lon="-4.90693844855289">
        <ele>1154.02108383179</ele>
        <time>2018-09-02T13:15:27Z</time>
      </trkpt>
      <trkpt lat="42.9641552875219" lon="-4.90692721680264">
        <ele>1153.91427230835</ele>
        <time>2018-09-02T13:15:28Z</time>
      </trkpt>
      <trkpt lat="42.9640669422624" lon="-4.90690416656892">
        <ele>1154.73385238647</ele>
        <time>2018-09-02T13:15:30Z</time>
      </trkpt>
      <trkpt lat="42.9640203807903" lon="-4.9068824574397">
        <ele>1154.79427719116</ele>
        <time>2018-09-02T13:15:31Z</time>
      </trkpt>
      <trkpt lat="42.9639685806287" lon="-4.90686661564271">
        <ele>1154.81441879272</ele>
        <time>2018-09-02T13:15:32Z</time>
      </trkpt>
      <trkpt lat="42.9639196303142" lon="-4.90684524178962">
        <ele>1154.91231918335</ele>
        <time>2018-09-02T13:15:33Z</time>
      </trkpt>
      <trkpt lat="42.9638705542711" lon="-4.90683342330615">
        <ele>1155.45711898804</ele>
        <time>2018-09-02T13:15:34Z</time>
      </trkpt>
      <trkpt lat="42.9637823766498" lon="-4.9068100377963">
        <ele>1156.8630027771</ele>
        <time>2018-09-02T13:15:36Z</time>
      </trkpt>
      <trkpt lat="42.9637350608063" lon="-4.90680358373086">
        <ele>1157.81136703491</ele>
        <time>2018-09-02T13:15:37Z</time>
      </trkpt>
      <trkpt lat="42.9636885831533" lon="-4.90679017268578">
        <ele>1158.32577133179</ele>
        <time>2018-09-02T13:15:38Z</time>
      </trkpt>
      <trkpt lat="42.9635974718658" lon="-4.90677164867977">
        <ele>1158.14303207397</ele>
        <time>2018-09-02T13:15:40Z</time>
      </trkpt>
      <trkpt lat="42.9635188915236" lon="-4.90672814660231">
        <ele>1156.98910140991</ele>
        <time>2018-09-02T13:15:42Z</time>
      </trkpt>
      <trkpt lat="42.9634692287473" lon="-4.90671657957594">
        <ele>1157.87789535522</ele>
        <time>2018-09-02T13:15:43Z</time>
      </trkpt>
      <trkpt lat="42.9634048138214" lon="-4.90666871890883">
        <ele>1160.06173324585</ele>
        <time>2018-09-02T13:15:45Z</time>
      </trkpt>
      <trkpt lat="42.9633203242374" lon="-4.90662395954589">
        <ele>1159.69820785522</ele>
        <time>2018-09-02T13:15:47Z</time>
      </trkpt>
      <trkpt lat="42.9632470664037" lon="-4.90656947717528">
        <ele>1160.33651351929</ele>
        <time>2018-09-02T13:15:49Z</time>
      </trkpt>
      <trkpt lat="42.9632049892498" lon="-4.90654500201801">
        <ele>1160.08285140991</ele>
        <time>2018-09-02T13:15:50Z</time>
      </trkpt>
      <trkpt lat="42.9631368024675" lon="-4.90648481995324">
        <ele>1160.90768051147</ele>
        <time>2018-09-02T13:15:52Z</time>
      </trkpt>
      <trkpt lat="42.963058850768" lon="-4.90643410943906">
        <ele>1161.63900375366</ele>
        <time>2018-09-02T13:15:54Z</time>
      </trkpt>
      <trkpt lat="42.9630168574331" lon="-4.90641013719598">
        <ele>1161.6901512146</ele>
        <time>2018-09-02T13:15:55Z</time>
      </trkpt>
      <trkpt lat="42.9629356787009" lon="-4.90635674447278">
        <ele>1162.04037094116</ele>
        <time>2018-09-02T13:15:57Z</time>
      </trkpt>
      <trkpt lat="42.9628500994695" lon="-4.90632154047946">
        <ele>1162.85042953491</ele>
        <time>2018-09-02T13:15:59Z</time>
      </trkpt>
      <trkpt lat="42.9628056753827" lon="-4.90629932843606">
        <ele>1162.58492660522</ele>
        <time>2018-09-02T13:16:00Z</time>
      </trkpt>
      <trkpt lat="42.9627269693119" lon="-4.90625775419633">
        <ele>1162.75216293335</ele>
        <time>2018-09-02T13:16:02Z</time>
      </trkpt>
      <trkpt lat="42.9626838444201" lon="-4.90623797290484">
        <ele>1162.86324691772</ele>
        <time>2018-09-02T13:16:03Z</time>
      </trkpt>
      <trkpt lat="42.9626142746238" lon="-4.90618784912387">
        <ele>1164.30953598022</ele>
        <time>2018-09-02T13:16:05Z</time>
      </trkpt>
      <trkpt lat="42.9625541344685" lon="-4.90612230264107">
        <ele>1164.54769515991</ele>
        <time>2018-09-02T13:16:07Z</time>
      </trkpt>
      <trkpt lat="42.9625239596171" lon="-4.90607662126879">
        <ele>1164.72249984741</ele>
        <time>2018-09-02T13:16:08Z</time>
      </trkpt>
      <trkpt lat="42.9624688066942" lon="-4.90599623881737">
        <ele>1165.01412582397</ele>
        <time>2018-09-02T13:16:10Z</time>
      </trkpt>
      <trkpt lat="42.9624194791941" lon="-4.90590177476863">
        <ele>1164.86654281616</ele>
        <time>2018-09-02T13:16:12Z</time>
      </trkpt>
      <trkpt lat="42.9623713251603" lon="-4.90581586026112">
        <ele>1165.76009750366</ele>
        <time>2018-09-02T13:16:14Z</time>
      </trkpt>
      <trkpt lat="42.9623299604682" lon="-4.90573463961939">
        <ele>1166.16561508179</ele>
        <time>2018-09-02T13:16:16Z</time>
      </trkpt>
      <trkpt lat="42.9622914875326" lon="-4.90565593354861">
        <ele>1166.80001449585</ele>
        <time>2018-09-02T13:16:18Z</time>
      </trkpt>
      <trkpt lat="42.9622527212305" lon="-4.90557823330621">
        <ele>1167.89449691772</ele>
        <time>2018-09-02T13:16:20Z</time>
      </trkpt>
      <trkpt lat="42.9622100154338" lon="-4.90549885668317">
        <ele>1168.72274398804</ele>
        <time>2018-09-02T13:16:22Z</time>
      </trkpt>
      <trkpt lat="42.9621586343674" lon="-4.90542073734561">
        <ele>1168.85482406616</ele>
        <time>2018-09-02T13:16:24Z</time>
      </trkpt>
      <trkpt lat="42.9620976979313" lon="-4.90536960773627">
        <ele>1169.51192855835</ele>
        <time>2018-09-02T13:16:26Z</time>
      </trkpt>
      <trkpt lat="42.9620329477293" lon="-4.90533222444812">
        <ele>1170.60457992554</ele>
        <time>2018-09-02T13:16:28Z</time>
      </trkpt>
      <trkpt lat="42.9619632941139" lon="-4.9053038936154">
        <ele>1169.94442367554</ele>
        <time>2018-09-02T13:16:30Z</time>
      </trkpt>
      <trkpt lat="42.9618910001991" lon="-4.90528838709454">
        <ele>1169.55428695679</ele>
        <time>2018-09-02T13:16:32Z</time>
      </trkpt>
      <trkpt lat="42.9618215561313" lon="-4.90526801906983">
        <ele>1169.88888168335</ele>
        <time>2018-09-02T13:16:34Z</time>
      </trkpt>
      <trkpt lat="42.9617604939667" lon="-4.90524153225581">
        <ele>1170.21810531616</ele>
        <time>2018-09-02T13:16:36Z</time>
      </trkpt>
      <trkpt lat="42.9617029522014" lon="-4.9052248522685">
        <ele>1170.07113265991</ele>
        <time>2018-09-02T13:16:38Z</time>
      </trkpt>
      <trkpt lat="42.9616420576749" lon="-4.90521906875531">
        <ele>1169.16170883179</ele>
        <time>2018-09-02T13:16:40Z</time>
      </trkpt>
      <trkpt lat="42.9615765531016" lon="-4.90522929467718">
        <ele>1169.0524559021</ele>
        <time>2018-09-02T13:16:42Z</time>
      </trkpt>
      <trkpt lat="42.9615133116422" lon="-4.90523725748519">
        <ele>1165.92464828491</ele>
        <time>2018-09-02T13:16:44Z</time>
      </trkpt>
      <trkpt lat="42.9614413530035" lon="-4.90524203517">
        <ele>1165.3962059021</ele>
        <time>2018-09-02T13:16:46Z</time>
      </trkpt>
      <trkpt lat="42.9613688914505" lon="-4.90523608401875">
        <ele>1167.5524559021</ele>
        <time>2018-09-02T13:16:48Z</time>
      </trkpt>
      <trkpt lat="42.9613018781347" lon="-4.90522191860239">
        <ele>1167.86031723022</ele>
        <time>2018-09-02T13:16:50Z</time>
      </trkpt>
      <trkpt lat="42.9612369183851" lon="-4.90519660525481">
        <ele>1167.47982406616</ele>
        <time>2018-09-02T13:16:52Z</time>
      </trkpt>
      <trkpt lat="42.9611830227477" lon="-4.90515964106182">
        <ele>1168.04354476929</ele>
        <time>2018-09-02T13:16:54Z</time>
      </trkpt>
      <trkpt lat="42.9611284565581" lon="-4.90511546843211">
        <ele>1167.78622055054</ele>
        <time>2018-09-02T13:16:56Z</time>
      </trkpt>
      <trkpt lat="42.9610709147928" lon="-4.90506601520339">
        <ele>1167.33993148804</ele>
        <time>2018-09-02T13:16:58Z</time>
      </trkpt>
      <trkpt lat="42.9610153008652" lon="-4.90502259694497">
        <ele>1168.37069320679</ele>
        <time>2018-09-02T13:17:00Z</time>
      </trkpt>
      <trkpt lat="42.9609558731718" lon="-4.90499158390323">
        <ele>1169.47835922241</ele>
        <time>2018-09-02T13:17:02Z</time>
      </trkpt>
      <trkpt lat="42.9608882312132" lon="-4.90497817285816">
        <ele>1170.93478012085</ele>
        <time>2018-09-02T13:17:04Z</time>
      </trkpt>
      <trkpt lat="42.960821595083" lon="-4.90497314371625">
        <ele>1170.08651351929</ele>
        <time>2018-09-02T13:17:06Z</time>
      </trkpt>
      <trkpt lat="42.9607577249808" lon="-4.90497197024981">
        <ele>1169.64107894897</ele>
        <time>2018-09-02T13:17:08Z</time>
      </trkpt>
      <trkpt lat="42.9606835870472" lon="-4.90497264080206">
        <ele>1172.19076156616</ele>
        <time>2018-09-02T13:17:10Z</time>
      </trkpt>
      <trkpt lat="42.9606059706239" lon="-4.90498261526684">
        <ele>1171.06722640991</ele>
        <time>2018-09-02T13:17:12Z</time>
      </trkpt>
      <trkpt lat="42.9605265940008" lon="-4.90499929525415">
        <ele>1169.71578598022</ele>
        <time>2018-09-02T13:17:14Z</time>
      </trkpt>
      <trkpt lat="42.9604460858209" lon="-4.90501941182176">
        <ele>1168.24471664429</ele>
        <time>2018-09-02T13:17:16Z</time>
      </trkpt>
      <trkpt lat="42.9603673797501" lon="-4.90503399633328">
        <ele>1167.67904281616</ele>
        <time>2018-09-02T13:17:18Z</time>
      </trkpt>
      <trkpt lat="42.9602934932736" lon="-4.90504120477001">
        <ele>1168.57467269897</ele>
        <time>2018-09-02T13:17:20Z</time>
      </trkpt>
      <trkpt lat="42.9602285754336" lon="-4.90505134687284">
        <ele>1168.86019515991</ele>
        <time>2018-09-02T13:17:22Z</time>
      </trkpt>
      <trkpt lat="42.9601617297558" lon="-4.90507012233595">
        <ele>1169.42403793335</ele>
        <time>2018-09-02T13:17:24Z</time>
      </trkpt>
      <trkpt lat="42.9601010866863" lon="-4.905107254167">
        <ele>1171.63290023804</ele>
        <time>2018-09-02T13:17:26Z</time>
      </trkpt>
      <trkpt lat="42.9600369651271" lon="-4.90515016951124">
        <ele>1172.78377914429</ele>
        <time>2018-09-02T13:17:28Z</time>
      </trkpt>
      <trkpt lat="42.9599688202543" lon="-4.90518587641875">
        <ele>1172.4899559021</ele>
        <time>2018-09-02T13:17:30Z</time>
      </trkpt>
      <trkpt lat="42.9599048663331" lon="-4.90522652864913">
        <ele>1170.82528305054</ele>
        <time>2018-09-02T13:17:32Z</time>
      </trkpt>
      <trkpt lat="42.9598465701965" lon="-4.90526382811824">
        <ele>1171.42965316772</ele>
        <time>2018-09-02T13:17:34Z</time>
      </trkpt>
      <trkpt lat="42.9597769165812" lon="-4.90528947674195">
        <ele>1172.10677719116</ele>
        <time>2018-09-02T13:17:36Z</time>
      </trkpt>
      <trkpt lat="42.9597088555274" lon="-4.90530196577767">
        <ele>1170.42293930054</ele>
        <time>2018-09-02T13:17:38Z</time>
      </trkpt>
      <trkpt lat="42.9596482543675" lon="-4.90530146286348">
        <ele>1172.63534164429</ele>
        <time>2018-09-02T13:17:40Z</time>
      </trkpt>
      <trkpt lat="42.9595840489892" lon="-4.90529291332225">
        <ele>1170.81148910522</ele>
        <time>2018-09-02T13:17:42Z</time>
      </trkpt>
      <trkpt lat="42.9595208494393" lon="-4.90527288057367">
        <ele>1173.00338363647</ele>
        <time>2018-09-02T13:17:44Z</time>
      </trkpt>
      <trkpt lat="42.9594602063698" lon="-4.90524672903577">
        <ele>1176.92428207397</ele>
        <time>2018-09-02T13:17:46Z</time>
      </trkpt>
      <trkpt lat="42.9594017006857" lon="-4.90521202795664">
        <ele>1180.37630844116</ele>
        <time>2018-09-02T13:17:48Z</time>
      </trkpt>
      <trkpt lat="42.959349732886" lon="-4.90516995080272">
        <ele>1180.5231590271</ele>
        <time>2018-09-02T13:17:50Z</time>
      </trkpt>
      <trkpt lat="42.9593082005558" lon="-4.90512435324947">
        <ele>1182.37508773804</ele>
        <time>2018-09-02T13:17:52Z</time>
      </trkpt>
      <trkpt lat="42.9592692666156" lon="-4.90507456474463">
        <ele>1183.04549789429</ele>
        <time>2018-09-02T13:17:54Z</time>
      </trkpt>
      <trkpt lat="42.9592320509655" lon="-4.90502594970623">
        <ele>1183.61275863647</ele>
        <time>2018-09-02T13:17:56Z</time>
      </trkpt>
      <trkpt lat="42.9592018761141" lon="-4.90497674793462">
        <ele>1184.04183578491</ele>
        <time>2018-09-02T13:17:58Z</time>
      </trkpt>
      <trkpt lat="42.9591631517214" lon="-4.90492486395399">
        <ele>1183.91415023804</ele>
        <time>2018-09-02T13:18:00Z</time>
      </trkpt>
      <trkpt lat="42.9591151234163" lon="-4.904877338563">
        <ele>1184.57076644897</ele>
        <time>2018-09-02T13:18:02Z</time>
      </trkpt>
      <trkpt lat="42.9590610182313" lon="-4.90484389476935">
        <ele>1185.84457015991</ele>
        <time>2018-09-02T13:18:04Z</time>
      </trkpt>
      <trkpt lat="42.9590090504316" lon="-4.90481095388988">
        <ele>1186.14706039429</ele>
        <time>2018-09-02T13:18:06Z</time>
      </trkpt>
      <trkpt lat="42.958961147855" lon="-4.90477080457369">
        <ele>1185.70150375366</ele>
        <time>2018-09-02T13:18:08Z</time>
      </trkpt>
      <trkpt lat="42.9589114850787" lon="-4.90472788922945">
        <ele>1187.06454086304</ele>
        <time>2018-09-02T13:18:10Z</time>
      </trkpt>
      <trkpt lat="42.9588642111448" lon="-4.90467684343914">
        <ele>1187.31844711304</ele>
        <time>2018-09-02T13:18:12Z</time>
      </trkpt>
      <trkpt lat="42.9588225111765" lon="-4.90461247042278">
        <ele>1187.33236312866</ele>
        <time>2018-09-02T13:18:14Z</time>
      </trkpt>
      <trkpt lat="42.9587891092924" lon="-4.90453921258906">
        <ele>1185.45711898804</ele>
        <time>2018-09-02T13:18:16Z</time>
      </trkpt>
      <trkpt lat="42.9587580962507" lon="-4.90445774049024">
        <ele>1186.34041976929</ele>
        <time>2018-09-02T13:18:18Z</time>
      </trkpt>
      <trkpt lat="42.9587315675271" lon="-4.90437132306854">
        <ele>1185.36617660522</ele>
        <time>2018-09-02T13:18:20Z</time>
      </trkpt>
      <trkpt lat="42.9587019794089" lon="-4.90428440273265">
        <ele>1185.4938621521</ele>
        <time>2018-09-02T13:18:22Z</time>
      </trkpt>
      <trkpt lat="42.9586709244577" lon="-4.90419471636871">
        <ele>1185.44820785522</ele>
        <time>2018-09-02T13:18:24Z</time>
      </trkpt>
      <trkpt lat="42.9586378997592" lon="-4.90409480408291">
        <ele>1185.98861312866</ele>
        <time>2018-09-02T13:18:26Z</time>
      </trkpt>
      <trkpt lat="42.9585930146677" lon="-4.9040001723961">
        <ele>1186.91646957397</ele>
        <time>2018-09-02T13:18:28Z</time>
      </trkpt>
      <trkpt lat="42.9585402505872" lon="-4.90390797146121">
        <ele>1187.01253890991</ele>
        <time>2018-09-02T13:18:30Z</time>
      </trkpt>
      <trkpt lat="42.9584824992744" lon="-4.90381468087891">
        <ele>1187.52450180054</ele>
        <time>2018-09-02T13:18:32Z</time>
      </trkpt>
      <trkpt lat="42.9584255861518" lon="-4.9037102423654">
        <ele>1187.74789047241</ele>
        <time>2018-09-02T13:18:34Z</time>
      </trkpt>
      <trkpt lat="42.9583809525175" lon="-4.90360731259445">
        <ele>1187.51461410522</ele>
        <time>2018-09-02T13:18:36Z</time>
      </trkpt>
      <trkpt lat="42.9583537951512" lon="-4.90355794318477">
        <ele>1187.57040023804</ele>
        <time>2018-09-02T13:18:37Z</time>
      </trkpt>
      <trkpt lat="42.9583207704527" lon="-4.90350689739445">
        <ele>1188.25094223022</ele>
        <time>2018-09-02T13:18:38Z</time>
      </trkpt>
      <trkpt lat="42.9582786094797" lon="-4.90345316939513">
        <ele>1188.87618637085</ele>
        <time>2018-09-02T13:18:39Z</time>
      </trkpt>
      <trkpt lat="42.9582394659919" lon="-4.90340715274671">
        <ele>1188.73263168335</ele>
        <time>2018-09-02T13:18:40Z</time>
      </trkpt>
      <trkpt lat="42.9581711534811" lon="-4.90333297290365">
        <ele>1189.54940414429</ele>
        <time>2018-09-02T13:18:42Z</time>
      </trkpt>
      <trkpt lat="42.9581020027799" lon="-4.90326172672669">
        <ele>1190.76998519897</ele>
        <time>2018-09-02T13:18:44Z</time>
      </trkpt>
      <trkpt lat="42.9580224585188" lon="-4.9031972698913">
        <ele>1191.50863265991</ele>
        <time>2018-09-02T13:18:46Z</time>
      </trkpt>
      <trkpt lat="42.9579824349312" lon="-4.90316147916476">
        <ele>1191.61971664429</ele>
        <time>2018-09-02T13:18:47Z</time>
      </trkpt>
      <trkpt lat="42.9579109792066" lon="-4.90309157409231">
        <ele>1191.59334945679</ele>
        <time>2018-09-02T13:18:49Z</time>
      </trkpt>
      <trkpt lat="42.9578704946143" lon="-4.90305293351868">
        <ele>1191.44381332397</ele>
        <time>2018-09-02T13:18:50Z</time>
      </trkpt>
      <trkpt lat="42.9578051995886" lon="-4.90297749639014">
        <ele>1194.13912582397</ele>
        <time>2018-09-02T13:18:52Z</time>
      </trkpt>
      <trkpt lat="42.9577369708968" lon="-4.90291832015375">
        <ele>1194.75680160522</ele>
        <time>2018-09-02T13:18:54Z</time>
      </trkpt>
      <trkpt lat="42.957697827409" lon="-4.90288764238814">
        <ele>1194.95919418335</ele>
        <time>2018-09-02T13:18:55Z</time>
      </trkpt>
      <trkpt lat="42.9576433450384" lon="-4.9028259515808">
        <ele>1195.24020004272</ele>
        <time>2018-09-02T13:18:57Z</time>
      </trkpt>
      <trkpt lat="42.9575729789612" lon="-4.90276962519149">
        <ele>1195.72079086304</ele>
        <time>2018-09-02T13:18:59Z</time>
      </trkpt>
      <trkpt lat="42.9575231904564" lon="-4.9027030728803">
        <ele>1194.66073226929</ele>
        <time>2018-09-02T13:19:01Z</time>
      </trkpt>
      <trkpt lat="42.9574671993432" lon="-4.90264330991069">
        <ele>1196.4118309021</ele>
        <time>2018-09-02T13:19:03Z</time>
      </trkpt>
      <trkpt lat="42.957408442202" lon="-4.90258430131236">
        <ele>1196.6637840271</ele>
        <time>2018-09-02T13:19:05Z</time>
      </trkpt>
      <trkpt lat="42.9573425185335" lon="-4.90252755582789">
        <ele>1197.1432762146</ele>
        <time>2018-09-02T13:19:07Z</time>
      </trkpt>
      <trkpt lat="42.9572670394955" lon="-4.90247558802823">
        <ele>1197.61227035522</ele>
        <time>2018-09-02T13:19:09Z</time>
      </trkpt>
      <trkpt lat="42.9572256328938" lon="-4.90245086141387">
        <ele>1197.99166488647</ele>
        <time>2018-09-02T13:19:10Z</time>
      </trkpt>
      <trkpt lat="42.9571834300113" lon="-4.90242554806629">
        <ele>1197.98824691772</ele>
        <time>2018-09-02T13:19:11Z</time>
      </trkpt>
      <trkpt lat="42.9571318813068" lon="-4.90239797160486">
        <ele>1198.2565574646</ele>
        <time>2018-09-02T13:19:12Z</time>
      </trkpt>
      <trkpt lat="42.9570535105122" lon="-4.9023354426072">
        <ele>1199.69686508179</ele>
        <time>2018-09-02T13:19:14Z</time>
      </trkpt>
      <trkpt lat="42.9570157500384" lon="-4.90229789168099">
        <ele>1199.8014793396</ele>
        <time>2018-09-02T13:19:15Z</time>
      </trkpt>
      <trkpt lat="42.9569781991122" lon="-4.90225447342256">
        <ele>1199.98263168335</ele>
        <time>2018-09-02T13:19:16Z</time>
      </trkpt>
      <trkpt lat="42.9569461802421" lon="-4.90221088752607">
        <ele>1199.57125473022</ele>
        <time>2018-09-02T13:19:17Z</time>
      </trkpt>
      <trkpt lat="42.95687451497" lon="-4.90213410929302">
        <ele>1199.03353500366</ele>
        <time>2018-09-02T13:19:19Z</time>
      </trkpt>
      <trkpt lat="42.9567949287993" lon="-4.9020727537618">
        <ele>1200.28988265991</ele>
        <time>2018-09-02T13:19:21Z</time>
      </trkpt>
      <trkpt lat="42.956745182204" lon="-4.90204987116615">
        <ele>1199.68404769897</ele>
        <time>2018-09-02T13:19:22Z</time>
      </trkpt>
      <trkpt lat="42.9566988302795" lon="-4.90203402936915">
        <ele>1200.00472640991</ele>
        <time>2018-09-02T13:19:23Z</time>
      </trkpt>
      <trkpt lat="42.9566323198778" lon="-4.90197041072408">
        <ele>1199.86336898804</ele>
        <time>2018-09-02T13:19:25Z</time>
      </trkpt>
      <trkpt lat="42.9565565893827" lon="-4.90191098303059">
        <ele>1199.41988754272</ele>
        <time>2018-09-02T13:19:27Z</time>
      </trkpt>
      <trkpt lat="42.956483415368" lon="-4.90184702910939">
        <ele>1199.0573387146</ele>
        <time>2018-09-02T13:19:29Z</time>
      </trkpt>
      <trkpt lat="42.9564075172348" lon="-4.90178525448302">
        <ele>1198.4469871521</ele>
        <time>2018-09-02T13:19:31Z</time>
      </trkpt>
      <trkpt lat="42.9563332954822" lon="-4.90172624588469">
        <ele>1199.3327293396</ele>
        <time>2018-09-02T13:19:33Z</time>
      </trkpt>
      <trkpt lat="42.956257564987" lon="-4.90167042240957">
        <ele>1198.98739242554</ele>
        <time>2018-09-02T13:19:35Z</time>
      </trkpt>
      <trkpt lat="42.9561803676588" lon="-4.9016171135054">
        <ele>1198.62972640991</ele>
        <time>2018-09-02T13:19:37Z</time>
      </trkpt>
      <trkpt lat="42.9561030865116" lon="-4.90156137384931">
        <ele>1198.60934066772</ele>
        <time>2018-09-02T13:19:39Z</time>
      </trkpt>
      <trkpt lat="42.9560284456638" lon="-4.90150437690774">
        <ele>1198.2233543396</ele>
        <time>2018-09-02T13:19:41Z</time>
      </trkpt>
      <trkpt lat="42.9559611389814" lon="-4.9014511518226">
        <ele>1198.7829246521</ele>
        <time>2018-09-02T13:19:43Z</time>
      </trkpt>
      <trkpt lat="42.9559114762051" lon="-4.90140052512745">
        <ele>1199.48482894897</ele>
        <time>2018-09-02T13:19:45Z</time>
      </trkpt>
      <trkpt lat="42.9558578739343" lon="-4.90135107189873">
        <ele>1199.56686019897</ele>
        <time>2018-09-02T13:19:47Z</time>
      </trkpt>
      <trkpt lat="42.9558026371924" lon="-4.90130564198354">
        <ele>1199.53646469116</ele>
        <time>2018-09-02T13:19:49Z</time>
      </trkpt>
      <trkpt lat="42.955748909193" lon="-4.90125359036485">
        <ele>1199.87130355835</ele>
        <time>2018-09-02T13:19:51Z</time>
      </trkpt>
      <trkpt lat="42.9556955583794" lon="-4.90120111965099">
        <ele>1200.05501937866</ele>
        <time>2018-09-02T13:19:53Z</time>
      </trkpt>
      <trkpt lat="42.9556466080648" lon="-4.90114429034749">
        <ele>1200.71432113647</ele>
        <time>2018-09-02T13:19:55Z</time>
      </trkpt>
      <trkpt lat="42.955598034936" lon="-4.90108368918756">
        <ele>1200.6881980896</ele>
        <time>2018-09-02T13:19:57Z</time>
      </trkpt>
      <trkpt lat="42.955550593364" lon="-4.90102149546603">
        <ele>1201.86898422241</ele>
        <time>2018-09-02T13:19:59Z</time>
      </trkpt>
      <trkpt lat="42.9555031098825" lon="-4.90096357651511">
        <ele>1201.13375473022</ele>
        <time>2018-09-02T13:20:01Z</time>
      </trkpt>
      <trkpt lat="42.9554573446912" lon="-4.90090842359224">
        <ele>1201.36178207397</ele>
        <time>2018-09-02T13:20:03Z</time>
      </trkpt>
      <trkpt lat="42.9554130044234" lon="-4.90086358041028">
        <ele>1201.88924789429</ele>
        <time>2018-09-02T13:20:05Z</time>
      </trkpt>
      <trkpt lat="42.9553664010418" lon="-4.90080758929709">
        <ele>1202.6354637146</ele>
        <time>2018-09-02T13:20:07Z</time>
      </trkpt>
      <trkpt lat="42.9553192528365" lon="-4.90074665286103">
        <ele>1202.69088363647</ele>
        <time>2018-09-02T13:20:09Z</time>
      </trkpt>
      <trkpt lat="42.9552737810118" lon="-4.90068001673082">
        <ele>1203.42574691772</ele>
        <time>2018-09-02T13:20:11Z</time>
      </trkpt>
      <trkpt lat="42.9552334640575" lon="-4.90059946664134">
        <ele>1204.1354637146</ele>
        <time>2018-09-02T13:20:13Z</time>
      </trkpt>
      <trkpt lat="42.9552040016679" lon="-4.90051547997156">
        <ele>1205.20992660522</ele>
        <time>2018-09-02T13:20:15Z</time>
      </trkpt>
      <trkpt lat="42.9551839270098" lon="-4.90043333732048">
        <ele>1205.03744125366</ele>
        <time>2018-09-02T13:20:17Z</time>
      </trkpt>
      <trkpt lat="42.9551578173814" lon="-4.90035370924035">
        <ele>1205.49410629272</ele>
        <time>2018-09-02T13:20:19Z</time>
      </trkpt>
      <trkpt lat="42.9551230743927" lon="-4.90027617663601">
        <ele>1205.97677230835</ele>
        <time>2018-09-02T13:20:21Z</time>
      </trkpt>
      <trkpt lat="42.9550824640719" lon="-4.90020166151682">
        <ele>1205.70797348022</ele>
        <time>2018-09-02T13:20:23Z</time>
      </trkpt>
      <trkpt lat="42.9550424823938" lon="-4.90012890659729">
        <ele>1205.3776512146</ele>
        <time>2018-09-02T13:20:25Z</time>
      </trkpt>
      <trkpt lat="42.9550001956923" lon="-4.90005472675422">
        <ele>1205.14510726929</ele>
        <time>2018-09-02T13:20:27Z</time>
      </trkpt>
      <trkpt lat="42.9549592920048" lon="-4.89997845143536">
        <ele>1205.1149559021</ele>
        <time>2018-09-02T13:20:29Z</time>
      </trkpt>
      <trkpt lat="42.9549107188759" lon="-4.89990628324905">
        <ele>1203.54598617554</ele>
        <time>2018-09-02T13:20:31Z</time>
      </trkpt>
      <trkpt lat="42.9548629420278" lon="-4.89983470179597">
        <ele>1204.71078109741</ele>
        <time>2018-09-02T13:20:33Z</time>
      </trkpt>
      <trkpt lat="42.9548240080876" lon="-4.89975716919163">
        <ele>1204.64669418335</ele>
        <time>2018-09-02T13:20:35Z</time>
      </trkpt>
      <trkpt lat="42.9547904385654" lon="-4.89966949448446">
        <ele>1205.03182601929</ele>
        <time>2018-09-02T13:20:37Z</time>
      </trkpt>
      <trkpt lat="42.9547595093427" lon="-4.89957880229214">
        <ele>1206.13167953491</ele>
        <time>2018-09-02T13:20:39Z</time>
      </trkpt>
      <trkpt lat="42.9547356628282" lon="-4.89948316477695">
        <ele>1205.16610336304</ele>
        <time>2018-09-02T13:20:41Z</time>
      </trkpt>
      <trkpt lat="42.9547201143978" lon="-4.89938861690918">
        <ele>1205.65755844116</ele>
        <time>2018-09-02T13:20:43Z</time>
      </trkpt>
      <trkpt lat="42.9547119001327" lon="-4.8992858547763">
        <ele>1206.4528465271</ele>
        <time>2018-09-02T13:20:45Z</time>
      </trkpt>
      <trkpt lat="42.9547046078769" lon="-4.89917973988214">
        <ele>1206.5133934021</ele>
        <time>2018-09-02T13:20:47Z</time>
      </trkpt>
      <trkpt lat="42.9546946334121" lon="-4.89907043986479">
        <ele>1207.93966293335</ele>
        <time>2018-09-02T13:20:49Z</time>
      </trkpt>
      <trkpt lat="42.9546857905043" lon="-4.89895720035294">
        <ele>1206.16329574585</ele>
        <time>2018-09-02T13:20:51Z</time>
      </trkpt>
      <trkpt lat="42.9546715412689" lon="-4.89884664305011">
        <ele>1207.49361801147</ele>
        <time>2018-09-02T13:20:53Z</time>
      </trkpt>
      <trkpt lat="42.9546487844018" lon="-4.89873533137599">
        <ele>1207.2253074646</ele>
        <time>2018-09-02T13:20:55Z</time>
      </trkpt>
      <trkpt lat="42.9546261951727" lon="-4.89862334914962">
        <ele>1207.9909324646</ele>
        <time>2018-09-02T13:20:57Z</time>
      </trkpt>
      <trkpt lat="42.9546058690575" lon="-4.89850474521974">
        <ele>1208.03915023804</ele>
        <time>2018-09-02T13:20:59Z</time>
      </trkpt>
      <trkpt lat="42.9545976128829" lon="-4.89838714711824">
        <ele>1207.92318344116</ele>
        <time>2018-09-02T13:21:01Z</time>
      </trkpt>
      <trkpt lat="42.9545879736943" lon="-4.89832252264479">
        <ele>1207.7956199646</ele>
        <time>2018-09-02T13:21:02Z</time>
      </trkpt>
      <trkpt lat="42.9545793822435" lon="-4.89825312048653">
        <ele>1206.47030258179</ele>
        <time>2018-09-02T13:21:03Z</time>
      </trkpt>
      <trkpt lat="42.9545725090829" lon="-4.89818078466216">
        <ele>1206.0895652771</ele>
        <time>2018-09-02T13:21:04Z</time>
      </trkpt>
      <trkpt lat="42.954564713913" lon="-4.89811674692193">
        <ele>1204.4469871521</ele>
        <time>2018-09-02T13:21:05Z</time>
      </trkpt>
      <trkpt lat="42.9545578826619" lon="-4.89805170335332">
        <ele>1202.94430160522</ele>
        <time>2018-09-02T13:21:06Z</time>
      </trkpt>
      <trkpt lat="42.954552769701" lon="-4.89792748354832">
        <ele>1204.09505844116</ele>
        <time>2018-09-02T13:21:08Z</time>
      </trkpt>
      <trkpt lat="42.9545533564342" lon="-4.8978140763984">
        <ele>1203.9518699646</ele>
        <time>2018-09-02T13:21:10Z</time>
      </trkpt>
      <trkpt lat="42.954547572921" lon="-4.89769756794432">
        <ele>1205.36275863647</ele>
        <time>2018-09-02T13:21:12Z</time>
      </trkpt>
      <trkpt lat="42.9545558710051" lon="-4.89757711999574">
        <ele>1206.43600082397</ele>
        <time>2018-09-02T13:21:14Z</time>
      </trkpt>
      <trkpt lat="42.9545627441657" lon="-4.89746756852129">
        <ele>1206.40609359741</ele>
        <time>2018-09-02T13:21:16Z</time>
      </trkpt>
      <trkpt lat="42.9545702459691" lon="-4.89736438729325">
        <ele>1208.30318832397</ele>
        <time>2018-09-02T13:21:18Z</time>
      </trkpt>
      <trkpt lat="42.9545729700876" lon="-4.89726263098875">
        <ele>1208.2868309021</ele>
        <time>2018-09-02T13:21:20Z</time>
      </trkpt>
      <trkpt lat="42.9545756103871" lon="-4.89716414362648">
        <ele>1208.56136703491</ele>
        <time>2018-09-02T13:21:22Z</time>
      </trkpt>
      <trkpt lat="42.954576658125" lon="-4.89707060158709">
        <ele>1208.84298324585</ele>
        <time>2018-09-02T13:21:24Z</time>
      </trkpt>
      <trkpt lat="42.9545776639534" lon="-4.89697940648058">
        <ele>1211.05331039429</ele>
        <time>2018-09-02T13:21:26Z</time>
      </trkpt>
      <trkpt lat="42.9545852076662" lon="-4.8968919832305">
        <ele>1210.63131332397</ele>
        <time>2018-09-02T13:21:28Z</time>
      </trkpt>
      <trkpt lat="42.9546007980061" lon="-4.89680430852333">
        <ele>1211.68905258179</ele>
        <time>2018-09-02T13:21:30Z</time>
      </trkpt>
      <trkpt lat="42.9546206631166" lon="-4.89672023803452">
        <ele>1213.30196762085</ele>
        <time>2018-09-02T13:21:32Z</time>
      </trkpt>
      <trkpt lat="42.9546411987794" lon="-4.89663532935539">
        <ele>1213.28915023804</ele>
        <time>2018-09-02T13:21:34Z</time>
      </trkpt>
      <trkpt lat="42.9546589684141" lon="-4.89655075595239">
        <ele>1213.8141746521</ele>
        <time>2018-09-02T13:21:36Z</time>
      </trkpt>
      <trkpt lat="42.954678540158" lon="-4.89647330716708">
        <ele>1213.51131820679</ele>
        <time>2018-09-02T13:21:38Z</time>
      </trkpt>
      <trkpt lat="42.9546971479831" lon="-4.89639560692468">
        <ele>1214.32613754272</ele>
        <time>2018-09-02T13:21:40Z</time>
      </trkpt>
      <trkpt lat="42.954715504351" lon="-4.89631731994906">
        <ele>1214.87838363647</ele>
        <time>2018-09-02T13:21:42Z</time>
      </trkpt>
      <trkpt lat="42.9547376744849" lon="-4.89624062553504">
        <ele>1215.75289535522</ele>
        <time>2018-09-02T13:21:44Z</time>
      </trkpt>
      <trkpt lat="42.9547595093427" lon="-4.89616770297745">
        <ele>1216.03475570679</ele>
        <time>2018-09-02T13:21:46Z</time>
      </trkpt>
      <trkpt lat="42.9547787039009" lon="-4.89609955810466">
        <ele>1216.44161605835</ele>
        <time>2018-09-02T13:21:48Z</time>
      </trkpt>
      <trkpt lat="42.9547970602689" lon="-4.89603049122253">
        <ele>1215.78695297241</ele>
        <time>2018-09-02T13:21:50Z</time>
      </trkpt>
      <trkpt lat="42.9548089625714" lon="-4.8959595803217">
        <ele>1216.54879379272</ele>
        <time>2018-09-02T13:21:52Z</time>
      </trkpt>
      <trkpt lat="42.9548206553263" lon="-4.89588389173606">
        <ele>1217.4049949646</ele>
        <time>2018-09-02T13:21:54Z</time>
      </trkpt>
      <trkpt lat="42.9548486508829" lon="-4.89580250345626">
        <ele>1217.13033676147</ele>
        <time>2018-09-02T13:21:56Z</time>
      </trkpt>
      <trkpt lat="42.9548895545704" lon="-4.89571491256812">
        <ele>1217.6198387146</ele>
        <time>2018-09-02T13:21:58Z</time>
      </trkpt>
      <trkpt lat="42.9549328890098" lon="-4.89562849514642">
        <ele>1218.43416976929</ele>
        <time>2018-09-02T13:22:00Z</time>
      </trkpt>
      <trkpt lat="42.9549773969156" lon="-4.89554584958115">
        <ele>1219.29146957397</ele>
        <time>2018-09-02T13:22:02Z</time>
      </trkpt>
      <trkpt lat="42.9550198931647" lon="-4.89546773024359">
        <ele>1219.43404769897</ele>
        <time>2018-09-02T13:22:04Z</time>
      </trkpt>
      <trkpt lat="42.955066873732" lon="-4.89539078437248">
        <ele>1220.11324691772</ele>
        <time>2018-09-02T13:22:06Z</time>
      </trkpt>
      <trkpt lat="42.955113267566" lon="-4.89531886764327">
        <ele>1220.03524398804</ele>
        <time>2018-09-02T13:22:08Z</time>
      </trkpt>
      <trkpt lat="42.955164606723" lon="-4.89524074830571">
        <ele>1219.7223777771</ele>
        <time>2018-09-02T13:22:10Z</time>
      </trkpt>
      <trkpt lat="42.9552136408565" lon="-4.8951614555017">
        <ele>1219.93990707397</ele>
        <time>2018-09-02T13:22:12Z</time>
      </trkpt>
      <trkpt lat="42.9552664468465" lon="-4.89507931285062">
        <ele>1220.47774887085</ele>
        <time>2018-09-02T13:22:14Z</time>
      </trkpt>
      <trkpt lat="42.9553177860034" lon="-4.89500152878919">
        <ele>1221.56356430054</ele>
        <time>2018-09-02T13:22:16Z</time>
      </trkpt>
      <trkpt lat="42.9553670715941" lon="-4.89491863176682">
        <ele>1221.65230941772</ele>
        <time>2018-09-02T13:22:18Z</time>
      </trkpt>
      <trkpt lat="42.9554044967917" lon="-4.89484738558987">
        <ele>1222.41488265991</ele>
        <time>2018-09-02T13:22:20Z</time>
      </trkpt>
      <trkpt lat="42.9554350069193" lon="-4.89477630705097">
        <ele>1222.44906234741</ele>
        <time>2018-09-02T13:22:22Z</time>
      </trkpt>
      <trkpt lat="42.955467319156" lon="-4.89470564760724">
        <ele>1223.1706199646</ele>
        <time>2018-09-02T13:22:24Z</time>
      </trkpt>
      <trkpt lat="42.9555075103817" lon="-4.89463591017285">
        <ele>1223.89242172241</ele>
        <time>2018-09-02T13:22:26Z</time>
      </trkpt>
      <trkpt lat="42.9555511381877" lon="-4.89455611445466">
        <ele>1226.39352035522</ele>
        <time>2018-09-02T13:22:28Z</time>
      </trkpt>
      <trkpt lat="42.9555952269984" lon="-4.89447413944164">
        <ele>1227.3756980896</ele>
        <time>2018-09-02T13:22:30Z</time>
      </trkpt>
      <trkpt lat="42.9556410340992" lon="-4.89439744502762">
        <ele>1227.18795394897</ele>
        <time>2018-09-02T13:22:32Z</time>
      </trkpt>
      <trkpt lat="42.9556909902421" lon="-4.89431932569006">
        <ele>1227.91891098022</ele>
        <time>2018-09-02T13:22:34Z</time>
      </trkpt>
      <trkpt lat="42.9557312233774" lon="-4.89424129017153">
        <ele>1227.89608383179</ele>
        <time>2018-09-02T13:22:36Z</time>
      </trkpt>
      <trkpt lat="42.9557570396391" lon="-4.8941550403879">
        <ele>1230.28158187866</ele>
        <time>2018-09-02T13:22:38Z</time>
      </trkpt>
      <trkpt lat="42.9557670560134" lon="-4.89405739121595">
        <ele>1230.93246078491</ele>
        <time>2018-09-02T13:22:40Z</time>
      </trkpt>
      <trkpt lat="42.9557738034455" lon="-4.89394884556988">
        <ele>1229.35262680054</ele>
        <time>2018-09-02T13:22:42Z</time>
      </trkpt>
      <trkpt lat="42.9557709535984" lon="-4.89385706373015">
        <ele>1227.78207015991</ele>
        <time>2018-09-02T13:22:44Z</time>
      </trkpt>
      <trkpt lat="42.9557717079697" lon="-4.89375815727272">
        <ele>1228.55331039429</ele>
        <time>2018-09-02T13:22:46Z</time>
      </trkpt>
      <trkpt lat="42.9557727557076" lon="-4.89367517643133">
        <ele>1227.91170883179</ele>
        <time>2018-09-02T13:22:48Z</time>
      </trkpt>
      <trkpt lat="42.9557728395266" lon="-4.89359605126539">
        <ele>1228.44613265991</ele>
        <time>2018-09-02T13:22:50Z</time>
      </trkpt>
      <trkpt lat="42.9557750188214" lon="-4.89350921474853">
        <ele>1229.85287094116</ele>
        <time>2018-09-02T13:22:52Z</time>
      </trkpt>
      <trkpt lat="42.9557696963129" lon="-4.893441740428">
        <ele>1230.09176254272</ele>
        <time>2018-09-02T13:22:54Z</time>
      </trkpt>
      <trkpt lat="42.9557610210431" lon="-4.89336345345238">
        <ele>1229.91305160522</ele>
        <time>2018-09-02T13:22:57Z</time>
      </trkpt>
      <trkpt lat="42.9557647090805" lon="-4.89326496609011">
        <ele>1232.45431137085</ele>
        <time>2018-09-02T13:23:00Z</time>
      </trkpt>
      <trkpt lat="42.9557703668652" lon="-4.89319950342634">
        <ele>1234.82210922241</ele>
        <time>2018-09-02T13:23:02Z</time>
      </trkpt>
      <trkpt lat="42.9557662178231" lon="-4.8931119125382">
        <ele>1234.16512680054</ele>
        <time>2018-09-02T13:23:05Z</time>
      </trkpt>
      <trkpt lat="42.9557581711961" lon="-4.89305005409279">
        <ele>1234.33419418335</ele>
        <time>2018-09-02T13:23:07Z</time>
      </trkpt>
      <trkpt lat="42.9557518009496" lon="-4.8929876927332">
        <ele>1233.69039535522</ele>
        <time>2018-09-02T13:23:09Z</time>
      </trkpt>
      <trkpt lat="42.9557416169373" lon="-4.89292139187911">
        <ele>1236.31112289429</ele>
        <time>2018-09-02T13:23:11Z</time>
      </trkpt>
      <trkpt lat="42.9557367135239" lon="-4.89285752177694">
        <ele>1236.68893051147</ele>
        <time>2018-09-02T13:23:13Z</time>
      </trkpt>
      <trkpt lat="42.955734282772" lon="-4.89279205911317">
        <ele>1233.93343734741</ele>
        <time>2018-09-02T13:23:15Z</time>
      </trkpt>
      <trkpt lat="42.9557339474959" lon="-4.89272760227778">
        <ele>1234.61410140991</ele>
        <time>2018-09-02T13:23:17Z</time>
      </trkpt>
      <trkpt lat="42.9557301756395" lon="-4.89266213961401">
        <ele>1236.39706039429</ele>
        <time>2018-09-02T13:23:19Z</time>
      </trkpt>
      <trkpt lat="42.9557284573493" lon="-4.89259810187378">
        <ele>1237.24471664429</ele>
        <time>2018-09-02T13:23:21Z</time>
      </trkpt>
      <trkpt lat="42.9557213746411" lon="-4.89251017570951">
        <ele>1236.17867660522</ele>
        <time>2018-09-02T13:23:24Z</time>
      </trkpt>
      <trkpt lat="42.9557129089189" lon="-4.89244546741703">
        <ele>1237.00313949585</ele>
        <time>2018-09-02T13:23:26Z</time>
      </trkpt>
      <trkpt lat="42.9557106877146" lon="-4.89238277078131">
        <ele>1236.65487289429</ele>
        <time>2018-09-02T13:23:28Z</time>
      </trkpt>
      <trkpt lat="42.9557117354525" lon="-4.89231940359333">
        <ele>1236.76913070679</ele>
        <time>2018-09-02T13:23:30Z</time>
      </trkpt>
      <trkpt lat="42.955713160376" lon="-4.89222862758198">
        <ele>1238.47591781616</ele>
        <time>2018-09-02T13:23:33Z</time>
      </trkpt>
      <trkpt lat="42.9557207040889" lon="-4.89214103669384">
        <ele>1240.48946762085</ele>
        <time>2018-09-02T13:23:36Z</time>
      </trkpt>
      <trkpt lat="42.9557332769436" lon="-4.89205386490085">
        <ele>1242.48849105835</ele>
        <time>2018-09-02T13:23:39Z</time>
      </trkpt>
      <trkpt lat="42.9557534773303" lon="-4.89197356626847">
        <ele>1244.57467269897</ele>
        <time>2018-09-02T13:23:42Z</time>
      </trkpt>
      <trkpt lat="42.9557845322815" lon="-4.89189913496831">
        <ele>1244.14010238647</ele>
        <time>2018-09-02T13:23:45Z</time>
      </trkpt>
      <trkpt lat="42.9558274895353" lon="-4.89183099009552">
        <ele>1243.02669906616</ele>
        <time>2018-09-02T13:23:48Z</time>
      </trkpt>
      <trkpt lat="42.9558613105146" lon="-4.89178958349385">
        <ele>1242.89291000366</ele>
        <time>2018-09-02T13:23:50Z</time>
      </trkpt>
      <trkpt lat="42.9559022980211" lon="-4.89175479859569">
        <ele>1244.05355453491</ele>
        <time>2018-09-02T13:23:52Z</time>
      </trkpt>
      <trkpt lat="42.955956151749" lon="-4.89173334092357">
        <ele>1244.35580062866</ele>
        <time>2018-09-02T13:23:54Z</time>
      </trkpt>
      <trkpt lat="42.9560284875733" lon="-4.89173359238067">
        <ele>1244.11959457397</ele>
        <time>2018-09-02T13:23:56Z</time>
      </trkpt>
      <trkpt lat="42.9561066069109" lon="-4.89174800925412">
        <ele>1244.01156234741</ele>
        <time>2018-09-02T13:23:58Z</time>
      </trkpt>
      <trkpt lat="42.9561801162017" lon="-4.8917701374785">
        <ele>1243.75082015991</ele>
        <time>2018-09-02T13:24:00Z</time>
      </trkpt>
      <trkpt lat="42.9562462494177" lon="-4.89176619798401">
        <ele>1244.37191390991</ele>
        <time>2018-09-02T13:24:02Z</time>
      </trkpt>
      <trkpt lat="42.9562901705903" lon="-4.89169704728284">
        <ele>1244.76986312866</ele>
        <time>2018-09-02T13:24:04Z</time>
      </trkpt>
      <trkpt lat="42.9562849738104" lon="-4.89160752855697">
        <ele>1244.71737289429</ele>
        <time>2018-09-02T13:24:06Z</time>
      </trkpt>
      <trkpt lat="42.9562505241883" lon="-4.89155019633928">
        <ele>1244.85775375366</ele>
        <time>2018-09-02T13:24:08Z</time>
      </trkpt>
      <trkpt lat="42.9562109196959" lon="-4.89150451496699">
        <ele>1246.63766098022</ele>
        <time>2018-09-02T13:24:10Z</time>
      </trkpt>
      <trkpt lat="42.9561761347977" lon="-4.89146386273661">
        <ele>1247.83187484741</ele>
        <time>2018-09-02T13:24:12Z</time>
      </trkpt>
      <trkpt lat="42.956139924976" lon="-4.89141508006015">
        <ele>1248.67708969116</ele>
        <time>2018-09-02T13:24:14Z</time>
      </trkpt>
      <trkpt lat="42.9561012844024" lon="-4.89136897959271">
        <ele>1248.79806137085</ele>
        <time>2018-09-02T13:24:16Z</time>
      </trkpt>
      <trkpt lat="42.9560660804091" lon="-4.89132539369621">
        <ele>1250.06002426147</ele>
        <time>2018-09-02T13:24:18Z</time>
      </trkpt>
      <trkpt lat="42.956019602756" lon="-4.8912606015847">
        <ele>1248.58980941772</ele>
        <time>2018-09-02T13:24:21Z</time>
      </trkpt>
      <trkpt lat="42.9559753882167" lon="-4.89119111560741">
        <ele>1249.00570297241</ele>
        <time>2018-09-02T13:24:24Z</time>
      </trkpt>
      <trkpt lat="42.9559462611032" lon="-4.89111660048821">
        <ele>1249.88521957397</ele>
        <time>2018-09-02T13:24:27Z</time>
      </trkpt>
      <trkpt lat="42.9559527570782" lon="-4.89104334265449">
        <ele>1250.3542137146</ele>
        <time>2018-09-02T13:24:30Z</time>
      </trkpt>
      <trkpt lat="42.9559887573523" lon="-4.8909788858191">
        <ele>1251.0006980896</ele>
        <time>2018-09-02T13:24:33Z</time>
      </trkpt>
      <trkpt lat="42.9560297029493" lon="-4.89091878757336">
        <ele>1251.57564926147</ele>
        <time>2018-09-02T13:24:36Z</time>
      </trkpt>
      <trkpt lat="42.9560709419129" lon="-4.89085852168956">
        <ele>1251.77523422241</ele>
        <time>2018-09-02T13:24:39Z</time>
      </trkpt>
      <trkpt lat="42.9561026674164" lon="-4.8908026143954">
        <ele>1252.35335922241</ele>
        <time>2018-09-02T13:24:42Z</time>
      </trkpt>
      <trkpt lat="42.956143822561" lon="-4.89073975012162">
        <ele>1253.5973777771</ele>
        <time>2018-09-02T13:24:45Z</time>
      </trkpt>
      <trkpt lat="42.9561864026291" lon="-4.89069088362613">
        <ele>1253.55501937866</ele>
        <time>2018-09-02T13:24:48Z</time>
      </trkpt>
      <trkpt lat="42.9562364006815" lon="-4.89064780064383">
        <ele>1254.07027816772</ele>
        <time>2018-09-02T13:24:51Z</time>
      </trkpt>
      <trkpt lat="42.9562808666778" lon="-4.89059960470059">
        <ele>1255.61275863647</ele>
        <time>2018-09-02T13:24:54Z</time>
      </trkpt>
      <trkpt lat="42.9563281825212" lon="-4.89054738544383">
        <ele>1257.16622543335</ele>
        <time>2018-09-02T13:24:57Z</time>
      </trkpt>
      <trkpt lat="42.9563746182648" lon="-4.89049005322614">
        <ele>1259.52791976929</ele>
        <time>2018-09-02T13:25:00Z</time>
      </trkpt>
      <trkpt lat="42.9564081458775" lon="-4.89041972905853">
        <ele>1259.64071273804</ele>
        <time>2018-09-02T13:25:03Z</time>
      </trkpt>
      <trkpt lat="42.9564373987196" lon="-4.89034487866321">
        <ele>1259.39168930054</ele>
        <time>2018-09-02T13:25:06Z</time>
      </trkpt>
      <trkpt lat="42.9564612033246" lon="-4.89026801661112">
        <ele>1261.37032699585</ele>
        <time>2018-09-02T13:25:09Z</time>
      </trkpt>
      <trkpt lat="42.9564757878361" lon="-4.89018092863717">
        <ele>1261.2721824646</ele>
        <time>2018-09-02T13:25:12Z</time>
      </trkpt>
      <trkpt lat="42.9564925516424" lon="-4.89011965692499">
        <ele>1262.25240707397</ele>
        <time>2018-09-02T13:25:14Z</time>
      </trkpt>
      <trkpt lat="42.956509986001" lon="-4.89003533497908">
        <ele>1261.90816879272</ele>
        <time>2018-09-02T13:25:17Z</time>
      </trkpt>
      <trkpt lat="42.9565192060945" lon="-4.88997523673334">
        <ele>1263.16488265991</ele>
        <time>2018-09-02T13:25:19Z</time>
      </trkpt>
      <trkpt lat="42.9565280490024" lon="-4.88991212100246">
        <ele>1263.87191390991</ele>
        <time>2018-09-02T13:25:21Z</time>
      </trkpt>
      <trkpt lat="42.9565409152237" lon="-4.88984028809228">
        <ele>1264.37948226929</ele>
        <time>2018-09-02T13:25:23Z</time>
      </trkpt>
      <trkpt lat="42.9565590201346" lon="-4.88977180794337">
        <ele>1265.6725730896</ele>
        <time>2018-09-02T13:25:25Z</time>
      </trkpt>
      <trkpt lat="42.9565747781125" lon="-4.88970114849963">
        <ele>1265.4958152771</ele>
        <time>2018-09-02T13:25:27Z</time>
      </trkpt>
      <trkpt lat="42.9565796396164" lon="-4.88963677548327">
        <ele>1265.1530418396</ele>
        <time>2018-09-02T13:25:29Z</time>
      </trkpt>
      <trkpt lat="42.9566056654257" lon="-4.889575252314">
        <ele>1265.54806137085</ele>
        <time>2018-09-02T13:25:31Z</time>
      </trkpt>
      <trkpt lat="42.956647449213" lon="-4.8895229492382">
        <ele>1266.00545883179</ele>
        <time>2018-09-02T13:25:33Z</time>
      </trkpt>
      <trkpt lat="42.956688227172" lon="-4.8894560616509">
        <ele>1264.59322738647</ele>
        <time>2018-09-02T13:25:36Z</time>
      </trkpt>
      <trkpt lat="42.956708218011" lon="-4.88939705305257">
        <ele>1265.06380844116</ele>
        <time>2018-09-02T13:25:38Z</time>
      </trkpt>
      <trkpt lat="42.9567249399079" lon="-4.88932983018913">
        <ele>1263.7565574646</ele>
        <time>2018-09-02T13:25:40Z</time>
      </trkpt>
      <trkpt lat="42.9567378899483" lon="-4.88925824873605">
        <ele>1265.0592918396</ele>
        <time>2018-09-02T13:25:42Z</time>
      </trkpt>
      <trkpt lat="42.9567511752648" lon="-4.88919421099582">
        <ele>1266.66305160522</ele>
        <time>2018-09-02T13:25:44Z</time>
      </trkpt>
      <trkpt lat="42.9567650473145" lon="-4.88912849687495">
        <ele>1267.80550765991</ele>
        <time>2018-09-02T13:25:46Z</time>
      </trkpt>
      <trkpt lat="42.9567804700164" lon="-4.88906320184925">
        <ele>1267.46957015991</ele>
        <time>2018-09-02T13:25:48Z</time>
      </trkpt>
      <trkpt lat="42.9567979462845" lon="-4.88899346441486">
        <ele>1268.13082504272</ele>
        <time>2018-09-02T13:25:50Z</time>
      </trkpt>
      <trkpt lat="42.9568181047616" lon="-4.88892355934241">
        <ele>1270.39181137085</ele>
        <time>2018-09-02T13:25:52Z</time>
      </trkpt>
      <trkpt lat="42.9568321863589" lon="-4.888861700897">
        <ele>1272.06490707397</ele>
        <time>2018-09-02T13:25:54Z</time>
      </trkpt>
      <trkpt lat="42.9568522191075" lon="-4.88880193792739">
        <ele>1274.25338363647</ele>
        <time>2018-09-02T13:25:56Z</time>
      </trkpt>
      <trkpt lat="42.9568767361743" lon="-4.88874301314809">
        <ele>1273.76205062866</ele>
        <time>2018-09-02T13:25:58Z</time>
      </trkpt>
      <trkpt lat="42.9568928294284" lon="-4.88868123852172">
        <ele>1274.38009262085</ele>
        <time>2018-09-02T13:26:00Z</time>
      </trkpt>
      <trkpt lat="42.9569052346451" lon="-4.88862080499985">
        <ele>1274.65462875366</ele>
        <time>2018-09-02T13:26:02Z</time>
      </trkpt>
      <trkpt lat="42.9569267761362" lon="-4.8885543365077">
        <ele>1274.52486801147</ele>
        <time>2018-09-02T13:26:04Z</time>
      </trkpt>
      <trkpt lat="42.9569416540144" lon="-4.8884816654072">
        <ele>1275.42196273804</ele>
        <time>2018-09-02T13:26:06Z</time>
      </trkpt>
      <trkpt lat="42.9569471860705" lon="-4.88840245642223">
        <ele>1279.58089828491</ele>
        <time>2018-09-02T13:26:08Z</time>
      </trkpt>
      <trkpt lat="42.9569454677803" lon="-4.88832676783659">
        <ele>1279.8844871521</ele>
        <time>2018-09-02T13:26:10Z</time>
      </trkpt>
      <trkpt lat="42.9569412349192" lon="-4.88824227825262">
        <ele>1278.38863754272</ele>
        <time>2018-09-02T13:26:12Z</time>
      </trkpt>
      <trkpt lat="42.9569409834621" lon="-4.88814488053777">
        <ele>1280.20711898804</ele>
        <time>2018-09-02T13:26:14Z</time>
      </trkpt>
      <trkpt lat="42.9569457192374" lon="-4.88804572262325">
        <ele>1280.26620101929</ele>
        <time>2018-09-02T13:26:16Z</time>
      </trkpt>
      <trkpt lat="42.9569455096898" lon="-4.88794296049037">
        <ele>1285.20064926147</ele>
        <time>2018-09-02T13:26:18Z</time>
      </trkpt>
      <trkpt lat="42.9569463478801" lon="-4.8878344148443">
        <ele>1285.77401351929</ele>
        <time>2018-09-02T13:26:20Z</time>
      </trkpt>
      <trkpt lat="42.95694722798" lon="-4.88773123361625">
        <ele>1286.07967758179</ele>
        <time>2018-09-02T13:26:22Z</time>
      </trkpt>
      <trkpt lat="42.9569297936214" lon="-4.88764490001359">
        <ele>1287.82247543335</ele>
        <time>2018-09-02T13:26:24Z</time>
      </trkpt>
      <trkpt lat="42.9569074139399" lon="-4.88756887615182">
        <ele>1289.37496566772</ele>
        <time>2018-09-02T13:26:26Z</time>
      </trkpt>
      <trkpt lat="42.9568927036998" lon="-4.88749997690775">
        <ele>1289.34310531616</ele>
        <time>2018-09-02T13:26:28Z</time>
      </trkpt>
      <trkpt lat="42.9568854952631" lon="-4.88742755726435">
        <ele>1289.96151351929</ele>
        <time>2018-09-02T13:26:30Z</time>
      </trkpt>
      <trkpt lat="42.9568826035065" lon="-4.88734533079424">
        <ele>1287.80123519897</ele>
        <time>2018-09-02T13:26:32Z</time>
      </trkpt>
      <trkpt lat="42.9568705335659" lon="-4.88727500662663">
        <ele>1287.17293930054</ele>
        <time>2018-09-02T13:26:34Z</time>
      </trkpt>
      <trkpt lat="42.9568530572978" lon="-4.88719822839358">
        <ele>1289.1032371521</ele>
        <time>2018-09-02T13:26:36Z</time>
      </trkpt>
      <trkpt lat="42.9568311805306" lon="-4.88710317761161">
        <ele>1291.34383773804</ele>
        <time>2018-09-02T13:26:38Z</time>
      </trkpt>
      <trkpt lat="42.9568033945215" lon="-4.88700946793415">
        <ele>1292.17379379272</ele>
        <time>2018-09-02T13:26:40Z</time>
      </trkpt>
      <trkpt lat="42.9567777039883" lon="-4.88690318540194">
        <ele>1291.89730453491</ele>
        <time>2018-09-02T13:26:42Z</time>
      </trkpt>
      <trkpt lat="42.956764921586" lon="-4.88684032112815">
        <ele>1292.43893051147</ele>
        <time>2018-09-02T13:26:43Z</time>
      </trkpt>
      <trkpt lat="42.9567567492304" lon="-4.88676656038024">
        <ele>1291.66634750366</ele>
        <time>2018-09-02T13:26:44Z</time>
      </trkpt>
      <trkpt lat="42.9567500437079" lon="-4.88669489510812">
        <ele>1291.53988265991</ele>
        <time>2018-09-02T13:26:45Z</time>
      </trkpt>
      <trkpt lat="42.9567486606938" lon="-4.88661853597023">
        <ele>1289.20406723022</ele>
        <time>2018-09-02T13:26:46Z</time>
      </trkpt>
      <trkpt lat="42.9567520134551" lon="-4.88653806969979">
        <ele>1288.30501937866</ele>
        <time>2018-09-02T13:26:47Z</time>
      </trkpt>
      <trkpt lat="42.9567533545596" lon="-4.8864596150861">
        <ele>1288.64779281616</ele>
        <time>2018-09-02T13:26:48Z</time>
      </trkpt>
      <trkpt lat="42.956737303215" lon="-4.88637655042567">
        <ele>1288.03561019897</ele>
        <time>2018-09-02T13:26:50Z</time>
      </trkpt>
      <trkpt lat="42.9567251075459" lon="-4.88630153239228">
        <ele>1287.74081039429</ele>
        <time>2018-09-02T13:26:52Z</time>
      </trkpt>
      <trkpt lat="42.9567193240327" lon="-4.88623598590948">
        <ele>1288.30624008179</ele>
        <time>2018-09-02T13:26:54Z</time>
      </trkpt>
      <trkpt lat="42.9567095591155" lon="-4.8861675895796">
        <ele>1286.40999984741</ele>
        <time>2018-09-02T13:26:56Z</time>
      </trkpt>
      <trkpt lat="42.9567013029409" lon="-4.8861054796771">
        <ele>1285.6247215271</ele>
        <time>2018-09-02T13:26:58Z</time>
      </trkpt>
      <trkpt lat="42.9566967767132" lon="-4.88604135811784">
        <ele>1283.7536277771</ele>
        <time>2018-09-02T13:27:00Z</time>
      </trkpt>
      <trkpt lat="42.9566908674715" lon="-4.88598050550081">
        <ele>1285.60409164429</ele>
        <time>2018-09-02T13:27:02Z</time>
      </trkpt>
      <trkpt lat="42.9566829046635" lon="-4.88589408807912">
        <ele>1283.44149398804</ele>
        <time>2018-09-02T13:27:05Z</time>
      </trkpt>
      <trkpt lat="42.9566831561205" lon="-4.88582720049181">
        <ele>1283.91732406616</ele>
        <time>2018-09-02T13:27:07Z</time>
      </trkpt>
      <trkpt lat="42.9566823179302" lon="-4.8857568763242">
        <ele>1283.56991195679</ele>
        <time>2018-09-02T13:27:09Z</time>
      </trkpt>
      <trkpt lat="42.9566766601456" lon="-4.88569166511752">
        <ele>1285.30953598022</ele>
        <time>2018-09-02T13:27:11Z</time>
      </trkpt>
      <trkpt lat="42.9566619499055" lon="-4.88561145030417">
        <ele>1286.29671859741</ele>
        <time>2018-09-02T13:27:14Z</time>
      </trkpt>
      <trkpt lat="42.9566590162394" lon="-4.88552469760635">
        <ele>1287.38302230835</ele>
        <time>2018-09-02T13:27:17Z</time>
      </trkpt>
      <trkpt lat="42.9566521011693" lon="-4.88543467596628">
        <ele>1289.19771957397</ele>
        <time>2018-09-02T13:27:20Z</time>
      </trkpt>
      <trkpt lat="42.9566449765516" lon="-4.88534876145877">
        <ele>1287.66988754272</ele>
        <time>2018-09-02T13:27:23Z</time>
      </trkpt>
      <trkpt lat="42.9566258658124" lon="-4.88527474925377">
        <ele>1288.13766098022</ele>
        <time>2018-09-02T13:27:26Z</time>
      </trkpt>
      <trkpt lat="42.9566035280404" lon="-4.8852024134294">
        <ele>1289.28451156616</ele>
        <time>2018-09-02T13:27:29Z</time>
      </trkpt>
      <trkpt lat="42.9565874347863" lon="-4.88512353972055">
        <ele>1287.50790023804</ele>
        <time>2018-09-02T13:27:32Z</time>
      </trkpt>
      <trkpt lat="42.9565617023436" lon="-4.88503586501338">
        <ele>1288.74422836304</ele>
        <time>2018-09-02T13:27:35Z</time>
      </trkpt>
      <trkpt lat="42.9565448128087" lon="-4.88496922888317">
        <ele>1288.9401512146</ele>
        <time>2018-09-02T13:27:37Z</time>
      </trkpt>
      <trkpt lat="42.956525827798" lon="-4.88489337265946">
        <ele>1289.97506332397</ele>
        <time>2018-09-02T13:27:39Z</time>
      </trkpt>
      <trkpt lat="42.9565096507249" lon="-4.88481944427349">
        <ele>1285.29635238647</ele>
        <time>2018-09-02T13:27:41Z</time>
      </trkpt>
      <trkpt lat="42.9564948566658" lon="-4.88474610262074">
        <ele>1285.55489730835</ele>
        <time>2018-09-02T13:27:43Z</time>
      </trkpt>
      <trkpt lat="42.9564782604975" lon="-4.88466806710221">
        <ele>1285.61910629272</ele>
        <time>2018-09-02T13:27:45Z</time>
      </trkpt>
      <trkpt lat="42.9564614966912" lon="-4.88458475098469">
        <ele>1287.19869613647</ele>
        <time>2018-09-02T13:27:47Z</time>
      </trkpt>
      <trkpt lat="42.9564459901703" lon="-4.88449791446783">
        <ele>1288.18783187866</ele>
        <time>2018-09-02T13:27:49Z</time>
      </trkpt>
      <trkpt lat="42.9564292682735" lon="-4.88441250287451">
        <ele>1289.24813461304</ele>
        <time>2018-09-02T13:27:51Z</time>
      </trkpt>
      <trkpt lat="42.9564195033563" lon="-4.88432968967118">
        <ele>1289.68697738647</ele>
        <time>2018-09-02T13:27:53Z</time>
      </trkpt>
      <trkpt lat="42.9564170726044" lon="-4.88425333053328">
        <ele>1290.93307113647</ele>
        <time>2018-09-02T13:27:55Z</time>
      </trkpt>
      <trkpt lat="42.9564235685793" lon="-4.88417931832828">
        <ele>1289.86422348022</ele>
        <time>2018-09-02T13:27:57Z</time>
      </trkpt>
      <trkpt lat="42.9564375663576" lon="-4.88410279155232">
        <ele>1289.13607406616</ele>
        <time>2018-09-02T13:27:59Z</time>
      </trkpt>
      <trkpt lat="42.9564529052404" lon="-4.8840329702989">
        <ele>1289.92403793335</ele>
        <time>2018-09-02T13:28:01Z</time>
      </trkpt>
      <trkpt lat="42.9564722674368" lon="-4.8839763924525">
        <ele>1290.36031723022</ele>
        <time>2018-09-02T13:28:03Z</time>
      </trkpt>
      <trkpt lat="42.9564901628" lon="-4.88391788676836">
        <ele>1291.89071273804</ele>
        <time>2018-09-02T13:28:05Z</time>
      </trkpt>
      <trkpt lat="42.9565081000728" lon="-4.88386156037905">
        <ele>1293.12679672241</ele>
        <time>2018-09-02T13:28:07Z</time>
      </trkpt>
      <trkpt lat="42.9565312341256" lon="-4.88380087540008">
        <ele>1294.13106918335</ele>
        <time>2018-09-02T13:28:09Z</time>
      </trkpt>
      <trkpt lat="42.9565504286838" lon="-4.88374111243047">
        <ele>1295.08626937866</ele>
        <time>2018-09-02T13:28:11Z</time>
      </trkpt>
      <trkpt lat="42.9565725149987" lon="-4.8836846184031">
        <ele>1295.05758285522</ele>
        <time>2018-09-02T13:28:13Z</time>
      </trkpt>
      <trkpt lat="42.9565991275413" lon="-4.88363038748958">
        <ele>1295.13497543335</ele>
        <time>2018-09-02T13:28:15Z</time>
      </trkpt>
      <trkpt lat="42.9566259915409" lon="-4.88357079215803">
        <ele>1296.19820785522</ele>
        <time>2018-09-02T13:28:17Z</time>
      </trkpt>
      <trkpt lat="42.9566495446888" lon="-4.88350247964718">
        <ele>1297.31869125366</ele>
        <time>2018-09-02T13:28:19Z</time>
      </trkpt>
      <trkpt lat="42.9566724272845" lon="-4.88343358040311">
        <ele>1297.80550765991</ele>
        <time>2018-09-02T13:28:21Z</time>
      </trkpt>
      <trkpt lat="42.9566974053559" lon="-4.88337130286254">
        <ele>1299.01107406616</ele>
        <time>2018-09-02T13:28:23Z</time>
      </trkpt>
      <trkpt lat="42.9567205813182" lon="-4.88330684602715">
        <ele>1298.4215965271</ele>
        <time>2018-09-02T13:28:25Z</time>
      </trkpt>
      <trkpt lat="42.9567382252244" lon="-4.88323928788759">
        <ele>1299.86056137085</ele>
        <time>2018-09-02T13:28:27Z</time>
      </trkpt>
      <trkpt lat="42.9567616945533" lon="-4.88317608833768">
        <ele>1301.96737289429</ele>
        <time>2018-09-02T13:28:29Z</time>
      </trkpt>
      <trkpt lat="42.956788726191" lon="-4.88312437199511">
        <ele>1302.8044090271</ele>
        <time>2018-09-02T13:28:31Z</time>
      </trkpt>
      <trkpt lat="42.9568235110892" lon="-4.88306678832032">
        <ele>1303.55123519897</ele>
        <time>2018-09-02T13:28:34Z</time>
      </trkpt>
      <trkpt lat="42.9568523448361" lon="-4.88300920464553">
        <ele>1305.65450668335</ele>
        <time>2018-09-02T13:28:37Z</time>
      </trkpt>
      <trkpt lat="42.9568835674254" lon="-4.88295086659946">
        <ele>1307.00973129272</ele>
        <time>2018-09-02T13:28:40Z</time>
      </trkpt>
      <trkpt lat="42.9569181846855" lon="-4.88289051689662">
        <ele>1308.8141746521</ele>
        <time>2018-09-02T13:28:43Z</time>
      </trkpt>
      <trkpt lat="42.9569467250658" lon="-4.8828262276993">
        <ele>1309.57406234741</ele>
        <time>2018-09-02T13:28:46Z</time>
      </trkpt>
      <trkpt lat="42.956972415599" lon="-4.88276395015873">
        <ele>1310.20003890991</ele>
        <time>2018-09-02T13:28:49Z</time>
      </trkpt>
      <trkpt lat="42.9569922807095" lon="-4.882688010116">
        <ele>1309.74081039429</ele>
        <time>2018-09-02T13:28:52Z</time>
      </trkpt>
      <trkpt lat="42.9570046859262" lon="-4.88259740174271">
        <ele>1310.34945297241</ele>
        <time>2018-09-02T13:28:55Z</time>
      </trkpt>
      <trkpt lat="42.9570066556735" lon="-4.88253026269831">
        <ele>1309.90755844116</ele>
        <time>2018-09-02T13:28:57Z</time>
      </trkpt>
      <trkpt lat="42.9570007045222" lon="-4.88245323300816">
        <ele>1307.71395492554</ele>
        <time>2018-09-02T13:28:59Z</time>
      </trkpt>
      <trkpt lat="42.9569960525659" lon="-4.88238181919314">
        <ele>1307.52621078491</ele>
        <time>2018-09-02T13:29:01Z</time>
      </trkpt>
      <trkpt lat="42.956985575187" lon="-4.88232054748096">
        <ele>1306.00912094116</ele>
        <time>2018-09-02T13:29:03Z</time>
      </trkpt>
      <trkpt lat="42.9569686018331" lon="-4.88226229325392">
        <ele>1306.61898422241</ele>
        <time>2018-09-02T13:29:05Z</time>
      </trkpt>
      <trkpt lat="42.9569457611469" lon="-4.88218434155442">
        <ele>1308.35165023804</ele>
        <time>2018-09-02T13:29:08Z</time>
      </trkpt>
      <trkpt lat="42.9569202801613" lon="-4.88210999407329">
        <ele>1308.56185531616</ele>
        <time>2018-09-02T13:29:11Z</time>
      </trkpt>
      <trkpt lat="42.9568949668137" lon="-4.8820402566389">
        <ele>1308.34530258179</ele>
        <time>2018-09-02T13:29:14Z</time>
      </trkpt>
      <trkpt lat="42.9568763170791" lon="-4.88195467740752">
        <ele>1308.55526351929</ele>
        <time>2018-09-02T13:29:17Z</time>
      </trkpt>
      <trkpt lat="42.9568598885489" lon="-4.88189524971403">
        <ele>1309.9323387146</ele>
        <time>2018-09-02T13:29:19Z</time>
      </trkpt>
      <trkpt lat="42.9568334017349" lon="-4.88182366826095">
        <ele>1308.48324203491</ele>
        <time>2018-09-02T13:29:22Z</time>
      </trkpt>
      <trkpt lat="42.9567983234701" lon="-4.88176960498549">
        <ele>1309.25436019897</ele>
        <time>2018-09-02T13:29:25Z</time>
      </trkpt>
      <trkpt lat="42.9567683581663" lon="-4.88170263357915">
        <ele>1307.88228988647</ele>
        <time>2018-09-02T13:29:28Z</time>
      </trkpt>
      <trkpt lat="42.9567427933616" lon="-4.88163474016346">
        <ele>1309.19369125366</ele>
        <time>2018-09-02T13:29:31Z</time>
      </trkpt>
      <trkpt lat="42.9567210004134" lon="-4.88156852312841">
        <ele>1312.08968734741</ele>
        <time>2018-09-02T13:29:34Z</time>
      </trkpt>
      <trkpt lat="42.9567098524821" lon="-4.88149937242724">
        <ele>1312.40084457397</ele>
        <time>2018-09-02T13:29:37Z</time>
      </trkpt>
      <trkpt lat="42.9567048233402" lon="-4.88141580485262">
        <ele>1311.80428695679</ele>
        <time>2018-09-02T13:29:40Z</time>
      </trkpt>
      <trkpt lat="42.9566938430471" lon="-4.88133676350571">
        <ele>1314.12301254272</ele>
        <time>2018-09-02T13:29:43Z</time>
      </trkpt>
      <trkpt lat="42.9566615727199" lon="-4.88127565943159">
        <ele>1313.44662094116</ele>
        <time>2018-09-02T13:29:46Z</time>
      </trkpt>
      <trkpt lat="42.9566110717533" lon="-4.88123693503894">
        <ele>1313.78463363647</ele>
        <time>2018-09-02T13:29:49Z</time>
      </trkpt>
      <trkpt lat="42.9565567570207" lon="-4.88122201525129">
        <ele>1314.62435531616</ele>
        <time>2018-09-02T13:29:52Z</time>
      </trkpt>
      <trkpt lat="42.956513799767" lon="-4.8811905831144">
        <ele>1316.6198387146</ele>
        <time>2018-09-02T13:29:55Z</time>
      </trkpt>
      <trkpt lat="42.9564765002979" lon="-4.88114758395113">
        <ele>1316.92171859741</ele>
        <time>2018-09-02T13:29:58Z</time>
      </trkpt>
      <trkpt lat="42.9564376920862" lon="-4.88110014237918">
        <ele>1317.27450180054</ele>
        <time>2018-09-02T13:30:01Z</time>
      </trkpt>
      <trkpt lat="42.9564032424641" lon="-4.88105152734079">
        <ele>1317.65975570679</ele>
        <time>2018-09-02T13:30:04Z</time>
      </trkpt>
      <trkpt lat="42.9563716845987" lon="-4.88098430447735">
        <ele>1318.59908676147</ele>
        <time>2018-09-02T13:30:07Z</time>
      </trkpt>
      <trkpt lat="42.9563335469393" lon="-4.88091917708971">
        <ele>1319.99813461304</ele>
        <time>2018-09-02T13:30:10Z</time>
      </trkpt>
      <trkpt lat="42.9562920984281" lon="-4.88087123260357">
        <ele>1323.03841781616</ele>
        <time>2018-09-02T13:30:13Z</time>
      </trkpt>
      <trkpt lat="42.9562584031773" lon="-4.88082597032644">
        <ele>1322.2985496521</ele>
        <time>2018-09-02T13:30:16Z</time>
      </trkpt>
      <trkpt lat="42.9562174156708" lon="-4.88077576272644">
        <ele>1323.50436019897</ele>
        <time>2018-09-02T13:30:19Z</time>
      </trkpt>
      <trkpt lat="42.9561809963015" lon="-4.88072413020291">
        <ele>1325.31356430054</ele>
        <time>2018-09-02T13:30:22Z</time>
      </trkpt>
      <trkpt lat="42.9561442416561" lon="-4.88067903556384">
        <ele>1326.8415184021</ele>
        <time>2018-09-02T13:30:25Z</time>
      </trkpt>
      <trkpt lat="42.9561115103242" lon="-4.88061851822294">
        <ele>1325.40316390991</ele>
        <time>2018-09-02T13:30:29Z</time>
      </trkpt>
      <trkpt lat="42.9560770187927" lon="-4.88055347465433">
        <ele>1327.71725082397</ele>
        <time>2018-09-02T13:30:33Z</time>
      </trkpt>
      <trkpt lat="42.9560471373079" lon="-4.88049555570342">
        <ele>1329.51168441772</ele>
        <time>2018-09-02T13:30:36Z</time>
      </trkpt>
      <trkpt lat="42.9560216563222" lon="-4.88044501282729">
        <ele>1330.0876121521</ele>
        <time>2018-09-02T13:30:39Z</time>
      </trkpt>
      <trkpt lat="42.9559842730341" lon="-4.88038332201995">
        <ele>1331.86568832397</ele>
        <time>2018-09-02T13:30:43Z</time>
      </trkpt>
      <trkpt lat="42.9559502005977" lon="-4.88033210859157">
        <ele>1334.03475570679</ele>
        <time>2018-09-02T13:30:46Z</time>
      </trkpt>
      <trkpt lat="42.9559175111753" lon="-4.88028206862964">
        <ele>1333.7741355896</ele>
        <time>2018-09-02T13:30:49Z</time>
      </trkpt>
      <trkpt lat="42.9558899347139" lon="-4.88022649661161">
        <ele>1335.41878890991</ele>
        <time>2018-09-02T13:30:52Z</time>
      </trkpt>
      <trkpt lat="42.9558578739343" lon="-4.88016505726136">
        <ele>1336.7243309021</ele>
        <time>2018-09-02T13:30:55Z</time>
      </trkpt>
      <trkpt lat="42.9558301717443" lon="-4.88010956906237">
        <ele>1337.23006820679</ele>
        <time>2018-09-02T13:30:58Z</time>
      </trkpt>
      <trkpt lat="42.9558019666401" lon="-4.88005525432982">
        <ele>1337.28268051147</ele>
        <time>2018-09-02T13:31:01Z</time>
      </trkpt>
      <trkpt lat="42.9557689419416" lon="-4.88000337034918">
        <ele>1338.77816390991</ele>
        <time>2018-09-02T13:31:04Z</time>
      </trkpt>
      <trkpt lat="42.9557259008688" lon="-4.87993983552314">
        <ele>1339.06722640991</ele>
        <time>2018-09-02T13:31:07Z</time>
      </trkpt>
      <trkpt lat="42.9556912416992" lon="-4.87989784218825">
        <ele>1339.09408187866</ele>
        <time>2018-09-02T13:31:09Z</time>
      </trkpt>
      <trkpt lat="42.9556350410385" lon="-4.87985903397657">
        <ele>1339.64803695679</ele>
        <time>2018-09-02T13:31:12Z</time>
      </trkpt>
      <trkpt lat="42.9555813130391" lon="-4.87985434011079">
        <ele>1339.40731430054</ele>
        <time>2018-09-02T13:31:15Z</time>
      </trkpt>
      <trkpt lat="42.9555300577012" lon="-4.8798834253148">
        <ele>1340.87606430054</ele>
        <time>2018-09-02T13:31:18Z</time>
      </trkpt>
      <trkpt lat="42.9554841667814" lon="-4.87989515997924">
        <ele>1342.13241195679</ele>
        <time>2018-09-02T13:31:21Z</time>
      </trkpt>
      <trkpt lat="42.955426457378" lon="-4.87988233566739">
        <ele>1342.31197738647</ele>
        <time>2018-09-02T13:31:24Z</time>
      </trkpt>
      <trkpt lat="42.9553741962118" lon="-4.87987278029777">
        <ele>1343.58248519897</ele>
        <time>2018-09-02T13:31:27Z</time>
      </trkpt>
      <trkpt lat="42.9553200072078" lon="-4.87986590713717">
        <ele>1344.72652816772</ele>
        <time>2018-09-02T13:31:30Z</time>
      </trkpt>
      <trkpt lat="42.9552671593083" lon="-4.87988200039126">
        <ele>1346.50924301147</ele>
        <time>2018-09-02T13:31:34Z</time>
      </trkpt>
      <trkpt lat="42.9552047141296" lon="-4.87987328321196">
        <ele>1346.08639144897</ele>
        <time>2018-09-02T13:31:38Z</time>
      </trkpt>
      <trkpt lat="42.9551487230164" lon="-4.87985182553984">
        <ele>1348.86458969116</ele>
        <time>2018-09-02T13:31:41Z</time>
      </trkpt>
      <trkpt lat="42.9550998146114" lon="-4.87982592545904">
        <ele>1348.66707992554</ele>
        <time>2018-09-02T13:31:44Z</time>
      </trkpt>
      <trkpt lat="42.9550428176699" lon="-4.87979801372148">
        <ele>1348.97750473022</ele>
        <time>2018-09-02T13:31:47Z</time>
      </trkpt>
      <trkpt lat="42.9549844796238" lon="-4.87976498902299">
        <ele>1349.50387191772</ele>
        <time>2018-09-02T13:31:50Z</time>
      </trkpt>
      <trkpt lat="42.9549232498211" lon="-4.87973623909511">
        <ele>1350.1305809021</ele>
        <time>2018-09-02T13:31:53Z</time>
      </trkpt>
      <trkpt lat="42.9548632353944" lon="-4.87970966846205">
        <ele>1350.5475730896</ele>
        <time>2018-09-02T13:31:56Z</time>
      </trkpt>
      <trkpt lat="42.9548152070893" lon="-4.87967538647808">
        <ele>1351.94649887085</ele>
        <time>2018-09-02T13:31:59Z</time>
      </trkpt>
      <trkpt lat="42.954769525717" lon="-4.87962534651615">
        <ele>1352.36751937866</ele>
        <time>2018-09-02T13:32:02Z</time>
      </trkpt>
      <trkpt lat="42.9547328548906" lon="-4.87957195379294">
        <ele>1352.39254379272</ele>
        <time>2018-09-02T13:32:05Z</time>
      </trkpt>
      <trkpt lat="42.9546932923076" lon="-4.87951302901365">
        <ele>1353.59005355835</ele>
        <time>2018-09-02T13:32:09Z</time>
      </trkpt>
      <trkpt lat="42.9546673922268" lon="-4.87945921719529">
        <ele>1353.51949691772</ele>
        <time>2018-09-02T13:32:12Z</time>
      </trkpt>
      <trkpt lat="42.9546309728575" lon="-4.87940230407275">
        <ele>1355.8883934021</ele>
        <time>2018-09-02T13:32:16Z</time>
      </trkpt>
      <trkpt lat="42.9546041926769" lon="-4.87935209647275">
        <ele>1360.53670883179</ele>
        <time>2018-09-02T13:32:19Z</time>
      </trkpt>
      <trkpt lat="42.9545774124963" lon="-4.87929635681666">
        <ele>1360.52267074585</ele>
        <time>2018-09-02T13:32:22Z</time>
      </trkpt>
      <trkpt lat="42.9545495845777" lon="-4.879233827819">
        <ele>1361.96444320679</ele>
        <time>2018-09-02T13:32:26Z</time>
      </trkpt>
      <trkpt lat="42.954515805508" lon="-4.87918303348578">
        <ele>1361.80221176147</ele>
        <time>2018-09-02T13:32:30Z</time>
      </trkpt>
      <trkpt lat="42.9544931324599" lon="-4.8791251983539">
        <ele>1363.0241355896</ele>
        <time>2018-09-02T13:32:33Z</time>
      </trkpt>
      <trkpt lat="42.9544705432308" lon="-4.87905512564339">
        <ele>1364.0954246521</ele>
        <time>2018-09-02T13:32:37Z</time>
      </trkpt>
      <trkpt lat="42.95445503671" lon="-4.87898681313254">
        <ele>1365.73775863647</ele>
        <time>2018-09-02T13:32:41Z</time>
      </trkpt>
      <trkpt lat="42.9544347525043" lon="-4.87893107347645">
        <ele>1364.33846664429</ele>
        <time>2018-09-02T13:32:44Z</time>
      </trkpt>
      <trkpt lat="42.9544160189507" lon="-4.87887240015425">
        <ele>1366.5729637146</ele>
        <time>2018-09-02T13:32:47Z</time>
      </trkpt>
      <trkpt lat="42.9543959442926" lon="-4.87880702130951">
        <ele>1367.03670883179</ele>
        <time>2018-09-02T13:32:51Z</time>
      </trkpt>
      <trkpt lat="42.9543799348576" lon="-4.87874499522604">
        <ele>1367.58297348022</ele>
        <time>2018-09-02T13:32:55Z</time>
      </trkpt>
      <trkpt lat="42.9543646797938" lon="-4.87867567688681">
        <ele>1368.22542953491</ele>
        <time>2018-09-02T13:32:59Z</time>
      </trkpt>
      <trkpt lat="42.9543535318626" lon="-4.87861264497496">
        <ele>1369.98128890991</ele>
        <time>2018-09-02T13:33:03Z</time>
      </trkpt>
      <trkpt lat="42.9543382348893" lon="-4.87855321728147">
        <ele>1369.79781723022</ele>
        <time>2018-09-02T13:33:07Z</time>
      </trkpt>
      <trkpt lat="42.9543257877631" lon="-4.87848876044608">
        <ele>1371.00472640991</ele>
        <time>2018-09-02T13:33:11Z</time>
      </trkpt>
      <trkpt lat="42.9543169029457" lon="-4.87842799164809">
        <ele>1372.28426742554</ele>
        <time>2018-09-02T13:33:15Z</time>
      </trkpt>
      <trkpt lat="42.9543172801313" lon="-4.8783582542137">
        <ele>1373.14303207397</ele>
        <time>2018-09-02T13:33:19Z</time>
      </trkpt>
      <trkpt lat="42.9543062579287" lon="-4.8782808054284">
        <ele>1375.0231590271</ele>
        <time>2018-09-02T13:33:23Z</time>
      </trkpt>
      <trkpt lat="42.9543070123" lon="-4.87821240909852">
        <ele>1375.53805160522</ele>
        <time>2018-09-02T13:33:27Z</time>
      </trkpt>
      <trkpt lat="42.9543012706963" lon="-4.87813621759869">
        <ele>1376.05807113647</ele>
        <time>2018-09-02T13:33:31Z</time>
      </trkpt>
      <trkpt lat="42.9542814474953" lon="-4.87807343714393">
        <ele>1375.61471176147</ele>
        <time>2018-09-02T13:33:35Z</time>
      </trkpt>
      <trkpt lat="42.9542674916265" lon="-4.87801065668918">
        <ele>1376.13509750366</ele>
        <time>2018-09-02T13:33:39Z</time>
      </trkpt>
      <trkpt lat="42.9542578943474" lon="-4.87794024870254">
        <ele>1378.05965805054</ele>
        <time>2018-09-02T13:33:43Z</time>
      </trkpt>
      <trkpt lat="42.9542481294302" lon="-4.87787310965814">
        <ele>1378.9704246521</ele>
        <time>2018-09-02T13:33:47Z</time>
      </trkpt>
      <trkpt lat="42.9542415915457" lon="-4.87780286930956">
        <ele>1380.57308578491</ele>
        <time>2018-09-02T13:33:51Z</time>
      </trkpt>
      <trkpt lat="42.9542379454178" lon="-4.87772424705781">
        <ele>1382.90365219116</ele>
        <time>2018-09-02T13:33:55Z</time>
      </trkpt>
      <trkpt lat="42.9542319942666" lon="-4.87764855847217">
        <ele>1384.35140609741</ele>
        <time>2018-09-02T13:33:59Z</time>
      </trkpt>
      <trkpt lat="42.9542283062292" lon="-4.87756842747785">
        <ele>1385.53939437866</ele>
        <time>2018-09-02T13:34:03Z</time>
      </trkpt>
      <trkpt lat="42.9542197566879" lon="-4.87748662010289">
        <ele>1387.11446762085</ele>
        <time>2018-09-02T13:34:07Z</time>
      </trkpt>
      <trkpt lat="42.954210578504" lon="-4.87742040306784">
        <ele>1388.06698226929</ele>
        <time>2018-09-02T13:34:10Z</time>
      </trkpt>
      <trkpt lat="42.9542036634339" lon="-4.8773552756802">
        <ele>1389.7145652771</ele>
        <time>2018-09-02T13:34:13Z</time>
      </trkpt>
      <trkpt lat="42.9541938146976" lon="-4.87727221101977">
        <ele>1390.28707504272</ele>
        <time>2018-09-02T13:34:17Z</time>
      </trkpt>
      <trkpt lat="42.9541811999334" lon="-4.87720616162277">
        <ele>1390.40707015991</ele>
        <time>2018-09-02T13:34:20Z</time>
      </trkpt>
      <trkpt lat="42.9541622987417" lon="-4.87713323906518">
        <ele>1391.5026512146</ele>
        <time>2018-09-02T13:34:24Z</time>
      </trkpt>
      <trkpt lat="42.9541527433721" lon="-4.87706375308789">
        <ele>1392.53658676147</ele>
        <time>2018-09-02T13:34:27Z</time>
      </trkpt>
      <trkpt lat="42.9541416373504" lon="-4.87699627876736">
        <ele>1393.27035140991</ele>
        <time>2018-09-02T13:34:30Z</time>
      </trkpt>
      <trkpt lat="42.9541278910292" lon="-4.8769284691707">
        <ele>1393.60311508179</ele>
        <time>2018-09-02T13:34:33Z</time>
      </trkpt>
      <trkpt lat="42.9541110014943" lon="-4.87685931846954">
        <ele>1395.15829086304</ele>
        <time>2018-09-02T13:34:36Z</time>
      </trkpt>
      <trkpt lat="42.9540965846208" lon="-4.87678379752196">
        <ele>1395.54183578491</ele>
        <time>2018-09-02T13:34:39Z</time>
      </trkpt>
      <trkpt lat="42.9540771386055" lon="-4.87671053968824">
        <ele>1396.40353012085</ele>
        <time>2018-09-02T13:34:42Z</time>
      </trkpt>
      <trkpt lat="42.9540542141003" lon="-4.87663971260644">
        <ele>1397.33980941772</ele>
        <time>2018-09-02T13:34:45Z</time>
      </trkpt>
      <trkpt lat="42.9540208960352" lon="-4.87657165155269">
        <ele>1398.70760726929</ele>
        <time>2018-09-02T13:34:48Z</time>
      </trkpt>
      <trkpt lat="42.9539903020886" lon="-4.87650769763149">
        <ele>1399.29183578491</ele>
        <time>2018-09-02T13:34:51Z</time>
      </trkpt>
      <trkpt lat="42.9539619293464" lon="-4.87643846311129">
        <ele>1398.23141098022</ele>
        <time>2018-09-02T13:34:54Z</time>
      </trkpt>
      <trkpt lat="42.9539364064512" lon="-4.8763692285911">
        <ele>1397.66891098022</ele>
        <time>2018-09-02T13:34:57Z</time>
      </trkpt>
      <trkpt lat="42.9539126856653" lon="-4.87629161216773">
        <ele>1398.25521469116</ele>
        <time>2018-09-02T13:35:00Z</time>
      </trkpt>
      <trkpt lat="42.9538847320182" lon="-4.87623847090162">
        <ele>1399.33443832397</ele>
        <time>2018-09-02T13:35:03Z</time>
      </trkpt>
      <trkpt lat="42.9538554372666" lon="-4.87617040984787">
        <ele>1400.95455551147</ele>
        <time>2018-09-02T13:35:06Z</time>
      </trkpt>
      <trkpt lat="42.9538360750703" lon="-4.87611014396406">
        <ele>1402.44051742554</ele>
        <time>2018-09-02T13:35:09Z</time>
      </trkpt>
      <trkpt lat="42.9538120190082" lon="-4.87605507486023">
        <ele>1402.85079574585</ele>
        <time>2018-09-02T13:35:12Z</time>
      </trkpt>
      <trkpt lat="42.9537980631394" lon="-4.87597963773168">
        <ele>1404.85152816772</ele>
        <time>2018-09-02T13:35:15Z</time>
      </trkpt>
      <trkpt lat="42.95378502928" lon="-4.87592096440948">
        <ele>1406.88595199585</ele>
        <time>2018-09-02T13:35:18Z</time>
      </trkpt>
      <trkpt lat="42.9537731269775" lon="-4.87585424446024">
        <ele>1407.88338851929</ele>
        <time>2018-09-02T13:35:21Z</time>
      </trkpt>
      <trkpt lat="42.953748148906" lon="-4.87578559667326">
        <ele>1408.56991195679</ele>
        <time>2018-09-02T13:35:24Z</time>
      </trkpt>
      <trkpt lat="42.9537150403885" lon="-4.87573002465523">
        <ele>1408.73153305054</ele>
        <time>2018-09-02T13:35:27Z</time>
      </trkpt>
      <trkpt lat="42.9536894336743" lon="-4.87567319535173">
        <ele>1410.64437484741</ele>
        <time>2018-09-02T13:35:30Z</time>
      </trkpt>
      <trkpt lat="42.9536653776122" lon="-4.87561661750532">
        <ele>1412.34139633179</ele>
        <time>2018-09-02T13:35:33Z</time>
      </trkpt>
      <trkpt lat="42.953640986274" lon="-4.87555484287895">
        <ele>1412.89046859741</ele>
        <time>2018-09-02T13:35:36Z</time>
      </trkpt>
      <trkpt lat="42.9536176007641" lon="-4.8754918109671">
        <ele>1412.19710922241</ele>
        <time>2018-09-02T13:35:39Z</time>
      </trkpt>
      <trkpt lat="42.9535955144492" lon="-4.87542458810366">
        <ele>1411.86190414429</ele>
        <time>2018-09-02T13:35:42Z</time>
      </trkpt>
      <trkpt lat="42.9535735538629" lon="-4.87535845488764">
        <ele>1412.54867172241</ele>
        <time>2018-09-02T13:35:45Z</time>
      </trkpt>
      <trkpt lat="42.9535514256386" lon="-4.87529341131903">
        <ele>1413.47225570679</ele>
        <time>2018-09-02T13:35:48Z</time>
      </trkpt>
      <trkpt lat="42.9535337398229" lon="-4.87522702664591">
        <ele>1413.9206199646</ele>
        <time>2018-09-02T13:35:51Z</time>
      </trkpt>
      <trkpt lat="42.9535181913925" lon="-4.87515795976378">
        <ele>1414.33114242554</ele>
        <time>2018-09-02T13:35:54Z</time>
      </trkpt>
      <trkpt lat="42.9535085522038" lon="-4.87508495338715">
        <ele>1415.90572738647</ele>
        <time>2018-09-02T13:35:58Z</time>
      </trkpt>
      <trkpt lat="42.9535070853708" lon="-4.87502091564692">
        <ele>1417.55550765991</ele>
        <time>2018-09-02T13:36:01Z</time>
      </trkpt>
      <trkpt lat="42.953508971299" lon="-4.87495394424058">
        <ele>1419.64510726929</ele>
        <time>2018-09-02T13:36:04Z</time>
      </trkpt>
      <trkpt lat="42.9535166407404" lon="-4.87488035113073">
        <ele>1422.16695785522</ele>
        <time>2018-09-02T13:36:07Z</time>
      </trkpt>
      <trkpt lat="42.9535178142068" lon="-4.87481379881955">
        <ele>1423.01705551147</ele>
        <time>2018-09-02T13:36:10Z</time>
      </trkpt>
      <trkpt lat="42.9535087198419" lon="-4.874748922889">
        <ele>1422.19527816772</ele>
        <time>2018-09-02T13:36:13Z</time>
      </trkpt>
      <trkpt lat="42.9534945963351" lon="-4.87468186766363">
        <ele>1421.76449203491</ele>
        <time>2018-09-02T13:36:16Z</time>
      </trkpt>
      <trkpt lat="42.9534840770466" lon="-4.87461003475345">
        <ele>1422.19930648804</ele>
        <time>2018-09-02T13:36:19Z</time>
      </trkpt>
      <trkpt lat="42.9534754436863" lon="-4.87453920767165">
        <ele>1423.11800765991</ele>
        <time>2018-09-02T13:36:22Z</time>
      </trkpt>
      <trkpt lat="42.9534669360546" lon="-4.87445941195346">
        <ele>1421.33871078491</ele>
        <time>2018-09-02T13:36:26Z</time>
      </trkpt>
      <trkpt lat="42.9534593085227" lon="-4.87439612858451">
        <ele>1421.7184715271</ele>
        <time>2018-09-02T13:36:29Z</time>
      </trkpt>
      <trkpt lat="42.9534474900392" lon="-4.87432932481624">
        <ele>1421.86507797241</ele>
        <time>2018-09-02T13:36:32Z</time>
      </trkpt>
      <trkpt lat="42.9534333246229" lon="-4.87426101230539">
        <ele>1421.79439926147</ele>
        <time>2018-09-02T13:36:35Z</time>
      </trkpt>
      <trkpt lat="42.9534185305638" lon="-4.87418850884295">
        <ele>1422.97762680054</ele>
        <time>2018-09-02T13:36:38Z</time>
      </trkpt>
      <trkpt lat="42.9534008447481" lon="-4.87411851995147">
        <ele>1424.85274887085</ele>
        <time>2018-09-02T13:36:41Z</time>
      </trkpt>
      <trkpt lat="42.9533813987327" lon="-4.87404945306934">
        <ele>1425.0426902771</ele>
        <time>2018-09-02T13:36:44Z</time>
      </trkpt>
      <trkpt lat="42.9533659760309" lon="-4.87398181111074">
        <ele>1425.49496078491</ele>
        <time>2018-09-02T13:36:47Z</time>
      </trkpt>
      <trkpt lat="42.9533402435882" lon="-4.87391777337051">
        <ele>1426.53817367554</ele>
        <time>2018-09-02T13:36:50Z</time>
      </trkpt>
      <trkpt lat="42.9533251561624" lon="-4.8738545738206">
        <ele>1426.63717269897</ele>
        <time>2018-09-02T13:36:53Z</time>
      </trkpt>
      <trkpt lat="42.9533160617975" lon="-4.87378500402428">
        <ele>1427.41353988647</ele>
        <time>2018-09-02T13:36:56Z</time>
      </trkpt>
      <trkpt lat="42.9533090209988" lon="-4.87371803261794">
        <ele>1428.41695785522</ele>
        <time>2018-09-02T13:36:59Z</time>
      </trkpt>
      <trkpt lat="42.9533156427023" lon="-4.87364343367971">
        <ele>1429.16549301147</ele>
        <time>2018-09-02T13:37:02Z</time>
      </trkpt>
      <trkpt lat="42.9533340828893" lon="-4.87356707454182">
        <ele>1429.44100570679</ele>
        <time>2018-09-02T13:37:06Z</time>
      </trkpt>
      <trkpt lat="42.9533564625708" lon="-4.87350747921027">
        <ele>1430.78072738647</ele>
        <time>2018-09-02T13:37:09Z</time>
      </trkpt>
      <trkpt lat="42.9533829912943" lon="-4.87344310619391">
        <ele>1431.7321434021</ele>
        <time>2018-09-02T13:37:12Z</time>
      </trkpt>
      <trkpt lat="42.9534044070569" lon="-4.87338267267204">
        <ele>1432.97213363647</ele>
        <time>2018-09-02T13:37:15Z</time>
      </trkpt>
      <trkpt lat="42.9534240626199" lon="-4.87332718447305">
        <ele>1434.40536117554</ele>
        <time>2018-09-02T13:37:18Z</time>
      </trkpt>
      <trkpt lat="42.9534427123544" lon="-4.87327069044567">
        <ele>1435.45931625366</ele>
        <time>2018-09-02T13:37:21Z</time>
      </trkpt>
      <trkpt lat="42.9534590151561" lon="-4.87320790999092">
        <ele>1436.7790184021</ele>
        <time>2018-09-02T13:37:24Z</time>
      </trkpt>
      <trkpt lat="42.9534688638923" lon="-4.87314730883099">
        <ele>1436.96981430054</ele>
        <time>2018-09-02T13:37:27Z</time>
      </trkpt>
      <trkpt lat="42.9534676904259" lon="-4.87307623029209">
        <ele>1436.81283187866</ele>
        <time>2018-09-02T13:37:30Z</time>
      </trkpt>
      <trkpt lat="42.9534608172653" lon="-4.87300272100128">
        <ele>1437.50094223022</ele>
        <time>2018-09-02T13:37:33Z</time>
      </trkpt>
      <trkpt lat="42.9534477834058" lon="-4.87292896025337">
        <ele>1437.74959945679</ele>
        <time>2018-09-02T13:37:36Z</time>
      </trkpt>
      <trkpt lat="42.9534304747758" lon="-4.87284983508743">
        <ele>1437.84286117554</ele>
        <time>2018-09-02T13:37:39Z</time>
      </trkpt>
      <trkpt lat="42.9534120764983" lon="-4.87276928499795">
        <ele>1439.47567367554</ele>
        <time>2018-09-02T13:37:42Z</time>
      </trkpt>
      <trkpt lat="42.9533983301771" lon="-4.87269007601298">
        <ele>1440.71480941772</ele>
        <time>2018-09-02T13:37:45Z</time>
      </trkpt>
      <trkpt lat="42.9533919599307" lon="-4.87261665054119">
        <ele>1441.20211410522</ele>
        <time>2018-09-02T13:37:48Z</time>
      </trkpt>
      <trkpt lat="42.9533896129978" lon="-4.87254280597425">
        <ele>1441.54684066772</ele>
        <time>2018-09-02T13:37:51Z</time>
      </trkpt>
      <trkpt lat="42.9533864278746" lon="-4.8724694643215">
        <ele>1442.40755844116</ele>
        <time>2018-09-02T13:37:54Z</time>
      </trkpt>
      <trkpt lat="42.9533873079745" lon="-4.87239570357359">
        <ele>1443.53182601929</ele>
        <time>2018-09-02T13:37:57Z</time>
      </trkpt>
      <trkpt lat="42.9533968214346" lon="-4.87231096253253">
        <ele>1444.75887680054</ele>
        <time>2018-09-02T13:38:00Z</time>
      </trkpt>
      <trkpt lat="42.9534026887668" lon="-4.87222823314822">
        <ele>1445.49349594116</ele>
        <time>2018-09-02T13:38:03Z</time>
      </trkpt>
      <trkpt lat="42.9534088075561" lon="-4.87215070054389">
        <ele>1446.08492660522</ele>
        <time>2018-09-02T13:38:06Z</time>
      </trkpt>
      <trkpt lat="42.9534129565982" lon="-4.87207400612987">
        <ele>1446.29305648804</ele>
        <time>2018-09-02T13:38:09Z</time>
      </trkpt>
      <trkpt lat="42.9534148844359" lon="-4.87200175412453">
        <ele>1447.23861312866</ele>
        <time>2018-09-02T13:38:12Z</time>
      </trkpt>
      <trkpt lat="42.9534114897651" lon="-4.87192564644373">
        <ele>1448.08480453491</ele>
        <time>2018-09-02T13:38:15Z</time>
      </trkpt>
      <trkpt lat="42.9534100229321" lon="-4.87185666338063">
        <ele>1448.75008773804</ele>
        <time>2018-09-02T13:38:18Z</time>
      </trkpt>
      <trkpt lat="42.9534072988135" lon="-4.87179346383072">
        <ele>1448.76876449585</ele>
        <time>2018-09-02T13:38:22Z</time>
      </trkpt>
      <trkpt lat="42.9533909541023" lon="-4.87171282992221">
        <ele>1448.30880355835</ele>
        <time>2018-09-02T13:38:26Z</time>
      </trkpt>
      <trkpt lat="42.9533657245738" lon="-4.87165566534258">
        <ele>1448.2555809021</ele>
        <time>2018-09-02T13:38:28Z</time>
      </trkpt>
      <trkpt lat="42.9533332027895" lon="-4.87158961594558">
        <ele>1448.06820297241</ele>
        <time>2018-09-02T13:38:30Z</time>
      </trkpt>
      <trkpt lat="42.953304243314" lon="-4.87153463066078">
        <ele>1449.25936508179</ele>
        <time>2018-09-02T13:38:32Z</time>
      </trkpt>
      <trkpt lat="42.9532688716827" lon="-4.87146330066479">
        <ele>1449.1735496521</ele>
        <time>2018-09-02T13:38:35Z</time>
      </trkpt>
      <trkpt lat="42.9532423010496" lon="-4.87139364704943">
        <ele>1450.72750473022</ele>
        <time>2018-09-02T13:38:38Z</time>
      </trkpt>
      <trkpt lat="42.9532343801511" lon="-4.87132441252924">
        <ele>1451.90438461304</ele>
        <time>2018-09-02T13:38:41Z</time>
      </trkpt>
      <trkpt lat="42.9532372299982" lon="-4.87126096152223">
        <ele>1452.51571273804</ele>
        <time>2018-09-02T13:38:44Z</time>
      </trkpt>
      <trkpt lat="42.9532458633584" lon="-4.87119767815328">
        <ele>1452.88961410522</ele>
        <time>2018-09-02T13:38:47Z</time>
      </trkpt>
      <trkpt lat="42.9532559216423" lon="-4.87112886272824">
        <ele>1453.60921859741</ele>
        <time>2018-09-02T13:38:50Z</time>
      </trkpt>
      <trkpt lat="42.9532639263598" lon="-4.87106423825479">
        <ele>1454.2585105896</ele>
        <time>2018-09-02T13:38:53Z</time>
      </trkpt>
      <trkpt lat="42.9532696260539" lon="-4.8710000328765">
        <ele>1455.86812973022</ele>
        <time>2018-09-02T13:38:56Z</time>
      </trkpt>
      <trkpt lat="42.9532765830336" lon="-4.87093649805046">
        <ele>1456.01717758179</ele>
        <time>2018-09-02T13:38:59Z</time>
      </trkpt>
      <trkpt lat="42.9532865994079" lon="-4.870871873577">
        <ele>1457.72835922241</ele>
        <time>2018-09-02T13:39:02Z</time>
      </trkpt>
      <trkpt lat="42.9532819055421" lon="-4.87080783583677">
        <ele>1458.46249008179</ele>
        <time>2018-09-02T13:39:05Z</time>
      </trkpt>
      <trkpt lat="42.9532245314149" lon="-4.87080423161841">
        <ele>1457.94417953491</ele>
        <time>2018-09-02T13:39:09Z</time>
      </trkpt>
      <trkpt lat="42.9531929316399" lon="-4.87087145448185">
        <ele>1459.36471176147</ele>
        <time>2018-09-02T13:39:12Z</time>
      </trkpt>
      <trkpt lat="42.9531700490443" lon="-4.87094194628752">
        <ele>1461.03963851929</ele>
        <time>2018-09-02T13:39:15Z</time>
      </trkpt>
      <trkpt lat="42.9531464539868" lon="-4.87100682221807">
        <ele>1461.09762191772</ele>
        <time>2018-09-02T13:39:18Z</time>
      </trkpt>
      <trkpt lat="42.9531206796346" lon="-4.87106440589285">
        <ele>1461.01583480835</ele>
        <time>2018-09-02T13:39:21Z</time>
      </trkpt>
      <trkpt lat="42.95308731966" lon="-4.87112291157699">
        <ele>1460.97445297241</ele>
        <time>2018-09-02T13:39:24Z</time>
      </trkpt>
      <trkpt lat="42.9530601622937" lon="-4.87118602730787">
        <ele>1461.25899887085</ele>
        <time>2018-09-02T13:39:27Z</time>
      </trkpt>
      <trkpt lat="42.9530237429244" lon="-4.87125023268617">
        <ele>1460.97579574585</ele>
        <time>2018-09-02T13:39:30Z</time>
      </trkpt>
      <trkpt lat="42.9529891675738" lon="-4.87131334841705">
        <ele>1461.59164047241</ele>
        <time>2018-09-02T13:39:33Z</time>
      </trkpt>
      <trkpt lat="42.9529522871999" lon="-4.87138266675628">
        <ele>1461.74215316772</ele>
        <time>2018-09-02T13:39:36Z</time>
      </trkpt>
      <trkpt lat="42.9529208969725" lon="-4.87143765204108">
        <ele>1462.75814437866</ele>
        <time>2018-09-02T13:39:39Z</time>
      </trkpt>
      <trkpt lat="42.9528881237311" lon="-4.87150386907614">
        <ele>1462.89278793335</ele>
        <time>2018-09-02T13:39:42Z</time>
      </trkpt>
      <trkpt lat="42.9528512433571" lon="-4.87157276832021">
        <ele>1463.16903305054</ele>
        <time>2018-09-02T13:39:45Z</time>
      </trkpt>
      <trkpt lat="42.9528207751391" lon="-4.87164057791687">
        <ele>1462.5817527771</ele>
        <time>2018-09-02T13:39:48Z</time>
      </trkpt>
      <trkpt lat="42.952804765704" lon="-4.87171618268347">
        <ele>1463.46895980835</ele>
        <time>2018-09-02T13:39:51Z</time>
      </trkpt>
      <trkpt lat="42.9527893849117" lon="-4.87179597840167">
        <ele>1464.19002914429</ele>
        <time>2018-09-02T13:39:54Z</time>
      </trkpt>
      <trkpt lat="42.9527801648182" lon="-4.87188030034757">
        <ele>1465.24557113647</ele>
        <time>2018-09-02T13:39:57Z</time>
      </trkpt>
      <trkpt lat="42.9527681786967" lon="-4.87195984460867">
        <ele>1467.50899887085</ele>
        <time>2018-09-02T13:40:00Z</time>
      </trkpt>
      <trkpt lat="42.9527592938793" lon="-4.87204014324105">
        <ele>1468.6833152771</ele>
        <time>2018-09-02T13:40:03Z</time>
      </trkpt>
      <trkpt lat="42.952751875895" lon="-4.87211566418863">
        <ele>1468.48165512085</ele>
        <time>2018-09-02T13:40:06Z</time>
      </trkpt>
      <trkpt lat="42.9527395544974" lon="-4.8721848148898">
        <ele>1468.17220687866</ele>
        <time>2018-09-02T13:40:09Z</time>
      </trkpt>
      <trkpt lat="42.952722790691" lon="-4.87225924618996">
        <ele>1468.5895652771</ele>
        <time>2018-09-02T13:40:12Z</time>
      </trkpt>
      <trkpt lat="42.9527059430657" lon="-4.87233904190815">
        <ele>1467.76559066772</ele>
        <time>2018-09-02T13:40:15Z</time>
      </trkpt>
      <trkpt lat="42.9526906460924" lon="-4.87240877934254">
        <ele>1469.82137680054</ele>
        <time>2018-09-02T13:40:18Z</time>
      </trkpt>
      <trkpt lat="42.952676564495" lon="-4.87248052843369">
        <ele>1470.93880844116</ele>
        <time>2018-09-02T13:40:21Z</time>
      </trkpt>
      <trkpt lat="42.9526515864236" lon="-4.87254180014587">
        <ele>1472.07247543335</ele>
        <time>2018-09-02T13:40:24Z</time>
      </trkpt>
      <trkpt lat="42.9526279075471" lon="-4.87260382622934">
        <ele>1474.25594711304</ele>
        <time>2018-09-02T13:40:27Z</time>
      </trkpt>
      <trkpt lat="42.9526072880653" lon="-4.87266283482767">
        <ele>1474.34310531616</ele>
        <time>2018-09-02T13:40:30Z</time>
      </trkpt>
      <trkpt lat="42.9525815975321" lon="-4.87272268161631">
        <ele>1476.1696434021</ele>
        <time>2018-09-02T13:40:33Z</time>
      </trkpt>
      <trkpt lat="42.9525533505184" lon="-4.87277272157825">
        <ele>1477.90365219116</ele>
        <time>2018-09-02T13:40:36Z</time>
      </trkpt>
      <trkpt lat="42.9525269894329" lon="-4.87282971851981">
        <ele>1478.53902816772</ele>
        <time>2018-09-02T13:40:39Z</time>
      </trkpt>
      <trkpt lat="42.9524922883538" lon="-4.87288587727106">
        <ele>1478.92757797241</ele>
        <time>2018-09-02T13:40:42Z</time>
      </trkpt>
      <trkpt lat="42.9524621554119" lon="-4.87293482758559">
        <ele>1479.25777816772</ele>
        <time>2018-09-02T13:40:45Z</time>
      </trkpt>
      <trkpt lat="42.952425526495" lon="-4.87298469990946">
        <ele>1481.37459945679</ele>
        <time>2018-09-02T13:40:48Z</time>
      </trkpt>
      <trkpt lat="42.9523937171725" lon="-4.87304555252648">
        <ele>1482.34286117554</ele>
        <time>2018-09-02T13:40:51Z</time>
      </trkpt>
      <trkpt lat="42.9523576330794" lon="-4.87310799770511">
        <ele>1483.12252426147</ele>
        <time>2018-09-02T13:40:54Z</time>
      </trkpt>
      <trkpt lat="42.9523246083809" lon="-4.87316432409442">
        <ele>1483.44527816772</ele>
        <time>2018-09-02T13:40:57Z</time>
      </trkpt>
      <trkpt lat="42.9522916255919" lon="-4.87321704626537">
        <ele>1484.9674949646</ele>
        <time>2018-09-02T13:41:00Z</time>
      </trkpt>
      <trkpt lat="42.9522590199885" lon="-4.87326708622731">
        <ele>1484.71859359741</ele>
        <time>2018-09-02T13:41:03Z</time>
      </trkpt>
      <trkpt lat="42.9522204213244" lon="-4.87332299352146">
        <ele>1484.89596176147</ele>
        <time>2018-09-02T13:41:06Z</time>
      </trkpt>
      <trkpt lat="42.9521781346229" lon="-4.87337026745535">
        <ele>1485.32076644897</ele>
        <time>2018-09-02T13:41:09Z</time>
      </trkpt>
      <trkpt lat="42.9521355126453" lon="-4.87342131324566">
        <ele>1485.79415512085</ele>
        <time>2018-09-02T13:41:12Z</time>
      </trkpt>
      <trkpt lat="42.9521007277472" lon="-4.87348333932913">
        <ele>1486.67379379272</ele>
        <time>2018-09-02T13:41:15Z</time>
      </trkpt>
      <trkpt lat="42.952072690281" lon="-4.87355609424866">
        <ele>1486.66561508179</ele>
        <time>2018-09-02T13:41:18Z</time>
      </trkpt>
      <trkpt lat="42.9520590277789" lon="-4.87363530323363">
        <ele>1487.70321273804</ele>
        <time>2018-09-02T13:41:21Z</time>
      </trkpt>
      <trkpt lat="42.9520512745184" lon="-4.87370881252445">
        <ele>1487.61678695679</ele>
        <time>2018-09-02T13:41:24Z</time>
      </trkpt>
      <trkpt lat="42.9520358518166" lon="-4.87378056161559">
        <ele>1487.72738265991</ele>
        <time>2018-09-02T13:41:27Z</time>
      </trkpt>
      <trkpt lat="42.9520272184563" lon="-4.87384895794547">
        <ele>1488.52657699585</ele>
        <time>2018-09-02T13:41:30Z</time>
      </trkpt>
      <trkpt lat="42.9520200938386" lon="-4.87390972674347">
        <ele>1488.71346664429</ele>
        <time>2018-09-02T13:41:33Z</time>
      </trkpt>
      <trkpt lat="42.9520101612834" lon="-4.87397083081759">
        <ele>1489.3610496521</ele>
        <time>2018-09-02T13:41:36Z</time>
      </trkpt>
      <trkpt lat="42.9519942356674" lon="-4.87404509447969">
        <ele>1489.27437973022</ele>
        <time>2018-09-02T13:41:40Z</time>
      </trkpt>
      <trkpt lat="42.9519791901512" lon="-4.87410360016383">
        <ele>1489.82613754272</ele>
        <time>2018-09-02T13:41:43Z</time>
      </trkpt>
      <trkpt lat="42.9519651504634" lon="-4.87416436896182">
        <ele>1490.07857894897</ele>
        <time>2018-09-02T13:41:46Z</time>
      </trkpt>
      <trkpt lat="42.9519517813278" lon="-4.87422622740723">
        <ele>1491.07540512085</ele>
        <time>2018-09-02T13:41:49Z</time>
      </trkpt>
      <trkpt lat="42.9519367777211" lon="-4.87428867258585">
        <ele>1492.19088363647</ele>
        <time>2018-09-02T13:41:52Z</time>
      </trkpt>
      <trkpt lat="42.9519217322049" lon="-4.87435329705931">
        <ele>1491.58907699585</ele>
        <time>2018-09-02T13:41:55Z</time>
      </trkpt>
      <trkpt lat="42.95190744106" lon="-4.87442144193209">
        <ele>1492.13424301147</ele>
        <time>2018-09-02T13:41:58Z</time>
      </trkpt>
      <trkpt lat="42.9518902581585" lon="-4.87448900007165">
        <ele>1493.51351547241</ele>
        <time>2018-09-02T13:42:01Z</time>
      </trkpt>
      <trkpt lat="42.9518773919371" lon="-4.87456116825796">
        <ele>1494.91976547241</ele>
        <time>2018-09-02T13:42:04Z</time>
      </trkpt>
      <trkpt lat="42.9518680461151" lon="-4.87462352961756">
        <ele>1494.93734359741</ele>
        <time>2018-09-02T13:42:07Z</time>
      </trkpt>
      <trkpt lat="42.9518558085365" lon="-4.87468572333909">
        <ele>1495.83724594116</ele>
        <time>2018-09-02T13:42:10Z</time>
      </trkpt>
      <trkpt lat="42.9518429423151" lon="-4.87476116046763">
        <ele>1497.28329086304</ele>
        <time>2018-09-02T13:42:14Z</time>
      </trkpt>
      <trkpt lat="42.9518314171982" lon="-4.87483014353074">
        <ele>1497.98226547241</ele>
        <time>2018-09-02T13:42:18Z</time>
      </trkpt>
      <trkpt lat="42.9518083669645" lon="-4.87490382045961">
        <ele>1498.95687484741</ele>
        <time>2018-09-02T13:42:22Z</time>
      </trkpt>
      <trkpt lat="42.9517852329118" lon="-4.87497288734175">
        <ele>1499.84627914429</ele>
        <time>2018-09-02T13:42:26Z</time>
      </trkpt>
      <trkpt lat="42.9517637333301" lon="-4.87504757009901">
        <ele>1501.34286117554</ele>
        <time>2018-09-02T13:42:30Z</time>
      </trkpt>
      <trkpt lat="42.9517455446003" lon="-4.87512166612304">
        <ele>1501.82748031616</ele>
        <time>2018-09-02T13:42:34Z</time>
      </trkpt>
      <trkpt lat="42.951732846017" lon="-4.87519115210034">
        <ele>1503.44979476929</ele>
        <time>2018-09-02T13:42:38Z</time>
      </trkpt>
      <trkpt lat="42.9517225362761" lon="-4.8752515856222">
        <ele>1504.95296859741</ele>
        <time>2018-09-02T13:42:41Z</time>
      </trkpt>
      <trkpt lat="42.9517084127692" lon="-4.87531889230467">
        <ele>1505.14950180054</ele>
        <time>2018-09-02T13:42:44Z</time>
      </trkpt>
      <trkpt lat="42.9516960075525" lon="-4.87538401969231">
        <ele>1504.78207015991</ele>
        <time>2018-09-02T13:42:47Z</time>
      </trkpt>
      <trkpt lat="42.9516789503796" lon="-4.87545182928897">
        <ele>1505.32796859741</ele>
        <time>2018-09-02T13:42:50Z</time>
      </trkpt>
      <trkpt lat="42.9516670480771" lon="-4.87552927807427">
        <ele>1505.69076156616</ele>
        <time>2018-09-02T13:42:54Z</time>
      </trkpt>
      <trkpt lat="42.9516541818557" lon="-4.87559457309998">
        <ele>1506.59164047241</ele>
        <time>2018-09-02T13:42:57Z</time>
      </trkpt>
      <trkpt lat="42.9516398068917" lon="-4.87566053867794">
        <ele>1506.69979476929</ele>
        <time>2018-09-02T13:43:00Z</time>
      </trkpt>
      <trkpt lat="42.9516300838841" lon="-4.87573044375039">
        <ele>1507.20833969116</ele>
        <time>2018-09-02T13:43:03Z</time>
      </trkpt>
      <trkpt lat="42.9516097996784" lon="-4.87579624169029">
        <ele>1508.23958969116</ele>
        <time>2018-09-02T13:43:06Z</time>
      </trkpt>
      <trkpt lat="42.9515884677348" lon="-4.8758684098766">
        <ele>1510.49422836304</ele>
        <time>2018-09-02T13:43:10Z</time>
      </trkpt>
      <trkpt lat="42.9515738832233" lon="-4.87593445927359">
        <ele>1510.85921859741</ele>
        <time>2018-09-02T13:43:14Z</time>
      </trkpt>
      <trkpt lat="42.9515598435355" lon="-4.87599883228995">
        <ele>1510.43441390991</ele>
        <time>2018-09-02T13:43:18Z</time>
      </trkpt>
      <trkpt lat="42.9515480669615" lon="-4.87607854418911">
        <ele>1510.54989242554</ele>
        <time>2018-09-02T13:43:22Z</time>
      </trkpt>
      <trkpt lat="42.9515383858634" lon="-4.87613889389194">
        <ele>1512.29671859741</ele>
        <time>2018-09-02T13:43:25Z</time>
      </trkpt>
      <trkpt lat="42.9515263578323" lon="-4.87621483393468">
        <ele>1514.23324203491</ele>
        <time>2018-09-02T13:43:29Z</time>
      </trkpt>
      <trkpt lat="42.951520322862" lon="-4.87627602182783">
        <ele>1514.86117172241</ele>
        <time>2018-09-02T13:43:32Z</time>
      </trkpt>
      <trkpt lat="42.951522837433" lon="-4.87635548226989">
        <ele>1516.09310531616</ele>
        <time>2018-09-02T13:43:36Z</time>
      </trkpt>
      <trkpt lat="42.9515192332146" lon="-4.87642739899911">
        <ele>1516.93734359741</ele>
        <time>2018-09-02T13:43:40Z</time>
      </trkpt>
      <trkpt lat="42.9515159223629" lon="-4.87649244256772">
        <ele>1515.70833969116</ele>
        <time>2018-09-02T13:43:43Z</time>
      </trkpt>
      <trkpt lat="42.9515026789559" lon="-4.87655430101312">
        <ele>1517.45858383179</ele>
        <time>2018-09-02T13:43:47Z</time>
      </trkpt>
      <trkpt lat="42.9514813470123" lon="-4.87662320025719">
        <ele>1518.82235336304</ele>
        <time>2018-09-02T13:43:51Z</time>
      </trkpt>
      <trkpt lat="42.9514422873435" lon="-4.87668472342647">
        <ele>1520.85384750366</ele>
        <time>2018-09-02T13:43:55Z</time>
      </trkpt>
      <trkpt lat="42.9514220869569" lon="-4.87674850970961">
        <ele>1522.34749984741</ele>
        <time>2018-09-02T13:43:58Z</time>
      </trkpt>
      <trkpt lat="42.9514096398307" lon="-4.87681372091628">
        <ele>1523.38363265991</ele>
        <time>2018-09-02T13:44:01Z</time>
      </trkpt>
      <trkpt lat="42.9513865476874" lon="-4.87688412890292">
        <ele>1525.04989242554</ele>
        <time>2018-09-02T13:44:05Z</time>
      </trkpt>
      <trkpt lat="42.9513626173539" lon="-4.87693668343581">
        <ele>1522.73568344116</ele>
        <time>2018-09-02T13:44:08Z</time>
      </trkpt>
      <trkpt lat="42.9513160139722" lon="-4.87697381526686">
        <ele>1523.44515609741</ele>
        <time>2018-09-02T13:44:12Z</time>
      </trkpt>
      <trkpt lat="42.9512607353208" lon="-4.87698177807487">
        <ele>1526.62191390991</ele>
        <time>2018-09-02T13:44:16Z</time>
      </trkpt>
      <trkpt lat="42.9512069235024" lon="-4.87697448581911">
        <ele>1529.08675765991</ele>
        <time>2018-09-02T13:44:20Z</time>
      </trkpt>
      <trkpt lat="42.9511595657495" lon="-4.87695654854633">
        <ele>1529.49837875366</ele>
        <time>2018-09-02T13:44:24Z</time>
      </trkpt>
      <trkpt lat="42.9511150159342" lon="-4.87693550996937">
        <ele>1529.34652328491</ele>
        <time>2018-09-02T13:44:27Z</time>
      </trkpt>
      <trkpt lat="42.9510572646213" lon="-4.87693727016903">
        <ele>1530.47445297241</ele>
        <time>2018-09-02T13:44:31Z</time>
      </trkpt>
      <trkpt lat="42.9510031175268" lon="-4.8769683670298">
        <ele>1531.11776351929</ele>
        <time>2018-09-02T13:44:35Z</time>
      </trkpt>
      <trkpt lat="42.9509689193619" lon="-4.87701941282011">
        <ele>1530.77401351929</ele>
        <time>2018-09-02T13:45:41Z</time>
      </trkpt>
      <trkpt lat="42.9509188374904" lon="-4.87705587409891">
        <ele>1531.82406234741</ele>
        <time>2018-09-02T13:45:44Z</time>
      </trkpt>
      <trkpt lat="42.9508663248671" lon="-4.87706660293497">
        <ele>1531.39437484741</ele>
        <time>2018-09-02T13:45:46Z</time>
      </trkpt>
      <trkpt lat="42.9507830925686" lon="-4.87706911750592">
        <ele>1531.23275375366</ele>
        <time>2018-09-02T13:45:48Z</time>
      </trkpt>
      <trkpt lat="42.9507299513025" lon="-4.87706148997403">
        <ele>1531.08602523804</ele>
        <time>2018-09-02T13:45:49Z</time>
      </trkpt>
      <trkpt lat="42.9506691825045" lon="-4.87704497762479">
        <ele>1530.27279281616</ele>
        <time>2018-09-02T13:45:50Z</time>
      </trkpt>
      <trkpt lat="42.9505987745178" lon="-4.87699007615901">
        <ele>1528.98983383179</ele>
        <time>2018-09-02T13:45:51Z</time>
      </trkpt>
      <trkpt lat="42.9505296657262" lon="-4.87694825046219">
        <ele>1528.30208969116</ele>
        <time>2018-09-02T13:45:52Z</time>
      </trkpt>
      <trkpt lat="42.9504686035616" lon="-4.87690558657504">
        <ele>1528.25326156616</ele>
        <time>2018-09-02T13:45:53Z</time>
      </trkpt>
      <trkpt lat="42.9504139535529" lon="-4.8768560495273">
        <ele>1528.26595687866</ele>
        <time>2018-09-02T13:45:54Z</time>
      </trkpt>
      <trkpt lat="42.9503606865582" lon="-4.87679997459508">
        <ele>1527.99203109741</ele>
        <time>2018-09-02T13:45:55Z</time>
      </trkpt>
      <trkpt lat="42.950324434827" lon="-4.87674842589058">
        <ele>1527.39168930054</ele>
        <time>2018-09-02T13:45:56Z</time>
      </trkpt>
      <trkpt lat="42.9502658872334" lon="-4.87667609006621">
        <ele>1527.03207015991</ele>
        <time>2018-09-02T13:45:58Z</time>
      </trkpt>
      <trkpt lat="42.9501984967319" lon="-4.87662395462848">
        <ele>1527.78280258179</ele>
        <time>2018-09-02T13:46:00Z</time>
      </trkpt>
      <trkpt lat="42.9501564614875" lon="-4.87659126520611">
        <ele>1527.61019515991</ele>
        <time>2018-09-02T13:46:01Z</time>
      </trkpt>
      <trkpt lat="42.9501078883586" lon="-4.87655631266988">
        <ele>1528.09554672241</ele>
        <time>2018-09-02T13:46:02Z</time>
      </trkpt>
      <trkpt lat="42.9500521487025" lon="-4.87651473843015">
        <ele>1528.42806625366</ele>
        <time>2018-09-02T13:46:03Z</time>
      </trkpt>
      <trkpt lat="42.9500067606968" lon="-4.87646151334501">
        <ele>1528.13705062866</ele>
        <time>2018-09-02T13:46:04Z</time>
      </trkpt>
      <trkpt lat="42.9499439802421" lon="-4.87640292384185">
        <ele>1526.42416000366</ele>
        <time>2018-09-02T13:46:05Z</time>
      </trkpt>
      <trkpt lat="42.9498832533536" lon="-4.87631265074469">
        <ele>1524.79110336304</ele>
        <time>2018-09-02T13:46:06Z</time>
      </trkpt>
      <trkpt lat="42.9498154856665" lon="-4.8762357886926">
        <ele>1524.66756820679</ele>
        <time>2018-09-02T13:46:07Z</time>
      </trkpt>
      <trkpt lat="42.9497435689372" lon="-4.87615574151732">
        <ele>1524.15072250366</ele>
        <time>2018-09-02T13:46:08Z</time>
      </trkpt>
      <trkpt lat="42.949676848988" lon="-4.87607150339044">
        <ele>1523.42660140991</ele>
        <time>2018-09-02T13:46:09Z</time>
      </trkpt>
      <trkpt lat="42.9495997773883" lon="-4.8759788833604">
        <ele>1522.91195297241</ele>
        <time>2018-09-02T13:46:10Z</time>
      </trkpt>
      <trkpt lat="42.9495270224688" lon="-4.87588643096842">
        <ele>1523.11410140991</ele>
        <time>2018-09-02T13:46:11Z</time>
      </trkpt>
      <trkpt lat="42.9494522558925" lon="-4.87582893111266">
        <ele>1520.29818344116</ele>
        <time>2018-09-02T13:46:12Z</time>
      </trkpt>
      <trkpt lat="42.949376986402" lon="-4.87575818784989">
        <ele>1519.22494125366</ele>
        <time>2018-09-02T13:46:13Z</time>
      </trkpt>
      <trkpt lat="42.9492934607369" lon="-4.87572172657109">
        <ele>1517.72738265991</ele>
        <time>2018-09-02T13:46:14Z</time>
      </trkpt>
      <trkpt lat="42.9491940513653" lon="-4.87571141683019">
        <ele>1518.48958969116</ele>
        <time>2018-09-02T13:46:15Z</time>
      </trkpt>
      <trkpt lat="42.9491063347486" lon="-4.87572181039013">
        <ele>1518.53451156616</ele>
        <time>2018-09-02T13:46:16Z</time>
      </trkpt>
      <trkpt lat="42.9490203364221" lon="-4.87574838102318">
        <ele>1518.58260726929</ele>
        <time>2018-09-02T13:46:17Z</time>
      </trkpt>
      <trkpt lat="42.9489385290471" lon="-4.87575382926024">
        <ele>1518.19564437866</ele>
        <time>2018-09-02T13:46:18Z</time>
      </trkpt>
      <trkpt lat="42.9488563444865" lon="-4.87573698163487">
        <ele>1516.31966781616</ele>
        <time>2018-09-02T13:46:19Z</time>
      </trkpt>
      <trkpt lat="42.9487852240381" lon="-4.87573899329163">
        <ele>1515.37704086304</ele>
        <time>2018-09-02T13:46:20Z</time>
      </trkpt>
      <trkpt lat="42.9487066017864" lon="-4.87570370547927">
        <ele>1514.52083969116</ele>
        <time>2018-09-02T13:46:21Z</time>
      </trkpt>
      <trkpt lat="42.9486349784238" lon="-4.87563438714005">
        <ele>1512.98226547241</ele>
        <time>2018-09-02T13:46:22Z</time>
      </trkpt>
      <trkpt lat="42.9485555598912" lon="-4.8755848500923">
        <ele>1512.32674789429</ele>
        <time>2018-09-02T13:46:23Z</time>
      </trkpt>
      <trkpt lat="42.9484833078859" lon="-4.87553237937845">
        <ele>1511.97103500366</ele>
        <time>2018-09-02T13:46:24Z</time>
      </trkpt>
      <trkpt lat="42.9484092118619" lon="-4.87546616234339">
        <ele>1510.83822250366</ele>
        <time>2018-09-02T13:46:25Z</time>
      </trkpt>
      <trkpt lat="42.9483787855533" lon="-4.87541008741118">
        <ele>1507.76595687866</ele>
        <time>2018-09-02T13:46:26Z</time>
      </trkpt>
      <trkpt lat="42.9483324336288" lon="-4.87533439882554">
        <ele>1510.03280258179</ele>
        <time>2018-09-02T13:46:27Z</time>
      </trkpt>
      <trkpt lat="42.9482883448181" lon="-4.87525410019315">
        <ele>1508.79549789429</ele>
        <time>2018-09-02T13:46:28Z</time>
      </trkpt>
      <trkpt lat="42.9482532246438" lon="-4.87518520094908">
        <ele>1509.11605453491</ele>
        <time>2018-09-02T13:46:29Z</time>
      </trkpt>
      <trkpt lat="42.9482178530124" lon="-4.8750964365945">
        <ele>1506.96566390991</ele>
        <time>2018-09-02T13:46:31Z</time>
      </trkpt>
      <trkpt lat="42.9481857922328" lon="-4.87504874356545">
        <ele>1507.31917953491</ele>
        <time>2018-09-02T13:46:32Z</time>
      </trkpt>
      <trkpt lat="42.9481518036155" lon="-4.87495159730769">
        <ele>1506.64242172241</ele>
        <time>2018-09-02T13:46:34Z</time>
      </trkpt>
      <trkpt lat="42.9481200781119" lon="-4.87488512881554">
        <ele>1506.66610336304</ele>
        <time>2018-09-02T13:46:36Z</time>
      </trkpt>
      <trkpt lat="42.9480824852762" lon="-4.87480382435478">
        <ele>1506.49618148804</ele>
        <time>2018-09-02T13:46:38Z</time>
      </trkpt>
      <trkpt lat="42.9480572138382" lon="-4.87474372610904">
        <ele>1507.49618148804</ele>
        <time>2018-09-02T13:46:40Z</time>
      </trkpt>
      <trkpt lat="42.9479989177016" lon="-4.87469729036547">
        <ele>1508.83700180054</ele>
        <time>2018-09-02T13:46:42Z</time>
      </trkpt>
      <trkpt lat="42.9479708802355" lon="-4.87462881021656">
        <ele>1508.90487289429</ele>
        <time>2018-09-02T13:46:44Z</time>
      </trkpt>
      <trkpt lat="42.9479405796555" lon="-4.87456309609569">
        <ele>1509.78768539429</ele>
        <time>2018-09-02T13:46:46Z</time>
      </trkpt>
      <trkpt lat="42.9479023581771" lon="-4.87449210137583">
        <ele>1508.19466781616</ele>
        <time>2018-09-02T13:46:48Z</time>
      </trkpt>
      <trkpt lat="42.9478690820215" lon="-4.87442211248435">
        <ele>1508.45809555054</ele>
        <time>2018-09-02T13:46:50Z</time>
      </trkpt>
      <trkpt lat="42.9478310281811" lon="-4.87434307113744">
        <ele>1508.16781234741</ele>
        <time>2018-09-02T13:46:52Z</time>
      </trkpt>
      <trkpt lat="42.9477865621848" lon="-4.8742689751134">
        <ele>1511.76644515991</ele>
        <time>2018-09-02T13:46:54Z</time>
      </trkpt>
      <trkpt lat="42.947733127552" lon="-4.87419848330773">
        <ele>1511.31722640991</ele>
        <time>2018-09-02T13:46:56Z</time>
      </trkpt>
      <trkpt lat="42.9476714367447" lon="-4.87413025461591">
        <ele>1512.62435531616</ele>
        <time>2018-09-02T13:46:58Z</time>
      </trkpt>
      <trkpt lat="42.9476130986986" lon="-4.87405406311608">
        <ele>1511.80990219116</ele>
        <time>2018-09-02T13:47:00Z</time>
      </trkpt>
      <trkpt lat="42.9475578200472" lon="-4.87398315221525">
        <ele>1512.41292953491</ele>
        <time>2018-09-02T13:47:02Z</time>
      </trkpt>
      <trkpt lat="42.9475150304315" lon="-4.87391877919889">
        <ele>1512.11654281616</ele>
        <time>2018-09-02T13:47:04Z</time>
      </trkpt>
      <trkpt lat="42.9474499868629" lon="-4.87394727766968">
        <ele>1516.96175765991</ele>
        <time>2018-09-02T13:47:55Z</time>
      </trkpt>
      <trkpt lat="42.9473945405734" lon="-4.87388298847235">
        <ele>1519.41732406616</ele>
        <time>2018-09-02T13:47:59Z</time>
      </trkpt>
      <trkpt lat="42.9473678442118" lon="-4.87379673868872">
        <ele>1519.64144515991</ele>
        <time>2018-09-02T13:48:01Z</time>
      </trkpt>
      <trkpt lat="42.9473625217033" lon="-4.8737113270954">
        <ele>1519.74789047241</ele>
        <time>2018-09-02T13:48:03Z</time>
      </trkpt>
      <trkpt lat="42.947375010739" lon="-4.87361552194215">
        <ele>1520.53548812866</ele>
        <time>2018-09-02T13:48:05Z</time>
      </trkpt>
      <trkpt lat="42.9474071972472" lon="-4.8735318705485">
        <ele>1520.87142562866</ele>
        <time>2018-09-02T13:48:06Z</time>
      </trkpt>
      <trkpt lat="42.9474324686853" lon="-4.87344805151678">
        <ele>1521.20272445679</ele>
        <time>2018-09-02T13:48:07Z</time>
      </trkpt>
      <trkpt lat="42.9474623920796" lon="-4.87335484475351">
        <ele>1520.65365219116</ele>
        <time>2018-09-02T13:48:08Z</time>
      </trkpt>
      <trkpt lat="42.9475023737577" lon="-4.873274210845">
        <ele>1520.97396469116</ele>
        <time>2018-09-02T13:48:09Z</time>
      </trkpt>
      <trkpt lat="42.9475383740318" lon="-4.8731933254794">
        <ele>1521.51327133179</ele>
        <time>2018-09-02T13:48:10Z</time>
      </trkpt>
      <trkpt lat="42.9475598736135" lon="-4.87307908013917">
        <ele>1522.93587875366</ele>
        <time>2018-09-02T13:48:11Z</time>
      </trkpt>
      <trkpt lat="42.9475714406399" lon="-4.87298159860528">
        <ele>1522.32650375366</ele>
        <time>2018-09-02T13:48:12Z</time>
      </trkpt>
      <trkpt lat="42.9475881625367" lon="-4.8728579655335">
        <ele>1521.44320297241</ele>
        <time>2018-09-02T13:48:13Z</time>
      </trkpt>
      <trkpt lat="42.9476130148796" lon="-4.87275268882967">
        <ele>1521.60213851929</ele>
        <time>2018-09-02T13:48:14Z</time>
      </trkpt>
      <trkpt lat="42.9476324189854" lon="-4.87265135162032">
        <ele>1521.75179672241</ele>
        <time>2018-09-02T13:48:15Z</time>
      </trkpt>
      <trkpt lat="42.9476323770759" lon="-4.8725627549038">
        <ele>1522.66585922241</ele>
        <time>2018-09-02T13:48:16Z</time>
      </trkpt>
      <trkpt lat="42.947618085931" lon="-4.8724504374013">
        <ele>1519.91927719116</ele>
        <time>2018-09-02T13:48:17Z</time>
      </trkpt>
      <trkpt lat="42.9476386635033" lon="-4.87233887427009">
        <ele>1519.34408187866</ele>
        <time>2018-09-02T13:48:18Z</time>
      </trkpt>
      <trkpt lat="42.9476142302555" lon="-4.87225321121968">
        <ele>1518.09286117554</ele>
        <time>2018-09-02T13:48:19Z</time>
      </trkpt>
      <trkpt lat="42.9475991428298" lon="-4.87215413712419">
        <ele>1517.94222640991</ele>
        <time>2018-09-02T13:48:20Z</time>
      </trkpt>
      <trkpt lat="42.9475835943995" lon="-4.87209420651651">
        <ele>1517.52425765991</ele>
        <time>2018-09-02T13:48:21Z</time>
      </trkpt>
      <trkpt lat="42.9475664534075" lon="-4.87203343771852">
        <ele>1517.74837875366</ele>
        <time>2018-09-02T13:48:22Z</time>
      </trkpt>
      <trkpt lat="42.9475597059754" lon="-4.87196034752286">
        <ele>1518.49251937866</ele>
        <time>2018-09-02T13:48:23Z</time>
      </trkpt>
      <trkpt lat="42.9475208977637" lon="-4.87184735946811">
        <ele>1518.65072250366</ele>
        <time>2018-09-02T13:48:25Z</time>
      </trkpt>
      <trkpt lat="42.9475064389808" lon="-4.87178038806177">
        <ele>1518.72225570679</ele>
        <time>2018-09-02T13:48:26Z</time>
      </trkpt>
      <trkpt lat="42.9474769765911" lon="-4.87165834755159">
        <ele>1518.41439437866</ele>
        <time>2018-09-02T13:48:28Z</time>
      </trkpt>
      <trkpt lat="42.9474875377891" lon="-4.87157662399567">
        <ele>1517.14730453491</ele>
        <time>2018-09-02T13:48:29Z</time>
      </trkpt>
      <trkpt lat="42.947471276897" lon="-4.8715177830354">
        <ele>1515.95589828491</ele>
        <time>2018-09-02T13:48:30Z</time>
      </trkpt>
      <trkpt lat="42.9474485619394" lon="-4.87145969644643">
        <ele>1516.26888656616</ele>
        <time>2018-09-02T13:48:31Z</time>
      </trkpt>
      <trkpt lat="42.9474229133157" lon="-4.87136900425411">
        <ele>1517.67074203491</ele>
        <time>2018-09-02T13:48:33Z</time>
      </trkpt>
      <trkpt lat="42.9474136932222" lon="-4.87125610001839">
        <ele>1517.41537094116</ele>
        <time>2018-09-02T13:48:35Z</time>
      </trkpt>
      <trkpt lat="42.9474057723237" lon="-4.87118954770721">
        <ele>1516.92489242554</ele>
        <time>2018-09-02T13:48:36Z</time>
      </trkpt>
      <trkpt lat="42.9473733762679" lon="-4.87113749608851">
        <ele>1517.57162094116</ele>
        <time>2018-09-02T13:48:38Z</time>
      </trkpt>
      <trkpt lat="42.9473532177908" lon="-4.87104730681039">
        <ele>1516.40169906616</ele>
        <time>2018-09-02T13:48:40Z</time>
      </trkpt>
      <trkpt lat="42.947345925535" lon="-4.87094320357299">
        <ele>1517.63534164429</ele>
        <time>2018-09-02T13:48:42Z</time>
      </trkpt>
      <trkpt lat="42.9473403934789" lon="-4.87084144726849">
        <ele>1516.78109359741</ele>
        <time>2018-09-02T13:48:44Z</time>
      </trkpt>
      <trkpt lat="42.9473200254542" lon="-4.87074715085781">
        <ele>1519.28304672241</ele>
        <time>2018-09-02T13:48:46Z</time>
      </trkpt>
      <trkpt lat="42.9472957598445" lon="-4.87065327354229">
        <ele>1519.43929672241</ele>
        <time>2018-09-02T13:48:48Z</time>
      </trkpt>
      <trkpt lat="42.9472737992582" lon="-4.87056601793028">
        <ele>1518.10628890991</ele>
        <time>2018-09-02T13:48:50Z</time>
      </trkpt>
      <trkpt lat="42.9472468933491" lon="-4.87047364935732">
        <ele>1517.19710922241</ele>
        <time>2018-09-02T13:48:52Z</time>
      </trkpt>
      <trkpt lat="42.9472415708405" lon="-4.87036527134932">
        <ele>1517.29964828491</ele>
        <time>2018-09-02T13:48:54Z</time>
      </trkpt>
      <trkpt lat="42.9472796665905" lon="-4.87027189694799">
        <ele>1517.33724594116</ele>
        <time>2018-09-02T13:48:55Z</time>
      </trkpt>
      <trkpt lat="42.9472870007557" lon="-4.87020769156969">
        <ele>1516.97347640991</ele>
        <time>2018-09-02T13:48:56Z</time>
      </trkpt>
      <trkpt lat="42.9472985258726" lon="-4.87009277567721">
        <ele>1516.48592758179</ele>
        <time>2018-09-02T13:48:58Z</time>
      </trkpt>
      <trkpt lat="42.9472944606496" lon="-4.87002622336603">
        <ele>1515.65829086304</ele>
        <time>2018-09-02T13:48:59Z</time>
      </trkpt>
      <trkpt lat="42.9472928680879" lon="-4.86993938684917">
        <ele>1515.83822250366</ele>
        <time>2018-09-02T13:49:00Z</time>
      </trkpt>
      <trkpt lat="42.9472829355327" lon="-4.86984349787689">
        <ele>1515.42953109741</ele>
        <time>2018-09-02T13:49:01Z</time>
      </trkpt>
      <trkpt lat="42.9472793313143" lon="-4.86976730637706">
        <ele>1515.03988265991</ele>
        <time>2018-09-02T13:49:02Z</time>
      </trkpt>
      <trkpt lat="42.9472433310402" lon="-4.86965809017873">
        <ele>1513.07406234741</ele>
        <time>2018-09-02T13:49:04Z</time>
      </trkpt>
      <trkpt lat="42.9472206160826" lon="-4.86952096224285">
        <ele>1511.07943344116</ele>
        <time>2018-09-02T13:49:06Z</time>
      </trkpt>
      <trkpt lat="42.9472137010125" lon="-4.86941878684319">
        <ele>1510.73568344116</ele>
        <time>2018-09-02T13:49:07Z</time>
      </trkpt>
      <trkpt lat="42.9471812211377" lon="-4.86928358674503">
        <ele>1508.61019515991</ele>
        <time>2018-09-02T13:49:09Z</time>
      </trkpt>
      <trkpt lat="42.9471290018809" lon="-4.8691902123437">
        <ele>1509.22494125366</ele>
        <time>2018-09-02T13:49:11Z</time>
      </trkpt>
      <trkpt lat="42.947063120122" lon="-4.86910027452267">
        <ele>1511.42245101929</ele>
        <time>2018-09-02T13:49:13Z</time>
      </trkpt>
      <trkpt lat="42.9470065003661" lon="-4.86904880963719">
        <ele>1511.59701156616</ele>
        <time>2018-09-02T13:49:14Z</time>
      </trkpt>
      <trkpt lat="42.946945396292" lon="-4.86900581047392">
        <ele>1513.81087875366</ele>
        <time>2018-09-02T13:49:15Z</time>
      </trkpt>
      <trkpt lat="42.9469155986262" lon="-4.868924086918">
        <ele>1513.70833969116</ele>
        <time>2018-09-02T13:49:16Z</time>
      </trkpt>
      <trkpt lat="42.9468645947454" lon="-4.86886222847259">
        <ele>1513.01205062866</ele>
        <time>2018-09-02T13:49:17Z</time>
      </trkpt>
      <trkpt lat="42.9468096094606" lon="-4.86881319433904">
        <ele>1512.94906234741</ele>
        <time>2018-09-02T13:49:18Z</time>
      </trkpt>
      <trkpt lat="42.9467519000573" lon="-4.86878503114438">
        <ele>1511.83700180054</ele>
        <time>2018-09-02T13:49:19Z</time>
      </trkpt>
      <trkpt lat="42.946699806529" lon="-4.86876592040515">
        <ele>1512.41878890991</ele>
        <time>2018-09-02T13:49:20Z</time>
      </trkpt>
      <trkpt lat="42.9466434801397" lon="-4.86873272806859">
        <ele>1510.99886703491</ele>
        <time>2018-09-02T13:49:21Z</time>
      </trkpt>
      <trkpt lat="42.9466060130326" lon="-4.86869048327661">
        <ele>1511.08187484741</ele>
        <time>2018-09-02T13:49:22Z</time>
      </trkpt>
      <trkpt lat="42.9465566436229" lon="-4.86864455044723">
        <ele>1511.61654281616</ele>
        <time>2018-09-02T13:49:23Z</time>
      </trkpt>
      <trkpt lat="42.9465195117918" lon="-4.86858344637311">
        <ele>1511.70638656616</ele>
        <time>2018-09-02T13:49:24Z</time>
      </trkpt>
      <trkpt lat="42.9464810388563" lon="-4.86852988601184">
        <ele>1511.87240219116</ele>
        <time>2018-09-02T13:49:25Z</time>
      </trkpt>
      <trkpt lat="42.9464427754683" lon="-4.86847029068029">
        <ele>1512.02254867554</ele>
        <time>2018-09-02T13:49:26Z</time>
      </trkpt>
      <trkpt lat="42.9464021232379" lon="-4.8684163950429">
        <ele>1513.56136703491</ele>
        <time>2018-09-02T13:49:27Z</time>
      </trkpt>
      <trkpt lat="42.9463671287922" lon="-4.86836384051001">
        <ele>1510.36312484741</ele>
        <time>2018-09-02T13:49:28Z</time>
      </trkpt>
      <trkpt lat="42.946333643089" lon="-4.86832084134674">
        <ele>1509.45101547241</ele>
        <time>2018-09-02T13:49:29Z</time>
      </trkpt>
      <trkpt lat="42.9463012889428" lon="-4.86827063374675">
        <ele>1509.11751937866</ele>
        <time>2018-09-02T13:49:30Z</time>
      </trkpt>
      <trkpt lat="42.9462574096797" lon="-4.86817658879316">
        <ele>1506.99984359741</ele>
        <time>2018-09-02T13:49:32Z</time>
      </trkpt>
      <trkpt lat="42.946194964501" lon="-4.86809704453206">
        <ele>1508.48812484741</ele>
        <time>2018-09-02T13:49:34Z</time>
      </trkpt>
      <trkpt lat="42.9461608082456" lon="-4.86804599874175">
        <ele>1508.14828109741</ele>
        <time>2018-09-02T13:49:35Z</time>
      </trkpt>
      <trkpt lat="42.946131429675" lon="-4.86798439175344">
        <ele>1508.66927719116</ele>
        <time>2018-09-02T13:49:36Z</time>
      </trkpt>
      <trkpt lat="42.9461007519094" lon="-4.86793016083992">
        <ele>1508.42611312866</ele>
        <time>2018-09-02T13:49:37Z</time>
      </trkpt>
      <trkpt lat="42.9460801324276" lon="-4.86787467264092">
        <ele>1508.19857406616</ele>
        <time>2018-09-02T13:49:38Z</time>
      </trkpt>
      <trkpt lat="42.9460519692329" lon="-4.86780543812073">
        <ele>1507.07357406616</ele>
        <time>2018-09-02T13:49:39Z</time>
      </trkpt>
      <trkpt lat="42.9460225906623" lon="-4.86774450168467">
        <ele>1507.23128890991</ele>
        <time>2018-09-02T13:49:40Z</time>
      </trkpt>
      <trkpt lat="42.9460065812272" lon="-4.86766680144227">
        <ele>1504.37997055054</ele>
        <time>2018-09-02T13:49:41Z</time>
      </trkpt>
      <trkpt lat="42.9459849140075" lon="-4.86759714782691">
        <ele>1504.28304672241</ele>
        <time>2018-09-02T13:49:42Z</time>
      </trkpt>
      <trkpt lat="42.9459659709064" lon="-4.86751022749102">
        <ele>1505.36214828491</ele>
        <time>2018-09-02T13:49:43Z</time>
      </trkpt>
      <trkpt lat="42.9459455609722" lon="-4.86742129549837">
        <ele>1505.68001937866</ele>
        <time>2018-09-02T13:49:44Z</time>
      </trkpt>
      <trkpt lat="42.9459325690222" lon="-4.8673441819892">
        <ele>1506.34896469116</ele>
        <time>2018-09-02T13:49:45Z</time>
      </trkpt>
      <trkpt lat="42.9459236003858" lon="-4.86727109179354">
        <ele>1504.87044906616</ele>
        <time>2018-09-02T13:49:46Z</time>
      </trkpt>
      <trkpt lat="42.9459062917558" lon="-4.8672059644059">
        <ele>1506.18514633179</ele>
        <time>2018-09-02T13:49:47Z</time>
      </trkpt>
      <trkpt lat="42.9458935093535" lon="-4.86710906960523">
        <ele>1506.63167953491</ele>
        <time>2018-09-02T13:49:48Z</time>
      </trkpt>
      <trkpt lat="42.945885672274" lon="-4.86702038906968">
        <ele>1506.77743148804</ele>
        <time>2018-09-02T13:49:49Z</time>
      </trkpt>
      <trkpt lat="42.9458824033318" lon="-4.8669311218009">
        <ele>1507.13656234741</ele>
        <time>2018-09-02T13:49:50Z</time>
      </trkpt>
      <trkpt lat="42.9458728060526" lon="-4.8668399266944">
        <ele>1507.35140609741</ele>
        <time>2018-09-02T13:49:51Z</time>
      </trkpt>
      <trkpt lat="42.9458659748015" lon="-4.86675971188104">
        <ele>1507.90023422241</ele>
        <time>2018-09-02T13:49:52Z</time>
      </trkpt>
      <trkpt lat="42.9458473669765" lon="-4.86667782068706">
        <ele>1507.91341781616</ele>
        <time>2018-09-02T13:49:53Z</time>
      </trkpt>
      <trkpt lat="42.9458186170486" lon="-4.86660623923397">
        <ele>1510.80794906616</ele>
        <time>2018-09-02T13:49:54Z</time>
      </trkpt>
      <trkpt lat="42.945793136063" lon="-4.86652904190576">
        <ele>1509.49105453491</ele>
        <time>2018-09-02T13:49:55Z</time>
      </trkpt>
      <trkpt lat="42.9457758274329" lon="-4.86642485484934">
        <ele>1508.39461898804</ele>
        <time>2018-09-02T13:49:56Z</time>
      </trkpt>
      <trkpt lat="42.9457551660416" lon="-4.86632368527806">
        <ele>1507.72054672241</ele>
        <time>2018-09-02T13:49:57Z</time>
      </trkpt>
      <trkpt lat="42.9457293497798" lon="-4.8662091046617">
        <ele>1508.53304672241</ele>
        <time>2018-09-02T13:49:58Z</time>
      </trkpt>
      <trkpt lat="42.9457001807568" lon="-4.86609184183633">
        <ele>1508.82845687866</ele>
        <time>2018-09-02T13:49:59Z</time>
      </trkpt>
      <trkpt lat="42.9456804413748" lon="-4.86599016935086">
        <ele>1509.85506820679</ele>
        <time>2018-09-02T13:50:00Z</time>
      </trkpt>
      <trkpt lat="42.9456586484266" lon="-4.8658969625876">
        <ele>1509.13827133179</ele>
        <time>2018-09-02T13:50:01Z</time>
      </trkpt>
      <trkpt lat="42.9456123384116" lon="-4.86579545774019">
        <ele>1507.56087875366</ele>
        <time>2018-09-02T13:50:02Z</time>
      </trkpt>
      <trkpt lat="42.9455731949238" lon="-4.86568330787575">
        <ele>1506.02499008179</ele>
        <time>2018-09-02T13:50:03Z</time>
      </trkpt>
      <trkpt lat="42.9455569759411" lon="-4.86557283439195">
        <ele>1505.41195297241</ele>
        <time>2018-09-02T13:50:04Z</time>
      </trkpt>
      <trkpt lat="42.9455625499067" lon="-4.86546529457426">
        <ele>1505.18587875366</ele>
        <time>2018-09-02T13:50:05Z</time>
      </trkpt>
      <trkpt lat="42.9455630947304" lon="-4.86537577584839">
        <ele>1504.54671859741</ele>
        <time>2018-09-02T13:50:06Z</time>
      </trkpt>
      <trkpt lat="42.9455516953421" lon="-4.8652941361115">
        <ele>1503.83138656616</ele>
        <time>2018-09-02T13:50:07Z</time>
      </trkpt>
      <trkpt lat="42.9455220234049" lon="-4.86520646140432">
        <ele>1502.87337875366</ele>
        <time>2018-09-02T13:50:08Z</time>
      </trkpt>
      <trkpt lat="42.9454758810279" lon="-4.86512649804807">
        <ele>1501.93539047241</ele>
        <time>2018-09-02T13:50:09Z</time>
      </trkpt>
      <trkpt lat="42.9454167467011" lon="-4.86505106091952">
        <ele>1500.86458969116</ele>
        <time>2018-09-02T13:50:10Z</time>
      </trkpt>
      <trkpt lat="42.9453542596129" lon="-4.86498693936026">
        <ele>1500.68099594116</ele>
        <time>2018-09-02T13:50:11Z</time>
      </trkpt>
      <trkpt lat="42.9452881683064" lon="-4.86491192132688">
        <ele>1500.20248031616</ele>
        <time>2018-09-02T13:50:12Z</time>
      </trkpt>
      <trkpt lat="42.9452398466346" lon="-4.86484218389249">
        <ele>1500.65853500366</ele>
        <time>2018-09-02T13:50:13Z</time>
      </trkpt>
      <trkpt lat="42.9451947939051" lon="-4.86475903541303">
        <ele>1500.71175765991</ele>
        <time>2018-09-02T13:50:14Z</time>
      </trkpt>
      <trkpt lat="42.9451533873034" lon="-4.86468686722672">
        <ele>1499.51302719116</ele>
        <time>2018-09-02T13:50:15Z</time>
      </trkpt>
      <trkpt lat="42.945083482231" lon="-4.86462869681871">
        <ele>1499.80379867554</ele>
        <time>2018-09-02T13:50:16Z</time>
      </trkpt>
      <trkpt lat="42.9450147925345" lon="-4.86456817947781">
        <ele>1498.10531234741</ele>
        <time>2018-09-02T13:50:17Z</time>
      </trkpt>
      <trkpt lat="42.9449352901829" lon="-4.86451420002139">
        <ele>1497.43099594116</ele>
        <time>2018-09-02T13:50:18Z</time>
      </trkpt>
      <trkpt lat="42.9448500043181" lon="-4.86446650699234">
        <ele>1496.42269515991</ele>
        <time>2018-09-02T13:50:19Z</time>
      </trkpt>
      <trkpt lat="42.9447574261976" lon="-4.86443834379768">
        <ele>1495.22982406616</ele>
        <time>2018-09-02T13:50:20Z</time>
      </trkpt>
      <trkpt lat="42.9446697095809" lon="-4.86442023888683">
        <ele>1494.63192367554</ele>
        <time>2018-09-02T13:50:21Z</time>
      </trkpt>
      <trkpt lat="42.9445863515539" lon="-4.86440146342373">
        <ele>1495.34652328491</ele>
        <time>2018-09-02T13:50:22Z</time>
      </trkpt>
      <trkpt lat="42.9445089027686" lon="-4.86438486725545">
        <ele>1495.76351547241</ele>
        <time>2018-09-02T13:50:23Z</time>
      </trkpt>
      <trkpt lat="42.9444381595058" lon="-4.86437380314326">
        <ele>1496.00521469116</ele>
        <time>2018-09-02T13:50:24Z</time>
      </trkpt>
      <trkpt lat="42.9443699727235" lon="-4.86436776817298">
        <ele>1495.37069320679</ele>
        <time>2018-09-02T13:50:25Z</time>
      </trkpt>
      <trkpt lat="42.9443014087555" lon="-4.86435662024176">
        <ele>1495.28109359741</ele>
        <time>2018-09-02T13:50:26Z</time>
      </trkpt>
      <trkpt lat="42.9442371195582" lon="-4.86434983090019">
        <ele>1495.53915023804</ele>
        <time>2018-09-02T13:50:27Z</time>
      </trkpt>
      <trkpt lat="42.9441752611128" lon="-4.86433692276931">
        <ele>1495.90902328491</ele>
        <time>2018-09-02T13:50:28Z</time>
      </trkpt>
      <trkpt lat="42.9441140313101" lon="-4.8643234279052">
        <ele>1495.79818344116</ele>
        <time>2018-09-02T13:50:29Z</time>
      </trkpt>
      <trkpt lat="42.9440636979816" lon="-4.86428864300704">
        <ele>1496.74740219116</ele>
        <time>2018-09-02T13:50:30Z</time>
      </trkpt>
      <trkpt lat="42.9440039769215" lon="-4.86426894553459">
        <ele>1496.89632797241</ele>
        <time>2018-09-02T13:50:31Z</time>
      </trkpt>
      <trkpt lat="42.9439494945509" lon="-4.8642507568047">
        <ele>1497.88998031616</ele>
        <time>2018-09-02T13:50:32Z</time>
      </trkpt>
      <trkpt lat="42.9438954731849" lon="-4.8642232641623">
        <ele>1498.67489242554</ele>
        <time>2018-09-02T13:50:33Z</time>
      </trkpt>
      <trkpt lat="42.9438538151262" lon="-4.86419912428117">
        <ele>1499.08895492554</ele>
        <time>2018-09-02T13:50:34Z</time>
      </trkpt>
      <trkpt lat="42.9438071279255" lon="-4.8641764931426">
        <ele>1498.77865219116</ele>
        <time>2018-09-02T13:50:35Z</time>
      </trkpt>
      <trkpt lat="42.9437174834711" lon="-4.86412284896231">
        <ele>1497.85287094116</ele>
        <time>2018-09-02T13:50:37Z</time>
      </trkpt>
      <trkpt lat="42.9436694132564" lon="-4.86410524696565">
        <ele>1498.16341781616</ele>
        <time>2018-09-02T13:50:38Z</time>
      </trkpt>
      <trkpt lat="42.9436182836471" lon="-4.86408135854161">
        <ele>1498.72787094116</ele>
        <time>2018-09-02T13:50:39Z</time>
      </trkpt>
      <trkpt lat="42.9435708001656" lon="-4.86406275071657">
        <ele>1498.82015609741</ele>
        <time>2018-09-02T13:50:40Z</time>
      </trkpt>
      <trkpt lat="42.9435204249275" lon="-4.86403902993059">
        <ele>1499.15072250366</ele>
        <time>2018-09-02T13:50:41Z</time>
      </trkpt>
      <trkpt lat="42.943476839031" lon="-4.86402184702909">
        <ele>1500.06771469116</ele>
        <time>2018-09-02T13:50:42Z</time>
      </trkpt>
      <trkpt lat="42.9434190038992" lon="-4.8639676999346">
        <ele>1498.23617172241</ele>
        <time>2018-09-02T13:50:44Z</time>
      </trkpt>
      <trkpt lat="42.9433436086801" lon="-4.86390047707117">
        <ele>1497.92171859741</ele>
        <time>2018-09-02T13:50:46Z</time>
      </trkpt>
      <trkpt lat="42.9433066025776" lon="-4.86385756172693">
        <ele>1497.74496078491</ele>
        <time>2018-09-02T13:50:47Z</time>
      </trkpt>
      <trkpt lat="42.9432713566748" lon="-4.86381791532493">
        <ele>1498.71175765991</ele>
        <time>2018-09-02T13:50:48Z</time>
      </trkpt>
      <trkpt lat="42.943201912607" lon="-4.86374298111057">
        <ele>1498.55111312866</ele>
        <time>2018-09-02T13:50:50Z</time>
      </trkpt>
      <trkpt lat="42.9431594163579" lon="-4.86369227059638">
        <ele>1498.05892562866</ele>
        <time>2018-09-02T13:50:51Z</time>
      </trkpt>
      <trkpt lat="42.9431239609075" lon="-4.86364382319605">
        <ele>1498.40853500366</ele>
        <time>2018-09-02T13:50:52Z</time>
      </trkpt>
      <trkpt lat="42.9430865357099" lon="-4.86358615570223">
        <ele>1498.32992172241</ele>
        <time>2018-09-02T13:50:53Z</time>
      </trkpt>
      <trkpt lat="42.9430569475917" lon="-4.86353418790257">
        <ele>1497.86092758179</ele>
        <time>2018-09-02T13:50:54Z</time>
      </trkpt>
      <trkpt lat="42.9430358251957" lon="-4.86346252263045">
        <ele>1497.04525375366</ele>
        <time>2018-09-02T13:50:55Z</time>
      </trkpt>
      <trkpt lat="42.9430148285282" lon="-4.86339555122411">
        <ele>1497.19564437866</ele>
        <time>2018-09-02T13:50:56Z</time>
      </trkpt>
      <trkpt lat="42.9429903952805" lon="-4.86331424676335">
        <ele>1494.61385726929</ele>
        <time>2018-09-02T13:50:57Z</time>
      </trkpt>
      <trkpt lat="42.9429587116865" lon="-4.86324702389991">
        <ele>1495.21419906616</ele>
        <time>2018-09-02T13:50:58Z</time>
      </trkpt>
      <trkpt lat="42.9429206159366" lon="-4.86318022013163">
        <ele>1494.48714828491</ele>
        <time>2018-09-02T13:50:59Z</time>
      </trkpt>
      <trkpt lat="42.9428902315376" lon="-4.86312615685618">
        <ele>1495.86361312866</ele>
        <time>2018-09-02T13:51:00Z</time>
      </trkpt>
      <trkpt lat="42.9428659659279" lon="-4.86306580715334">
        <ele>1496.08919906616</ele>
        <time>2018-09-02T13:51:01Z</time>
      </trkpt>
      <trkpt lat="42.9428396467519" lon="-4.86300721765017">
        <ele>1495.41952133179</ele>
        <time>2018-09-02T13:51:02Z</time>
      </trkpt>
      <trkpt lat="42.9428150877756" lon="-4.86294485629058">
        <ele>1494.89974594116</ele>
        <time>2018-09-02T13:51:03Z</time>
      </trkpt>
      <trkpt lat="42.9427941749272" lon="-4.86288710497773">
        <ele>1494.40609359741</ele>
        <time>2018-09-02T13:51:04Z</time>
      </trkpt>
      <trkpt lat="42.9427669337419" lon="-4.86282675527489">
        <ele>1494.03622055054</ele>
        <time>2018-09-02T13:51:05Z</time>
      </trkpt>
      <trkpt lat="42.9427377647189" lon="-4.86276498064852">
        <ele>1493.91244125366</ele>
        <time>2018-09-02T13:51:06Z</time>
      </trkpt>
      <trkpt lat="42.9427052010251" lon="-4.8627020325557">
        <ele>1493.43734359741</ele>
        <time>2018-09-02T13:51:07Z</time>
      </trkpt>
      <trkpt lat="42.9426738946167" lon="-4.86263413914001">
        <ele>1492.82894515991</ele>
        <time>2018-09-02T13:51:08Z</time>
      </trkpt>
      <trkpt lat="42.9426387325329" lon="-4.86256917939043">
        <ele>1492.3102684021</ele>
        <time>2018-09-02T13:51:09Z</time>
      </trkpt>
      <trkpt lat="42.9426009301496" lon="-4.86250388436472">
        <ele>1491.32918930054</ele>
        <time>2018-09-02T13:51:10Z</time>
      </trkpt>
      <trkpt lat="42.9425627505807" lon="-4.8624446243093">
        <ele>1490.58736801147</ele>
        <time>2018-09-02T13:51:11Z</time>
      </trkpt>
      <trkpt lat="42.9425115790618" lon="-4.86237647943651">
        <ele>1490.8444480896</ele>
        <time>2018-09-02T13:51:12Z</time>
      </trkpt>
      <trkpt lat="42.9424663167847" lon="-4.86231889576173">
        <ele>1490.43355941772</ele>
        <time>2018-09-02T13:51:13Z</time>
      </trkpt>
      <trkpt lat="42.9424034525109" lon="-4.86226441339111">
        <ele>1489.10677719116</ele>
        <time>2018-09-02T13:51:14Z</time>
      </trkpt>
      <trkpt lat="42.942329859401" lon="-4.86220406368828">
        <ele>1487.63900375366</ele>
        <time>2018-09-02T13:51:15Z</time>
      </trkpt>
      <trkpt lat="42.9422470461977" lon="-4.86215645447826">
        <ele>1486.11629867554</ele>
        <time>2018-09-02T13:51:16Z</time>
      </trkpt>
      <trkpt lat="42.9421548033533" lon="-4.8621044866786">
        <ele>1485.40768051147</ele>
        <time>2018-09-02T13:51:17Z</time>
      </trkpt>
      <trkpt lat="42.9420661647273" lon="-4.86204707064187">
        <ele>1484.95309066772</ele>
        <time>2018-09-02T13:51:18Z</time>
      </trkpt>
      <trkpt lat="42.941983435343" lon="-4.86198915169096">
        <ele>1483.55392074585</ele>
        <time>2018-09-02T13:51:19Z</time>
      </trkpt>
      <trkpt lat="42.9418916115937" lon="-4.86193114892101">
        <ele>1482.24203109741</ele>
        <time>2018-09-02T13:51:20Z</time>
      </trkpt>
      <trkpt lat="42.9417994106588" lon="-4.8618713859514">
        <ele>1481.31832504272</ele>
        <time>2018-09-02T13:51:21Z</time>
      </trkpt>
      <trkpt lat="42.9417057848004" lon="-4.8618158977524">
        <ele>1480.18111801147</ele>
        <time>2018-09-02T13:51:22Z</time>
      </trkpt>
      <trkpt lat="42.9416057048765" lon="-4.86176636070466">
        <ele>1479.42147445679</ele>
        <time>2018-09-02T13:51:23Z</time>
      </trkpt>
      <trkpt lat="42.9415109474612" lon="-4.86172227189398">
        <ele>1479.08724594116</ele>
        <time>2018-09-02T13:51:24Z</time>
      </trkpt>
      <trkpt lat="42.9414114542705" lon="-4.86167189665592">
        <ele>1477.89107894897</ele>
        <time>2018-09-02T13:51:25Z</time>
      </trkpt>
      <trkpt lat="42.9413086921377" lon="-4.86162068322754">
        <ele>1476.74813461304</ele>
        <time>2018-09-02T13:51:26Z</time>
      </trkpt>
      <trkpt lat="42.9412146471841" lon="-4.86155882478213">
        <ele>1475.87398910522</ele>
        <time>2018-09-02T13:51:27Z</time>
      </trkpt>
      <trkpt lat="42.9411183391166" lon="-4.86150098965025">
        <ele>1475.3473777771</ele>
        <time>2018-09-02T13:51:28Z</time>
      </trkpt>
      <trkpt lat="42.9410196002973" lon="-4.8614411428616">
        <ele>1474.35665512085</ele>
        <time>2018-09-02T13:51:29Z</time>
      </trkpt>
      <trkpt lat="42.9409215739397" lon="-4.86138045788264">
        <ele>1474.11117172241</ele>
        <time>2018-09-02T13:51:30Z</time>
      </trkpt>
      <trkpt lat="42.9408264393387" lon="-4.86132664606428">
        <ele>1473.76754379272</ele>
        <time>2018-09-02T13:51:31Z</time>
      </trkpt>
      <trkpt lat="42.940726946148" lon="-4.86129722558415">
        <ele>1473.57040023804</ele>
        <time>2018-09-02T13:51:32Z</time>
      </trkpt>
      <trkpt lat="42.9406339489323" lon="-4.86129127443289">
        <ele>1473.4274559021</ele>
        <time>2018-09-02T13:51:33Z</time>
      </trkpt>
      <trkpt lat="42.9405384790552" lon="-4.86129923724091">
        <ele>1473.2878074646</ele>
        <time>2018-09-02T13:51:34Z</time>
      </trkpt>
      <trkpt lat="42.9404501757053" lon="-4.86131197773373">
        <ele>1472.48275375366</ele>
        <time>2018-09-02T13:51:35Z</time>
      </trkpt>
      <trkpt lat="42.9403593158749" lon="-4.86132346094107">
        <ele>1472.03011703491</ele>
        <time>2018-09-02T13:51:36Z</time>
      </trkpt>
      <trkpt lat="42.9402773408619" lon="-4.86132714897847">
        <ele>1473.24935531616</ele>
        <time>2018-09-02T13:51:37Z</time>
      </trkpt>
      <trkpt lat="42.9402038734806" lon="-4.86134843901252">
        <ele>1472.19369125366</ele>
        <time>2018-09-02T13:51:38Z</time>
      </trkpt>
      <trkpt lat="42.9401385784549" lon="-4.86137207597947">
        <ele>1472.22494125366</ele>
        <time>2018-09-02T13:51:39Z</time>
      </trkpt>
      <trkpt lat="42.9400830064369" lon="-4.86139671877479">
        <ele>1472.91158676147</ele>
        <time>2018-09-02T13:51:40Z</time>
      </trkpt>
      <trkpt lat="42.9400005704192" lon="-4.861399903898">
        <ele>1472.51449203491</ele>
        <time>2018-09-02T13:51:42Z</time>
      </trkpt>
      <trkpt lat="42.9399253009287" lon="-4.86138598993873">
        <ele>1474.11935043335</ele>
        <time>2018-09-02T13:51:44Z</time>
      </trkpt>
      <trkpt lat="42.9398678010729" lon="-4.86135028303122">
        <ele>1474.75912094116</ele>
        <time>2018-09-02T13:51:46Z</time>
      </trkpt>
      <trkpt lat="42.939808415289" lon="-4.86133377068197">
        <ele>1473.1755027771</ele>
        <time>2018-09-02T13:51:48Z</time>
      </trkpt>
      <trkpt lat="42.9397630272833" lon="-4.86132672988331">
        <ele>1473.5153465271</ele>
        <time>2018-09-02T13:51:49Z</time>
      </trkpt>
      <trkpt lat="42.9397150408876" lon="-4.86132027581787">
        <ele>1474.2506980896</ele>
        <time>2018-09-02T13:51:50Z</time>
      </trkpt>
      <trkpt lat="42.9396666773063" lon="-4.86132371239817">
        <ele>1475.00594711304</ele>
        <time>2018-09-02T13:51:51Z</time>
      </trkpt>
      <trkpt lat="42.9396136617688" lon="-4.86133427359616">
        <ele>1476.12350082397</ele>
        <time>2018-09-02T13:51:52Z</time>
      </trkpt>
      <trkpt lat="42.9395206645531" lon="-4.86137987114942">
        <ele>1475.66073226929</ele>
        <time>2018-09-02T13:51:54Z</time>
      </trkpt>
      <trkpt lat="42.9394756118236" lon="-4.86140015535509">
        <ele>1475.04732894897</ele>
        <time>2018-09-02T13:51:55Z</time>
      </trkpt>
      <trkpt lat="42.9394333670316" lon="-4.86144063994741">
        <ele>1474.5485496521</ele>
        <time>2018-09-02T13:51:56Z</time>
      </trkpt>
      <trkpt lat="42.9393883981211" lon="-4.86146151088631">
        <ele>1474.95162582397</ele>
        <time>2018-09-02T13:51:57Z</time>
      </trkpt>
      <trkpt lat="42.9393434711201" lon="-4.86146846786594">
        <ele>1474.50277328491</ele>
        <time>2018-09-02T13:51:58Z</time>
      </trkpt>
      <trkpt lat="42.9392926767868" lon="-4.86148674041485">
        <ele>1474.6510887146</ele>
        <time>2018-09-02T13:51:59Z</time>
      </trkpt>
      <trkpt lat="42.9392471211431" lon="-4.86151054501986">
        <ele>1475.07345199585</ele>
        <time>2018-09-02T13:52:00Z</time>
      </trkpt>
      <trkpt lat="42.9391600331691" lon="-4.86155807041085">
        <ele>1475.94625473022</ele>
        <time>2018-09-02T13:52:02Z</time>
      </trkpt>
      <trkpt lat="42.9390900023681" lon="-4.86159075983321">
        <ele>1474.93770980835</ele>
        <time>2018-09-02T13:52:04Z</time>
      </trkpt>
      <trkpt lat="42.9390204325718" lon="-4.8616380337671">
        <ele>1474.41915512085</ele>
        <time>2018-09-02T13:52:06Z</time>
      </trkpt>
      <trkpt lat="42.9389631422636" lon="-4.86168061383521">
        <ele>1474.10555648804</ele>
        <time>2018-09-02T13:52:08Z</time>
      </trkpt>
      <trkpt lat="42.9389128508446" lon="-4.86168421805358">
        <ele>1473.42330551147</ele>
        <time>2018-09-02T13:52:18Z</time>
      </trkpt>
      <trkpt lat="42.9388615116877" lon="-4.8617035802499">
        <ele>1472.14889144897</ele>
        <time>2018-09-02T13:52:35Z</time>
      </trkpt>
      <trkpt lat="42.9388035508273" lon="-4.86170500517344">
        <ele>1472.04964828491</ele>
        <time>2018-09-02T13:52:37Z</time>
      </trkpt>
      <trkpt lat="42.9387184745101" lon="-4.86168941483354">
        <ele>1471.72262191772</ele>
        <time>2018-09-02T13:52:39Z</time>
      </trkpt>
      <trkpt lat="42.9386674706293" lon="-4.86166183837211">
        <ele>1471.6296043396</ele>
        <time>2018-09-02T13:52:40Z</time>
      </trkpt>
      <trkpt lat="42.9386128206206" lon="-4.86162068322754">
        <ele>1470.87936019897</ele>
        <time>2018-09-02T13:52:41Z</time>
      </trkpt>
      <trkpt lat="42.9385578772453" lon="-4.86156209372437">
        <ele>1470.40096664429</ele>
        <time>2018-09-02T13:52:42Z</time>
      </trkpt>
      <trkpt lat="42.9385052388934" lon="-4.8614876624242">
        <ele>1469.34664535522</ele>
        <time>2018-09-02T13:52:43Z</time>
      </trkpt>
      <trkpt lat="42.9384536901889" lon="-4.861399903898">
        <ele>1468.90072250366</ele>
        <time>2018-09-02T13:52:44Z</time>
      </trkpt>
      <trkpt lat="42.9384016385702" lon="-4.86130812205827">
        <ele>1468.80355453491</ele>
        <time>2018-09-02T13:52:45Z</time>
      </trkpt>
      <trkpt lat="42.9383554123742" lon="-4.86119898967898">
        <ele>1468.49129867554</ele>
        <time>2018-09-02T13:52:46Z</time>
      </trkpt>
      <trkpt lat="42.9383000079942" lon="-4.86111282371437">
        <ele>1467.94845199585</ele>
        <time>2018-09-02T13:52:47Z</time>
      </trkpt>
      <trkpt lat="42.9382462799949" lon="-4.86102808267331">
        <ele>1467.21078109741</ele>
        <time>2018-09-02T13:52:48Z</time>
      </trkpt>
      <trkpt lat="42.9381929291812" lon="-4.86094275489902">
        <ele>1466.5788230896</ele>
        <time>2018-09-02T13:52:49Z</time>
      </trkpt>
      <trkpt lat="42.9381397879151" lon="-4.86085658893442">
        <ele>1465.82711410522</ele>
        <time>2018-09-02T13:52:50Z</time>
      </trkpt>
      <trkpt lat="42.9380977107612" lon="-4.86076916568434">
        <ele>1465.10836410522</ele>
        <time>2018-09-02T13:52:51Z</time>
      </trkpt>
      <trkpt lat="42.9380612075729" lon="-4.8606794793204">
        <ele>1465.17367172241</ele>
        <time>2018-09-02T13:52:52Z</time>
      </trkpt>
      <trkpt lat="42.9380329186497" lon="-4.86060068943059">
        <ele>1464.4528465271</ele>
        <time>2018-09-02T13:52:53Z</time>
      </trkpt>
      <trkpt lat="42.9380229860944" lon="-4.86053212546265">
        <ele>1464.37093734741</ele>
        <time>2018-09-02T13:52:54Z</time>
      </trkpt>
      <trkpt lat="42.9380242433799" lon="-4.86042181961691">
        <ele>1463.4694480896</ele>
        <time>2018-09-02T13:52:56Z</time>
      </trkpt>
      <trkpt lat="42.9380395403532" lon="-4.86034043133711">
        <ele>1462.44088363647</ele>
        <time>2018-09-02T13:52:58Z</time>
      </trkpt>
      <trkpt lat="42.9380651051578" lon="-4.860274046664">
        <ele>1463.38692855835</ele>
        <time>2018-09-02T13:53:20Z</time>
      </trkpt>
      <trkpt lat="42.9381304840026" lon="-4.86019165255582">
        <ele>1462.20321273804</ele>
        <time>2018-09-02T13:53:22Z</time>
      </trkpt>
      <trkpt lat="42.9381635925201" lon="-4.8601302970246">
        <ele>1462.83395004272</ele>
        <time>2018-09-02T13:53:23Z</time>
      </trkpt>
      <trkpt lat="42.9382018559081" lon="-4.86007883213913">
        <ele>1462.28622055054</ele>
        <time>2018-09-02T13:53:24Z</time>
      </trkpt>
      <trkpt lat="42.9382458608997" lon="-4.86001521349406">
        <ele>1462.27975082397</ele>
        <time>2018-09-02T13:53:25Z</time>
      </trkpt>
      <trkpt lat="42.9382763710273" lon="-4.85993499868071">
        <ele>1461.05575180054</ele>
        <time>2018-09-02T13:53:26Z</time>
      </trkpt>
      <trkpt lat="42.9383049114076" lon="-4.85984967090642">
        <ele>1459.9430809021</ele>
        <time>2018-09-02T13:53:27Z</time>
      </trkpt>
      <trkpt lat="42.938319328281" lon="-4.85975026153481">
        <ele>1459.6628074646</ele>
        <time>2018-09-02T13:53:28Z</time>
      </trkpt>
      <trkpt lat="42.9383108206493" lon="-4.85964833759224">
        <ele>1459.01876449585</ele>
        <time>2018-09-02T13:53:29Z</time>
      </trkpt>
      <trkpt lat="42.938294056843" lon="-4.859560495247">
        <ele>1459.61385726929</ele>
        <time>2018-09-02T13:53:30Z</time>
      </trkpt>
      <trkpt lat="42.9382747365562" lon="-4.85947768204367">
        <ele>1459.43392562866</ele>
        <time>2018-09-02T13:53:31Z</time>
      </trkpt>
      <trkpt lat="42.938251728232" lon="-4.85939604230678">
        <ele>1459.07833480835</ele>
        <time>2018-09-02T13:53:32Z</time>
      </trkpt>
      <trkpt lat="42.9382246965942" lon="-4.85931666568374">
        <ele>1458.99422836304</ele>
        <time>2018-09-02T13:53:33Z</time>
      </trkpt>
      <trkpt lat="42.9381913366196" lon="-4.8592444136784">
        <ele>1458.9362449646</ele>
        <time>2018-09-02T13:53:34Z</time>
      </trkpt>
      <trkpt lat="42.9381621256871" lon="-4.85916428268408">
        <ele>1458.94369125366</ele>
        <time>2018-09-02T13:53:35Z</time>
      </trkpt>
      <trkpt lat="42.9381359741492" lon="-4.85908959992682">
        <ele>1458.78463363647</ele>
        <time>2018-09-02T13:53:36Z</time>
      </trkpt>
      <trkpt lat="42.9381112475348" lon="-4.85901106149411">
        <ele>1458.2008934021</ele>
        <time>2018-09-02T13:53:37Z</time>
      </trkpt>
      <trkpt lat="42.938079983036" lon="-4.85893445089912">
        <ele>1457.9811668396</ele>
        <time>2018-09-02T13:53:38Z</time>
      </trkpt>
      <trkpt lat="42.9380512750176" lon="-4.85885742120897">
        <ele>1457.97945785522</ele>
        <time>2018-09-02T13:53:39Z</time>
      </trkpt>
      <trkpt lat="42.938020597252" lon="-4.85878583975589">
        <ele>1457.79500961304</ele>
        <time>2018-09-02T13:53:40Z</time>
      </trkpt>
      <trkpt lat="42.9379837587876" lon="-4.85871601850247">
        <ele>1457.9284324646</ele>
        <time>2018-09-02T13:53:41Z</time>
      </trkpt>
      <trkpt lat="42.9379482614276" lon="-4.85864887945806">
        <ele>1457.86556625366</ele>
        <time>2018-09-02T13:53:42Z</time>
      </trkpt>
      <trkpt lat="42.937914901453" lon="-4.85856522806441">
        <ele>1457.56136703491</ele>
        <time>2018-09-02T13:53:43Z</time>
      </trkpt>
      <trkpt lat="42.9378810385642" lon="-4.85848568380331">
        <ele>1457.4987449646</ele>
        <time>2018-09-02T13:53:44Z</time>
      </trkpt>
      <trkpt lat="42.937856647226" lon="-4.85840312205707">
        <ele>1457.05660629272</ele>
        <time>2018-09-02T13:53:45Z</time>
      </trkpt>
      <trkpt lat="42.937847552861" lon="-4.858334222813">
        <ele>1456.17306137085</ele>
        <time>2018-09-02T13:53:46Z</time>
      </trkpt>
      <trkpt lat="42.9378314176974" lon="-4.85824177042102">
        <ele>1455.61471176147</ele>
        <time>2018-09-02T13:53:48Z</time>
      </trkpt>
      <trkpt lat="42.9378290707645" lon="-4.85817228444373">
        <ele>1455.65829086304</ele>
        <time>2018-09-02T13:54:35Z</time>
      </trkpt>
      <trkpt lat="42.9378515761746" lon="-4.85810841434156">
        <ele>1456.0085105896</ele>
        <time>2018-09-02T13:54:50Z</time>
      </trkpt>
      <trkpt lat="42.9378582397876" lon="-4.85804119147813">
        <ele>1456.11324691772</ele>
        <time>2018-09-02T13:54:52Z</time>
      </trkpt>
      <trkpt lat="42.9378745006797" lon="-4.85791856423473">
        <ele>1455.97469711304</ele>
        <time>2018-09-02T13:54:54Z</time>
      </trkpt>
      <trkpt lat="42.9378879536343" lon="-4.85785712488448">
        <ele>1455.95882797241</ele>
        <time>2018-09-02T13:54:55Z</time>
      </trkpt>
      <trkpt lat="42.9379047593502" lon="-4.85779208131587">
        <ele>1455.91903305054</ele>
        <time>2018-09-02T13:54:56Z</time>
      </trkpt>
      <trkpt lat="42.9379225708944" lon="-4.8577229306147">
        <ele>1455.44808578491</ele>
        <time>2018-09-02T13:54:57Z</time>
      </trkpt>
      <trkpt lat="42.9379394604293" lon="-4.85764925368583">
        <ele>1455.72933578491</ele>
        <time>2018-09-02T13:54:58Z</time>
      </trkpt>
      <trkpt lat="42.9379550088597" lon="-4.85756702721571">
        <ele>1455.1862449646</ele>
        <time>2018-09-02T13:54:59Z</time>
      </trkpt>
      <trkpt lat="42.937963726039" lon="-4.85748429783141">
        <ele>1455.22677230835</ele>
        <time>2018-09-02T13:55:00Z</time>
      </trkpt>
      <trkpt lat="42.9379654443291" lon="-4.85740257427549">
        <ele>1455.0573387146</ele>
        <time>2018-09-02T13:55:01Z</time>
      </trkpt>
      <trkpt lat="42.9379612533776" lon="-4.85731984489118">
        <ele>1455.12813949585</ele>
        <time>2018-09-02T13:55:02Z</time>
      </trkpt>
      <trkpt lat="42.937946585047" lon="-4.85722546466147">
        <ele>1455.40645980835</ele>
        <time>2018-09-02T13:55:03Z</time>
      </trkpt>
      <trkpt lat="42.9379396280674" lon="-4.8571620974735">
        <ele>1455.82113265991</ele>
        <time>2018-09-02T13:55:04Z</time>
      </trkpt>
      <trkpt lat="42.9379324615402" lon="-4.85709311441039">
        <ele>1455.96285629272</ele>
        <time>2018-09-02T13:55:05Z</time>
      </trkpt>
      <trkpt lat="42.9379349761111" lon="-4.85702061094796">
        <ele>1456.08358383179</ele>
        <time>2018-09-02T13:55:06Z</time>
      </trkpt>
      <trkpt lat="42.9379314976213" lon="-4.85694542527651">
        <ele>1456.1198387146</ele>
        <time>2018-09-02T13:55:07Z</time>
      </trkpt>
      <trkpt lat="42.9379431484667" lon="-4.85680754296934">
        <ele>1455.62606430054</ele>
        <time>2018-09-02T13:55:09Z</time>
      </trkpt>
      <trkpt lat="42.9379470041422" lon="-4.85674358904814">
        <ele>1454.88619613647</ele>
        <time>2018-09-02T13:55:10Z</time>
      </trkpt>
      <trkpt lat="42.9379657796053" lon="-4.85664870590424">
        <ele>1455.40560531616</ele>
        <time>2018-09-02T13:55:12Z</time>
      </trkpt>
      <trkpt lat="42.9379705991996" lon="-4.85653487965917">
        <ele>1454.8493309021</ele>
        <time>2018-09-02T13:55:14Z</time>
      </trkpt>
      <trkpt lat="42.937946668866" lon="-4.85641778447186">
        <ele>1454.91793441772</ele>
        <time>2018-09-02T13:55:16Z</time>
      </trkpt>
      <trkpt lat="42.9379218165231" lon="-4.8563518188939">
        <ele>1455.28658676147</ele>
        <time>2018-09-02T13:55:17Z</time>
      </trkpt>
      <trkpt lat="42.9378971737278" lon="-4.85627378337538">
        <ele>1454.14449691772</ele>
        <time>2018-09-02T13:55:18Z</time>
      </trkpt>
      <trkpt lat="42.9378625564677" lon="-4.85620094463681">
        <ele>1453.19442367554</ele>
        <time>2018-09-02T13:55:19Z</time>
      </trkpt>
      <trkpt lat="42.9378192220283" lon="-4.85613187775468">
        <ele>1452.34420394897</ele>
        <time>2018-09-02T13:55:20Z</time>
      </trkpt>
      <trkpt lat="42.9377710260851" lon="-4.85605292022681">
        <ele>1451.33712387085</ele>
        <time>2018-09-02T13:55:21Z</time>
      </trkpt>
      <trkpt lat="42.9377179267285" lon="-4.85596046783482">
        <ele>1451.02914047241</ele>
        <time>2018-09-02T13:55:22Z</time>
      </trkpt>
      <trkpt lat="42.937662480439" lon="-4.85586944036638">
        <ele>1450.29769515991</ele>
        <time>2018-09-02T13:55:23Z</time>
      </trkpt>
      <trkpt lat="42.9376039747549" lon="-4.8557854536966">
        <ele>1449.87093734741</ele>
        <time>2018-09-02T13:55:24Z</time>
      </trkpt>
      <trkpt lat="42.9375456786183" lon="-4.85569425859009">
        <ele>1449.6774559021</ele>
        <time>2018-09-02T13:55:25Z</time>
      </trkpt>
      <trkpt lat="42.9374876758484" lon="-4.85559560358976">
        <ele>1448.10494613647</ele>
        <time>2018-09-02T13:55:26Z</time>
      </trkpt>
      <trkpt lat="42.9374373006103" lon="-4.85549242236172">
        <ele>1447.68453598022</ele>
        <time>2018-09-02T13:55:27Z</time>
      </trkpt>
      <trkpt lat="42.9373939242614" lon="-4.85539183952366">
        <ele>1446.33138656616</ele>
        <time>2018-09-02T13:55:28Z</time>
      </trkpt>
      <trkpt lat="42.9373521404741" lon="-4.85528270714437">
        <ele>1446.32455062866</ele>
        <time>2018-09-02T13:55:29Z</time>
      </trkpt>
      <trkpt lat="42.9373120330674" lon="-4.85517701134538">
        <ele>1445.64779281616</ele>
        <time>2018-09-02T13:55:30Z</time>
      </trkpt>
      <trkpt lat="42.9372782120881" lon="-4.85506980680381">
        <ele>1445.40243148804</ele>
        <time>2018-09-02T13:55:31Z</time>
      </trkpt>
      <trkpt lat="42.9372521862788" lon="-4.8549600876913">
        <ele>1445.10873031616</ele>
        <time>2018-09-02T13:55:32Z</time>
      </trkpt>
      <trkpt lat="42.9372319858921" lon="-4.85484944656943">
        <ele>1445.03951644897</ele>
        <time>2018-09-02T13:55:33Z</time>
      </trkpt>
      <trkpt lat="42.9372101091248" lon="-4.85474324785625">
        <ele>1445.4118309021</ele>
        <time>2018-09-02T13:55:34Z</time>
      </trkpt>
      <trkpt lat="42.9371832032157" lon="-4.85464283265626">
        <ele>1445.34298324585</ele>
        <time>2018-09-02T13:55:35Z</time>
      </trkpt>
      <trkpt lat="42.9371550819305" lon="-4.85454786569332">
        <ele>1445.32662582397</ele>
        <time>2018-09-02T13:55:36Z</time>
      </trkpt>
      <trkpt lat="42.9371231887889" lon="-4.8544661421374">
        <ele>1444.9303855896</ele>
        <time>2018-09-02T13:55:37Z</time>
      </trkpt>
      <trkpt lat="42.9370858474103" lon="-4.85439020209466">
        <ele>1445.18050765991</ele>
        <time>2018-09-02T13:55:38Z</time>
      </trkpt>
      <trkpt lat="42.9370337538821" lon="-4.85431451350903">
        <ele>1445.27169418335</ele>
        <time>2018-09-02T13:55:39Z</time>
      </trkpt>
      <trkpt lat="42.9369872343195" lon="-4.85423379578148">
        <ele>1444.58016586304</ele>
        <time>2018-09-02T13:55:40Z</time>
      </trkpt>
      <trkpt lat="42.9369394993809" lon="-4.85413891263758">
        <ele>1443.33480453491</ele>
        <time>2018-09-02T13:55:41Z</time>
      </trkpt>
      <trkpt lat="42.9368951172036" lon="-4.85404528677916">
        <ele>1442.57711410522</ele>
        <time>2018-09-02T13:55:42Z</time>
      </trkpt>
      <trkpt lat="42.9368434008611" lon="-4.85397211276447">
        <ele>1442.35921859741</ele>
        <time>2018-09-02T13:55:43Z</time>
      </trkpt>
      <trkpt lat="42.936789044219" lon="-4.85389885493075">
        <ele>1442.29610824585</ele>
        <time>2018-09-02T13:55:44Z</time>
      </trkpt>
      <trkpt lat="42.9367354419482" lon="-4.85383029096281">
        <ele>1442.19222640991</ele>
        <time>2018-09-02T13:55:45Z</time>
      </trkpt>
      <trkpt lat="42.9366789479209" lon="-4.85376784578418">
        <ele>1442.41598129272</ele>
        <time>2018-09-02T13:55:46Z</time>
      </trkpt>
      <trkpt lat="42.9366374575002" lon="-4.85371990129804">
        <ele>1440.89974594116</ele>
        <time>2018-09-02T13:55:47Z</time>
      </trkpt>
      <trkpt lat="42.9365837714103" lon="-4.85366776586031">
        <ele>1441.47396469116</ele>
        <time>2018-09-02T13:55:48Z</time>
      </trkpt>
      <trkpt lat="42.9365388024998" lon="-4.85362409614479">
        <ele>1440.34017562866</ele>
        <time>2018-09-02T13:55:49Z</time>
      </trkpt>
      <trkpt lat="42.9364793748063" lon="-4.85359123908435">
        <ele>1440.31844711304</ele>
        <time>2018-09-02T13:55:50Z</time>
      </trkpt>
      <trkpt lat="42.9364052368728" lon="-4.85358076170539">
        <ele>1439.8346824646</ele>
        <time>2018-09-02T13:55:51Z</time>
      </trkpt>
      <trkpt lat="42.9363350803432" lon="-4.85358411446666">
        <ele>1439.60628890991</ele>
        <time>2018-09-02T13:55:52Z</time>
      </trkpt>
      <trkpt lat="42.9362623254237" lon="-4.85359475948369">
        <ele>1440.58395004272</ele>
        <time>2018-09-02T13:55:53Z</time>
      </trkpt>
      <trkpt lat="42.9362002993402" lon="-4.85361252911841">
        <ele>1440.71981430054</ele>
        <time>2018-09-02T13:55:54Z</time>
      </trkpt>
      <trkpt lat="42.9361369321523" lon="-4.85363767482792">
        <ele>1440.55306625366</ele>
        <time>2018-09-02T13:55:55Z</time>
      </trkpt>
      <trkpt lat="42.9360748222498" lon="-4.85366206616615">
        <ele>1441.76986312866</ele>
        <time>2018-09-02T13:55:56Z</time>
      </trkpt>
      <trkpt lat="42.9360219743503" lon="-4.85368260182892">
        <ele>1442.25692367554</ele>
        <time>2018-09-02T13:55:57Z</time>
      </trkpt>
      <trkpt lat="42.9359742813212" lon="-4.85369718634044">
        <ele>1442.98666000366</ele>
        <time>2018-09-02T13:55:58Z</time>
      </trkpt>
      <trkpt lat="42.935928767587" lon="-4.85371864401256">
        <ele>1442.84408187866</ele>
        <time>2018-09-02T13:55:59Z</time>
      </trkpt>
      <trkpt lat="42.9358779313443" lon="-4.85374496318852">
        <ele>1443.83163070679</ele>
        <time>2018-09-02T13:56:00Z</time>
      </trkpt>
      <trkpt lat="42.9358307412294" lon="-4.85376943834578">
        <ele>1444.14181137085</ele>
        <time>2018-09-02T13:56:01Z</time>
      </trkpt>
      <trkpt lat="42.9357801564438" lon="-4.85380003229236">
        <ele>1444.81539535522</ele>
        <time>2018-09-02T13:56:02Z</time>
      </trkpt>
      <trkpt lat="42.9357268894491" lon="-4.85382584855412">
        <ele>1445.24300765991</ele>
        <time>2018-09-02T13:56:03Z</time>
      </trkpt>
      <trkpt lat="42.9356755502922" lon="-4.85384529456948">
        <ele>1445.12496566772</ele>
        <time>2018-09-02T13:56:04Z</time>
      </trkpt>
      <trkpt lat="42.9356258875159" lon="-4.85386230983292">
        <ele>1445.48666000366</ele>
        <time>2018-09-02T13:56:05Z</time>
      </trkpt>
      <trkpt lat="42.9355714051453" lon="-4.85388536006664">
        <ele>1444.97982406616</ele>
        <time>2018-09-02T13:56:06Z</time>
      </trkpt>
      <trkpt lat="42.9355183476982" lon="-4.85389810055946">
        <ele>1445.54989242554</ele>
        <time>2018-09-02T13:56:07Z</time>
      </trkpt>
      <trkpt lat="42.9354711994929" lon="-4.85391519964193">
        <ele>1445.77914047241</ele>
        <time>2018-09-02T13:56:08Z</time>
      </trkpt>
      <trkpt lat="42.9354234645543" lon="-4.8539169598416">
        <ele>1446.74593734741</ele>
        <time>2018-09-02T13:56:09Z</time>
      </trkpt>
      <trkpt lat="42.9353776155439" lon="-4.85393162817215">
        <ele>1447.31869125366</ele>
        <time>2018-09-02T13:56:10Z</time>
      </trkpt>
      <trkpt lat="42.9353308445243" lon="-4.8539447039411">
        <ele>1447.9792137146</ele>
        <time>2018-09-02T13:56:11Z</time>
      </trkpt>
      <trkpt lat="42.935244217555" lon="-4.85396658070838">
        <ele>1448.47201156616</ele>
        <time>2018-09-02T13:56:13Z</time>
      </trkpt>
      <trkpt lat="42.9351952253309" lon="-4.85396976583158">
        <ele>1448.80270004272</ele>
        <time>2018-09-02T13:56:14Z</time>
      </trkpt>
      <trkpt lat="42.9351473227543" lon="-4.8539827577815">
        <ele>1448.99605941772</ele>
        <time>2018-09-02T13:56:15Z</time>
      </trkpt>
      <trkpt lat="42.9350972408829" lon="-4.85399105586564">
        <ele>1449.22652816772</ele>
        <time>2018-09-02T13:56:16Z</time>
      </trkpt>
      <trkpt lat="42.9350432195169" lon="-4.85399574973141">
        <ele>1449.0387840271</ele>
        <time>2018-09-02T13:56:17Z</time>
      </trkpt>
      <trkpt lat="42.9349868093086" lon="-4.85399826430236">
        <ele>1448.67330551147</ele>
        <time>2018-09-02T13:56:18Z</time>
      </trkpt>
      <trkpt lat="42.9349345900518" lon="-4.8540099989668">
        <ele>1447.93453598022</ele>
        <time>2018-09-02T13:56:19Z</time>
      </trkpt>
      <trkpt lat="42.9348803591383" lon="-4.85400731675779">
        <ele>1447.67721176147</ele>
        <time>2018-09-02T13:56:20Z</time>
      </trkpt>
      <trkpt lat="42.9348265892295" lon="-4.85399633646463">
        <ele>1447.16830062866</ele>
        <time>2018-09-02T13:56:21Z</time>
      </trkpt>
      <trkpt lat="42.934764563146" lon="-4.85397823155378">
        <ele>1447.48189926147</ele>
        <time>2018-09-02T13:56:22Z</time>
      </trkpt>
      <trkpt lat="42.9347127210749" lon="-4.85395987518584">
        <ele>1446.10091781616</ele>
        <time>2018-09-02T13:56:23Z</time>
      </trkpt>
      <trkpt lat="42.9346568556902" lon="-4.85393623821889">
        <ele>1446.48324203491</ele>
        <time>2018-09-02T13:56:24Z</time>
      </trkpt>
      <trkpt lat="42.9345951648829" lon="-4.85390036367332">
        <ele>1446.5339012146</ele>
        <time>2018-09-02T13:56:25Z</time>
      </trkpt>
      <trkpt lat="42.9345205659447" lon="-4.85386138782357">
        <ele>1445.19430160522</ele>
        <time>2018-09-02T13:56:26Z</time>
      </trkpt>
      <trkpt lat="42.934448774944" lon="-4.8538133595184">
        <ele>1444.62997055054</ele>
        <time>2018-09-02T13:56:27Z</time>
      </trkpt>
      <trkpt lat="42.9343755171103" lon="-4.8537578713194">
        <ele>1443.34225082397</ele>
        <time>2018-09-02T13:56:28Z</time>
      </trkpt>
      <trkpt lat="42.9343012115387" lon="-4.85369852744495">
        <ele>1442.39120101929</ele>
        <time>2018-09-02T13:56:29Z</time>
      </trkpt>
      <trkpt lat="42.9342223378298" lon="-4.85363189131473">
        <ele>1440.67281723022</ele>
        <time>2018-09-02T13:56:30Z</time>
      </trkpt>
      <trkpt lat="42.93413835116" lon="-4.85356776975547">
        <ele>1440.48678207397</ele>
        <time>2018-09-02T13:56:31Z</time>
      </trkpt>
      <trkpt lat="42.9340543225807" lon="-4.85349132679855">
        <ele>1439.45174789429</ele>
        <time>2018-09-02T13:56:32Z</time>
      </trkpt>
      <trkpt lat="42.9339653905881" lon="-4.85341597348904">
        <ele>1438.60018539429</ele>
        <time>2018-09-02T13:56:33Z</time>
      </trkpt>
      <trkpt lat="42.9338810686422" lon="-4.85334238037919">
        <ele>1437.5778465271</ele>
        <time>2018-09-02T13:56:34Z</time>
      </trkpt>
      <trkpt lat="42.9337899992642" lon="-4.85327113420223">
        <ele>1436.7887840271</ele>
        <time>2018-09-02T13:56:35Z</time>
      </trkpt>
      <trkpt lat="42.9336951580298" lon="-4.85319293104564">
        <ele>1436.16402816772</ele>
        <time>2018-09-02T13:56:36Z</time>
      </trkpt>
      <trkpt lat="42.93359646112" lon="-4.85310626216685">
        <ele>1435.5749168396</ele>
        <time>2018-09-02T13:56:37Z</time>
      </trkpt>
      <trkpt lat="42.9335019970713" lon="-4.8530207667545">
        <ele>1434.71603012085</ele>
        <time>2018-09-02T13:56:38Z</time>
      </trkpt>
      <trkpt lat="42.9334098799554" lon="-4.85293384641861">
        <ele>1433.71969223022</ele>
        <time>2018-09-02T13:56:39Z</time>
      </trkpt>
      <trkpt lat="42.9333146196259" lon="-4.85285396688138">
        <ele>1433.05294418335</ele>
        <time>2018-09-02T13:56:40Z</time>
      </trkpt>
      <trkpt lat="42.9332117736739" lon="-4.85279579647337">
        <ele>1433.40279769897</ele>
        <time>2018-09-02T13:56:41Z</time>
      </trkpt>
      <trkpt lat="42.9331229674098" lon="-4.85273997299825">
        <ele>1432.79989242554</ele>
        <time>2018-09-02T13:56:42Z</time>
      </trkpt>
      <trkpt lat="42.9330269946185" lon="-4.85269479454016">
        <ele>1433.24593734741</ele>
        <time>2018-09-02T13:56:43Z</time>
      </trkpt>
      <trkpt lat="42.9329360509691" lon="-4.85263830051278">
        <ele>1432.47347640991</ele>
        <time>2018-09-02T13:56:44Z</time>
      </trkpt>
      <trkpt lat="42.9328528605801" lon="-4.8525749333248">
        <ele>1431.70455551147</ele>
        <time>2018-09-02T13:56:45Z</time>
      </trkpt>
      <trkpt lat="42.9327648086873" lon="-4.85249983147239">
        <ele>1430.63692855835</ele>
        <time>2018-09-02T13:56:46Z</time>
      </trkpt>
      <trkpt lat="42.932695238891" lon="-4.85240587033783">
        <ele>1429.95602035522</ele>
        <time>2018-09-02T13:56:47Z</time>
      </trkpt>
      <trkpt lat="42.9326287703988" lon="-4.85229640268241">
        <ele>1429.42123031616</ele>
        <time>2018-09-02T13:56:48Z</time>
      </trkpt>
      <trkpt lat="42.9325613798973" lon="-4.8521742783532">
        <ele>1427.54842758179</ele>
        <time>2018-09-02T13:56:49Z</time>
      </trkpt>
      <trkpt lat="42.9324964201478" lon="-4.85204829834854">
        <ele>1426.87447738647</ele>
        <time>2018-09-02T13:56:50Z</time>
      </trkpt>
      <trkpt lat="42.9324332205979" lon="-4.85191594809746">
        <ele>1426.42245101929</ele>
        <time>2018-09-02T13:56:51Z</time>
      </trkpt>
      <trkpt lat="42.9323569033695" lon="-4.85178527422701">
        <ele>1425.21603012085</ele>
        <time>2018-09-02T13:56:52Z</time>
      </trkpt>
      <trkpt lat="42.9322701087621" lon="-4.85165862367009">
        <ele>1424.00484848022</ele>
        <time>2018-09-02T13:56:53Z</time>
      </trkpt>
      <trkpt lat="42.9321874212873" lon="-4.85153809190248">
        <ele>1422.33578109741</ele>
        <time>2018-09-02T13:56:54Z</time>
      </trkpt>
      <trkpt lat="42.9321133671728" lon="-4.85143247992252">
        <ele>1421.38875961304</ele>
        <time>2018-09-02T13:56:55Z</time>
      </trkpt>
      <trkpt lat="42.9320573760596" lon="-4.85131345689749">
        <ele>1420.28524398804</ele>
        <time>2018-09-02T13:56:56Z</time>
      </trkpt>
      <trkpt lat="42.9320093477545" lon="-4.8511868901596">
        <ele>1419.3288230896</ele>
        <time>2018-09-02T13:56:57Z</time>
      </trkpt>
      <trkpt lat="42.9319707071808" lon="-4.85106350854491">
        <ele>1417.65279769897</ele>
        <time>2018-09-02T13:56:58Z</time>
      </trkpt>
      <trkpt lat="42.9319570027692" lon="-4.85095068812822">
        <ele>1417.10433578491</ele>
        <time>2018-09-02T13:56:59Z</time>
      </trkpt>
      <trkpt lat="42.9319581343261" lon="-4.85083292238866">
        <ele>1416.97957992554</ele>
        <time>2018-09-02T13:57:00Z</time>
      </trkpt>
      <trkpt lat="42.9319680249718" lon="-4.85070778057431">
        <ele>1415.05916976929</ele>
        <time>2018-09-02T13:57:01Z</time>
      </trkpt>
      <trkpt lat="42.9319779156176" lon="-4.85057869926547">
        <ele>1413.79256820679</ele>
        <time>2018-09-02T13:57:02Z</time>
      </trkpt>
      <trkpt lat="42.9319966910807" lon="-4.85043662600671">
        <ele>1412.77584457397</ele>
        <time>2018-09-02T13:57:03Z</time>
      </trkpt>
      <trkpt lat="42.9320029775081" lon="-4.85029396601473">
        <ele>1411.46895980835</ele>
        <time>2018-09-02T13:57:04Z</time>
      </trkpt>
      <trkpt lat="42.9319940507812" lon="-4.85015256330823">
        <ele>1411.0465965271</ele>
        <time>2018-09-02T13:57:05Z</time>
      </trkpt>
      <trkpt lat="42.9319716710997" lon="-4.85000998713528">
        <ele>1408.99361801147</ele>
        <time>2018-09-02T13:57:06Z</time>
      </trkpt>
      <trkpt lat="42.9319551168409" lon="-4.84985634685014">
        <ele>1406.46175765991</ele>
        <time>2018-09-02T13:57:07Z</time>
      </trkpt>
      <trkpt lat="42.9319520155368" lon="-4.8497013654605">
        <ele>1405.08724594116</ele>
        <time>2018-09-02T13:57:08Z</time>
      </trkpt>
      <trkpt lat="42.9319460643855" lon="-4.84955275431727">
        <ele>1404.73421859741</ele>
        <time>2018-09-02T13:57:09Z</time>
      </trkpt>
      <trkpt lat="42.9319561645788" lon="-4.84940665774499">
        <ele>1403.62057113647</ele>
        <time>2018-09-02T13:57:10Z</time>
      </trkpt>
      <trkpt lat="42.9319687374336" lon="-4.84926114790593">
        <ele>1403.1208152771</ele>
        <time>2018-09-02T13:57:11Z</time>
      </trkpt>
      <trkpt lat="42.9319731379328" lon="-4.84912678599809">
        <ele>1402.60567855835</ele>
        <time>2018-09-02T13:57:12Z</time>
      </trkpt>
      <trkpt lat="42.9319693660763" lon="-4.8489986266986">
        <ele>1401.9714012146</ele>
        <time>2018-09-02T13:57:13Z</time>
      </trkpt>
      <trkpt lat="42.931961948092" lon="-4.84890986234401">
        <ele>1402.01021957397</ele>
        <time>2018-09-02T13:57:14Z</time>
      </trkpt>
      <trkpt lat="42.9319559550313" lon="-4.84881028533433">
        <ele>1399.31966781616</ele>
        <time>2018-09-02T13:57:15Z</time>
      </trkpt>
      <trkpt lat="42.931943340267" lon="-4.84871858731364">
        <ele>1398.98360824585</ele>
        <time>2018-09-02T13:57:16Z</time>
      </trkpt>
      <trkpt lat="42.9319259897274" lon="-4.8486204352275">
        <ele>1397.07918930054</ele>
        <time>2018-09-02T13:57:17Z</time>
      </trkpt>
      <trkpt lat="42.931906376074" lon="-4.84851851128493">
        <ele>1394.80819320679</ele>
        <time>2018-09-02T13:57:18Z</time>
      </trkpt>
      <trkpt lat="42.9318901990009" lon="-4.848428824921">
        <ele>1393.58492660522</ele>
        <time>2018-09-02T13:57:19Z</time>
      </trkpt>
      <trkpt lat="42.9318800988076" lon="-4.84833545051967">
        <ele>1391.86800765991</ele>
        <time>2018-09-02T13:57:20Z</time>
      </trkpt>
      <trkpt lat="42.9318813141835" lon="-4.84822011553203">
        <ele>1390.6530418396</ele>
        <time>2018-09-02T13:57:21Z</time>
      </trkpt>
      <trkpt lat="42.9318916239244" lon="-4.84810251743053">
        <ele>1389.42440414429</ele>
        <time>2018-09-02T13:57:22Z</time>
      </trkpt>
      <trkpt lat="42.9319052026076" lon="-4.84797812998746">
        <ele>1388.6237449646</ele>
        <time>2018-09-02T13:57:23Z</time>
      </trkpt>
      <trkpt lat="42.9319256125418" lon="-4.84785399400149">
        <ele>1387.54977035522</ele>
        <time>2018-09-02T13:57:24Z</time>
      </trkpt>
      <trkpt lat="42.9319409514246" lon="-4.84770219773506">
        <ele>1386.46297836304</ele>
        <time>2018-09-02T13:57:25Z</time>
      </trkpt>
      <trkpt lat="42.931952518451" lon="-4.84756666236077">
        <ele>1385.20650863647</ele>
        <time>2018-09-02T13:57:26Z</time>
      </trkpt>
      <trkpt lat="42.9319536919174" lon="-4.8474425263748">
        <ele>1384.24862289429</ele>
        <time>2018-09-02T13:57:27Z</time>
      </trkpt>
      <trkpt lat="42.9319489142326" lon="-4.84734211117481">
        <ele>1384.07284164429</ele>
        <time>2018-09-02T13:57:28Z</time>
      </trkpt>
      <trkpt lat="42.9319424182576" lon="-4.84723733738516">
        <ele>1383.49117660522</ele>
        <time>2018-09-02T13:57:29Z</time>
      </trkpt>
      <trkpt lat="42.9319166858149" lon="-4.84712535515879">
        <ele>1382.34847640991</ele>
        <time>2018-09-02T13:57:30Z</time>
      </trkpt>
      <trkpt lat="42.9318778356937" lon="-4.84701932408367">
        <ele>1380.65633773804</ele>
        <time>2018-09-02T13:57:31Z</time>
      </trkpt>
      <trkpt lat="42.9318280052793" lon="-4.84690038487767">
        <ele>1379.20248031616</ele>
        <time>2018-09-02T13:57:32Z</time>
      </trkpt>
      <trkpt lat="42.9317593994019" lon="-4.84679929912542">
        <ele>1377.13766098022</ele>
        <time>2018-09-02T13:57:33Z</time>
      </trkpt>
      <trkpt lat="42.9317021090937" lon="-4.84668404795681">
        <ele>1375.38180160522</ele>
        <time>2018-09-02T13:57:34Z</time>
      </trkpt>
      <trkpt lat="42.9316326231164" lon="-4.84658321366165">
        <ele>1375.1081199646</ele>
        <time>2018-09-02T13:57:35Z</time>
      </trkpt>
      <trkpt lat="42.931556305888" lon="-4.84648304991875">
        <ele>1374.1618309021</ele>
        <time>2018-09-02T13:57:36Z</time>
      </trkpt>
      <trkpt lat="42.9314833414209" lon="-4.84637802467202">
        <ele>1373.19381332397</ele>
        <time>2018-09-02T13:57:37Z</time>
      </trkpt>
      <trkpt lat="42.9314148193625" lon="-4.84627266414915">
        <ele>1372.77633285522</ele>
        <time>2018-09-02T13:57:38Z</time>
      </trkpt>
      <trkpt lat="42.9313465906707" lon="-4.84616520815049">
        <ele>1371.77877426147</ele>
        <time>2018-09-02T13:57:39Z</time>
      </trkpt>
      <trkpt lat="42.9312725365562" lon="-4.84606051817988">
        <ele>1369.90084457397</ele>
        <time>2018-09-02T13:57:40Z</time>
      </trkpt>
      <trkpt lat="42.9311854485822" lon="-4.84596647322629">
        <ele>1369.60274887085</ele>
        <time>2018-09-02T13:57:41Z</time>
      </trkpt>
      <trkpt lat="42.931100204627" lon="-4.84586672857855">
        <ele>1368.39498519897</ele>
        <time>2018-09-02T13:57:42Z</time>
      </trkpt>
      <trkpt lat="42.9310100153488" lon="-4.8457812331662">
        <ele>1367.05099105835</ele>
        <time>2018-09-02T13:57:43Z</time>
      </trkpt>
      <trkpt lat="42.9309249390316" lon="-4.84569833614383">
        <ele>1365.92208480835</ele>
        <time>2018-09-02T13:57:44Z</time>
      </trkpt>
      <trkpt lat="42.9308410780904" lon="-4.8456226475582">
        <ele>1364.95211410522</ele>
        <time>2018-09-02T13:57:45Z</time>
      </trkpt>
      <trkpt lat="42.9307732684938" lon="-4.84554486349676">
        <ele>1363.91805648804</ele>
        <time>2018-09-02T13:57:46Z</time>
      </trkpt>
      <trkpt lat="42.9307023156834" lon="-4.84544998035286">
        <ele>1363.57235336304</ele>
        <time>2018-09-02T13:57:47Z</time>
      </trkpt>
      <trkpt lat="42.930629979859" lon="-4.84535115771447">
        <ele>1363.07381820679</ele>
        <time>2018-09-02T13:57:48Z</time>
      </trkpt>
      <trkpt lat="42.9305638885525" lon="-4.84525526874219">
        <ele>1362.4098777771</ele>
        <time>2018-09-02T13:57:49Z</time>
      </trkpt>
      <trkpt lat="42.9304985516173" lon="-4.84517170116757">
        <ele>1361.88387680054</ele>
        <time>2018-09-02T13:57:50Z</time>
      </trkpt>
      <trkpt lat="42.9304344719676" lon="-4.84508050606106">
        <ele>1361.95663070679</ele>
        <time>2018-09-02T13:57:51Z</time>
      </trkpt>
      <trkpt lat="42.9303743318123" lon="-4.84497916885172">
        <ele>1360.25741195679</ele>
        <time>2018-09-02T13:57:52Z</time>
      </trkpt>
      <trkpt lat="42.9303117189956" lon="-4.84488210641299">
        <ele>1359.78426742554</ele>
        <time>2018-09-02T13:57:53Z</time>
      </trkpt>
      <trkpt lat="42.9302464239699" lon="-4.8447899054781">
        <ele>1358.61031723022</ele>
        <time>2018-09-02T13:57:54Z</time>
      </trkpt>
      <trkpt lat="42.9301814223108" lon="-4.84469150193487">
        <ele>1358.11776351929</ele>
        <time>2018-09-02T13:57:55Z</time>
      </trkpt>
      <trkpt lat="42.9301117686955" lon="-4.84459963627611">
        <ele>1357.66036605835</ele>
        <time>2018-09-02T13:57:56Z</time>
      </trkpt>
      <trkpt lat="42.930044462013" lon="-4.84450089745675">
        <ele>1356.10946273804</ele>
        <time>2018-09-02T13:57:57Z</time>
      </trkpt>
      <trkpt lat="42.9299746407596" lon="-4.84440609813188">
        <ele>1354.15963363647</ele>
        <time>2018-09-02T13:57:58Z</time>
      </trkpt>
      <trkpt lat="42.9299004609165" lon="-4.84431456774924">
        <ele>1353.57870101929</ele>
        <time>2018-09-02T13:57:59Z</time>
      </trkpt>
      <trkpt lat="42.929835752624" lon="-4.84421951696728">
        <ele>1352.76485824585</ele>
        <time>2018-09-02T13:58:00Z</time>
      </trkpt>
      <trkpt lat="42.9297729721693" lon="-4.84411449172054">
        <ele>1352.23360824585</ele>
        <time>2018-09-02T13:58:01Z</time>
      </trkpt>
      <trkpt lat="42.9297193698985" lon="-4.84402354807113">
        <ele>1350.75887680054</ele>
        <time>2018-09-02T13:58:02Z</time>
      </trkpt>
      <trkpt lat="42.9296800587726" lon="-4.84394777566646">
        <ele>1349.63705062866</ele>
        <time>2018-09-02T13:58:03Z</time>
      </trkpt>
      <trkpt lat="42.9296469083456" lon="-4.84389094636295">
        <ele>1349.09493637085</ele>
        <time>2018-09-02T13:58:04Z</time>
      </trkpt>
      <trkpt lat="42.9296228522835" lon="-4.84383638017331">
        <ele>1349.10079574585</ele>
        <time>2018-09-02T13:58:05Z</time>
      </trkpt>
      <trkpt lat="42.9295822000531" lon="-4.84376312233959">
        <ele>1348.50191879272</ele>
        <time>2018-09-02T13:58:07Z</time>
      </trkpt>
      <trkpt lat="42.9295440623937" lon="-4.84369103797231">
        <ele>1349.3180809021</ele>
        <time>2018-09-02T13:58:10Z</time>
      </trkpt>
      <trkpt lat="42.9295026977015" lon="-4.84364418313358">
        <ele>1349.78499984741</ele>
        <time>2018-09-02T13:58:12Z</time>
      </trkpt>
      <trkpt lat="42.9294530349252" lon="-4.84360143542741">
        <ele>1350.0133934021</ele>
        <time>2018-09-02T13:58:14Z</time>
      </trkpt>
      <trkpt lat="42.9294081917432" lon="-4.84355642460738">
        <ele>1350.46224594116</ele>
        <time>2018-09-02T13:58:16Z</time>
      </trkpt>
      <trkpt lat="42.929370556998" lon="-4.84351535328184">
        <ele>1349.50521469116</ele>
        <time>2018-09-02T13:58:18Z</time>
      </trkpt>
      <trkpt lat="42.9293216066835" lon="-4.8434756230608">
        <ele>1348.65328598022</ele>
        <time>2018-09-02T13:58:20Z</time>
      </trkpt>
      <trkpt lat="42.9292828822908" lon="-4.84344100580071">
        <ele>1348.32381820679</ele>
        <time>2018-09-02T13:58:22Z</time>
      </trkpt>
      <trkpt lat="42.9292444931743" lon="-4.84337520786081">
        <ele>1348.40536117554</ele>
        <time>2018-09-02T13:58:25Z</time>
      </trkpt>
      <trkpt lat="42.9292524559823" lon="-4.84331293032024">
        <ele>1347.11764144897</ele>
        <time>2018-09-02T13:59:03Z</time>
      </trkpt>
      <trkpt lat="42.9292178387222" lon="-4.84326138161574">
        <ele>1343.24300765991</ele>
        <time>2018-09-02T13:59:05Z</time>
      </trkpt>
      <trkpt lat="42.9291713610691" lon="-4.84319239855264">
        <ele>1342.32345199585</ele>
        <time>2018-09-02T13:59:07Z</time>
      </trkpt>
      <trkpt lat="42.9291241290448" lon="-4.84307966195498">
        <ele>1342.93172836304</ele>
        <time>2018-09-02T13:59:09Z</time>
      </trkpt>
      <trkpt lat="42.9291017912728" lon="-4.84301151708219">
        <ele>1343.80257797241</ele>
        <time>2018-09-02T13:59:10Z</time>
      </trkpt>
      <trkpt lat="42.9290909367082" lon="-4.84293901361976">
        <ele>1343.81954574585</ele>
        <time>2018-09-02T13:59:11Z</time>
      </trkpt>
      <trkpt lat="42.9290703591359" lon="-4.84286701307152">
        <ele>1344.28866195679</ele>
        <time>2018-09-02T13:59:12Z</time>
      </trkpt>
      <trkpt lat="42.9290442495075" lon="-4.84279861674164">
        <ele>1344.63668441772</ele>
        <time>2018-09-02T13:59:13Z</time>
      </trkpt>
      <trkpt lat="42.9290133202848" lon="-4.84273700975333">
        <ele>1343.93783187866</ele>
        <time>2018-09-02T13:59:14Z</time>
      </trkpt>
      <trkpt lat="42.928972793783" lon="-4.84268738888655">
        <ele>1343.7370262146</ele>
        <time>2018-09-02T13:59:15Z</time>
      </trkpt>
      <trkpt lat="42.9289248492969" lon="-4.84264489263747">
        <ele>1343.89645004272</ele>
        <time>2018-09-02T13:59:16Z</time>
      </trkpt>
      <trkpt lat="42.9288741806922" lon="-4.84261949547086">
        <ele>1344.60836410522</ele>
        <time>2018-09-02T13:59:17Z</time>
      </trkpt>
      <trkpt lat="42.9288278287676" lon="-4.84258613549624">
        <ele>1344.01949691772</ele>
        <time>2018-09-02T13:59:18Z</time>
      </trkpt>
      <trkpt lat="42.9287773697106" lon="-4.84255931340609">
        <ele>1344.58883285522</ele>
        <time>2018-09-02T13:59:19Z</time>
      </trkpt>
      <trkpt lat="42.9287300538671" lon="-4.8425585590348">
        <ele>1344.37752914429</ele>
        <time>2018-09-02T13:59:20Z</time>
      </trkpt>
      <trkpt lat="42.9286402836842" lon="-4.84259460121844">
        <ele>1343.81148910522</ele>
        <time>2018-09-02T13:59:22Z</time>
      </trkpt>
      <trkpt lat="42.9285884835226" lon="-4.842633074154">
        <ele>1343.35287094116</ele>
        <time>2018-09-02T13:59:23Z</time>
      </trkpt>
      <trkpt lat="42.928553824353" lon="-4.84268051572595">
        <ele>1343.99422836304</ele>
        <time>2018-09-02T13:59:24Z</time>
      </trkpt>
      <trkpt lat="42.9285203805593" lon="-4.8427247721747">
        <ele>1343.51913070679</ele>
        <time>2018-09-02T13:59:25Z</time>
      </trkpt>
      <trkpt lat="42.9284792254147" lon="-4.84276559204314">
        <ele>1343.93087387085</ele>
        <time>2018-09-02T13:59:26Z</time>
      </trkpt>
      <trkpt lat="42.9284477932778" lon="-4.84282108024214">
        <ele>1344.40975570679</ele>
        <time>2018-09-02T13:59:27Z</time>
      </trkpt>
      <trkpt lat="42.9284140142081" lon="-4.84286600724314">
        <ele>1344.40938949585</ele>
        <time>2018-09-02T13:59:28Z</time>
      </trkpt>
      <trkpt lat="42.9283472104398" lon="-4.8429626505867">
        <ele>1344.30746078491</ele>
        <time>2018-09-02T13:59:30Z</time>
      </trkpt>
      <trkpt lat="42.9283095756945" lon="-4.84301520511959">
        <ele>1344.97518539429</ele>
        <time>2018-09-02T13:59:31Z</time>
      </trkpt>
      <trkpt lat="42.9282714380351" lon="-4.84306407161508">
        <ele>1345.50985336304</ele>
        <time>2018-09-02T13:59:32Z</time>
      </trkpt>
      <trkpt lat="42.9282097053183" lon="-4.84316867776666">
        <ele>1345.5387840271</ele>
        <time>2018-09-02T13:59:34Z</time>
      </trkpt>
      <trkpt lat="42.9281778121767" lon="-4.84322207048986">
        <ele>1345.53036117554</ele>
        <time>2018-09-02T13:59:35Z</time>
      </trkpt>
      <trkpt lat="42.9281278141243" lon="-4.8433220665947">
        <ele>1344.12362289429</ele>
        <time>2018-09-02T13:59:37Z</time>
      </trkpt>
      <trkpt lat="42.9280966334445" lon="-4.84337495640371">
        <ele>1343.7975730896</ele>
        <time>2018-09-02T13:59:38Z</time>
      </trkpt>
      <trkpt lat="42.9280586215136" lon="-4.84342583455596">
        <ele>1343.21639633179</ele>
        <time>2018-09-02T13:59:39Z</time>
      </trkpt>
      <trkpt lat="42.9280191427496" lon="-4.84348492697332">
        <ele>1343.51766586304</ele>
        <time>2018-09-02T13:59:40Z</time>
      </trkpt>
      <trkpt lat="42.9279807117236" lon="-4.84353496693526">
        <ele>1343.26559066772</ele>
        <time>2018-09-02T13:59:41Z</time>
      </trkpt>
      <trkpt lat="42.9279439570782" lon="-4.84359213151489">
        <ele>1343.75472640991</ele>
        <time>2018-09-02T13:59:42Z</time>
      </trkpt>
      <trkpt lat="42.9279052326855" lon="-4.84365281649385">
        <ele>1343.50277328491</ele>
        <time>2018-09-02T13:59:43Z</time>
      </trkpt>
      <trkpt lat="42.9278599284989" lon="-4.84371207654927">
        <ele>1344.06002426147</ele>
        <time>2018-09-02T13:59:44Z</time>
      </trkpt>
      <trkpt lat="42.9278160911453" lon="-4.8437660560057">
        <ele>1344.43868637085</ele>
        <time>2018-09-02T13:59:45Z</time>
      </trkpt>
      <trkpt lat="42.9277732596201" lon="-4.84382858500336">
        <ele>1345.28707504272</ele>
        <time>2018-09-02T13:59:46Z</time>
      </trkpt>
      <trkpt lat="42.9277329426659" lon="-4.8438678123102">
        <ele>1345.68478012085</ele>
        <time>2018-09-02T13:59:47Z</time>
      </trkpt>
      <trkpt lat="42.9276616545794" lon="-4.84396328218732">
        <ele>1345.36410140991</ele>
        <time>2018-09-02T13:59:49Z</time>
      </trkpt>
      <trkpt lat="42.9276191583303" lon="-4.84402212314759">
        <ele>1345.17025375366</ele>
        <time>2018-09-02T13:59:50Z</time>
      </trkpt>
      <trkpt lat="42.9275750276101" lon="-4.84407216310952">
        <ele>1343.69967269897</ele>
        <time>2018-09-02T13:59:51Z</time>
      </trkpt>
      <trkpt lat="42.9275243170959" lon="-4.84413351864074">
        <ele>1343.83651351929</ele>
        <time>2018-09-02T13:59:52Z</time>
      </trkpt>
      <trkpt lat="42.9274896579263" lon="-4.84418774955426">
        <ele>1344.36129379272</ele>
        <time>2018-09-02T13:59:53Z</time>
      </trkpt>
      <trkpt lat="42.9274541605664" lon="-4.84425044618998">
        <ele>1344.0290184021</ele>
        <time>2018-09-02T13:59:54Z</time>
      </trkpt>
      <trkpt lat="42.9274193756682" lon="-4.84431548975859">
        <ele>1344.53036117554</ele>
        <time>2018-09-02T13:59:55Z</time>
      </trkpt>
      <trkpt lat="42.927379142533" lon="-4.84437374398563">
        <ele>1344.28902816772</ele>
        <time>2018-09-02T13:59:56Z</time>
      </trkpt>
      <trkpt lat="42.9273324972418" lon="-4.8444463312671">
        <ele>1344.75570297241</ele>
        <time>2018-09-02T13:59:57Z</time>
      </trkpt>
      <trkpt lat="42.9272923479256" lon="-4.84451539814923">
        <ele>1344.36556625366</ele>
        <time>2018-09-02T13:59:58Z</time>
      </trkpt>
      <trkpt lat="42.9272501450432" lon="-4.84457725659464">
        <ele>1344.69478988647</ele>
        <time>2018-09-02T13:59:59Z</time>
      </trkpt>
      <trkpt lat="42.9272090737176" lon="-4.84464716166709">
        <ele>1344.79012680054</ele>
        <time>2018-09-02T14:00:00Z</time>
      </trkpt>
      <trkpt lat="42.9271697625918" lon="-4.84472536482368">
        <ele>1344.61739730835</ele>
        <time>2018-09-02T14:00:01Z</time>
      </trkpt>
      <trkpt lat="42.9271246260432" lon="-4.84479728155289">
        <ele>1345.21053695679</ele>
        <time>2018-09-02T14:00:02Z</time>
      </trkpt>
      <trkpt lat="42.9270852730078" lon="-4.8448712937579">
        <ele>1345.50826644897</ele>
        <time>2018-09-02T14:00:03Z</time>
      </trkpt>
      <trkpt lat="42.927048811729" lon="-4.84493348747943">
        <ele>1345.60201644897</ele>
        <time>2018-09-02T14:00:04Z</time>
      </trkpt>
      <trkpt lat="42.9270027112616" lon="-4.84500892460797">
        <ele>1346.50387191772</ele>
        <time>2018-09-02T14:00:05Z</time>
      </trkpt>
      <trkpt lat="42.926960256922" lon="-4.84508469701264">
        <ele>1346.69527816772</ele>
        <time>2018-09-02T14:00:06Z</time>
      </trkpt>
      <trkpt lat="42.9269209877056" lon="-4.84516130760763">
        <ele>1346.00143051147</ele>
        <time>2018-09-02T14:00:07Z</time>
      </trkpt>
      <trkpt lat="42.9268830176843" lon="-4.84523481689845">
        <ele>1346.01803207397</ele>
        <time>2018-09-02T14:00:08Z</time>
      </trkpt>
      <trkpt lat="42.9268534714756" lon="-4.84530321322833">
        <ele>1345.4391746521</ele>
        <time>2018-09-02T14:00:09Z</time>
      </trkpt>
      <trkpt lat="42.9268210335103" lon="-4.84538736753617">
        <ele>1344.3581199646</ele>
        <time>2018-09-02T14:00:10Z</time>
      </trkpt>
      <trkpt lat="42.9267856618789" lon="-4.84546221793149">
        <ele>1344.27047348022</ele>
        <time>2018-09-02T14:00:11Z</time>
      </trkpt>
      <trkpt lat="42.9267573310462" lon="-4.84554209746872">
        <ele>1343.75826644897</ele>
        <time>2018-09-02T14:00:12Z</time>
      </trkpt>
      <trkpt lat="42.9267298384038" lon="-4.84561954625402">
        <ele>1343.01009750366</ele>
        <time>2018-09-02T14:00:13Z</time>
      </trkpt>
      <trkpt lat="42.9267060757083" lon="-4.84570135362898">
        <ele>1342.98397445679</ele>
        <time>2018-09-02T14:00:14Z</time>
      </trkpt>
      <trkpt lat="42.9266778286946" lon="-4.84578047879492">
        <ele>1342.99105453491</ele>
        <time>2018-09-02T14:00:15Z</time>
      </trkpt>
      <trkpt lat="42.9266516352472" lon="-4.84585348517154">
        <ele>1342.09713363647</ele>
        <time>2018-09-02T14:00:16Z</time>
      </trkpt>
      <trkpt lat="42.9266243102429" lon="-4.84593537636553">
        <ele>1342.16598129272</ele>
        <time>2018-09-02T14:00:17Z</time>
      </trkpt>
      <trkpt lat="42.9266043194038" lon="-4.84601978213046">
        <ele>1341.56734848022</ele>
        <time>2018-09-02T14:00:18Z</time>
      </trkpt>
      <trkpt lat="42.9265885614258" lon="-4.84608792700325">
        <ele>1341.36861801147</ele>
        <time>2018-09-02T14:00:19Z</time>
      </trkpt>
      <trkpt lat="42.9265679838536" lon="-4.84617291950141">
        <ele>1341.33028793335</ele>
        <time>2018-09-02T14:00:20Z</time>
      </trkpt>
      <trkpt lat="42.9265433410582" lon="-4.84625891782795">
        <ele>1341.28280258179</ele>
        <time>2018-09-02T14:00:21Z</time>
      </trkpt>
      <trkpt lat="42.9265226796669" lon="-4.84634332359288">
        <ele>1341.32479476929</ele>
        <time>2018-09-02T14:00:22Z</time>
      </trkpt>
      <trkpt lat="42.92649644431" lon="-4.84644055366967">
        <ele>1340.95760726929</ele>
        <time>2018-09-02T14:00:23Z</time>
      </trkpt>
      <trkpt lat="42.9264703765911" lon="-4.84651590697919">
        <ele>1340.49520492554</ele>
        <time>2018-09-02T14:00:24Z</time>
      </trkpt>
      <trkpt lat="42.9264407046539" lon="-4.84660911374245">
        <ele>1340.24508285522</ele>
        <time>2018-09-02T14:00:25Z</time>
      </trkpt>
      <trkpt lat="42.9264123319117" lon="-4.84670064412509">
        <ele>1340.03109359741</ele>
        <time>2018-09-02T14:00:26Z</time>
      </trkpt>
      <trkpt lat="42.9263787623895" lon="-4.8467966169164">
        <ele>1340.03695297241</ele>
        <time>2018-09-02T14:00:27Z</time>
      </trkpt>
      <trkpt lat="42.9263399960873" lon="-4.8468967806593">
        <ele>1338.86764144897</ele>
        <time>2018-09-02T14:00:28Z</time>
      </trkpt>
      <trkpt lat="42.9262983380285" lon="-4.84698998742257">
        <ele>1338.59811019897</ele>
        <time>2018-09-02T14:00:29Z</time>
      </trkpt>
      <trkpt lat="42.9262599908215" lon="-4.84708118252908">
        <ele>1338.80807113647</ele>
        <time>2018-09-02T14:00:30Z</time>
      </trkpt>
      <trkpt lat="42.9262237390903" lon="-4.84714932740186">
        <ele>1339.6784324646</ele>
        <time>2018-09-02T14:00:31Z</time>
      </trkpt>
      <trkpt lat="42.9261957016242" lon="-4.84723390080486">
        <ele>1339.75899887085</ele>
        <time>2018-09-02T14:00:32Z</time>
      </trkpt>
      <trkpt lat="42.9261717293811" lon="-4.84732593410169">
        <ele>1339.44540023804</ele>
        <time>2018-09-02T14:00:33Z</time>
      </trkpt>
      <trkpt lat="42.9261549236653" lon="-4.84741629101787">
        <ele>1339.2262840271</ele>
        <time>2018-09-02T14:00:34Z</time>
      </trkpt>
      <trkpt lat="42.926135645288" lon="-4.84751041979049">
        <ele>1338.67708969116</ele>
        <time>2018-09-02T14:00:35Z</time>
      </trkpt>
      <trkpt lat="42.9261141876159" lon="-4.84761133790468">
        <ele>1338.64083480835</ele>
        <time>2018-09-02T14:00:36Z</time>
      </trkpt>
      <trkpt lat="42.9260899639157" lon="-4.8477120883808">
        <ele>1338.37887191772</ele>
        <time>2018-09-02T14:00:37Z</time>
      </trkpt>
      <trkpt lat="42.9260710208145" lon="-4.84781091101919">
        <ele>1338.41610336304</ele>
        <time>2018-09-02T14:00:38Z</time>
      </trkpt>
      <trkpt lat="42.9260506108803" lon="-4.847910823305">
        <ele>1338.0553855896</ele>
        <time>2018-09-02T14:00:39Z</time>
      </trkpt>
      <trkpt lat="42.9260214418573" lon="-4.84800352715407">
        <ele>1337.60018539429</ele>
        <time>2018-09-02T14:00:40Z</time>
      </trkpt>
      <trkpt lat="42.9260059353364" lon="-4.84808826819514">
        <ele>1337.45846176147</ele>
        <time>2018-09-02T14:00:41Z</time>
      </trkpt>
      <trkpt lat="42.9259793227938" lon="-4.84818457626258">
        <ele>1338.01510238647</ele>
        <time>2018-09-02T14:00:42Z</time>
      </trkpt>
      <trkpt lat="42.9259586614025" lon="-4.84827996232067">
        <ele>1337.77303695679</ele>
        <time>2018-09-02T14:00:43Z</time>
      </trkpt>
      <trkpt lat="42.9259289056462" lon="-4.84837710857843">
        <ele>1338.04916000366</ele>
        <time>2018-09-02T14:00:44Z</time>
      </trkpt>
      <trkpt lat="42.9258941207481" lon="-4.84846268780981">
        <ele>1338.60775375366</ele>
        <time>2018-09-02T14:00:45Z</time>
      </trkpt>
      <trkpt lat="42.9258619761494" lon="-4.84854835086022">
        <ele>1339.45492172241</ele>
        <time>2018-09-02T14:00:46Z</time>
      </trkpt>
      <trkpt lat="42.9258194379908" lon="-4.84863895923351">
        <ele>1338.98556137085</ele>
        <time>2018-09-02T14:00:47Z</time>
      </trkpt>
      <trkpt lat="42.9257726669711" lon="-4.84872051515137">
        <ele>1339.67635726929</ele>
        <time>2018-09-02T14:00:48Z</time>
      </trkpt>
      <trkpt lat="42.9257305898172" lon="-4.84879913740312">
        <ele>1338.81441879272</ele>
        <time>2018-09-02T14:00:49Z</time>
      </trkpt>
      <trkpt lat="42.925678580108" lon="-4.84887910075937">
        <ele>1338.42672348022</ele>
        <time>2018-09-02T14:00:50Z</time>
      </trkpt>
      <trkpt lat="42.9256244330135" lon="-4.84894732945119">
        <ele>1337.87752914429</ele>
        <time>2018-09-02T14:00:51Z</time>
      </trkpt>
      <trkpt lat="42.9255738482279" lon="-4.84900834970628">
        <ele>1337.3590965271</ele>
        <time>2018-09-02T14:00:52Z</time>
      </trkpt>
      <trkpt lat="42.9255241016326" lon="-4.84908496030127">
        <ele>1337.4518699646</ele>
        <time>2018-09-02T14:00:53Z</time>
      </trkpt>
      <trkpt lat="42.9254703317237" lon="-4.84916576184784">
        <ele>1338.54769515991</ele>
        <time>2018-09-02T14:00:54Z</time>
      </trkpt>
      <trkpt lat="42.9254225967852" lon="-4.84924874268924">
        <ele>1338.45235824585</ele>
        <time>2018-09-02T14:00:55Z</time>
      </trkpt>
      <trkpt lat="42.9253842076686" lon="-4.84932250343715">
        <ele>1338.06148910522</ele>
        <time>2018-09-02T14:00:56Z</time>
      </trkpt>
      <trkpt lat="42.9253472015661" lon="-4.84940883703981">
        <ele>1338.03463363647</ele>
        <time>2018-09-02T14:00:57Z</time>
      </trkpt>
      <trkpt lat="42.9253148055104" lon="-4.84949978068923">
        <ele>1337.43905258179</ele>
        <time>2018-09-02T14:00:58Z</time>
      </trkpt>
      <trkpt lat="42.9252802720693" lon="-4.84959382564281">
        <ele>1338.06954574585</ele>
        <time>2018-09-02T14:00:59Z</time>
      </trkpt>
      <trkpt lat="42.9252498457608" lon="-4.84967974015032">
        <ele>1338.64571762085</ele>
        <time>2018-09-02T14:01:00Z</time>
      </trkpt>
      <trkpt lat="42.9252202157331" lon="-4.84976590611492">
        <ele>1337.9381980896</ele>
        <time>2018-09-02T14:01:01Z</time>
      </trkpt>
      <trkpt lat="42.925193477462" lon="-4.84985978343044">
        <ele>1337.57906723022</ele>
        <time>2018-09-02T14:01:02Z</time>
      </trkpt>
      <trkpt lat="42.9251632187915" lon="-4.84994351864313">
        <ele>1337.61642074585</ele>
        <time>2018-09-02T14:01:03Z</time>
      </trkpt>
      <trkpt lat="42.9251267994222" lon="-4.85002239235197">
        <ele>1337.22689437866</ele>
        <time>2018-09-02T14:01:04Z</time>
      </trkpt>
      <trkpt lat="42.9250957863805" lon="-4.85010109842275">
        <ele>1337.25826644897</ele>
        <time>2018-09-02T14:01:05Z</time>
      </trkpt>
      <trkpt lat="42.9250610853014" lon="-4.8501831572548">
        <ele>1337.35995101929</ele>
        <time>2018-09-02T14:01:06Z</time>
      </trkpt>
      <trkpt lat="42.9250229895515" lon="-4.85026504844879">
        <ele>1336.84481430054</ele>
        <time>2018-09-02T14:01:07Z</time>
      </trkpt>
      <trkpt lat="42.9249995621321" lon="-4.85035624355529">
        <ele>1336.36776351929</ele>
        <time>2018-09-02T14:01:08Z</time>
      </trkpt>
      <trkpt lat="42.924983552697" lon="-4.85042690299903">
        <ele>1335.44820785522</ele>
        <time>2018-09-02T14:01:09Z</time>
      </trkpt>
      <trkpt lat="42.9249576945258" lon="-4.85051348805879">
        <ele>1335.03158187866</ele>
        <time>2018-09-02T14:01:10Z</time>
      </trkpt>
      <trkpt lat="42.9249239573655" lon="-4.8506030906037">
        <ele>1336.52523422241</ele>
        <time>2018-09-02T14:01:11Z</time>
      </trkpt>
      <trkpt lat="42.9248949559805" lon="-4.85069034621571">
        <ele>1336.44198226929</ele>
        <time>2018-09-02T14:01:12Z</time>
      </trkpt>
      <trkpt lat="42.9248435749141" lon="-4.85075815581237">
        <ele>1335.67208480835</ele>
        <time>2018-09-02T14:01:13Z</time>
      </trkpt>
      <trkpt lat="42.9247803334546" lon="-4.85080190934693">
        <ele>1335.72249984741</ele>
        <time>2018-09-02T14:01:14Z</time>
      </trkpt>
      <trkpt lat="42.9247183911902" lon="-4.8508396279112">
        <ele>1335.68075180054</ele>
        <time>2018-09-02T14:01:15Z</time>
      </trkpt>
      <trkpt lat="42.9246631125388" lon="-4.85089369118665">
        <ele>1335.64144515991</ele>
        <time>2018-09-02T14:01:16Z</time>
      </trkpt>
      <trkpt lat="42.9245976917845" lon="-4.85094347969149">
        <ele>1336.00790023804</ele>
        <time>2018-09-02T14:01:17Z</time>
      </trkpt>
      <trkpt lat="42.9245290020881" lon="-4.85099838115727">
        <ele>1335.56917953491</ele>
        <time>2018-09-02T14:01:18Z</time>
      </trkpt>
      <trkpt lat="42.9244574625445" lon="-4.85105118714725">
        <ele>1335.92501449585</ele>
        <time>2018-09-02T14:01:19Z</time>
      </trkpt>
      <trkpt lat="42.92438340843" lon="-4.85109946690952">
        <ele>1334.59322738647</ele>
        <time>2018-09-02T14:01:20Z</time>
      </trkpt>
      <trkpt lat="42.9243099410487" lon="-4.85113190487479">
        <ele>1334.26961898804</ele>
        <time>2018-09-02T14:01:21Z</time>
      </trkpt>
      <trkpt lat="42.9242361383912" lon="-4.85116995871519">
        <ele>1334.05489730835</ele>
        <time>2018-09-02T14:01:22Z</time>
      </trkpt>
      <trkpt lat="42.9241731902984" lon="-4.85123625956928">
        <ele>1332.96871566772</ele>
        <time>2018-09-02T14:01:23Z</time>
      </trkpt>
      <trkpt lat="42.9241315741492" lon="-4.85132276081001">
        <ele>1331.27560043335</ele>
        <time>2018-09-02T14:01:24Z</time>
      </trkpt>
      <trkpt lat="42.9241038719592" lon="-4.85141714103972">
        <ele>1331.17330551147</ele>
        <time>2018-09-02T14:01:25Z</time>
      </trkpt>
      <trkpt lat="42.9240852222246" lon="-4.85151420347844">
        <ele>1331.00814437866</ele>
        <time>2018-09-02T14:01:26Z</time>
      </trkpt>
      <trkpt lat="42.9240652732951" lon="-4.85161026008879">
        <ele>1331.75680160522</ele>
        <time>2018-09-02T14:01:27Z</time>
      </trkpt>
      <trkpt lat="42.9240312846777" lon="-4.8517083283559">
        <ele>1331.98763656616</ele>
        <time>2018-09-02T14:01:28Z</time>
      </trkpt>
      <trkpt lat="42.9240038339448" lon="-4.85178686678861">
        <ele>1331.7506980896</ele>
        <time>2018-09-02T14:01:29Z</time>
      </trkpt>
      <trkpt lat="42.9239835497392" lon="-4.85187009908711">
        <ele>1331.33102035522</ele>
        <time>2018-09-02T14:01:30Z</time>
      </trkpt>
      <trkpt lat="42.9239639360857" lon="-4.85195442103301">
        <ele>1331.53853988647</ele>
        <time>2018-09-02T14:01:31Z</time>
      </trkpt>
      <trkpt lat="42.9239330906821" lon="-4.85202457756256">
        <ele>1332.2067527771</ele>
        <time>2018-09-02T14:01:32Z</time>
      </trkpt>
      <trkpt lat="42.9239018680928" lon="-4.85208693892216">
        <ele>1331.44063949585</ele>
        <time>2018-09-02T14:01:33Z</time>
      </trkpt>
      <trkpt lat="42.9238773091165" lon="-4.85215508379494">
        <ele>1331.28280258179</ele>
        <time>2018-09-02T14:01:34Z</time>
      </trkpt>
      <trkpt lat="42.9238466313509" lon="-4.85220897943233">
        <ele>1330.88082504272</ele>
        <time>2018-09-02T14:01:35Z</time>
      </trkpt>
      <trkpt lat="42.9238170851422" lon="-4.85226891004001">
        <ele>1330.28744125366</ele>
        <time>2018-09-02T14:01:36Z</time>
      </trkpt>
      <trkpt lat="42.9237839766246" lon="-4.85231844708775">
        <ele>1330.1901512146</ele>
        <time>2018-09-02T14:01:37Z</time>
      </trkpt>
      <trkpt lat="42.9237538017732" lon="-4.85236882232581">
        <ele>1330.64413070679</ele>
        <time>2018-09-02T14:01:38Z</time>
      </trkpt>
      <trkpt lat="42.9237167118517" lon="-4.8524176888213">
        <ele>1331.23971176147</ele>
        <time>2018-09-02T14:01:39Z</time>
      </trkpt>
      <trkpt lat="42.9236799152968" lon="-4.85246010125135">
        <ele>1333.13314437866</ele>
        <time>2018-09-02T14:01:40Z</time>
      </trkpt>
      <trkpt lat="42.9236377962333" lon="-4.85250217840527">
        <ele>1334.17367172241</ele>
        <time>2018-09-02T14:01:41Z</time>
      </trkpt>
      <trkpt lat="42.9236037657065" lon="-4.85254794359659">
        <ele>1333.97323226929</ele>
        <time>2018-09-02T14:01:42Z</time>
      </trkpt>
      <trkpt lat="42.9235683521656" lon="-4.85259588808273">
        <ele>1334.19466781616</ele>
        <time>2018-09-02T14:01:43Z</time>
      </trkpt>
      <trkpt lat="42.9235321004343" lon="-4.85269362107371">
        <ele>1333.34225082397</ele>
        <time>2018-09-02T14:01:45Z</time>
      </trkpt>
      <trkpt lat="42.9235099303005" lon="-4.85275430605267">
        <ele>1333.59701156616</ele>
        <time>2018-09-02T14:01:46Z</time>
      </trkpt>
      <trkpt lat="42.9234853294146" lon="-4.85281633213614">
        <ele>1333.19845199585</ele>
        <time>2018-09-02T14:01:47Z</time>
      </trkpt>
      <trkpt lat="42.9234574176771" lon="-4.85286980867838">
        <ele>1334.07308578491</ele>
        <time>2018-09-02T14:01:48Z</time>
      </trkpt>
      <trkpt lat="42.9234329425198" lon="-4.85293828882729">
        <ele>1334.06966781616</ele>
        <time>2018-09-02T14:01:49Z</time>
      </trkpt>
      <trkpt lat="42.9233998340023" lon="-4.85301255248939">
        <ele>1333.67049789429</ele>
        <time>2018-09-02T14:01:50Z</time>
      </trkpt>
      <trkpt lat="42.9233737662834" lon="-4.85308002680992">
        <ele>1333.39864730835</ele>
        <time>2018-09-02T14:01:51Z</time>
      </trkpt>
      <trkpt lat="42.9233471537409" lon="-4.85314632766401">
        <ele>1334.54110336304</ele>
        <time>2018-09-02T14:01:52Z</time>
      </trkpt>
      <trkpt lat="42.9233179008988" lon="-4.85321648419355">
        <ele>1334.08224105835</ele>
        <time>2018-09-02T14:01:53Z</time>
      </trkpt>
      <trkpt lat="42.9232918331799" lon="-4.85327666625833">
        <ele>1333.57162094116</ele>
        <time>2018-09-02T14:01:54Z</time>
      </trkpt>
      <trkpt lat="42.9232628737045" lon="-4.85335076228236">
        <ele>1332.81942367554</ele>
        <time>2018-09-02T14:01:55Z</time>
      </trkpt>
      <trkpt lat="42.9232335789529" lon="-4.85342368483995">
        <ele>1332.1784324646</ele>
        <time>2018-09-02T14:01:56Z</time>
      </trkpt>
      <trkpt lat="42.9232097324384" lon="-4.8534956853882">
        <ele>1331.76192855835</ele>
        <time>2018-09-02T14:01:57Z</time>
      </trkpt>
      <trkpt lat="42.9231856344667" lon="-4.85357489437317">
        <ele>1330.64876937866</ele>
        <time>2018-09-02T14:01:58Z</time>
      </trkpt>
      <trkpt lat="42.9231649311659" lon="-4.85364345834111">
        <ele>1329.65816879272</ele>
        <time>2018-09-02T14:01:59Z</time>
      </trkpt>
      <trkpt lat="42.9231375642521" lon="-4.85371302813744">
        <ele>1329.76131820679</ele>
        <time>2018-09-02T14:02:00Z</time>
      </trkpt>
      <trkpt lat="42.9231089819622" lon="-4.85377949662959">
        <ele>1330.35775375366</ele>
        <time>2018-09-02T14:02:01Z</time>
      </trkpt>
      <trkpt lat="42.9230855545429" lon="-4.85383498482858">
        <ele>1330.74044418335</ele>
        <time>2018-09-02T14:02:02Z</time>
      </trkpt>
      <trkpt lat="42.9230450699506" lon="-4.85390899703359">
        <ele>1330.94857406616</ele>
        <time>2018-09-02T14:02:04Z</time>
      </trkpt>
      <trkpt lat="42.9229962034551" lon="-4.85396071337616">
        <ele>1331.4108543396</ele>
        <time>2018-09-02T14:02:06Z</time>
      </trkpt>
      <trkpt lat="42.9229427269128" lon="-4.85404545441722">
        <ele>1330.57430648804</ele>
        <time>2018-09-02T14:02:08Z</time>
      </trkpt>
      <trkpt lat="42.9229111271379" lon="-4.85409365036046">
        <ele>1329.24337387085</ele>
        <time>2018-09-02T14:02:09Z</time>
      </trkpt>
      <trkpt lat="42.9228483885926" lon="-4.85417269170736">
        <ele>1328.19613265991</ele>
        <time>2018-09-02T14:02:11Z</time>
      </trkpt>
      <trkpt lat="42.9228154058037" lon="-4.85421854071771">
        <ele>1328.22884750366</ele>
        <time>2018-09-02T14:02:12Z</time>
      </trkpt>
      <trkpt lat="42.9227800341723" lon="-4.85426975414609">
        <ele>1328.31002426147</ele>
        <time>2018-09-02T14:02:13Z</time>
      </trkpt>
      <trkpt lat="42.9227326764194" lon="-4.85432214104091">
        <ele>1328.85165023804</ele>
        <time>2018-09-02T14:02:14Z</time>
      </trkpt>
      <trkpt lat="42.9226904735369" lon="-4.85436790623223">
        <ele>1328.64278793335</ele>
        <time>2018-09-02T14:02:15Z</time>
      </trkpt>
      <trkpt lat="42.9226442473409" lon="-4.85441191122388">
        <ele>1328.83236312866</ele>
        <time>2018-09-02T14:02:16Z</time>
      </trkpt>
      <trkpt lat="42.9226148268608" lon="-4.85447167419349">
        <ele>1328.88521957397</ele>
        <time>2018-09-02T14:02:17Z</time>
      </trkpt>
      <trkpt lat="42.9225792456818" lon="-4.85452414490735">
        <ele>1329.08126449585</ele>
        <time>2018-09-02T14:02:18Z</time>
      </trkpt>
      <trkpt lat="42.9225445026932" lon="-4.85459639691268">
        <ele>1329.36605453491</ele>
        <time>2018-09-02T14:02:19Z</time>
      </trkpt>
      <trkpt lat="42.9225092986998" lon="-4.85464777797913">
        <ele>1329.81209945679</ele>
        <time>2018-09-02T14:02:20Z</time>
      </trkpt>
      <trkpt lat="42.9224787466628" lon="-4.854702930902">
        <ele>1330.86544418335</ele>
        <time>2018-09-02T14:02:21Z</time>
      </trkpt>
      <trkpt lat="42.9224449256835" lon="-4.85476537608062">
        <ele>1331.3532371521</ele>
        <time>2018-09-02T14:02:22Z</time>
      </trkpt>
      <trkpt lat="42.9224143736464" lon="-4.85482673161184">
        <ele>1331.2741355896</ele>
        <time>2018-09-02T14:02:23Z</time>
      </trkpt>
      <trkpt lat="42.9223519703773" lon="-4.85493469052469">
        <ele>1330.56832504272</ele>
        <time>2018-09-02T14:02:25Z</time>
      </trkpt>
      <trkpt lat="42.9223201191453" lon="-4.85500736162519">
        <ele>1330.30721664429</ele>
        <time>2018-09-02T14:02:26Z</time>
      </trkpt>
      <trkpt lat="42.922286465804" lon="-4.85505857505356">
        <ele>1329.6276512146</ele>
        <time>2018-09-02T14:02:27Z</time>
      </trkpt>
      <trkpt lat="42.922262493561" lon="-4.85511263832902">
        <ele>1330.8200340271</ele>
        <time>2018-09-02T14:02:28Z</time>
      </trkpt>
      <trkpt lat="42.9222310614241" lon="-4.85516251065289">
        <ele>1329.16048812866</ele>
        <time>2018-09-02T14:02:29Z</time>
      </trkpt>
      <trkpt lat="42.9221993359206" lon="-4.85522260889863">
        <ele>1329.01668930054</ele>
        <time>2018-09-02T14:02:30Z</time>
      </trkpt>
      <trkpt lat="42.9221633775559" lon="-4.8552933521614">
        <ele>1329.48739242554</ele>
        <time>2018-09-02T14:02:31Z</time>
      </trkpt>
      <trkpt lat="42.922126581001" lon="-4.85535655171131">
        <ele>1330.35384750366</ele>
        <time>2018-09-02T14:02:32Z</time>
      </trkpt>
      <trkpt lat="42.9220864735943" lon="-4.85542226583218">
        <ele>1331.32552719116</ele>
        <time>2018-09-02T14:02:33Z</time>
      </trkpt>
      <trkpt lat="42.922059064771" lon="-4.85549451783752">
        <ele>1331.77181625366</ele>
        <time>2018-09-02T14:02:34Z</time>
      </trkpt>
      <trkpt lat="42.9220181610835" lon="-4.85557179898476">
        <ele>1331.51070785522</ele>
        <time>2018-09-02T14:02:36Z</time>
      </trkpt>
      <trkpt lat="42.9220023192865" lon="-4.85563105904018">
        <ele>1330.07210922241</ele>
        <time>2018-09-02T14:02:42Z</time>
      </trkpt>
      <trkpt lat="42.9219745332775" lon="-4.85569425859009">
        <ele>1329.4850730896</ele>
        <time>2018-09-02T14:02:45Z</time>
      </trkpt>
      <trkpt lat="42.9219417181266" lon="-4.85577112064218">
        <ele>1329.10470199585</ele>
        <time>2018-09-02T14:02:47Z</time>
      </trkpt>
      <trkpt lat="42.9219120880989" lon="-4.85586918890928">
        <ele>1330.7428855896</ele>
        <time>2018-09-02T14:02:49Z</time>
      </trkpt>
      <trkpt lat="42.9218749562678" lon="-4.85598586500143">
        <ele>1329.65926742554</ele>
        <time>2018-09-02T14:02:51Z</time>
      </trkpt>
      <trkpt lat="42.9218409676505" lon="-4.85604328103816">
        <ele>1330.23031234741</ele>
        <time>2018-09-02T14:02:52Z</time>
      </trkpt>
      <trkpt lat="42.9218128882748" lon="-4.85609415919041">
        <ele>1330.9333152771</ele>
        <time>2018-09-02T14:02:53Z</time>
      </trkpt>
      <trkpt lat="42.921776426996" lon="-4.85614696518039">
        <ele>1331.19002914429</ele>
        <time>2018-09-02T14:02:54Z</time>
      </trkpt>
      <trkpt lat="42.921734182204" lon="-4.85621376894867">
        <ele>1331.79879379272</ele>
        <time>2018-09-02T14:02:55Z</time>
      </trkpt>
      <trkpt lat="42.9216936137927" lon="-4.85626112670159">
        <ele>1334.22909164429</ele>
        <time>2018-09-02T14:02:56Z</time>
      </trkpt>
      <trkpt lat="42.9216516623673" lon="-4.85631342977738">
        <ele>1334.42904281616</ele>
        <time>2018-09-02T14:02:57Z</time>
      </trkpt>
      <trkpt lat="42.9216024605957" lon="-4.85635751858806">
        <ele>1335.82040023804</ele>
        <time>2018-09-02T14:02:58Z</time>
      </trkpt>
      <trkpt lat="42.9215487745059" lon="-4.85642457381343">
        <ele>1335.55611801147</ele>
        <time>2018-09-02T14:02:59Z</time>
      </trkpt>
      <trkpt lat="42.9215023387623" lon="-4.85646790825283">
        <ele>1335.91720199585</ele>
        <time>2018-09-02T14:03:00Z</time>
      </trkpt>
      <trkpt lat="42.9214570345757" lon="-4.85650998540675">
        <ele>1335.26327133179</ele>
        <time>2018-09-02T14:03:01Z</time>
      </trkpt>
      <trkpt lat="42.9214020912004" lon="-4.85655097291326">
        <ele>1335.80624008179</ele>
        <time>2018-09-02T14:03:02Z</time>
      </trkpt>
      <trkpt lat="42.9213549849046" lon="-4.8565883562014">
        <ele>1335.69686508179</ele>
        <time>2018-09-02T14:03:03Z</time>
      </trkpt>
      <trkpt lat="42.9213210381967" lon="-4.85663755797302">
        <ele>1334.79391098022</ele>
        <time>2018-09-02T14:03:04Z</time>
      </trkpt>
      <trkpt lat="42.9212783743096" lon="-4.85669245943879">
        <ele>1334.56454086304</ele>
        <time>2018-09-02T14:03:05Z</time>
      </trkpt>
      <trkpt lat="42.9212433379543" lon="-4.85673453659271">
        <ele>1333.2399559021</ele>
        <time>2018-09-02T14:03:06Z</time>
      </trkpt>
      <trkpt lat="42.9211962316585" lon="-4.85678977333462">
        <ele>1333.67599105835</ele>
        <time>2018-09-02T14:03:07Z</time>
      </trkpt>
      <trkpt lat="42.9211535258618" lon="-4.85684274696266">
        <ele>1334.7926902771</ele>
        <time>2018-09-02T14:03:08Z</time>
      </trkpt>
      <trkpt lat="42.9211093113226" lon="-4.85690535977935">
        <ele>1335.47774887085</ele>
        <time>2018-09-02T14:03:09Z</time>
      </trkpt>
      <trkpt lat="42.9210689105493" lon="-4.85695690848386">
        <ele>1335.92379379272</ele>
        <time>2018-09-02T14:03:10Z</time>
      </trkpt>
      <trkpt lat="42.9210254084719" lon="-4.8570204433099">
        <ele>1336.21493148804</ele>
        <time>2018-09-02T14:03:11Z</time>
      </trkpt>
      <trkpt lat="42.9209915036735" lon="-4.85707551241373">
        <ele>1335.82650375366</ele>
        <time>2018-09-02T14:03:12Z</time>
      </trkpt>
      <trkpt lat="42.9209550004852" lon="-4.85712932423209">
        <ele>1335.02169418335</ele>
        <time>2018-09-02T14:03:13Z</time>
      </trkpt>
      <trkpt lat="42.9209098639366" lon="-4.85719026066815">
        <ele>1334.84469223022</ele>
        <time>2018-09-02T14:03:14Z</time>
      </trkpt>
      <trkpt lat="42.9208697984395" lon="-4.85724683851456">
        <ele>1334.16805648804</ele>
        <time>2018-09-02T14:03:15Z</time>
      </trkpt>
      <trkpt lat="42.920823614153" lon="-4.8573032487229">
        <ele>1334.13949203491</ele>
        <time>2018-09-02T14:03:16Z</time>
      </trkpt>
      <trkpt lat="42.9207858117697" lon="-4.85735538416063">
        <ele>1333.96688461304</ele>
        <time>2018-09-02T14:03:17Z</time>
      </trkpt>
      <trkpt lat="42.9207366519076" lon="-4.85741615295863">
        <ele>1334.50082015991</ele>
        <time>2018-09-02T14:03:18Z</time>
      </trkpt>
      <trkpt lat="42.9206983885196" lon="-4.85747985542273">
        <ele>1335.18770980835</ele>
        <time>2018-09-02T14:03:19Z</time>
      </trkpt>
      <trkpt lat="42.920651701319" lon="-4.85753743909752">
        <ele>1334.65426254272</ele>
        <time>2018-09-02T14:03:20Z</time>
      </trkpt>
      <trkpt lat="42.9205825087083" lon="-4.85764170997297">
        <ele>1333.45858383179</ele>
        <time>2018-09-02T14:03:22Z</time>
      </trkpt>
      <trkpt lat="42.9205445386869" lon="-4.85770373605644">
        <ele>1333.99337387085</ele>
        <time>2018-09-02T14:03:23Z</time>
      </trkpt>
      <trkpt lat="42.9204991087717" lon="-4.85775075853323">
        <ele>1334.43941879272</ele>
        <time>2018-09-02T14:03:24Z</time>
      </trkpt>
      <trkpt lat="42.9204606358362" lon="-4.85780205578064">
        <ele>1333.94186019897</ele>
        <time>2018-09-02T14:03:25Z</time>
      </trkpt>
      <trkpt lat="42.9204195226011" lon="-4.85786156729316">
        <ele>1333.16537094116</ele>
        <time>2018-09-02T14:03:26Z</time>
      </trkpt>
      <trkpt lat="42.9203858692599" lon="-4.8579079192177">
        <ele>1333.06014633179</ele>
        <time>2018-09-02T14:03:27Z</time>
      </trkpt>
      <trkpt lat="42.9203477316004" lon="-4.85796181485509">
        <ele>1333.00997543335</ele>
        <time>2018-09-02T14:03:28Z</time>
      </trkpt>
      <trkpt lat="42.9203127371547" lon="-4.85801529139733">
        <ele>1331.56722640991</ele>
        <time>2018-09-02T14:03:29Z</time>
      </trkpt>
      <trkpt lat="42.9202776588899" lon="-4.85807463527178">
        <ele>1331.35946273804</ele>
        <time>2018-09-02T14:03:30Z</time>
      </trkpt>
      <trkpt lat="42.9202440474582" lon="-4.85814202577328">
        <ele>1331.4723777771</ele>
        <time>2018-09-02T14:03:31Z</time>
      </trkpt>
      <trkpt lat="42.9202127410499" lon="-4.85820162110483">
        <ele>1331.27169418335</ele>
        <time>2018-09-02T14:03:32Z</time>
      </trkpt>
      <trkpt lat="42.9201939236772" lon="-4.85827311873888">
        <ele>1330.21871566772</ele>
        <time>2018-09-02T14:03:33Z</time>
      </trkpt>
      <trkpt lat="42.9201699933437" lon="-4.85833598301267">
        <ele>1330.58822250366</ele>
        <time>2018-09-02T14:03:34Z</time>
      </trkpt>
      <trkpt lat="42.9201513016996" lon="-4.85839909874355">
        <ele>1330.2184715271</ele>
        <time>2018-09-02T14:03:35Z</time>
      </trkpt>
      <trkpt lat="42.920129969756" lon="-4.85845810734188">
        <ele>1330.46273422241</ele>
        <time>2018-09-02T14:03:36Z</time>
      </trkpt>
      <trkpt lat="42.9201090149981" lon="-4.85852926969981">
        <ele>1329.84286117554</ele>
        <time>2018-09-02T14:03:37Z</time>
      </trkpt>
      <trkpt lat="42.9200865514976" lon="-4.85860085115289">
        <ele>1329.29256820679</ele>
        <time>2018-09-02T14:03:38Z</time>
      </trkpt>
      <trkpt lat="42.9200650100065" lon="-4.85867218114888">
        <ele>1329.47799301147</ele>
        <time>2018-09-02T14:03:39Z</time>
      </trkpt>
      <trkpt lat="42.9200476594669" lon="-4.85874753445839">
        <ele>1329.55587387085</ele>
        <time>2018-09-02T14:03:40Z</time>
      </trkpt>
      <trkpt lat="42.9200306442035" lon="-4.85881852917826">
        <ele>1329.66683578491</ele>
        <time>2018-09-02T14:03:41Z</time>
      </trkpt>
      <trkpt lat="42.9200021457327" lon="-4.8588939663068">
        <ele>1329.96566390991</ele>
        <time>2018-09-02T14:03:42Z</time>
      </trkpt>
      <trkpt lat="42.9199847113741" lon="-4.85896395519828">
        <ele>1329.79769515991</ele>
        <time>2018-09-02T14:03:43Z</time>
      </trkpt>
      <trkpt lat="42.9199643014399" lon="-4.85903612338459">
        <ele>1329.32174301147</ele>
        <time>2018-09-02T14:03:44Z</time>
      </trkpt>
      <trkpt lat="42.9199464060766" lon="-4.85910175368642">
        <ele>1329.18465805054</ele>
        <time>2018-09-02T14:03:45Z</time>
      </trkpt>
      <trkpt lat="42.9199247388569" lon="-4.85917283222532">
        <ele>1328.90243148804</ele>
        <time>2018-09-02T14:03:46Z</time>
      </trkpt>
      <trkpt lat="42.9199029459086" lon="-4.85924609005904">
        <ele>1329.27791976929</ele>
        <time>2018-09-02T14:03:47Z</time>
      </trkpt>
      <trkpt lat="42.9198824521554" lon="-4.85931515694117">
        <ele>1328.64974594116</ele>
        <time>2018-09-02T14:03:48Z</time>
      </trkpt>
      <trkpt lat="42.9198560072509" lon="-4.85938623548007">
        <ele>1328.87948226929</ele>
        <time>2018-09-02T14:03:49Z</time>
      </trkpt>
      <trkpt lat="42.9198262514946" lon="-4.85946016386604">
        <ele>1327.98006820679</ele>
        <time>2018-09-02T14:03:50Z</time>
      </trkpt>
      <trkpt lat="42.9197942326245" lon="-4.85953149386203">
        <ele>1327.87557601929</ele>
        <time>2018-09-02T14:03:51Z</time>
      </trkpt>
      <trkpt lat="42.9197692126435" lon="-4.8595953639642">
        <ele>1327.4303855896</ele>
        <time>2018-09-02T14:03:52Z</time>
      </trkpt>
      <trkpt lat="42.9197229026285" lon="-4.85966627486503">
        <ele>1329.66390609741</ele>
        <time>2018-09-02T14:03:53Z</time>
      </trkpt>
      <trkpt lat="42.9196853517023" lon="-4.85971924849307">
        <ele>1328.85091781616</ele>
        <time>2018-09-02T14:03:54Z</time>
      </trkpt>
      <trkpt lat="42.9196321685267" lon="-4.85977767035818">
        <ele>1329.47774887085</ele>
        <time>2018-09-02T14:03:55Z</time>
      </trkpt>
      <trkpt lat="42.9195875768018" lon="-4.85983056016719">
        <ele>1329.97933578491</ele>
        <time>2018-09-02T14:03:56Z</time>
      </trkpt>
      <trkpt lat="42.9195454996479" lon="-4.85988361761427">
        <ele>1329.69124984741</ele>
        <time>2018-09-02T14:03:57Z</time>
      </trkpt>
      <trkpt lat="42.9195001535517" lon="-4.85995721072411">
        <ele>1329.62533187866</ele>
        <time>2018-09-02T14:03:58Z</time>
      </trkpt>
      <trkpt lat="42.9194626864446" lon="-4.86002627760625">
        <ele>1329.42672348022</ele>
        <time>2018-09-02T14:03:59Z</time>
      </trkpt>
      <trkpt lat="42.9194252193374" lon="-4.86010171473479">
        <ele>1328.18416976929</ele>
        <time>2018-09-02T14:04:00Z</time>
      </trkpt>
      <trkpt lat="42.9193960503143" lon="-4.86018100753879">
        <ele>1329.4255027771</ele>
        <time>2018-09-02T14:04:01Z</time>
      </trkpt>
      <trkpt lat="42.9193692701337" lon="-4.86025854014313">
        <ele>1329.04891586304</ele>
        <time>2018-09-02T14:04:02Z</time>
      </trkpt>
      <trkpt lat="42.9193450464335" lon="-4.86033506691908">
        <ele>1328.59383773804</ele>
        <time>2018-09-02T14:04:03Z</time>
      </trkpt>
      <trkpt lat="42.9193241754946" lon="-4.86041259952342">
        <ele>1328.32577133179</ele>
        <time>2018-09-02T14:04:04Z</time>
      </trkpt>
      <trkpt lat="42.9193034721938" lon="-4.86048770137584">
        <ele>1327.61874008179</ele>
        <time>2018-09-02T14:04:05Z</time>
      </trkpt>
      <trkpt lat="42.9192807991457" lon="-4.86054813489771">
        <ele>1327.14986801147</ele>
        <time>2018-09-02T14:04:06Z</time>
      </trkpt>
      <trkpt lat="42.9192602215734" lon="-4.86062273383593">
        <ele>1326.8395652771</ele>
        <time>2018-09-02T14:04:07Z</time>
      </trkpt>
      <trkpt lat="42.9192447150526" lon="-4.86070445739186">
        <ele>1327.17379379272</ele>
        <time>2018-09-02T14:04:08Z</time>
      </trkpt>
      <trkpt lat="42.9192343214926" lon="-4.8607695847795">
        <ele>1326.88167953491</ele>
        <time>2018-09-02T14:04:09Z</time>
      </trkpt>
      <trkpt lat="42.919216887134" lon="-4.86083638854778">
        <ele>1326.71688461304</ele>
        <time>2018-09-02T14:04:10Z</time>
      </trkpt>
      <trkpt lat="42.9191935016242" lon="-4.86089346930837">
        <ele>1325.93197250366</ele>
        <time>2018-09-02T14:04:11Z</time>
      </trkpt>
      <trkpt lat="42.9191783303795" lon="-4.8609561659441">
        <ele>1326.06563949585</ele>
        <time>2018-09-02T14:04:22Z</time>
      </trkpt>
      <trkpt lat="42.9191301763457" lon="-4.86105800606763">
        <ele>1324.84579086304</ele>
        <time>2018-09-02T14:04:25Z</time>
      </trkpt>
      <trkpt lat="42.9191028513414" lon="-4.86111667938983">
        <ele>1324.52389144897</ele>
        <time>2018-09-02T14:04:26Z</time>
      </trkpt>
      <trkpt lat="42.919076574075" lon="-4.86117945984459">
        <ele>1324.29732894897</ele>
        <time>2018-09-02T14:04:27Z</time>
      </trkpt>
      <trkpt lat="42.9190533562032" lon="-4.86124115065193">
        <ele>1324.08846664429</ele>
        <time>2018-09-02T14:04:28Z</time>
      </trkpt>
      <trkpt lat="42.9190311441598" lon="-4.86130108125961">
        <ele>1323.52181625366</ele>
        <time>2018-09-02T14:04:29Z</time>
      </trkpt>
      <trkpt lat="42.9190051183504" lon="-4.8613721597985">
        <ele>1324.34749984741</ele>
        <time>2018-09-02T14:04:30Z</time>
      </trkpt>
      <trkpt lat="42.9189881449965" lon="-4.86143871210968">
        <ele>1323.4840965271</ele>
        <time>2018-09-02T14:04:31Z</time>
      </trkpt>
      <trkpt lat="42.9189723031995" lon="-4.86151800491368">
        <ele>1323.15621566772</ele>
        <time>2018-09-02T14:04:32Z</time>
      </trkpt>
      <trkpt lat="42.9189523961795" lon="-4.86159763299382">
        <ele>1323.09176254272</ele>
        <time>2018-09-02T14:04:33Z</time>
      </trkpt>
      <trkpt lat="42.9189318605167" lon="-4.86167985946393">
        <ele>1322.26461410522</ele>
        <time>2018-09-02T14:04:34Z</time>
      </trkpt>
      <trkpt lat="42.9189199582142" lon="-4.86175546423054">
        <ele>1321.56014633179</ele>
        <time>2018-09-02T14:04:35Z</time>
      </trkpt>
      <trkpt lat="42.9188915016529" lon="-4.86183567904389">
        <ele>1321.55611801147</ele>
        <time>2018-09-02T14:04:36Z</time>
      </trkpt>
      <trkpt lat="42.9188642604676" lon="-4.86193064600682">
        <ele>1322.24947738647</ele>
        <time>2018-09-02T14:04:37Z</time>
      </trkpt>
      <trkpt lat="42.9188361391825" lon="-4.86201739870465">
        <ele>1322.03048324585</ele>
        <time>2018-09-02T14:04:38Z</time>
      </trkpt>
      <trkpt lat="42.9188171541718" lon="-4.86209996045089">
        <ele>1321.93673324585</ele>
        <time>2018-09-02T14:04:39Z</time>
      </trkpt>
      <trkpt lat="42.9187937267524" lon="-4.8621909041003">
        <ele>1322.26583480835</ele>
        <time>2018-09-02T14:04:40Z</time>
      </trkpt>
      <trkpt lat="42.9187720176232" lon="-4.86226826906657">
        <ele>1322.9001121521</ele>
        <time>2018-09-02T14:04:41Z</time>
      </trkpt>
      <trkpt lat="42.9187443154332" lon="-4.86235812306857">
        <ele>1322.7780418396</ele>
        <time>2018-09-02T14:04:42Z</time>
      </trkpt>
      <trkpt lat="42.9187172837955" lon="-4.8624512460128">
        <ele>1321.81039047241</ele>
        <time>2018-09-02T14:04:43Z</time>
      </trkpt>
      <trkpt lat="42.9186949879331" lon="-4.86254755408025">
        <ele>1321.82650375366</ele>
        <time>2018-09-02T14:04:44Z</time>
      </trkpt>
      <trkpt lat="42.9186702613187" lon="-4.86263564788258">
        <ele>1321.15633773804</ele>
        <time>2018-09-02T14:04:45Z</time>
      </trkpt>
      <trkpt lat="42.9186468338994" lon="-4.86272960901713">
        <ele>1320.82748031616</ele>
        <time>2018-09-02T14:04:46Z</time>
      </trkpt>
      <trkpt lat="42.9186214367327" lon="-4.86282424070394">
        <ele>1319.99361801147</ele>
        <time>2018-09-02T14:04:47Z</time>
      </trkpt>
      <trkpt lat="42.9185977997658" lon="-4.86290831119275">
        <ele>1319.78719711304</ele>
        <time>2018-09-02T14:04:48Z</time>
      </trkpt>
      <trkpt lat="42.9185713129518" lon="-4.86300235614633">
        <ele>1320.42281723022</ele>
        <time>2018-09-02T14:04:49Z</time>
      </trkpt>
      <trkpt lat="42.9185462929708" lon="-4.86309254542446">
        <ele>1320.86080551147</ele>
        <time>2018-09-02T14:04:50Z</time>
      </trkpt>
      <trkpt lat="42.9185139388246" lon="-4.8631906975106">
        <ele>1321.10799789429</ele>
        <time>2018-09-02T14:04:51Z</time>
      </trkpt>
      <trkpt lat="42.9184852727157" lon="-4.86327460036135">
        <ele>1322.99544906616</ele>
        <time>2018-09-02T14:04:52Z</time>
      </trkpt>
      <trkpt lat="42.9184552235929" lon="-4.8633632808969">
        <ele>1322.62301254272</ele>
        <time>2018-09-02T14:04:53Z</time>
      </trkpt>
      <trkpt lat="42.9184267251221" lon="-4.86343687400675">
        <ele>1321.94430160522</ele>
        <time>2018-09-02T14:04:54Z</time>
      </trkpt>
      <trkpt lat="42.9184030462456" lon="-4.86351155676401">
        <ele>1322.63863754272</ele>
        <time>2018-09-02T14:04:55Z</time>
      </trkpt>
      <trkpt lat="42.9183674650666" lon="-4.86358665861642">
        <ele>1323.69222640991</ele>
        <time>2018-09-02T14:04:56Z</time>
      </trkpt>
      <trkpt lat="42.9183315905211" lon="-4.86366444267786">
        <ele>1323.21310043335</ele>
        <time>2018-09-02T14:04:57Z</time>
      </trkpt>
      <trkpt lat="42.9182979371798" lon="-4.86373979598737">
        <ele>1323.1471824646</ele>
        <time>2018-09-02T14:04:58Z</time>
      </trkpt>
      <trkpt lat="42.9182629846436" lon="-4.86380324699438">
        <ele>1322.64437484741</ele>
        <time>2018-09-02T14:04:59Z</time>
      </trkpt>
      <trkpt lat="42.918220362666" lon="-4.8638659436301">
        <ele>1323.29793930054</ele>
        <time>2018-09-02T14:05:00Z</time>
      </trkpt>
      <trkpt lat="42.918175435665" lon="-4.8639230243907">
        <ele>1323.53402328491</ele>
        <time>2018-09-02T14:05:01Z</time>
      </trkpt>
      <trkpt lat="42.9181343643394" lon="-4.86397407018101">
        <ele>1323.70602035522</ele>
        <time>2018-09-02T14:05:02Z</time>
      </trkpt>
      <trkpt lat="42.9180986155224" lon="-4.86401639879203">
        <ele>1324.56258773804</ele>
        <time>2018-09-02T14:05:03Z</time>
      </trkpt>
      <trkpt lat="42.9180607712296" lon="-4.86405202188051">
        <ele>1325.20345687866</ele>
        <time>2018-09-02T14:05:04Z</time>
      </trkpt>
      <trkpt lat="42.9179961886657" lon="-4.86411035992658">
        <ele>1325.3551902771</ele>
        <time>2018-09-02T14:05:06Z</time>
      </trkpt>
      <trkpt lat="42.9179246910316" lon="-4.86416266300237">
        <ele>1326.23861312866</ele>
        <time>2018-09-02T14:05:08Z</time>
      </trkpt>
      <trkpt lat="42.9178658500713" lon="-4.86423608847415">
        <ele>1327.7194480896</ele>
        <time>2018-09-02T14:05:10Z</time>
      </trkpt>
      <trkpt lat="42.9178076377538" lon="-4.8642975278244">
        <ele>1328.07247543335</ele>
        <time>2018-09-02T14:05:12Z</time>
      </trkpt>
      <trkpt lat="42.9177384032336" lon="-4.86435796134627">
        <ele>1328.29024887085</ele>
        <time>2018-09-02T14:05:14Z</time>
      </trkpt>
      <trkpt lat="42.9177008103979" lon="-4.86440649256563">
        <ele>1327.74898910522</ele>
        <time>2018-09-02T14:05:15Z</time>
      </trkpt>
      <trkpt lat="42.9176274268356" lon="-4.8644774872855">
        <ele>1328.05807113647</ele>
        <time>2018-09-02T14:05:17Z</time>
      </trkpt>
      <trkpt lat="42.9175907560093" lon="-4.86451587640202">
        <ele>1328.56917953491</ele>
        <time>2018-09-02T14:05:18Z</time>
      </trkpt>
      <trkpt lat="42.9175116727528" lon="-4.86459022388315">
        <ele>1329.16219711304</ele>
        <time>2018-09-02T14:05:20Z</time>
      </trkpt>
      <trkpt lat="42.917460585053" lon="-4.86462651752389">
        <ele>1329.49728012085</ele>
        <time>2018-09-02T14:05:21Z</time>
      </trkpt>
      <trkpt lat="42.9174133530286" lon="-4.86466390081203">
        <ele>1330.4547996521</ele>
        <time>2018-09-02T14:05:22Z</time>
      </trkpt>
      <trkpt lat="42.9173645703522" lon="-4.86469927244341">
        <ele>1330.57332992554</ele>
        <time>2018-09-02T14:05:23Z</time>
      </trkpt>
      <trkpt lat="42.9173205653605" lon="-4.86473355442739">
        <ele>1329.59310531616</ele>
        <time>2018-09-02T14:05:24Z</time>
      </trkpt>
      <trkpt lat="42.9172814218727" lon="-4.86477261409617">
        <ele>1329.35055160522</ele>
        <time>2018-09-02T14:05:25Z</time>
      </trkpt>
      <trkpt lat="42.9172469303412" lon="-4.86482843757129">
        <ele>1331.01864242554</ele>
        <time>2018-09-02T14:05:26Z</time>
      </trkpt>
      <trkpt lat="42.9172115587098" lon="-4.86487462185776">
        <ele>1330.86312484741</ele>
        <time>2018-09-02T14:05:27Z</time>
      </trkpt>
      <trkpt lat="42.9171692300988" lon="-4.86491770484006">
        <ele>1330.49007797241</ele>
        <time>2018-09-02T14:05:28Z</time>
      </trkpt>
      <trkpt lat="42.9171235487265" lon="-4.86497009173489">
        <ele>1328.74081039429</ele>
        <time>2018-09-02T14:05:29Z</time>
      </trkpt>
      <trkpt lat="42.9170871712667" lon="-4.86503220163739">
        <ele>1328.76559066772</ele>
        <time>2018-09-02T14:05:30Z</time>
      </trkpt>
      <trkpt lat="42.9170495365215" lon="-4.86508584581769">
        <ele>1328.1432762146</ele>
        <time>2018-09-02T14:05:31Z</time>
      </trkpt>
      <trkpt lat="42.9170121532333" lon="-4.86513974145508">
        <ele>1328.92403793335</ele>
        <time>2018-09-02T14:05:32Z</time>
      </trkpt>
      <trkpt lat="42.9169752728594" lon="-4.8652042821095">
        <ele>1328.92245101929</ele>
        <time>2018-09-02T14:05:33Z</time>
      </trkpt>
      <trkpt lat="42.9169297172156" lon="-4.86527309753454">
        <ele>1327.87984848022</ele>
        <time>2018-09-02T14:05:34Z</time>
      </trkpt>
      <trkpt lat="42.9168886039806" lon="-4.86532892100966">
        <ele>1327.2067527771</ele>
        <time>2018-09-02T14:05:35Z</time>
      </trkpt>
      <trkpt lat="42.9168376839188" lon="-4.86538348719931">
        <ele>1326.65645980835</ele>
        <time>2018-09-02T14:05:36Z</time>
      </trkpt>
      <trkpt lat="42.9167883145091" lon="-4.86544836312986">
        <ele>1326.16927719116</ele>
        <time>2018-09-02T14:05:37Z</time>
      </trkpt>
      <trkpt lat="42.9167393222851" lon="-4.86550703645206">
        <ele>1326.40353012085</ele>
        <time>2018-09-02T14:05:38Z</time>
      </trkpt>
      <trkpt lat="42.9166811099676" lon="-4.86556554213619">
        <ele>1325.92623519897</ele>
        <time>2018-09-02T14:05:39Z</time>
      </trkpt>
      <trkpt lat="42.9166205088076" lon="-4.86560535617626">
        <ele>1325.75521469116</ele>
        <time>2018-09-02T14:05:40Z</time>
      </trkpt>
      <trkpt lat="42.9165596981001" lon="-4.86564835533953">
        <ele>1324.80672836304</ele>
        <time>2018-09-02T14:05:41Z</time>
      </trkpt>
      <trkpt lat="42.9164896672991" lon="-4.86567107029712">
        <ele>1324.2428855896</ele>
        <time>2018-09-02T14:05:42Z</time>
      </trkpt>
      <trkpt lat="42.9164175410223" lon="-4.8656810447619">
        <ele>1323.80013656616</ele>
        <time>2018-09-02T14:05:43Z</time>
      </trkpt>
      <trkpt lat="42.9163455823836" lon="-4.86571373418427">
        <ele>1323.18172836304</ele>
        <time>2018-09-02T14:05:44Z</time>
      </trkpt>
      <trkpt lat="42.9162849393142" lon="-4.86575933173752">
        <ele>1323.15487289429</ele>
        <time>2018-09-02T14:05:45Z</time>
      </trkpt>
      <trkpt lat="42.9162167944414" lon="-4.86580107361531">
        <ele>1323.39254379272</ele>
        <time>2018-09-02T14:05:46Z</time>
      </trkpt>
      <trkpt lat="42.9161561094624" lon="-4.86585312523401">
        <ele>1323.55062484741</ele>
        <time>2018-09-02T14:05:47Z</time>
      </trkpt>
      <trkpt lat="42.9161002021683" lon="-4.86591372639394">
        <ele>1322.77718734741</ele>
        <time>2018-09-02T14:05:48Z</time>
      </trkpt>
      <trkpt lat="42.9160374217135" lon="-4.8659709747926">
        <ele>1322.78792953491</ele>
        <time>2018-09-02T14:05:49Z</time>
      </trkpt>
      <trkpt lat="42.9159655888033" lon="-4.86601472832716">
        <ele>1323.86861801147</ele>
        <time>2018-09-02T14:05:50Z</time>
      </trkpt>
      <trkpt lat="42.9158937139836" lon="-4.86606501974619">
        <ele>1324.37130355835</ele>
        <time>2018-09-02T14:05:51Z</time>
      </trkpt>
      <trkpt lat="42.9158389382464" lon="-4.86611296423233">
        <ele>1326.18575668335</ele>
        <time>2018-09-02T14:05:52Z</time>
      </trkpt>
      <trkpt lat="42.9157833662284" lon="-4.86616895534551">
        <ele>1326.06490707397</ele>
        <time>2018-09-02T14:05:53Z</time>
      </trkpt>
      <trkpt lat="42.9157183645693" lon="-4.86621924676454">
        <ele>1327.32748031616</ele>
        <time>2018-09-02T14:05:54Z</time>
      </trkpt>
      <trkpt lat="42.9156574281332" lon="-4.86627389677322">
        <ele>1327.05160140991</ele>
        <time>2018-09-02T14:05:55Z</time>
      </trkpt>
      <trkpt lat="42.9155967850638" lon="-4.8663058318243">
        <ele>1327.11849594116</ele>
        <time>2018-09-02T14:05:56Z</time>
      </trkpt>
      <trkpt lat="42.9155361000848" lon="-4.86633583903766">
        <ele>1326.11910629272</ele>
        <time>2018-09-02T14:05:57Z</time>
      </trkpt>
      <trkpt lat="42.9154813243476" lon="-4.86635268666303">
        <ele>1326.71383285522</ele>
        <time>2018-09-02T14:05:58Z</time>
      </trkpt>
      <trkpt lat="42.9154308652905" lon="-4.86636743881262">
        <ele>1326.7448387146</ele>
        <time>2018-09-02T14:05:59Z</time>
      </trkpt>
      <trkpt lat="42.9153875727606" lon="-4.86638889648474">
        <ele>1326.73885726929</ele>
        <time>2018-09-02T14:06:00Z</time>
      </trkpt>
      <trkpt lat="42.9153441125927" lon="-4.86641898751712">
        <ele>1326.1549949646</ele>
        <time>2018-09-02T14:06:01Z</time>
      </trkpt>
      <trkpt lat="42.9152766801817" lon="-4.86649677157855">
        <ele>1325.97164535522</ele>
        <time>2018-09-02T14:06:03Z</time>
      </trkpt>
      <trkpt lat="42.9152332200137" lon="-4.86653432250476">
        <ele>1325.92708969116</ele>
        <time>2018-09-02T14:06:04Z</time>
      </trkpt>
      <trkpt lat="42.9151973454681" lon="-4.86657371744967">
        <ele>1326.01424789429</ele>
        <time>2018-09-02T14:06:05Z</time>
      </trkpt>
      <trkpt lat="42.9151459224922" lon="-4.86660464667237">
        <ele>1325.46004867554</ele>
        <time>2018-09-02T14:06:06Z</time>
      </trkpt>
      <trkpt lat="42.9151013307673" lon="-4.86663943157053">
        <ele>1325.52462387085</ele>
        <time>2018-09-02T14:06:07Z</time>
      </trkpt>
      <trkpt lat="42.9150560684902" lon="-4.86667254008806">
        <ele>1324.55794906616</ele>
        <time>2018-09-02T14:06:08Z</time>
      </trkpt>
      <trkpt lat="42.9150050226999" lon="-4.86670137383497">
        <ele>1325.32516098022</ele>
        <time>2018-09-02T14:06:09Z</time>
      </trkpt>
      <trkpt lat="42.9149487801296" lon="-4.86673464999056">
        <ele>1325.06332015991</ele>
        <time>2018-09-02T14:06:10Z</time>
      </trkpt>
      <trkpt lat="42.9149003746388" lon="-4.86676683649874">
        <ele>1325.14986801147</ele>
        <time>2018-09-02T14:06:11Z</time>
      </trkpt>
      <trkpt lat="42.9148518015099" lon="-4.866796592255">
        <ele>1324.89022445679</ele>
        <time>2018-09-02T14:06:12Z</time>
      </trkpt>
      <trkpt lat="42.9148031864715" lon="-4.86682693474448">
        <ele>1324.84029769897</ele>
        <time>2018-09-02T14:06:13Z</time>
      </trkpt>
      <trkpt lat="42.9147606483129" lon="-4.86686574295616">
        <ele>1325.42672348022</ele>
        <time>2018-09-02T14:06:14Z</time>
      </trkpt>
      <trkpt lat="42.9147131648314" lon="-4.86689683981693">
        <ele>1325.43709945679</ele>
        <time>2018-09-02T14:06:15Z</time>
      </trkpt>
      <trkpt lat="42.9146704171253" lon="-4.86692994833446">
        <ele>1324.37423324585</ele>
        <time>2018-09-02T14:06:16Z</time>
      </trkpt>
      <trkpt lat="42.9146289686141" lon="-4.86696297303295">
        <ele>1324.26412582397</ele>
        <time>2018-09-02T14:06:17Z</time>
      </trkpt>
      <trkpt lat="42.9145518551049" lon="-4.86702566966868">
        <ele>1324.10055160522</ele>
        <time>2018-09-02T14:06:19Z</time>
      </trkpt>
      <trkpt lat="42.9144796450091" lon="-4.86708031967736">
        <ele>1323.91549301147</ele>
        <time>2018-09-02T14:06:21Z</time>
      </trkpt>
      <trkpt lat="42.9144209297774" lon="-4.86715005711174">
        <ele>1323.92782211304</ele>
        <time>2018-09-02T14:06:23Z</time>
      </trkpt>
      <trkpt lat="42.9143560538468" lon="-4.86722365022159">
        <ele>1325.09945297241</ele>
        <time>2018-09-02T14:06:25Z</time>
      </trkpt>
      <trkpt lat="42.9143058881563" lon="-4.86731668934679">
        <ele>1325.33614730835</ele>
        <time>2018-09-02T14:06:27Z</time>
      </trkpt>
      <trkpt lat="42.9142830474702" lon="-4.86737242900288">
        <ele>1325.74264144897</ele>
        <time>2018-09-02T14:06:28Z</time>
      </trkpt>
      <trkpt lat="42.9142606258792" lon="-4.86742917448736">
        <ele>1326.46688461304</ele>
        <time>2018-09-02T14:06:29Z</time>
      </trkpt>
      <trkpt lat="42.9142390843881" lon="-4.86748659052408">
        <ele>1326.51607894897</ele>
        <time>2018-09-02T14:06:30Z</time>
      </trkpt>
      <trkpt lat="42.9142015334618" lon="-4.86760393716848">
        <ele>1326.02193832397</ele>
        <time>2018-09-02T14:06:32Z</time>
      </trkpt>
      <trkpt lat="42.9141475120959" lon="-4.86771239899552">
        <ele>1324.73482894897</ele>
        <time>2018-09-02T14:06:34Z</time>
      </trkpt>
      <trkpt lat="42.9141269345236" lon="-4.86777652055478">
        <ele>1324.34957504272</ele>
        <time>2018-09-02T14:06:35Z</time>
      </trkpt>
      <trkpt lat="42.9141195165393" lon="-4.867843156685">
        <ele>1324.33492660522</ele>
        <time>2018-09-02T14:06:36Z</time>
      </trkpt>
      <trkpt lat="42.9141012020809" lon="-4.86790576950169">
        <ele>1324.43221664429</ele>
        <time>2018-09-02T14:06:37Z</time>
      </trkpt>
      <trkpt lat="42.9140854441029" lon="-4.86797701567865">
        <ele>1324.63924789429</ele>
        <time>2018-09-02T14:06:38Z</time>
      </trkpt>
      <trkpt lat="42.9140690993917" lon="-4.86804759130335">
        <ele>1325.0856590271</ele>
        <time>2018-09-02T14:06:39Z</time>
      </trkpt>
      <trkpt lat="42.9140426125777" lon="-4.86811556853807">
        <ele>1324.81380844116</ele>
        <time>2018-09-02T14:06:40Z</time>
      </trkpt>
      <trkpt lat="42.9140066542131" lon="-4.86817868426895">
        <ele>1324.99801254272</ele>
        <time>2018-09-02T14:06:41Z</time>
      </trkpt>
      <trkpt lat="42.9139716178578" lon="-4.86824272200919">
        <ele>1324.98531723022</ele>
        <time>2018-09-02T14:06:42Z</time>
      </trkpt>
      <trkpt lat="42.9139339412031" lon="-4.86829955131269">
        <ele>1324.65963363647</ele>
        <time>2018-09-02T14:06:43Z</time>
      </trkpt>
      <trkpt lat="42.913879584561" lon="-4.86834799871302">
        <ele>1325.26974105835</ele>
        <time>2018-09-02T14:06:44Z</time>
      </trkpt>
      <trkpt lat="42.9138423689109" lon="-4.86840725876844">
        <ele>1325.3180809021</ele>
        <time>2018-09-02T14:06:45Z</time>
      </trkpt>
      <trkpt lat="42.913804105523" lon="-4.86847138032771">
        <ele>1324.84090805054</ele>
        <time>2018-09-02T14:06:46Z</time>
      </trkpt>
      <trkpt lat="42.9137468990338" lon="-4.86852326430834">
        <ele>1324.98202133179</ele>
        <time>2018-09-02T14:06:47Z</time>
      </trkpt>
      <trkpt lat="42.9137057438892" lon="-4.86859434284723">
        <ele>1324.72127914429</ele>
        <time>2018-09-02T14:06:48Z</time>
      </trkpt>
      <trkpt lat="42.913653650361" lon="-4.86867179163254">
        <ele>1324.57308578491</ele>
        <time>2018-09-02T14:06:49Z</time>
      </trkpt>
      <trkpt lat="42.9136206256625" lon="-4.86875116825557">
        <ele>1324.19820785522</ele>
        <time>2018-09-02T14:06:50Z</time>
      </trkpt>
      <trkpt lat="42.9135879362402" lon="-4.8688392620579">
        <ele>1323.66512680054</ele>
        <time>2018-09-02T14:06:51Z</time>
      </trkpt>
      <trkpt lat="42.9135574261126" lon="-4.86892903224087">
        <ele>1323.24300765991</ele>
        <time>2018-09-02T14:06:52Z</time>
      </trkpt>
      <trkpt lat="42.9135384830115" lon="-4.86903497949696">
        <ele>1322.57406234741</ele>
        <time>2018-09-02T14:06:53Z</time>
      </trkpt>
      <trkpt lat="42.9135255329711" lon="-4.86913966946757">
        <ele>1322.53707504272</ele>
        <time>2018-09-02T14:06:54Z</time>
      </trkpt>
      <trkpt lat="42.9135088529837" lon="-4.86923363060213">
        <ele>1321.92281723022</ele>
        <time>2018-09-02T14:06:55Z</time>
      </trkpt>
      <trkpt lat="42.9134869762165" lon="-4.8693281784699">
        <ele>1321.6198387146</ele>
        <time>2018-09-02T14:06:56Z</time>
      </trkpt>
      <trkpt lat="42.9134484613714" lon="-4.86939657479978">
        <ele>1320.54427719116</ele>
        <time>2018-09-02T14:06:57Z</time>
      </trkpt>
      <trkpt lat="42.9133918416155" lon="-4.86945868470228">
        <ele>1315.84884262085</ele>
        <time>2018-09-02T14:06:58Z</time>
      </trkpt>
      <trkpt lat="42.9133319529173" lon="-4.86951861530996">
        <ele>1313.74923324585</ele>
        <time>2018-09-02T14:06:59Z</time>
      </trkpt>
      <trkpt lat="42.9132385366065" lon="-4.86961919814802">
        <ele>1314.86288070679</ele>
        <time>2018-09-02T14:07:01Z</time>
      </trkpt>
      <trkpt lat="42.9131953698051" lon="-4.86968122423149">
        <ele>1314.9215965271</ele>
        <time>2018-09-02T14:07:02Z</time>
      </trkpt>
      <trkpt lat="42.9131521191848" lon="-4.86974065192497">
        <ele>1316.18343734741</ele>
        <time>2018-09-02T14:07:03Z</time>
      </trkpt>
      <trkpt lat="42.9131159093631" lon="-4.86980888061679">
        <ele>1316.44344711304</ele>
        <time>2018-09-02T14:07:04Z</time>
      </trkpt>
      <trkpt lat="42.9130744189424" lon="-4.86986688338674">
        <ele>1316.63973617554</ele>
        <time>2018-09-02T14:07:05Z</time>
      </trkpt>
      <trkpt lat="42.9130221577761" lon="-4.8699206952051">
        <ele>1316.1237449646</ele>
        <time>2018-09-02T14:07:06Z</time>
      </trkpt>
      <trkpt lat="42.912967633496" lon="-4.86997551285184">
        <ele>1316.57284164429</ele>
        <time>2018-09-02T14:07:07Z</time>
      </trkpt>
      <trkpt lat="42.9129220359427" lon="-4.87003385089791">
        <ele>1319.50313949585</ele>
        <time>2018-09-02T14:07:08Z</time>
      </trkpt>
      <trkpt lat="42.9128637817157" lon="-4.87009042874432">
        <ele>1320.77145004272</ele>
        <time>2018-09-02T14:07:09Z</time>
      </trkpt>
      <trkpt lat="42.9128147894916" lon="-4.87014742568589">
        <ele>1322.12105941772</ele>
        <time>2018-09-02T14:07:10Z</time>
      </trkpt>
      <trkpt lat="42.9127492430088" lon="-4.87020157278038">
        <ele>1322.44186019897</ele>
        <time>2018-09-02T14:07:11Z</time>
      </trkpt>
      <trkpt lat="42.9126820201454" lon="-4.87025312148488">
        <ele>1322.00277328491</ele>
        <time>2018-09-02T14:07:12Z</time>
      </trkpt>
      <trkpt lat="42.9126217961711" lon="-4.87029570155299">
        <ele>1321.88595199585</ele>
        <time>2018-09-02T14:07:13Z</time>
      </trkpt>
      <trkpt lat="42.9125650506866" lon="-4.87033895217336">
        <ele>1322.09579086304</ele>
        <time>2018-09-02T14:07:14Z</time>
      </trkpt>
      <trkpt lat="42.9124966962663" lon="-4.87037591636634">
        <ele>1322.99911117554</ele>
        <time>2018-09-02T14:07:15Z</time>
      </trkpt>
      <trkpt lat="42.9124316946072" lon="-4.87040667795098">
        <ele>1323.13570785522</ele>
        <time>2018-09-02T14:07:16Z</time>
      </trkpt>
      <trkpt lat="42.9123696685237" lon="-4.87043718807853">
        <ele>1322.85445785522</ele>
        <time>2018-09-02T14:07:17Z</time>
      </trkpt>
      <trkpt lat="42.9123096121875" lon="-4.8704611603216">
        <ele>1322.73653793335</ele>
        <time>2018-09-02T14:07:18Z</time>
      </trkpt>
      <trkpt lat="42.91224880148" lon="-4.87047574483312">
        <ele>1323.81527328491</ele>
        <time>2018-09-02T14:07:19Z</time>
      </trkpt>
      <trkpt lat="42.9121887870533" lon="-4.8704889044211">
        <ele>1323.80086898804</ele>
        <time>2018-09-02T14:07:20Z</time>
      </trkpt>
      <trkpt lat="42.9121300718215" lon="-4.8704889044211">
        <ele>1324.18966293335</ele>
        <time>2018-09-02T14:07:21Z</time>
      </trkpt>
      <trkpt lat="42.9120716499564" lon="-4.87049477175332">
        <ele>1324.70858383179</ele>
        <time>2018-09-02T14:07:22Z</time>
      </trkpt>
      <trkpt lat="42.91202286728" lon="-4.87049611285782">
        <ele>1324.92049789429</ele>
        <time>2018-09-02T14:07:23Z</time>
      </trkpt>
      <trkpt lat="42.9119716538516" lon="-4.87050432712293">
        <ele>1325.50399398804</ele>
        <time>2018-09-02T14:07:24Z</time>
      </trkpt>
      <trkpt lat="42.9119207756993" lon="-4.87051245756901">
        <ele>1324.85067367554</ele>
        <time>2018-09-02T14:07:25Z</time>
      </trkpt>
      <trkpt lat="42.9118516669077" lon="-4.87053785473562">
        <ele>1325.53011703491</ele>
        <time>2018-09-02T14:07:26Z</time>
      </trkpt>
      <trkpt lat="42.91179693308" lon="-4.87058068626083">
        <ele>1325.48202133179</ele>
        <time>2018-09-02T14:07:27Z</time>
      </trkpt>
      <trkpt lat="42.9117404390526" lon="-4.87061672844446">
        <ele>1326.73519515991</ele>
        <time>2018-09-02T14:07:28Z</time>
      </trkpt>
      <trkpt lat="42.9116923269284" lon="-4.87065922469354">
        <ele>1326.7965965271</ele>
        <time>2018-09-02T14:07:29Z</time>
      </trkpt>
      <trkpt lat="42.9116400657621" lon="-4.87070398405648">
        <ele>1326.90572738647</ele>
        <time>2018-09-02T14:07:30Z</time>
      </trkpt>
      <trkpt lat="42.9115963541371" lon="-4.87074027769721">
        <ele>1326.43111801147</ele>
        <time>2018-09-02T14:07:31Z</time>
      </trkpt>
      <trkpt lat="42.911545978899" lon="-4.87078302540339">
        <ele>1325.9714012146</ele>
        <time>2018-09-02T14:07:32Z</time>
      </trkpt>
      <trkpt lat="42.9114964837608" lon="-4.87082107924379">
        <ele>1326.47176742554</ele>
        <time>2018-09-02T14:07:33Z</time>
      </trkpt>
      <trkpt lat="42.9114482039985" lon="-4.87085561268485">
        <ele>1326.64168930054</ele>
        <time>2018-09-02T14:07:34Z</time>
      </trkpt>
      <trkpt lat="42.911404450464" lon="-4.87089903094328">
        <ele>1326.98739242554</ele>
        <time>2018-09-02T14:07:35Z</time>
      </trkpt>
      <trkpt lat="42.9113599844677" lon="-4.87093867734528">
        <ele>1326.61959457397</ele>
        <time>2018-09-02T14:07:36Z</time>
      </trkpt>
      <trkpt lat="42.9113184521374" lon="-4.87098209560371">
        <ele>1326.54146957397</ele>
        <time>2018-09-02T14:07:37Z</time>
      </trkpt>
      <trkpt lat="42.9112767102596" lon="-4.87103540450788">
        <ele>1326.61764144897</ele>
        <time>2018-09-02T14:07:38Z</time>
      </trkpt>
      <trkpt lat="42.9112396203381" lon="-4.87109131180204">
        <ele>1326.24300765991</ele>
        <time>2018-09-02T14:07:39Z</time>
      </trkpt>
      <trkpt lat="42.9112008121264" lon="-4.87114881165779">
        <ele>1326.56063461304</ele>
        <time>2018-09-02T14:07:40Z</time>
      </trkpt>
      <trkpt lat="42.9111765046072" lon="-4.87121880054928">
        <ele>1326.25301742554</ele>
        <time>2018-09-02T14:07:41Z</time>
      </trkpt>
      <trkpt lat="42.9111435218182" lon="-4.87128853798366">
        <ele>1326.66146469116</ele>
        <time>2018-09-02T14:07:42Z</time>
      </trkpt>
      <trkpt lat="42.9111093236533" lon="-4.87137403339601">
        <ele>1326.66537094116</ele>
        <time>2018-09-02T14:07:43Z</time>
      </trkpt>
      <trkpt lat="42.9110835073915" lon="-4.87144771032489">
        <ele>1326.29452133179</ele>
        <time>2018-09-02T14:07:44Z</time>
      </trkpt>
      <trkpt lat="42.9110461660129" lon="-4.87152247690118">
        <ele>1325.36373519897</ele>
        <time>2018-09-02T14:07:45Z</time>
      </trkpt>
      <trkpt lat="42.9110048013208" lon="-4.87160772085644">
        <ele>1326.17965316772</ele>
        <time>2018-09-02T14:07:46Z</time>
      </trkpt>
      <trkpt lat="42.9109663702947" lon="-4.87169070169783">
        <ele>1326.07332992554</ele>
        <time>2018-09-02T14:07:47Z</time>
      </trkpt>
      <trkpt lat="42.9109311243919" lon="-4.87177343108214">
        <ele>1325.16720199585</ele>
        <time>2018-09-02T14:07:48Z</time>
      </trkpt>
      <trkpt lat="42.9108920647231" lon="-4.87184350379265">
        <ele>1324.2926902771</ele>
        <time>2018-09-02T14:07:49Z</time>
      </trkpt>
      <trkpt lat="42.9108352354196" lon="-4.87191558815993">
        <ele>1322.98458480835</ele>
        <time>2018-09-02T14:07:50Z</time>
      </trkpt>
      <trkpt lat="42.9107805854109" lon="-4.87197945826209">
        <ele>1322.31844711304</ele>
        <time>2018-09-02T14:07:51Z</time>
      </trkpt>
      <trkpt lat="42.910731928463" lon="-4.87204089761234">
        <ele>1321.30306625366</ele>
        <time>2018-09-02T14:07:52Z</time>
      </trkpt>
      <trkpt lat="42.9106807988537" lon="-4.87211138941801">
        <ele>1320.50606918335</ele>
        <time>2018-09-02T14:07:53Z</time>
      </trkpt>
      <trkpt lat="42.9106295854253" lon="-4.87219529226876">
        <ele>1322.0065574646</ele>
        <time>2018-09-02T14:07:54Z</time>
      </trkpt>
      <trkpt lat="42.9105549864871" lon="-4.87225463614322">
        <ele>1321.02376937866</ele>
        <time>2018-09-02T14:07:55Z</time>
      </trkpt>
      <trkpt lat="42.9104746459452" lon="-4.87229897641099">
        <ele>1320.1999168396</ele>
        <time>2018-09-02T14:07:56Z</time>
      </trkpt>
      <trkpt lat="42.9104051180583" lon="-4.87236293033219">
        <ele>1318.9958152771</ele>
        <time>2018-09-02T14:07:57Z</time>
      </trkpt>
      <trkpt lat="42.9103161022467" lon="-4.87241037190414">
        <ele>1318.34762191772</ele>
        <time>2018-09-02T14:07:58Z</time>
      </trkpt>
      <trkpt lat="42.9102187883508" lon="-4.87244834192551">
        <ele>1318.27059555054</ele>
        <time>2018-09-02T14:07:59Z</time>
      </trkpt>
      <trkpt lat="42.9101274256063" lon="-4.87248681486107">
        <ele>1318.86849594116</ele>
        <time>2018-09-02T14:08:00Z</time>
      </trkpt>
      <trkpt lat="42.9100384517041" lon="-4.87250760198093">
        <ele>1317.93832015991</ele>
        <time>2018-09-02T14:08:01Z</time>
      </trkpt>
      <trkpt lat="42.9099433590126" lon="-4.87253752537525">
        <ele>1316.0641746521</ele>
        <time>2018-09-02T14:08:02Z</time>
      </trkpt>
      <trkpt lat="42.9098566063148" lon="-4.8725749086634">
        <ele>1314.95150375366</ele>
        <time>2018-09-02T14:08:03Z</time>
      </trkpt>
      <trkpt lat="42.9097698117075" lon="-4.87260810099996">
        <ele>1314.35567855835</ele>
        <time>2018-09-02T14:08:04Z</time>
      </trkpt>
      <trkpt lat="42.9096828494621" lon="-4.8726338334427">
        <ele>1314.49654769897</ele>
        <time>2018-09-02T14:08:05Z</time>
      </trkpt>
      <trkpt lat="42.9095867928517" lon="-4.87261723727442">
        <ele>1314.86141586304</ele>
        <time>2018-09-02T14:08:06Z</time>
      </trkpt>
      <trkpt lat="42.9094930412647" lon="-4.87258781679428">
        <ele>1313.46969223022</ele>
        <time>2018-09-02T14:08:07Z</time>
      </trkpt>
      <trkpt lat="42.9094055761051" lon="-4.87253165804303">
        <ele>1314.15475082397</ele>
        <time>2018-09-02T14:08:08Z</time>
      </trkpt>
      <trkpt lat="42.9093269538534" lon="-4.87246770412184">
        <ele>1315.12044906616</ele>
        <time>2018-09-02T14:08:09Z</time>
      </trkpt>
      <trkpt lat="42.9092653049556" lon="-4.87237793393887">
        <ele>1315.01864242554</ele>
        <time>2018-09-02T14:08:10Z</time>
      </trkpt>
      <trkpt lat="42.9092217190591" lon="-4.87229134887911">
        <ele>1315.31917953491</ele>
        <time>2018-09-02T14:08:11Z</time>
      </trkpt>
      <trkpt lat="42.9091829527569" lon="-4.87220166251517">
        <ele>1315.64962387085</ele>
        <time>2018-09-02T14:08:12Z</time>
      </trkpt>
      <trkpt lat="42.9091510177058" lon="-4.8721187654928">
        <ele>1315.79110336304</ele>
        <time>2018-09-02T14:08:13Z</time>
      </trkpt>
      <trkpt lat="42.9091312783239" lon="-4.87202773802436">
        <ele>1315.2585105896</ele>
        <time>2018-09-02T14:08:14Z</time>
      </trkpt>
      <trkpt lat="42.9091145983365" lon="-4.87192564644373">
        <ele>1315.13802719116</ele>
        <time>2018-09-02T14:08:15Z</time>
      </trkpt>
      <trkpt lat="42.9090997204584" lon="-4.87182439305342">
        <ele>1313.3258934021</ele>
        <time>2018-09-02T14:08:16Z</time>
      </trkpt>
      <trkpt lat="42.909061750437" lon="-4.87175130285776">
        <ele>1314.54403305054</ele>
        <time>2018-09-02T14:08:17Z</time>
      </trkpt>
      <trkpt lat="42.9090136802224" lon="-4.87167913467146">
        <ele>1314.3317527771</ele>
        <time>2018-09-02T14:08:18Z</time>
      </trkpt>
      <trkpt lat="42.9089617543322" lon="-4.87162557431019">
        <ele>1313.79378890991</ele>
        <time>2018-09-02T14:08:19Z</time>
      </trkpt>
      <trkpt lat="42.908900398801" lon="-4.87158257514692">
        <ele>1313.17794418335</ele>
        <time>2018-09-02T14:08:20Z</time>
      </trkpt>
      <trkpt lat="42.9088432761309" lon="-4.87153379247046">
        <ele>1313.05807113647</ele>
        <time>2018-09-02T14:08:21Z</time>
      </trkpt>
      <trkpt lat="42.9087880812985" lon="-4.8714815732137">
        <ele>1312.69454574585</ele>
        <time>2018-09-02T14:08:22Z</time>
      </trkpt>
      <trkpt lat="42.9087398015362" lon="-4.87142709084309">
        <ele>1312.03951644897</ele>
        <time>2018-09-02T14:08:23Z</time>
      </trkpt>
      <trkpt lat="42.9086931562451" lon="-4.87136850133992">
        <ele>1310.84493637085</ele>
        <time>2018-09-02T14:08:24Z</time>
      </trkpt>
      <trkpt lat="42.9086389253316" lon="-4.87131527625478">
        <ele>1311.46395492554</ele>
        <time>2018-09-02T14:08:25Z</time>
      </trkpt>
      <trkpt lat="42.9085907293883" lon="-4.8712574411229">
        <ele>1311.83065414429</ele>
        <time>2018-09-02T14:08:26Z</time>
      </trkpt>
      <trkpt lat="42.9085269850147" lon="-4.87121150829352">
        <ele>1313.28609848022</ele>
        <time>2018-09-02T14:08:27Z</time>
      </trkpt>
      <trkpt lat="42.9084771965099" lon="-4.87115602009452">
        <ele>1312.55904769897</ele>
        <time>2018-09-02T14:08:28Z</time>
      </trkpt>
      <trkpt lat="42.9084309703139" lon="-4.87109592184878">
        <ele>1311.59884262085</ele>
        <time>2018-09-02T14:08:29Z</time>
      </trkpt>
      <trkpt lat="42.9083814332661" lon="-4.87103205174661">
        <ele>1310.53805160522</ele>
        <time>2018-09-02T14:08:30Z</time>
      </trkpt>
      <trkpt lat="42.9083330696848" lon="-4.87097681500471">
        <ele>1309.97506332397</ele>
        <time>2018-09-02T14:08:31Z</time>
      </trkpt>
      <trkpt lat="42.9082827782658" lon="-4.87092166208184">
        <ele>1310.17477035522</ele>
        <time>2018-09-02T14:08:32Z</time>
      </trkpt>
      <trkpt lat="42.9082187405256" lon="-4.87087103538669">
        <ele>1309.92318344116</ele>
        <time>2018-09-02T14:08:33Z</time>
      </trkpt>
      <trkpt lat="42.9081369750601" lon="-4.87084069289721">
        <ele>1308.5964012146</ele>
        <time>2018-09-02T14:08:34Z</time>
      </trkpt>
      <trkpt lat="42.9080544552234" lon="-4.87083105370856">
        <ele>1308.07369613647</ele>
        <time>2018-09-02T14:08:35Z</time>
      </trkpt>
      <trkpt lat="42.9079618771029" lon="-4.87084656022943">
        <ele>1308.50191879272</ele>
        <time>2018-09-02T14:08:36Z</time>
      </trkpt>
      <trkpt lat="42.9078703048107" lon="-4.87085041590489">
        <ele>1308.14071273804</ele>
        <time>2018-09-02T14:08:37Z</time>
      </trkpt>
      <trkpt lat="42.9077799478945" lon="-4.87088318914629">
        <ele>1307.33529281616</ele>
        <time>2018-09-02T14:08:38Z</time>
      </trkpt>
      <trkpt lat="42.9076905129877" lon="-4.87091881223477">
        <ele>1306.88131332397</ele>
        <time>2018-09-02T14:08:39Z</time>
      </trkpt>
      <trkpt lat="42.9076024191854" lon="-4.87097295932925">
        <ele>1305.71993637085</ele>
        <time>2018-09-02T14:08:40Z</time>
      </trkpt>
      <trkpt lat="42.9075170914111" lon="-4.87102459185279">
        <ele>1305.55404281616</ele>
        <time>2018-09-02T14:08:41Z</time>
      </trkpt>
      <trkpt lat="42.9074410256398" lon="-4.87108133733726">
        <ele>1304.32528305054</ele>
        <time>2018-09-02T14:08:42Z</time>
      </trkpt>
      <trkpt lat="42.9073489085239" lon="-4.87113171257532">
        <ele>1303.64071273804</ele>
        <time>2018-09-02T14:08:43Z</time>
      </trkpt>
      <trkpt lat="42.9072686937106" lon="-4.87120790407515">
        <ele>1303.55624008179</ele>
        <time>2018-09-02T14:08:44Z</time>
      </trkpt>
      <trkpt lat="42.9071877664355" lon="-4.87127956934727">
        <ele>1303.59273910522</ele>
        <time>2018-09-02T14:08:45Z</time>
      </trkpt>
      <trkpt lat="42.9071257822615" lon="-4.87135006115294">
        <ele>1305.05013656616</ele>
        <time>2018-09-02T14:08:46Z</time>
      </trkpt>
      <trkpt lat="42.9070770834041" lon="-4.87141711637831">
        <ele>1305.65194320679</ele>
        <time>2018-09-02T14:08:47Z</time>
      </trkpt>
      <trkpt lat="42.9070297675607" lon="-4.87145927735127">
        <ele>1305.71908187866</ele>
        <time>2018-09-02T14:08:48Z</time>
      </trkpt>
      <trkpt lat="42.9069866007594" lon="-4.87149615772522">
        <ele>1306.54354476929</ele>
        <time>2018-09-02T14:08:49Z</time>
      </trkpt>
      <trkpt lat="42.906941967125" lon="-4.87151820213056">
        <ele>1305.61153793335</ele>
        <time>2018-09-02T14:08:50Z</time>
      </trkpt>
      <trkpt lat="42.9069097387073" lon="-4.87157687545276">
        <ele>1305.04244613647</ele>
        <time>2018-09-02T14:08:51Z</time>
      </trkpt>
      <trkpt lat="42.9068717686859" lon="-4.87161274999834">
        <ele>1303.93416976929</ele>
        <time>2018-09-02T14:08:52Z</time>
      </trkpt>
      <trkpt lat="42.9068291047988" lon="-4.87169128843106">
        <ele>1303.09615707397</ele>
        <time>2018-09-02T14:08:54Z</time>
      </trkpt>
      <trkpt lat="42.9067740776044" lon="-4.87175256014324">
        <ele>1301.38363265991</ele>
        <time>2018-09-02T14:08:56Z</time>
      </trkpt>
      <trkpt lat="42.9067269293991" lon="-4.87180125900067">
        <ele>1298.20309066772</ele>
        <time>2018-09-02T14:08:57Z</time>
      </trkpt>
      <trkpt lat="42.9066692199958" lon="-4.87186512910283">
        <ele>1298.4167137146</ele>
        <time>2018-09-02T14:08:59Z</time>
      </trkpt>
      <trkpt lat="42.9066405957964" lon="-4.87196604721702">
        <ele>1300.49605941772</ele>
        <time>2018-09-02T14:09:01Z</time>
      </trkpt>
      <trkpt lat="42.9065890890014" lon="-4.87204701640166">
        <ele>1299.61751937866</ele>
        <time>2018-09-02T14:09:03Z</time>
      </trkpt>
      <trkpt lat="42.9065491073233" lon="-4.8721517901913">
        <ele>1300.09688949585</ele>
        <time>2018-09-02T14:09:05Z</time>
      </trkpt>
      <trkpt lat="42.906519183929" lon="-4.87220283598162">
        <ele>1299.28084945679</ele>
        <time>2018-09-02T14:09:06Z</time>
      </trkpt>
      <trkpt lat="42.9064977681664" lon="-4.8722659517125">
        <ele>1299.19930648804</ele>
        <time>2018-09-02T14:09:07Z</time>
      </trkpt>
      <trkpt lat="42.9064596724165" lon="-4.87235773355223">
        <ele>1297.67965316772</ele>
        <time>2018-09-02T14:09:09Z</time>
      </trkpt>
      <trkpt lat="42.9064309224886" lon="-4.87240609713353">
        <ele>1296.78243637085</ele>
        <time>2018-09-02T14:09:10Z</time>
      </trkpt>
      <trkpt lat="42.9063969338712" lon="-4.87245278433419">
        <ele>1296.84945297241</ele>
        <time>2018-09-02T14:09:11Z</time>
      </trkpt>
      <trkpt lat="42.9063543118936" lon="-4.87250005826808">
        <ele>1295.98458480835</ele>
        <time>2018-09-02T14:09:12Z</time>
      </trkpt>
      <trkpt lat="42.9063079599691" lon="-4.87258379348076">
        <ele>1298.32748031616</ele>
        <time>2018-09-02T14:09:14Z</time>
      </trkpt>
      <trkpt lat="42.9062632425156" lon="-4.87266534939862">
        <ele>1301.95223617554</ele>
        <time>2018-09-02T14:09:16Z</time>
      </trkpt>
      <trkpt lat="42.9062030185414" lon="-4.87268580124236">
        <ele>1301.95113754272</ele>
        <time>2018-09-02T14:09:18Z</time>
      </trkpt>
      <trkpt lat="42.9061469436091" lon="-4.87273341045237">
        <ele>1302.41451644897</ele>
        <time>2018-09-02T14:09:20Z</time>
      </trkpt>
      <trkpt lat="42.9060821514976" lon="-4.87276802771247">
        <ele>1303.91012191772</ele>
        <time>2018-09-02T14:09:22Z</time>
      </trkpt>
      <trkpt lat="42.9060215084282" lon="-4.87278789282299">
        <ele>1306.81051254272</ele>
        <time>2018-09-02T14:09:24Z</time>
      </trkpt>
      <trkpt lat="42.9059580155117" lon="-4.87279945984937">
        <ele>1306.37289047241</ele>
        <time>2018-09-02T14:09:26Z</time>
      </trkpt>
      <trkpt lat="42.9058951931474" lon="-4.87282653339661">
        <ele>1308.09322738647</ele>
        <time>2018-09-02T14:09:28Z</time>
      </trkpt>
      <trkpt lat="42.9058276769173" lon="-4.87286793999828">
        <ele>1308.01266098022</ele>
        <time>2018-09-02T14:09:30Z</time>
      </trkpt>
      <trkpt lat="42.9057609150586" lon="-4.87289308570779">
        <ele>1308.29183578491</ele>
        <time>2018-09-02T14:09:32Z</time>
      </trkpt>
      <trkpt lat="42.9056988470656" lon="-4.87292661332048">
        <ele>1307.63570785522</ele>
        <time>2018-09-02T14:09:34Z</time>
      </trkpt>
      <trkpt lat="42.9056316242022" lon="-4.87297413871146">
        <ele>1308.16512680054</ele>
        <time>2018-09-02T14:09:36Z</time>
      </trkpt>
      <trkpt lat="42.9055677541" lon="-4.8730289563582">
        <ele>1309.32442855835</ele>
        <time>2018-09-02T14:09:38Z</time>
      </trkpt>
      <trkpt lat="42.9055015370649" lon="-4.87308804877556">
        <ele>1308.49947738647</ele>
        <time>2018-09-02T14:09:40Z</time>
      </trkpt>
      <trkpt lat="42.9054353619394" lon="-4.87315082923032">
        <ele>1309.45248031616</ele>
        <time>2018-09-02T14:09:42Z</time>
      </trkpt>
      <trkpt lat="42.9053691029948" lon="-4.8732295353011">
        <ele>1309.4831199646</ele>
        <time>2018-09-02T14:09:44Z</time>
      </trkpt>
      <trkpt lat="42.9053347791013" lon="-4.87327328883565">
        <ele>1309.3620262146</ele>
        <time>2018-09-02T14:09:45Z</time>
      </trkpt>
      <trkpt lat="42.9053003713888" lon="-4.8733172938273">
        <ele>1309.59286117554</ele>
        <time>2018-09-02T14:09:46Z</time>
      </trkpt>
      <trkpt lat="42.9052526364502" lon="-4.87337227911211">
        <ele>1308.84505844116</ele>
        <time>2018-09-02T14:09:47Z</time>
      </trkpt>
      <trkpt lat="42.9052151693431" lon="-4.87341477536119">
        <ele>1309.2692527771</ele>
        <time>2018-09-02T14:09:48Z</time>
      </trkpt>
      <trkpt lat="42.9051818093685" lon="-4.87346380949474">
        <ele>1309.03316879272</ele>
        <time>2018-09-02T14:09:49Z</time>
      </trkpt>
      <trkpt lat="42.9051416600523" lon="-4.8735144361899">
        <ele>1309.11947250366</ele>
        <time>2018-09-02T14:09:50Z</time>
      </trkpt>
      <trkpt lat="42.9050963558656" lon="-4.87356715836085">
        <ele>1308.82406234741</ele>
        <time>2018-09-02T14:09:51Z</time>
      </trkpt>
      <trkpt lat="42.9050502134887" lon="-4.87363102846301">
        <ele>1308.09774398804</ele>
        <time>2018-09-02T14:09:52Z</time>
      </trkpt>
      <trkpt lat="42.9049970722225" lon="-4.87369422801293">
        <ele>1307.77108383179</ele>
        <time>2018-09-02T14:09:53Z</time>
      </trkpt>
      <trkpt lat="42.9049396561858" lon="-4.87375994213379">
        <ele>1307.3141746521</ele>
        <time>2018-09-02T14:09:54Z</time>
      </trkpt>
      <trkpt lat="42.904875492717" lon="-4.87382582389272">
        <ele>1305.47079086304</ele>
        <time>2018-09-02T14:09:55Z</time>
      </trkpt>
      <trkpt lat="42.9048165679378" lon="-4.87389396876551">
        <ele>1305.75680160522</ele>
        <time>2018-09-02T14:09:56Z</time>
      </trkpt>
      <trkpt lat="42.9047654802379" lon="-4.87397150136984">
        <ele>1304.81234359741</ele>
        <time>2018-09-02T14:09:57Z</time>
      </trkpt>
      <trkpt lat="42.9046988860172" lon="-4.87405456603027">
        <ele>1303.58321762085</ele>
        <time>2018-09-02T14:09:58Z</time>
      </trkpt>
      <trkpt lat="42.9046471696747" lon="-4.8741360381291">
        <ele>1303.8219871521</ele>
        <time>2018-09-02T14:09:59Z</time>
      </trkpt>
      <trkpt lat="42.9045915976566" lon="-4.87422103062726">
        <ele>1303.11617660522</ele>
        <time>2018-09-02T14:10:00Z</time>
      </trkpt>
      <trkpt lat="42.9045387916666" lon="-4.87430660985864">
        <ele>1302.6999168396</ele>
        <time>2018-09-02T14:10:01Z</time>
      </trkpt>
      <trkpt lat="42.904472448903" lon="-4.87439034507133">
        <ele>1301.47970199585</ele>
        <time>2018-09-02T14:10:02Z</time>
      </trkpt>
      <trkpt lat="42.9043976823268" lon="-4.87445773557282">
        <ele>1300.2135887146</ele>
        <time>2018-09-02T14:10:03Z</time>
      </trkpt>
      <trkpt lat="42.9043162102279" lon="-4.87451146357215">
        <ele>1299.11556625366</ele>
        <time>2018-09-02T14:10:04Z</time>
      </trkpt>
      <trkpt lat="42.9042379232523" lon="-4.87457533367432">
        <ele>1298.93185043335</ele>
        <time>2018-09-02T14:10:05Z</time>
      </trkpt>
      <trkpt lat="42.9041773640019" lon="-4.87465823069669">
        <ele>1298.5563621521</ele>
        <time>2018-09-02T14:10:06Z</time>
      </trkpt>
      <trkpt lat="42.9041349515718" lon="-4.87475143745996">
        <ele>1298.96566390991</ele>
        <time>2018-09-02T14:10:07Z</time>
      </trkpt>
      <trkpt lat="42.9041000409451" lon="-4.87484330311872">
        <ele>1299.50338363647</ele>
        <time>2018-09-02T14:10:08Z</time>
      </trkpt>
      <trkpt lat="42.9040620709238" lon="-4.87492829561688">
        <ele>1299.20333480835</ele>
        <time>2018-09-02T14:10:09Z</time>
      </trkpt>
      <trkpt lat="42.9040209157792" lon="-4.87499719486095">
        <ele>1299.53036117554</ele>
        <time>2018-09-02T14:10:10Z</time>
      </trkpt>
      <trkpt lat="42.9039723007408" lon="-4.87506458536244">
        <ele>1299.01034164429</ele>
        <time>2018-09-02T14:10:11Z</time>
      </trkpt>
      <trkpt lat="42.9039272061017" lon="-4.87512602471269">
        <ele>1300.52145004272</ele>
        <time>2018-09-02T14:10:12Z</time>
      </trkpt>
      <trkpt lat="42.9038872663331" lon="-4.87518746406294">
        <ele>1300.52474594116</ele>
        <time>2018-09-02T14:10:13Z</time>
      </trkpt>
      <trkpt lat="42.9038436804366" lon="-4.87525032833673">
        <ele>1300.96053695679</ele>
        <time>2018-09-02T14:10:14Z</time>
      </trkpt>
      <trkpt lat="42.9038048303154" lon="-4.87530464306928">
        <ele>1301.26461410522</ele>
        <time>2018-09-02T14:10:15Z</time>
      </trkpt>
      <trkpt lat="42.9037613701475" lon="-4.875356778507">
        <ele>1302.64437484741</ele>
        <time>2018-09-02T14:10:16Z</time>
      </trkpt>
      <trkpt lat="42.9037259146971" lon="-4.87541310489632">
        <ele>1302.91622543335</ele>
        <time>2018-09-02T14:10:17Z</time>
      </trkpt>
      <trkpt lat="42.9036922194463" lon="-4.87546289340116">
        <ele>1303.10360336304</ele>
        <time>2018-09-02T14:10:18Z</time>
      </trkpt>
      <trkpt lat="42.9036490107355" lon="-4.87550698221184">
        <ele>1302.99654769897</ele>
        <time>2018-09-02T14:10:19Z</time>
      </trkpt>
      <trkpt lat="42.9036100348857" lon="-4.8755660746292">
        <ele>1303.20235824585</ele>
        <time>2018-09-02T14:10:20Z</time>
      </trkpt>
      <trkpt lat="42.9035751661685" lon="-4.8756197188095">
        <ele>1302.54037094116</ele>
        <time>2018-09-02T14:10:21Z</time>
      </trkpt>
      <trkpt lat="42.9035368189615" lon="-4.87566087395407">
        <ele>1303.35409164429</ele>
        <time>2018-09-02T14:10:22Z</time>
      </trkpt>
      <trkpt lat="42.9034972982881" lon="-4.87570378929831">
        <ele>1304.5016746521</ele>
        <time>2018-09-02T14:10:23Z</time>
      </trkpt>
      <trkpt lat="42.903454969677" lon="-4.87573916092969">
        <ele>1304.98006820679</ele>
        <time>2018-09-02T14:10:24Z</time>
      </trkpt>
      <trkpt lat="42.9034004034874" lon="-4.87582750618912">
        <ele>1304.86617660522</ele>
        <time>2018-09-02T14:10:26Z</time>
      </trkpt>
      <trkpt lat="42.9033437837315" lon="-4.87590478733636">
        <ele>1304.41939926147</ele>
        <time>2018-09-02T14:10:28Z</time>
      </trkpt>
      <trkpt lat="42.903306861448" lon="-4.87594921142317">
        <ele>1303.1794090271</ele>
        <time>2018-09-02T14:10:29Z</time>
      </trkpt>
      <trkpt lat="42.9032708611739" lon="-4.87599086948193">
        <ele>1303.66402816772</ele>
        <time>2018-09-02T14:10:30Z</time>
      </trkpt>
      <trkpt lat="42.9032342741665" lon="-4.87603931688226">
        <ele>1304.90121078491</ele>
        <time>2018-09-02T14:10:31Z</time>
      </trkpt>
      <trkpt lat="42.9031962622357" lon="-4.87608147785522">
        <ele>1304.62826156616</ele>
        <time>2018-09-02T14:10:32Z</time>
      </trkpt>
      <trkpt lat="42.9031672189412" lon="-4.87613143399812">
        <ele>1305.23617172241</ele>
        <time>2018-09-02T14:10:33Z</time>
      </trkpt>
      <trkpt lat="42.9031157121462" lon="-4.87619974650897">
        <ele>1306.11178207397</ele>
        <time>2018-09-02T14:10:35Z</time>
      </trkpt>
      <trkpt lat="42.903059804852" lon="-4.87627585418976">
        <ele>1306.95565414429</ele>
        <time>2018-09-02T14:10:37Z</time>
      </trkpt>
      <trkpt lat="42.9030251875919" lon="-4.87632572651364">
        <ele>1306.7145652771</ele>
        <time>2018-09-02T14:10:38Z</time>
      </trkpt>
      <trkpt lat="42.9029948031929" lon="-4.87637551501847">
        <ele>1306.63375473022</ele>
        <time>2018-09-02T14:10:39Z</time>
      </trkpt>
      <trkpt lat="42.9029629519609" lon="-4.87642555498041">
        <ele>1307.33797836304</ele>
        <time>2018-09-02T14:10:40Z</time>
      </trkpt>
      <trkpt lat="42.9029339086664" lon="-4.87647383474268">
        <ele>1306.72994613647</ele>
        <time>2018-09-02T14:10:41Z</time>
      </trkpt>
      <trkpt lat="42.9029003810537" lon="-4.87652379088558">
        <ele>1306.42489242554</ele>
        <time>2018-09-02T14:10:42Z</time>
      </trkpt>
      <trkpt lat="42.9028661828888" lon="-4.87657424994267">
        <ele>1306.32015609741</ele>
        <time>2018-09-02T14:10:43Z</time>
      </trkpt>
      <trkpt lat="42.9028306017098" lon="-4.87661724910594">
        <ele>1306.1100730896</ele>
        <time>2018-09-02T14:10:44Z</time>
      </trkpt>
      <trkpt lat="42.9028014326868" lon="-4.87667013891495">
        <ele>1306.1999168396</ele>
        <time>2018-09-02T14:10:45Z</time>
      </trkpt>
      <trkpt lat="42.9027534043816" lon="-4.87671858631529">
        <ele>1308.00899887085</ele>
        <time>2018-09-02T14:10:46Z</time>
      </trkpt>
      <trkpt lat="42.9027119558704" lon="-4.87676183693565">
        <ele>1308.84981918335</ele>
        <time>2018-09-02T14:10:47Z</time>
      </trkpt>
      <trkpt lat="42.9026776738864" lon="-4.87680969760276">
        <ele>1309.43160629272</ele>
        <time>2018-09-02T14:10:48Z</time>
      </trkpt>
      <trkpt lat="42.9026331659806" lon="-4.87684850581445">
        <ele>1309.67147445679</ele>
        <time>2018-09-02T14:10:49Z</time>
      </trkpt>
      <trkpt lat="42.9025594052327" lon="-4.8769215960101">
        <ele>1309.02621078491</ele>
        <time>2018-09-02T14:10:51Z</time>
      </trkpt>
      <trkpt lat="42.9024833394614" lon="-4.87695395015634">
        <ele>1308.34493637085</ele>
        <time>2018-09-02T14:10:53Z</time>
      </trkpt>
      <trkpt lat="42.90240295701" lon="-4.87697943114198">
        <ele>1309.63827133179</ele>
        <time>2018-09-02T14:10:55Z</time>
      </trkpt>
      <trkpt lat="42.9023564374474" lon="-4.8769961111293">
        <ele>1309.77669906616</ele>
        <time>2018-09-02T14:10:56Z</time>
      </trkpt>
      <trkpt lat="42.9023124743653" lon="-4.87700927071728">
        <ele>1309.82809066772</ele>
        <time>2018-09-02T14:10:57Z</time>
      </trkpt>
      <trkpt lat="42.9022564413426" lon="-4.87702536397136">
        <ele>1308.74007797241</ele>
        <time>2018-09-02T14:10:58Z</time>
      </trkpt>
      <trkpt lat="42.9022084549469" lon="-4.87704405561544">
        <ele>1309.00497055054</ele>
        <time>2018-09-02T14:10:59Z</time>
      </trkpt>
      <trkpt lat="42.9021646175933" lon="-4.87706467509724">
        <ele>1307.70235824585</ele>
        <time>2018-09-02T14:11:00Z</time>
      </trkpt>
      <trkpt lat="42.9021139070791" lon="-4.87708093598939">
        <ele>1306.84127426147</ele>
        <time>2018-09-02T14:11:01Z</time>
      </trkpt>
      <trkpt lat="42.902060681994" lon="-4.87709158100642">
        <ele>1307.54891586304</ele>
        <time>2018-09-02T14:11:02Z</time>
      </trkpt>
      <trkpt lat="42.9020110611272" lon="-4.87710943446018">
        <ele>1308.20711898804</ele>
        <time>2018-09-02T14:11:03Z</time>
      </trkpt>
      <trkpt lat="42.9019578779516" lon="-4.87712066621043">
        <ele>1308.9206199646</ele>
        <time>2018-09-02T14:11:04Z</time>
      </trkpt>
      <trkpt lat="42.9019067064327" lon="-4.87713885494031">
        <ele>1308.69222640991</ele>
        <time>2018-09-02T14:11:05Z</time>
      </trkpt>
      <trkpt lat="42.9018499190387" lon="-4.87716232426919">
        <ele>1309.08211898804</ele>
        <time>2018-09-02T14:11:06Z</time>
      </trkpt>
      <trkpt lat="42.9017891502407" lon="-4.87718998454965">
        <ele>1309.07772445679</ele>
        <time>2018-09-02T14:11:07Z</time>
      </trkpt>
      <trkpt lat="42.9017235618484" lon="-4.87721303478338">
        <ele>1310.1491355896</ele>
        <time>2018-09-02T14:11:08Z</time>
      </trkpt>
      <trkpt lat="42.9016645113406" lon="-4.87724673003413">
        <ele>1310.57870101929</ele>
        <time>2018-09-02T14:11:09Z</time>
      </trkpt>
      <trkpt lat="42.9016017727953" lon="-4.87728159875132">
        <ele>1310.03133773804</ele>
        <time>2018-09-02T14:11:10Z</time>
      </trkpt>
      <trkpt lat="42.9015277605903" lon="-4.87731495872594">
        <ele>1309.73336410522</ele>
        <time>2018-09-02T14:11:11Z</time>
      </trkpt>
      <trkpt lat="42.9014568496895" lon="-4.87735393457569">
        <ele>1308.73580551147</ele>
        <time>2018-09-02T14:11:12Z</time>
      </trkpt>
      <trkpt lat="42.9013839271319" lon="-4.87738360651292">
        <ele>1308.85885238647</ele>
        <time>2018-09-02T14:11:13Z</time>
      </trkpt>
      <trkpt lat="42.9013027483997" lon="-4.87740749493696">
        <ele>1309.03915023804</ele>
        <time>2018-09-02T14:11:14Z</time>
      </trkpt>
      <trkpt lat="42.9012288619232" lon="-4.87744454294897">
        <ele>1308.6276512146</ele>
        <time>2018-09-02T14:11:15Z</time>
      </trkpt>
      <trkpt lat="42.9011549754468" lon="-4.87748494372226">
        <ele>1308.66988754272</ele>
        <time>2018-09-02T14:11:16Z</time>
      </trkpt>
      <trkpt lat="42.9010826815319" lon="-4.87753640860773">
        <ele>1309.9743309021</ele>
        <time>2018-09-02T14:11:17Z</time>
      </trkpt>
      <trkpt lat="42.9010112677169" lon="-4.87759080715932">
        <ele>1309.66720199585</ele>
        <time>2018-09-02T14:11:18Z</time>
      </trkpt>
      <trkpt lat="42.9009419493777" lon="-4.87765459344245">
        <ele>1309.26412582397</ele>
        <time>2018-09-02T14:11:19Z</time>
      </trkpt>
      <trkpt lat="42.9008773249042" lon="-4.8777144402311">
        <ele>1308.58346176147</ele>
        <time>2018-09-02T14:11:20Z</time>
      </trkpt>
      <trkpt lat="42.9008250637379" lon="-4.87778375857033">
        <ele>1308.52157211304</ele>
        <time>2018-09-02T14:11:21Z</time>
      </trkpt>
      <trkpt lat="42.9008033126992" lon="-4.87790999003209">
        <ele>1306.89095687866</ele>
        <time>2018-09-02T14:11:22Z</time>
      </trkpt>
      <trkpt lat="42.9007873032642" lon="-4.87803161144711">
        <ele>1305.67208480835</ele>
        <time>2018-09-02T14:11:23Z</time>
      </trkpt>
      <trkpt lat="42.9007639596638" lon="-4.87815616652824">
        <ele>1304.17733383179</ele>
        <time>2018-09-02T14:11:24Z</time>
      </trkpt>
      <trkpt lat="42.9007436335486" lon="-4.87828457728483">
        <ele>1303.16024398804</ele>
        <time>2018-09-02T14:11:25Z</time>
      </trkpt>
      <trkpt lat="42.9007209605006" lon="-4.87840477377631">
        <ele>1303.83407211304</ele>
        <time>2018-09-02T14:11:26Z</time>
      </trkpt>
      <trkpt lat="42.9006984970001" lon="-4.87853192724742">
        <ele>1303.40291976929</ele>
        <time>2018-09-02T14:11:27Z</time>
      </trkpt>
      <trkpt lat="42.9006717587289" lon="-4.87865782343305">
        <ele>1302.64376449585</ele>
        <time>2018-09-02T14:11:28Z</time>
      </trkpt>
      <trkpt lat="42.9006365966451" lon="-4.8787816241429">
        <ele>1301.53573226929</ele>
        <time>2018-09-02T14:11:29Z</time>
      </trkpt>
      <trkpt lat="42.9006080981744" lon="-4.8789039999292">
        <ele>1300.75252914429</ele>
        <time>2018-09-02T14:11:30Z</time>
      </trkpt>
      <trkpt lat="42.9005766241279" lon="-4.87903517671384">
        <ele>1299.0231590271</ele>
        <time>2018-09-02T14:11:31Z</time>
      </trkpt>
      <trkpt lat="42.9005420906869" lon="-4.87916274928011">
        <ele>1297.93124008179</ele>
        <time>2018-09-02T14:11:32Z</time>
      </trkpt>
      <trkpt lat="42.900509443174" lon="-4.87929224968411">
        <ele>1297.22506332397</ele>
        <time>2018-09-02T14:11:33Z</time>
      </trkpt>
      <trkpt lat="42.9004718503383" lon="-4.87941940315522">
        <ele>1295.98824691772</ele>
        <time>2018-09-02T14:11:34Z</time>
      </trkpt>
      <trkpt lat="42.9004327068505" lon="-4.87955644727208">
        <ele>1295.13558578491</ele>
        <time>2018-09-02T14:11:35Z</time>
      </trkpt>
      <trkpt lat="42.9003906716061" lon="-4.87968988717057">
        <ele>1294.1266746521</ele>
        <time>2018-09-02T14:11:36Z</time>
      </trkpt>
      <trkpt lat="42.9003420984772" lon="-4.87982139923133">
        <ele>1293.34469223022</ele>
        <time>2018-09-02T14:11:37Z</time>
      </trkpt>
      <trkpt lat="42.9002872389209" lon="-4.87994000316121">
        <ele>1292.82967758179</ele>
        <time>2018-09-02T14:11:38Z</time>
      </trkpt>
      <trkpt lat="42.9002195131433" lon="-4.88005206920661">
        <ele>1291.45040512085</ele>
        <time>2018-09-02T14:11:39Z</time>
      </trkpt>
      <trkpt lat="42.9001483507854" lon="-4.88016421907105">
        <ele>1289.79623031616</ele>
        <time>2018-09-02T14:11:40Z</time>
      </trkpt>
      <trkpt lat="42.90008129556" lon="-4.88027796149708">
        <ele>1288.61812973022</ele>
        <time>2018-09-02T14:11:41Z</time>
      </trkpt>
      <trkpt lat="42.9000232508806" lon="-4.88039907999791">
        <ele>1287.58126449585</ele>
        <time>2018-09-02T14:11:42Z</time>
      </trkpt>
      <trkpt lat="42.8999775275988" lon="-4.88053059205867">
        <ele>1286.05953598022</ele>
        <time>2018-09-02T14:11:43Z</time>
      </trkpt>
      <trkpt lat="42.8999343188879" lon="-4.88066478632845">
        <ele>1285.16170883179</ele>
        <time>2018-09-02T14:11:44Z</time>
      </trkpt>
      <trkpt lat="42.8998893499774" lon="-4.88079822622694">
        <ele>1284.52328109741</ele>
        <time>2018-09-02T14:11:45Z</time>
      </trkpt>
      <trkpt lat="42.8998431656909" lon="-4.88091330975749">
        <ele>1285.33944320679</ele>
        <time>2018-09-02T14:11:46Z</time>
      </trkpt>
      <trkpt lat="42.899762657511" lon="-4.8810164071665">
        <ele>1283.65645980835</ele>
        <time>2018-09-02T14:11:47Z</time>
      </trkpt>
      <trkpt lat="42.8996881843013" lon="-4.88110391423561">
        <ele>1282.57223129272</ele>
        <time>2018-09-02T14:11:48Z</time>
      </trkpt>
      <trkpt lat="42.8996034432602" lon="-4.88117432222225">
        <ele>1281.3249168396</ele>
        <time>2018-09-02T14:11:49Z</time>
      </trkpt>
      <trkpt lat="42.8995181154859" lon="-4.88123106770672">
        <ele>1281.09005355835</ele>
        <time>2018-09-02T14:11:50Z</time>
      </trkpt>
      <trkpt lat="42.8994302731407" lon="-4.88128772937216">
        <ele>1280.59774398804</ele>
        <time>2018-09-02T14:11:51Z</time>
      </trkpt>
      <trkpt lat="42.8993473761183" lon="-4.88134933636047">
        <ele>1281.67513656616</ele>
        <time>2018-09-02T14:11:52Z</time>
      </trkpt>
      <trkpt lat="42.8992652334672" lon="-4.88139895722725">
        <ele>1281.83346176147</ele>
        <time>2018-09-02T14:11:53Z</time>
      </trkpt>
      <trkpt lat="42.8991872817677" lon="-4.88145134412207">
        <ele>1281.15096664429</ele>
        <time>2018-09-02T14:11:54Z</time>
      </trkpt>
      <trkpt lat="42.8991052229357" lon="-4.88150247373141">
        <ele>1281.17684555054</ele>
        <time>2018-09-02T14:11:55Z</time>
      </trkpt>
      <trkpt lat="42.8990291571644" lon="-4.88155184314109">
        <ele>1280.60091781616</ele>
        <time>2018-09-02T14:11:56Z</time>
      </trkpt>
      <trkpt lat="42.8989506606412" lon="-4.88161336631037">
        <ele>1280.18404769897</ele>
        <time>2018-09-02T14:11:57Z</time>
      </trkpt>
      <trkpt lat="42.8988828929541" lon="-4.88168176264025">
        <ele>1279.71114730835</ele>
        <time>2018-09-02T14:11:58Z</time>
      </trkpt>
      <trkpt lat="42.8988164244619" lon="-4.88175954670169">
        <ele>1279.0397605896</ele>
        <time>2018-09-02T14:11:59Z</time>
      </trkpt>
      <trkpt lat="42.8987593437013" lon="-4.88183473237314">
        <ele>1279.87997055054</ele>
        <time>2018-09-02T14:12:00Z</time>
      </trkpt>
      <trkpt lat="42.8987023467598" lon="-4.88191653974809">
        <ele>1280.47701644897</ele>
        <time>2018-09-02T14:12:01Z</time>
      </trkpt>
      <trkpt lat="42.8986521391598" lon="-4.88200019114174">
        <ele>1279.90853500366</ele>
        <time>2018-09-02T14:12:02Z</time>
      </trkpt>
      <trkpt lat="42.8986069187921" lon="-4.88206624053873">
        <ele>1279.78609848022</ele>
        <time>2018-09-02T14:12:03Z</time>
      </trkpt>
      <trkpt lat="42.8985543642593" lon="-4.88212876953639">
        <ele>1280.08065414429</ele>
        <time>2018-09-02T14:12:04Z</time>
      </trkpt>
      <trkpt lat="42.8984980378699" lon="-4.882199093704">
        <ele>1279.85934066772</ele>
        <time>2018-09-02T14:12:05Z</time>
      </trkpt>
      <trkpt lat="42.8984417952997" lon="-4.88226581365325">
        <ele>1281.15133285522</ele>
        <time>2018-09-02T14:12:06Z</time>
      </trkpt>
      <trkpt lat="42.8983863909197" lon="-4.8823304381267">
        <ele>1279.6188621521</ele>
        <time>2018-09-02T14:12:07Z</time>
      </trkpt>
      <trkpt lat="42.8983209282559" lon="-4.88238642923989">
        <ele>1279.9606590271</ele>
        <time>2018-09-02T14:12:08Z</time>
      </trkpt>
      <trkpt lat="42.8982565133301" lon="-4.88244920969464">
        <ele>1280.12411117554</ele>
        <time>2018-09-02T14:12:09Z</time>
      </trkpt>
      <trkpt lat="42.8981971694556" lon="-4.88249547780015">
        <ele>1280.60555648804</ele>
        <time>2018-09-02T14:12:10Z</time>
      </trkpt>
      <trkpt lat="42.8981301142302" lon="-4.88254602067627">
        <ele>1279.8219871521</ele>
        <time>2018-09-02T14:12:11Z</time>
      </trkpt>
      <trkpt lat="42.8980696807084" lon="-4.88260569982685">
        <ele>1280.53573226929</ele>
        <time>2018-09-02T14:12:12Z</time>
      </trkpt>
      <trkpt lat="42.8980096243721" lon="-4.88266236149229">
        <ele>1278.80953598022</ele>
        <time>2018-09-02T14:12:13Z</time>
      </trkpt>
      <trkpt lat="42.8979501128596" lon="-4.88272170536675">
        <ele>1278.7614402771</ele>
        <time>2018-09-02T14:12:14Z</time>
      </trkpt>
      <trkpt lat="42.8978906432566" lon="-4.88278306089796">
        <ele>1278.27657699585</ele>
        <time>2018-09-02T14:12:15Z</time>
      </trkpt>
      <trkpt lat="42.8978312155631" lon="-4.88284357823886">
        <ele>1278.2926902771</ele>
        <time>2018-09-02T14:12:16Z</time>
      </trkpt>
      <trkpt lat="42.8977748053548" lon="-4.88290459849395">
        <ele>1278.49007797241</ele>
        <time>2018-09-02T14:12:17Z</time>
      </trkpt>
      <trkpt lat="42.897723801474" lon="-4.88296754658677">
        <ele>1277.64046859741</ele>
        <time>2018-09-02T14:12:18Z</time>
      </trkpt>
      <trkpt lat="42.8976754798022" lon="-4.88303761929728">
        <ele>1276.89120101929</ele>
        <time>2018-09-02T14:12:19Z</time>
      </trkpt>
      <trkpt lat="42.8976258170259" lon="-4.88309922628559">
        <ele>1276.40804672241</ele>
        <time>2018-09-02T14:12:20Z</time>
      </trkpt>
      <trkpt lat="42.897577076259" lon="-4.88316041417875">
        <ele>1276.87752914429</ele>
        <time>2018-09-02T14:12:21Z</time>
      </trkpt>
      <trkpt lat="42.8975263657448" lon="-4.88324054517307">
        <ele>1277.41439437866</ele>
        <time>2018-09-02T14:12:22Z</time>
      </trkpt>
      <trkpt lat="42.8974670218703" lon="-4.88330357708492">
        <ele>1277.29244613647</ele>
        <time>2018-09-02T14:12:23Z</time>
      </trkpt>
      <trkpt lat="42.8974187421081" lon="-4.88336007111229">
        <ele>1275.93209457397</ele>
        <time>2018-09-02T14:12:24Z</time>
      </trkpt>
      <trkpt lat="42.8973744018403" lon="-4.88342184573867">
        <ele>1275.37008285522</ele>
        <time>2018-09-02T14:12:25Z</time>
      </trkpt>
      <trkpt lat="42.8973166505274" lon="-4.88348110579409">
        <ele>1277.12716293335</ele>
        <time>2018-09-02T14:12:26Z</time>
      </trkpt>
      <trkpt lat="42.8972799377915" lon="-4.88352117129125">
        <ele>1278.51070785522</ele>
        <time>2018-09-02T14:12:27Z</time>
      </trkpt>
      <trkpt lat="42.8972326219481" lon="-4.88353064284183">
        <ele>1278.6530418396</ele>
        <time>2018-09-02T14:12:28Z</time>
      </trkpt>
      <trkpt lat="42.8971746610877" lon="-4.88355151378073">
        <ele>1278.54916000366</ele>
        <time>2018-09-02T14:12:29Z</time>
      </trkpt>
      <trkpt lat="42.8971191309792" lon="-4.88356760703482">
        <ele>1277.36373519897</ele>
        <time>2018-09-02T14:12:30Z</time>
      </trkpt>
      <trkpt lat="42.8970662411702" lon="-4.88359057344951">
        <ele>1276.44747543335</ele>
        <time>2018-09-02T14:12:31Z</time>
      </trkpt>
      <trkpt lat="42.8970226971832" lon="-4.88363918848791">
        <ele>1277.39486312866</ele>
        <time>2018-09-02T14:12:32Z</time>
      </trkpt>
      <trkpt lat="42.8969979705688" lon="-4.88371864892997">
        <ele>1278.27157211304</ele>
        <time>2018-09-02T14:12:33Z</time>
      </trkpt>
      <trkpt lat="42.8969925223318" lon="-4.88380129449524">
        <ele>1277.69417953491</ele>
        <time>2018-09-02T14:12:34Z</time>
      </trkpt>
      <trkpt lat="42.8969798237485" lon="-4.88388905302145">
        <ele>1276.83626937866</ele>
        <time>2018-09-02T14:12:35Z</time>
      </trkpt>
      <trkpt lat="42.8969774768156" lon="-4.88397781737604">
        <ele>1276.4958152771</ele>
        <time>2018-09-02T14:12:36Z</time>
      </trkpt>
      <trkpt lat="42.8969815001291" lon="-4.88406113349356">
        <ele>1276.14254379272</ele>
        <time>2018-09-02T14:12:37Z</time>
      </trkpt>
      <trkpt lat="42.8969785245535" lon="-4.884152160962">
        <ele>1276.31588363647</ele>
        <time>2018-09-02T14:12:38Z</time>
      </trkpt>
      <trkpt lat="42.8969874512804" lon="-4.88424687646784">
        <ele>1276.9401512146</ele>
        <time>2018-09-02T14:12:39Z</time>
      </trkpt>
      <trkpt lat="42.89699700665" lon="-4.88433974795498">
        <ele>1276.22115707397</ele>
        <time>2018-09-02T14:12:40Z</time>
      </trkpt>
      <trkpt lat="42.8970074840289" lon="-4.88442759030022">
        <ele>1275.5944480896</ele>
        <time>2018-09-02T14:12:41Z</time>
      </trkpt>
      <trkpt lat="42.8970133932707" lon="-4.88452331163444">
        <ele>1274.84676742554</ele>
        <time>2018-09-02T14:12:42Z</time>
      </trkpt>
      <trkpt lat="42.8970238287401" lon="-4.88460738212325">
        <ele>1274.17049789429</ele>
        <time>2018-09-02T14:12:43Z</time>
      </trkpt>
      <trkpt lat="42.8970242897448" lon="-4.88469807431557">
        <ele>1274.38790512085</ele>
        <time>2018-09-02T14:12:44Z</time>
      </trkpt>
      <trkpt lat="42.8970291093391" lon="-4.88478516228952">
        <ele>1273.61080551147</ele>
        <time>2018-09-02T14:12:45Z</time>
      </trkpt>
      <trkpt lat="42.8970318753672" lon="-4.88487157971122">
        <ele>1273.56637191772</ele>
        <time>2018-09-02T14:12:46Z</time>
      </trkpt>
      <trkpt lat="42.8970350604904" lon="-4.88494743593492">
        <ele>1274.19540023804</ele>
        <time>2018-09-02T14:12:47Z</time>
      </trkpt>
      <trkpt lat="42.8970401734513" lon="-4.88501851447382">
        <ele>1274.38338851929</ele>
        <time>2018-09-02T14:12:48Z</time>
      </trkpt>
      <trkpt lat="42.8970459569645" lon="-4.88509093411722">
        <ele>1274.03951644897</ele>
        <time>2018-09-02T14:12:49Z</time>
      </trkpt>
      <trkpt lat="42.897057859267" lon="-4.88515790552356">
        <ele>1274.9206199646</ele>
        <time>2018-09-02T14:12:50Z</time>
      </trkpt>
      <trkpt lat="42.8970760060874" lon="-4.88522269763507">
        <ele>1275.29964828491</ele>
        <time>2018-09-02T14:12:51Z</time>
      </trkpt>
      <trkpt lat="42.8970913449702" lon="-4.88528422080435">
        <ele>1274.1442527771</ele>
        <time>2018-09-02T14:12:52Z</time>
      </trkpt>
      <trkpt lat="42.8971227771071" lon="-4.88539083861269">
        <ele>1273.47701644897</ele>
        <time>2018-09-02T14:12:54Z</time>
      </trkpt>
      <trkpt lat="42.8971564723578" lon="-4.88548111170985">
        <ele>1273.13558578491</ele>
        <time>2018-09-02T14:12:56Z</time>
      </trkpt>
      <trkpt lat="42.8971831268099" lon="-4.8855319898621">
        <ele>1272.4401512146</ele>
        <time>2018-09-02T14:12:58Z</time>
      </trkpt>
      <trkpt lat="42.8972050454867" lon="-4.88560776226678">
        <ele>1271.75997543335</ele>
        <time>2018-09-02T14:13:01Z</time>
      </trkpt>
      <trkpt lat="42.8971620882329" lon="-4.88564933650651">
        <ele>1270.72713851929</ele>
        <time>2018-09-02T14:13:03Z</time>
      </trkpt>
      <trkpt lat="42.8971155267608" lon="-4.88568110391953">
        <ele>1271.08236312866</ele>
        <time>2018-09-02T14:13:05Z</time>
      </trkpt>
      <trkpt lat="42.8970629303184" lon="-4.8857135418848">
        <ele>1272.14168930054</ele>
        <time>2018-09-02T14:13:08Z</time>
      </trkpt>
      <trkpt lat="42.8969965875548" lon="-4.88573349081435">
        <ele>1271.49276351929</ele>
        <time>2018-09-02T14:13:11Z</time>
      </trkpt>
      <trkpt lat="42.8969497327161" lon="-4.88575218245842">
        <ele>1274.00252914429</ele>
        <time>2018-09-02T14:13:13Z</time>
      </trkpt>
      <trkpt lat="42.8969075717431" lon="-4.88584019244172">
        <ele>1272.50313949585</ele>
        <time>2018-09-02T14:13:16Z</time>
      </trkpt>
      <trkpt lat="42.8968911013034" lon="-4.88593675196626">
        <ele>1271.97079086304</ele>
        <time>2018-09-02T14:13:18Z</time>
      </trkpt>
      <trkpt lat="42.8968917299461" lon="-4.88603213802435">
        <ele>1273.10580062866</ele>
        <time>2018-09-02T14:13:20Z</time>
      </trkpt>
      <trkpt lat="42.8968560230386" lon="-4.88612308167376">
        <ele>1272.07149887085</ele>
        <time>2018-09-02T14:13:22Z</time>
      </trkpt>
      <trkpt lat="42.8967955056977" lon="-4.88620069809713">
        <ele>1271.75985336304</ele>
        <time>2018-09-02T14:13:24Z</time>
      </trkpt>
      <trkpt lat="42.8967454657358" lon="-4.88628384657659">
        <ele>1271.54220199585</ele>
        <time>2018-09-02T14:13:26Z</time>
      </trkpt>
      <trkpt lat="42.8967265645442" lon="-4.88636540249445">
        <ele>1271.08846664429</ele>
        <time>2018-09-02T14:13:28Z</time>
      </trkpt>
      <trkpt lat="42.896712985861" lon="-4.886440839623">
        <ele>1272.7858543396</ele>
        <time>2018-09-02T14:13:31Z</time>
      </trkpt>
      <trkpt lat="42.896752464625" lon="-4.88648090512016">
        <ele>1269.72152328491</ele>
        <time>2018-09-02T14:14:27Z</time>
      </trkpt>
      <trkpt lat="42.8968103416664" lon="-4.88652164116957">
        <ele>1268.1979637146</ele>
        <time>2018-09-02T14:14:33Z</time>
      </trkpt>
      <trkpt lat="42.896855729672" lon="-4.88658609800496">
        <ele>1268.6217918396</ele>
        <time>2018-09-02T14:14:35Z</time>
      </trkpt>
      <trkpt lat="42.8968835995001" lon="-4.88666933030345">
        <ele>1268.94857406616</ele>
        <time>2018-09-02T14:14:37Z</time>
      </trkpt>
      <trkpt lat="42.8968885448229" lon="-4.88677477464535">
        <ele>1270.23531723022</ele>
        <time>2018-09-02T14:14:39Z</time>
      </trkpt>
      <trkpt lat="42.8968778159869" lon="-4.88688072190144">
        <ele>1269.07015609741</ele>
        <time>2018-09-02T14:14:41Z</time>
      </trkpt>
      <trkpt lat="42.896855645853" lon="-4.88698038273015">
        <ele>1270.12044906616</ele>
        <time>2018-09-02T14:14:43Z</time>
      </trkpt>
      <trkpt lat="42.8968393430513" lon="-4.88708180375852">
        <ele>1271.06295394897</ele>
        <time>2018-09-02T14:14:45Z</time>
      </trkpt>
      <trkpt lat="42.8968405165178" lon="-4.88719386980393">
        <ele>1271.39217758179</ele>
        <time>2018-09-02T14:14:47Z</time>
      </trkpt>
      <trkpt lat="42.8968473058593" lon="-4.88730912097254">
        <ele>1271.27389144897</ele>
        <time>2018-09-02T14:14:49Z</time>
      </trkpt>
      <trkpt lat="42.8968594596189" lon="-4.88742705435016">
        <ele>1271.76485824585</ele>
        <time>2018-09-02T14:14:51Z</time>
      </trkpt>
      <trkpt lat="42.896900572854" lon="-4.88751766272344">
        <ele>1273.3786277771</ele>
        <time>2018-09-02T14:14:53Z</time>
      </trkpt>
      <trkpt lat="42.8969739564163" lon="-4.88757574931242">
        <ele>1273.89950180054</ele>
        <time>2018-09-02T14:14:55Z</time>
      </trkpt>
      <trkpt lat="42.8970436519411" lon="-4.88762402907469">
        <ele>1271.34994125366</ele>
        <time>2018-09-02T14:14:57Z</time>
      </trkpt>
      <trkpt lat="42.8970866511044" lon="-4.88769141957619">
        <ele>1272.65548324585</ele>
        <time>2018-09-02T14:14:59Z</time>
      </trkpt>
      <trkpt lat="42.8971049236533" lon="-4.88776819780924">
        <ele>1271.4694480896</ele>
        <time>2018-09-02T14:15:01Z</time>
      </trkpt>
      <trkpt lat="42.8971034568203" lon="-4.88784229383328">
        <ele>1271.74532699585</ele>
        <time>2018-09-02T14:15:03Z</time>
      </trkpt>
      <trkpt lat="42.8971040435535" lon="-4.88791379146733">
        <ele>1272.30172348022</ele>
        <time>2018-09-02T14:15:05Z</time>
      </trkpt>
      <trkpt lat="42.8971359786046" lon="-4.88799467683294">
        <ele>1272.85445785522</ele>
        <time>2018-09-02T14:15:07Z</time>
      </trkpt>
      <trkpt lat="42.8971744515401" lon="-4.88808184862592">
        <ele>1272.25399398804</ele>
        <time>2018-09-02T14:15:09Z</time>
      </trkpt>
      <trkpt lat="42.8972003097114" lon="-4.88819005899586">
        <ele>1272.21712875366</ele>
        <time>2018-09-02T14:15:11Z</time>
      </trkpt>
      <trkpt lat="42.8972166125131" lon="-4.88829508424261">
        <ele>1273.54012680054</ele>
        <time>2018-09-02T14:15:13Z</time>
      </trkpt>
      <trkpt lat="42.8972208453742" lon="-4.8883970920042">
        <ele>1274.60531234741</ele>
        <time>2018-09-02T14:15:15Z</time>
      </trkpt>
      <trkpt lat="42.8972206358266" lon="-4.88849775866129">
        <ele>1274.62874984741</ele>
        <time>2018-09-02T14:15:17Z</time>
      </trkpt>
      <trkpt lat="42.897219043265" lon="-4.88860680722155">
        <ele>1275.75521469116</ele>
        <time>2018-09-02T14:15:19Z</time>
      </trkpt>
      <trkpt lat="42.8972195880887" lon="-4.88870638423123">
        <ele>1276.20040512085</ele>
        <time>2018-09-02T14:15:21Z</time>
      </trkpt>
      <trkpt lat="42.8972311551151" lon="-4.88880638033607">
        <ele>1276.39388656616</ele>
        <time>2018-09-02T14:15:23Z</time>
      </trkpt>
      <trkpt lat="42.8972542053488" lon="-4.88890193403222">
        <ele>1276.98104476929</ele>
        <time>2018-09-02T14:15:25Z</time>
      </trkpt>
      <trkpt lat="42.8972873557758" lon="-4.88899170421519">
        <ele>1276.63009262085</ele>
        <time>2018-09-02T14:15:27Z</time>
      </trkpt>
      <trkpt lat="42.8973252419782" lon="-4.88907292485692">
        <ele>1277.35689926147</ele>
        <time>2018-09-02T14:15:29Z</time>
      </trkpt>
      <trkpt lat="42.8973642597374" lon="-4.88914567977645">
        <ele>1277.62899398804</ele>
        <time>2018-09-02T14:15:31Z</time>
      </trkpt>
      <trkpt lat="42.8974023973969" lon="-4.88921047188797">
        <ele>1278.01058578491</ele>
        <time>2018-09-02T14:15:33Z</time>
      </trkpt>
      <trkpt lat="42.8974425467131" lon="-4.88927668892303">
        <ele>1279.18294906616</ele>
        <time>2018-09-02T14:15:35Z</time>
      </trkpt>
      <trkpt lat="42.8974834504005" lon="-4.88934248686292">
        <ele>1279.46139144897</ele>
        <time>2018-09-02T14:15:37Z</time>
      </trkpt>
      <trkpt lat="42.8975254018259" lon="-4.88940828480282">
        <ele>1280.01449203491</ele>
        <time>2018-09-02T14:15:39Z</time>
      </trkpt>
      <trkpt lat="42.8975669341561" lon="-4.88947609439948">
        <ele>1279.83712387085</ele>
        <time>2018-09-02T14:15:41Z</time>
      </trkpt>
      <trkpt lat="42.8976038983491" lon="-4.88954817876675">
        <ele>1279.79647445679</ele>
        <time>2018-09-02T14:15:43Z</time>
      </trkpt>
      <trkpt lat="42.8976396052566" lon="-4.88962135278144">
        <ele>1280.13277816772</ele>
        <time>2018-09-02T14:15:45Z</time>
      </trkpt>
      <trkpt lat="42.8976783296493" lon="-4.88969217986324">
        <ele>1279.96273422241</ele>
        <time>2018-09-02T14:15:47Z</time>
      </trkpt>
      <trkpt lat="42.8977162577611" lon="-4.88976703025856">
        <ele>1281.22372055054</ele>
        <time>2018-09-02T14:15:49Z</time>
      </trkpt>
      <trkpt lat="42.8977497853738" lon="-4.88984531723418">
        <ele>1282.36922836304</ele>
        <time>2018-09-02T14:15:51Z</time>
      </trkpt>
      <trkpt lat="42.8977805050489" lon="-4.88992486149528">
        <ele>1282.43697738647</ele>
        <time>2018-09-02T14:15:53Z</time>
      </trkpt>
      <trkpt lat="42.8978053154823" lon="-4.89001563750663">
        <ele>1283.44466781616</ele>
        <time>2018-09-02T14:15:55Z</time>
      </trkpt>
      <trkpt lat="42.8978217859221" lon="-4.89010322839477">
        <ele>1283.82027816772</ele>
        <time>2018-09-02T14:15:57Z</time>
      </trkpt>
      <trkpt lat="42.8978404775661" lon="-4.89018537104585">
        <ele>1283.44295883179</ele>
        <time>2018-09-02T14:15:59Z</time>
      </trkpt>
      <trkpt lat="42.8978590434817" lon="-4.89026642404952">
        <ele>1283.42782211304</ele>
        <time>2018-09-02T14:16:01Z</time>
      </trkpt>
      <trkpt lat="42.8978704847795" lon="-4.89034814760544">
        <ele>1283.42562484741</ele>
        <time>2018-09-02T14:16:03Z</time>
      </trkpt>
      <trkpt lat="42.8978840215531" lon="-4.89042542875269">
        <ele>1283.19784164429</ele>
        <time>2018-09-02T14:16:05Z</time>
      </trkpt>
      <trkpt lat="42.897899695712" lon="-4.89050715230861">
        <ele>1284.36239242554</ele>
        <time>2018-09-02T14:16:07Z</time>
      </trkpt>
      <trkpt lat="42.8979155794186" lon="-4.89059130661645">
        <ele>1284.8229637146</ele>
        <time>2018-09-02T14:16:09Z</time>
      </trkpt>
      <trkpt lat="42.897928780916" lon="-4.89067730494299">
        <ele>1284.39889144897</ele>
        <time>2018-09-02T14:16:11Z</time>
      </trkpt>
      <trkpt lat="42.8979410184947" lon="-4.89076355472663">
        <ele>1284.92623519897</ele>
        <time>2018-09-02T14:16:13Z</time>
      </trkpt>
      <trkpt lat="42.8979487298456" lon="-4.8908493854151">
        <ele>1286.24178695679</ele>
        <time>2018-09-02T14:16:15Z</time>
      </trkpt>
      <trkpt lat="42.8979586204913" lon="-4.89092691801944">
        <ele>1287.16329574585</ele>
        <time>2018-09-02T14:16:17Z</time>
      </trkpt>
      <trkpt lat="42.8979690140513" lon="-4.89100730047085">
        <ele>1286.51571273804</ele>
        <time>2018-09-02T14:16:19Z</time>
      </trkpt>
      <trkpt lat="42.8979768511307" lon="-4.89110075869122">
        <ele>1288.30233383179</ele>
        <time>2018-09-02T14:16:21Z</time>
      </trkpt>
      <trkpt lat="42.8979853587625" lon="-4.89119279198804">
        <ele>1288.07540512085</ele>
        <time>2018-09-02T14:16:23Z</time>
      </trkpt>
      <trkpt lat="42.8979958361414" lon="-4.8912814725236">
        <ele>1288.94686508179</ele>
        <time>2018-09-02T14:16:25Z</time>
      </trkpt>
      <trkpt lat="42.8980045114112" lon="-4.89137015305915">
        <ele>1289.1198387146</ele>
        <time>2018-09-02T14:16:27Z</time>
      </trkpt>
      <trkpt lat="42.8980175033611" lon="-4.89145581610956">
        <ele>1289.2380027771</ele>
        <time>2018-09-02T14:16:29Z</time>
      </trkpt>
      <trkpt lat="42.8980351472673" lon="-4.8915439099119">
        <ele>1291.09774398804</ele>
        <time>2018-09-02T14:16:31Z</time>
      </trkpt>
      <trkpt lat="42.8980603767958" lon="-4.89162831567683">
        <ele>1292.33382797241</ele>
        <time>2018-09-02T14:16:33Z</time>
      </trkpt>
      <trkpt lat="42.8980900487331" lon="-4.89170769229987">
        <ele>1293.70907211304</ele>
        <time>2018-09-02T14:16:35Z</time>
      </trkpt>
      <trkpt lat="42.8981219837842" lon="-4.89178556018033">
        <ele>1295.70309066772</ele>
        <time>2018-09-02T14:16:37Z</time>
      </trkpt>
      <trkpt lat="42.8981561819491" lon="-4.89186460152724">
        <ele>1296.57345199585</ele>
        <time>2018-09-02T14:16:39Z</time>
      </trkpt>
      <trkpt lat="42.8981918888566" lon="-4.89193995483675">
        <ele>1297.16878890991</ele>
        <time>2018-09-02T14:16:41Z</time>
      </trkpt>
      <trkpt lat="42.898228559683" lon="-4.89201405086079">
        <ele>1296.49715805054</ele>
        <time>2018-09-02T14:16:43Z</time>
      </trkpt>
      <trkpt lat="42.8982597403628" lon="-4.89209024236062">
        <ele>1295.41219711304</ele>
        <time>2018-09-02T14:16:45Z</time>
      </trkpt>
      <trkpt lat="42.8982943995324" lon="-4.8921686969743">
        <ele>1295.35836410522</ele>
        <time>2018-09-02T14:16:47Z</time>
      </trkpt>
      <trkpt lat="42.8983297292543" lon="-4.89225109108248">
        <ele>1296.11642074585</ele>
        <time>2018-09-02T14:16:49Z</time>
      </trkpt>
      <trkpt lat="42.8983663162616" lon="-4.89233088680067">
        <ele>1296.06234359741</ele>
        <time>2018-09-02T14:16:51Z</time>
      </trkpt>
      <trkpt lat="42.8983995085982" lon="-4.89241562784174">
        <ele>1296.83248519897</ele>
        <time>2018-09-02T14:16:53Z</time>
      </trkpt>
      <trkpt lat="42.8984305635494" lon="-4.89250095561602">
        <ele>1296.68404769897</ele>
        <time>2018-09-02T14:16:55Z</time>
      </trkpt>
      <trkpt lat="42.898466354276" lon="-4.89258251153388">
        <ele>1296.54720687866</ele>
        <time>2018-09-02T14:16:57Z</time>
      </trkpt>
      <trkpt lat="42.8985027736452" lon="-4.89266482182303">
        <ele>1297.67904281616</ele>
        <time>2018-09-02T14:16:59Z</time>
      </trkpt>
      <trkpt lat="42.8985322779444" lon="-4.89274495281735">
        <ele>1297.98653793335</ele>
        <time>2018-09-02T14:17:01Z</time>
      </trkpt>
      <trkpt lat="42.8985526878786" lon="-4.89282743074456">
        <ele>1298.2428855896</ele>
        <time>2018-09-02T14:17:03Z</time>
      </trkpt>
      <trkpt lat="42.8985710861561" lon="-4.89291259088078">
        <ele>1299.22884750366</ele>
        <time>2018-09-02T14:17:05Z</time>
      </trkpt>
      <trkpt lat="42.8985885205147" lon="-4.89299565554121">
        <ele>1298.32467269897</ele>
        <time>2018-09-02T14:17:07Z</time>
      </trkpt>
      <trkpt lat="42.8985996265364" lon="-4.89307897165873">
        <ele>1298.33321762085</ele>
        <time>2018-09-02T14:17:09Z</time>
      </trkpt>
      <trkpt lat="42.8986028954786" lon="-4.89316203631916">
        <ele>1298.62582015991</ele>
        <time>2018-09-02T14:17:11Z</time>
      </trkpt>
      <trkpt lat="42.8986054519591" lon="-4.89324526861766">
        <ele>1298.02462387085</ele>
        <time>2018-09-02T14:17:13Z</time>
      </trkpt>
      <trkpt lat="42.8986119898436" lon="-4.89332657307842">
        <ele>1298.99911117554</ele>
        <time>2018-09-02T14:17:15Z</time>
      </trkpt>
      <trkpt lat="42.898613079491" lon="-4.89340628497758">
        <ele>1300.54415512085</ele>
        <time>2018-09-02T14:17:17Z</time>
      </trkpt>
      <trkpt lat="42.8986053262305" lon="-4.89348608069578">
        <ele>1300.70223617554</ele>
        <time>2018-09-02T14:17:19Z</time>
      </trkpt>
      <trkpt lat="42.8986005485457" lon="-4.89357157610813">
        <ele>1300.5534324646</ele>
        <time>2018-09-02T14:17:21Z</time>
      </trkpt>
      <trkpt lat="42.8985972796035" lon="-4.89365757443467">
        <ele>1301.04391098022</ele>
        <time>2018-09-02T14:17:23Z</time>
      </trkpt>
      <trkpt lat="42.8985952679467" lon="-4.89373988472381">
        <ele>1299.96834945679</ele>
        <time>2018-09-02T14:17:25Z</time>
      </trkpt>
      <trkpt lat="42.8985984949795" lon="-4.89382043481329">
        <ele>1299.72249984741</ele>
        <time>2018-09-02T14:17:27Z</time>
      </trkpt>
      <trkpt lat="42.8986005066362" lon="-4.893904253845">
        <ele>1301.09322738647</ele>
        <time>2018-09-02T14:17:29Z</time>
      </trkpt>
      <trkpt lat="42.8986026440215" lon="-4.89398530684867">
        <ele>1301.40218734741</ele>
        <time>2018-09-02T14:17:31Z</time>
      </trkpt>
      <trkpt lat="42.898603817488" lon="-4.89406979643264">
        <ele>1301.85360336304</ele>
        <time>2018-09-02T14:17:33Z</time>
      </trkpt>
      <trkpt lat="42.8986019734693" lon="-4.89415696822563">
        <ele>1303.15291976929</ele>
        <time>2018-09-02T14:17:35Z</time>
      </trkpt>
      <trkpt lat="42.8985981597033" lon="-4.89424296655217">
        <ele>1303.7096824646</ele>
        <time>2018-09-02T14:17:37Z</time>
      </trkpt>
      <trkpt lat="42.898590741719" lon="-4.89432712086001">
        <ele>1304.07967758179</ele>
        <time>2018-09-02T14:17:39Z</time>
      </trkpt>
      <trkpt lat="42.8985798452449" lon="-4.8944121971772">
        <ele>1304.80843734741</ele>
        <time>2018-09-02T14:17:41Z</time>
      </trkpt>
      <trkpt lat="42.8985645063621" lon="-4.89449626766601">
        <ele>1305.54745101929</ele>
        <time>2018-09-02T14:17:43Z</time>
      </trkpt>
      <trkpt lat="42.8985470720035" lon="-4.89458184689739">
        <ele>1306.3698387146</ele>
        <time>2018-09-02T14:17:45Z</time>
      </trkpt>
      <trkpt lat="42.8985264944312" lon="-4.89466952160457">
        <ele>1307.53866195679</ele>
        <time>2018-09-02T14:17:47Z</time>
      </trkpt>
      <trkpt lat="42.8985003848028" lon="-4.89475912414947">
        <ele>1308.71981430054</ele>
        <time>2018-09-02T14:17:49Z</time>
      </trkpt>
      <trkpt lat="42.8984829504442" lon="-4.8948437813715">
        <ele>1308.15707015991</ele>
        <time>2018-09-02T14:17:51Z</time>
      </trkpt>
      <trkpt lat="42.8984696232182" lon="-4.894916452472">
        <ele>1307.61385726929</ele>
        <time>2018-09-02T14:17:53Z</time>
      </trkpt>
      <trkpt lat="42.8984556673494" lon="-4.89499130286732">
        <ele>1307.82833480835</ele>
        <time>2018-09-02T14:17:55Z</time>
      </trkpt>
      <trkpt lat="42.8984432202232" lon="-4.89507487044194">
        <ele>1309.25497055054</ele>
        <time>2018-09-02T14:17:57Z</time>
      </trkpt>
      <trkpt lat="42.8984283004356" lon="-4.89516003057817">
        <ele>1310.04916000366</ele>
        <time>2018-09-02T14:17:59Z</time>
      </trkpt>
      <trkpt lat="42.8984093154249" lon="-4.89525089040854">
        <ele>1311.76546859741</ele>
        <time>2018-09-02T14:18:01Z</time>
      </trkpt>
      <trkpt lat="42.8983969521177" lon="-4.89533403888801">
        <ele>1311.87716293335</ele>
        <time>2018-09-02T14:18:03Z</time>
      </trkpt>
      <trkpt lat="42.8983919648853" lon="-4.89541576244393">
        <ele>1311.2047996521</ele>
        <time>2018-09-02T14:18:05Z</time>
      </trkpt>
      <trkpt lat="42.8983920487043" lon="-4.89550201222756">
        <ele>1312.00252914429</ele>
        <time>2018-09-02T14:18:07Z</time>
      </trkpt>
      <trkpt lat="42.898395191918" lon="-4.89558893256345">
        <ele>1313.29549789429</ele>
        <time>2018-09-02T14:18:09Z</time>
      </trkpt>
      <trkpt lat="42.8984033223641" lon="-4.89567643963256">
        <ele>1312.87557601929</ele>
        <time>2018-09-02T14:18:11Z</time>
      </trkpt>
      <trkpt lat="42.8984165657711" lon="-4.89576553926328">
        <ele>1312.85653305054</ele>
        <time>2018-09-02T14:18:13Z</time>
      </trkpt>
      <trkpt lat="42.8984276717928" lon="-4.89585237578013">
        <ele>1313.30025863647</ele>
        <time>2018-09-02T14:18:15Z</time>
      </trkpt>
      <trkpt lat="42.8984349640486" lon="-4.89593787119249">
        <ele>1313.0114402771</ele>
        <time>2018-09-02T14:18:17Z</time>
      </trkpt>
      <trkpt lat="42.8984399093715" lon="-4.89602479152837">
        <ele>1313.42660140991</ele>
        <time>2018-09-02T14:18:19Z</time>
      </trkpt>
      <trkpt lat="42.8984477464509" lon="-4.89611816592971">
        <ele>1314.57381820679</ele>
        <time>2018-09-02T14:18:21Z</time>
      </trkpt>
      <trkpt lat="42.8984557092589" lon="-4.89620307460883">
        <ele>1313.9469871521</ele>
        <time>2018-09-02T14:18:23Z</time>
      </trkpt>
      <trkpt lat="42.8984684916613" lon="-4.8962965328292">
        <ele>1315.07967758179</ele>
        <time>2018-09-02T14:18:25Z</time>
      </trkpt>
      <trkpt lat="42.8984798910496" lon="-4.89638948813537">
        <ele>1316.10970687866</ele>
        <time>2018-09-02T14:18:27Z</time>
      </trkpt>
      <trkpt lat="42.898486177477" lon="-4.89647557028094">
        <ele>1315.56332015991</ele>
        <time>2018-09-02T14:18:29Z</time>
      </trkpt>
      <trkpt lat="42.8984952718419" lon="-4.89656517282584">
        <ele>1315.33309555054</ele>
        <time>2018-09-02T14:18:31Z</time>
      </trkpt>
      <trkpt lat="42.8985045757544" lon="-4.89665536210397">
        <ele>1315.49105453491</ele>
        <time>2018-09-02T14:18:33Z</time>
      </trkpt>
      <trkpt lat="42.8985116584626" lon="-4.89674571902016">
        <ele>1315.21773910522</ele>
        <time>2018-09-02T14:18:35Z</time>
      </trkpt>
      <trkpt lat="42.8985158913237" lon="-4.8968314658896">
        <ele>1315.29940414429</ele>
        <time>2018-09-02T14:18:37Z</time>
      </trkpt>
      <trkpt lat="42.8985223453891" lon="-4.8969162907497">
        <ele>1315.59676742554</ele>
        <time>2018-09-02T14:18:39Z</time>
      </trkpt>
      <trkpt lat="42.8985294280973" lon="-4.89700254053334">
        <ele>1317.03207015991</ele>
        <time>2018-09-02T14:18:41Z</time>
      </trkpt>
      <trkpt lat="42.8985372232673" lon="-4.89709147252599">
        <ele>1316.76900863647</ele>
        <time>2018-09-02T14:18:43Z</time>
      </trkpt>
      <trkpt lat="42.8985422104997" lon="-4.8971789795951">
        <ele>1317.87887191772</ele>
        <time>2018-09-02T14:18:45Z</time>
      </trkpt>
      <trkpt lat="42.8985498799411" lon="-4.89726212807456">
        <ele>1318.6745262146</ele>
        <time>2018-09-02T14:18:47Z</time>
      </trkpt>
      <trkpt lat="42.8985554119972" lon="-4.89734510891596">
        <ele>1318.13949203491</ele>
        <time>2018-09-02T14:18:49Z</time>
      </trkpt>
      <trkpt lat="42.8985648416382" lon="-4.89742976613799">
        <ele>1318.51681137085</ele>
        <time>2018-09-02T14:18:51Z</time>
      </trkpt>
      <trkpt lat="42.8985762410265" lon="-4.89751651883581">
        <ele>1317.72481918335</ele>
        <time>2018-09-02T14:18:53Z</time>
      </trkpt>
      <trkpt lat="42.898582778911" lon="-4.89760260098139">
        <ele>1317.33749008179</ele>
        <time>2018-09-02T14:18:55Z</time>
      </trkpt>
      <trkpt lat="42.8985872632292" lon="-4.89768449217537">
        <ele>1316.77621078491</ele>
        <time>2018-09-02T14:18:57Z</time>
      </trkpt>
      <trkpt lat="42.8985935915661" lon="-4.89776378497937">
        <ele>1316.81771469116</ele>
        <time>2018-09-02T14:18:59Z</time>
      </trkpt>
      <trkpt lat="42.8986030631167" lon="-4.89784969948688">
        <ele>1318.14474105835</ele>
        <time>2018-09-02T14:19:01Z</time>
      </trkpt>
      <trkpt lat="42.8986129537624" lon="-4.89793779328922">
        <ele>1318.74898910522</ele>
        <time>2018-09-02T14:19:03Z</time>
      </trkpt>
      <trkpt lat="42.8986194497374" lon="-4.89802437834898">
        <ele>1319.83431625366</ele>
        <time>2018-09-02T14:19:05Z</time>
      </trkpt>
      <trkpt lat="42.8986276640025" lon="-4.8981113825039">
        <ele>1320.23983383179</ele>
        <time>2018-09-02T14:19:07Z</time>
      </trkpt>
      <trkpt lat="42.8986376384673" lon="-4.89819469862142">
        <ele>1320.75509262085</ele>
        <time>2018-09-02T14:19:09Z</time>
      </trkpt>
      <trkpt lat="42.8986469842893" lon="-4.89827742800573">
        <ele>1320.92379379272</ele>
        <time>2018-09-02T14:19:11Z</time>
      </trkpt>
      <trkpt lat="42.8986526420739" lon="-4.89836275578001">
        <ele>1322.04696273804</ele>
        <time>2018-09-02T14:19:13Z</time>
      </trkpt>
      <trkpt lat="42.8986571683017" lon="-4.89845051430622">
        <ele>1323.55514144897</ele>
        <time>2018-09-02T14:19:15Z</time>
      </trkpt>
      <trkpt lat="42.8986638738242" lon="-4.89854237996498">
        <ele>1324.22005844116</ele>
        <time>2018-09-02T14:19:17Z</time>
      </trkpt>
      <trkpt lat="42.8986729681891" lon="-4.89862862974861">
        <ele>1324.46249008179</ele>
        <time>2018-09-02T14:19:19Z</time>
      </trkpt>
      <trkpt lat="42.8986821044636" lon="-4.898708928381">
        <ele>1324.34237289429</ele>
        <time>2018-09-02T14:19:21Z</time>
      </trkpt>
      <trkpt lat="42.8986874688816" lon="-4.89879149012724">
        <ele>1324.02450180054</ele>
        <time>2018-09-02T14:19:23Z</time>
      </trkpt>
      <trkpt lat="42.8986971499798" lon="-4.89887706935862">
        <ele>1325.92245101929</ele>
        <time>2018-09-02T14:19:25Z</time>
      </trkpt>
      <trkpt lat="42.8987155482573" lon="-4.89896298386613">
        <ele>1327.8532371521</ele>
        <time>2018-09-02T14:19:27Z</time>
      </trkpt>
      <trkpt lat="42.8987300070402" lon="-4.89904579706946">
        <ele>1326.82638168335</ele>
        <time>2018-09-02T14:19:29Z</time>
      </trkpt>
      <trkpt lat="42.898735916282" lon="-4.89912710153023">
        <ele>1327.43099594116</ele>
        <time>2018-09-02T14:19:31Z</time>
      </trkpt>
      <trkpt lat="42.8987435438138" lon="-4.89920832217196">
        <ele>1328.03963851929</ele>
        <time>2018-09-02T14:19:33Z</time>
      </trkpt>
      <trkpt lat="42.898755739483" lon="-4.89929205738464">
        <ele>1329.43758773804</ele>
        <time>2018-09-02T14:19:35Z</time>
      </trkpt>
      <trkpt lat="42.8987668874142" lon="-4.89937470294991">
        <ele>1330.18087387085</ele>
        <time>2018-09-02T14:19:37Z</time>
      </trkpt>
      <trkpt lat="42.8987785382596" lon="-4.89945961162904">
        <ele>1331.45064926147</ele>
        <time>2018-09-02T14:19:39Z</time>
      </trkpt>
      <trkpt lat="42.8987883869958" lon="-4.89955013618329">
        <ele>1331.34164047241</ele>
        <time>2018-09-02T14:19:41Z</time>
      </trkpt>
      <trkpt lat="42.8987989062843" lon="-4.89964937791685">
        <ele>1332.09139633179</ele>
        <time>2018-09-02T14:19:43Z</time>
      </trkpt>
      <trkpt lat="42.898807330097" lon="-4.89974526688913">
        <ele>1332.20638656616</ele>
        <time>2018-09-02T14:19:45Z</time>
      </trkpt>
      <trkpt lat="42.8988110600439" lon="-4.89983243868211">
        <ele>1333.46590805054</ele>
        <time>2018-09-02T14:19:47Z</time>
      </trkpt>
      <trkpt lat="42.898811479139" lon="-4.89992396906475">
        <ele>1332.7243309021</ele>
        <time>2018-09-02T14:19:49Z</time>
      </trkpt>
      <trkpt lat="42.8988091322062" lon="-4.90001558326641">
        <ele>1332.96761703491</ele>
        <time>2018-09-02T14:19:51Z</time>
      </trkpt>
      <trkpt lat="42.8988056537163" lon="-4.90010585636357">
        <ele>1334.39242172241</ele>
        <time>2018-09-02T14:19:53Z</time>
      </trkpt>
      <trkpt lat="42.8988046897975" lon="-4.90019202232817">
        <ele>1334.30477523804</ele>
        <time>2018-09-02T14:19:55Z</time>
      </trkpt>
      <trkpt lat="42.898806114721" lon="-4.90027072839895">
        <ele>1332.95907211304</ele>
        <time>2018-09-02T14:19:57Z</time>
      </trkpt>
      <trkpt lat="42.8988095932108" lon="-4.90036552772382">
        <ele>1334.07650375366</ele>
        <time>2018-09-02T14:19:59Z</time>
      </trkpt>
      <trkpt lat="42.8988072462779" lon="-4.90045337006906">
        <ele>1334.3190574646</ele>
        <time>2018-09-02T14:20:01Z</time>
      </trkpt>
      <trkpt lat="42.8988018818599" lon="-4.90054448135654">
        <ele>1334.99666976929</ele>
        <time>2018-09-02T14:20:03Z</time>
      </trkpt>
      <trkpt lat="42.8987991158319" lon="-4.90063483827272">
        <ele>1336.0026512146</ele>
        <time>2018-09-02T14:20:05Z</time>
      </trkpt>
      <trkpt lat="42.898795553523" lon="-4.90072108805636">
        <ele>1336.64059066772</ele>
        <time>2018-09-02T14:20:07Z</time>
      </trkpt>
      <trkpt lat="42.898794254328" lon="-4.90080624819258">
        <ele>1334.30782699585</ele>
        <time>2018-09-02T14:20:09Z</time>
      </trkpt>
      <trkpt lat="42.8987919493047" lon="-4.90089752711812">
        <ele>1334.90230941772</ele>
        <time>2018-09-02T14:20:11Z</time>
      </trkpt>
      <trkpt lat="42.8987919912142" lon="-4.90098905750075">
        <ele>1335.35482406616</ele>
        <time>2018-09-02T14:20:13Z</time>
      </trkpt>
      <trkpt lat="42.8988002054793" lon="-4.90108503029207">
        <ele>1335.95357894897</ele>
        <time>2018-09-02T14:20:15Z</time>
      </trkpt>
      <trkpt lat="42.8988137003434" lon="-4.90116583183864">
        <ele>1335.35628890991</ele>
        <time>2018-09-02T14:20:17Z</time>
      </trkpt>
      <trkpt lat="42.8988246806365" lon="-4.90125090815583">
        <ele>1336.69613265991</ele>
        <time>2018-09-02T14:20:19Z</time>
      </trkpt>
      <trkpt lat="42.8988336073634" lon="-4.90133548155883">
        <ele>1338.34762191772</ele>
        <time>2018-09-02T14:20:21Z</time>
      </trkpt>
      <trkpt lat="42.8988289973167" lon="-4.90142567083696">
        <ele>1339.1325340271</ele>
        <time>2018-09-02T14:20:23Z</time>
      </trkpt>
      <trkpt lat="42.8988093836633" lon="-4.90151150152544">
        <ele>1339.54928207397</ele>
        <time>2018-09-02T14:20:25Z</time>
      </trkpt>
      <trkpt lat="42.8988045640689" lon="-4.90161015652577">
        <ele>1341.56747055054</ele>
        <time>2018-09-02T14:20:27Z</time>
      </trkpt>
      <trkpt lat="42.8988091322062" lon="-4.90170981735448">
        <ele>1343.29635238647</ele>
        <time>2018-09-02T14:20:29Z</time>
      </trkpt>
      <trkpt lat="42.8988094674823" lon="-4.90179916844228">
        <ele>1342.47884750366</ele>
        <time>2018-09-02T14:20:31Z</time>
      </trkpt>
      <trkpt lat="42.8988068271828" lon="-4.90189346485296">
        <ele>1343.53939437866</ele>
        <time>2018-09-02T14:20:33Z</time>
      </trkpt>
      <trkpt lat="42.8987943381471" lon="-4.90198533051172">
        <ele>1342.87752914429</ele>
        <time>2018-09-02T14:20:35Z</time>
      </trkpt>
      <trkpt lat="42.8987687733424" lon="-4.90208297968367">
        <ele>1342.81173324585</ele>
        <time>2018-09-02T14:20:37Z</time>
      </trkpt>
      <trkpt lat="42.8987493692365" lon="-4.90218155086497">
        <ele>1342.46969223022</ele>
        <time>2018-09-02T14:20:39Z</time>
      </trkpt>
      <trkpt lat="42.8987185238329" lon="-4.90228054114143">
        <ele>1342.8630027771</ele>
        <time>2018-09-02T14:20:41Z</time>
      </trkpt>
      <trkpt lat="42.8986841580299" lon="-4.90237257443825">
        <ele>1342.41207504272</ele>
        <time>2018-09-02T14:20:43Z</time>
      </trkpt>
      <trkpt lat="42.8986665979427" lon="-4.90247240290502">
        <ele>1343.28915023804</ele>
        <time>2018-09-02T14:20:45Z</time>
      </trkpt>
      <trkpt lat="42.8986673104045" lon="-4.90257156081954">
        <ele>1340.36373519897</ele>
        <time>2018-09-02T14:20:47Z</time>
      </trkpt>
      <trkpt lat="42.8986623231721" lon="-4.90267775953273">
        <ele>1342.12118148804</ele>
        <time>2018-09-02T14:20:49Z</time>
      </trkpt>
      <trkpt lat="42.8986648796526" lon="-4.90278387442688">
        <ele>1341.79049301147</ele>
        <time>2018-09-02T14:20:51Z</time>
      </trkpt>
      <trkpt lat="42.898665885481" lon="-4.90288512781719">
        <ele>1340.46200180054</ele>
        <time>2018-09-02T14:20:53Z</time>
      </trkpt>
      <trkpt lat="42.8986654244763" lon="-4.90298369899849">
        <ele>1339.70199203491</ele>
        <time>2018-09-02T14:20:55Z</time>
      </trkpt>
      <trkpt lat="42.8986747702983" lon="-4.90308503620783">
        <ele>1341.88277816772</ele>
        <time>2018-09-02T14:20:57Z</time>
      </trkpt>
      <trkpt lat="42.8986936295805" lon="-4.90318872035006">
        <ele>1343.68343734741</ele>
        <time>2018-09-02T14:20:59Z</time>
      </trkpt>
      <trkpt lat="42.8987107705724" lon="-4.90328561515073">
        <ele>1343.59029769897</ele>
        <time>2018-09-02T14:21:01Z</time>
      </trkpt>
      <trkpt lat="42.8987265285504" lon="-4.90337781608561">
        <ele>1342.13375473022</ele>
        <time>2018-09-02T14:21:03Z</time>
      </trkpt>
      <trkpt lat="42.8987537278262" lon="-4.90347378887693">
        <ele>1343.87386703491</ele>
        <time>2018-09-02T14:21:05Z</time>
      </trkpt>
      <trkpt lat="42.8987879259911" lon="-4.90356883965889">
        <ele>1343.85470199585</ele>
        <time>2018-09-02T14:21:07Z</time>
      </trkpt>
      <trkpt lat="42.8988200286803" lon="-4.90366799757341">
        <ele>1345.1256980896</ele>
        <time>2018-09-02T14:21:09Z</time>
      </trkpt>
      <trkpt lat="42.8988445457471" lon="-4.9037707597063">
        <ele>1345.06856918335</ele>
        <time>2018-09-02T14:21:11Z</time>
      </trkpt>
      <trkpt lat="42.8988722060275" lon="-4.9038656428502">
        <ele>1345.5046043396</ele>
        <time>2018-09-02T14:21:13Z</time>
      </trkpt>
      <trkpt lat="42.8989053145451" lon="-4.90396119654635">
        <ele>1346.14864730835</ele>
        <time>2018-09-02T14:21:15Z</time>
      </trkpt>
      <trkpt lat="42.8989414824572" lon="-4.90405473858575">
        <ele>1346.56637191772</ele>
        <time>2018-09-02T14:21:17Z</time>
      </trkpt>
      <trkpt lat="42.898972495499" lon="-4.90415867418507">
        <ele>1347.89144515991</ele>
        <time>2018-09-02T14:21:19Z</time>
      </trkpt>
      <trkpt lat="42.8989991080415" lon="-4.90426193923215">
        <ele>1347.7633934021</ele>
        <time>2018-09-02T14:21:21Z</time>
      </trkpt>
      <trkpt lat="42.8990264749554" lon="-4.90435699001411">
        <ele>1347.68673324585</ele>
        <time>2018-09-02T14:21:23Z</time>
      </trkpt>
      <trkpt lat="42.8990579909113" lon="-4.90444801748256">
        <ele>1349.3766746521</ele>
        <time>2018-09-02T14:21:25Z</time>
      </trkpt>
      <trkpt lat="42.8990900936005" lon="-4.90453409962813">
        <ele>1350.90194320679</ele>
        <time>2018-09-02T14:21:27Z</time>
      </trkpt>
      <trkpt lat="42.8991310391975" lon="-4.90460467525283">
        <ele>1349.45003890991</ele>
        <time>2018-09-02T14:21:29Z</time>
      </trkpt>
      <trkpt lat="42.8991786484075" lon="-4.90465739742378">
        <ele>1349.48690414429</ele>
        <time>2018-09-02T14:21:31Z</time>
      </trkpt>
      <trkpt lat="42.8992393333864" lon="-4.90470618010024">
        <ele>1350.92086410522</ele>
        <time>2018-09-02T14:21:33Z</time>
      </trkpt>
      <trkpt lat="42.8993062628833" lon="-4.90474197082678">
        <ele>1351.26412582397</ele>
        <time>2018-09-02T14:21:35Z</time>
      </trkpt>
      <trkpt lat="42.899375706951" lon="-4.90476845764081">
        <ele>1351.71688461304</ele>
        <time>2018-09-02T14:21:37Z</time>
      </trkpt>
      <trkpt lat="42.8994439356429" lon="-4.90480223671059">
        <ele>1353.2047996521</ele>
        <time>2018-09-02T14:21:39Z</time>
      </trkpt>
      <trkpt lat="42.8995149303627" lon="-4.9048379436181">
        <ele>1355.01852035522</ele>
        <time>2018-09-02T14:21:41Z</time>
      </trkpt>
      <trkpt lat="42.8995838715163" lon="-4.90488739684681">
        <ele>1356.69100570679</ele>
        <time>2018-09-02T14:21:43Z</time>
      </trkpt>
      <trkpt lat="42.8996450174999" lon="-4.90495621227185">
        <ele>1357.05306625366</ele>
        <time>2018-09-02T14:21:45Z</time>
      </trkpt>
      <trkpt lat="42.8996853763637" lon="-4.90503852256099">
        <ele>1357.39022445679</ele>
        <time>2018-09-02T14:21:47Z</time>
      </trkpt>
      <trkpt lat="42.8997008828846" lon="-4.90513851866583">
        <ele>1356.50912094116</ele>
        <time>2018-09-02T14:21:49Z</time>
      </trkpt>
      <trkpt lat="42.8996899025914" lon="-4.90524027497033">
        <ele>1356.49642562866</ele>
        <time>2018-09-02T14:21:51Z</time>
      </trkpt>
      <trkpt lat="42.899658344726" lon="-4.90533633158068">
        <ele>1358.17855453491</ele>
        <time>2018-09-02T14:21:53Z</time>
      </trkpt>
      <trkpt lat="42.8996215481711" lon="-4.90542920306782">
        <ele>1358.38021469116</ele>
        <time>2018-09-02T14:21:55Z</time>
      </trkpt>
      <trkpt lat="42.8995806444836" lon="-4.9055216554598">
        <ele>1360.42440414429</ele>
        <time>2018-09-02T14:21:57Z</time>
      </trkpt>
      <trkpt lat="42.8995320294452" lon="-4.90561427548985">
        <ele>1361.52926254272</ele>
        <time>2018-09-02T14:21:59Z</time>
      </trkpt>
      <trkpt lat="42.8994855937016" lon="-4.90570848808149">
        <ele>1361.15169906616</ele>
        <time>2018-09-02T14:22:01Z</time>
      </trkpt>
      <trkpt lat="42.8994424269003" lon="-4.90580102429251">
        <ele>1361.66317367554</ele>
        <time>2018-09-02T14:22:03Z</time>
      </trkpt>
      <trkpt lat="42.8993990505514" lon="-4.90589607507447">
        <ele>1361.8395652771</ele>
        <time>2018-09-02T14:22:05Z</time>
      </trkpt>
      <trkpt lat="42.8993696719808" lon="-4.90599229932288">
        <ele>1361.35250473022</ele>
        <time>2018-09-02T14:22:07Z</time>
      </trkpt>
      <trkpt lat="42.8993552551073" lon="-4.90608927794258">
        <ele>1361.64840316772</ele>
        <time>2018-09-02T14:22:09Z</time>
      </trkpt>
      <trkpt lat="42.8993519442555" lon="-4.90618692711453">
        <ele>1361.17110824585</ele>
        <time>2018-09-02T14:22:11Z</time>
      </trkpt>
      <trkpt lat="42.8993575182212" lon="-4.90628323518197">
        <ele>1360.94222640991</ele>
        <time>2018-09-02T14:22:13Z</time>
      </trkpt>
      <trkpt lat="42.8993638046485" lon="-4.90638214163939">
        <ele>1362.41500473022</ele>
        <time>2018-09-02T14:22:15Z</time>
      </trkpt>
      <trkpt lat="42.8993682889667" lon="-4.90648188628713">
        <ele>1361.96175765991</ele>
        <time>2018-09-02T14:22:17Z</time>
      </trkpt>
      <trkpt lat="42.8993740305704" lon="-4.9065787810878">
        <ele>1361.59420394897</ele>
        <time>2018-09-02T14:22:19Z</time>
      </trkpt>
      <trkpt lat="42.899379520717" lon="-4.9066736642317">
        <ele>1361.68783187866</ele>
        <time>2018-09-02T14:22:21Z</time>
      </trkpt>
      <trkpt lat="42.8993827058402" lon="-4.90677307360331">
        <ele>1362.47066879272</ele>
        <time>2018-09-02T14:22:23Z</time>
      </trkpt>
      <trkpt lat="42.8993865615156" lon="-4.9068705551372">
        <ele>1362.60250473022</ele>
        <time>2018-09-02T14:22:25Z</time>
      </trkpt>
      <trkpt lat="42.8993887408105" lon="-4.90696719848077">
        <ele>1362.71200180054</ele>
        <time>2018-09-02T14:22:27Z</time>
      </trkpt>
      <trkpt lat="42.899390081915" lon="-4.90706493147175">
        <ele>1363.83932113647</ele>
        <time>2018-09-02T14:22:29Z</time>
      </trkpt>
      <trkpt lat="42.8993885731724" lon="-4.90716082044403">
        <ele>1364.42904281616</ele>
        <time>2018-09-02T14:22:31Z</time>
      </trkpt>
      <trkpt lat="42.8993858071444" lon="-4.90726006217758">
        <ele>1362.45821762085</ele>
        <time>2018-09-02T14:22:33Z</time>
      </trkpt>
      <trkpt lat="42.8993834602115" lon="-4.90735888481597">
        <ele>1363.42757797241</ele>
        <time>2018-09-02T14:22:35Z</time>
      </trkpt>
      <trkpt lat="42.8993812390071" lon="-4.90746013820628">
        <ele>1363.80916976929</ele>
        <time>2018-09-02T14:22:37Z</time>
      </trkpt>
      <trkpt lat="42.8993814066452" lon="-4.90755803883533">
        <ele>1365.58285140991</ele>
        <time>2018-09-02T14:22:39Z</time>
      </trkpt>
      <trkpt lat="42.899383418302" lon="-4.90765149705569">
        <ele>1366.62752914429</ele>
        <time>2018-09-02T14:22:41Z</time>
      </trkpt>
      <trkpt lat="42.8993869387013" lon="-4.90774327889542">
        <ele>1367.39437484741</ele>
        <time>2018-09-02T14:22:43Z</time>
      </trkpt>
      <trkpt lat="42.8993887408105" lon="-4.90783791058223">
        <ele>1368.12435531616</ele>
        <time>2018-09-02T14:22:45Z</time>
      </trkpt>
      <trkpt lat="42.8993902914626" lon="-4.90793463774482">
        <ele>1368.0553855896</ele>
        <time>2018-09-02T14:22:47Z</time>
      </trkpt>
      <trkpt lat="42.8993933089477" lon="-4.90802977234582">
        <ele>1367.54696273804</ele>
        <time>2018-09-02T14:22:49Z</time>
      </trkpt>
      <trkpt lat="42.8993988829133" lon="-4.90812968463163">
        <ele>1368.65450668335</ele>
        <time>2018-09-02T14:22:51Z</time>
      </trkpt>
      <trkpt lat="42.8994040796933" lon="-4.9082279205368">
        <ele>1369.54305648804</ele>
        <time>2018-09-02T14:22:53Z</time>
      </trkpt>
      <trkpt lat="42.8994092764732" lon="-4.90832313895683">
        <ele>1369.54818344116</ele>
        <time>2018-09-02T14:22:55Z</time>
      </trkpt>
      <trkpt lat="42.8994159400863" lon="-4.90841835737686">
        <ele>1369.93734359741</ele>
        <time>2018-09-02T14:22:57Z</time>
      </trkpt>
      <trkpt lat="42.8994222684232" lon="-4.90851483308236">
        <ele>1369.87350082397</ele>
        <time>2018-09-02T14:22:59Z</time>
      </trkpt>
      <trkpt lat="42.8994280938459" lon="-4.90861147642593">
        <ele>1370.76302719116</ele>
        <time>2018-09-02T14:23:01Z</time>
      </trkpt>
      <trkpt lat="42.8994330391687" lon="-4.90870828740756">
        <ele>1370.50240707397</ele>
        <time>2018-09-02T14:23:03Z</time>
      </trkpt>
      <trkpt lat="42.8994434746382" lon="-4.90880660713176">
        <ele>1370.69723129272</ele>
        <time>2018-09-02T14:23:05Z</time>
      </trkpt>
      <trkpt lat="42.8994549578455" lon="-4.90890434012274">
        <ele>1371.62350082397</ele>
        <time>2018-09-02T14:23:07Z</time>
      </trkpt>
      <trkpt lat="42.8994688298953" lon="-4.90900190547566">
        <ele>1372.26864242554</ele>
        <time>2018-09-02T14:23:09Z</time>
      </trkpt>
      <trkpt lat="42.8994850069684" lon="-4.90909486078183">
        <ele>1373.17806625366</ele>
        <time>2018-09-02T14:23:11Z</time>
      </trkpt>
      <trkpt lat="42.89950390816" lon="-4.90918714553575">
        <ele>1373.0641746521</ele>
        <time>2018-09-02T14:23:13Z</time>
      </trkpt>
      <trkpt lat="42.8995263716605" lon="-4.90927733481388">
        <ele>1372.8473777771</ele>
        <time>2018-09-02T14:23:15Z</time>
      </trkpt>
      <trkpt lat="42.8995465301377" lon="-4.90936903283457">
        <ele>1372.66317367554</ele>
        <time>2018-09-02T14:23:17Z</time>
      </trkpt>
      <trkpt lat="42.89956191093" lon="-4.90946492180685">
        <ele>1372.96578598022</ele>
        <time>2018-09-02T14:23:19Z</time>
      </trkpt>
      <trkpt lat="42.8995690355477" lon="-4.90956491791169">
        <ele>1372.96664047241</ele>
        <time>2018-09-02T14:23:21Z</time>
      </trkpt>
      <trkpt lat="42.8995658504245" lon="-4.90966633894007">
        <ele>1373.73238754272</ele>
        <time>2018-09-02T14:23:23Z</time>
      </trkpt>
      <trkpt lat="42.8995563788739" lon="-4.90976549685459">
        <ele>1373.27779769897</ele>
        <time>2018-09-02T14:23:25Z</time>
      </trkpt>
      <trkpt lat="42.8995479969707" lon="-4.90986088291268">
        <ele>1373.62166976929</ele>
        <time>2018-09-02T14:23:27Z</time>
      </trkpt>
      <trkpt lat="42.899535424116" lon="-4.90995358676176">
        <ele>1373.80416488647</ele>
        <time>2018-09-02T14:23:29Z</time>
      </trkpt>
      <trkpt lat="42.8995253658322" lon="-4.91004729643921">
        <ele>1374.35165023804</ele>
        <time>2018-09-02T14:23:31Z</time>
      </trkpt>
      <trkpt lat="42.8995155590055" lon="-4.91014402360181">
        <ele>1374.83590316772</ele>
        <time>2018-09-02T14:23:33Z</time>
      </trkpt>
      <trkpt lat="42.8995047882599" lon="-4.91024251096408">
        <ele>1376.14901351929</ele>
        <time>2018-09-02T14:23:35Z</time>
      </trkpt>
      <trkpt lat="42.8994947299761" lon="-4.91034032777409">
        <ele>1377.03548812866</ele>
        <time>2018-09-02T14:23:37Z</time>
      </trkpt>
      <trkpt lat="42.8994836239544" lon="-4.91043772548894">
        <ele>1377.62398910522</ele>
        <time>2018-09-02T14:23:39Z</time>
      </trkpt>
      <trkpt lat="42.8994706320045" lon="-4.91053772159378">
        <ele>1378.8424949646</ele>
        <time>2018-09-02T14:23:41Z</time>
      </trkpt>
      <trkpt lat="42.8994566342262" lon="-4.91063880734603">
        <ele>1379.83236312866</ele>
        <time>2018-09-02T14:23:43Z</time>
      </trkpt>
      <trkpt lat="42.8994417144385" lon="-4.91073737852733">
        <ele>1380.37484359741</ele>
        <time>2018-09-02T14:23:45Z</time>
      </trkpt>
      <trkpt lat="42.899428429122" lon="-4.91083092056672">
        <ele>1381.17855453491</ele>
        <time>2018-09-02T14:23:47Z</time>
      </trkpt>
      <trkpt lat="42.8994176164669" lon="-4.91092530079643">
        <ele>1382.00399398804</ele>
        <time>2018-09-02T14:23:49Z</time>
      </trkpt>
      <trkpt lat="42.8994081449163" lon="-4.91101657972197">
        <ele>1381.85628890991</ele>
        <time>2018-09-02T14:23:51Z</time>
      </trkpt>
      <trkpt lat="42.8994001821083" lon="-4.91110919975202">
        <ele>1382.02779769897</ele>
        <time>2018-09-02T14:23:53Z</time>
      </trkpt>
      <trkpt lat="42.8993903333721" lon="-4.91120215505819">
        <ele>1382.86043930054</ele>
        <time>2018-09-02T14:23:55Z</time>
      </trkpt>
      <trkpt lat="42.8993830830258" lon="-4.91129368544082">
        <ele>1384.01131820679</ele>
        <time>2018-09-02T14:23:57Z</time>
      </trkpt>
      <trkpt lat="42.8993819514689" lon="-4.91138882004182">
        <ele>1385.0387840271</ele>
        <time>2018-09-02T14:23:59Z</time>
      </trkpt>
      <trkpt lat="42.8993867291537" lon="-4.91148529574732">
        <ele>1385.24654769897</ele>
        <time>2018-09-02T14:24:01Z</time>
      </trkpt>
      <trkpt lat="42.899392847943" lon="-4.91157540120642">
        <ele>1385.48092269897</ele>
        <time>2018-09-02T14:24:03Z</time>
      </trkpt>
      <trkpt lat="42.8994043730599" lon="-4.91166860796969">
        <ele>1384.9753074646</ele>
        <time>2018-09-02T14:24:05Z</time>
      </trkpt>
      <trkpt lat="42.899415269534" lon="-4.91176416166584">
        <ele>1386.0553855896</ele>
        <time>2018-09-02T14:24:07Z</time>
      </trkpt>
      <trkpt lat="42.8994256211844" lon="-4.91185954772393">
        <ele>1385.17965316772</ele>
        <time>2018-09-02T14:24:09Z</time>
      </trkpt>
      <trkpt lat="42.8994368529347" lon="-4.91195132956366">
        <ele>1385.29354476929</ele>
        <time>2018-09-02T14:24:11Z</time>
      </trkpt>
      <trkpt lat="42.8994478751373" lon="-4.91204252467017">
        <ele>1386.56844711304</ele>
        <time>2018-09-02T14:24:13Z</time>
      </trkpt>
      <trkpt lat="42.8994589392495" lon="-4.91213522851925">
        <ele>1387.91341781616</ele>
        <time>2018-09-02T14:24:15Z</time>
      </trkpt>
      <trkpt lat="42.8994687879858" lon="-4.91222600453059">
        <ele>1389.1755027771</ele>
        <time>2018-09-02T14:24:17Z</time>
      </trkpt>
      <trkpt lat="42.8994785948125" lon="-4.91231996566515">
        <ele>1390.45272445679</ele>
        <time>2018-09-02T14:24:19Z</time>
      </trkpt>
      <trkpt lat="42.8994899103818" lon="-4.91241283715229">
        <ele>1391.23958969116</ele>
        <time>2018-09-02T14:24:21Z</time>
      </trkpt>
      <trkpt lat="42.8995065484595" lon="-4.91250503808717">
        <ele>1392.17074203491</ele>
        <time>2018-09-02T14:24:23Z</time>
      </trkpt>
      <trkpt lat="42.8995257430178" lon="-4.91260067560236">
        <ele>1392.30099105835</ele>
        <time>2018-09-02T14:24:25Z</time>
      </trkpt>
      <trkpt lat="42.8995454823998" lon="-4.91269866005044">
        <ele>1392.18893051147</ele>
        <time>2018-09-02T14:24:27Z</time>
      </trkpt>
      <trkpt lat="42.8995643835914" lon="-4.91279488429885">
        <ele>1392.40816879272</ele>
        <time>2018-09-02T14:24:29Z</time>
      </trkpt>
      <trkpt lat="42.8995855059874" lon="-4.9128938745753">
        <ele>1391.68355941772</ele>
        <time>2018-09-02T14:24:31Z</time>
      </trkpt>
      <trkpt lat="42.8996067122024" lon="-4.91298993118565">
        <ele>1393.08211898804</ele>
        <time>2018-09-02T14:24:33Z</time>
      </trkpt>
      <trkpt lat="42.8996214224425" lon="-4.91308439523439">
        <ele>1393.34994125366</ele>
        <time>2018-09-02T14:24:35Z</time>
      </trkpt>
      <trkpt lat="42.8996340791163" lon="-4.91317936219733">
        <ele>1393.34554672241</ele>
        <time>2018-09-02T14:24:37Z</time>
      </trkpt>
      <trkpt lat="42.8996484959898" lon="-4.91327675991218">
        <ele>1393.27206039429</ele>
        <time>2018-09-02T14:24:39Z</time>
      </trkpt>
      <trkpt lat="42.8996615717587" lon="-4.91337675601702">
        <ele>1393.75777816772</ele>
        <time>2018-09-02T14:24:41Z</time>
      </trkpt>
      <trkpt lat="42.8996754438085" lon="-4.91347490810315">
        <ele>1394.27340316772</ele>
        <time>2018-09-02T14:24:43Z</time>
      </trkpt>
      <trkpt lat="42.8996858792779" lon="-4.9135728087322">
        <ele>1394.01266098022</ele>
        <time>2018-09-02T14:24:45Z</time>
      </trkpt>
      <trkpt lat="42.899696775752" lon="-4.91367255337994">
        <ele>1393.38326644897</ele>
        <time>2018-09-02T14:24:47Z</time>
      </trkpt>
      <trkpt lat="42.8997096838829" lon="-4.91377464496057">
        <ele>1393.59725570679</ele>
        <time>2018-09-02T14:24:49Z</time>
      </trkpt>
      <trkpt lat="42.8997239331183" lon="-4.91387606598894">
        <ele>1394.90438461304</ele>
        <time>2018-09-02T14:24:51Z</time>
      </trkpt>
      <trkpt lat="42.8997382242632" lon="-4.91397589445572">
        <ele>1395.91976547241</ele>
        <time>2018-09-02T14:24:53Z</time>
      </trkpt>
      <trkpt lat="42.8997552814362" lon="-4.9140720348851">
        <ele>1395.70394515991</ele>
        <time>2018-09-02T14:24:55Z</time>
      </trkpt>
      <trkpt lat="42.8997820197073" lon="-4.91416943259995">
        <ele>1394.20516586304</ele>
        <time>2018-09-02T14:24:57Z</time>
      </trkpt>
      <trkpt lat="42.8998137871203" lon="-4.91426548921029">
        <ele>1394.17367172241</ele>
        <time>2018-09-02T14:24:59Z</time>
      </trkpt>
      <trkpt lat="42.8998465184522" lon="-4.91435500793617">
        <ele>1395.6452293396</ele>
        <time>2018-09-02T14:25:01Z</time>
      </trkpt>
      <trkpt lat="42.8998845722926" lon="-4.91444209591012">
        <ele>1395.26522445679</ele>
        <time>2018-09-02T14:25:03Z</time>
      </trkpt>
      <trkpt lat="42.899924092966" lon="-4.91452893242698">
        <ele>1396.22835922241</ele>
        <time>2018-09-02T14:25:05Z</time>
      </trkpt>
      <trkpt lat="42.8999625239921" lon="-4.91461166181128">
        <ele>1395.98873519897</ele>
        <time>2018-09-02T14:25:07Z</time>
      </trkpt>
      <trkpt lat="42.8999991948185" lon="-4.9146968219475">
        <ele>1396.56161117554</ele>
        <time>2018-09-02T14:25:09Z</time>
      </trkpt>
      <trkpt lat="42.900034901726" lon="-4.91478055716019">
        <ele>1396.98275375366</ele>
        <time>2018-09-02T14:25:11Z</time>
      </trkpt>
      <trkpt lat="42.9000688903433" lon="-4.91486412473481">
        <ele>1398.6589012146</ele>
        <time>2018-09-02T14:25:13Z</time>
      </trkpt>
      <trkpt lat="42.9000981431854" lon="-4.9149505421565">
        <ele>1399.67049789429</ele>
        <time>2018-09-02T14:25:15Z</time>
      </trkpt>
      <trkpt lat="42.9001265159276" lon="-4.91504207253914">
        <ele>1399.31197738647</ele>
        <time>2018-09-02T14:25:17Z</time>
      </trkpt>
      <trkpt lat="42.9001493985233" lon="-4.9151336867408">
        <ele>1399.74813461304</ele>
        <time>2018-09-02T14:25:19Z</time>
      </trkpt>
      <trkpt lat="42.9001723230285" lon="-4.91522320546668">
        <ele>1399.99764633179</ele>
        <time>2018-09-02T14:25:21Z</time>
      </trkpt>
      <trkpt lat="42.9002015758705" lon="-4.91531121544998">
        <ele>1400.42782211304</ele>
        <time>2018-09-02T14:25:23Z</time>
      </trkpt>
      <trkpt lat="42.9002352711213" lon="-4.91539721377652">
        <ele>1400.85970687866</ele>
        <time>2018-09-02T14:25:25Z</time>
      </trkpt>
      <trkpt lat="42.9002707684812" lon="-4.91548195481758">
        <ele>1401.04037094116</ele>
        <time>2018-09-02T14:25:27Z</time>
      </trkpt>
      <trkpt lat="42.9003132228208" lon="-4.91555948742192">
        <ele>1400.4928855896</ele>
        <time>2018-09-02T14:25:29Z</time>
      </trkpt>
      <trkpt lat="42.900364100973" lon="-4.91562838666599">
        <ele>1401.28658676147</ele>
        <time>2018-09-02T14:25:31Z</time>
      </trkpt>
      <trkpt lat="42.9004176613343" lon="-4.91569074802558">
        <ele>1401.52096176147</ele>
        <time>2018-09-02T14:25:33Z</time>
      </trkpt>
      <trkpt lat="42.9004726047096" lon="-4.91575269029002">
        <ele>1401.64242172241</ele>
        <time>2018-09-02T14:25:35Z</time>
      </trkpt>
      <trkpt lat="42.9005274642658" lon="-4.91581027396481">
        <ele>1401.77767562866</ele>
        <time>2018-09-02T14:25:37Z</time>
      </trkpt>
      <trkpt lat="42.9005917534632" lon="-4.91585360840421">
        <ele>1400.65926742554</ele>
        <time>2018-09-02T14:25:39Z</time>
      </trkpt>
      <trkpt lat="42.900662748183" lon="-4.91589359008234">
        <ele>1399.52572250366</ele>
        <time>2018-09-02T14:25:41Z</time>
      </trkpt>
      <trkpt lat="42.9007312702415" lon="-4.91593927145462">
        <ele>1401.3102684021</ele>
        <time>2018-09-02T14:25:43Z</time>
      </trkpt>
      <trkpt lat="42.9007976130051" lon="-4.91598143242757">
        <ele>1400.55660629272</ele>
        <time>2018-09-02T14:25:45Z</time>
      </trkpt>
      <trkpt lat="42.9008685239059" lon="-4.91602049209635">
        <ele>1400.61373519897</ele>
        <time>2018-09-02T14:25:47Z</time>
      </trkpt>
      <trkpt lat="42.9009385127974" lon="-4.91605795920353">
        <ele>1401.2106590271</ele>
        <time>2018-09-02T14:25:49Z</time>
      </trkpt>
      <trkpt lat="42.9010068672177" lon="-4.91609844379585">
        <ele>1401.27560043335</ele>
        <time>2018-09-02T14:25:51Z</time>
      </trkpt>
      <trkpt lat="42.9010762274665" lon="-4.91613809019785">
        <ele>1401.66439437866</ele>
        <time>2018-09-02T14:25:53Z</time>
      </trkpt>
      <trkpt lat="42.9011453781676" lon="-4.91618243046563">
        <ele>1401.86227035522</ele>
        <time>2018-09-02T14:25:55Z</time>
      </trkpt>
      <trkpt lat="42.9012108827409" lon="-4.9162320513324">
        <ele>1402.09823226929</ele>
        <time>2018-09-02T14:25:57Z</time>
      </trkpt>
      <trkpt lat="42.9012776026902" lon="-4.91627915762823">
        <ele>1401.97298812866</ele>
        <time>2018-09-02T14:25:59Z</time>
      </trkpt>
      <trkpt lat="42.9013445740965" lon="-4.91632517427664">
        <ele>1401.65719223022</ele>
        <time>2018-09-02T14:26:01Z</time>
      </trkpt>
      <trkpt lat="42.901414646807" lon="-4.91636733524959">
        <ele>1402.57735824585</ele>
        <time>2018-09-02T14:26:03Z</time>
      </trkpt>
      <trkpt lat="42.9014829174084" lon="-4.91640547290902">
        <ele>1403.25057601929</ele>
        <time>2018-09-02T14:26:05Z</time>
      </trkpt>
      <trkpt lat="42.9015475837913" lon="-4.91644629277747">
        <ele>1402.91817855835</ele>
        <time>2018-09-02T14:26:07Z</time>
      </trkpt>
      <trkpt lat="42.9016120406267" lon="-4.91648979485493">
        <ele>1403.38094711304</ele>
        <time>2018-09-02T14:26:09Z</time>
      </trkpt>
      <trkpt lat="42.901676246005" lon="-4.91653245874207">
        <ele>1403.84994125366</ele>
        <time>2018-09-02T14:26:11Z</time>
      </trkpt>
      <trkpt lat="42.9017402418357" lon="-4.91657579318147">
        <ele>1404.50912094116</ele>
        <time>2018-09-02T14:26:13Z</time>
      </trkpt>
      <trkpt lat="42.9018040281189" lon="-4.91661719978314">
        <ele>1404.52157211304</ele>
        <time>2018-09-02T14:26:15Z</time>
      </trkpt>
      <trkpt lat="42.9018680658591" lon="-4.91666003130834">
        <ele>1404.64046859741</ele>
        <time>2018-09-02T14:26:17Z</time>
      </trkpt>
      <trkpt lat="42.9019323550564" lon="-4.91670403629999">
        <ele>1405.2204246521</ele>
        <time>2018-09-02T14:26:19Z</time>
      </trkpt>
      <trkpt lat="42.9019955126968" lon="-4.91675340570967">
        <ele>1405.54732894897</ele>
        <time>2018-09-02T14:26:21Z</time>
      </trkpt>
      <trkpt lat="42.9020628612888" lon="-4.91679414175909">
        <ele>1406.47762680054</ele>
        <time>2018-09-02T14:26:23Z</time>
      </trkpt>
      <trkpt lat="42.9021302098808" lon="-4.9168383143888">
        <ele>1407.75082015991</ele>
        <time>2018-09-02T14:26:25Z</time>
      </trkpt>
      <trkpt lat="42.902192864607" lon="-4.9168848339514">
        <ele>1408.13766098022</ele>
        <time>2018-09-02T14:26:27Z</time>
      </trkpt>
      <trkpt lat="42.9022557288808" lon="-4.91691961884957">
        <ele>1408.61520004272</ele>
        <time>2018-09-02T14:26:29Z</time>
      </trkpt>
      <trkpt lat="42.9023221554634" lon="-4.9169506318913">
        <ele>1407.97005844116</ele>
        <time>2018-09-02T14:26:31Z</time>
      </trkpt>
      <trkpt lat="42.9023872828511" lon="-4.91699036211233">
        <ele>1407.89950180054</ele>
        <time>2018-09-02T14:26:33Z</time>
      </trkpt>
      <trkpt lat="42.9024524521482" lon="-4.91702933796208">
        <ele>1407.83285140991</ele>
        <time>2018-09-02T14:26:35Z</time>
      </trkpt>
      <trkpt lat="42.9025175376263" lon="-4.91707175039213">
        <ele>1407.71700668335</ele>
        <time>2018-09-02T14:26:37Z</time>
      </trkpt>
      <trkpt lat="42.9025817010951" lon="-4.91711198352735">
        <ele>1408.6042137146</ele>
        <time>2018-09-02T14:26:39Z</time>
      </trkpt>
      <trkpt lat="42.9026427632597" lon="-4.91714894772034">
        <ele>1409.90572738647</ele>
        <time>2018-09-02T14:26:41Z</time>
      </trkpt>
      <trkpt lat="42.9027031548721" lon="-4.91719253361683">
        <ele>1410.45443344116</ele>
        <time>2018-09-02T14:26:43Z</time>
      </trkpt>
      <trkpt lat="42.9027657257793" lon="-4.91723586805623">
        <ele>1410.94662094116</ele>
        <time>2018-09-02T14:26:45Z</time>
      </trkpt>
      <trkpt lat="42.9028277099532" lon="-4.9172804597811">
        <ele>1411.49398422241</ele>
        <time>2018-09-02T14:26:47Z</time>
      </trkpt>
      <trkpt lat="42.9028896941272" lon="-4.91732496768694">
        <ele>1412.57833480835</ele>
        <time>2018-09-02T14:26:49Z</time>
      </trkpt>
      <trkpt lat="42.9029529355866" lon="-4.91736670956474">
        <ele>1413.11263656616</ele>
        <time>2018-09-02T14:26:51Z</time>
      </trkpt>
      <trkpt lat="42.9030186077979" lon="-4.9174065236048">
        <ele>1413.64840316772</ele>
        <time>2018-09-02T14:26:53Z</time>
      </trkpt>
      <trkpt lat="42.9030847829235" lon="-4.91744172759812">
        <ele>1413.85250473022</ele>
        <time>2018-09-02T14:26:55Z</time>
      </trkpt>
      <trkpt lat="42.9031491559398" lon="-4.91748254746657">
        <ele>1414.29207992554</ele>
        <time>2018-09-02T14:26:57Z</time>
      </trkpt>
      <trkpt lat="42.9032127326754" lon="-4.91752504371565">
        <ele>1415.09298324585</ele>
        <time>2018-09-02T14:26:59Z</time>
      </trkpt>
      <trkpt lat="42.9032739624781" lon="-4.91756804287892">
        <ele>1414.9118309021</ele>
        <time>2018-09-02T14:27:01Z</time>
      </trkpt>
      <trkpt lat="42.903335779014" lon="-4.91761154495638">
        <ele>1415.78341293335</ele>
        <time>2018-09-02T14:27:03Z</time>
      </trkpt>
      <trkpt lat="42.903397930826" lon="-4.91765454411965">
        <ele>1415.87301254272</ele>
        <time>2018-09-02T14:27:05Z</time>
      </trkpt>
      <trkpt lat="42.9034625133899" lon="-4.91769460961681">
        <ele>1416.42037582397</ele>
        <time>2018-09-02T14:27:07Z</time>
      </trkpt>
      <trkpt lat="42.9035295686153" lon="-4.91773836315136">
        <ele>1415.73031234741</ele>
        <time>2018-09-02T14:27:09Z</time>
      </trkpt>
      <trkpt lat="42.9035977553976" lon="-4.91777725518208">
        <ele>1416.08114242554</ele>
        <time>2018-09-02T14:27:11Z</time>
      </trkpt>
      <trkpt lat="42.9036648106229" lon="-4.91781488992732">
        <ele>1415.82174301147</ele>
        <time>2018-09-02T14:27:13Z</time>
      </trkpt>
      <trkpt lat="42.903729644644" lon="-4.91785403341513">
        <ele>1416.63302230835</ele>
        <time>2018-09-02T14:27:15Z</time>
      </trkpt>
      <trkpt lat="42.9037935985652" lon="-4.917893344541">
        <ele>1416.74996566772</ele>
        <time>2018-09-02T14:27:17Z</time>
      </trkpt>
      <trkpt lat="42.9038574686673" lon="-4.91793416440945">
        <ele>1417.28158187866</ele>
        <time>2018-09-02T14:27:19Z</time>
      </trkpt>
      <trkpt lat="42.9039203329411" lon="-4.91797582246821">
        <ele>1418.08028793335</ele>
        <time>2018-09-02T14:27:21Z</time>
      </trkpt>
      <trkpt lat="42.9039821075675" lon="-4.91801647469859">
        <ele>1419.47567367554</ele>
        <time>2018-09-02T14:27:23Z</time>
      </trkpt>
      <trkpt lat="42.9040453071174" lon="-4.9180627428041">
        <ele>1419.46297836304</ele>
        <time>2018-09-02T14:27:25Z</time>
      </trkpt>
      <trkpt lat="42.9041106440526" lon="-4.91810968146186">
        <ele>1419.22347640991</ele>
        <time>2018-09-02T14:27:27Z</time>
      </trkpt>
      <trkpt lat="42.9041767353592" lon="-4.91815469228189">
        <ele>1420.3932762146</ele>
        <time>2018-09-02T14:27:29Z</time>
      </trkpt>
      <trkpt lat="42.9042391386283" lon="-4.91819777526419">
        <ele>1421.48067855835</ele>
        <time>2018-09-02T14:27:31Z</time>
      </trkpt>
      <trkpt lat="42.904297937679" lon="-4.9182543531106">
        <ele>1420.71419906616</ele>
        <time>2018-09-02T14:27:33Z</time>
      </trkpt>
      <trkpt lat="42.9043513723117" lon="-4.91832350381177">
        <ele>1421.1803855896</ele>
        <time>2018-09-02T14:27:35Z</time>
      </trkpt>
      <trkpt lat="42.9043978080553" lon="-4.91840153933029">
        <ele>1422.75533676147</ele>
        <time>2018-09-02T14:27:37Z</time>
      </trkpt>
      <trkpt lat="42.9044333892343" lon="-4.91848703474264">
        <ele>1425.02450180054</ele>
        <time>2018-09-02T14:27:39Z</time>
      </trkpt>
      <trkpt lat="42.904456523287" lon="-4.91858770139973">
        <ele>1427.21126937866</ele>
        <time>2018-09-02T14:27:41Z</time>
      </trkpt>
      <trkpt lat="42.9044602113244" lon="-4.91869633086484">
        <ele>1428.06136703491</ele>
        <time>2018-09-02T14:27:43Z</time>
      </trkpt>
      <trkpt lat="42.9044542182636" lon="-4.91879766807418">
        <ele>1429.61092758179</ele>
        <time>2018-09-02T14:27:45Z</time>
      </trkpt>
      <trkpt lat="42.9044439085227" lon="-4.91889506578904">
        <ele>1430.31490707397</ele>
        <time>2018-09-02T14:27:47Z</time>
      </trkpt>
      <trkpt lat="42.9044247139645" lon="-4.91899204440873">
        <ele>1430.9967918396</ele>
        <time>2018-09-02T14:27:49Z</time>
      </trkpt>
      <trkpt lat="42.9044089559865" lon="-4.91909153759938">
        <ele>1431.22213363647</ele>
        <time>2018-09-02T14:27:51Z</time>
      </trkpt>
      <trkpt lat="42.90439826906" lon="-4.91919555701774">
        <ele>1431.6833152771</ele>
        <time>2018-09-02T14:27:53Z</time>
      </trkpt>
      <trkpt lat="42.9043845227388" lon="-4.91929580457967">
        <ele>1432.89730453491</ele>
        <time>2018-09-02T14:27:55Z</time>
      </trkpt>
      <trkpt lat="42.9043675912944" lon="-4.91939404048484">
        <ele>1433.1208152771</ele>
        <time>2018-09-02T14:27:57Z</time>
      </trkpt>
      <trkpt lat="42.9043484805551" lon="-4.91949420422774">
        <ele>1433.00606918335</ele>
        <time>2018-09-02T14:27:59Z</time>
      </trkpt>
      <trkpt lat="42.9043217841935" lon="-4.91959160194259">
        <ele>1433.39901351929</ele>
        <time>2018-09-02T14:28:01Z</time>
      </trkpt>
      <trkpt lat="42.9042809224156" lon="-4.91968204267781">
        <ele>1434.30843734741</ele>
        <time>2018-09-02T14:28:03Z</time>
      </trkpt>
      <trkpt lat="42.9042258114022" lon="-4.91975085810285">
        <ele>1434.94063949585</ele>
        <time>2018-09-02T14:28:05Z</time>
      </trkpt>
      <trkpt lat="42.9041613545668" lon="-4.91980819032054">
        <ele>1435.12337875366</ele>
        <time>2018-09-02T14:28:07Z</time>
      </trkpt>
      <trkpt lat="42.9040908627612" lon="-4.91985403933089">
        <ele>1435.09225082397</ele>
        <time>2018-09-02T14:28:09Z</time>
      </trkpt>
      <trkpt lat="42.904019197489" lon="-4.91988915950518">
        <ele>1436.21920394897</ele>
        <time>2018-09-02T14:28:11Z</time>
      </trkpt>
      <trkpt lat="42.9039484123168" lon="-4.91991816089015">
        <ele>1435.72542953491</ele>
        <time>2018-09-02T14:28:13Z</time>
      </trkpt>
      <trkpt lat="42.9038765374971" lon="-4.91995638236862">
        <ele>1437.52828598022</ele>
        <time>2018-09-02T14:28:15Z</time>
      </trkpt>
      <trkpt lat="42.9038075963435" lon="-4.91999150254291">
        <ele>1438.31490707397</ele>
        <time>2018-09-02T14:28:17Z</time>
      </trkpt>
      <trkpt lat="42.9037386132804" lon="-4.92002896965008">
        <ele>1438.98617172241</ele>
        <time>2018-09-02T14:28:19Z</time>
      </trkpt>
      <trkpt lat="42.9036722705168" lon="-4.92006903514724">
        <ele>1439.2350730896</ele>
        <time>2018-09-02T14:28:21Z</time>
      </trkpt>
      <trkpt lat="42.9036088195098" lon="-4.92011027411085">
        <ele>1438.59554672241</ele>
        <time>2018-09-02T14:28:23Z</time>
      </trkpt>
      <trkpt lat="42.9035489727211" lon="-4.92015805095892">
        <ele>1439.61410140991</ele>
        <time>2018-09-02T14:28:25Z</time>
      </trkpt>
      <trkpt lat="42.9034896707562" lon="-4.92020415142637">
        <ele>1439.45455551147</ele>
        <time>2018-09-02T14:28:27Z</time>
      </trkpt>
      <trkpt lat="42.9034265131158" lon="-4.92023432627779">
        <ele>1440.09395980835</ele>
        <time>2018-09-02T14:28:29Z</time>
      </trkpt>
      <trkpt lat="42.9033581167859" lon="-4.92025989108246">
        <ele>1440.36678695679</ele>
        <time>2018-09-02T14:28:31Z</time>
      </trkpt>
      <trkpt lat="42.9032853199569" lon="-4.9202837795065">
        <ele>1440.31771469116</ele>
        <time>2018-09-02T14:28:33Z</time>
      </trkpt>
      <trkpt lat="42.9032148281512" lon="-4.92030213587444">
        <ele>1438.24728012085</ele>
        <time>2018-09-02T14:28:35Z</time>
      </trkpt>
      <trkpt lat="42.9031415703175" lon="-4.92030825466376">
        <ele>1438.55880355835</ele>
        <time>2018-09-02T14:28:37Z</time>
      </trkpt>
      <trkpt lat="42.9030683963028" lon="-4.92031395435791">
        <ele>1439.38302230835</ele>
        <time>2018-09-02T14:28:39Z</time>
      </trkpt>
      <trkpt lat="42.9029990779635" lon="-4.92032459937494">
        <ele>1441.92208480835</ele>
        <time>2018-09-02T14:28:41Z</time>
      </trkpt>
      <trkpt lat="42.9029311426383" lon="-4.92034949362736">
        <ele>1440.62972640991</ele>
        <time>2018-09-02T14:28:43Z</time>
      </trkpt>
      <trkpt lat="42.9028670629886" lon="-4.92039936595123">
        <ele>1441.41817855835</ele>
        <time>2018-09-02T14:28:45Z</time>
      </trkpt>
      <trkpt lat="42.9028090183091" lon="-4.92046281695824">
        <ele>1442.15548324585</ele>
        <time>2018-09-02T14:28:47Z</time>
      </trkpt>
      <trkpt lat="42.902753111015" lon="-4.92052953690749">
        <ele>1442.70748519897</ele>
        <time>2018-09-02T14:28:49Z</time>
      </trkpt>
      <trkpt lat="42.9026978742731" lon="-4.92060539313119">
        <ele>1441.87923812866</ele>
        <time>2018-09-02T14:28:51Z</time>
      </trkpt>
      <trkpt lat="42.9026563838524" lon="-4.92070388049346">
        <ele>1441.90511703491</ele>
        <time>2018-09-02T14:28:53Z</time>
      </trkpt>
      <trkpt lat="42.9026198806641" lon="-4.92080387659829">
        <ele>1441.96505355835</ele>
        <time>2018-09-02T14:28:55Z</time>
      </trkpt>
      <trkpt lat="42.9025982972634" lon="-4.92086003534954">
        <ele>1441.52291488647</ele>
        <time>2018-09-02T14:28:56Z</time>
      </trkpt>
      <trkpt lat="42.9025726905492" lon="-4.92091686465304">
        <ele>1442.26595687866</ele>
        <time>2018-09-02T14:28:57Z</time>
      </trkpt>
      <trkpt lat="42.9025258357105" lon="-4.92100311443668">
        <ele>1441.09212875366</ele>
        <time>2018-09-02T14:28:59Z</time>
      </trkpt>
      <trkpt lat="42.9024464590875" lon="-4.92102859542232">
        <ele>1440.46371078491</ele>
        <time>2018-09-02T14:29:01Z</time>
      </trkpt>
      <trkpt lat="42.90235794619" lon="-4.92105030455154">
        <ele>1439.99703598022</ele>
        <time>2018-09-02T14:29:03Z</time>
      </trkpt>
      <trkpt lat="42.902280120219" lon="-4.92105826735955">
        <ele>1439.70565414429</ele>
        <time>2018-09-02T14:29:05Z</time>
      </trkpt>
      <trkpt lat="42.9022050602761" lon="-4.92104410194319">
        <ele>1438.59554672241</ele>
        <time>2018-09-02T14:29:07Z</time>
      </trkpt>
      <trkpt lat="42.9021286592287" lon="-4.92103865370613">
        <ele>1438.64657211304</ele>
        <time>2018-09-02T14:29:09Z</time>
      </trkpt>
      <trkpt lat="42.902044924016" lon="-4.9210433475719">
        <ele>1439.05660629272</ele>
        <time>2018-09-02T14:29:11Z</time>
      </trkpt>
      <trkpt lat="42.9019609792558" lon="-4.92106723599594">
        <ele>1436.92342758179</ele>
        <time>2018-09-02T14:29:13Z</time>
      </trkpt>
      <trkpt lat="42.9019185249162" lon="-4.92109229788642">
        <ele>1437.2995262146</ele>
        <time>2018-09-02T14:29:14Z</time>
      </trkpt>
      <trkpt lat="42.901828168" lon="-4.92111300118726">
        <ele>1437.3893699646</ele>
        <time>2018-09-02T14:29:16Z</time>
      </trkpt>
      <trkpt lat="42.901734248775" lon="-4.92113202810746">
        <ele>1438.23458480835</ele>
        <time>2018-09-02T14:29:18Z</time>
      </trkpt>
      <trkpt lat="42.9016530281332" lon="-4.92114937864702">
        <ele>1436.95260238647</ele>
        <time>2018-09-02T14:29:20Z</time>
      </trkpt>
      <trkpt lat="42.9015691252825" lon="-4.92116505280595">
        <ele>1437.66537094116</ele>
        <time>2018-09-02T14:29:22Z</time>
      </trkpt>
      <trkpt lat="42.9014731944007" lon="-4.92116522044402">
        <ele>1438.16878890991</ele>
        <time>2018-09-02T14:29:24Z</time>
      </trkpt>
      <trkpt lat="42.9014239926291" lon="-4.92116429843467">
        <ele>1439.5778465271</ele>
        <time>2018-09-02T14:29:25Z</time>
      </trkpt>
      <trkpt lat="42.9013737850291" lon="-4.92115608416956">
        <ele>1439.84554672241</ele>
        <time>2018-09-02T14:29:26Z</time>
      </trkpt>
      <trkpt lat="42.9013229487863" lon="-4.92114971392315">
        <ele>1439.85824203491</ele>
        <time>2018-09-02T14:29:27Z</time>
      </trkpt>
      <trkpt lat="42.9012343101603" lon="-4.92112741806071">
        <ele>1439.33248519897</ele>
        <time>2018-09-02T14:29:29Z</time>
      </trkpt>
      <trkpt lat="42.9011828452748" lon="-4.92112389766138">
        <ele>1439.08614730835</ele>
        <time>2018-09-02T14:29:30Z</time>
      </trkpt>
      <trkpt lat="42.9011354456124" lon="-4.92113068700295">
        <ele>1438.87020492554</ele>
        <time>2018-09-02T14:29:31Z</time>
      </trkpt>
      <trkpt lat="42.9010889679593" lon="-4.92113973945838">
        <ele>1437.65560531616</ele>
        <time>2018-09-02T14:29:32Z</time>
      </trkpt>
      <trkpt lat="42.9010322224748" lon="-4.92114996538024">
        <ele>1437.0895652771</ele>
        <time>2018-09-02T14:29:33Z</time>
      </trkpt>
      <trkpt lat="42.9009725433243" lon="-4.92115432396989">
        <ele>1437.44051742554</ele>
        <time>2018-09-02T14:29:34Z</time>
      </trkpt>
      <trkpt lat="42.900912403169" lon="-4.92115415633183">
        <ele>1437.2663230896</ele>
        <time>2018-09-02T14:29:35Z</time>
      </trkpt>
      <trkpt lat="42.9008498741713" lon="-4.92116957903367">
        <ele>1436.36446762085</ele>
        <time>2018-09-02T14:29:36Z</time>
      </trkpt>
      <trkpt lat="42.9007811425653" lon="-4.92119128816288">
        <ele>1436.32271957397</ele>
        <time>2018-09-02T14:29:37Z</time>
      </trkpt>
      <trkpt lat="42.9007117404071" lon="-4.92121039890211">
        <ele>1435.84298324585</ele>
        <time>2018-09-02T14:29:38Z</time>
      </trkpt>
      <trkpt lat="42.9006526479897" lon="-4.92121358402532">
        <ele>1436.95394515991</ele>
        <time>2018-09-02T14:29:39Z</time>
      </trkpt>
      <trkpt lat="42.9005891131637" lon="-4.92120419629376">
        <ele>1437.25643539429</ele>
        <time>2018-09-02T14:29:40Z</time>
      </trkpt>
      <trkpt lat="42.9005408753109" lon="-4.9212008435325">
        <ele>1437.05379867554</ele>
        <time>2018-09-02T14:29:41Z</time>
      </trkpt>
      <trkpt lat="42.9004554218081" lon="-4.92123470642131">
        <ele>1438.51107406616</ele>
        <time>2018-09-02T14:29:43Z</time>
      </trkpt>
      <trkpt lat="42.9003895819587" lon="-4.92126999423366">
        <ele>1438.84310531616</ele>
        <time>2018-09-02T14:29:45Z</time>
      </trkpt>
      <trkpt lat="42.9003407573727" lon="-4.9213007558183">
        <ele>1437.44979476929</ele>
        <time>2018-09-02T14:29:55Z</time>
      </trkpt>
      <trkpt lat="42.9003194673386" lon="-4.92136663757723">
        <ele>1436.00497055054</ele>
        <time>2018-09-02T14:30:02Z</time>
      </trkpt>
      <trkpt lat="42.9002904240442" lon="-4.92144718766671">
        <ele>1436.00130844116</ele>
        <time>2018-09-02T14:30:05Z</time>
      </trkpt>
      <trkpt lat="42.9002479277951" lon="-4.92152757011812">
        <ele>1435.08968734741</ele>
        <time>2018-09-02T14:30:07Z</time>
      </trkpt>
      <trkpt lat="42.9001966305477" lon="-4.92160409689408">
        <ele>1434.39583969116</ele>
        <time>2018-09-02T14:30:09Z</time>
      </trkpt>
      <trkpt lat="42.9001457523954" lon="-4.92167442106169">
        <ele>1434.70809555054</ele>
        <time>2018-09-02T14:30:11Z</time>
      </trkpt>
      <trkpt lat="42.9000961315286" lon="-4.92175312713247">
        <ele>1433.38863754272</ele>
        <time>2018-09-02T14:30:13Z</time>
      </trkpt>
      <trkpt lat="42.9000480613139" lon="-4.92183141410809">
        <ele>1435.43746566772</ele>
        <time>2018-09-02T14:30:15Z</time>
      </trkpt>
      <trkpt lat="42.9000022961226" lon="-4.92191154510241">
        <ele>1435.54830551147</ele>
        <time>2018-09-02T14:30:17Z</time>
      </trkpt>
      <trkpt lat="42.899967720772" lon="-4.92199930362862">
        <ele>1435.50252914429</ele>
        <time>2018-09-02T14:30:19Z</time>
      </trkpt>
      <trkpt lat="42.8999383422014" lon="-4.9220917560206">
        <ele>1434.42000961304</ele>
        <time>2018-09-02T14:30:21Z</time>
      </trkpt>
      <trkpt lat="42.8999133222205" lon="-4.92219259031575">
        <ele>1434.50228500366</ele>
        <time>2018-09-02T14:30:23Z</time>
      </trkpt>
      <trkpt lat="42.8998911939961" lon="-4.92229317315381">
        <ele>1435.05526351929</ele>
        <time>2018-09-02T14:30:25Z</time>
      </trkpt>
      <trkpt lat="42.8998719575283" lon="-4.92238847539287">
        <ele>1435.6881980896</ele>
        <time>2018-09-02T14:30:27Z</time>
      </trkpt>
      <trkpt lat="42.8998574149263" lon="-4.92247430608135">
        <ele>1436.66561508179</ele>
        <time>2018-09-02T14:30:29Z</time>
      </trkpt>
      <trkpt lat="42.8998455545333" lon="-4.92255259305697">
        <ele>1436.26217269897</ele>
        <time>2018-09-02T14:30:31Z</time>
      </trkpt>
      <trkpt lat="42.8998336103213" lon="-4.92263129912775">
        <ele>1435.83309555054</ele>
        <time>2018-09-02T14:30:33Z</time>
      </trkpt>
      <trkpt lat="42.8998188162622" lon="-4.9227152019785">
        <ele>1435.74227523804</ele>
        <time>2018-09-02T14:30:35Z</time>
      </trkpt>
      <trkpt lat="42.8997947182906" lon="-4.92280120030504">
        <ele>1436.42794418335</ele>
        <time>2018-09-02T14:30:37Z</time>
      </trkpt>
      <trkpt lat="42.8997615678635" lon="-4.92288845591706">
        <ele>1435.57308578491</ele>
        <time>2018-09-02T14:30:39Z</time>
      </trkpt>
      <trkpt lat="42.8997209994522" lon="-4.92298007011872">
        <ele>1434.79305648804</ele>
        <time>2018-09-02T14:30:41Z</time>
      </trkpt>
      <trkpt lat="42.8996724682328" lon="-4.92306967266362">
        <ele>1435.76986312866</ele>
        <time>2018-09-02T14:30:43Z</time>
      </trkpt>
      <trkpt lat="42.8996158065674" lon="-4.92315944284659">
        <ele>1439.2253074646</ele>
        <time>2018-09-02T14:30:45Z</time>
      </trkpt>
      <trkpt lat="42.8995822789547" lon="-4.9232091475324">
        <ele>1438.45345687866</ele>
        <time>2018-09-02T14:30:46Z</time>
      </trkpt>
      <trkpt lat="42.8995178640288" lon="-4.92329179309767">
        <ele>1438.16402816772</ele>
        <time>2018-09-02T14:30:48Z</time>
      </trkpt>
      <trkpt lat="42.8994762897891" lon="-4.92332196794909">
        <ele>1439.29085922241</ele>
        <time>2018-09-02T14:30:49Z</time>
      </trkpt>
      <trkpt lat="42.8994018165794" lon="-4.92336756550234">
        <ele>1440.30758285522</ele>
        <time>2018-09-02T14:30:51Z</time>
      </trkpt>
      <trkpt lat="42.8993565543023" lon="-4.92338022217613">
        <ele>1440.35335922241</ele>
        <time>2018-09-02T14:30:52Z</time>
      </trkpt>
      <trkpt lat="42.8992812429023" lon="-4.92341525853139">
        <ele>1439.91024398804</ele>
        <time>2018-09-02T14:30:54Z</time>
      </trkpt>
      <trkpt lat="42.8992068535117" lon="-4.92347250693005">
        <ele>1439.0690574646</ele>
        <time>2018-09-02T14:30:56Z</time>
      </trkpt>
      <trkpt lat="42.8991618426916" lon="-4.92351701483589">
        <ele>1438.38375473022</ele>
        <time>2018-09-02T14:30:57Z</time>
      </trkpt>
      <trkpt lat="42.899109874892" lon="-4.92356596515041">
        <ele>1437.60897445679</ele>
        <time>2018-09-02T14:30:58Z</time>
      </trkpt>
      <trkpt lat="42.899064947891" lon="-4.92363310419482">
        <ele>1437.50826644897</ele>
        <time>2018-09-02T14:30:59Z</time>
      </trkpt>
      <trkpt lat="42.8990166681287" lon="-4.92368373088997">
        <ele>1435.81478500366</ele>
        <time>2018-09-02T14:31:00Z</time>
      </trkpt>
      <trkpt lat="42.8989667538953" lon="-4.92373418994706">
        <ele>1434.74178695679</ele>
        <time>2018-09-02T14:31:01Z</time>
      </trkpt>
      <trkpt lat="42.898907829116" lon="-4.92379168980282">
        <ele>1434.29281234741</ele>
        <time>2018-09-02T14:31:02Z</time>
      </trkpt>
      <trkpt lat="42.8988568252352" lon="-4.92384742945891">
        <ele>1434.78182601929</ele>
        <time>2018-09-02T14:31:03Z</time>
      </trkpt>
      <trkpt lat="42.8988222917941" lon="-4.9239015765534">
        <ele>1434.94979476929</ele>
        <time>2018-09-02T14:31:04Z</time>
      </trkpt>
      <trkpt lat="42.8988129040626" lon="-4.92396301590365">
        <ele>1434.8366355896</ele>
        <time>2018-09-02T14:31:05Z</time>
      </trkpt>
      <trkpt lat="42.8988199867708" lon="-4.92402738892001">
        <ele>1433.89364242554</ele>
        <time>2018-09-02T14:31:06Z</time>
      </trkpt>
      <trkpt lat="42.8988456353945" lon="-4.92408388294738">
        <ele>1432.60775375366</ele>
        <time>2018-09-02T14:31:07Z</time>
      </trkpt>
      <trkpt lat="42.8988941247043" lon="-4.92413635366124">
        <ele>1431.67696762085</ele>
        <time>2018-09-02T14:31:08Z</time>
      </trkpt>
      <trkpt lat="42.8989510797364" lon="-4.92414649576407">
        <ele>1430.91939926147</ele>
        <time>2018-09-02T14:31:09Z</time>
      </trkpt>
      <trkpt lat="42.8990134830055" lon="-4.9241418018983">
        <ele>1429.3171043396</ele>
        <time>2018-09-02T14:31:10Z</time>
      </trkpt>
      <trkpt lat="42.8990801610452" lon="-4.9241312407003">
        <ele>1428.27035140991</ele>
        <time>2018-09-02T14:31:11Z</time>
      </trkpt>
      <trkpt lat="42.8991444502425" lon="-4.92414825596374">
        <ele>1426.84603500366</ele>
        <time>2018-09-02T14:31:12Z</time>
      </trkpt>
      <trkpt lat="42.8992017405507" lon="-4.9241967871831">
        <ele>1425.37093734741</ele>
        <time>2018-09-02T14:31:13Z</time>
      </trkpt>
      <trkpt lat="42.8992438596142" lon="-4.92426032200914">
        <ele>1424.1110496521</ele>
        <time>2018-09-02T14:31:14Z</time>
      </trkpt>
      <trkpt lat="42.8992676223096" lon="-4.92432477884453">
        <ele>1423.19552230835</ele>
        <time>2018-09-02T14:31:15Z</time>
      </trkpt>
      <trkpt lat="42.8992701787901" lon="-4.92439158261281">
        <ele>1422.91170883179</ele>
        <time>2018-09-02T14:31:16Z</time>
      </trkpt>
      <trkpt lat="42.8992332565066" lon="-4.92451387458008">
        <ele>1422.5671043396</ele>
        <time>2018-09-02T14:31:18Z</time>
      </trkpt>
      <trkpt lat="42.8991916403574" lon="-4.92456542328459">
        <ele>1420.92147445679</ele>
        <time>2018-09-02T14:31:19Z</time>
      </trkpt>
      <trkpt lat="42.8991368227107" lon="-4.92460791953367">
        <ele>1420.24813461304</ele>
        <time>2018-09-02T14:31:20Z</time>
      </trkpt>
      <trkpt lat="42.8990752576319" lon="-4.92464027367991">
        <ele>1419.39535140991</ele>
        <time>2018-09-02T14:31:21Z</time>
      </trkpt>
      <trkpt lat="42.8990132315484" lon="-4.92466047406655">
        <ele>1418.21126937866</ele>
        <time>2018-09-02T14:31:22Z</time>
      </trkpt>
      <trkpt lat="42.8989602998299" lon="-4.92467748932999">
        <ele>1417.26327133179</ele>
        <time>2018-09-02T14:31:23Z</time>
      </trkpt>
      <trkpt lat="42.8989165462953" lon="-4.92470875382882">
        <ele>1416.62301254272</ele>
        <time>2018-09-02T14:31:24Z</time>
      </trkpt>
      <trkpt lat="42.8988614771915" lon="-4.92474664003116">
        <ele>1416.14986801147</ele>
        <time>2018-09-02T14:31:25Z</time>
      </trkpt>
      <trkpt lat="42.8988057794449" lon="-4.92477279156905">
        <ele>1413.12166976929</ele>
        <time>2018-09-02T14:31:26Z</time>
      </trkpt>
      <trkpt lat="42.8987142909718" lon="-4.92483942769926">
        <ele>1409.2770652771</ele>
        <time>2018-09-02T14:31:28Z</time>
      </trkpt>
      <trkpt lat="42.8986759856743" lon="-4.9248892162041">
        <ele>1408.50997543335</ele>
        <time>2018-09-02T14:31:29Z</time>
      </trkpt>
      <trkpt lat="42.8986926656616" lon="-4.92499072105151">
        <ele>1406.66390609741</ele>
        <time>2018-09-02T14:31:31Z</time>
      </trkpt>
      <trkpt lat="42.8987746825841" lon="-4.92504939437371">
        <ele>1403.57210922241</ele>
        <time>2018-09-02T14:31:33Z</time>
      </trkpt>
      <trkpt lat="42.8988259798315" lon="-4.92508283816737">
        <ele>1403.1110496521</ele>
        <time>2018-09-02T14:31:34Z</time>
      </trkpt>
      <trkpt lat="42.8988815937591" lon="-4.92512173019808">
        <ele>1402.24862289429</ele>
        <time>2018-09-02T14:31:35Z</time>
      </trkpt>
      <trkpt lat="42.898936830501" lon="-4.92516917177003">
        <ele>1401.72970199585</ele>
        <time>2018-09-02T14:31:36Z</time>
      </trkpt>
      <trkpt lat="42.8989891754863" lon="-4.92526539601844">
        <ele>1400.90267562866</ele>
        <time>2018-09-02T14:31:37Z</time>
      </trkpt>
      <trkpt lat="42.899043825495" lon="-4.92535734549623">
        <ele>1401.10970687866</ele>
        <time>2018-09-02T14:31:38Z</time>
      </trkpt>
      <trkpt lat="42.8991124313724" lon="-4.92544401437503">
        <ele>1400.34493637085</ele>
        <time>2018-09-02T14:31:39Z</time>
      </trkpt>
      <trkpt lat="42.8991805762452" lon="-4.92552548647386">
        <ele>1398.48470687866</ele>
        <time>2018-09-02T14:31:40Z</time>
      </trkpt>
      <trkpt lat="42.8992400877577" lon="-4.92559882812661">
        <ele>1397.78402328491</ele>
        <time>2018-09-02T14:31:41Z</time>
      </trkpt>
      <trkpt lat="42.899316153529" lon="-4.92567937821609">
        <ele>1396.69955062866</ele>
        <time>2018-09-02T14:31:42Z</time>
      </trkpt>
      <trkpt lat="42.8993884893534" lon="-4.92575707845849">
        <ele>1396.13973617554</ele>
        <time>2018-09-02T14:31:43Z</time>
      </trkpt>
      <trkpt lat="42.8994410438863" lon="-4.92583880201441">
        <ele>1396.56771469116</ele>
        <time>2018-09-02T14:31:44Z</time>
      </trkpt>
      <trkpt lat="42.8994932212335" lon="-4.92590904236299">
        <ele>1396.92464828491</ele>
        <time>2018-09-02T14:31:45Z</time>
      </trkpt>
      <trkpt lat="42.8995329933641" lon="-4.92597484030288">
        <ele>1397.98556137085</ele>
        <time>2018-09-02T14:31:46Z</time>
      </trkpt>
      <trkpt lat="42.8995722625804" lon="-4.9260480981366">
        <ele>1397.05013656616</ele>
        <time>2018-09-02T14:31:47Z</time>
      </trkpt>
      <trkpt lat="42.8996005095941" lon="-4.92612563074094">
        <ele>1394.90572738647</ele>
        <time>2018-09-02T14:31:48Z</time>
      </trkpt>
      <trkpt lat="42.8996373480585" lon="-4.92625999264878">
        <ele>1392.18465805054</ele>
        <time>2018-09-02T14:31:50Z</time>
      </trkpt>
      <trkpt lat="42.8996736836088" lon="-4.92633928545278">
        <ele>1390.6989402771</ele>
        <time>2018-09-02T14:31:51Z</time>
      </trkpt>
      <trkpt lat="42.8997039422792" lon="-4.92642746307415">
        <ele>1389.89291000366</ele>
        <time>2018-09-02T14:31:52Z</time>
      </trkpt>
      <trkpt lat="42.899752096313" lon="-4.92651237175327">
        <ele>1388.34859848022</ele>
        <time>2018-09-02T14:31:53Z</time>
      </trkpt>
      <trkpt lat="42.8998070396882" lon="-4.9265940953092">
        <ele>1387.72603988647</ele>
        <time>2018-09-02T14:31:54Z</time>
      </trkpt>
      <trkpt lat="42.8998758970228" lon="-4.92668545805377">
        <ele>1386.37459945679</ele>
        <time>2018-09-02T14:31:55Z</time>
      </trkpt>
      <trkpt lat="42.8999407310438" lon="-4.9267801735596">
        <ele>1385.31087875366</ele>
        <time>2018-09-02T14:31:56Z</time>
      </trkpt>
      <trkpt lat="42.8999885078919" lon="-4.92686189711553">
        <ele>1382.74618148804</ele>
        <time>2018-09-02T14:31:57Z</time>
      </trkpt>
      <trkpt lat="42.9000355722782" lon="-4.92694194429082">
        <ele>1380.82674789429</ele>
        <time>2018-09-02T14:31:58Z</time>
      </trkpt>
      <trkpt lat="42.9000948742432" lon="-4.92700707167846">
        <ele>1380.40975570679</ele>
        <time>2018-09-02T14:31:59Z</time>
      </trkpt>
      <trkpt lat="42.9001569422361" lon="-4.92708921432954">
        <ele>1378.50338363647</ele>
        <time>2018-09-02T14:32:00Z</time>
      </trkpt>
      <trkpt lat="42.9002168309343" lon="-4.92717982270282">
        <ele>1378.10433578491</ele>
        <time>2018-09-02T14:32:01Z</time>
      </trkpt>
      <trkpt lat="42.9002649430585" lon="-4.92724620737594">
        <ele>1376.71566390991</ele>
        <time>2018-09-02T14:32:02Z</time>
      </trkpt>
      <trkpt lat="42.9002962913764" lon="-4.92730471306008">
        <ele>1375.92513656616</ele>
        <time>2018-09-02T14:32:03Z</time>
      </trkpt>
      <trkpt lat="42.9003101634261" lon="-4.92737327702802">
        <ele>1373.96993637085</ele>
        <time>2018-09-02T14:32:04Z</time>
      </trkpt>
      <trkpt lat="42.9003205150765" lon="-4.92743991315824">
        <ele>1373.63558578491</ele>
        <time>2018-09-02T14:32:05Z</time>
      </trkpt>
      <trkpt lat="42.9003287293416" lon="-4.92751317099196">
        <ele>1373.88973617554</ele>
        <time>2018-09-02T14:32:06Z</time>
      </trkpt>
      <trkpt lat="42.9003431462151" lon="-4.92757779546541">
        <ele>1373.43746566772</ele>
        <time>2018-09-02T14:32:07Z</time>
      </trkpt>
      <trkpt lat="42.9003713932288" lon="-4.92764124647242">
        <ele>1372.92342758179</ele>
        <time>2018-09-02T14:32:08Z</time>
      </trkpt>
      <trkpt lat="42.9004128836495" lon="-4.92772297002834">
        <ele>1372.26021957397</ele>
        <time>2018-09-02T14:32:09Z</time>
      </trkpt>
      <trkpt lat="42.9004449863386" lon="-4.92784366943401">
        <ele>1368.13558578491</ele>
        <time>2018-09-02T14:32:10Z</time>
      </trkpt>
      <trkpt lat="42.9004981695143" lon="-4.92794693448108">
        <ele>1366.8649559021</ele>
        <time>2018-09-02T14:32:11Z</time>
      </trkpt>
      <trkpt lat="42.9005559208271" lon="-4.92805883288842">
        <ele>1366.15951156616</ele>
        <time>2018-09-02T14:32:12Z</time>
      </trkpt>
      <trkpt lat="42.9005961120528" lon="-4.92818749510211">
        <ele>1364.65438461304</ele>
        <time>2018-09-02T14:32:13Z</time>
      </trkpt>
      <trkpt lat="42.9006426316154" lon="-4.92832831107539">
        <ele>1363.17989730835</ele>
        <time>2018-09-02T14:32:14Z</time>
      </trkpt>
      <trkpt lat="42.9006610718024" lon="-4.92846569046837">
        <ele>1362.02572250366</ele>
        <time>2018-09-02T14:32:15Z</time>
      </trkpt>
      <trkpt lat="42.900693132582" lon="-4.92859502323431">
        <ele>1360.98861312866</ele>
        <time>2018-09-02T14:32:16Z</time>
      </trkpt>
      <trkpt lat="42.9007074656365" lon="-4.92872276343864">
        <ele>1360.34518051147</ele>
        <time>2018-09-02T14:32:17Z</time>
      </trkpt>
      <trkpt lat="42.9007231817049" lon="-4.92883197963697">
        <ele>1359.37325668335</ele>
        <time>2018-09-02T14:32:18Z</time>
      </trkpt>
      <trkpt lat="42.9007862555263" lon="-4.92894991301459">
        <ele>1358.3835105896</ele>
        <time>2018-09-02T14:32:19Z</time>
      </trkpt>
      <trkpt lat="42.9008243512762" lon="-4.92908720858854">
        <ele>1357.52389144897</ele>
        <time>2018-09-02T14:32:20Z</time>
      </trkpt>
      <trkpt lat="42.9008498322618" lon="-4.92921830155414">
        <ele>1357.29671859741</ele>
        <time>2018-09-02T14:32:21Z</time>
      </trkpt>
      <trkpt lat="42.9008740140525" lon="-4.92939113639754">
        <ele>1357.46480941772</ele>
        <time>2018-09-02T14:32:22Z</time>
      </trkpt>
      <trkpt lat="42.9009047337276" lon="-4.92953899316949">
        <ele>1356.28158187866</ele>
        <time>2018-09-02T14:32:23Z</time>
      </trkpt>
      <trkpt lat="42.900938973802" lon="-4.9296505563007">
        <ele>1356.9831199646</ele>
        <time>2018-09-02T14:32:24Z</time>
      </trkpt>
      <trkpt lat="42.9009436257583" lon="-4.92978667840821">
        <ele>1358.62887191772</ele>
        <time>2018-09-02T14:32:25Z</time>
      </trkpt>
      <trkpt lat="42.9009700706628" lon="-4.92986211553675">
        <ele>1358.21444320679</ele>
        <time>2018-09-02T14:32:26Z</time>
      </trkpt>
      <trkpt lat="42.9010144947496" lon="-4.92994710803491">
        <ele>1359.28219223022</ele>
        <time>2018-09-02T14:32:27Z</time>
      </trkpt>
      <trkpt lat="42.9010676779252" lon="-4.93001458235544">
        <ele>1358.80257797241</ele>
        <time>2018-09-02T14:32:28Z</time>
      </trkpt>
      <trkpt lat="42.9011095036221" lon="-4.93011323735577">
        <ele>1356.63033676147</ele>
        <time>2018-09-02T14:32:29Z</time>
      </trkpt>
      <trkpt lat="42.9011681769443" lon="-4.93019747548264">
        <ele>1354.16659164429</ele>
        <time>2018-09-02T14:32:30Z</time>
      </trkpt>
      <trkpt lat="42.9012393812117" lon="-4.93026972748798">
        <ele>1352.43209457397</ele>
        <time>2018-09-02T14:32:31Z</time>
      </trkpt>
      <trkpt lat="42.9012927320254" lon="-4.93033192120952">
        <ele>1352.69613265991</ele>
        <time>2018-09-02T14:32:32Z</time>
      </trkpt>
      <trkpt lat="42.9013535846424" lon="-4.93043225259048">
        <ele>1350.50374984741</ele>
        <time>2018-09-02T14:32:33Z</time>
      </trkpt>
      <trkpt lat="42.9013864417029" lon="-4.93051590398413">
        <ele>1349.16683578491</ele>
        <time>2018-09-02T14:32:34Z</time>
      </trkpt>
      <trkpt lat="42.9014130123359" lon="-4.93060483597678">
        <ele>1348.0290184021</ele>
        <time>2018-09-02T14:32:35Z</time>
      </trkpt>
      <trkpt lat="42.9014314106134" lon="-4.93069292977911">
        <ele>1346.26510238647</ele>
        <time>2018-09-02T14:32:36Z</time>
      </trkpt>
      <trkpt lat="42.9014349310127" lon="-4.9307750724302">
        <ele>1344.39193344116</ele>
        <time>2018-09-02T14:32:37Z</time>
      </trkpt>
      <trkpt lat="42.9014268005666" lon="-4.93085713126225">
        <ele>1342.90572738647</ele>
        <time>2018-09-02T14:32:38Z</time>
      </trkpt>
      <trkpt lat="42.9014286026758" lon="-4.93093223311466">
        <ele>1341.6374168396</ele>
        <time>2018-09-02T14:32:39Z</time>
      </trkpt>
      <trkpt lat="42.9014253756431" lon="-4.93103323504788">
        <ele>1340.90047836304</ele>
        <time>2018-09-02T14:32:41Z</time>
      </trkpt>
      <trkpt lat="42.9014120903266" lon="-4.93113365024787">
        <ele>1339.62508773804</ele>
        <time>2018-09-02T14:32:43Z</time>
      </trkpt>
      <trkpt lat="42.9013808258277" lon="-4.93121872656507">
        <ele>1338.64681625366</ele>
        <time>2018-09-02T14:32:45Z</time>
      </trkpt>
      <trkpt lat="42.9013575660464" lon="-4.93127195165021">
        <ele>1336.07833480835</ele>
        <time>2018-09-02T14:32:46Z</time>
      </trkpt>
      <trkpt lat="42.9013129743216" lon="-4.93135199882549">
        <ele>1334.00582504272</ele>
        <time>2018-09-02T14:32:48Z</time>
      </trkpt>
      <trkpt lat="42.9013092443747" lon="-4.93142735213501">
        <ele>1331.12166976929</ele>
        <time>2018-09-02T14:32:50Z</time>
      </trkpt>
      <trkpt lat="42.9013410117877" lon="-4.93147873320145">
        <ele>1330.33895492554</ele>
        <time>2018-09-02T14:32:52Z</time>
      </trkpt>
      <trkpt lat="42.901401235762" lon="-4.93151024915737">
        <ele>1327.63460922241</ele>
        <time>2018-09-02T14:32:54Z</time>
      </trkpt>
      <trkpt lat="42.9014656925973" lon="-4.93149289861781">
        <ele>1327.09420394897</ele>
        <time>2018-09-02T14:32:55Z</time>
      </trkpt>
      <trkpt lat="42.9015615815696" lon="-4.93154469877941">
        <ele>1322.0612449646</ele>
        <time>2018-09-02T14:32:57Z</time>
      </trkpt>
      <trkpt lat="42.9016310675469" lon="-4.9316089041577">
        <ele>1321.82821273804</ele>
        <time>2018-09-02T14:32:58Z</time>
      </trkpt>
      <trkpt lat="42.9017117852745" lon="-4.93167009205085">
        <ele>1321.05807113647</ele>
        <time>2018-09-02T14:32:59Z</time>
      </trkpt>
      <trkpt lat="42.9017873900411" lon="-4.93174016476137">
        <ele>1322.85238265991</ele>
        <time>2018-09-02T14:33:00Z</time>
      </trkpt>
      <trkpt lat="42.9018647130978" lon="-4.93180571124417">
        <ele>1322.9997215271</ele>
        <time>2018-09-02T14:33:01Z</time>
      </trkpt>
      <trkpt lat="42.9019300919426" lon="-4.93186555803281">
        <ele>1323.4694480896</ele>
        <time>2018-09-02T14:33:02Z</time>
      </trkpt>
      <trkpt lat="42.9019923694831" lon="-4.93193504401011">
        <ele>1322.43868637085</ele>
        <time>2018-09-02T14:33:03Z</time>
      </trkpt>
      <trkpt lat="42.9020538926524" lon="-4.93200846948189">
        <ele>1322.46786117554</ele>
        <time>2018-09-02T14:33:04Z</time>
      </trkpt>
      <trkpt lat="42.9021022562337" lon="-4.93208457716269">
        <ele>1323.3922996521</ele>
        <time>2018-09-02T14:33:05Z</time>
      </trkpt>
      <trkpt lat="42.9021442914781" lon="-4.93217107840342">
        <ele>1321.26095199585</ele>
        <time>2018-09-02T14:33:06Z</time>
      </trkpt>
      <trkpt lat="42.9021911044073" lon="-4.93226017803413">
        <ele>1321.36129379272</ele>
        <time>2018-09-02T14:33:07Z</time>
      </trkpt>
      <trkpt lat="42.9022262245816" lon="-4.9323481041984">
        <ele>1320.17281723022</ele>
        <time>2018-09-02T14:33:08Z</time>
      </trkpt>
      <trkpt lat="42.9022478498918" lon="-4.93244198151392">
        <ele>1319.87923812866</ele>
        <time>2018-09-02T14:33:09Z</time>
      </trkpt>
      <trkpt lat="42.9022651166123" lon="-4.93253376335365">
        <ele>1318.17806625366</ele>
        <time>2018-09-02T14:33:10Z</time>
      </trkpt>
      <trkpt lat="42.9022916034264" lon="-4.93261188269121">
        <ele>1317.74374008179</ele>
        <time>2018-09-02T14:33:11Z</time>
      </trkpt>
      <trkpt lat="42.9023056431142" lon="-4.93269209750456">
        <ele>1318.8376121521</ele>
        <time>2018-09-02T14:33:12Z</time>
      </trkpt>
      <trkpt lat="42.9023335129422" lon="-4.93275429122609">
        <ele>1318.33602523804</ele>
        <time>2018-09-02T14:33:13Z</time>
      </trkpt>
      <trkpt lat="42.9023371590701" lon="-4.93287658319337">
        <ele>1315.17220687866</ele>
        <time>2018-09-02T14:33:15Z</time>
      </trkpt>
      <trkpt lat="42.9023293219906" lon="-4.9329472426371">
        <ele>1314.80514144897</ele>
        <time>2018-09-02T14:33:16Z</time>
      </trkpt>
      <trkpt lat="42.9023229098347" lon="-4.93300926872057">
        <ele>1315.55111312866</ele>
        <time>2018-09-02T14:33:17Z</time>
      </trkpt>
      <trkpt lat="42.9023198923496" lon="-4.93307657540304">
        <ele>1314.65389633179</ele>
        <time>2018-09-02T14:33:18Z</time>
      </trkpt>
      <trkpt lat="42.9023117619035" lon="-4.93314673193259">
        <ele>1314.34310531616</ele>
        <time>2018-09-02T14:33:19Z</time>
      </trkpt>
      <trkpt lat="42.9023039667335" lon="-4.93321194313926">
        <ele>1314.67574691772</ele>
        <time>2018-09-02T14:33:20Z</time>
      </trkpt>
      <trkpt lat="42.902304008643" lon="-4.93328193203074">
        <ele>1314.52877426147</ele>
        <time>2018-09-02T14:33:21Z</time>
      </trkpt>
      <trkpt lat="42.9023108818037" lon="-4.93338318542105">
        <ele>1314.10543441772</ele>
        <time>2018-09-02T14:33:22Z</time>
      </trkpt>
      <trkpt lat="42.9023062298474" lon="-4.93349273689551">
        <ele>1313.43270492554</ele>
        <time>2018-09-02T14:33:23Z</time>
      </trkpt>
      <trkpt lat="42.9023090796945" lon="-4.93359541520936">
        <ele>1313.14791488647</ele>
        <time>2018-09-02T14:33:24Z</time>
      </trkpt>
      <trkpt lat="42.9022461316017" lon="-4.93371695280535">
        <ele>1309.16842269897</ele>
        <time>2018-09-02T14:33:25Z</time>
      </trkpt>
      <trkpt lat="42.9022220755395" lon="-4.93385533802671">
        <ele>1308.83089828491</ele>
        <time>2018-09-02T14:33:26Z</time>
      </trkpt>
      <trkpt lat="42.9022398032648" lon="-4.93396564387244">
        <ele>1307.71090316772</ele>
        <time>2018-09-02T14:33:27Z</time>
      </trkpt>
      <trkpt lat="42.9022426531118" lon="-4.93408877403004">
        <ele>1306.8024559021</ele>
        <time>2018-09-02T14:33:28Z</time>
      </trkpt>
      <trkpt lat="42.902246969792" lon="-4.93420955725474">
        <ele>1306.52755355835</ele>
        <time>2018-09-02T14:33:29Z</time>
      </trkpt>
      <trkpt lat="42.9022622248557" lon="-4.93433981203002">
        <ele>1306.56380844116</ele>
        <time>2018-09-02T14:33:30Z</time>
      </trkpt>
      <trkpt lat="42.9022848559943" lon="-4.93446948007209">
        <ele>1307.58651351929</ele>
        <time>2018-09-02T14:33:31Z</time>
      </trkpt>
      <trkpt lat="42.902289298403" lon="-4.93461733684403">
        <ele>1307.23739242554</ele>
        <time>2018-09-02T14:33:32Z</time>
      </trkpt>
      <trkpt lat="42.9023352312324" lon="-4.93473426439328">
        <ele>1308.00765609741</ele>
        <time>2018-09-02T14:33:33Z</time>
      </trkpt>
      <trkpt lat="42.9023390449983" lon="-4.93487290107173">
        <ele>1307.46786117554</ele>
        <time>2018-09-02T14:33:34Z</time>
      </trkpt>
      <trkpt lat="42.9023584491041" lon="-4.93499720469577">
        <ele>1308.99239730835</ele>
        <time>2018-09-02T14:33:35Z</time>
      </trkpt>
      <trkpt lat="42.9023019550768" lon="-4.93516702205402">
        <ele>1304.80489730835</ele>
        <time>2018-09-02T14:33:36Z</time>
      </trkpt>
      <trkpt lat="42.9022921901596" lon="-4.93530783802731">
        <ele>1306.13619613647</ele>
        <time>2018-09-02T14:33:37Z</time>
      </trkpt>
      <trkpt lat="42.902327561791" lon="-4.93542334065301">
        <ele>1302.47103500366</ele>
        <time>2018-09-02T14:33:38Z</time>
      </trkpt>
      <trkpt lat="42.9022938665402" lon="-4.93554404005868">
        <ele>1302.07455062866</ele>
        <time>2018-09-02T14:33:39Z</time>
      </trkpt>
      <trkpt lat="42.9022469278825" lon="-4.93565677665634">
        <ele>1301.06844711304</ele>
        <time>2018-09-02T14:33:40Z</time>
      </trkpt>
      <trkpt lat="42.9022294935239" lon="-4.93578979745967">
        <ele>1302.76229476929</ele>
        <time>2018-09-02T14:33:41Z</time>
      </trkpt>
      <trkpt lat="42.9022270627719" lon="-4.93592189625365">
        <ele>1303.51571273804</ele>
        <time>2018-09-02T14:33:42Z</time>
      </trkpt>
      <trkpt lat="42.9022255959389" lon="-4.93604150601191">
        <ele>1301.52694320679</ele>
        <time>2018-09-02T14:33:43Z</time>
      </trkpt>
      <trkpt lat="42.9022178426784" lon="-4.93612867780489">
        <ele>1299.6794090271</ele>
        <time>2018-09-02T14:33:44Z</time>
      </trkpt>
      <trkpt lat="42.9022452934113" lon="-4.93620411493344">
        <ele>1297.6012840271</ele>
        <time>2018-09-02T14:33:45Z</time>
      </trkpt>
      <trkpt lat="42.9022605484751" lon="-4.93627871387167">
        <ele>1297.36166000366</ele>
        <time>2018-09-02T14:33:46Z</time>
      </trkpt>
      <trkpt lat="42.9022464668778" lon="-4.93636580184562">
        <ele>1296.37887191772</ele>
        <time>2018-09-02T14:33:47Z</time>
      </trkpt>
      <trkpt lat="42.90222723041" lon="-4.93645423092408">
        <ele>1294.72030258179</ele>
        <time>2018-09-02T14:33:48Z</time>
      </trkpt>
      <trkpt lat="42.9022037191716" lon="-4.93655565195245">
        <ele>1292.06185531616</ele>
        <time>2018-09-02T14:33:49Z</time>
      </trkpt>
      <trkpt lat="42.9021738795963" lon="-4.93665732443792">
        <ele>1290.65145492554</ele>
        <time>2018-09-02T14:33:50Z</time>
      </trkpt>
      <trkpt lat="42.902155816595" lon="-4.93675782345695">
        <ele>1287.40487289429</ele>
        <time>2018-09-02T14:33:51Z</time>
      </trkpt>
      <trkpt lat="42.9021494463486" lon="-4.93683879264159">
        <ele>1286.35787582397</ele>
        <time>2018-09-02T14:33:52Z</time>
      </trkpt>
      <trkpt lat="42.9021360353035" lon="-4.93694180623157">
        <ele>1286.81197738647</ele>
        <time>2018-09-02T14:33:53Z</time>
      </trkpt>
      <trkpt lat="42.9021184752163" lon="-4.93706309237046">
        <ele>1283.34579086304</ele>
        <time>2018-09-02T14:33:54Z</time>
      </trkpt>
      <trkpt lat="42.9021002026674" lon="-4.93718974292738">
        <ele>1281.67525863647</ele>
        <time>2018-09-02T14:33:55Z</time>
      </trkpt>
      <trkpt lat="42.9020556947616" lon="-4.93731220253272">
        <ele>1281.3786277771</ele>
        <time>2018-09-02T14:33:56Z</time>
      </trkpt>
      <trkpt lat="42.9020155873549" lon="-4.93743876927061">
        <ele>1280.12191390991</ele>
        <time>2018-09-02T14:33:57Z</time>
      </trkpt>
      <trkpt lat="42.9019794194427" lon="-4.93756365962786">
        <ele>1277.95992660522</ele>
        <time>2018-09-02T14:33:58Z</time>
      </trkpt>
      <trkpt lat="42.9019401921359" lon="-4.93769089691801">
        <ele>1275.89449691772</ele>
        <time>2018-09-02T14:33:59Z</time>
      </trkpt>
      <trkpt lat="42.9018958937776" lon="-4.93782919832034">
        <ele>1274.51766586304</ele>
        <time>2018-09-02T14:34:00Z</time>
      </trkpt>
      <trkpt lat="42.9018627852601" lon="-4.93797336705489">
        <ele>1273.32442855835</ele>
        <time>2018-09-02T14:34:01Z</time>
      </trkpt>
      <trkpt lat="42.9018402798501" lon="-4.93813413195772">
        <ele>1271.57833480835</ele>
        <time>2018-09-02T14:34:02Z</time>
      </trkpt>
      <trkpt lat="42.9018115299222" lon="-4.93828928098542">
        <ele>1271.77828598022</ele>
        <time>2018-09-02T14:34:03Z</time>
      </trkpt>
      <trkpt lat="42.9017871804935" lon="-4.93844040669961">
        <ele>1270.12044906616</ele>
        <time>2018-09-02T14:34:04Z</time>
      </trkpt>
      <trkpt lat="42.9017561255422" lon="-4.93859522045119">
        <ele>1269.16854476929</ele>
        <time>2018-09-02T14:34:05Z</time>
      </trkpt>
      <trkpt lat="42.9017299320948" lon="-4.93874768726988">
        <ele>1267.67416000366</ele>
        <time>2018-09-02T14:34:06Z</time>
      </trkpt>
      <trkpt lat="42.9016880644885" lon="-4.93888003752096">
        <ele>1265.50728988647</ele>
        <time>2018-09-02T14:34:07Z</time>
      </trkpt>
      <trkpt lat="42.9016718035963" lon="-4.93903166614933">
        <ele>1264.09676742554</ele>
        <time>2018-09-02T14:34:08Z</time>
      </trkpt>
      <trkpt lat="42.901661619584" lon="-4.93918128312094">
        <ele>1263.0456199646</ele>
        <time>2018-09-02T14:34:09Z</time>
      </trkpt>
      <trkpt lat="42.9016583087322" lon="-4.93933131918771">
        <ele>1262.44662094116</ele>
        <time>2018-09-02T14:34:10Z</time>
      </trkpt>
      <trkpt lat="42.9016666487259" lon="-4.93947515264613">
        <ele>1261.18612289429</ele>
        <time>2018-09-02T14:34:11Z</time>
      </trkpt>
      <trkpt lat="42.9016718035963" lon="-4.93962627836032">
        <ele>1261.23238754272</ele>
        <time>2018-09-02T14:34:12Z</time>
      </trkpt>
      <trkpt lat="42.901674862991" lon="-4.93977296166582">
        <ele>1260.25643539429</ele>
        <time>2018-09-02T14:34:13Z</time>
      </trkpt>
      <trkpt lat="42.9016743181673" lon="-4.93992190808518">
        <ele>1259.60702133179</ele>
        <time>2018-09-02T14:34:14Z</time>
      </trkpt>
      <trkpt lat="42.9016644694311" lon="-4.94006037712557">
        <ele>1258.49264144897</ele>
        <time>2018-09-02T14:34:15Z</time>
      </trkpt>
      <trkpt lat="42.9016414191973" lon="-4.94019700214727">
        <ele>1256.75436019897</ele>
        <time>2018-09-02T14:34:16Z</time>
      </trkpt>
      <trkpt lat="42.9016188299683" lon="-4.94032725692255">
        <ele>1255.4001121521</ele>
        <time>2018-09-02T14:34:17Z</time>
      </trkpt>
      <trkpt lat="42.9015895771262" lon="-4.94045533240302">
        <ele>1253.90548324585</ele>
        <time>2018-09-02T14:34:18Z</time>
      </trkpt>
      <trkpt lat="42.9015563009706" lon="-4.94057770818932">
        <ele>1252.98482894897</ele>
        <time>2018-09-02T14:34:19Z</time>
      </trkpt>
      <trkpt lat="42.901519043411" lon="-4.94070352055592">
        <ele>1251.94466781616</ele>
        <time>2018-09-02T14:34:20Z</time>
      </trkpt>
      <trkpt lat="42.9014768405286" lon="-4.9408324342267">
        <ele>1250.51791000366</ele>
        <time>2018-09-02T14:34:21Z</time>
      </trkpt>
      <trkpt lat="42.9014353081984" lon="-4.94096386246843">
        <ele>1248.42184066772</ele>
        <time>2018-09-02T14:34:22Z</time>
      </trkpt>
      <trkpt lat="42.9013904650164" lon="-4.9411035887943">
        <ele>1246.45602035522</ele>
        <time>2018-09-02T14:34:23Z</time>
      </trkpt>
      <trkpt lat="42.9013499385145" lon="-4.9412351846741">
        <ele>1245.55331039429</ele>
        <time>2018-09-02T14:34:24Z</time>
      </trkpt>
      <trkpt lat="42.9013085738224" lon="-4.94136149995489">
        <ele>1244.08211898804</ele>
        <time>2018-09-02T14:34:25Z</time>
      </trkpt>
      <trkpt lat="42.9012695979727" lon="-4.9414957780437">
        <ele>1242.3669090271</ele>
        <time>2018-09-02T14:34:26Z</time>
      </trkpt>
      <trkpt lat="42.9012356931743" lon="-4.94163441472216">
        <ele>1241.35848617554</ele>
        <time>2018-09-02T14:34:27Z</time>
      </trkpt>
      <trkpt lat="42.9012045963136" lon="-4.94175695814653">
        <ele>1239.78719711304</ele>
        <time>2018-09-02T14:34:28Z</time>
      </trkpt>
      <trkpt lat="42.9011760140237" lon="-4.94187430479093">
        <ele>1238.68563461304</ele>
        <time>2018-09-02T14:34:29Z</time>
      </trkpt>
      <trkpt lat="42.9011508264047" lon="-4.94200095534785">
        <ele>1235.14889144897</ele>
        <time>2018-09-02T14:34:30Z</time>
      </trkpt>
      <trkpt lat="42.9011294525516" lon="-4.94213028811379">
        <ele>1232.63167953491</ele>
        <time>2018-09-02T14:34:31Z</time>
      </trkpt>
      <trkpt lat="42.9011123953787" lon="-4.94226900861127">
        <ele>1229.86617660522</ele>
        <time>2018-09-02T14:34:32Z</time>
      </trkpt>
      <trkpt lat="42.9011041811136" lon="-4.94239599444432">
        <ele>1227.13473129272</ele>
        <time>2018-09-02T14:34:33Z</time>
      </trkpt>
      <trkpt lat="42.9011025466424" lon="-4.94251912460191">
        <ele>1224.96920394897</ele>
        <time>2018-09-02T14:34:34Z</time>
      </trkpt>
      <trkpt lat="42.9011054803086" lon="-4.9426253233151">
        <ele>1223.08236312866</ele>
        <time>2018-09-02T14:34:35Z</time>
      </trkpt>
      <trkpt lat="42.9011061927703" lon="-4.942720206459">
        <ele>1221.15584945679</ele>
        <time>2018-09-02T14:34:36Z</time>
      </trkpt>
      <trkpt lat="42.9011220764768" lon="-4.94280218147202">
        <ele>1219.49569320679</ele>
        <time>2018-09-02T14:34:37Z</time>
      </trkpt>
      <trkpt lat="42.9011457134438" lon="-4.9428719189064">
        <ele>1218.32174301147</ele>
        <time>2018-09-02T14:34:38Z</time>
      </trkpt>
      <trkpt lat="42.9011875810501" lon="-4.94293008931442">
        <ele>1217.31429672241</ele>
        <time>2018-09-02T14:34:39Z</time>
      </trkpt>
      <trkpt lat="42.9012481403005" lon="-4.94294702075882">
        <ele>1215.88302230835</ele>
        <time>2018-09-02T14:34:40Z</time>
      </trkpt>
      <trkpt lat="42.9013175005493" lon="-4.94295523502393">
        <ele>1214.69674301147</ele>
        <time>2018-09-02T14:34:41Z</time>
      </trkpt>
      <trkpt lat="42.9013872798932" lon="-4.94294098578854">
        <ele>1212.93270492554</ele>
        <time>2018-09-02T14:34:42Z</time>
      </trkpt>
      <trkpt lat="42.9014599929032" lon="-4.9429551512049">
        <ele>1211.47188949585</ele>
        <time>2018-09-02T14:34:43Z</time>
      </trkpt>
      <trkpt lat="42.9015157744688" lon="-4.94299462996884">
        <ele>1210.13961410522</ele>
        <time>2018-09-02T14:34:44Z</time>
      </trkpt>
      <trkpt lat="42.9015620006648" lon="-4.94303955696984">
        <ele>1209.19613265991</ele>
        <time>2018-09-02T14:34:45Z</time>
      </trkpt>
      <trkpt lat="42.9015959473726" lon="-4.94308666326566">
        <ele>1208.81075668335</ele>
        <time>2018-09-02T14:34:46Z</time>
      </trkpt>
      <trkpt lat="42.9015765851763" lon="-4.94320937432809">
        <ele>1208.35641098022</ele>
        <time>2018-09-02T14:34:47Z</time>
      </trkpt>
      <trkpt lat="42.901573232415" lon="-4.94330132380588">
        <ele>1207.87447738647</ele>
        <time>2018-09-02T14:34:48Z</time>
      </trkpt>
      <trkpt lat="42.9015619587553" lon="-4.94339738041623">
        <ele>1206.0358543396</ele>
        <time>2018-09-02T14:34:49Z</time>
      </trkpt>
      <trkpt lat="42.901538866612" lon="-4.94350106455846">
        <ele>1204.46773910522</ele>
        <time>2018-09-02T14:34:50Z</time>
      </trkpt>
      <trkpt lat="42.9015193786872" lon="-4.94361262768967">
        <ele>1202.48006820679</ele>
        <time>2018-09-02T14:34:51Z</time>
      </trkpt>
      <trkpt lat="42.9014958674488" lon="-4.94370759465261">
        <ele>1201.59676742554</ele>
        <time>2018-09-02T14:34:52Z</time>
      </trkpt>
      <trkpt lat="42.9014669498828" lon="-4.94380046613975">
        <ele>1199.79403305054</ele>
        <time>2018-09-02T14:34:53Z</time>
      </trkpt>
      <trkpt lat="42.9014353501079" lon="-4.94388545863791">
        <ele>1198.27486801147</ele>
        <time>2018-09-02T14:34:54Z</time>
      </trkpt>
      <trkpt lat="42.9013928538588" lon="-4.94396156631871">
        <ele>1196.04281234741</ele>
        <time>2018-09-02T14:34:55Z</time>
      </trkpt>
      <trkpt lat="42.9013226135102" lon="-4.9440188985364">
        <ele>1195.00411605835</ele>
        <time>2018-09-02T14:34:56Z</time>
      </trkpt>
      <trkpt lat="42.9012464220104" lon="-4.94406793266995">
        <ele>1193.33590316772</ele>
        <time>2018-09-02T14:34:57Z</time>
      </trkpt>
      <trkpt lat="42.9011711944294" lon="-4.9441224988596">
        <ele>1193.3981590271</ele>
        <time>2018-09-02T14:34:58Z</time>
      </trkpt>
      <trkpt lat="42.9010931170014" lon="-4.94421595707996">
        <ele>1193.05367660522</ele>
        <time>2018-09-02T14:34:59Z</time>
      </trkpt>
      <trkpt lat="42.9010626068738" lon="-4.94430430233939">
        <ele>1193.12923812866</ele>
        <time>2018-09-02T14:35:00Z</time>
      </trkpt>
      <trkpt lat="42.9010346532268" lon="-4.94442382827862">
        <ele>1192.62813949585</ele>
        <time>2018-09-02T14:35:01Z</time>
      </trkpt>
      <trkpt lat="42.9010067414892" lon="-4.94454947300716">
        <ele>1192.1227684021</ele>
        <time>2018-09-02T14:35:02Z</time>
      </trkpt>
      <trkpt lat="42.9009818891463" lon="-4.94467847049697">
        <ele>1190.46493148804</ele>
        <time>2018-09-02T14:35:03Z</time>
      </trkpt>
      <trkpt lat="42.9009569529844" lon="-4.94480797090097">
        <ele>1189.25606918335</ele>
        <time>2018-09-02T14:35:04Z</time>
      </trkpt>
      <trkpt lat="42.9009509599236" lon="-4.94492942467792">
        <ele>1187.26363754272</ele>
        <time>2018-09-02T14:35:05Z</time>
      </trkpt>
      <trkpt lat="42.900956030975" lon="-4.94504132308526">
        <ele>1185.25313949585</ele>
        <time>2018-09-02T14:35:06Z</time>
      </trkpt>
      <trkpt lat="42.9009733396051" lon="-4.94514576159878">
        <ele>1182.79964828491</ele>
        <time>2018-09-02T14:35:07Z</time>
      </trkpt>
      <trkpt lat="42.9010058613894" lon="-4.94526176713868">
        <ele>1183.01815414429</ele>
        <time>2018-09-02T14:35:08Z</time>
      </trkpt>
      <trkpt lat="42.9010519618568" lon="-4.9453746713744">
        <ele>1181.07430648804</ele>
        <time>2018-09-02T14:35:09Z</time>
      </trkpt>
      <trkpt lat="42.901098858605" lon="-4.94549562223716">
        <ele>1179.16744613647</ele>
        <time>2018-09-02T14:35:10Z</time>
      </trkpt>
      <trkpt lat="42.9011481441957" lon="-4.94561875239475">
        <ele>1177.79427719116</ele>
        <time>2018-09-02T14:35:11Z</time>
      </trkpt>
      <trkpt lat="42.9011871200454" lon="-4.94573903270526">
        <ele>1175.93709945679</ele>
        <time>2018-09-02T14:35:12Z</time>
      </trkpt>
      <trkpt lat="42.901220228563" lon="-4.94586593471928">
        <ele>1173.8737449646</ele>
        <time>2018-09-02T14:35:13Z</time>
      </trkpt>
      <trkpt lat="42.9012529179853" lon="-4.94600725360675">
        <ele>1172.78231430054</ele>
        <time>2018-09-02T14:35:14Z</time>
      </trkpt>
      <trkpt lat="42.9012895049927" lon="-4.94614547119005">
        <ele>1171.01803207397</ele>
        <time>2018-09-02T14:35:15Z</time>
      </trkpt>
      <trkpt lat="42.9013222782341" lon="-4.94629609399004">
        <ele>1170.06283187866</ele>
        <time>2018-09-02T14:35:16Z</time>
      </trkpt>
      <trkpt lat="42.9013462923867" lon="-4.94644772261842">
        <ele>1169.34273910522</ele>
        <time>2018-09-02T14:35:17Z</time>
      </trkpt>
      <trkpt lat="42.9013739945767" lon="-4.94660622440739">
        <ele>1168.99105453491</ele>
        <time>2018-09-02T14:35:18Z</time>
      </trkpt>
      <trkpt lat="42.9014062229943" lon="-4.94675785303577">
        <ele>1168.23641586304</ele>
        <time>2018-09-02T14:35:19Z</time>
      </trkpt>
      <trkpt lat="42.90143430237" lon="-4.9469030275987">
        <ele>1167.06844711304</ele>
        <time>2018-09-02T14:35:20Z</time>
      </trkpt>
      <trkpt lat="42.9014669079733" lon="-4.94705851190253">
        <ele>1166.06759262085</ele>
        <time>2018-09-02T14:35:21Z</time>
      </trkpt>
      <trkpt lat="42.9015059676421" lon="-4.94721022434993">
        <ele>1164.60592269897</ele>
        <time>2018-09-02T14:35:22Z</time>
      </trkpt>
      <trkpt lat="42.9015459912297" lon="-4.94735321961804">
        <ele>1162.82149887085</ele>
        <time>2018-09-02T14:35:23Z</time>
      </trkpt>
      <trkpt lat="42.9015774652761" lon="-4.94749562815293">
        <ele>1159.95296859741</ele>
        <time>2018-09-02T14:35:24Z</time>
      </trkpt>
      <trkpt lat="42.9016228951913" lon="-4.94763275608881">
        <ele>1157.82857894897</ele>
        <time>2018-09-02T14:35:25Z</time>
      </trkpt>
      <trkpt lat="42.9016680736494" lon="-4.94775295258029">
        <ele>1156.7848777771</ele>
        <time>2018-09-02T14:35:26Z</time>
      </trkpt>
      <trkpt lat="42.901705331209" lon="-4.94788320735558">
        <ele>1154.31478500366</ele>
        <time>2018-09-02T14:35:27Z</time>
      </trkpt>
      <trkpt lat="42.9017490009245" lon="-4.94802528061433">
        <ele>1151.82503890991</ele>
        <time>2018-09-02T14:35:28Z</time>
      </trkpt>
      <trkpt lat="42.9017908266214" lon="-4.94816760533019">
        <ele>1149.28524398804</ele>
        <time>2018-09-02T14:35:29Z</time>
      </trkpt>
      <trkpt lat="42.9018329037753" lon="-4.94830733165606">
        <ele>1147.2370262146</ele>
        <time>2018-09-02T14:35:30Z</time>
      </trkpt>
      <trkpt lat="42.9018763220337" lon="-4.94845493697091">
        <ele>1144.75960922241</ele>
        <time>2018-09-02T14:35:31Z</time>
      </trkpt>
      <trkpt lat="42.9019183991876" lon="-4.94859281927808">
        <ele>1142.52547836304</ele>
        <time>2018-09-02T14:35:32Z</time>
      </trkpt>
      <trkpt lat="42.9019664274928" lon="-4.94873614982231">
        <ele>1141.64352035522</ele>
        <time>2018-09-02T14:35:33Z</time>
      </trkpt>
      <trkpt lat="42.9020121507746" lon="-4.94886330329343">
        <ele>1139.85689926147</ele>
        <time>2018-09-02T14:35:34Z</time>
      </trkpt>
      <trkpt lat="42.9020510008958" lon="-4.94900135323866">
        <ele>1137.63973617554</ele>
        <time>2018-09-02T14:35:35Z</time>
      </trkpt>
      <trkpt lat="42.9020930780497" lon="-4.94912255555852">
        <ele>1135.94320297241</ele>
        <time>2018-09-02T14:35:36Z</time>
      </trkpt>
      <trkpt lat="42.9021306708855" lon="-4.94924359024032">
        <ele>1133.78133773804</ele>
        <time>2018-09-02T14:35:37Z</time>
      </trkpt>
      <trkpt lat="42.9021616839272" lon="-4.94935892522796">
        <ele>1132.74850082397</ele>
        <time>2018-09-02T14:35:38Z</time>
      </trkpt>
      <trkpt lat="42.9021887155649" lon="-4.94947778061493">
        <ele>1130.98580551147</ele>
        <time>2018-09-02T14:35:39Z</time>
      </trkpt>
      <trkpt lat="42.902216753031" lon="-4.94960443117185">
        <ele>1129.31881332397</ele>
        <time>2018-09-02T14:35:40Z</time>
      </trkpt>
      <trkpt lat="42.9022357799512" lon="-4.94973619468971">
        <ele>1126.70492172241</ele>
        <time>2018-09-02T14:35:41Z</time>
      </trkpt>
      <trkpt lat="42.902261596213" lon="-4.94987977669104">
        <ele>1123.72347640991</ele>
        <time>2018-09-02T14:35:42Z</time>
      </trkpt>
      <trkpt lat="42.9022729956013" lon="-4.95003115386232">
        <ele>1121.53219223022</ele>
        <time>2018-09-02T14:35:43Z</time>
      </trkpt>
      <trkpt lat="42.9022812098664" lon="-4.95016392320855">
        <ele>1120.3083152771</ele>
        <time>2018-09-02T14:35:44Z</time>
      </trkpt>
      <trkpt lat="42.9022971354824" lon="-4.9502723850356">
        <ele>1118.86275863647</ele>
        <time>2018-09-02T14:35:45Z</time>
      </trkpt>
      <trkpt lat="42.9023178387833" lon="-4.95034153573676">
        <ele>1118.66927719116</ele>
        <time>2018-09-02T14:35:46Z</time>
      </trkpt>
      <trkpt lat="42.9023492709202" lon="-4.95040230453475">
        <ele>1118.0495262146</ele>
        <time>2018-09-02T14:35:47Z</time>
      </trkpt>
      <trkpt lat="42.9023815831569" lon="-4.95044706389769">
        <ele>1117.69686508179</ele>
        <time>2018-09-02T14:35:48Z</time>
      </trkpt>
      <trkpt lat="42.902418882626" lon="-4.95051629841789">
        <ele>1117.95248031616</ele>
        <time>2018-09-02T14:35:49Z</time>
      </trkpt>
      <trkpt lat="42.9024486383823" lon="-4.95058586821421">
        <ele>1117.41366195679</ele>
        <time>2018-09-02T14:35:50Z</time>
      </trkpt>
      <trkpt lat="42.902474370825" lon="-4.95065342635377">
        <ele>1117.43600082397</ele>
        <time>2018-09-02T14:35:51Z</time>
      </trkpt>
      <trkpt lat="42.9024972953302" lon="-4.95072148740753">
        <ele>1117.41488265991</ele>
        <time>2018-09-02T14:35:52Z</time>
      </trkpt>
      <trkpt lat="42.9025263386247" lon="-4.95079549961253">
        <ele>1116.84762191772</ele>
        <time>2018-09-02T14:35:53Z</time>
      </trkpt>
      <trkpt lat="42.9025568487522" lon="-4.95087068528398">
        <ele>1116.73385238647</ele>
        <time>2018-09-02T14:35:54Z</time>
      </trkpt>
      <trkpt lat="42.9025828326521" lon="-4.95094779879316">
        <ele>1116.40340805054</ele>
        <time>2018-09-02T14:35:55Z</time>
      </trkpt>
      <trkpt lat="42.9025885742557" lon="-4.95103203692003">
        <ele>1115.80306625366</ele>
        <time>2018-09-02T14:35:56Z</time>
      </trkpt>
      <trkpt lat="42.9025815334571" lon="-4.95112205856009">
        <ele>1114.91341781616</ele>
        <time>2018-09-02T14:35:57Z</time>
      </trkpt>
      <trkpt lat="42.9025807790858" lon="-4.95119414292737">
        <ele>1113.77340316772</ele>
        <time>2018-09-02T14:35:58Z</time>
      </trkpt>
      <trkpt lat="42.9025704274354" lon="-4.95127284899815">
        <ele>1113.93844223022</ele>
        <time>2018-09-02T14:35:59Z</time>
      </trkpt>
      <trkpt lat="42.9025670746741" lon="-4.95135214180215">
        <ele>1113.2897605896</ele>
        <time>2018-09-02T14:36:00Z</time>
      </trkpt>
      <trkpt lat="42.9025806114477" lon="-4.95144224726125">
        <ele>1112.59664535522</ele>
        <time>2018-09-02T14:36:01Z</time>
      </trkpt>
      <trkpt lat="42.9025926394788" lon="-4.95153025724455">
        <ele>1109.83932113647</ele>
        <time>2018-09-02T14:36:02Z</time>
      </trkpt>
      <trkpt lat="42.9026125884083" lon="-4.95160929859146">
        <ele>1108.56661605835</ele>
        <time>2018-09-02T14:36:03Z</time>
      </trkpt>
      <trkpt lat="42.902631657238" lon="-4.95168473572">
        <ele>1108.74496078491</ele>
        <time>2018-09-02T14:36:04Z</time>
      </trkpt>
      <trkpt lat="42.9026488401395" lon="-4.95176075958177">
        <ele>1109.2682762146</ele>
        <time>2018-09-02T14:36:05Z</time>
      </trkpt>
      <trkpt lat="42.9026687471596" lon="-4.95183619671031">
        <ele>1109.14803695679</ele>
        <time>2018-09-02T14:36:06Z</time>
      </trkpt>
      <trkpt lat="42.9026861396086" lon="-4.95189470239445">
        <ele>1109.92855453491</ele>
        <time>2018-09-02T14:36:07Z</time>
      </trkpt>
      <trkpt lat="42.9027099023041" lon="-4.95195253752633">
        <ele>1109.56087875366</ele>
        <time>2018-09-02T14:36:08Z</time>
      </trkpt>
      <trkpt lat="42.9027345031899" lon="-4.95200986974402">
        <ele>1108.64706039429</ele>
        <time>2018-09-02T14:36:09Z</time>
      </trkpt>
      <trkpt lat="42.9027646780414" lon="-4.95206066407724">
        <ele>1108.67513656616</ele>
        <time>2018-09-02T14:36:10Z</time>
      </trkpt>
      <trkpt lat="42.9028311465335" lon="-4.95212855749293">
        <ele>1109.30428695679</ele>
        <time>2018-09-02T14:36:12Z</time>
      </trkpt>
      <trkpt lat="42.9028718406734" lon="-4.95216501877173">
        <ele>1108.50045394897</ele>
        <time>2018-09-02T14:36:13Z</time>
      </trkpt>
      <trkpt lat="42.9029039852721" lon="-4.95222285390361">
        <ele>1109.14742660522</ele>
        <time>2018-09-02T14:36:14Z</time>
      </trkpt>
      <trkpt lat="42.9029461881545" lon="-4.95227138512298">
        <ele>1108.90035629272</ele>
        <time>2018-09-02T14:36:15Z</time>
      </trkpt>
      <trkpt lat="42.9029602697519" lon="-4.95237020776137">
        <ele>1107.7389793396</ele>
        <time>2018-09-02T14:36:17Z</time>
      </trkpt>
      <trkpt lat="42.902914462651" lon="-4.95245746337339">
        <ele>1108.37923812866</ele>
        <time>2018-09-02T14:36:19Z</time>
      </trkpt>
      <trkpt lat="42.9028367624086" lon="-4.9525412824051">
        <ele>1106.99056625366</ele>
        <time>2018-09-02T14:36:21Z</time>
      </trkpt>
      <trkpt lat="42.9028025223342" lon="-4.95260599069759">
        <ele>1107.5495262146</ele>
        <time>2018-09-02T14:36:22Z</time>
      </trkpt>
      <trkpt lat="42.9027776280818" lon="-4.95267681777938">
        <ele>1108.26473617554</ele>
        <time>2018-09-02T14:36:23Z</time>
      </trkpt>
      <trkpt lat="42.9027522309151" lon="-4.95273230597838">
        <ele>1107.74142074585</ele>
        <time>2018-09-02T14:36:24Z</time>
      </trkpt>
      <trkpt lat="42.9027221398828" lon="-4.95279399678572">
        <ele>1107.94149398804</ele>
        <time>2018-09-02T14:36:25Z</time>
      </trkpt>
      <trkpt lat="42.9027012270343" lon="-4.95286733843847">
        <ele>1107.58846664429</ele>
        <time>2018-09-02T14:36:26Z</time>
      </trkpt>
      <trkpt lat="42.9026814876524" lon="-4.95293841697737">
        <ele>1107.30282211304</ele>
        <time>2018-09-02T14:36:27Z</time>
      </trkpt>
      <trkpt lat="42.9026673641455" lon="-4.95301251300141">
        <ele>1107.52535629272</ele>
        <time>2018-09-02T14:36:28Z</time>
      </trkpt>
      <trkpt lat="42.9026458226544" lon="-4.95309054851993">
        <ele>1107.26559066772</ele>
        <time>2018-09-02T14:36:29Z</time>
      </trkpt>
      <trkpt lat="42.9026325373379" lon="-4.95316850021943">
        <ele>1107.19369125366</ele>
        <time>2018-09-02T14:36:30Z</time>
      </trkpt>
      <trkpt lat="42.9026209703115" lon="-4.95323983021542">
        <ele>1106.08639144897</ele>
        <time>2018-09-02T14:36:31Z</time>
      </trkpt>
      <trkpt lat="42.9026020272103" lon="-4.95332582854196">
        <ele>1106.59872055054</ele>
        <time>2018-09-02T14:36:32Z</time>
      </trkpt>
      <trkpt lat="42.9025778454197" lon="-4.95340411551758">
        <ele>1106.71041488647</ele>
        <time>2018-09-02T14:36:33Z</time>
      </trkpt>
      <trkpt lat="42.902537821832" lon="-4.95347787626549">
        <ele>1106.14278793335</ele>
        <time>2018-09-02T14:36:34Z</time>
      </trkpt>
      <trkpt lat="42.9025090719041" lon="-4.95353881270155">
        <ele>1106.4753074646</ele>
        <time>2018-09-02T14:36:35Z</time>
      </trkpt>
      <trkpt lat="42.9024896258888" lon="-4.95359505527183">
        <ele>1106.63949203491</ele>
        <time>2018-09-02T14:36:36Z</time>
      </trkpt>
      <trkpt lat="42.9024690483165" lon="-4.9536584224598">
        <ele>1106.65951156616</ele>
        <time>2018-09-02T14:36:37Z</time>
      </trkpt>
      <trkpt lat="42.9024500213963" lon="-4.95373084210321">
        <ele>1106.59908676147</ele>
        <time>2018-09-02T14:36:38Z</time>
      </trkpt>
      <trkpt lat="42.9024286475432" lon="-4.95381348766848">
        <ele>1106.72555160522</ele>
        <time>2018-09-02T14:36:39Z</time>
      </trkpt>
      <trkpt lat="42.9024065612284" lon="-4.95388817042574">
        <ele>1106.01754379272</ele>
        <time>2018-09-02T14:36:40Z</time>
      </trkpt>
      <trkpt lat="42.9023839719993" lon="-4.95397056453391">
        <ele>1105.73324203491</ele>
        <time>2018-09-02T14:36:41Z</time>
      </trkpt>
      <trkpt lat="42.9023582395566" lon="-4.95404994115695">
        <ele>1105.38082504272</ele>
        <time>2018-09-02T14:36:42Z</time>
      </trkpt>
      <trkpt lat="42.9023326328424" lon="-4.95412797667548">
        <ele>1105.96725082397</ele>
        <time>2018-09-02T14:36:43Z</time>
      </trkpt>
      <trkpt lat="42.9022895917696" lon="-4.95418916456863">
        <ele>1106.95980453491</ele>
        <time>2018-09-02T14:36:44Z</time>
      </trkpt>
      <trkpt lat="42.9022183875022" lon="-4.95428932831153">
        <ele>1105.84786605835</ele>
        <time>2018-09-02T14:36:46Z</time>
      </trkpt>
      <trkpt lat="42.9021672159833" lon="-4.95435085148081">
        <ele>1106.57760238647</ele>
        <time>2018-09-02T14:36:47Z</time>
      </trkpt>
      <trkpt lat="42.9021193134067" lon="-4.95440625586077">
        <ele>1106.9147605896</ele>
        <time>2018-09-02T14:36:48Z</time>
      </trkpt>
      <trkpt lat="42.9020643281219" lon="-4.95446031913623">
        <ele>1107.1227684021</ele>
        <time>2018-09-02T14:36:49Z</time>
      </trkpt>
      <trkpt lat="42.9020220414204" lon="-4.95452033356294">
        <ele>1107.60873031616</ele>
        <time>2018-09-02T14:36:50Z</time>
      </trkpt>
      <trkpt lat="42.9019893939075" lon="-4.95456785895392">
        <ele>1107.02059555054</ele>
        <time>2018-09-02T14:36:51Z</time>
      </trkpt>
      <trkpt lat="42.901951172429" lon="-4.95461915620133">
        <ele>1106.67953109741</ele>
        <time>2018-09-02T14:36:52Z</time>
      </trkpt>
      <trkpt lat="42.9019087180895" lon="-4.95466693304941">
        <ele>1106.57455062866</ele>
        <time>2018-09-02T14:36:53Z</time>
      </trkpt>
      <trkpt lat="42.901863832998" lon="-4.95469928719565">
        <ele>1107.30782699585</ele>
        <time>2018-09-02T14:36:54Z</time>
      </trkpt>
      <trkpt lat="42.9017694946778" lon="-4.95475309901401">
        <ele>1108.31148910522</ele>
        <time>2018-09-02T14:36:56Z</time>
      </trkpt>
      <trkpt lat="42.9017233942104" lon="-4.9547861237125">
        <ele>1108.55379867554</ele>
        <time>2018-09-02T14:36:57Z</time>
      </trkpt>
      <trkpt lat="42.9016803112281" lon="-4.95483348146542">
        <ele>1108.3297996521</ele>
        <time>2018-09-02T14:36:58Z</time>
      </trkpt>
      <trkpt lat="42.901640581007" lon="-4.95487237349614">
        <ele>1109.80208969116</ele>
        <time>2018-09-02T14:36:59Z</time>
      </trkpt>
      <trkpt lat="42.9015776748237" lon="-4.95494646952018">
        <ele>1112.48336410522</ele>
        <time>2018-09-02T14:37:01Z</time>
      </trkpt>
      <trkpt lat="42.9015180794922" lon="-4.95502056554421">
        <ele>1113.82809066772</ele>
        <time>2018-09-02T14:37:03Z</time>
      </trkpt>
      <trkpt lat="42.9014374455837" lon="-4.95507714339062">
        <ele>1113.99142074585</ele>
        <time>2018-09-02T14:37:05Z</time>
      </trkpt>
      <trkpt lat="42.9013832565797" lon="-4.95510295965239">
        <ele>1113.25667953491</ele>
        <time>2018-09-02T14:37:06Z</time>
      </trkpt>
      <trkpt lat="42.9013363179219" lon="-4.95513087138995">
        <ele>1113.75741195679</ele>
        <time>2018-09-02T14:37:07Z</time>
      </trkpt>
      <trkpt lat="42.9012936540348" lon="-4.95516657829746">
        <ele>1113.8444480896</ele>
        <time>2018-09-02T14:37:08Z</time>
      </trkpt>
      <trkpt lat="42.9012478050244" lon="-4.95518644340798">
        <ele>1113.69381332397</ele>
        <time>2018-09-02T14:37:09Z</time>
      </trkpt>
      <trkpt lat="42.9011989804384" lon="-4.95520563796624">
        <ele>1114.45699691772</ele>
        <time>2018-09-02T14:37:10Z</time>
      </trkpt>
      <trkpt lat="42.901151496957" lon="-4.95522181503936">
        <ele>1114.24508285522</ele>
        <time>2018-09-02T14:37:11Z</time>
      </trkpt>
      <trkpt lat="42.9011019599092" lon="-4.95524000376924">
        <ele>1115.05501937866</ele>
        <time>2018-09-02T14:37:12Z</time>
      </trkpt>
      <trkpt lat="42.9010522552234" lon="-4.95527621359095">
        <ele>1115.5778465271</ele>
        <time>2018-09-02T14:37:13Z</time>
      </trkpt>
      <trkpt lat="42.9010097589743" lon="-4.95530580170914">
        <ele>1116.4919090271</ele>
        <time>2018-09-02T14:37:14Z</time>
      </trkpt>
      <trkpt lat="42.9009589646411" lon="-4.95534628630146">
        <ele>1116.48189926147</ele>
        <time>2018-09-02T14:37:15Z</time>
      </trkpt>
      <trkpt lat="42.9009118164358" lon="-4.95538149029478">
        <ele>1116.86947250366</ele>
        <time>2018-09-02T14:37:16Z</time>
      </trkpt>
      <trkpt lat="42.9008650873256" lon="-4.95542298071548">
        <ele>1115.29256820679</ele>
        <time>2018-09-02T14:37:17Z</time>
      </trkpt>
      <trkpt lat="42.900816053192" lon="-4.95546036400362">
        <ele>1115.50631332397</ele>
        <time>2018-09-02T14:37:18Z</time>
      </trkpt>
      <trkpt lat="42.900763163383" lon="-4.95550529100462">
        <ele>1115.56441879272</ele>
        <time>2018-09-02T14:37:19Z</time>
      </trkpt>
      <trkpt lat="42.9007246904475" lon="-4.95554032735988">
        <ele>1114.8893699646</ele>
        <time>2018-09-02T14:37:20Z</time>
      </trkpt>
      <trkpt lat="42.9006702499864" lon="-4.95557268150612">
        <ele>1115.2038230896</ele>
        <time>2018-09-02T14:37:21Z</time>
      </trkpt>
      <trkpt lat="42.9006183660057" lon="-4.95561450720295">
        <ele>1116.04195785522</ele>
        <time>2018-09-02T14:37:22Z</time>
      </trkpt>
      <trkpt lat="42.9005667753917" lon="-4.95565440506205">
        <ele>1115.75704574585</ele>
        <time>2018-09-02T14:37:23Z</time>
      </trkpt>
      <trkpt lat="42.9005164839727" lon="-4.95569874532982">
        <ele>1115.26327133179</ele>
        <time>2018-09-02T14:37:24Z</time>
      </trkpt>
      <trkpt lat="42.9004593613026" lon="-4.95573336258992">
        <ele>1115.25191879272</ele>
        <time>2018-09-02T14:37:25Z</time>
      </trkpt>
      <trkpt lat="42.9004040826512" lon="-4.95577309281095">
        <ele>1115.44808578491</ele>
        <time>2018-09-02T14:37:26Z</time>
      </trkpt>
      <trkpt lat="42.9003462056098" lon="-4.95581089519426">
        <ele>1115.67379379272</ele>
        <time>2018-09-02T14:37:27Z</time>
      </trkpt>
      <trkpt lat="42.9002885800255" lon="-4.95584207587406">
        <ele>1115.55489730835</ele>
        <time>2018-09-02T14:37:28Z</time>
      </trkpt>
      <trkpt lat="42.9002369475019" lon="-4.95587778278157">
        <ele>1114.82040023804</ele>
        <time>2018-09-02T14:37:29Z</time>
      </trkpt>
      <trkpt lat="42.9001706466478" lon="-4.95591483079358">
        <ele>1115.17928695679</ele>
        <time>2018-09-02T14:37:30Z</time>
      </trkpt>
      <trkpt lat="42.9001168348295" lon="-4.95595606975719">
        <ele>1116.18185043335</ele>
        <time>2018-09-02T14:37:31Z</time>
      </trkpt>
      <trkpt lat="42.9000658728582" lon="-4.95600594208106">
        <ele>1114.96688461304</ele>
        <time>2018-09-02T14:37:32Z</time>
      </trkpt>
      <trkpt lat="42.9000128992301" lon="-4.9560522940056">
        <ele>1114.4743309021</ele>
        <time>2018-09-02T14:37:33Z</time>
      </trkpt>
      <trkpt lat="42.8999613924352" lon="-4.9560935329692">
        <ele>1115.35543441772</ele>
        <time>2018-09-02T14:37:34Z</time>
      </trkpt>
      <trkpt lat="42.8999152919677" lon="-4.95615011081561">
        <ele>1114.73360824585</ele>
        <time>2018-09-02T14:37:35Z</time>
      </trkpt>
      <trkpt lat="42.8998663835627" lon="-4.95620668866202">
        <ele>1113.65755844116</ele>
        <time>2018-09-02T14:37:36Z</time>
      </trkpt>
      <trkpt lat="42.8998164693293" lon="-4.95626393706068">
        <ele>1113.59652328491</ele>
        <time>2018-09-02T14:37:37Z</time>
      </trkpt>
      <trkpt lat="42.8997685248432" lon="-4.95631867088839">
        <ele>1114.74837875366</ele>
        <time>2018-09-02T14:37:38Z</time>
      </trkpt>
      <trkpt lat="42.8997276630652" lon="-4.95637474582061">
        <ele>1116.16305160522</ele>
        <time>2018-09-02T14:37:39Z</time>
      </trkpt>
      <trkpt lat="42.8996805986789" lon="-4.95642160065934">
        <ele>1115.6032371521</ele>
        <time>2018-09-02T14:37:40Z</time>
      </trkpt>
      <trkpt lat="42.8996231826422" lon="-4.95646736585065">
        <ele>1115.23104476929</ele>
        <time>2018-09-02T14:37:41Z</time>
      </trkpt>
      <trkpt lat="42.8995741065991" lon="-4.95650516823396">
        <ele>1114.41988754272</ele>
        <time>2018-09-02T14:37:42Z</time>
      </trkpt>
      <trkpt lat="42.8995155590055" lon="-4.95656275190875">
        <ele>1114.60055160522</ele>
        <time>2018-09-02T14:37:43Z</time>
      </trkpt>
      <trkpt lat="42.8994586877924" lon="-4.95662335306868">
        <ele>1114.1344871521</ele>
        <time>2018-09-02T14:37:44Z</time>
      </trkpt>
      <trkpt lat="42.8993912553814" lon="-4.9566651787655">
        <ele>1114.76107406616</ele>
        <time>2018-09-02T14:37:45Z</time>
      </trkpt>
      <trkpt lat="42.8993216855851" lon="-4.95671362616583">
        <ele>1114.21859359741</ele>
        <time>2018-09-02T14:37:46Z</time>
      </trkpt>
      <trkpt lat="42.8992689215046" lon="-4.9567619059281">
        <ele>1113.63204574585</ele>
        <time>2018-09-02T14:37:47Z</time>
      </trkpt>
      <trkpt lat="42.8992069373307" lon="-4.95680582710072">
        <ele>1113.75179672241</ele>
        <time>2018-09-02T14:37:48Z</time>
      </trkpt>
      <trkpt lat="42.8991515329507" lon="-4.95685913600489">
        <ele>1112.80392074585</ele>
        <time>2018-09-02T14:37:49Z</time>
      </trkpt>
      <trkpt lat="42.8991027083647" lon="-4.95692166500255">
        <ele>1111.38009262085</ele>
        <time>2018-09-02T14:37:50Z</time>
      </trkpt>
      <trkpt lat="42.8990439512235" lon="-4.95698645711407">
        <ele>1111.17562484741</ele>
        <time>2018-09-02T14:37:51Z</time>
      </trkpt>
      <trkpt lat="42.8989772312743" lon="-4.95704253204629">
        <ele>1109.81917953491</ele>
        <time>2018-09-02T14:37:52Z</time>
      </trkpt>
      <trkpt lat="42.8988971421895" lon="-4.95708729140922">
        <ele>1108.83797836304</ele>
        <time>2018-09-02T14:37:53Z</time>
      </trkpt>
      <trkpt lat="42.89881919049" lon="-4.95713992976114">
        <ele>1107.76839828491</ele>
        <time>2018-09-02T14:37:54Z</time>
      </trkpt>
      <trkpt lat="42.8987531830025" lon="-4.95720103383526">
        <ele>1107.13729476929</ele>
        <time>2018-09-02T14:37:55Z</time>
      </trkpt>
      <trkpt lat="42.8986823559207" lon="-4.95725727640554">
        <ele>1107.9508934021</ele>
        <time>2018-09-02T14:37:56Z</time>
      </trkpt>
      <trkpt lat="42.898609098087" lon="-4.95732500218317">
        <ele>1107.84041976929</ele>
        <time>2018-09-02T14:37:57Z</time>
      </trkpt>
      <trkpt lat="42.8985444736135" lon="-4.9573784787254">
        <ele>1107.12301254272</ele>
        <time>2018-09-02T14:37:58Z</time>
      </trkpt>
      <trkpt lat="42.8984817350683" lon="-4.95744234882757">
        <ele>1106.80038070679</ele>
        <time>2018-09-02T14:37:59Z</time>
      </trkpt>
      <trkpt lat="42.8984175715995" lon="-4.95750605129167">
        <ele>1106.42501449585</ele>
        <time>2018-09-02T14:38:00Z</time>
      </trkpt>
      <trkpt lat="42.898368705104" lon="-4.95757075958416">
        <ele>1104.92831039429</ele>
        <time>2018-09-02T14:38:01Z</time>
      </trkpt>
      <trkpt lat="42.8983165696663" lon="-4.95764711872205">
        <ele>1103.99374008179</ele>
        <time>2018-09-02T14:38:02Z</time>
      </trkpt>
      <trkpt lat="42.8982710978416" lon="-4.95771719143256">
        <ele>1103.80196762085</ele>
        <time>2018-09-02T14:38:03Z</time>
      </trkpt>
      <trkpt lat="42.8982258355645" lon="-4.95779019780919">
        <ele>1103.81197738647</ele>
        <time>2018-09-02T14:38:04Z</time>
      </trkpt>
      <trkpt lat="42.8981769271594" lon="-4.95785281062588">
        <ele>1103.73934555054</ele>
        <time>2018-09-02T14:38:05Z</time>
      </trkpt>
      <trkpt lat="42.898133341263" lon="-4.95792699046895">
        <ele>1101.83749008179</ele>
        <time>2018-09-02T14:38:06Z</time>
      </trkpt>
      <trkpt lat="42.8980753804025" lon="-4.95799790136978">
        <ele>1102.60006332397</ele>
        <time>2018-09-02T14:38:07Z</time>
      </trkpt>
      <trkpt lat="42.8980210237605" lon="-4.95805389248296">
        <ele>1103.27254867554</ele>
        <time>2018-09-02T14:38:08Z</time>
      </trkpt>
      <trkpt lat="42.8979649907377" lon="-4.95810644701585">
        <ele>1102.89437484741</ele>
        <time>2018-09-02T14:38:09Z</time>
      </trkpt>
      <trkpt lat="42.8979121428383" lon="-4.9581557326065">
        <ele>1104.25155258179</ele>
        <time>2018-09-02T14:38:10Z</time>
      </trkpt>
      <trkpt lat="42.8978591273007" lon="-4.95819923468396">
        <ele>1104.83749008179</ele>
        <time>2018-09-02T14:38:11Z</time>
      </trkpt>
      <trkpt lat="42.8978045192015" lon="-4.95824709535107">
        <ele>1104.37447738647</ele>
        <time>2018-09-02T14:38:12Z</time>
      </trkpt>
      <trkpt lat="42.8977613524002" lon="-4.95829151943788">
        <ele>1103.88790512085</ele>
        <time>2018-09-02T14:38:13Z</time>
      </trkpt>
      <trkpt lat="42.8977073729438" lon="-4.95834290050432">
        <ele>1104.1598777771</ele>
        <time>2018-09-02T14:38:14Z</time>
      </trkpt>
      <trkpt lat="42.8976527229351" lon="-4.95838112198278">
        <ele>1105.1667137146</ele>
        <time>2018-09-02T14:38:15Z</time>
      </trkpt>
      <trkpt lat="42.8975963127267" lon="-4.95842261240348">
        <ele>1105.45028305054</ele>
        <time>2018-09-02T14:38:16Z</time>
      </trkpt>
      <trkpt lat="42.8975468175885" lon="-4.95846116915807">
        <ele>1104.84591293335</ele>
        <time>2018-09-02T14:38:17Z</time>
      </trkpt>
      <trkpt lat="42.897495185065" lon="-4.95850215666458">
        <ele>1105.35946273804</ele>
        <time>2018-09-02T14:38:18Z</time>
      </trkpt>
      <trkpt lat="42.8974414570657" lon="-4.95855496265456">
        <ele>1104.40389633179</ele>
        <time>2018-09-02T14:38:19Z</time>
      </trkpt>
      <trkpt lat="42.8973941831318" lon="-4.95859318413302">
        <ele>1105.09493637085</ele>
        <time>2018-09-02T14:38:20Z</time>
      </trkpt>
      <trkpt lat="42.8973382339281" lon="-4.95863090269729">
        <ele>1104.95724105835</ele>
        <time>2018-09-02T14:38:21Z</time>
      </trkpt>
      <trkpt lat="42.8972954024029" lon="-4.95865780860647">
        <ele>1104.77743148804</ele>
        <time>2018-09-02T14:38:22Z</time>
      </trkpt>
      <trkpt lat="42.8972498886687" lon="-4.95868446305856">
        <ele>1105.07625961304</ele>
        <time>2018-09-02T14:38:23Z</time>
      </trkpt>
      <trkpt lat="42.8972000582543" lon="-4.95869284496173">
        <ele>1104.93990707397</ele>
        <time>2018-09-02T14:38:24Z</time>
      </trkpt>
      <trkpt lat="42.897114562842" lon="-4.95872042142317">
        <ele>1104.92135238647</ele>
        <time>2018-09-02T14:38:26Z</time>
      </trkpt>
      <trkpt lat="42.8970705997598" lon="-4.95873525739178">
        <ele>1104.98470687866</ele>
        <time>2018-09-02T14:38:27Z</time>
      </trkpt>
      <trkpt lat="42.8970165783939" lon="-4.95875478722617">
        <ele>1104.9567527771</ele>
        <time>2018-09-02T14:38:28Z</time>
      </trkpt>
      <trkpt lat="42.8969726153118" lon="-4.95877314359411">
        <ele>1103.67770004272</ele>
        <time>2018-09-02T14:38:29Z</time>
      </trkpt>
      <trkpt lat="42.8969218209785" lon="-4.95879141614303">
        <ele>1104.1061668396</ele>
        <time>2018-09-02T14:38:30Z</time>
      </trkpt>
      <trkpt lat="42.8968426958126" lon="-4.95880859904453">
        <ele>1105.17916488647</ele>
        <time>2018-09-02T14:38:32Z</time>
      </trkpt>
      <trkpt lat="42.8967636963752" lon="-4.9588172324048">
        <ele>1105.67525863647</ele>
        <time>2018-09-02T14:38:34Z</time>
      </trkpt>
      <trkpt lat="42.8966743871969" lon="-4.95881614275738">
        <ele>1106.20248031616</ele>
        <time>2018-09-02T14:38:36Z</time>
      </trkpt>
      <trkpt lat="42.8966292087388" lon="-4.95881848969027">
        <ele>1105.8014793396</ele>
        <time>2018-09-02T14:38:37Z</time>
      </trkpt>
      <trkpt lat="42.8965481138256" lon="-4.95884774253234">
        <ele>1105.10494613647</ele>
        <time>2018-09-02T14:38:39Z</time>
      </trkpt>
      <trkpt lat="42.8964982834113" lon="-4.95885813609227">
        <ele>1104.52840805054</ele>
        <time>2018-09-02T14:38:40Z</time>
      </trkpt>
      <trkpt lat="42.8964013467011" lon="-4.95889032260045">
        <ele>1104.07235336304</ele>
        <time>2018-09-02T14:38:42Z</time>
      </trkpt>
      <trkpt lat="42.8963498399061" lon="-4.95889434591398">
        <ele>1103.1071434021</ele>
        <time>2018-09-02T14:38:43Z</time>
      </trkpt>
      <trkpt lat="42.8962995903966" lon="-4.95890457183584">
        <ele>1102.92318344116</ele>
        <time>2018-09-02T14:38:44Z</time>
      </trkpt>
      <trkpt lat="42.896205629262" lon="-4.95891831815705">
        <ele>1101.71139144897</ele>
        <time>2018-09-02T14:38:46Z</time>
      </trkpt>
      <trkpt lat="42.8961595287946" lon="-4.95894371532366">
        <ele>1101.54818344116</ele>
        <time>2018-09-02T14:38:47Z</time>
      </trkpt>
      <trkpt lat="42.896114224608" lon="-4.95896257460579">
        <ele>1102.06490707397</ele>
        <time>2018-09-02T14:38:48Z</time>
      </trkpt>
      <trkpt lat="42.8960409248647" lon="-4.95899409056172">
        <ele>1101.32162094116</ele>
        <time>2018-09-02T14:38:50Z</time>
      </trkpt>
      <trkpt lat="42.8959931899262" lon="-4.95900213718876">
        <ele>1101.39352035522</ele>
        <time>2018-09-02T14:38:51Z</time>
      </trkpt>
      <trkpt lat="42.8959494363916" lon="-4.95901898481414">
        <ele>1101.0817527771</ele>
        <time>2018-09-02T14:38:52Z</time>
      </trkpt>
      <trkpt lat="42.8958840575469" lon="-4.95904329233333">
        <ele>1101.05355453491</ele>
        <time>2018-09-02T14:38:54Z</time>
      </trkpt>
      <trkpt lat="42.8958360711512" lon="-4.95904656127557">
        <ele>1100.15877914429</ele>
        <time>2018-09-02T14:38:56Z</time>
      </trkpt>
      <trkpt lat="42.8957778588337" lon="-4.9590691085951">
        <ele>1101.37007904053</ele>
        <time>2018-09-02T14:40:30Z</time>
      </trkpt>
      <trkpt lat="42.8957222868157" lon="-4.9591225013183">
        <ele>1102.29122161865</ele>
        <time>2018-09-02T14:40:33Z</time>
      </trkpt>
      <trkpt lat="42.895679581019" lon="-4.95917782187924">
        <ele>1103.05281829834</ele>
        <time>2018-09-02T14:40:35Z</time>
      </trkpt>
      <trkpt lat="42.8956323489946" lon="-4.95924286544785">
        <ele>1102.00423431396</ele>
        <time>2018-09-02T14:40:37Z</time>
      </trkpt>
      <trkpt lat="42.8955727955726" lon="-4.95931344107255">
        <ele>1102.22029876709</ele>
        <time>2018-09-02T14:40:39Z</time>
      </trkpt>
      <trkpt lat="42.8955146251646" lon="-4.95937001891896">
        <ele>1101.3366317749</ele>
        <time>2018-09-02T14:40:41Z</time>
      </trkpt>
      <trkpt lat="42.895450880791" lon="-4.95942466892764">
        <ele>1101.29537200928</ele>
        <time>2018-09-02T14:40:43Z</time>
      </trkpt>
      <trkpt lat="42.8953789221522" lon="-4.95947739109859">
        <ele>1100.68868255615</ele>
        <time>2018-09-02T14:40:45Z</time>
      </trkpt>
      <trkpt lat="42.8953012638193" lon="-4.95953019708857">
        <ele>1100.48909759521</ele>
        <time>2018-09-02T14:40:47Z</time>
      </trkpt>
      <trkpt lat="42.8952530678761" lon="-4.95953505859241">
        <ele>1100.28023529053</ele>
        <time>2018-09-02T14:40:48Z</time>
      </trkpt>
      <trkpt lat="42.8952100268033" lon="-4.95955626480743">
        <ele>1099.98983001709</ele>
        <time>2018-09-02T14:40:49Z</time>
      </trkpt>
      <trkpt lat="42.8951318655563" lon="-4.95959691703781">
        <ele>1098.00508880615</ele>
        <time>2018-09-02T14:40:51Z</time>
      </trkpt>
      <trkpt lat="42.8950739885149" lon="-4.95960655622646">
        <ele>1098.39656829834</ele>
        <time>2018-09-02T14:40:52Z</time>
      </trkpt>
      <trkpt lat="42.8950288519663" lon="-4.95961292647287">
        <ele>1098.51668548584</ele>
        <time>2018-09-02T14:40:53Z</time>
      </trkpt>
      <trkpt lat="42.8949472122294" lon="-4.9596201349096">
        <ele>1097.00057220459</ele>
        <time>2018-09-02T14:40:55Z</time>
      </trkpt>
      <trkpt lat="42.8949047997993" lon="-4.95964452624783">
        <ele>1097.14546966553</ele>
        <time>2018-09-02T14:40:56Z</time>
      </trkpt>
      <trkpt lat="42.8948247107145" lon="-4.95968149044081">
        <ele>1096.81722259521</ele>
        <time>2018-09-02T14:40:58Z</time>
      </trkpt>
      <trkpt lat="42.8947783168805" lon="-4.95971929282412">
        <ele>1095.81148529053</ele>
        <time>2018-09-02T14:40:59Z</time>
      </trkpt>
      <trkpt lat="42.8947319649559" lon="-4.95974242687687">
        <ele>1097.21187591553</ele>
        <time>2018-09-02T14:41:00Z</time>
      </trkpt>
      <trkpt lat="42.8946595453125" lon="-4.95978760533497">
        <ele>1094.83516693115</ele>
        <time>2018-09-02T14:41:02Z</time>
      </trkpt>
      <trkpt lat="42.8946122294691" lon="-4.95981786400542">
        <ele>1095.34957122803</ele>
        <time>2018-09-02T14:41:03Z</time>
      </trkpt>
      <trkpt lat="42.8945657099065" lon="-4.9598482064949">
        <ele>1095.86519622803</ele>
        <time>2018-09-02T14:41:04Z</time>
      </trkpt>
      <trkpt lat="42.8945197770772" lon="-4.95987620205149">
        <ele>1095.17134857178</ele>
        <time>2018-09-02T14:41:05Z</time>
      </trkpt>
      <trkpt lat="42.8944788733897" lon="-4.95990302414164">
        <ele>1095.44869232178</ele>
        <time>2018-09-02T14:41:06Z</time>
      </trkpt>
      <trkpt lat="42.8944366705072" lon="-4.95993655175433">
        <ele>1095.47249603271</ele>
        <time>2018-09-02T14:41:07Z</time>
      </trkpt>
      <trkpt lat="42.8943904862207" lon="-4.95996303856835">
        <ele>1094.05611419678</ele>
        <time>2018-09-02T14:41:08Z</time>
      </trkpt>
      <trkpt lat="42.8943440085676" lon="-4.95999203995332">
        <ele>1095.37996673584</ele>
        <time>2018-09-02T14:41:09Z</time>
      </trkpt>
      <trkpt lat="42.8942923760441" lon="-4.96001911350057">
        <ele>1094.63033294678</ele>
        <time>2018-09-02T14:41:10Z</time>
      </trkpt>
      <trkpt lat="42.8942422941727" lon="-4.9600464385049">
        <ele>1095.31441497803</ele>
        <time>2018-09-02T14:41:11Z</time>
      </trkpt>
      <trkpt lat="42.8941916674775" lon="-4.96007921174631">
        <ele>1094.66341400146</ele>
        <time>2018-09-02T14:41:12Z</time>
      </trkpt>
      <trkpt lat="42.8941474110288" lon="-4.96010066941842">
        <ele>1093.9235458374</ele>
        <time>2018-09-02T14:41:13Z</time>
      </trkpt>
      <trkpt lat="42.8940997599092" lon="-4.96012631804213">
        <ele>1094.08882904053</ele>
        <time>2018-09-02T14:41:14Z</time>
      </trkpt>
      <trkpt lat="42.8940506838662" lon="-4.96015230194196">
        <ele>1094.12935638428</ele>
        <time>2018-09-02T14:41:15Z</time>
      </trkpt>
      <trkpt lat="42.8939513583136" lon="-4.96018507518336">
        <ele>1093.53108978271</ele>
        <time>2018-09-02T14:41:17Z</time>
      </trkpt>
      <trkpt lat="42.8939012764421" lon="-4.96020820923612">
        <ele>1093.86287689209</ele>
        <time>2018-09-02T14:41:18Z</time>
      </trkpt>
      <trkpt lat="42.8938514879373" lon="-4.96023595333561">
        <ele>1094.43196868896</ele>
        <time>2018-09-02T14:41:19Z</time>
      </trkpt>
      <trkpt lat="42.8938083630455" lon="-4.96026210487351">
        <ele>1094.50704193115</ele>
        <time>2018-09-02T14:41:20Z</time>
      </trkpt>
      <trkpt lat="42.8937342251119" lon="-4.96031574905381">
        <ele>1096.30843353271</ele>
        <time>2018-09-02T14:41:22Z</time>
      </trkpt>
      <trkpt lat="42.8936667927009" lon="-4.96037215926215">
        <ele>1097.83614349365</ele>
        <time>2018-09-02T14:41:24Z</time>
      </trkpt>
      <trkpt lat="42.893614154349" lon="-4.96045438573226">
        <ele>1097.74813079834</ele>
        <time>2018-09-02T14:41:26Z</time>
      </trkpt>
      <trkpt lat="42.8935862007019" lon="-4.96053912677333">
        <ele>1098.2399520874</ele>
        <time>2018-09-02T14:41:28Z</time>
      </trkpt>
      <trkpt lat="42.8935896372822" lon="-4.96064809151456">
        <ele>1099.01314544678</ele>
        <time>2018-09-02T14:41:30Z</time>
      </trkpt>
      <trkpt lat="42.8936278168512" lon="-4.96073869988784">
        <ele>1099.65193939209</ele>
        <time>2018-09-02T14:41:32Z</time>
      </trkpt>
      <trkpt lat="42.8936585365263" lon="-4.96081438847348">
        <ele>1101.10103607178</ele>
        <time>2018-09-02T14:41:34Z</time>
      </trkpt>
      <trkpt lat="42.8936861548972" lon="-4.96088680811688">
        <ele>1102.49654388428</ele>
        <time>2018-09-02T14:41:36Z</time>
      </trkpt>
      <trkpt lat="42.8936960874525" lon="-4.96096232906446">
        <ele>1102.44637298584</ele>
        <time>2018-09-02T14:41:38Z</time>
      </trkpt>
      <trkpt lat="42.8936587460739" lon="-4.96104598045811">
        <ele>1102.81197357178</ele>
        <time>2018-09-02T14:41:40Z</time>
      </trkpt>
      <trkpt lat="42.8935816325647" lon="-4.96109048836395">
        <ele>1104.84993743896</ele>
        <time>2018-09-02T14:41:42Z</time>
      </trkpt>
      <trkpt lat="42.8935087519166" lon="-4.96109660715327">
        <ele>1103.2399520874</ele>
        <time>2018-09-02T14:41:44Z</time>
      </trkpt>
      <trkpt lat="42.893441026139" lon="-4.96108462103173">
        <ele>1104.26778411865</ele>
        <time>2018-09-02T14:41:46Z</time>
      </trkpt>
      <trkpt lat="42.8933743900088" lon="-4.96107758023307">
        <ele>1104.73360443115</ele>
        <time>2018-09-02T14:41:48Z</time>
      </trkpt>
      <trkpt lat="42.8933108551827" lon="-4.96108227409884">
        <ele>1104.8698348999</ele>
        <time>2018-09-02T14:41:50Z</time>
      </trkpt>
      <trkpt lat="42.8932699095857" lon="-4.96111580171153">
        <ele>1104.18074798584</ele>
        <time>2018-09-02T14:41:53Z</time>
      </trkpt>
      <trkpt lat="42.8933284571794" lon="-4.96116869152054">
        <ele>1105.26595306396</ele>
        <time>2018-09-02T14:41:56Z</time>
      </trkpt>
      <trkpt lat="42.8933940036622" lon="-4.96120473370418">
        <ele>1105.1725692749</ele>
        <time>2018-09-02T14:41:58Z</time>
      </trkpt>
      <trkpt lat="42.8934522997987" lon="-4.96123926714525">
        <ele>1104.82308197021</ele>
        <time>2018-09-02T14:42:00Z</time>
      </trkpt>
      <trkpt lat="42.8935060697076" lon="-4.96127338149116">
        <ele>1105.32125091553</ele>
        <time>2018-09-02T14:42:02Z</time>
      </trkpt>
      <trkpt lat="42.8935596719784" lon="-4.96131001040802">
        <ele>1105.58882904053</ele>
        <time>2018-09-02T14:42:04Z</time>
      </trkpt>
      <trkpt lat="42.8936137352538" lon="-4.96135133319065">
        <ele>1106.0895614624</ele>
        <time>2018-09-02T14:42:06Z</time>
      </trkpt>
      <trkpt lat="42.8936638171253" lon="-4.96139852330551">
        <ele>1106.19149017334</ele>
        <time>2018-09-02T14:42:08Z</time>
      </trkpt>
      <trkpt lat="42.8937112586972" lon="-4.96144906618163">
        <ele>1106.7213973999</ele>
        <time>2018-09-02T14:42:10Z</time>
      </trkpt>
      <trkpt lat="42.8937567724314" lon="-4.96149516664907">
        <ele>1107.03731536865</ele>
        <time>2018-09-02T14:42:12Z</time>
      </trkpt>
      <trkpt lat="42.8938023280752" lon="-4.96153875254557">
        <ele>1107.34676361084</ele>
        <time>2018-09-02T14:42:14Z</time>
      </trkpt>
      <trkpt lat="42.8938505659279" lon="-4.9615851044701">
        <ele>1107.75130462646</ele>
        <time>2018-09-02T14:42:16Z</time>
      </trkpt>
      <trkpt lat="42.8938912181583" lon="-4.96163958684072">
        <ele>1108.3063583374</ele>
        <time>2018-09-02T14:42:18Z</time>
      </trkpt>
      <trkpt lat="42.8939304873747" lon="-4.96169566177294">
        <ele>1108.69734954834</ele>
        <time>2018-09-02T14:42:20Z</time>
      </trkpt>
      <trkpt lat="42.8939753724662" lon="-4.96174251661167">
        <ele>1109.01851654053</ele>
        <time>2018-09-02T14:42:22Z</time>
      </trkpt>
      <trkpt lat="42.8940205090147" lon="-4.9617872759746">
        <ele>1110.36031341553</ele>
        <time>2018-09-02T14:42:24Z</time>
      </trkpt>
      <trkpt lat="42.8940624185306" lon="-4.96183186769948">
        <ele>1111.33712005615</ele>
        <time>2018-09-02T14:42:26Z</time>
      </trkpt>
      <trkpt lat="42.8940996760902" lon="-4.9618876911746">
        <ele>1111.47689056396</ele>
        <time>2018-09-02T14:42:28Z</time>
      </trkpt>
      <trkpt lat="42.8941311501366" lon="-4.96195759624705">
        <ele>1111.39412689209</ele>
        <time>2018-09-02T14:42:30Z</time>
      </trkpt>
      <trkpt lat="42.8941606125262" lon="-4.96202071197793">
        <ele>1112.03340911865</ele>
        <time>2018-09-02T14:42:32Z</time>
      </trkpt>
      <trkpt lat="42.8941875603449" lon="-4.96207385324404">
        <ele>1112.30867767334</ele>
        <time>2018-09-02T14:42:34Z</time>
      </trkpt>
      <trkpt lat="42.8942130832401" lon="-4.9621313530998">
        <ele>1112.32869720459</ele>
        <time>2018-09-02T14:42:36Z</time>
      </trkpt>
      <trkpt lat="42.8942375164878" lon="-4.96219522320196">
        <ele>1113.90682220459</ele>
        <time>2018-09-02T14:42:39Z</time>
      </trkpt>
      <trkpt lat="42.8942584712458" lon="-4.96227317490146">
        <ele>1113.36910247803</ele>
        <time>2018-09-02T14:42:43Z</time>
      </trkpt>
      <trkpt lat="42.894276198971" lon="-4.96233109385237">
        <ele>1114.61946868896</ele>
        <time>2018-09-02T14:42:45Z</time>
      </trkpt>
      <trkpt lat="42.8942990396571" lon="-4.96239219792649">
        <ele>1114.25569915771</ele>
        <time>2018-09-02T14:42:47Z</time>
      </trkpt>
      <trkpt lat="42.8943166416538" lon="-4.9624572414951">
        <ele>1114.57711029053</ele>
        <time>2018-09-02T14:42:49Z</time>
      </trkpt>
      <trkpt lat="42.894340865354" lon="-4.96252873912916">
        <ele>1115.82833099365</ele>
        <time>2018-09-02T14:42:51Z</time>
      </trkpt>
      <trkpt lat="42.8943634964925" lon="-4.96259906329677">
        <ele>1115.30782318115</ele>
        <time>2018-09-02T14:42:53Z</time>
      </trkpt>
      <trkpt lat="42.8943970660147" lon="-4.96265999973282">
        <ele>1113.7712020874</ele>
        <time>2018-09-02T14:42:55Z</time>
      </trkpt>
      <trkpt lat="42.8944304678989" lon="-4.96270492673382">
        <ele>1112.88509368896</ele>
        <time>2018-09-02T14:42:56Z</time>
      </trkpt>
      <trkpt lat="42.8944707429436" lon="-4.96275588870511">
        <ele>1114.05257415771</ele>
        <time>2018-09-02T14:42:57Z</time>
      </trkpt>
      <trkpt lat="42.8945124429119" lon="-4.96281154454217">
        <ele>1113.01619720459</ele>
        <time>2018-09-02T14:42:58Z</time>
      </trkpt>
      <trkpt lat="42.8945524664995" lon="-4.96286376379893">
        <ele>1112.90340423584</ele>
        <time>2018-09-02T14:42:59Z</time>
      </trkpt>
      <trkpt lat="42.8946170071539" lon="-4.9629392847465">
        <ele>1110.93965911865</ele>
        <time>2018-09-02T14:43:01Z</time>
      </trkpt>
      <trkpt lat="42.894679158966" lon="-4.96297197416887">
        <ele>1110.03084564209</ele>
        <time>2018-09-02T14:43:03Z</time>
      </trkpt>
      <trkpt lat="42.8947229963195" lon="-4.96305579320058">
        <ele>1108.94649505615</ele>
        <time>2018-09-02T14:43:05Z</time>
      </trkpt>
      <trkpt lat="42.8947752155763" lon="-4.96307984926269">
        <ele>1109.06771087646</ele>
        <time>2018-09-02T14:43:06Z</time>
      </trkpt>
      <trkpt lat="42.8948120959503" lon="-4.96311496943698">
        <ele>1107.90059661865</ele>
        <time>2018-09-02T14:43:07Z</time>
      </trkpt>
      <trkpt lat="42.8948628902835" lon="-4.96313340962395">
        <ele>1108.09883880615</ele>
        <time>2018-09-02T14:43:08Z</time>
      </trkpt>
      <trkpt lat="42.8949561808658" lon="-4.9631689488934">
        <ele>1108.7585067749</ele>
        <time>2018-09-02T14:43:10Z</time>
      </trkpt>
      <trkpt lat="42.8950312827182" lon="-4.96323935688004">
        <ele>1109.69918060303</ele>
        <time>2018-09-02T14:43:12Z</time>
      </trkpt>
      <trkpt lat="42.895070510025" lon="-4.96328344569072">
        <ele>1109.68001556396</ele>
        <time>2018-09-02T14:43:13Z</time>
      </trkpt>
      <trkpt lat="42.8951296024424" lon="-4.96336407959923">
        <ele>1109.58028411865</ele>
        <time>2018-09-02T14:43:15Z</time>
      </trkpt>
      <trkpt lat="42.895206506404" lon="-4.96342736296818">
        <ele>1109.0260848999</ele>
        <time>2018-09-02T14:43:17Z</time>
      </trkpt>
      <trkpt lat="42.8952473262724" lon="-4.9634694401221">
        <ele>1109.57088470459</ele>
        <time>2018-09-02T14:43:18Z</time>
      </trkpt>
      <trkpt lat="42.8952769563002" lon="-4.96352065355048">
        <ele>1109.52877044678</ele>
        <time>2018-09-02T14:43:19Z</time>
      </trkpt>
      <trkpt lat="42.8953207936537" lon="-4.96358343400523">
        <ele>1107.79415130615</ele>
        <time>2018-09-02T14:43:20Z</time>
      </trkpt>
      <trkpt lat="42.8953615297032" lon="-4.96366968378887">
        <ele>1106.6862411499</ele>
        <time>2018-09-02T14:43:22Z</time>
      </trkpt>
      <trkpt lat="42.895382400642" lon="-4.96372399852142">
        <ele>1107.63362884521</ele>
        <time>2018-09-02T14:43:23Z</time>
      </trkpt>
      <trkpt lat="42.8954282077429" lon="-4.96375635266766">
        <ele>1108.06478118896</ele>
        <time>2018-09-02T14:43:24Z</time>
      </trkpt>
      <trkpt lat="42.8954555327472" lon="-4.96380588971541">
        <ele>1107.91524505615</ele>
        <time>2018-09-02T14:43:25Z</time>
      </trkpt>
      <trkpt lat="42.8954871325222" lon="-4.96386774816081">
        <ele>1107.70101165771</ele>
        <time>2018-09-02T14:43:26Z</time>
      </trkpt>
      <trkpt lat="42.895550164434" lon="-4.96394108981356">
        <ele>1107.9665145874</ele>
        <time>2018-09-02T14:43:28Z</time>
      </trkpt>
      <trkpt lat="42.8955764417005" lon="-4.96399213560388">
        <ele>1107.99031829834</ele>
        <time>2018-09-02T14:43:29Z</time>
      </trkpt>
      <trkpt lat="42.8956370009509" lon="-4.96406313032374">
        <ele>1108.03792572021</ele>
        <time>2018-09-02T14:43:31Z</time>
      </trkpt>
      <trkpt lat="42.8957048105475" lon="-4.96412423439786">
        <ele>1108.5192489624</ele>
        <time>2018-09-02T14:43:33Z</time>
      </trkpt>
      <trkpt lat="42.895772201049" lon="-4.96419355273709">
        <ele>1109.07833099365</ele>
        <time>2018-09-02T14:43:35Z</time>
      </trkpt>
      <trkpt lat="42.8958350234133" lon="-4.96425507590637">
        <ele>1109.30074310303</ele>
        <time>2018-09-02T14:43:37Z</time>
      </trkpt>
      <trkpt lat="42.8958970914063" lon="-4.96432322077915">
        <ele>1109.12691497803</ele>
        <time>2018-09-02T14:43:39Z</time>
      </trkpt>
      <trkpt lat="42.8959627636176" lon="-4.9643949698703">
        <ele>1109.37227630615</ele>
        <time>2018-09-02T14:43:41Z</time>
      </trkpt>
      <trkpt lat="42.8960316209522" lon="-4.96446671896145">
        <ele>1108.95442962646</ele>
        <time>2018-09-02T14:43:43Z</time>
      </trkpt>
      <trkpt lat="42.8960918449265" lon="-4.96454332955644">
        <ele>1107.41512298584</ele>
        <time>2018-09-02T14:43:45Z</time>
      </trkpt>
      <trkpt lat="42.8961752029535" lon="-4.96461315080986">
        <ele>1106.71224212646</ele>
        <time>2018-09-02T14:43:47Z</time>
      </trkpt>
      <trkpt lat="42.8962166514647" lon="-4.96465061791704">
        <ele>1106.41316986084</ele>
        <time>2018-09-02T14:43:48Z</time>
      </trkpt>
      <trkpt lat="42.8962577646998" lon="-4.96468867175743">
        <ele>1106.83516693115</ele>
        <time>2018-09-02T14:43:49Z</time>
      </trkpt>
      <trkpt lat="42.8962997580347" lon="-4.96472530067429">
        <ele>1106.58150482178</ele>
        <time>2018-09-02T14:43:50Z</time>
      </trkpt>
      <trkpt lat="42.8963711718497" lon="-4.96479696594641">
        <ele>1106.5114364624</ele>
        <time>2018-09-02T14:43:52Z</time>
      </trkpt>
      <trkpt lat="42.8964098543328" lon="-4.96483275667295">
        <ele>1106.61544036865</ele>
        <time>2018-09-02T14:43:53Z</time>
      </trkpt>
      <trkpt lat="42.8965017619011" lon="-4.96488128789232">
        <ele>1108.29305267334</ele>
        <time>2018-09-02T14:43:55Z</time>
      </trkpt>
      <trkpt lat="42.8965684818503" lon="-4.96495672502086">
        <ele>1106.98690032959</ele>
        <time>2018-09-02T14:43:57Z</time>
      </trkpt>
      <trkpt lat="42.8966387641084" lon="-4.9649996403651">
        <ele>1107.09261322021</ele>
        <time>2018-09-02T14:43:59Z</time>
      </trkpt>
      <trkpt lat="42.8966899775368" lon="-4.96504020877645">
        <ele>1106.87532806396</ele>
        <time>2018-09-02T14:44:01Z</time>
      </trkpt>
      <trkpt lat="42.8967507044253" lon="-4.96501992457077">
        <ele>1107.95491790771</ele>
        <time>2018-09-02T14:44:03Z</time>
      </trkpt>
      <trkpt lat="42.8968060668957" lon="-4.96503090486393">
        <ele>1108.50325775146</ele>
        <time>2018-09-02T14:44:05Z</time>
      </trkpt>
      <trkpt lat="42.8968785284487" lon="-4.96505445801184">
        <ele>1110.0065536499</ele>
        <time>2018-09-02T14:44:07Z</time>
      </trkpt>
      <trkpt lat="42.8969449969408" lon="-4.96507834643588">
        <ele>1111.62154388428</ele>
        <time>2018-09-02T14:44:09Z</time>
      </trkpt>
      <trkpt lat="42.897014231461" lon="-4.96510600671635">
        <ele>1111.3356552124</ele>
        <time>2018-09-02T14:44:11Z</time>
      </trkpt>
      <trkpt lat="42.8970795683962" lon="-4.96514372528062">
        <ele>1113.93172454834</ele>
        <time>2018-09-02T14:44:13Z</time>
      </trkpt>
      <trkpt lat="42.89715022784" lon="-4.96518429369197">
        <ele>1114.16219329834</ele>
        <time>2018-09-02T14:44:15Z</time>
      </trkpt>
      <trkpt lat="42.8972203843695" lon="-4.96522922069297">
        <ele>1113.86360931396</ele>
        <time>2018-09-02T14:44:17Z</time>
      </trkpt>
      <trkpt lat="42.8972937260223" lon="-4.96527230367527">
        <ele>1113.6930770874</ele>
        <time>2018-09-02T14:44:19Z</time>
      </trkpt>
      <trkpt lat="42.897369666065" lon="-4.96530968696341">
        <ele>1113.33211517334</ele>
        <time>2018-09-02T14:44:21Z</time>
      </trkpt>
      <trkpt lat="42.8974450193745" lon="-4.96533826925323">
        <ele>1112.61861419678</ele>
        <time>2018-09-02T14:44:23Z</time>
      </trkpt>
      <trkpt lat="42.897524270269" lon="-4.96536148712501">
        <ele>1112.11849212646</ele>
        <time>2018-09-02T14:44:25Z</time>
      </trkpt>
      <trkpt lat="42.8976027667922" lon="-4.96538478881583">
        <ele>1110.67867279053</ele>
        <time>2018-09-02T14:44:27Z</time>
      </trkpt>
      <trkpt lat="42.897680341306" lon="-4.96540063061282">
        <ele>1109.5085067749</ele>
        <time>2018-09-02T14:44:29Z</time>
      </trkpt>
      <trkpt lat="42.8977459296984" lon="-4.9654121976392">
        <ele>1108.99629974365</ele>
        <time>2018-09-02T14:44:31Z</time>
      </trkpt>
    </trkseg>
  </trk>
</gpx>
